<?xml version="1.0" encoding="UTF-8"?>
<gpx version="1.1" creator="https://www.youtrack.es" xsi:schemaLocation="http://www.topografix.com/GPX/1/1 http://www.topografix.com/GPX/1/1/gpx.xsd http://www.garmin.com/xmlschemas/GpxExtensions/v3 http://www.garmin.com/xmlschemas/GpxExtensionsv3.xsd http://www.garmin.com/xmlschemas/TrackPointExtension/v1 http://www.garmin.com/xmlschemas/TrackPointExtensionv1.xsd" xmlns:gpxtpx="http://www.garmin.com/xmlschemas/TrackPointExtension/v1" xmlns:gpxx="http://www.garmin.com/xmlschemas/GpxExtensions/v3" xmlns:xsi="http://www.w3.org/2001/XMLSchema-instance">
  <metadata>
    <author>
      <name>Miquel Castell Quetglas</name>
      <email id="miquelcastell63" domain="gmail.com"/>
    </author>
    <link href="https://www.youtrack.es">
      <text>YouTrack.es</text>
    </link>
    <time>2026-05-07T22:45:01Z</time>
  </metadata>
  <trk>
    <src>https://www.youtrack.es</src>
    <link href="https://www.youtrack.es/ruta/32476-rabe-de-las-calzadas-leon">
      <text>YouTrack.es</text>
    </link>
    <trkseg>
      <trkpt lat="42.34014" lon="-3.835323">
        <ele>899.1779917888343</ele>
        <time>2022-05-15T07:36:28Z</time>
      </trkpt>
      <trkpt lat="42.340138" lon="-3.835597">
        <ele>871.0475620310754</ele>
        <time>2022-05-15T07:36:29Z</time>
      </trkpt>
      <trkpt lat="42.339941" lon="-3.835481">
        <ele>855.630135698244</ele>
        <time>2022-05-15T07:36:30Z</time>
      </trkpt>
      <trkpt lat="42.339853" lon="-3.835447">
        <ele>860.7513589654118</ele>
        <time>2022-05-15T07:36:41Z</time>
      </trkpt>
      <trkpt lat="42.339786" lon="-3.835364">
        <ele>863.8924362286925</ele>
        <time>2022-05-15T07:37:10Z</time>
      </trkpt>
      <trkpt lat="42.339725" lon="-3.83527">
        <ele>865.7144852681085</ele>
        <time>2022-05-15T07:37:13Z</time>
      </trkpt>
      <trkpt lat="42.339832" lon="-3.83527">
        <ele>873.4304855531082</ele>
        <time>2022-05-15T07:37:56Z</time>
      </trkpt>
      <trkpt lat="42.339933" lon="-3.835302">
        <ele>875.5665094498545</ele>
        <time>2022-05-15T07:37:59Z</time>
      </trkpt>
      <trkpt lat="42.33983" lon="-3.83536">
        <ele>878.9359816219658</ele>
        <time>2022-05-15T07:38:04Z</time>
      </trkpt>
      <trkpt lat="42.339786" lon="-3.835475">
        <ele>879.6566033866256</ele>
        <time>2022-05-15T07:38:31Z</time>
      </trkpt>
      <trkpt lat="42.339873" lon="-3.835548">
        <ele>874.3476528786123</ele>
        <time>2022-05-15T07:38:39Z</time>
      </trkpt>
      <trkpt lat="42.339945" lon="-3.835644">
        <ele>875.4269463401288</ele>
        <time>2022-05-15T07:39:01Z</time>
      </trkpt>
      <trkpt lat="42.339971" lon="-3.835768">
        <ele>879.4575707986951</ele>
        <time>2022-05-15T07:39:34Z</time>
      </trkpt>
      <trkpt lat="42.339971" lon="-3.835897">
        <ele>879.1727880407125</ele>
        <time>2022-05-15T07:39:47Z</time>
      </trkpt>
      <trkpt lat="42.340023" lon="-3.836021">
        <ele>883.7555528599769</ele>
        <time>2022-05-15T07:39:54Z</time>
      </trkpt>
      <trkpt lat="42.340074" lon="-3.836135">
        <ele>885.09442889411</ele>
        <time>2022-05-15T07:40:02Z</time>
      </trkpt>
      <trkpt lat="42.340098" lon="-3.836253">
        <ele>889.1656343135983</ele>
        <time>2022-05-15T07:40:09Z</time>
      </trkpt>
      <trkpt lat="42.340116" lon="-3.836374">
        <ele>892.0027934676036</ele>
        <time>2022-05-15T07:40:21Z</time>
      </trkpt>
      <trkpt lat="42.340105" lon="-3.836496">
        <ele>893.2358281146735</ele>
        <time>2022-05-15T07:40:29Z</time>
      </trkpt>
      <trkpt lat="42.340129" lon="-3.836629">
        <ele>895.4020286593586</ele>
        <time>2022-05-15T07:40:38Z</time>
      </trkpt>
      <trkpt lat="42.340136" lon="-3.836757">
        <ele>901.8370292400941</ele>
        <time>2022-05-15T07:41:26Z</time>
      </trkpt>
      <trkpt lat="42.34021" lon="-3.836829">
        <ele>903.7495850650594</ele>
        <time>2022-05-15T07:41:46Z</time>
      </trkpt>
      <trkpt lat="42.340279" lon="-3.83693">
        <ele>900.275474277325</ele>
        <time>2022-05-15T07:41:53Z</time>
      </trkpt>
      <trkpt lat="42.34036" lon="-3.837">
        <ele>903.2231766544282</ele>
        <time>2022-05-15T07:42:02Z</time>
      </trkpt>
      <trkpt lat="42.340371" lon="-3.837135">
        <ele>905.2846576347947</ele>
        <time>2022-05-15T07:42:13Z</time>
      </trkpt>
      <trkpt lat="42.340348" lon="-3.83726">
        <ele>908.5331371277571</ele>
        <time>2022-05-15T07:42:24Z</time>
      </trkpt>
      <trkpt lat="42.340306" lon="-3.83738">
        <ele>911.0574458315969</ele>
        <time>2022-05-15T07:42:36Z</time>
      </trkpt>
      <trkpt lat="42.340261" lon="-3.837492">
        <ele>910.5446776254103</ele>
        <time>2022-05-15T07:42:44Z</time>
      </trkpt>
      <trkpt lat="42.340243" lon="-3.837614">
        <ele>911.2039208654314</ele>
        <time>2022-05-15T07:42:59Z</time>
      </trkpt>
      <trkpt lat="42.340222" lon="-3.837749">
        <ele>909.0366279222071</ele>
        <time>2022-05-15T07:43:14Z</time>
      </trkpt>
      <trkpt lat="42.34022" lon="-3.837876">
        <ele>909.9590751929209</ele>
        <time>2022-05-15T07:43:26Z</time>
      </trkpt>
      <trkpt lat="42.340233" lon="-3.838012">
        <ele>909.4185052560642</ele>
        <time>2022-05-15T07:43:37Z</time>
      </trkpt>
      <trkpt lat="42.340259" lon="-3.838133">
        <ele>911.7024645516649</ele>
        <time>2022-05-15T07:43:46Z</time>
      </trkpt>
      <trkpt lat="42.340297" lon="-3.838249">
        <ele>914.4599309405312</ele>
        <time>2022-05-15T07:43:56Z</time>
      </trkpt>
      <trkpt lat="42.340254" lon="-3.838364">
        <ele>914.3410912202671</ele>
        <time>2022-05-15T07:44:07Z</time>
      </trkpt>
      <trkpt lat="42.340263" lon="-3.838486">
        <ele>913.8235677322373</ele>
        <time>2022-05-15T07:44:18Z</time>
      </trkpt>
      <trkpt lat="42.34028" lon="-3.838612">
        <ele>908.9188240533695</ele>
        <time>2022-05-15T07:44:28Z</time>
      </trkpt>
      <trkpt lat="42.340301" lon="-3.838735">
        <ele>907.9854990569875</ele>
        <time>2022-05-15T07:44:38Z</time>
      </trkpt>
      <trkpt lat="42.34031" lon="-3.838858">
        <ele>907.4558725925162</ele>
        <time>2022-05-15T07:44:48Z</time>
      </trkpt>
      <trkpt lat="42.340293" lon="-3.838993">
        <ele>904.90342390351</ele>
        <time>2022-05-15T07:44:58Z</time>
      </trkpt>
      <trkpt lat="42.340282" lon="-3.839127">
        <ele>906.0768811088055</ele>
        <time>2022-05-15T07:45:08Z</time>
      </trkpt>
      <trkpt lat="42.340327" lon="-3.839238">
        <ele>905.6622756449506</ele>
        <time>2022-05-15T07:45:16Z</time>
      </trkpt>
      <trkpt lat="42.340354" lon="-3.839368">
        <ele>905.3838067511097</ele>
        <time>2022-05-15T07:45:27Z</time>
      </trkpt>
      <trkpt lat="42.340364" lon="-3.839488">
        <ele>905.711171249859</ele>
        <time>2022-05-15T07:45:38Z</time>
      </trkpt>
      <trkpt lat="42.340362" lon="-3.839614">
        <ele>907.4679890107363</ele>
        <time>2022-05-15T07:45:51Z</time>
      </trkpt>
      <trkpt lat="42.340388" lon="-3.83974">
        <ele>907.6471535721794</ele>
        <time>2022-05-15T07:46:28Z</time>
      </trkpt>
      <trkpt lat="42.34045" lon="-3.83984">
        <ele>910.5781241152436</ele>
        <time>2022-05-15T07:46:36Z</time>
      </trkpt>
      <trkpt lat="42.340471" lon="-3.839965">
        <ele>911.2245018500835</ele>
        <time>2022-05-15T07:46:44Z</time>
      </trkpt>
      <trkpt lat="42.34047" lon="-3.840089">
        <ele>912.8253177367151</ele>
        <time>2022-05-15T07:46:53Z</time>
      </trkpt>
      <trkpt lat="42.340508" lon="-3.840206">
        <ele>914.8635997613892</ele>
        <time>2022-05-15T07:47:02Z</time>
      </trkpt>
      <trkpt lat="42.340506" lon="-3.840332">
        <ele>912.1669387118891</ele>
        <time>2022-05-15T07:47:12Z</time>
      </trkpt>
      <trkpt lat="42.340455" lon="-3.840436">
        <ele>912.4007023554295</ele>
        <time>2022-05-15T07:47:22Z</time>
      </trkpt>
      <trkpt lat="42.340438" lon="-3.840564">
        <ele>912.4147906415164</ele>
        <time>2022-05-15T07:47:31Z</time>
      </trkpt>
      <trkpt lat="42.340427" lon="-3.840694">
        <ele>909.8260714225471</ele>
        <time>2022-05-15T07:47:39Z</time>
      </trkpt>
      <trkpt lat="42.340418" lon="-3.840825">
        <ele>909.4384148428217</ele>
        <time>2022-05-15T07:47:51Z</time>
      </trkpt>
      <trkpt lat="42.340424" lon="-3.840946">
        <ele>907.3416776293889</ele>
        <time>2022-05-15T07:48:02Z</time>
      </trkpt>
      <trkpt lat="42.340421" lon="-3.841071">
        <ele>906.9441660363227</ele>
        <time>2022-05-15T07:48:11Z</time>
      </trkpt>
      <trkpt lat="42.34047" lon="-3.841174">
        <ele>909.7001871140674</ele>
        <time>2022-05-15T07:48:18Z</time>
      </trkpt>
      <trkpt lat="42.34048" lon="-3.841296">
        <ele>910.609947649762</ele>
        <time>2022-05-15T07:48:24Z</time>
      </trkpt>
      <trkpt lat="42.340455" lon="-3.84142">
        <ele>907.6905850283802</ele>
        <time>2022-05-15T07:48:36Z</time>
      </trkpt>
      <trkpt lat="42.340427" lon="-3.841552">
        <ele>906.3751574447379</ele>
        <time>2022-05-15T07:48:44Z</time>
      </trkpt>
      <trkpt lat="42.340384" lon="-3.841671">
        <ele>905.4651827979833</ele>
        <time>2022-05-15T07:48:53Z</time>
      </trkpt>
      <trkpt lat="42.340358" lon="-3.841798">
        <ele>899.3963087601587</ele>
        <time>2022-05-15T07:49:04Z</time>
      </trkpt>
      <trkpt lat="42.340317" lon="-3.841912">
        <ele>896.3179799327627</ele>
        <time>2022-05-15T07:49:14Z</time>
      </trkpt>
      <trkpt lat="42.340286" lon="-3.842035">
        <ele>894.4859084403142</ele>
        <time>2022-05-15T07:49:24Z</time>
      </trkpt>
      <trkpt lat="42.340266" lon="-3.842169">
        <ele>890.903769149445</ele>
        <time>2022-05-15T07:49:36Z</time>
      </trkpt>
      <trkpt lat="42.340273" lon="-3.842304">
        <ele>887.2771812099963</ele>
        <time>2022-05-15T07:49:44Z</time>
      </trkpt>
      <trkpt lat="42.340277" lon="-3.842437">
        <ele>887.542108187452</ele>
        <time>2022-05-15T07:49:51Z</time>
      </trkpt>
      <trkpt lat="42.340276" lon="-3.842565">
        <ele>888.3122623143718</ele>
        <time>2022-05-15T07:49:57Z</time>
      </trkpt>
      <trkpt lat="42.340267" lon="-3.842687">
        <ele>888.4562165746465</ele>
        <time>2022-05-15T07:50:03Z</time>
      </trkpt>
      <trkpt lat="42.340253" lon="-3.842817">
        <ele>888.8294636765495</ele>
        <time>2022-05-15T07:50:12Z</time>
      </trkpt>
      <trkpt lat="42.340242" lon="-3.842948">
        <ele>889.9875429626554</ele>
        <time>2022-05-15T07:50:19Z</time>
      </trkpt>
      <trkpt lat="42.340214" lon="-3.843066">
        <ele>890.6345406025648</ele>
        <time>2022-05-15T07:50:27Z</time>
      </trkpt>
      <trkpt lat="42.340186" lon="-3.843192">
        <ele>890.4952892567962</ele>
        <time>2022-05-15T07:50:34Z</time>
      </trkpt>
      <trkpt lat="42.340187" lon="-3.843327">
        <ele>891.7318214783445</ele>
        <time>2022-05-15T07:50:42Z</time>
      </trkpt>
      <trkpt lat="42.340183" lon="-3.843462">
        <ele>894.8621372785419</ele>
        <time>2022-05-15T07:50:49Z</time>
      </trkpt>
      <trkpt lat="42.340156" lon="-3.843579">
        <ele>896.2864916278049</ele>
        <time>2022-05-15T07:50:57Z</time>
      </trkpt>
      <trkpt lat="42.340152" lon="-3.843702">
        <ele>895.7162644183263</ele>
        <time>2022-05-15T07:51:07Z</time>
      </trkpt>
      <trkpt lat="42.340161" lon="-3.843837">
        <ele>895.5595735302195</ele>
        <time>2022-05-15T07:51:14Z</time>
      </trkpt>
      <trkpt lat="42.340186" lon="-3.843964">
        <ele>895.7720566960052</ele>
        <time>2022-05-15T07:51:23Z</time>
      </trkpt>
      <trkpt lat="42.340208" lon="-3.844091">
        <ele>896.3792928131297</ele>
        <time>2022-05-15T07:51:33Z</time>
      </trkpt>
      <trkpt lat="42.340225" lon="-3.844211">
        <ele>898.0250700190663</ele>
        <time>2022-05-15T07:51:39Z</time>
      </trkpt>
      <trkpt lat="42.340239" lon="-3.844346">
        <ele>899.3853948032483</ele>
        <time>2022-05-15T07:51:48Z</time>
      </trkpt>
      <trkpt lat="42.340241" lon="-3.844471">
        <ele>900.011840232648</ele>
        <time>2022-05-15T07:51:54Z</time>
      </trkpt>
      <trkpt lat="42.34027" lon="-3.844598">
        <ele>900.9641839638352</ele>
        <time>2022-05-15T07:52:03Z</time>
      </trkpt>
      <trkpt lat="42.340295" lon="-3.844717">
        <ele>900.2845904566348</ele>
        <time>2022-05-15T07:52:12Z</time>
      </trkpt>
      <trkpt lat="42.340293" lon="-3.844849">
        <ele>900.7647991636768</ele>
        <time>2022-05-15T07:52:21Z</time>
      </trkpt>
      <trkpt lat="42.340328" lon="-3.844972">
        <ele>903.9115896793082</ele>
        <time>2022-05-15T07:52:29Z</time>
      </trkpt>
      <trkpt lat="42.340357" lon="-3.845099">
        <ele>904.5371881909668</ele>
        <time>2022-05-15T07:52:37Z</time>
      </trkpt>
      <trkpt lat="42.340375" lon="-3.845231">
        <ele>903.5728848455474</ele>
        <time>2022-05-15T07:52:47Z</time>
      </trkpt>
      <trkpt lat="42.340397" lon="-3.845357">
        <ele>904.6563087636605</ele>
        <time>2022-05-15T07:52:56Z</time>
      </trkpt>
      <trkpt lat="42.340401" lon="-3.845484">
        <ele>905.1372078144923</ele>
        <time>2022-05-15T07:53:04Z</time>
      </trkpt>
      <trkpt lat="42.340411" lon="-3.845605">
        <ele>908.6787209035829</ele>
        <time>2022-05-15T07:53:16Z</time>
      </trkpt>
      <trkpt lat="42.340396" lon="-3.845734">
        <ele>906.6954449564219</ele>
        <time>2022-05-15T07:53:27Z</time>
      </trkpt>
      <trkpt lat="42.340402" lon="-3.845862">
        <ele>907.7820242242888</ele>
        <time>2022-05-15T07:53:34Z</time>
      </trkpt>
      <trkpt lat="42.340368" lon="-3.845987">
        <ele>907.5185771873221</ele>
        <time>2022-05-15T07:53:44Z</time>
      </trkpt>
      <trkpt lat="42.340376" lon="-3.846123">
        <ele>909.0945780593902</ele>
        <time>2022-05-15T07:53:52Z</time>
      </trkpt>
      <trkpt lat="42.340392" lon="-3.846262">
        <ele>909.8311156341806</ele>
        <time>2022-05-15T07:53:58Z</time>
      </trkpt>
      <trkpt lat="42.340389" lon="-3.846399">
        <ele>909.8056518742815</ele>
        <time>2022-05-15T07:54:07Z</time>
      </trkpt>
      <trkpt lat="42.340405" lon="-3.846529">
        <ele>909.816232801415</ele>
        <time>2022-05-15T07:54:16Z</time>
      </trkpt>
      <trkpt lat="42.340431" lon="-3.846657">
        <ele>908.1996931359172</ele>
        <time>2022-05-15T07:54:24Z</time>
      </trkpt>
      <trkpt lat="42.340479" lon="-3.846768">
        <ele>912.262666894123</ele>
        <time>2022-05-15T07:54:31Z</time>
      </trkpt>
      <trkpt lat="42.340486" lon="-3.8469">
        <ele>911.2599267754704</ele>
        <time>2022-05-15T07:54:39Z</time>
      </trkpt>
      <trkpt lat="42.34049" lon="-3.847024">
        <ele>909.2579152435064</ele>
        <time>2022-05-15T07:54:48Z</time>
      </trkpt>
      <trkpt lat="42.340509" lon="-3.847157">
        <ele>910.5212801573798</ele>
        <time>2022-05-15T07:54:56Z</time>
      </trkpt>
      <trkpt lat="42.340521" lon="-3.847294">
        <ele>911.8278460400179</ele>
        <time>2022-05-15T07:55:04Z</time>
      </trkpt>
      <trkpt lat="42.340536" lon="-3.847415">
        <ele>910.5940857129171</ele>
        <time>2022-05-15T07:55:11Z</time>
      </trkpt>
      <trkpt lat="42.340541" lon="-3.847548">
        <ele>910.9292907342315</ele>
        <time>2022-05-15T07:55:19Z</time>
      </trkpt>
      <trkpt lat="42.340545" lon="-3.847675">
        <ele>908.9968708017841</ele>
        <time>2022-05-15T07:55:29Z</time>
      </trkpt>
      <trkpt lat="42.34056" lon="-3.847813">
        <ele>908.9476430127397</ele>
        <time>2022-05-15T07:55:38Z</time>
      </trkpt>
      <trkpt lat="42.34058" lon="-3.847951">
        <ele>908.3589713200927</ele>
        <time>2022-05-15T07:55:46Z</time>
      </trkpt>
      <trkpt lat="42.340595" lon="-3.848071">
        <ele>907.7975982557982</ele>
        <time>2022-05-15T07:55:54Z</time>
      </trkpt>
      <trkpt lat="42.340614" lon="-3.848192">
        <ele>912.7325363196433</ele>
        <time>2022-05-15T07:56:03Z</time>
      </trkpt>
      <trkpt lat="42.340632" lon="-3.84833">
        <ele>913.863263303414</ele>
        <time>2022-05-15T07:56:11Z</time>
      </trkpt>
      <trkpt lat="42.340639" lon="-3.848452">
        <ele>914.3637608252466</ele>
        <time>2022-05-15T07:56:18Z</time>
      </trkpt>
      <trkpt lat="42.340653" lon="-3.848572">
        <ele>912.988565672189</ele>
        <time>2022-05-15T07:56:24Z</time>
      </trkpt>
      <trkpt lat="42.340655" lon="-3.848708">
        <ele>910.1739510055631</ele>
        <time>2022-05-15T07:56:34Z</time>
      </trkpt>
      <trkpt lat="42.340652" lon="-3.848833">
        <ele>905.7517366670072</ele>
        <time>2022-05-15T07:56:42Z</time>
      </trkpt>
      <trkpt lat="42.340671" lon="-3.848964">
        <ele>903.8127554543316</ele>
        <time>2022-05-15T07:56:51Z</time>
      </trkpt>
      <trkpt lat="42.340682" lon="-3.849089">
        <ele>902.2555588958785</ele>
        <time>2022-05-15T07:56:59Z</time>
      </trkpt>
      <trkpt lat="42.340702" lon="-3.849209">
        <ele>901.0201063025743</ele>
        <time>2022-05-15T07:57:09Z</time>
      </trkpt>
      <trkpt lat="42.340733" lon="-3.849327">
        <ele>901.1067307898775</ele>
        <time>2022-05-15T07:57:18Z</time>
      </trkpt>
      <trkpt lat="42.340779" lon="-3.849448">
        <ele>903.3225644733757</ele>
        <time>2022-05-15T07:57:24Z</time>
      </trkpt>
      <trkpt lat="42.340835" lon="-3.849549">
        <ele>903.2706878725439</ele>
        <time>2022-05-15T07:57:33Z</time>
      </trkpt>
      <trkpt lat="42.340895" lon="-3.84965">
        <ele>904.4140051230788</ele>
        <time>2022-05-15T07:57:39Z</time>
      </trkpt>
      <trkpt lat="42.340959" lon="-3.849756">
        <ele>904.5597436558455</ele>
        <time>2022-05-15T07:57:49Z</time>
      </trkpt>
      <trkpt lat="42.341023" lon="-3.849854">
        <ele>904.8253877079114</ele>
        <time>2022-05-15T07:57:58Z</time>
      </trkpt>
      <trkpt lat="42.341096" lon="-3.849957">
        <ele>904.8511615851894</ele>
        <time>2022-05-15T07:58:06Z</time>
      </trkpt>
      <trkpt lat="42.341149" lon="-3.850076">
        <ele>907.790746062994</ele>
        <time>2022-05-15T07:58:14Z</time>
      </trkpt>
      <trkpt lat="42.341183" lon="-3.850197">
        <ele>911.4128433037549</ele>
        <time>2022-05-15T07:58:21Z</time>
      </trkpt>
      <trkpt lat="42.3412" lon="-3.850316">
        <ele>909.954656727612</ele>
        <time>2022-05-15T07:58:29Z</time>
      </trkpt>
      <trkpt lat="42.341217" lon="-3.850439">
        <ele>911.0418934877962</ele>
        <time>2022-05-15T07:58:36Z</time>
      </trkpt>
      <trkpt lat="42.341217" lon="-3.850574">
        <ele>909.1499839508906</ele>
        <time>2022-05-15T07:58:46Z</time>
      </trkpt>
      <trkpt lat="42.341247" lon="-3.850695">
        <ele>909.558073352091</ele>
        <time>2022-05-15T07:58:54Z</time>
      </trkpt>
      <trkpt lat="42.341251" lon="-3.850828">
        <ele>908.129895132035</ele>
        <time>2022-05-15T07:59:03Z</time>
      </trkpt>
      <trkpt lat="42.341261" lon="-3.850948">
        <ele>908.423877093941</ele>
        <time>2022-05-15T07:59:11Z</time>
      </trkpt>
      <trkpt lat="42.341266" lon="-3.851083">
        <ele>907.8034289516509</ele>
        <time>2022-05-15T07:59:19Z</time>
      </trkpt>
      <trkpt lat="42.341306" lon="-3.8512">
        <ele>910.0949184494093</ele>
        <time>2022-05-15T07:59:26Z</time>
      </trkpt>
      <trkpt lat="42.341301" lon="-3.851333">
        <ele>910.1516903731972</ele>
        <time>2022-05-15T07:59:34Z</time>
      </trkpt>
      <trkpt lat="42.341305" lon="-3.851461">
        <ele>910.0202027745545</ele>
        <time>2022-05-15T07:59:43Z</time>
      </trkpt>
      <trkpt lat="42.341319" lon="-3.851584">
        <ele>913.0593255609274</ele>
        <time>2022-05-15T07:59:49Z</time>
      </trkpt>
      <trkpt lat="42.341287" lon="-3.851706">
        <ele>911.3715009735897</ele>
        <time>2022-05-15T07:59:58Z</time>
      </trkpt>
      <trkpt lat="42.341304" lon="-3.851834">
        <ele>910.9566853987053</ele>
        <time>2022-05-15T08:00:06Z</time>
      </trkpt>
      <trkpt lat="42.341302" lon="-3.85196">
        <ele>910.0054964842275</ele>
        <time>2022-05-15T08:00:13Z</time>
      </trkpt>
      <trkpt lat="42.341305" lon="-3.852092">
        <ele>907.1704468755051</ele>
        <time>2022-05-15T08:00:22Z</time>
      </trkpt>
      <trkpt lat="42.3413" lon="-3.852214">
        <ele>904.9778874218464</ele>
        <time>2022-05-15T08:00:29Z</time>
      </trkpt>
      <trkpt lat="42.341306" lon="-3.852347">
        <ele>907.1440230449662</ele>
        <time>2022-05-15T08:00:37Z</time>
      </trkpt>
      <trkpt lat="42.341308" lon="-3.852468">
        <ele>906.3411350147799</ele>
        <time>2022-05-15T08:00:44Z</time>
      </trkpt>
      <trkpt lat="42.341317" lon="-3.852597">
        <ele>907.7917593354359</ele>
        <time>2022-05-15T08:00:53Z</time>
      </trkpt>
      <trkpt lat="42.341329" lon="-3.85272">
        <ele>908.4650033265352</ele>
        <time>2022-05-15T08:01:03Z</time>
      </trkpt>
      <trkpt lat="42.341337" lon="-3.852843">
        <ele>908.0815365239978</ele>
        <time>2022-05-15T08:01:13Z</time>
      </trkpt>
      <trkpt lat="42.341369" lon="-3.852957">
        <ele>909.4091783668846</ele>
        <time>2022-05-15T08:01:21Z</time>
      </trkpt>
      <trkpt lat="42.341387" lon="-3.853079">
        <ele>907.8598052309826</ele>
        <time>2022-05-15T08:01:29Z</time>
      </trkpt>
      <trkpt lat="42.341423" lon="-3.853202">
        <ele>909.9642778988928</ele>
        <time>2022-05-15T08:01:37Z</time>
      </trkpt>
      <trkpt lat="42.341463" lon="-3.853315">
        <ele>911.7540085753426</ele>
        <time>2022-05-15T08:01:44Z</time>
      </trkpt>
      <trkpt lat="42.341492" lon="-3.85344">
        <ele>912.7053628759459</ele>
        <time>2022-05-15T08:01:54Z</time>
      </trkpt>
      <trkpt lat="42.341513" lon="-3.853567">
        <ele>914.5102068362758</ele>
        <time>2022-05-15T08:02:02Z</time>
      </trkpt>
      <trkpt lat="42.341517" lon="-3.853697">
        <ele>916.2437123097479</ele>
        <time>2022-05-15T08:02:09Z</time>
      </trkpt>
      <trkpt lat="42.341496" lon="-3.853821">
        <ele>916.3021783763543</ele>
        <time>2022-05-15T08:02:18Z</time>
      </trkpt>
      <trkpt lat="42.341458" lon="-3.853937">
        <ele>915.696166309528</ele>
        <time>2022-05-15T08:02:27Z</time>
      </trkpt>
      <trkpt lat="42.341443" lon="-3.85406">
        <ele>915.1289485245943</ele>
        <time>2022-05-15T08:02:36Z</time>
      </trkpt>
      <trkpt lat="42.341408" lon="-3.854185">
        <ele>913.3844924718142</ele>
        <time>2022-05-15T08:02:44Z</time>
      </trkpt>
      <trkpt lat="42.3414" lon="-3.854317">
        <ele>915.1044148150831</ele>
        <time>2022-05-15T08:02:51Z</time>
      </trkpt>
      <trkpt lat="42.34138" lon="-3.854443">
        <ele>914.0922729661688</ele>
        <time>2022-05-15T08:02:59Z</time>
      </trkpt>
      <trkpt lat="42.341369" lon="-3.854568">
        <ele>913.6782634640113</ele>
        <time>2022-05-15T08:03:08Z</time>
      </trkpt>
      <trkpt lat="42.341372" lon="-3.854698">
        <ele>916.3102441001683</ele>
        <time>2022-05-15T08:03:16Z</time>
      </trkpt>
      <trkpt lat="42.341358" lon="-3.854824">
        <ele>918.1450576316565</ele>
        <time>2022-05-15T08:03:26Z</time>
      </trkpt>
      <trkpt lat="42.341341" lon="-3.854955">
        <ele>918.8734241528437</ele>
        <time>2022-05-15T08:03:34Z</time>
      </trkpt>
      <trkpt lat="42.34133" lon="-3.855086">
        <ele>918.6563533702865</ele>
        <time>2022-05-15T08:03:42Z</time>
      </trkpt>
      <trkpt lat="42.341319" lon="-3.855206">
        <ele>919.381791244261</ele>
        <time>2022-05-15T08:03:49Z</time>
      </trkpt>
      <trkpt lat="42.341305" lon="-3.855338">
        <ele>920.1872979179025</ele>
        <time>2022-05-15T08:03:58Z</time>
      </trkpt>
      <trkpt lat="42.341271" lon="-3.855455">
        <ele>919.581162225455</ele>
        <time>2022-05-15T08:04:07Z</time>
      </trkpt>
      <trkpt lat="42.341235" lon="-3.855578">
        <ele>919.8738352200016</ele>
        <time>2022-05-15T08:04:19Z</time>
      </trkpt>
      <trkpt lat="42.341206" lon="-3.855703">
        <ele>919.5039036031812</ele>
        <time>2022-05-15T08:04:27Z</time>
      </trkpt>
      <trkpt lat="42.341181" lon="-3.855825">
        <ele>918.4208012260497</ele>
        <time>2022-05-15T08:04:34Z</time>
      </trkpt>
      <trkpt lat="42.34115" lon="-3.85595">
        <ele>916.5930059552193</ele>
        <time>2022-05-15T08:04:44Z</time>
      </trkpt>
      <trkpt lat="42.341149" lon="-3.856072">
        <ele>916.3718486940488</ele>
        <time>2022-05-15T08:04:51Z</time>
      </trkpt>
      <trkpt lat="42.341146" lon="-3.856207">
        <ele>915.9731132332236</ele>
        <time>2022-05-15T08:04:59Z</time>
      </trkpt>
      <trkpt lat="42.34114" lon="-3.856346">
        <ele>916.7261692499742</ele>
        <time>2022-05-15T08:05:08Z</time>
      </trkpt>
      <trkpt lat="42.341129" lon="-3.856474">
        <ele>916.390431731008</ele>
        <time>2022-05-15T08:05:17Z</time>
      </trkpt>
      <trkpt lat="42.341121" lon="-3.856608">
        <ele>917.9998322194442</ele>
        <time>2022-05-15T08:05:24Z</time>
      </trkpt>
      <trkpt lat="42.341106" lon="-3.856731">
        <ele>916.4898976106197</ele>
        <time>2022-05-15T08:05:32Z</time>
      </trkpt>
      <trkpt lat="42.34109" lon="-3.856855">
        <ele>916.3600360210985</ele>
        <time>2022-05-15T08:05:39Z</time>
      </trkpt>
      <trkpt lat="42.341071" lon="-3.856976">
        <ele>915.47081375774</ele>
        <time>2022-05-15T08:05:49Z</time>
      </trkpt>
      <trkpt lat="42.341058" lon="-3.857109">
        <ele>915.7242292333394</ele>
        <time>2022-05-15T08:05:57Z</time>
      </trkpt>
      <trkpt lat="42.341029" lon="-3.857233">
        <ele>915.5248356703669</ele>
        <time>2022-05-15T08:06:06Z</time>
      </trkpt>
      <trkpt lat="42.341022" lon="-3.857364">
        <ele>915.2139336969703</ele>
        <time>2022-05-15T08:06:13Z</time>
      </trkpt>
      <trkpt lat="42.341019" lon="-3.857487">
        <ele>915.8989554764703</ele>
        <time>2022-05-15T08:06:22Z</time>
      </trkpt>
      <trkpt lat="42.340987" lon="-3.857606">
        <ele>914.9651568392292</ele>
        <time>2022-05-15T08:06:29Z</time>
      </trkpt>
      <trkpt lat="42.340969" lon="-3.857737">
        <ele>916.4196305973455</ele>
        <time>2022-05-15T08:06:38Z</time>
      </trkpt>
      <trkpt lat="42.34095" lon="-3.857867">
        <ele>917.434815004468</ele>
        <time>2022-05-15T08:06:46Z</time>
      </trkpt>
      <trkpt lat="42.340918" lon="-3.857996">
        <ele>917.3951423037797</ele>
        <time>2022-05-15T08:06:56Z</time>
      </trkpt>
      <trkpt lat="42.340881" lon="-3.858118">
        <ele>917.3968425076455</ele>
        <time>2022-05-15T08:07:04Z</time>
      </trkpt>
      <trkpt lat="42.340871" lon="-3.858258">
        <ele>917.513461150229</ele>
        <time>2022-05-15T08:07:14Z</time>
      </trkpt>
      <trkpt lat="42.340865" lon="-3.858388">
        <ele>915.017141466029</ele>
        <time>2022-05-15T08:07:24Z</time>
      </trkpt>
      <trkpt lat="42.340893" lon="-3.858506">
        <ele>913.4272577865049</ele>
        <time>2022-05-15T08:07:33Z</time>
      </trkpt>
      <trkpt lat="42.340931" lon="-3.858623">
        <ele>913.4496532185003</ele>
        <time>2022-05-15T08:07:42Z</time>
      </trkpt>
      <trkpt lat="42.34094" lon="-3.858749">
        <ele>913.988741739653</ele>
        <time>2022-05-15T08:07:51Z</time>
      </trkpt>
      <trkpt lat="42.340953" lon="-3.858884">
        <ele>915.9857365237549</ele>
        <time>2022-05-15T08:07:59Z</time>
      </trkpt>
      <trkpt lat="42.340932" lon="-3.859017">
        <ele>915.0829621562734</ele>
        <time>2022-05-15T08:08:07Z</time>
      </trkpt>
      <trkpt lat="42.340938" lon="-3.859149">
        <ele>918.2924993177876</ele>
        <time>2022-05-15T08:08:16Z</time>
      </trkpt>
      <trkpt lat="42.340943" lon="-3.859271">
        <ele>918.99070586171</ele>
        <time>2022-05-15T08:08:21Z</time>
      </trkpt>
      <trkpt lat="42.340935" lon="-3.859392">
        <ele>919.0317226657644</ele>
        <time>2022-05-15T08:08:31Z</time>
      </trkpt>
      <trkpt lat="42.340944" lon="-3.859533">
        <ele>919.5846602385864</ele>
        <time>2022-05-15T08:08:40Z</time>
      </trkpt>
      <trkpt lat="42.340942" lon="-3.859662">
        <ele>921.3895198246464</ele>
        <time>2022-05-15T08:08:47Z</time>
      </trkpt>
      <trkpt lat="42.340943" lon="-3.859798">
        <ele>922.7168562207371</ele>
        <time>2022-05-15T08:08:57Z</time>
      </trkpt>
      <trkpt lat="42.340948" lon="-3.859929">
        <ele>925.6743299141526</ele>
        <time>2022-05-15T08:09:06Z</time>
      </trkpt>
      <trkpt lat="42.340943" lon="-3.860062">
        <ele>925.7844263808802</ele>
        <time>2022-05-15T08:09:15Z</time>
      </trkpt>
      <trkpt lat="42.340936" lon="-3.860194">
        <ele>925.5917636193335</ele>
        <time>2022-05-15T08:09:25Z</time>
      </trkpt>
      <trkpt lat="42.340939" lon="-3.860323">
        <ele>926.866602008231</ele>
        <time>2022-05-15T08:09:33Z</time>
      </trkpt>
      <trkpt lat="42.340948" lon="-3.860444">
        <ele>927.9614405436441</ele>
        <time>2022-05-15T08:09:39Z</time>
      </trkpt>
      <trkpt lat="42.340966" lon="-3.860578">
        <ele>930.0926276985556</ele>
        <time>2022-05-15T08:09:48Z</time>
      </trkpt>
      <trkpt lat="42.340941" lon="-3.860696">
        <ele>927.9052062267438</ele>
        <time>2022-05-15T08:09:56Z</time>
      </trkpt>
      <trkpt lat="42.340917" lon="-3.860829">
        <ele>929.8025434175506</ele>
        <time>2022-05-15T08:10:04Z</time>
      </trkpt>
      <trkpt lat="42.340901" lon="-3.86096">
        <ele>931.3577361917123</ele>
        <time>2022-05-15T08:10:13Z</time>
      </trkpt>
      <trkpt lat="42.340908" lon="-3.861098">
        <ele>934.6240114271641</ele>
        <time>2022-05-15T08:10:21Z</time>
      </trkpt>
      <trkpt lat="42.340891" lon="-3.861221">
        <ele>933.7293293559924</ele>
        <time>2022-05-15T08:10:29Z</time>
      </trkpt>
      <trkpt lat="42.340882" lon="-3.861353">
        <ele>934.8269375115633</ele>
        <time>2022-05-15T08:10:38Z</time>
      </trkpt>
      <trkpt lat="42.340899" lon="-3.861484">
        <ele>936.1861016592011</ele>
        <time>2022-05-15T08:10:47Z</time>
      </trkpt>
      <trkpt lat="42.340901" lon="-3.861611">
        <ele>936.2797826509923</ele>
        <time>2022-05-15T08:10:54Z</time>
      </trkpt>
      <trkpt lat="42.340875" lon="-3.861733">
        <ele>937.8465985413641</ele>
        <time>2022-05-15T08:11:04Z</time>
      </trkpt>
      <trkpt lat="42.340886" lon="-3.861869">
        <ele>941.2032581837848</ele>
        <time>2022-05-15T08:11:12Z</time>
      </trkpt>
      <trkpt lat="42.340898" lon="-3.861995">
        <ele>941.6942842528224</ele>
        <time>2022-05-15T08:11:21Z</time>
      </trkpt>
      <trkpt lat="42.340911" lon="-3.862117">
        <ele>945.9280458120629</ele>
        <time>2022-05-15T08:11:31Z</time>
      </trkpt>
      <trkpt lat="42.340903" lon="-3.86225">
        <ele>946.6670417720452</ele>
        <time>2022-05-15T08:11:39Z</time>
      </trkpt>
      <trkpt lat="42.340905" lon="-3.86238">
        <ele>945.5920013561845</ele>
        <time>2022-05-15T08:11:49Z</time>
      </trkpt>
      <trkpt lat="42.340894" lon="-3.862503">
        <ele>944.2429426815361</ele>
        <time>2022-05-15T08:11:57Z</time>
      </trkpt>
      <trkpt lat="42.340881" lon="-3.862623">
        <ele>944.0698707466945</ele>
        <time>2022-05-15T08:12:04Z</time>
      </trkpt>
      <trkpt lat="42.340844" lon="-3.862744">
        <ele>942.498861124739</ele>
        <time>2022-05-15T08:12:12Z</time>
      </trkpt>
      <trkpt lat="42.340836" lon="-3.862882">
        <ele>942.8191877240315</ele>
        <time>2022-05-15T08:12:19Z</time>
      </trkpt>
      <trkpt lat="42.340835" lon="-3.863012">
        <ele>942.5960978176445</ele>
        <time>2022-05-15T08:12:28Z</time>
      </trkpt>
      <trkpt lat="42.340825" lon="-3.863148">
        <ele>940.225795103237</ele>
        <time>2022-05-15T08:12:38Z</time>
      </trkpt>
      <trkpt lat="42.340829" lon="-3.863283">
        <ele>938.7225750721991</ele>
        <time>2022-05-15T08:12:47Z</time>
      </trkpt>
      <trkpt lat="42.340822" lon="-3.863405">
        <ele>937.0822056988254</ele>
        <time>2022-05-15T08:12:56Z</time>
      </trkpt>
      <trkpt lat="42.340827" lon="-3.863539">
        <ele>934.9101184559986</ele>
        <time>2022-05-15T08:13:06Z</time>
      </trkpt>
      <trkpt lat="42.340838" lon="-3.863668">
        <ele>936.7784550227225</ele>
        <time>2022-05-15T08:13:13Z</time>
      </trkpt>
      <trkpt lat="42.34085" lon="-3.8638">
        <ele>935.9608357818797</ele>
        <time>2022-05-15T08:13:21Z</time>
      </trkpt>
      <trkpt lat="42.340854" lon="-3.86393">
        <ele>936.5651012454182</ele>
        <time>2022-05-15T08:13:29Z</time>
      </trkpt>
      <trkpt lat="42.340888" lon="-3.864056">
        <ele>936.7020929148421</ele>
        <time>2022-05-15T08:13:37Z</time>
      </trkpt>
      <trkpt lat="42.340879" lon="-3.864187">
        <ele>937.5468143811449</ele>
        <time>2022-05-15T08:13:44Z</time>
      </trkpt>
      <trkpt lat="42.340896" lon="-3.864309">
        <ele>934.915626890026</ele>
        <time>2022-05-15T08:13:54Z</time>
      </trkpt>
      <trkpt lat="42.340904" lon="-3.864438">
        <ele>935.803303770721</ele>
        <time>2022-05-15T08:14:03Z</time>
      </trkpt>
      <trkpt lat="42.340943" lon="-3.864549">
        <ele>931.2414426226169</ele>
        <time>2022-05-15T08:14:14Z</time>
      </trkpt>
      <trkpt lat="42.340954" lon="-3.864684">
        <ele>931.333776560612</ele>
        <time>2022-05-15T08:14:22Z</time>
      </trkpt>
      <trkpt lat="42.341034" lon="-3.864758">
        <ele>930.698702446185</ele>
        <time>2022-05-15T08:14:31Z</time>
      </trkpt>
      <trkpt lat="42.341129" lon="-3.864809">
        <ele>928.2663158308715</ele>
        <time>2022-05-15T08:14:41Z</time>
      </trkpt>
      <trkpt lat="42.341225" lon="-3.864797">
        <ele>927.7661808803678</ele>
        <time>2022-05-15T08:14:54Z</time>
      </trkpt>
      <trkpt lat="42.341321" lon="-3.864765">
        <ele>926.7167302817106</ele>
        <time>2022-05-15T08:15:04Z</time>
      </trkpt>
      <trkpt lat="42.341399" lon="-3.864684">
        <ele>925.0467277672142</ele>
        <time>2022-05-15T08:15:18Z</time>
      </trkpt>
      <trkpt lat="42.341492" lon="-3.864709">
        <ele>920.7947344388813</ele>
        <time>2022-05-15T08:16:14Z</time>
      </trkpt>
      <trkpt lat="42.341579" lon="-3.864757">
        <ele>916.6673592980951</ele>
        <time>2022-05-15T08:18:37Z</time>
      </trkpt>
      <trkpt lat="42.341486" lon="-3.864736">
        <ele>914.4388470798731</ele>
        <time>2022-05-15T08:20:37Z</time>
      </trkpt>
      <trkpt lat="42.341399" lon="-3.864787">
        <ele>913.5590304937214</ele>
        <time>2022-05-15T08:21:06Z</time>
      </trkpt>
      <trkpt lat="42.341294" lon="-3.864803">
        <ele>913.7745976420119</ele>
        <time>2022-05-15T08:21:13Z</time>
      </trkpt>
      <trkpt lat="42.3412" lon="-3.864782">
        <ele>914.9137018360198</ele>
        <time>2022-05-15T08:21:19Z</time>
      </trkpt>
      <trkpt lat="42.3411" lon="-3.864778">
        <ele>916.6913889721036</ele>
        <time>2022-05-15T08:21:27Z</time>
      </trkpt>
      <trkpt lat="42.341012" lon="-3.864733">
        <ele>917.8108861064538</ele>
        <time>2022-05-15T08:21:34Z</time>
      </trkpt>
      <trkpt lat="42.340972" lon="-3.864844">
        <ele>920.5905420547351</ele>
        <time>2022-05-15T08:21:48Z</time>
      </trkpt>
      <trkpt lat="42.341043" lon="-3.864932">
        <ele>917.9655355205759</ele>
        <time>2022-05-15T08:21:54Z</time>
      </trkpt>
      <trkpt lat="42.341105" lon="-3.865028">
        <ele>917.2088095853105</ele>
        <time>2022-05-15T08:22:02Z</time>
      </trkpt>
      <trkpt lat="42.341145" lon="-3.865147">
        <ele>917.1690558642149</ele>
        <time>2022-05-15T08:22:09Z</time>
      </trkpt>
      <trkpt lat="42.34122" lon="-3.865234">
        <ele>919.2937506726012</ele>
        <time>2022-05-15T08:22:18Z</time>
      </trkpt>
      <trkpt lat="42.341291" lon="-3.865333">
        <ele>918.2850887710229</ele>
        <time>2022-05-15T08:22:27Z</time>
      </trkpt>
      <trkpt lat="42.341307" lon="-3.865465">
        <ele>919.9854232240468</ele>
        <time>2022-05-15T08:22:34Z</time>
      </trkpt>
      <trkpt lat="42.341353" lon="-3.865571">
        <ele>917.2301710909232</ele>
        <time>2022-05-15T08:22:43Z</time>
      </trkpt>
      <trkpt lat="42.341344" lon="-3.865698">
        <ele>915.6090851444751</ele>
        <time>2022-05-15T08:22:52Z</time>
      </trkpt>
      <trkpt lat="42.341348" lon="-3.86583">
        <ele>915.2935157287866</ele>
        <time>2022-05-15T08:22:59Z</time>
      </trkpt>
      <trkpt lat="42.341364" lon="-3.865958">
        <ele>915.5037325024605</ele>
        <time>2022-05-15T08:23:08Z</time>
      </trkpt>
      <trkpt lat="42.341383" lon="-3.866078">
        <ele>917.7608667965978</ele>
        <time>2022-05-15T08:23:14Z</time>
      </trkpt>
      <trkpt lat="42.341398" lon="-3.866202">
        <ele>919.8052746802568</ele>
        <time>2022-05-15T08:23:22Z</time>
      </trkpt>
      <trkpt lat="42.341422" lon="-3.866338">
        <ele>920.069196369499</ele>
        <time>2022-05-15T08:23:31Z</time>
      </trkpt>
      <trkpt lat="42.34144" lon="-3.866469">
        <ele>920.8752700723708</ele>
        <time>2022-05-15T08:23:38Z</time>
      </trkpt>
      <trkpt lat="42.341449" lon="-3.866595">
        <ele>922.8265672381967</ele>
        <time>2022-05-15T08:23:46Z</time>
      </trkpt>
      <trkpt lat="42.341448" lon="-3.866723">
        <ele>925.3368438109756</ele>
        <time>2022-05-15T08:23:54Z</time>
      </trkpt>
      <trkpt lat="42.341428" lon="-3.866845">
        <ele>927.453514884226</ele>
        <time>2022-05-15T08:24:03Z</time>
      </trkpt>
      <trkpt lat="42.341416" lon="-3.866968">
        <ele>926.3833590345457</ele>
        <time>2022-05-15T08:24:11Z</time>
      </trkpt>
      <trkpt lat="42.341425" lon="-3.86709">
        <ele>924.4375957539305</ele>
        <time>2022-05-15T08:24:19Z</time>
      </trkpt>
      <trkpt lat="42.341434" lon="-3.86722">
        <ele>923.9814155306667</ele>
        <time>2022-05-15T08:24:28Z</time>
      </trkpt>
      <trkpt lat="42.341442" lon="-3.86735">
        <ele>925.053513891995</ele>
        <time>2022-05-15T08:24:36Z</time>
      </trkpt>
      <trkpt lat="42.341447" lon="-3.867481">
        <ele>924.9710983578116</ele>
        <time>2022-05-15T08:24:44Z</time>
      </trkpt>
      <trkpt lat="42.341461" lon="-3.867617">
        <ele>924.8650880912319</ele>
        <time>2022-05-15T08:24:53Z</time>
      </trkpt>
      <trkpt lat="42.341466" lon="-3.86775">
        <ele>923.2664454523474</ele>
        <time>2022-05-15T08:25:01Z</time>
      </trkpt>
      <trkpt lat="42.34149" lon="-3.867873">
        <ele>924.3959765546024</ele>
        <time>2022-05-15T08:25:09Z</time>
      </trkpt>
      <trkpt lat="42.341509" lon="-3.868001">
        <ele>924.901523203589</ele>
        <time>2022-05-15T08:25:19Z</time>
      </trkpt>
      <trkpt lat="42.341514" lon="-3.868128">
        <ele>925.7660924596712</ele>
        <time>2022-05-15T08:25:34Z</time>
      </trkpt>
      <trkpt lat="42.341554" lon="-3.86825">
        <ele>924.3699766462669</ele>
        <time>2022-05-15T08:25:46Z</time>
      </trkpt>
      <trkpt lat="42.341574" lon="-3.868372">
        <ele>926.5143486140296</ele>
        <time>2022-05-15T08:25:54Z</time>
      </trkpt>
      <trkpt lat="42.341614" lon="-3.868487">
        <ele>927.7326265731826</ele>
        <time>2022-05-15T08:26:03Z</time>
      </trkpt>
      <trkpt lat="42.341654" lon="-3.868596">
        <ele>928.864329223521</ele>
        <time>2022-05-15T08:26:11Z</time>
      </trkpt>
      <trkpt lat="42.341671" lon="-3.868733">
        <ele>930.4545192690566</ele>
        <time>2022-05-15T08:26:19Z</time>
      </trkpt>
      <trkpt lat="42.341696" lon="-3.868851">
        <ele>931.133537992835</ele>
        <time>2022-05-15T08:26:28Z</time>
      </trkpt>
      <trkpt lat="42.341694" lon="-3.86898">
        <ele>934.601867175661</ele>
        <time>2022-05-15T08:26:34Z</time>
      </trkpt>
      <trkpt lat="42.341701" lon="-3.869102">
        <ele>936.0175460781902</ele>
        <time>2022-05-15T08:26:43Z</time>
      </trkpt>
      <trkpt lat="42.341699" lon="-3.869234">
        <ele>938.4279687833041</ele>
        <time>2022-05-15T08:26:49Z</time>
      </trkpt>
      <trkpt lat="42.34171" lon="-3.869356">
        <ele>942.1294510439038</ele>
        <time>2022-05-15T08:26:56Z</time>
      </trkpt>
      <trkpt lat="42.341729" lon="-3.869475">
        <ele>941.7124342024326</ele>
        <time>2022-05-15T08:27:03Z</time>
      </trkpt>
      <trkpt lat="42.341727" lon="-3.8696">
        <ele>944.2416431922466</ele>
        <time>2022-05-15T08:27:09Z</time>
      </trkpt>
      <trkpt lat="42.341721" lon="-3.869735">
        <ele>947.7580308243632</ele>
        <time>2022-05-15T08:27:17Z</time>
      </trkpt>
      <trkpt lat="42.34174" lon="-3.869854">
        <ele>948.7794568417594</ele>
        <time>2022-05-15T08:27:24Z</time>
      </trkpt>
      <trkpt lat="42.341764" lon="-3.869981">
        <ele>952.8761537959799</ele>
        <time>2022-05-15T08:27:33Z</time>
      </trkpt>
      <trkpt lat="42.341796" lon="-3.870104">
        <ele>951.1339822802693</ele>
        <time>2022-05-15T08:27:54Z</time>
      </trkpt>
      <trkpt lat="42.341822" lon="-3.87023">
        <ele>949.012746241875</ele>
        <time>2022-05-15T08:28:03Z</time>
      </trkpt>
      <trkpt lat="42.341827" lon="-3.870369">
        <ele>946.5342798624188</ele>
        <time>2022-05-15T08:28:11Z</time>
      </trkpt>
      <trkpt lat="42.341854" lon="-3.87049">
        <ele>945.1026314124465</ele>
        <time>2022-05-15T08:28:19Z</time>
      </trkpt>
      <trkpt lat="42.341841" lon="-3.870613">
        <ele>948.3979578362778</ele>
        <time>2022-05-15T08:28:27Z</time>
      </trkpt>
      <trkpt lat="42.34185" lon="-3.870734">
        <ele>948.57363929227</ele>
        <time>2022-05-15T08:28:34Z</time>
      </trkpt>
      <trkpt lat="42.341864" lon="-3.870856">
        <ele>949.958132901229</ele>
        <time>2022-05-15T08:28:41Z</time>
      </trkpt>
      <trkpt lat="42.341854" lon="-3.870985">
        <ele>951.9286190262064</ele>
        <time>2022-05-15T08:28:50Z</time>
      </trkpt>
      <trkpt lat="42.341898" lon="-3.871098">
        <ele>950.7071960465983</ele>
        <time>2022-05-15T08:28:58Z</time>
      </trkpt>
      <trkpt lat="42.34193" lon="-3.871212">
        <ele>951.571470728144</ele>
        <time>2022-05-15T08:29:05Z</time>
      </trkpt>
      <trkpt lat="42.341935" lon="-3.871333">
        <ele>952.3414459815249</ele>
        <time>2022-05-15T08:29:13Z</time>
      </trkpt>
      <trkpt lat="42.341931" lon="-3.871467">
        <ele>952.1827003546059</ele>
        <time>2022-05-15T08:29:20Z</time>
      </trkpt>
      <trkpt lat="42.341973" lon="-3.87159">
        <ele>946.862843029201</ele>
        <time>2022-05-15T08:29:51Z</time>
      </trkpt>
      <trkpt lat="42.341975" lon="-3.871719">
        <ele>946.411834933795</ele>
        <time>2022-05-15T08:29:58Z</time>
      </trkpt>
      <trkpt lat="42.341977" lon="-3.871848">
        <ele>949.0117445746437</ele>
        <time>2022-05-15T08:30:08Z</time>
      </trkpt>
      <trkpt lat="42.34199" lon="-3.871977">
        <ele>948.040999061428</ele>
        <time>2022-05-15T08:30:16Z</time>
      </trkpt>
      <trkpt lat="42.341988" lon="-3.872103">
        <ele>946.8159228628501</ele>
        <time>2022-05-15T08:30:24Z</time>
      </trkpt>
      <trkpt lat="42.341956" lon="-3.872231">
        <ele>949.3248419966549</ele>
        <time>2022-05-15T08:30:31Z</time>
      </trkpt>
      <trkpt lat="42.341956" lon="-3.872363">
        <ele>948.7032150607556</ele>
        <time>2022-05-15T08:30:39Z</time>
      </trkpt>
      <trkpt lat="42.34194" lon="-3.872485">
        <ele>951.9383592503145</ele>
        <time>2022-05-15T08:30:47Z</time>
      </trkpt>
      <trkpt lat="42.341928" lon="-3.872613">
        <ele>950.4268425628543</ele>
        <time>2022-05-15T08:30:56Z</time>
      </trkpt>
      <trkpt lat="42.341913" lon="-3.872746">
        <ele>950.1374871693552</ele>
        <time>2022-05-15T08:31:03Z</time>
      </trkpt>
      <trkpt lat="42.341962" lon="-3.87287">
        <ele>949.2211538869888</ele>
        <time>2022-05-15T08:31:12Z</time>
      </trkpt>
      <trkpt lat="42.341986" lon="-3.872988">
        <ele>948.8661712687463</ele>
        <time>2022-05-15T08:31:19Z</time>
      </trkpt>
      <trkpt lat="42.342008" lon="-3.873108">
        <ele>948.0590213919058</ele>
        <time>2022-05-15T08:31:27Z</time>
      </trkpt>
      <trkpt lat="42.342029" lon="-3.873232">
        <ele>950.1461037658155</ele>
        <time>2022-05-15T08:31:36Z</time>
      </trkpt>
      <trkpt lat="42.342063" lon="-3.87335">
        <ele>946.6562660010532</ele>
        <time>2022-05-15T08:31:44Z</time>
      </trkpt>
      <trkpt lat="42.342048" lon="-3.873481">
        <ele>949.0498611722142</ele>
        <time>2022-05-15T08:31:53Z</time>
      </trkpt>
      <trkpt lat="42.342065" lon="-3.873607">
        <ele>947.8205369915813</ele>
        <time>2022-05-15T08:32:01Z</time>
      </trkpt>
      <trkpt lat="42.342039" lon="-3.873739">
        <ele>950.6234408253804</ele>
        <time>2022-05-15T08:32:09Z</time>
      </trkpt>
      <trkpt lat="42.342041" lon="-3.873865">
        <ele>953.2436347519979</ele>
        <time>2022-05-15T08:32:16Z</time>
      </trkpt>
      <trkpt lat="42.342027" lon="-3.873987">
        <ele>953.7817201046273</ele>
        <time>2022-05-15T08:32:24Z</time>
      </trkpt>
      <trkpt lat="42.342061" lon="-3.874105">
        <ele>952.1288107968867</ele>
        <time>2022-05-15T08:32:32Z</time>
      </trkpt>
      <trkpt lat="42.342072" lon="-3.874233">
        <ele>954.6995892897248</ele>
        <time>2022-05-15T08:32:41Z</time>
      </trkpt>
      <trkpt lat="42.342061" lon="-3.874374">
        <ele>956.08561121393</ele>
        <time>2022-05-15T08:32:49Z</time>
      </trkpt>
      <trkpt lat="42.342032" lon="-3.874497">
        <ele>958.5345416050404</ele>
        <time>2022-05-15T08:32:58Z</time>
      </trkpt>
      <trkpt lat="42.342" lon="-3.874611">
        <ele>958.2828829232603</ele>
        <time>2022-05-15T08:33:07Z</time>
      </trkpt>
      <trkpt lat="42.341946" lon="-3.874711">
        <ele>959.0162197472528</ele>
        <time>2022-05-15T08:33:14Z</time>
      </trkpt>
      <trkpt lat="42.341888" lon="-3.874812">
        <ele>960.516999438405</ele>
        <time>2022-05-15T08:33:23Z</time>
      </trkpt>
      <trkpt lat="42.341853" lon="-3.874931">
        <ele>956.2484750524163</ele>
        <time>2022-05-15T08:33:33Z</time>
      </trkpt>
      <trkpt lat="42.341831" lon="-3.875049">
        <ele>954.5699239205569</ele>
        <time>2022-05-15T08:33:39Z</time>
      </trkpt>
      <trkpt lat="42.341836" lon="-3.875183">
        <ele>954.5202106339857</ele>
        <time>2022-05-15T08:33:48Z</time>
      </trkpt>
      <trkpt lat="42.341831" lon="-3.875324">
        <ele>955.1254908954725</ele>
        <time>2022-05-15T08:33:57Z</time>
      </trkpt>
      <trkpt lat="42.341854" lon="-3.875455">
        <ele>953.0920573491603</ele>
        <time>2022-05-15T08:34:05Z</time>
      </trkpt>
      <trkpt lat="42.341852" lon="-3.875581">
        <ele>954.0214161481708</ele>
        <time>2022-05-15T08:34:11Z</time>
      </trkpt>
      <trkpt lat="42.341899" lon="-3.875695">
        <ele>953.0249188905582</ele>
        <time>2022-05-15T08:34:20Z</time>
      </trkpt>
      <trkpt lat="42.34193" lon="-3.87583">
        <ele>954.405205661431</ele>
        <time>2022-05-15T08:34:30Z</time>
      </trkpt>
      <trkpt lat="42.341958" lon="-3.875991">
        <ele>954.3474484505132</ele>
        <time>2022-05-15T08:34:40Z</time>
      </trkpt>
      <trkpt lat="42.341962" lon="-3.876114">
        <ele>954.347179797478</ele>
        <time>2022-05-15T08:34:47Z</time>
      </trkpt>
      <trkpt lat="42.341949" lon="-3.876247">
        <ele>954.995336484164</ele>
        <time>2022-05-15T08:34:54Z</time>
      </trkpt>
      <trkpt lat="42.341908" lon="-3.876364">
        <ele>955.5946561619639</ele>
        <time>2022-05-15T08:35:01Z</time>
      </trkpt>
      <trkpt lat="42.341925" lon="-3.876498">
        <ele>955.077124344185</ele>
        <time>2022-05-15T08:35:09Z</time>
      </trkpt>
      <trkpt lat="42.341926" lon="-3.876624">
        <ele>955.5778806153685</ele>
        <time>2022-05-15T08:35:19Z</time>
      </trkpt>
      <trkpt lat="42.341957" lon="-3.876745">
        <ele>957.3307961951941</ele>
        <time>2022-05-15T08:35:29Z</time>
      </trkpt>
      <trkpt lat="42.341961" lon="-3.876876">
        <ele>958.9892241731286</ele>
        <time>2022-05-15T08:35:38Z</time>
      </trkpt>
      <trkpt lat="42.341971" lon="-3.876997">
        <ele>958.079767016694</ele>
        <time>2022-05-15T08:35:48Z</time>
      </trkpt>
      <trkpt lat="42.341966" lon="-3.877121">
        <ele>958.1335038943216</ele>
        <time>2022-05-15T08:35:56Z</time>
      </trkpt>
      <trkpt lat="42.341928" lon="-3.877246">
        <ele>962.0708475392312</ele>
        <time>2022-05-15T08:36:04Z</time>
      </trkpt>
      <trkpt lat="42.341902" lon="-3.877365">
        <ele>963.3717462141067</ele>
        <time>2022-05-15T08:36:11Z</time>
      </trkpt>
      <trkpt lat="42.341881" lon="-3.877493">
        <ele>964.7354482226074</ele>
        <time>2022-05-15T08:36:19Z</time>
      </trkpt>
      <trkpt lat="42.341858" lon="-3.87762">
        <ele>967.034283013083</ele>
        <time>2022-05-15T08:36:28Z</time>
      </trkpt>
      <trkpt lat="42.341837" lon="-3.87775">
        <ele>968.0625626780093</ele>
        <time>2022-05-15T08:36:36Z</time>
      </trkpt>
      <trkpt lat="42.341827" lon="-3.877877">
        <ele>967.2640716256574</ele>
        <time>2022-05-15T08:36:44Z</time>
      </trkpt>
      <trkpt lat="42.341811" lon="-3.878007">
        <ele>964.7019265266135</ele>
        <time>2022-05-15T08:36:54Z</time>
      </trkpt>
      <trkpt lat="42.341773" lon="-3.878123">
        <ele>964.8459475357085</ele>
        <time>2022-05-15T08:37:02Z</time>
      </trkpt>
      <trkpt lat="42.34174" lon="-3.878252">
        <ele>966.9865547707304</ele>
        <time>2022-05-15T08:37:13Z</time>
      </trkpt>
      <trkpt lat="42.341717" lon="-3.87839">
        <ele>966.8626366406679</ele>
        <time>2022-05-15T08:37:22Z</time>
      </trkpt>
      <trkpt lat="42.341712" lon="-3.878525">
        <ele>968.4157993393019</ele>
        <time>2022-05-15T08:37:29Z</time>
      </trkpt>
      <trkpt lat="42.341706" lon="-3.878646">
        <ele>968.2366172382608</ele>
        <time>2022-05-15T08:37:38Z</time>
      </trkpt>
      <trkpt lat="42.341673" lon="-3.878774">
        <ele>969.8447945425287</ele>
        <time>2022-05-15T08:37:46Z</time>
      </trkpt>
      <trkpt lat="42.341645" lon="-3.878904">
        <ele>969.8659226875752</ele>
        <time>2022-05-15T08:37:54Z</time>
      </trkpt>
      <trkpt lat="42.341652" lon="-3.879035">
        <ele>967.2732209926471</ele>
        <time>2022-05-15T08:38:02Z</time>
      </trkpt>
      <trkpt lat="42.341664" lon="-3.879166">
        <ele>965.2681181011721</ele>
        <time>2022-05-15T08:38:08Z</time>
      </trkpt>
      <trkpt lat="42.341689" lon="-3.879286">
        <ele>964.1222010077909</ele>
        <time>2022-05-15T08:38:17Z</time>
      </trkpt>
      <trkpt lat="42.341705" lon="-3.879413">
        <ele>965.7002208158374</ele>
        <time>2022-05-15T08:38:25Z</time>
      </trkpt>
      <trkpt lat="42.341715" lon="-3.879545">
        <ele>967.9144963743165</ele>
        <time>2022-05-15T08:38:33Z</time>
      </trkpt>
      <trkpt lat="42.341732" lon="-3.879666">
        <ele>967.0799134708941</ele>
        <time>2022-05-15T08:38:40Z</time>
      </trkpt>
      <trkpt lat="42.341727" lon="-3.879803">
        <ele>966.361141207628</ele>
        <time>2022-05-15T08:38:48Z</time>
      </trkpt>
      <trkpt lat="42.341772" lon="-3.879922">
        <ele>964.6284979553893</ele>
        <time>2022-05-15T08:38:58Z</time>
      </trkpt>
      <trkpt lat="42.34179" lon="-3.880052">
        <ele>965.9195042923093</ele>
        <time>2022-05-15T08:39:07Z</time>
      </trkpt>
      <trkpt lat="42.341823" lon="-3.880172">
        <ele>964.5363214788958</ele>
        <time>2022-05-15T08:39:14Z</time>
      </trkpt>
      <trkpt lat="42.341841" lon="-3.880299">
        <ele>965.7649525851011</ele>
        <time>2022-05-15T08:39:21Z</time>
      </trkpt>
      <trkpt lat="42.341833" lon="-3.880439">
        <ele>967.8244743086398</ele>
        <time>2022-05-15T08:39:31Z</time>
      </trkpt>
      <trkpt lat="42.341823" lon="-3.880569">
        <ele>967.9280173629522</ele>
        <time>2022-05-15T08:39:38Z</time>
      </trkpt>
      <trkpt lat="42.341826" lon="-3.8807">
        <ele>968.3001046897843</ele>
        <time>2022-05-15T08:39:44Z</time>
      </trkpt>
      <trkpt lat="42.341852" lon="-3.88082">
        <ele>969.8538557235152</ele>
        <time>2022-05-15T08:39:53Z</time>
      </trkpt>
      <trkpt lat="42.341866" lon="-3.88095">
        <ele>975.1956027476117</ele>
        <time>2022-05-15T08:40:04Z</time>
      </trkpt>
      <trkpt lat="42.341869" lon="-3.881083">
        <ele>976.6277749780566</ele>
        <time>2022-05-15T08:40:13Z</time>
      </trkpt>
      <trkpt lat="42.341858" lon="-3.881219">
        <ele>979.4183889813721</ele>
        <time>2022-05-15T08:40:19Z</time>
      </trkpt>
      <trkpt lat="42.3419" lon="-3.881336">
        <ele>979.0579082900658</ele>
        <time>2022-05-15T08:40:28Z</time>
      </trkpt>
      <trkpt lat="42.341878" lon="-3.881455">
        <ele>980.7067895736545</ele>
        <time>2022-05-15T08:40:34Z</time>
      </trkpt>
      <trkpt lat="42.341916" lon="-3.881585">
        <ele>979.7178170727566</ele>
        <time>2022-05-15T08:40:41Z</time>
      </trkpt>
      <trkpt lat="42.341932" lon="-3.881709">
        <ele>977.3315942259505</ele>
        <time>2022-05-15T08:40:49Z</time>
      </trkpt>
      <trkpt lat="42.34194" lon="-3.881846">
        <ele>977.3541519083083</ele>
        <time>2022-05-15T08:40:57Z</time>
      </trkpt>
      <trkpt lat="42.341972" lon="-3.881961">
        <ele>977.5995605913922</ele>
        <time>2022-05-15T08:41:04Z</time>
      </trkpt>
      <trkpt lat="42.341993" lon="-3.882098">
        <ele>977.3744352320209</ele>
        <time>2022-05-15T08:41:14Z</time>
      </trkpt>
      <trkpt lat="42.341997" lon="-3.882219">
        <ele>976.4079654244706</ele>
        <time>2022-05-15T08:41:19Z</time>
      </trkpt>
      <trkpt lat="42.341983" lon="-3.882339">
        <ele>979.0655037611723</ele>
        <time>2022-05-15T08:41:26Z</time>
      </trkpt>
      <trkpt lat="42.341986" lon="-3.882472">
        <ele>980.4789931848645</ele>
        <time>2022-05-15T08:41:35Z</time>
      </trkpt>
      <trkpt lat="42.341987" lon="-3.882607">
        <ele>980.0384381171316</ele>
        <time>2022-05-15T08:41:43Z</time>
      </trkpt>
      <trkpt lat="42.341983" lon="-3.882739">
        <ele>982.0629122490063</ele>
        <time>2022-05-15T08:41:51Z</time>
      </trkpt>
      <trkpt lat="42.34195" lon="-3.882852">
        <ele>982.7197209559381</ele>
        <time>2022-05-15T08:42:02Z</time>
      </trkpt>
      <trkpt lat="42.341954" lon="-3.882982">
        <ele>982.0949708363041</ele>
        <time>2022-05-15T08:42:12Z</time>
      </trkpt>
      <trkpt lat="42.341952" lon="-3.883109">
        <ele>982.8750142697245</ele>
        <time>2022-05-15T08:42:21Z</time>
      </trkpt>
      <trkpt lat="42.341967" lon="-3.883234">
        <ele>981.271570415236</ele>
        <time>2022-05-15T08:42:32Z</time>
      </trkpt>
      <trkpt lat="42.342012" lon="-3.883342">
        <ele>978.9963496467099</ele>
        <time>2022-05-15T08:42:41Z</time>
      </trkpt>
      <trkpt lat="42.342022" lon="-3.883477">
        <ele>977.6579587683082</ele>
        <time>2022-05-15T08:42:53Z</time>
      </trkpt>
      <trkpt lat="42.342038" lon="-3.883611">
        <ele>977.7828900236636</ele>
        <time>2022-05-15T08:43:02Z</time>
      </trkpt>
      <trkpt lat="42.34206" lon="-3.883734">
        <ele>979.4946835590526</ele>
        <time>2022-05-15T08:43:13Z</time>
      </trkpt>
      <trkpt lat="42.342096" lon="-3.883849">
        <ele>977.2607671748847</ele>
        <time>2022-05-15T08:43:28Z</time>
      </trkpt>
      <trkpt lat="42.342041" lon="-3.883957">
        <ele>976.1677305372432</ele>
        <time>2022-05-15T08:44:01Z</time>
      </trkpt>
      <trkpt lat="42.342041" lon="-3.884086">
        <ele>974.9755119383335</ele>
        <time>2022-05-15T08:44:29Z</time>
      </trkpt>
      <trkpt lat="42.342093" lon="-3.884185">
        <ele>971.904897694476</ele>
        <time>2022-05-15T08:44:42Z</time>
      </trkpt>
      <trkpt lat="42.342114" lon="-3.884311">
        <ele>968.1595563031733</ele>
        <time>2022-05-15T08:44:54Z</time>
      </trkpt>
      <trkpt lat="42.342138" lon="-3.884431">
        <ele>967.6740332385525</ele>
        <time>2022-05-15T08:45:07Z</time>
      </trkpt>
      <trkpt lat="42.342149" lon="-3.884558">
        <ele>966.8204012196511</ele>
        <time>2022-05-15T08:46:21Z</time>
      </trkpt>
      <trkpt lat="42.342176" lon="-3.884687">
        <ele>967.0333972964436</ele>
        <time>2022-05-15T08:46:29Z</time>
      </trkpt>
      <trkpt lat="42.34224" lon="-3.884777">
        <ele>966.8073404040188</ele>
        <time>2022-05-15T08:46:38Z</time>
      </trkpt>
      <trkpt lat="42.342311" lon="-3.884863">
        <ele>967.7872350821272</ele>
        <time>2022-05-15T08:46:46Z</time>
      </trkpt>
      <trkpt lat="42.342317" lon="-3.884996">
        <ele>968.8566684275866</ele>
        <time>2022-05-15T08:46:54Z</time>
      </trkpt>
      <trkpt lat="42.342311" lon="-3.885121">
        <ele>969.1545751038939</ele>
        <time>2022-05-15T08:47:01Z</time>
      </trkpt>
      <trkpt lat="42.342303" lon="-3.885245">
        <ele>970.76667889487</ele>
        <time>2022-05-15T08:47:08Z</time>
      </trkpt>
      <trkpt lat="42.342334" lon="-3.885375">
        <ele>971.5470910137519</ele>
        <time>2022-05-15T08:47:18Z</time>
      </trkpt>
      <trkpt lat="42.342354" lon="-3.885508">
        <ele>971.5457179117948</ele>
        <time>2022-05-15T08:47:26Z</time>
      </trkpt>
      <trkpt lat="42.342363" lon="-3.88564">
        <ele>972.3609301242977</ele>
        <time>2022-05-15T08:47:33Z</time>
      </trkpt>
      <trkpt lat="42.342341" lon="-3.885762">
        <ele>973.2931210771203</ele>
        <time>2022-05-15T08:47:40Z</time>
      </trkpt>
      <trkpt lat="42.342325" lon="-3.885898">
        <ele>975.3228871272877</ele>
        <time>2022-05-15T08:47:48Z</time>
      </trkpt>
      <trkpt lat="42.342364" lon="-3.886018">
        <ele>974.9587838109583</ele>
        <time>2022-05-15T08:47:55Z</time>
      </trkpt>
      <trkpt lat="42.342388" lon="-3.886137">
        <ele>976.4052169118077</ele>
        <time>2022-05-15T08:48:06Z</time>
      </trkpt>
      <trkpt lat="42.342419" lon="-3.886265">
        <ele>976.3443525051698</ele>
        <time>2022-05-15T08:48:14Z</time>
      </trkpt>
      <trkpt lat="42.342412" lon="-3.88639">
        <ele>978.6964343804866</ele>
        <time>2022-05-15T08:48:21Z</time>
      </trkpt>
      <trkpt lat="42.342443" lon="-3.886514">
        <ele>977.9321607453749</ele>
        <time>2022-05-15T08:48:28Z</time>
      </trkpt>
      <trkpt lat="42.342429" lon="-3.886646">
        <ele>980.2656191019341</ele>
        <time>2022-05-15T08:48:36Z</time>
      </trkpt>
      <trkpt lat="42.342418" lon="-3.886768">
        <ele>980.0204406902194</ele>
        <time>2022-05-15T08:48:44Z</time>
      </trkpt>
      <trkpt lat="42.342417" lon="-3.886906">
        <ele>980.5857048900798</ele>
        <time>2022-05-15T08:48:52Z</time>
      </trkpt>
      <trkpt lat="42.342432" lon="-3.887028">
        <ele>980.9998598340899</ele>
        <time>2022-05-15T08:48:58Z</time>
      </trkpt>
      <trkpt lat="42.342437" lon="-3.887165">
        <ele>981.3478668741882</ele>
        <time>2022-05-15T08:49:06Z</time>
      </trkpt>
      <trkpt lat="42.342422" lon="-3.887297">
        <ele>980.8271836880594</ele>
        <time>2022-05-15T08:49:14Z</time>
      </trkpt>
      <trkpt lat="42.342424" lon="-3.887418">
        <ele>978.8694826019928</ele>
        <time>2022-05-15T08:49:23Z</time>
      </trkpt>
      <trkpt lat="42.342417" lon="-3.887549">
        <ele>979.2719349116087</ele>
        <time>2022-05-15T08:49:29Z</time>
      </trkpt>
      <trkpt lat="42.342435" lon="-3.887682">
        <ele>980.0877224113792</ele>
        <time>2022-05-15T08:49:37Z</time>
      </trkpt>
      <trkpt lat="42.342433" lon="-3.887818">
        <ele>979.6244057016447</ele>
        <time>2022-05-15T08:49:44Z</time>
      </trkpt>
      <trkpt lat="42.34246" lon="-3.887938">
        <ele>976.8236797032878</ele>
        <time>2022-05-15T08:49:54Z</time>
      </trkpt>
      <trkpt lat="42.342464" lon="-3.888072">
        <ele>977.0874687172472</ele>
        <time>2022-05-15T08:50:01Z</time>
      </trkpt>
      <trkpt lat="42.342484" lon="-3.888195">
        <ele>977.0195809481665</ele>
        <time>2022-05-15T08:50:08Z</time>
      </trkpt>
      <trkpt lat="42.3425" lon="-3.88832">
        <ele>975.2563899392262</ele>
        <time>2022-05-15T08:50:17Z</time>
      </trkpt>
      <trkpt lat="42.342494" lon="-3.888453">
        <ele>975.2059043087065</ele>
        <time>2022-05-15T08:50:24Z</time>
      </trkpt>
      <trkpt lat="42.34248" lon="-3.888585">
        <ele>977.0637423312292</ele>
        <time>2022-05-15T08:50:31Z</time>
      </trkpt>
      <trkpt lat="42.342459" lon="-3.888707">
        <ele>977.7698172656819</ele>
        <time>2022-05-15T08:50:38Z</time>
      </trkpt>
      <trkpt lat="42.342479" lon="-3.888829">
        <ele>976.8416830217466</ele>
        <time>2022-05-15T08:50:47Z</time>
      </trkpt>
      <trkpt lat="42.342456" lon="-3.888956">
        <ele>975.3325028736144</ele>
        <time>2022-05-15T08:50:54Z</time>
      </trkpt>
      <trkpt lat="42.34243" lon="-3.889081">
        <ele>974.3441123533994</ele>
        <time>2022-05-15T08:51:01Z</time>
      </trkpt>
      <trkpt lat="42.342414" lon="-3.889204">
        <ele>973.3667707107961</ele>
        <time>2022-05-15T08:51:07Z</time>
      </trkpt>
      <trkpt lat="42.342417" lon="-3.889332">
        <ele>973.5050057722256</ele>
        <time>2022-05-15T08:51:16Z</time>
      </trkpt>
      <trkpt lat="42.342412" lon="-3.889465">
        <ele>973.9831967623904</ele>
        <time>2022-05-15T08:51:27Z</time>
      </trkpt>
      <trkpt lat="42.342377" lon="-3.889588">
        <ele>975.8858234509826</ele>
        <time>2022-05-15T08:51:33Z</time>
      </trkpt>
      <trkpt lat="42.342354" lon="-3.889707">
        <ele>978.6788791492581</ele>
        <time>2022-05-15T08:51:39Z</time>
      </trkpt>
      <trkpt lat="42.34234" lon="-3.889839">
        <ele>979.934600061737</ele>
        <time>2022-05-15T08:51:49Z</time>
      </trkpt>
      <trkpt lat="42.342324" lon="-3.889975">
        <ele>981.9647297207266</ele>
        <time>2022-05-15T08:52:01Z</time>
      </trkpt>
      <trkpt lat="42.342295" lon="-3.8901">
        <ele>981.1838780092075</ele>
        <time>2022-05-15T08:52:08Z</time>
      </trkpt>
      <trkpt lat="42.342261" lon="-3.890214">
        <ele>981.0652515003458</ele>
        <time>2022-05-15T08:52:14Z</time>
      </trkpt>
      <trkpt lat="42.342243" lon="-3.890333">
        <ele>981.8017841540277</ele>
        <time>2022-05-15T08:52:36Z</time>
      </trkpt>
      <trkpt lat="42.342222" lon="-3.890451">
        <ele>980.9520344547927</ele>
        <time>2022-05-15T08:53:08Z</time>
      </trkpt>
      <trkpt lat="42.342222" lon="-3.890451">
        <ele>980.9520344547927</ele>
        <time>2022-05-15T08:53:08Z</time>
      </trkpt>
      <trkpt lat="42.342207" lon="-3.890581">
        <ele>980.5172699075192</ele>
        <time>2022-05-15T08:53:19Z</time>
      </trkpt>
      <trkpt lat="42.342197" lon="-3.890707">
        <ele>980.8604459613562</ele>
        <time>2022-05-15T08:53:29Z</time>
      </trkpt>
      <trkpt lat="42.342208" lon="-3.89084">
        <ele>979.2934242123738</ele>
        <time>2022-05-15T08:53:39Z</time>
      </trkpt>
      <trkpt lat="42.34218" lon="-3.890967">
        <ele>979.6733267316595</ele>
        <time>2022-05-15T08:53:49Z</time>
      </trkpt>
      <trkpt lat="42.34216" lon="-3.891095">
        <ele>978.6494543803856</ele>
        <time>2022-05-15T08:53:58Z</time>
      </trkpt>
      <trkpt lat="42.342119" lon="-3.891211">
        <ele>980.4780859882012</ele>
        <time>2022-05-15T08:54:06Z</time>
      </trkpt>
      <trkpt lat="42.342075" lon="-3.891327">
        <ele>978.975239655003</ele>
        <time>2022-05-15T08:54:14Z</time>
      </trkpt>
      <trkpt lat="42.342025" lon="-3.891448">
        <ele>978.8839303664863</ele>
        <time>2022-05-15T08:54:24Z</time>
      </trkpt>
      <trkpt lat="42.341994" lon="-3.891575">
        <ele>977.0875073401257</ele>
        <time>2022-05-15T08:54:33Z</time>
      </trkpt>
      <trkpt lat="42.34196" lon="-3.891702">
        <ele>978.9699665103108</ele>
        <time>2022-05-15T08:54:41Z</time>
      </trkpt>
      <trkpt lat="42.341943" lon="-3.891826">
        <ele>979.651944742538</ele>
        <time>2022-05-15T08:54:54Z</time>
      </trkpt>
      <trkpt lat="42.341883" lon="-3.891921">
        <ele>979.8990331273526</ele>
        <time>2022-05-15T08:55:01Z</time>
      </trkpt>
      <trkpt lat="42.341851" lon="-3.89204">
        <ele>978.3144966028631</ele>
        <time>2022-05-15T08:55:11Z</time>
      </trkpt>
      <trkpt lat="42.341812" lon="-3.892163">
        <ele>978.1449801912531</ele>
        <time>2022-05-15T08:55:18Z</time>
      </trkpt>
      <trkpt lat="42.341767" lon="-3.892286">
        <ele>979.8619806887582</ele>
        <time>2022-05-15T08:55:26Z</time>
      </trkpt>
      <trkpt lat="42.341757" lon="-3.892407">
        <ele>978.4559019273147</ele>
        <time>2022-05-15T08:55:34Z</time>
      </trkpt>
      <trkpt lat="42.341733" lon="-3.892529">
        <ele>976.9754521623254</ele>
        <time>2022-05-15T08:55:43Z</time>
      </trkpt>
      <trkpt lat="42.34171" lon="-3.892653">
        <ele>976.2468800200149</ele>
        <time>2022-05-15T08:55:51Z</time>
      </trkpt>
      <trkpt lat="42.341678" lon="-3.892784">
        <ele>976.9908138457686</ele>
        <time>2022-05-15T08:55:59Z</time>
      </trkpt>
      <trkpt lat="42.341634" lon="-3.892897">
        <ele>978.8766350252554</ele>
        <time>2022-05-15T08:56:04Z</time>
      </trkpt>
      <trkpt lat="42.341621" lon="-3.893027">
        <ele>979.8361956859007</ele>
        <time>2022-05-15T08:56:13Z</time>
      </trkpt>
      <trkpt lat="42.341586" lon="-3.893141">
        <ele>980.0243667308241</ele>
        <time>2022-05-15T08:56:19Z</time>
      </trkpt>
      <trkpt lat="42.341597" lon="-3.893275">
        <ele>979.5985442223027</ele>
        <time>2022-05-15T08:56:31Z</time>
      </trkpt>
      <trkpt lat="42.341547" lon="-3.893389">
        <ele>980.8625049525872</ele>
        <time>2022-05-15T08:56:39Z</time>
      </trkpt>
      <trkpt lat="42.341497" lon="-3.893497">
        <ele>982.4733888460323</ele>
        <time>2022-05-15T08:56:47Z</time>
      </trkpt>
      <trkpt lat="42.341441" lon="-3.893609">
        <ele>982.7252505505458</ele>
        <time>2022-05-15T08:56:54Z</time>
      </trkpt>
      <trkpt lat="42.341394" lon="-3.893722">
        <ele>981.8510858900845</ele>
        <time>2022-05-15T08:57:01Z</time>
      </trkpt>
      <trkpt lat="42.341353" lon="-3.893838">
        <ele>982.2373621761799</ele>
        <time>2022-05-15T08:57:09Z</time>
      </trkpt>
      <trkpt lat="42.34131" lon="-3.893947">
        <ele>983.3462797421962</ele>
        <time>2022-05-15T08:57:18Z</time>
      </trkpt>
      <trkpt lat="42.341274" lon="-3.894072">
        <ele>985.2164154816419</ele>
        <time>2022-05-15T08:57:31Z</time>
      </trkpt>
      <trkpt lat="42.341256" lon="-3.8942">
        <ele>985.2413250626996</ele>
        <time>2022-05-15T08:57:49Z</time>
      </trkpt>
      <trkpt lat="42.341244" lon="-3.894327">
        <ele>983.4928291207179</ele>
        <time>2022-05-15T08:58:13Z</time>
      </trkpt>
      <trkpt lat="42.341227" lon="-3.894454">
        <ele>981.4544024448842</ele>
        <time>2022-05-15T08:58:19Z</time>
      </trkpt>
      <trkpt lat="42.341189" lon="-3.894569">
        <ele>979.9148804722354</ele>
        <time>2022-05-15T08:58:26Z</time>
      </trkpt>
      <trkpt lat="42.341168" lon="-3.894697">
        <ele>978.7288633435965</ele>
        <time>2022-05-15T08:58:34Z</time>
      </trkpt>
      <trkpt lat="42.341115" lon="-3.894811">
        <ele>975.5563609153032</ele>
        <time>2022-05-15T08:58:39Z</time>
      </trkpt>
      <trkpt lat="42.341061" lon="-3.894936">
        <ele>972.2331267204136</ele>
        <time>2022-05-15T08:58:44Z</time>
      </trkpt>
      <trkpt lat="42.341057" lon="-3.89506">
        <ele>969.1992942737415</ele>
        <time>2022-05-15T08:58:53Z</time>
      </trkpt>
      <trkpt lat="42.340991" lon="-3.895182">
        <ele>966.1122645875439</ele>
        <time>2022-05-15T08:58:58Z</time>
      </trkpt>
      <trkpt lat="42.340949" lon="-3.895312">
        <ele>961.2368654003367</ele>
        <time>2022-05-15T08:59:04Z</time>
      </trkpt>
      <trkpt lat="42.340961" lon="-3.895435">
        <ele>958.5624189991504</ele>
        <time>2022-05-15T08:59:11Z</time>
      </trkpt>
      <trkpt lat="42.340935" lon="-3.895575">
        <ele>953.7273522401229</ele>
        <time>2022-05-15T08:59:26Z</time>
      </trkpt>
      <trkpt lat="42.341027" lon="-3.895582">
        <ele>949.3730571651831</ele>
        <time>2022-05-15T08:59:48Z</time>
      </trkpt>
      <trkpt lat="42.341123" lon="-3.89563">
        <ele>946.7099955733865</ele>
        <time>2022-05-15T08:59:54Z</time>
      </trkpt>
      <trkpt lat="42.341029" lon="-3.895751">
        <ele>945.5606743730605</ele>
        <time>2022-05-15T08:59:58Z</time>
      </trkpt>
      <trkpt lat="42.340982" lon="-3.89586">
        <ele>943.6447356566787</ele>
        <time>2022-05-15T09:00:02Z</time>
      </trkpt>
      <trkpt lat="42.340934" lon="-3.89598">
        <ele>939.4629098568112</ele>
        <time>2022-05-15T09:00:09Z</time>
      </trkpt>
      <trkpt lat="42.340926" lon="-3.896101">
        <ele>936.7717426791787</ele>
        <time>2022-05-15T09:00:18Z</time>
      </trkpt>
      <trkpt lat="42.341022" lon="-3.896131">
        <ele>934.4772977428511</ele>
        <time>2022-05-15T09:00:23Z</time>
      </trkpt>
      <trkpt lat="42.341007" lon="-3.896273">
        <ele>931.4917425150052</ele>
        <time>2022-05-15T09:00:32Z</time>
      </trkpt>
      <trkpt lat="42.340951" lon="-3.896387">
        <ele>929.447639525868</ele>
        <time>2022-05-15T09:00:37Z</time>
      </trkpt>
      <trkpt lat="42.340929" lon="-3.89651">
        <ele>929.4987714411691</ele>
        <time>2022-05-15T09:00:43Z</time>
      </trkpt>
      <trkpt lat="42.341006" lon="-3.896578">
        <ele>929.2060345374048</ele>
        <time>2022-05-15T09:00:49Z</time>
      </trkpt>
      <trkpt lat="42.341061" lon="-3.89668">
        <ele>927.2917170617729</ele>
        <time>2022-05-15T09:00:56Z</time>
      </trkpt>
      <trkpt lat="42.341051" lon="-3.896802">
        <ele>925.9977324362844</ele>
        <time>2022-05-15T09:01:02Z</time>
      </trkpt>
      <trkpt lat="42.341056" lon="-3.896925">
        <ele>923.985513289459</ele>
        <time>2022-05-15T09:01:08Z</time>
      </trkpt>
      <trkpt lat="42.341085" lon="-3.89706">
        <ele>920.7698617447168</ele>
        <time>2022-05-15T09:01:16Z</time>
      </trkpt>
      <trkpt lat="42.34107" lon="-3.897183">
        <ele>919.0060044880956</ele>
        <time>2022-05-15T09:01:23Z</time>
      </trkpt>
      <trkpt lat="42.341015" lon="-3.897291">
        <ele>917.6359405778348</ele>
        <time>2022-05-15T09:01:28Z</time>
      </trkpt>
      <trkpt lat="42.340999" lon="-3.897314">
        <ele>917.4180587856099</ele>
        <time>2022-05-15T09:01:29Z</time>
      </trkpt>
      <trkpt lat="42.340986" lon="-3.897435">
        <ele>915.2383161755279</ele>
        <time>2022-05-15T09:01:36Z</time>
      </trkpt>
      <trkpt lat="42.341002" lon="-3.897568">
        <ele>913.9113032650203</ele>
        <time>2022-05-15T09:01:45Z</time>
      </trkpt>
      <trkpt lat="42.341087" lon="-3.897638">
        <ele>910.8107825368643</ele>
        <time>2022-05-15T09:01:52Z</time>
      </trkpt>
      <trkpt lat="42.341035" lon="-3.897757">
        <ele>909.9145420501009</ele>
        <time>2022-05-15T09:01:57Z</time>
      </trkpt>
      <trkpt lat="42.341027" lon="-3.897888">
        <ele>907.599168844521</ele>
        <time>2022-05-15T09:02:05Z</time>
      </trkpt>
      <trkpt lat="42.340997" lon="-3.898014">
        <ele>904.7560758180916</ele>
        <time>2022-05-15T09:02:12Z</time>
      </trkpt>
      <trkpt lat="42.340953" lon="-3.898137">
        <ele>903.2486504530534</ele>
        <time>2022-05-15T09:02:19Z</time>
      </trkpt>
      <trkpt lat="42.340903" lon="-3.898245">
        <ele>902.7520454311743</ele>
        <time>2022-05-15T09:02:23Z</time>
      </trkpt>
      <trkpt lat="42.340839" lon="-3.898357">
        <ele>900.9714402928948</ele>
        <time>2022-05-15T09:02:30Z</time>
      </trkpt>
      <trkpt lat="42.340846" lon="-3.898484">
        <ele>898.0897119892761</ele>
        <time>2022-05-15T09:02:43Z</time>
      </trkpt>
      <trkpt lat="42.340775" lon="-3.898612">
        <ele>896.4481143765152</ele>
        <time>2022-05-15T09:02:50Z</time>
      </trkpt>
      <trkpt lat="42.340777" lon="-3.898776">
        <ele>893.6181752542034</ele>
        <time>2022-05-15T09:03:00Z</time>
      </trkpt>
      <trkpt lat="42.340739" lon="-3.898898">
        <ele>893.8644551225007</ele>
        <time>2022-05-15T09:03:06Z</time>
      </trkpt>
      <trkpt lat="42.340682" lon="-3.89902">
        <ele>895.4103920292109</ele>
        <time>2022-05-15T09:03:13Z</time>
      </trkpt>
      <trkpt lat="42.340726" lon="-3.899136">
        <ele>895.3558305352926</ele>
        <time>2022-05-15T09:03:23Z</time>
      </trkpt>
      <trkpt lat="42.340701" lon="-3.899268">
        <ele>894.6071342732757</ele>
        <time>2022-05-15T09:03:39Z</time>
      </trkpt>
      <trkpt lat="42.340757" lon="-3.899376">
        <ele>890.468422790058</ele>
        <time>2022-05-15T09:03:53Z</time>
      </trkpt>
      <trkpt lat="42.340724" lon="-3.899506">
        <ele>890.0323252417147</ele>
        <time>2022-05-15T09:04:06Z</time>
      </trkpt>
      <trkpt lat="42.34071" lon="-3.899627">
        <ele>889.4883269974962</ele>
        <time>2022-05-15T09:04:12Z</time>
      </trkpt>
      <trkpt lat="42.34074" lon="-3.899755">
        <ele>890.0748501047492</ele>
        <time>2022-05-15T09:04:19Z</time>
      </trkpt>
      <trkpt lat="42.340784" lon="-3.899866">
        <ele>891.0335741434246</ele>
        <time>2022-05-15T09:04:28Z</time>
      </trkpt>
      <trkpt lat="42.340828" lon="-3.89999">
        <ele>891.1108632050455</ele>
        <time>2022-05-15T09:04:38Z</time>
      </trkpt>
      <trkpt lat="42.340809" lon="-3.900114">
        <ele>891.1256400756538</ele>
        <time>2022-05-15T09:04:44Z</time>
      </trkpt>
      <trkpt lat="42.3408" lon="-3.900241">
        <ele>889.7956545734778</ele>
        <time>2022-05-15T09:04:52Z</time>
      </trkpt>
      <trkpt lat="42.340787" lon="-3.900371">
        <ele>887.4485872015357</ele>
        <time>2022-05-15T09:05:01Z</time>
      </trkpt>
      <trkpt lat="42.340786" lon="-3.900497">
        <ele>886.1243992242962</ele>
        <time>2022-05-15T09:05:11Z</time>
      </trkpt>
      <trkpt lat="42.340758" lon="-3.900622">
        <ele>883.4996570209041</ele>
        <time>2022-05-15T09:05:18Z</time>
      </trkpt>
      <trkpt lat="42.340774" lon="-3.900754">
        <ele>881.3685092814267</ele>
        <time>2022-05-15T09:05:24Z</time>
      </trkpt>
      <trkpt lat="42.340785" lon="-3.900879">
        <ele>881.3006958523765</ele>
        <time>2022-05-15T09:05:33Z</time>
      </trkpt>
      <trkpt lat="42.34081" lon="-3.901012">
        <ele>881.067524516955</ele>
        <time>2022-05-15T09:05:42Z</time>
      </trkpt>
      <trkpt lat="42.340799" lon="-3.901133">
        <ele>882.2258699322119</ele>
        <time>2022-05-15T09:05:48Z</time>
      </trkpt>
      <trkpt lat="42.340764" lon="-3.901252">
        <ele>882.1445941859856</ele>
        <time>2022-05-15T09:05:55Z</time>
      </trkpt>
      <trkpt lat="42.340732" lon="-3.901371">
        <ele>880.3218813082203</ele>
        <time>2022-05-15T09:06:03Z</time>
      </trkpt>
      <trkpt lat="42.340712" lon="-3.901496">
        <ele>878.4123922176659</ele>
        <time>2022-05-15T09:06:10Z</time>
      </trkpt>
      <trkpt lat="42.340717" lon="-3.901628">
        <ele>878.0335647724569</ele>
        <time>2022-05-15T09:06:18Z</time>
      </trkpt>
      <trkpt lat="42.340722" lon="-3.901758">
        <ele>876.4922896334901</ele>
        <time>2022-05-15T09:06:27Z</time>
      </trkpt>
      <trkpt lat="42.340703" lon="-3.901881">
        <ele>875.3432161295786</ele>
        <time>2022-05-15T09:06:33Z</time>
      </trkpt>
      <trkpt lat="42.340719" lon="-3.902008">
        <ele>876.1136259464547</ele>
        <time>2022-05-15T09:06:42Z</time>
      </trkpt>
      <trkpt lat="42.340776" lon="-3.902109">
        <ele>877.413309593685</ele>
        <time>2022-05-15T09:06:50Z</time>
      </trkpt>
      <trkpt lat="42.340801" lon="-3.902227">
        <ele>878.7906680069864</ele>
        <time>2022-05-15T09:06:56Z</time>
      </trkpt>
      <trkpt lat="42.340804" lon="-3.902371">
        <ele>877.7252246728167</ele>
        <time>2022-05-15T09:07:04Z</time>
      </trkpt>
      <trkpt lat="42.340808" lon="-3.9025">
        <ele>878.2304238649085</ele>
        <time>2022-05-15T09:07:11Z</time>
      </trkpt>
      <trkpt lat="42.340801" lon="-3.902634">
        <ele>877.764207309112</ele>
        <time>2022-05-15T09:07:19Z</time>
      </trkpt>
      <trkpt lat="42.340792" lon="-3.902774">
        <ele>876.0707009267062</ele>
        <time>2022-05-15T09:07:27Z</time>
      </trkpt>
      <trkpt lat="42.340761" lon="-3.902892">
        <ele>874.4011543281376</ele>
        <time>2022-05-15T09:07:33Z</time>
      </trkpt>
      <trkpt lat="42.340812" lon="-3.903014">
        <ele>873.183812209405</ele>
        <time>2022-05-15T09:07:41Z</time>
      </trkpt>
      <trkpt lat="42.3408" lon="-3.903139">
        <ele>875.0695321606472</ele>
        <time>2022-05-15T09:07:49Z</time>
      </trkpt>
      <trkpt lat="42.340825" lon="-3.903261">
        <ele>873.9912845529616</ele>
        <time>2022-05-15T09:07:58Z</time>
      </trkpt>
      <trkpt lat="42.340818" lon="-3.903391">
        <ele>871.4881321052089</ele>
        <time>2022-05-15T09:08:06Z</time>
      </trkpt>
      <trkpt lat="42.340789" lon="-3.903515">
        <ele>870.0081564895809</ele>
        <time>2022-05-15T09:08:12Z</time>
      </trkpt>
      <trkpt lat="42.340794" lon="-3.903648">
        <ele>868.8578911144286</ele>
        <time>2022-05-15T09:08:19Z</time>
      </trkpt>
      <trkpt lat="42.340833" lon="-3.90377">
        <ele>870.1665837429464</ele>
        <time>2022-05-15T09:08:29Z</time>
      </trkpt>
      <trkpt lat="42.340816" lon="-3.903891">
        <ele>867.1294483244419</ele>
        <time>2022-05-15T09:08:36Z</time>
      </trkpt>
      <trkpt lat="42.340806" lon="-3.904028">
        <ele>866.6626326525584</ele>
        <time>2022-05-15T09:08:44Z</time>
      </trkpt>
      <trkpt lat="42.34073" lon="-3.904125">
        <ele>865.2358985692263</ele>
        <time>2022-05-15T09:08:48Z</time>
      </trkpt>
      <trkpt lat="42.340693" lon="-3.904238">
        <ele>865.0427857339382</ele>
        <time>2022-05-15T09:08:54Z</time>
      </trkpt>
      <trkpt lat="42.340656" lon="-3.904359">
        <ele>864.3695461368188</ele>
        <time>2022-05-15T09:09:01Z</time>
      </trkpt>
      <trkpt lat="42.340649" lon="-3.904485">
        <ele>863.281201897189</ele>
        <time>2022-05-15T09:09:09Z</time>
      </trkpt>
      <trkpt lat="42.340643" lon="-3.904618">
        <ele>862.233665865846</ele>
        <time>2022-05-15T09:09:17Z</time>
      </trkpt>
      <trkpt lat="42.340609" lon="-3.904732">
        <ele>860.3979036239907</ele>
        <time>2022-05-15T09:09:24Z</time>
      </trkpt>
      <trkpt lat="42.340674" lon="-3.904823">
        <ele>860.7651229361072</ele>
        <time>2022-05-15T09:09:31Z</time>
      </trkpt>
      <trkpt lat="42.340644" lon="-3.904947">
        <ele>859.774541460909</ele>
        <time>2022-05-15T09:09:38Z</time>
      </trkpt>
      <trkpt lat="42.340596" lon="-3.905054">
        <ele>858.5909054698423</ele>
        <time>2022-05-15T09:09:44Z</time>
      </trkpt>
      <trkpt lat="42.340625" lon="-3.905177">
        <ele>862.2621082514524</ele>
        <time>2022-05-15T09:09:54Z</time>
      </trkpt>
      <trkpt lat="42.340645" lon="-3.905313">
        <ele>866.116339600645</ele>
        <time>2022-05-15T09:10:03Z</time>
      </trkpt>
      <trkpt lat="42.340617" lon="-3.905445">
        <ele>865.0666382769123</ele>
        <time>2022-05-15T09:10:09Z</time>
      </trkpt>
      <trkpt lat="42.340572" lon="-3.90555">
        <ele>864.2519147982821</ele>
        <time>2022-05-15T09:10:16Z</time>
      </trkpt>
      <trkpt lat="42.340638" lon="-3.905632">
        <ele>864.0941270804033</ele>
        <time>2022-05-15T09:10:23Z</time>
      </trkpt>
      <trkpt lat="42.340621" lon="-3.905757">
        <ele>862.3541239388287</ele>
        <time>2022-05-15T09:10:29Z</time>
      </trkpt>
      <trkpt lat="42.340618" lon="-3.90589">
        <ele>862.89409306366</ele>
        <time>2022-05-15T09:10:37Z</time>
      </trkpt>
      <trkpt lat="42.340623" lon="-3.906019">
        <ele>862.9314721692353</ele>
        <time>2022-05-15T09:10:44Z</time>
      </trkpt>
      <trkpt lat="42.340663" lon="-3.906142">
        <ele>860.1173905050382</ele>
        <time>2022-05-15T09:10:53Z</time>
      </trkpt>
      <trkpt lat="42.340705" lon="-3.906262">
        <ele>860.1696862373501</ele>
        <time>2022-05-15T09:11:01Z</time>
      </trkpt>
      <trkpt lat="42.340745" lon="-3.906384">
        <ele>860.7371335504577</ele>
        <time>2022-05-15T09:11:09Z</time>
      </trkpt>
      <trkpt lat="42.340776" lon="-3.906514">
        <ele>863.1677729785442</ele>
        <time>2022-05-15T09:11:17Z</time>
      </trkpt>
      <trkpt lat="42.340813" lon="-3.906641">
        <ele>865.0731758847833</ele>
        <time>2022-05-15T09:11:26Z</time>
      </trkpt>
      <trkpt lat="42.340798" lon="-3.906764">
        <ele>862.8653121832758</ele>
        <time>2022-05-15T09:11:32Z</time>
      </trkpt>
      <trkpt lat="42.340824" lon="-3.906891">
        <ele>863.9748161397874</ele>
        <time>2022-05-15T09:11:39Z</time>
      </trkpt>
      <trkpt lat="42.340851" lon="-3.907025">
        <ele>862.9526733523235</ele>
        <time>2022-05-15T09:11:48Z</time>
      </trkpt>
      <trkpt lat="42.340833" lon="-3.90715">
        <ele>863.4019983392209</ele>
        <time>2022-05-15T09:11:55Z</time>
      </trkpt>
      <trkpt lat="42.340844" lon="-3.907284">
        <ele>865.0656513404101</ele>
        <time>2022-05-15T09:12:03Z</time>
      </trkpt>
      <trkpt lat="42.340798" lon="-3.907408">
        <ele>863.5558373630047</ele>
        <time>2022-05-15T09:12:10Z</time>
      </trkpt>
      <trkpt lat="42.340794" lon="-3.907532">
        <ele>861.4807662349194</ele>
        <time>2022-05-15T09:12:18Z</time>
      </trkpt>
      <trkpt lat="42.340852" lon="-3.907644">
        <ele>863.1902439976111</ele>
        <time>2022-05-15T09:12:28Z</time>
      </trkpt>
      <trkpt lat="42.340812" lon="-3.907755">
        <ele>861.5799627956003</ele>
        <time>2022-05-15T09:12:34Z</time>
      </trkpt>
      <trkpt lat="42.340781" lon="-3.90787">
        <ele>859.8588214851916</ele>
        <time>2022-05-15T09:12:39Z</time>
      </trkpt>
      <trkpt lat="42.340854" lon="-3.90796">
        <ele>864.0369956949726</ele>
        <time>2022-05-15T09:12:49Z</time>
      </trkpt>
      <trkpt lat="42.340825" lon="-3.908091">
        <ele>865.7475902242586</ele>
        <time>2022-05-15T09:12:56Z</time>
      </trkpt>
      <trkpt lat="42.340806" lon="-3.90822">
        <ele>866.6353630749509</ele>
        <time>2022-05-15T09:13:03Z</time>
      </trkpt>
      <trkpt lat="42.340771" lon="-3.908349">
        <ele>864.2945269867778</ele>
        <time>2022-05-15T09:13:17Z</time>
      </trkpt>
      <trkpt lat="42.340773" lon="-3.908477">
        <ele>862.7591141071171</ele>
        <time>2022-05-15T09:13:24Z</time>
      </trkpt>
      <trkpt lat="42.340782" lon="-3.908607">
        <ele>861.4870920665562</ele>
        <time>2022-05-15T09:13:31Z</time>
      </trkpt>
      <trkpt lat="42.340804" lon="-3.908733">
        <ele>861.1796294506639</ele>
        <time>2022-05-15T09:13:39Z</time>
      </trkpt>
      <trkpt lat="42.340752" lon="-3.908846">
        <ele>859.5823281714693</ele>
        <time>2022-05-15T09:13:47Z</time>
      </trkpt>
      <trkpt lat="42.340803" lon="-3.90896">
        <ele>859.0558121632785</ele>
        <time>2022-05-15T09:13:54Z</time>
      </trkpt>
      <trkpt lat="42.340853" lon="-3.90908">
        <ele>860.9463113276288</ele>
        <time>2022-05-15T09:14:01Z</time>
      </trkpt>
      <trkpt lat="42.34081" lon="-3.909201">
        <ele>860.5658525088802</ele>
        <time>2022-05-15T09:14:07Z</time>
      </trkpt>
      <trkpt lat="42.340789" lon="-3.909322">
        <ele>858.6483068224043</ele>
        <time>2022-05-15T09:14:14Z</time>
      </trkpt>
      <trkpt lat="42.340744" lon="-3.909429">
        <ele>856.8961710818112</ele>
        <time>2022-05-15T09:14:19Z</time>
      </trkpt>
      <trkpt lat="42.340746" lon="-3.909551">
        <ele>856.4666133457795</ele>
        <time>2022-05-15T09:14:28Z</time>
      </trkpt>
      <trkpt lat="42.340728" lon="-3.909676">
        <ele>854.7456332417205</ele>
        <time>2022-05-15T09:14:43Z</time>
      </trkpt>
      <trkpt lat="42.340695" lon="-3.909802">
        <ele>854.6068030679598</ele>
        <time>2022-05-15T09:14:49Z</time>
      </trkpt>
      <trkpt lat="42.340692" lon="-3.909925">
        <ele>853.9449143940583</ele>
        <time>2022-05-15T09:14:57Z</time>
      </trkpt>
      <trkpt lat="42.340761" lon="-3.910021">
        <ele>855.7425030423328</ele>
        <time>2022-05-15T09:15:03Z</time>
      </trkpt>
      <trkpt lat="42.340762" lon="-3.910146">
        <ele>858.8407020103186</ele>
        <time>2022-05-15T09:15:09Z</time>
      </trkpt>
      <trkpt lat="42.340728" lon="-3.910267">
        <ele>856.6383435847238</ele>
        <time>2022-05-15T09:15:19Z</time>
      </trkpt>
      <trkpt lat="42.340748" lon="-3.910391">
        <ele>855.588384824805</ele>
        <time>2022-05-15T09:15:27Z</time>
      </trkpt>
      <trkpt lat="42.340697" lon="-3.910502">
        <ele>854.6278537129983</ele>
        <time>2022-05-15T09:15:32Z</time>
      </trkpt>
      <trkpt lat="42.340702" lon="-3.910628">
        <ele>853.7989056482911</ele>
        <time>2022-05-15T09:15:39Z</time>
      </trkpt>
      <trkpt lat="42.340641" lon="-3.910734">
        <ele>850.4490350410342</ele>
        <time>2022-05-15T09:15:46Z</time>
      </trkpt>
      <trkpt lat="42.340652" lon="-3.910863">
        <ele>849.7536334116012</ele>
        <time>2022-05-15T09:15:53Z</time>
      </trkpt>
      <trkpt lat="42.340726" lon="-3.910951">
        <ele>853.0019200304523</ele>
        <time>2022-05-15T09:15:59Z</time>
      </trkpt>
      <trkpt lat="42.340728" lon="-3.911084">
        <ele>854.2617203779519</ele>
        <time>2022-05-15T09:16:08Z</time>
      </trkpt>
      <trkpt lat="42.340676" lon="-3.911213">
        <ele>851.781467330642</ele>
        <time>2022-05-15T09:16:14Z</time>
      </trkpt>
      <trkpt lat="42.340645" lon="-3.911342">
        <ele>849.9710453571752</ele>
        <time>2022-05-15T09:16:21Z</time>
      </trkpt>
      <trkpt lat="42.340643" lon="-3.911467">
        <ele>848.4048082670197</ele>
        <time>2022-05-15T09:16:28Z</time>
      </trkpt>
      <trkpt lat="42.340712" lon="-3.911563">
        <ele>850.2529440065846</ele>
        <time>2022-05-15T09:16:37Z</time>
      </trkpt>
      <trkpt lat="42.340717" lon="-3.911695">
        <ele>853.1947182454169</ele>
        <time>2022-05-15T09:16:44Z</time>
      </trkpt>
      <trkpt lat="42.340749" lon="-3.911816">
        <ele>853.608560086228</ele>
        <time>2022-05-15T09:16:52Z</time>
      </trkpt>
      <trkpt lat="42.340788" lon="-3.91193">
        <ele>853.3406676836312</ele>
        <time>2022-05-15T09:16:59Z</time>
      </trkpt>
      <trkpt lat="42.340776" lon="-3.912054">
        <ele>854.0215929960832</ele>
        <time>2022-05-15T09:17:04Z</time>
      </trkpt>
      <trkpt lat="42.340767" lon="-3.912188">
        <ele>854.7543325703591</ele>
        <time>2022-05-15T09:17:14Z</time>
      </trkpt>
      <trkpt lat="42.340747" lon="-3.912311">
        <ele>855.4506091354415</ele>
        <time>2022-05-15T09:17:22Z</time>
      </trkpt>
      <trkpt lat="42.340739" lon="-3.912441">
        <ele>858.108983703889</ele>
        <time>2022-05-15T09:17:29Z</time>
      </trkpt>
      <trkpt lat="42.340723" lon="-3.912564">
        <ele>856.6197384791449</ele>
        <time>2022-05-15T09:17:38Z</time>
      </trkpt>
      <trkpt lat="42.340653" lon="-3.912663">
        <ele>854.6136623956263</ele>
        <time>2022-05-15T09:17:42Z</time>
      </trkpt>
      <trkpt lat="42.340658" lon="-3.91279">
        <ele>856.8742366349325</ele>
        <time>2022-05-15T09:17:51Z</time>
      </trkpt>
      <trkpt lat="42.340691" lon="-3.912918">
        <ele>857.3438764838502</ele>
        <time>2022-05-15T09:18:01Z</time>
      </trkpt>
      <trkpt lat="42.340702" lon="-3.913055">
        <ele>858.0680553065613</ele>
        <time>2022-05-15T09:18:08Z</time>
      </trkpt>
      <trkpt lat="42.340696" lon="-3.913179">
        <ele>860.4048393405974</ele>
        <time>2022-05-15T09:18:16Z</time>
      </trkpt>
      <trkpt lat="42.340698" lon="-3.913312">
        <ele>860.0827866587788</ele>
        <time>2022-05-15T09:18:24Z</time>
      </trkpt>
      <trkpt lat="42.340654" lon="-3.913419">
        <ele>857.8130080141127</ele>
        <time>2022-05-15T09:18:29Z</time>
      </trkpt>
      <trkpt lat="42.340625" lon="-3.91354">
        <ele>857.8202118687332</ele>
        <time>2022-05-15T09:18:36Z</time>
      </trkpt>
      <trkpt lat="42.340621" lon="-3.913675">
        <ele>860.3052148129791</ele>
        <time>2022-05-15T09:18:43Z</time>
      </trkpt>
      <trkpt lat="42.340632" lon="-3.913802">
        <ele>859.8964430065826</ele>
        <time>2022-05-15T09:18:52Z</time>
      </trkpt>
      <trkpt lat="42.340587" lon="-3.913916">
        <ele>858.5628272322938</ele>
        <time>2022-05-15T09:18:57Z</time>
      </trkpt>
      <trkpt lat="42.340556" lon="-3.914037">
        <ele>858.0151554318145</ele>
        <time>2022-05-15T09:19:03Z</time>
      </trkpt>
      <trkpt lat="42.340553" lon="-3.91416">
        <ele>857.5056835077703</ele>
        <time>2022-05-15T09:19:12Z</time>
      </trkpt>
      <trkpt lat="42.340583" lon="-3.914284">
        <ele>860.6287109619007</ele>
        <time>2022-05-15T09:19:21Z</time>
      </trkpt>
      <trkpt lat="42.340581" lon="-3.914418">
        <ele>864.1030153008178</ele>
        <time>2022-05-15T09:19:29Z</time>
      </trkpt>
      <trkpt lat="42.340554" lon="-3.914548">
        <ele>862.7315926933661</ele>
        <time>2022-05-15T09:19:39Z</time>
      </trkpt>
      <trkpt lat="42.340534" lon="-3.914671">
        <ele>862.3806549375877</ele>
        <time>2022-05-15T09:19:46Z</time>
      </trkpt>
      <trkpt lat="42.34051" lon="-3.914811">
        <ele>862.7182876449078</ele>
        <time>2022-05-15T09:19:53Z</time>
      </trkpt>
      <trkpt lat="42.340494" lon="-3.914943">
        <ele>862.0023276451975</ele>
        <time>2022-05-15T09:20:02Z</time>
      </trkpt>
      <trkpt lat="42.340474" lon="-3.915064">
        <ele>861.3733512833714</ele>
        <time>2022-05-15T09:20:08Z</time>
      </trkpt>
      <trkpt lat="42.340466" lon="-3.915196">
        <ele>862.681450647302</ele>
        <time>2022-05-15T09:20:14Z</time>
      </trkpt>
      <trkpt lat="42.340441" lon="-3.91533">
        <ele>861.7137452941388</ele>
        <time>2022-05-15T09:20:24Z</time>
      </trkpt>
      <trkpt lat="42.340403" lon="-3.915457">
        <ele>858.4226620253175</ele>
        <time>2022-05-15T09:20:30Z</time>
      </trkpt>
      <trkpt lat="42.340429" lon="-3.915589">
        <ele>858.4619786730036</ele>
        <time>2022-05-15T09:20:38Z</time>
      </trkpt>
      <trkpt lat="42.340417" lon="-3.915714">
        <ele>855.1307889223099</ele>
        <time>2022-05-15T09:20:48Z</time>
      </trkpt>
      <trkpt lat="42.3404" lon="-3.915834">
        <ele>853.2539366530254</ele>
        <time>2022-05-15T09:20:55Z</time>
      </trkpt>
      <trkpt lat="42.34038" lon="-3.915965">
        <ele>852.5612312005833</ele>
        <time>2022-05-15T09:21:00Z</time>
      </trkpt>
      <trkpt lat="42.340388" lon="-3.916087">
        <ele>852.6461819894612</ele>
        <time>2022-05-15T09:21:09Z</time>
      </trkpt>
      <trkpt lat="42.340368" lon="-3.916213">
        <ele>850.2085489332676</ele>
        <time>2022-05-15T09:21:18Z</time>
      </trkpt>
      <trkpt lat="42.340339" lon="-3.916329">
        <ele>849.5599957713857</ele>
        <time>2022-05-15T09:21:24Z</time>
      </trkpt>
      <trkpt lat="42.340333" lon="-3.916453">
        <ele>852.1962590860203</ele>
        <time>2022-05-15T09:21:31Z</time>
      </trkpt>
      <trkpt lat="42.340337" lon="-3.916577">
        <ele>851.2672224668786</ele>
        <time>2022-05-15T09:21:39Z</time>
      </trkpt>
      <trkpt lat="42.340312" lon="-3.916713">
        <ele>849.2080209814012</ele>
        <time>2022-05-15T09:21:47Z</time>
      </trkpt>
      <trkpt lat="42.340293" lon="-3.916834">
        <ele>849.4261764734983</ele>
        <time>2022-05-15T09:21:53Z</time>
      </trkpt>
      <trkpt lat="42.340277" lon="-3.916956">
        <ele>851.0838430356234</ele>
        <time>2022-05-15T09:21:59Z</time>
      </trkpt>
      <trkpt lat="42.340299" lon="-3.917082">
        <ele>850.9743255637586</ele>
        <time>2022-05-15T09:22:09Z</time>
      </trkpt>
      <trkpt lat="42.34028" lon="-3.917212">
        <ele>851.2128734961152</ele>
        <time>2022-05-15T09:22:17Z</time>
      </trkpt>
      <trkpt lat="42.340264" lon="-3.917345">
        <ele>854.7767048086971</ele>
        <time>2022-05-15T09:22:24Z</time>
      </trkpt>
      <trkpt lat="42.340248" lon="-3.917474">
        <ele>853.121405328624</ele>
        <time>2022-05-15T09:22:33Z</time>
      </trkpt>
      <trkpt lat="42.340242" lon="-3.917614">
        <ele>853.2646575998515</ele>
        <time>2022-05-15T09:22:41Z</time>
      </trkpt>
      <trkpt lat="42.34024" lon="-3.917737">
        <ele>853.6369722625241</ele>
        <time>2022-05-15T09:22:47Z</time>
      </trkpt>
      <trkpt lat="42.340194" lon="-3.917844">
        <ele>852.0575219709426</ele>
        <time>2022-05-15T09:22:52Z</time>
      </trkpt>
      <trkpt lat="42.340186" lon="-3.917967">
        <ele>853.5040638353676</ele>
        <time>2022-05-15T09:22:59Z</time>
      </trkpt>
      <trkpt lat="42.340182" lon="-3.918101">
        <ele>854.5475809816271</ele>
        <time>2022-05-15T09:23:08Z</time>
      </trkpt>
      <trkpt lat="42.340138" lon="-3.918216">
        <ele>852.4977152636275</ele>
        <time>2022-05-15T09:23:14Z</time>
      </trkpt>
      <trkpt lat="42.340127" lon="-3.918347">
        <ele>851.2936229826882</ele>
        <time>2022-05-15T09:23:23Z</time>
      </trkpt>
      <trkpt lat="42.34011" lon="-3.91848">
        <ele>851.9606883777305</ele>
        <time>2022-05-15T09:23:32Z</time>
      </trkpt>
      <trkpt lat="42.3401" lon="-3.918604">
        <ele>851.5432878546417</ele>
        <time>2022-05-15T09:23:41Z</time>
      </trkpt>
      <trkpt lat="42.340079" lon="-3.918726">
        <ele>852.1309581752867</ele>
        <time>2022-05-15T09:23:47Z</time>
      </trkpt>
      <trkpt lat="42.340061" lon="-3.918855">
        <ele>852.4274823190644</ele>
        <time>2022-05-15T09:23:53Z</time>
      </trkpt>
      <trkpt lat="42.340053" lon="-3.918981">
        <ele>854.2533028973266</ele>
        <time>2022-05-15T09:24:04Z</time>
      </trkpt>
      <trkpt lat="42.340036" lon="-3.919103">
        <ele>854.2551517505199</ele>
        <time>2022-05-15T09:24:09Z</time>
      </trkpt>
      <trkpt lat="42.34" lon="-3.919227">
        <ele>855.2486409815028</ele>
        <time>2022-05-15T09:24:18Z</time>
      </trkpt>
      <trkpt lat="42.339963" lon="-3.919352">
        <ele>855.3774393675849</ele>
        <time>2022-05-15T09:24:26Z</time>
      </trkpt>
      <trkpt lat="42.339927" lon="-3.919463">
        <ele>856.0605318294838</ele>
        <time>2022-05-15T09:24:32Z</time>
      </trkpt>
      <trkpt lat="42.339883" lon="-3.919582">
        <ele>855.8941734163091</ele>
        <time>2022-05-15T09:24:39Z</time>
      </trkpt>
      <trkpt lat="42.339816" lon="-3.919683">
        <ele>853.4773857034743</ele>
        <time>2022-05-15T09:24:47Z</time>
      </trkpt>
      <trkpt lat="42.339766" lon="-3.919803">
        <ele>853.7446301840246</ele>
        <time>2022-05-15T09:24:54Z</time>
      </trkpt>
      <trkpt lat="42.339742" lon="-3.919921">
        <ele>851.9637221544981</ele>
        <time>2022-05-15T09:25:01Z</time>
      </trkpt>
      <trkpt lat="42.339703" lon="-3.920038">
        <ele>851.075101075694</ele>
        <time>2022-05-15T09:25:09Z</time>
      </trkpt>
      <trkpt lat="42.33966" lon="-3.920168">
        <ele>850.231327207759</ele>
        <time>2022-05-15T09:25:19Z</time>
      </trkpt>
      <trkpt lat="42.339634" lon="-3.920292">
        <ele>852.89192115888</ele>
        <time>2022-05-15T09:25:28Z</time>
      </trkpt>
      <trkpt lat="42.339602" lon="-3.920412">
        <ele>852.1387543547899</ele>
        <time>2022-05-15T09:25:34Z</time>
      </trkpt>
      <trkpt lat="42.339573" lon="-3.920547">
        <ele>854.9025174407288</ele>
        <time>2022-05-15T09:25:43Z</time>
      </trkpt>
      <trkpt lat="42.339508" lon="-3.920646">
        <ele>852.9658689023927</ele>
        <time>2022-05-15T09:25:48Z</time>
      </trkpt>
      <trkpt lat="42.339484" lon="-3.920775">
        <ele>857.2191372718662</ele>
        <time>2022-05-15T09:25:58Z</time>
      </trkpt>
      <trkpt lat="42.339426" lon="-3.920877">
        <ele>858.3897152673453</ele>
        <time>2022-05-15T09:26:04Z</time>
      </trkpt>
      <trkpt lat="42.339363" lon="-3.920988">
        <ele>860.0416477750987</ele>
        <time>2022-05-15T09:26:13Z</time>
      </trkpt>
      <trkpt lat="42.339289" lon="-3.921067">
        <ele>859.9199186852202</ele>
        <time>2022-05-15T09:26:19Z</time>
      </trkpt>
      <trkpt lat="42.339237" lon="-3.921174">
        <ele>859.6581803373992</ele>
        <time>2022-05-15T09:26:28Z</time>
      </trkpt>
      <trkpt lat="42.339168" lon="-3.921264">
        <ele>857.6512311408296</ele>
        <time>2022-05-15T09:26:34Z</time>
      </trkpt>
      <trkpt lat="42.339122" lon="-3.921387">
        <ele>855.580628815107</ele>
        <time>2022-05-15T09:26:43Z</time>
      </trkpt>
      <trkpt lat="42.339055" lon="-3.921473">
        <ele>852.6344520179555</ele>
        <time>2022-05-15T09:26:48Z</time>
      </trkpt>
      <trkpt lat="42.338998" lon="-3.921586">
        <ele>849.7106900531799</ele>
        <time>2022-05-15T09:26:56Z</time>
      </trkpt>
      <trkpt lat="42.338957" lon="-3.921697">
        <ele>848.8176646800712</ele>
        <time>2022-05-15T09:27:04Z</time>
      </trkpt>
      <trkpt lat="42.338891" lon="-3.921795">
        <ele>845.9848608681932</ele>
        <time>2022-05-15T09:27:11Z</time>
      </trkpt>
      <trkpt lat="42.338871" lon="-3.921915">
        <ele>844.1670930022374</ele>
        <time>2022-05-15T09:27:19Z</time>
      </trkpt>
      <trkpt lat="42.338821" lon="-3.922021">
        <ele>841.1266598869115</ele>
        <time>2022-05-15T09:27:28Z</time>
      </trkpt>
      <trkpt lat="42.338813" lon="-3.922144">
        <ele>843.7781914528459</ele>
        <time>2022-05-15T09:27:56Z</time>
      </trkpt>
      <trkpt lat="42.338797" lon="-3.922274">
        <ele>846.0040105115622</ele>
        <time>2022-05-15T09:28:04Z</time>
      </trkpt>
      <trkpt lat="42.338751" lon="-3.922395">
        <ele>843.1394775789231</ele>
        <time>2022-05-15T09:28:12Z</time>
      </trkpt>
      <trkpt lat="42.338724" lon="-3.922523">
        <ele>843.8042237665504</ele>
        <time>2022-05-15T09:28:23Z</time>
      </trkpt>
      <trkpt lat="42.338755" lon="-3.922638">
        <ele>843.7163940165192</ele>
        <time>2022-05-15T09:28:34Z</time>
      </trkpt>
      <trkpt lat="42.338767" lon="-3.922771">
        <ele>846.0187391294166</ele>
        <time>2022-05-15T09:28:43Z</time>
      </trkpt>
      <trkpt lat="42.338735" lon="-3.922897">
        <ele>849.2838381957263</ele>
        <time>2022-05-15T09:28:52Z</time>
      </trkpt>
      <trkpt lat="42.338696" lon="-3.923019">
        <ele>851.4113481929526</ele>
        <time>2022-05-15T09:29:04Z</time>
      </trkpt>
      <trkpt lat="42.338645" lon="-3.923125">
        <ele>850.274471545592</ele>
        <time>2022-05-15T09:29:12Z</time>
      </trkpt>
      <trkpt lat="42.338633" lon="-3.923264">
        <ele>851.3469967236742</ele>
        <time>2022-05-15T09:29:22Z</time>
      </trkpt>
      <trkpt lat="42.33862" lon="-3.923385">
        <ele>849.403963657096</ele>
        <time>2022-05-15T09:29:29Z</time>
      </trkpt>
      <trkpt lat="42.338627" lon="-3.923507">
        <ele>849.0625563533977</ele>
        <time>2022-05-15T09:29:39Z</time>
      </trkpt>
      <trkpt lat="42.338619" lon="-3.923629">
        <ele>846.7298600450158</ele>
        <time>2022-05-15T09:29:49Z</time>
      </trkpt>
      <trkpt lat="42.338574" lon="-3.923736">
        <ele>846.8444371176884</ele>
        <time>2022-05-15T09:29:59Z</time>
      </trkpt>
      <trkpt lat="42.338657" lon="-3.923811">
        <ele>847.8490653447807</ele>
        <time>2022-05-15T09:31:01Z</time>
      </trkpt>
      <trkpt lat="42.338579" lon="-3.923874">
        <ele>849.9059731159359</ele>
        <time>2022-05-15T09:33:56Z</time>
      </trkpt>
      <trkpt lat="42.33868" lon="-3.923868">
        <ele>833.8985468409956</ele>
        <time>2022-05-15T09:37:07Z</time>
      </trkpt>
      <trkpt lat="42.338596" lon="-3.923938">
        <ele>835.2684617340565</ele>
        <time>2022-05-15T09:38:09Z</time>
      </trkpt>
      <trkpt lat="42.338684" lon="-3.923893">
        <ele>834.8826761553064</ele>
        <time>2022-05-15T09:40:08Z</time>
      </trkpt>
      <trkpt lat="42.338626" lon="-3.923995">
        <ele>847.220005533658</ele>
        <time>2022-05-15T09:46:41Z</time>
      </trkpt>
      <trkpt lat="42.338539" lon="-3.924072">
        <ele>846.6718034250662</ele>
        <time>2022-05-15T09:46:48Z</time>
      </trkpt>
      <trkpt lat="42.338466" lon="-3.924179">
        <ele>844.5456145294011</ele>
        <time>2022-05-15T09:47:04Z</time>
      </trkpt>
      <trkpt lat="42.338455" lon="-3.924317">
        <ele>845.5452201142907</ele>
        <time>2022-05-15T09:47:14Z</time>
      </trkpt>
      <trkpt lat="42.338421" lon="-3.92444">
        <ele>848.455286629498</ele>
        <time>2022-05-15T09:47:24Z</time>
      </trkpt>
      <trkpt lat="42.338371" lon="-3.924553">
        <ele>848.1520873345435</ele>
        <time>2022-05-15T09:47:33Z</time>
      </trkpt>
      <trkpt lat="42.338317" lon="-3.924659">
        <ele>849.1490205060691</ele>
        <time>2022-05-15T09:47:42Z</time>
      </trkpt>
      <trkpt lat="42.338305" lon="-3.924792">
        <ele>852.1592052029446</ele>
        <time>2022-05-15T09:47:54Z</time>
      </trkpt>
      <trkpt lat="42.338354" lon="-3.924911">
        <ele>854.0438575958833</ele>
        <time>2022-05-15T09:48:03Z</time>
      </trkpt>
      <trkpt lat="42.338342" lon="-3.925033">
        <ele>855.3837235951796</ele>
        <time>2022-05-15T09:48:13Z</time>
      </trkpt>
      <trkpt lat="42.338385" lon="-3.925149">
        <ele>857.8935002693906</ele>
        <time>2022-05-15T09:48:19Z</time>
      </trkpt>
      <trkpt lat="42.338404" lon="-3.925271">
        <ele>858.0251877643168</ele>
        <time>2022-05-15T09:48:26Z</time>
      </trkpt>
      <trkpt lat="42.338402" lon="-3.925411">
        <ele>858.147376251407</ele>
        <time>2022-05-15T09:48:33Z</time>
      </trkpt>
      <trkpt lat="42.338393" lon="-3.925544">
        <ele>859.898116927594</ele>
        <time>2022-05-15T09:48:41Z</time>
      </trkpt>
      <trkpt lat="42.338425" lon="-3.925663">
        <ele>860.2850564001128</ele>
        <time>2022-05-15T09:48:51Z</time>
      </trkpt>
      <trkpt lat="42.338468" lon="-3.925786">
        <ele>860.9906474668533</ele>
        <time>2022-05-15T09:48:58Z</time>
      </trkpt>
      <trkpt lat="42.338511" lon="-3.925906">
        <ele>863.0305312396958</ele>
        <time>2022-05-15T09:49:09Z</time>
      </trkpt>
      <trkpt lat="42.338549" lon="-3.926025">
        <ele>863.4460265561938</ele>
        <time>2022-05-15T09:49:17Z</time>
      </trkpt>
      <trkpt lat="42.338579" lon="-3.926156">
        <ele>864.2392520038411</ele>
        <time>2022-05-15T09:49:27Z</time>
      </trkpt>
      <trkpt lat="42.338615" lon="-3.926274">
        <ele>866.7871306166053</ele>
        <time>2022-05-15T09:49:34Z</time>
      </trkpt>
      <trkpt lat="42.338634" lon="-3.9264">
        <ele>870.1910658692941</ele>
        <time>2022-05-15T09:49:47Z</time>
      </trkpt>
      <trkpt lat="42.338703" lon="-3.926321">
        <ele>874.5220252620056</ele>
        <time>2022-05-15T09:50:04Z</time>
      </trkpt>
      <trkpt lat="42.33876" lon="-3.926215">
        <ele>873.6053308369592</ele>
        <time>2022-05-15T09:50:57Z</time>
      </trkpt>
      <trkpt lat="42.338901" lon="-3.926222">
        <ele>872.7230184990913</ele>
        <time>2022-05-15T09:51:09Z</time>
      </trkpt>
      <trkpt lat="42.339002" lon="-3.926217">
        <ele>872.1180991055444</ele>
        <time>2022-05-15T09:51:12Z</time>
      </trkpt>
      <trkpt lat="42.339102" lon="-3.926201">
        <ele>871.7403143942356</ele>
        <time>2022-05-15T09:51:17Z</time>
      </trkpt>
      <trkpt lat="42.338974" lon="-3.926188">
        <ele>871.4301148029044</ele>
        <time>2022-05-15T09:51:31Z</time>
      </trkpt>
      <trkpt lat="42.338899" lon="-3.926091">
        <ele>871.1357864104211</ele>
        <time>2022-05-15T09:51:35Z</time>
      </trkpt>
      <trkpt lat="42.338952" lon="-3.925983">
        <ele>870.8524057306349</ele>
        <time>2022-05-15T09:52:04Z</time>
      </trkpt>
      <trkpt lat="42.338963" lon="-3.925845">
        <ele>871.0097018210217</ele>
        <time>2022-05-15T09:52:06Z</time>
      </trkpt>
      <trkpt lat="42.338955" lon="-3.925972">
        <ele>869.971504916437</ele>
        <time>2022-05-15T09:52:14Z</time>
      </trkpt>
      <trkpt lat="42.338927" lon="-3.92609">
        <ele>873.9454840812832</ele>
        <time>2022-05-15T09:52:15Z</time>
      </trkpt>
      <trkpt lat="42.338873" lon="-3.926204">
        <ele>874.3696462363005</ele>
        <time>2022-05-15T09:52:18Z</time>
      </trkpt>
      <trkpt lat="42.338785" lon="-3.926236">
        <ele>874.7480170689523</ele>
        <time>2022-05-15T09:52:22Z</time>
      </trkpt>
      <trkpt lat="42.338683" lon="-3.926229">
        <ele>874.2923030089587</ele>
        <time>2022-05-15T09:52:33Z</time>
      </trkpt>
      <trkpt lat="42.338765" lon="-3.926311">
        <ele>876.3003122285008</ele>
        <time>2022-05-15T09:53:48Z</time>
      </trkpt>
      <trkpt lat="42.338837" lon="-3.926393">
        <ele>879.4595567928627</ele>
        <time>2022-05-15T09:53:54Z</time>
      </trkpt>
      <trkpt lat="42.338928" lon="-3.926411">
        <ele>873.550689285621</ele>
        <time>2022-05-15T09:54:26Z</time>
      </trkpt>
      <trkpt lat="42.338992" lon="-3.926498">
        <ele>874.0438524028286</ele>
        <time>2022-05-15T09:54:33Z</time>
      </trkpt>
      <trkpt lat="42.33891" lon="-3.926439">
        <ele>876.3045213278383</ele>
        <time>2022-05-15T09:54:42Z</time>
      </trkpt>
      <trkpt lat="42.338817" lon="-3.926399">
        <ele>878.7134202513844</ele>
        <time>2022-05-15T09:54:49Z</time>
      </trkpt>
      <trkpt lat="42.338724" lon="-3.926421">
        <ele>880.5496903611347</ele>
        <time>2022-05-15T09:54:59Z</time>
      </trkpt>
      <trkpt lat="42.338627" lon="-3.926442">
        <ele>884.4163081236184</ele>
        <time>2022-05-15T09:55:11Z</time>
      </trkpt>
      <trkpt lat="42.338655" lon="-3.92656">
        <ele>882.913760907948</ele>
        <time>2022-05-15T09:55:29Z</time>
      </trkpt>
      <trkpt lat="42.338688" lon="-3.926685">
        <ele>882.6948118777946</ele>
        <time>2022-05-15T09:55:38Z</time>
      </trkpt>
      <trkpt lat="42.3387" lon="-3.926813">
        <ele>878.2254828019068</ele>
        <time>2022-05-15T09:55:47Z</time>
      </trkpt>
      <trkpt lat="42.338705" lon="-3.926936">
        <ele>878.5373243261129</ele>
        <time>2022-05-15T09:55:54Z</time>
      </trkpt>
      <trkpt lat="42.338699" lon="-3.927064">
        <ele>877.379044036381</ele>
        <time>2022-05-15T09:56:04Z</time>
      </trkpt>
      <trkpt lat="42.338706" lon="-3.927188">
        <ele>876.2429385790601</ele>
        <time>2022-05-15T09:56:12Z</time>
      </trkpt>
      <trkpt lat="42.338791" lon="-3.927249">
        <ele>877.0590026788414</ele>
        <time>2022-05-15T09:56:19Z</time>
      </trkpt>
      <trkpt lat="42.338881" lon="-3.927288">
        <ele>881.2905627712607</ele>
        <time>2022-05-15T09:56:27Z</time>
      </trkpt>
      <trkpt lat="42.338976" lon="-3.927337">
        <ele>883.332988338545</ele>
        <time>2022-05-15T09:56:36Z</time>
      </trkpt>
      <trkpt lat="42.33905" lon="-3.927422">
        <ele>882.6112485136837</ele>
        <time>2022-05-15T09:56:48Z</time>
      </trkpt>
      <trkpt lat="42.339088" lon="-3.927533">
        <ele>883.6710632974282</ele>
        <time>2022-05-15T09:56:58Z</time>
      </trkpt>
      <trkpt lat="42.339024" lon="-3.927438">
        <ele>884.4464440373704</ele>
        <time>2022-05-15T09:57:06Z</time>
      </trkpt>
      <trkpt lat="42.339094" lon="-3.927525">
        <ele>883.4829127993435</ele>
        <time>2022-05-15T09:57:32Z</time>
      </trkpt>
      <trkpt lat="42.339146" lon="-3.927638">
        <ele>882.5947654880583</ele>
        <time>2022-05-15T09:57:41Z</time>
      </trkpt>
      <trkpt lat="42.339159" lon="-3.927763">
        <ele>877.8314789170399</ele>
        <time>2022-05-15T09:57:48Z</time>
      </trkpt>
      <trkpt lat="42.339163" lon="-3.927889">
        <ele>874.9559324849397</ele>
        <time>2022-05-15T09:57:56Z</time>
      </trkpt>
      <trkpt lat="42.339182" lon="-3.928027">
        <ele>874.185837672092</ele>
        <time>2022-05-15T09:58:03Z</time>
      </trkpt>
      <trkpt lat="42.339204" lon="-3.928155">
        <ele>873.0950079457834</ele>
        <time>2022-05-15T09:58:11Z</time>
      </trkpt>
      <trkpt lat="42.33921" lon="-3.928279">
        <ele>874.02577595599</ele>
        <time>2022-05-15T09:58:19Z</time>
      </trkpt>
      <trkpt lat="42.339243" lon="-3.928408">
        <ele>876.9489392535761</ele>
        <time>2022-05-15T09:58:28Z</time>
      </trkpt>
      <trkpt lat="42.339295" lon="-3.928526">
        <ele>878.8386791013181</ele>
        <time>2022-05-15T09:58:34Z</time>
      </trkpt>
      <trkpt lat="42.339352" lon="-3.928623">
        <ele>877.7620029104874</ele>
        <time>2022-05-15T09:58:42Z</time>
      </trkpt>
      <trkpt lat="42.339373" lon="-3.928746">
        <ele>878.0382831767201</ele>
        <time>2022-05-15T09:58:51Z</time>
      </trkpt>
      <trkpt lat="42.339381" lon="-3.928868">
        <ele>877.9153174320236</ele>
        <time>2022-05-15T09:58:58Z</time>
      </trkpt>
      <trkpt lat="42.339473" lon="-3.928906">
        <ele>875.7224996499717</ele>
        <time>2022-05-15T09:59:09Z</time>
      </trkpt>
      <trkpt lat="42.339537" lon="-3.929002">
        <ele>877.2832560129464</ele>
        <time>2022-05-15T09:59:24Z</time>
      </trkpt>
      <trkpt lat="42.33959" lon="-3.929104">
        <ele>879.977583553642</ele>
        <time>2022-05-15T09:59:39Z</time>
      </trkpt>
      <trkpt lat="42.339535" lon="-3.928991">
        <ele>879.5259454902261</ele>
        <time>2022-05-15T09:59:48Z</time>
      </trkpt>
      <trkpt lat="42.339456" lon="-3.92893">
        <ele>881.1921909786761</ele>
        <time>2022-05-15T09:59:58Z</time>
      </trkpt>
      <trkpt lat="42.339373" lon="-3.928989">
        <ele>879.4245226765051</ele>
        <time>2022-05-15T10:00:15Z</time>
      </trkpt>
      <trkpt lat="42.339427" lon="-3.928886">
        <ele>878.4614760652184</ele>
        <time>2022-05-15T10:00:53Z</time>
      </trkpt>
      <trkpt lat="42.339358" lon="-3.928805">
        <ele>879.2563980761915</ele>
        <time>2022-05-15T10:01:01Z</time>
      </trkpt>
      <trkpt lat="42.339329" lon="-3.928689">
        <ele>879.5350918639451</ele>
        <time>2022-05-15T10:01:09Z</time>
      </trkpt>
      <trkpt lat="42.339283" lon="-3.928576">
        <ele>879.3951352983713</ele>
        <time>2022-05-15T10:01:54Z</time>
      </trkpt>
      <trkpt lat="42.339263" lon="-3.928451">
        <ele>878.617996939458</ele>
        <time>2022-05-15T10:02:03Z</time>
      </trkpt>
      <trkpt lat="42.339254" lon="-3.928329">
        <ele>878.216082402505</ele>
        <time>2022-05-15T10:02:09Z</time>
      </trkpt>
      <trkpt lat="42.339255" lon="-3.928197">
        <ele>875.9031550874934</ele>
        <time>2022-05-15T10:02:18Z</time>
      </trkpt>
      <trkpt lat="42.339234" lon="-3.928072">
        <ele>873.2388248955831</ele>
        <time>2022-05-15T10:02:27Z</time>
      </trkpt>
      <trkpt lat="42.339208" lon="-3.927941">
        <ele>870.5237225508317</ele>
        <time>2022-05-15T10:02:34Z</time>
      </trkpt>
      <trkpt lat="42.339206" lon="-3.927818">
        <ele>873.7703062500805</ele>
        <time>2022-05-15T10:02:43Z</time>
      </trkpt>
      <trkpt lat="42.339144" lon="-3.927715">
        <ele>875.0191541220993</ele>
        <time>2022-05-15T10:02:51Z</time>
      </trkpt>
      <trkpt lat="42.339069" lon="-3.927629">
        <ele>876.7306198859587</ele>
        <time>2022-05-15T10:02:58Z</time>
      </trkpt>
      <trkpt lat="42.339021" lon="-3.927506">
        <ele>879.145472583361</ele>
        <time>2022-05-15T10:03:06Z</time>
      </trkpt>
      <trkpt lat="42.33897" lon="-3.927397">
        <ele>880.825315264985</ele>
        <time>2022-05-15T10:03:18Z</time>
      </trkpt>
      <trkpt lat="42.33888" lon="-3.927339">
        <ele>881.424150634557</ele>
        <time>2022-05-15T10:03:27Z</time>
      </trkpt>
      <trkpt lat="42.338788" lon="-3.927339">
        <ele>879.82621175237</ele>
        <time>2022-05-15T10:03:34Z</time>
      </trkpt>
      <trkpt lat="42.338697" lon="-3.92734">
        <ele>880.0425616819412</ele>
        <time>2022-05-15T10:03:43Z</time>
      </trkpt>
      <trkpt lat="42.338609" lon="-3.927375">
        <ele>881.1309076668695</ele>
        <time>2022-05-15T10:03:56Z</time>
      </trkpt>
      <trkpt lat="42.338579" lon="-3.927498">
        <ele>878.9195574978366</ele>
        <time>2022-05-15T10:04:03Z</time>
      </trkpt>
      <trkpt lat="42.338558" lon="-3.92762">
        <ele>876.8271033214405</ele>
        <time>2022-05-15T10:04:09Z</time>
      </trkpt>
      <trkpt lat="42.338531" lon="-3.92774">
        <ele>875.4258521953598</ele>
        <time>2022-05-15T10:04:17Z</time>
      </trkpt>
      <trkpt lat="42.338508" lon="-3.927868">
        <ele>874.34573838301</ele>
        <time>2022-05-15T10:04:24Z</time>
      </trkpt>
      <trkpt lat="42.33848" lon="-3.927985">
        <ele>872.4567932803184</ele>
        <time>2022-05-15T10:04:33Z</time>
      </trkpt>
      <trkpt lat="42.338448" lon="-3.928102">
        <ele>869.3434067871422</ele>
        <time>2022-05-15T10:04:42Z</time>
      </trkpt>
      <trkpt lat="42.33839" lon="-3.928201">
        <ele>867.5351978177205</ele>
        <time>2022-05-15T10:04:51Z</time>
      </trkpt>
      <trkpt lat="42.338343" lon="-3.928314">
        <ele>869.1921680923551</ele>
        <time>2022-05-15T10:04:59Z</time>
      </trkpt>
      <trkpt lat="42.338302" lon="-3.928429">
        <ele>871.0898817451671</ele>
        <time>2022-05-15T10:05:07Z</time>
      </trkpt>
      <trkpt lat="42.338264" lon="-3.928542">
        <ele>872.37568691466</ele>
        <time>2022-05-15T10:05:14Z</time>
      </trkpt>
      <trkpt lat="42.338221" lon="-3.928657">
        <ele>873.6746900668368</ele>
        <time>2022-05-15T10:05:20Z</time>
      </trkpt>
      <trkpt lat="42.338173" lon="-3.928774">
        <ele>875.9273967072368</ele>
        <time>2022-05-15T10:05:28Z</time>
      </trkpt>
      <trkpt lat="42.338144" lon="-3.928904">
        <ele>877.5220247916877</ele>
        <time>2022-05-15T10:05:35Z</time>
      </trkpt>
      <trkpt lat="42.3381" lon="-3.929027">
        <ele>878.4262264054269</ele>
        <time>2022-05-15T10:05:42Z</time>
      </trkpt>
      <trkpt lat="42.338046" lon="-3.929138">
        <ele>876.825784465298</ele>
        <time>2022-05-15T10:05:49Z</time>
      </trkpt>
      <trkpt lat="42.338006" lon="-3.929249">
        <ele>876.7580304769799</ele>
        <time>2022-05-15T10:05:57Z</time>
      </trkpt>
      <trkpt lat="42.337968" lon="-3.929362">
        <ele>877.1978925662115</ele>
        <time>2022-05-15T10:06:04Z</time>
      </trkpt>
      <trkpt lat="42.337901" lon="-3.929462">
        <ele>878.7221245523542</ele>
        <time>2022-05-15T10:06:12Z</time>
      </trkpt>
      <trkpt lat="42.337863" lon="-3.929587">
        <ele>880.017938661389</ele>
        <time>2022-05-15T10:06:19Z</time>
      </trkpt>
      <trkpt lat="42.337826" lon="-3.929705">
        <ele>880.7019350640476</ele>
        <time>2022-05-15T10:06:28Z</time>
      </trkpt>
      <trkpt lat="42.33779" lon="-3.929816">
        <ele>881.0608251271769</ele>
        <time>2022-05-15T10:06:34Z</time>
      </trkpt>
      <trkpt lat="42.337764" lon="-3.929935">
        <ele>882.9451326774433</ele>
        <time>2022-05-15T10:06:41Z</time>
      </trkpt>
      <trkpt lat="42.337747" lon="-3.930058">
        <ele>885.050964881666</ele>
        <time>2022-05-15T10:06:47Z</time>
      </trkpt>
      <trkpt lat="42.337758" lon="-3.930183">
        <ele>887.7034037802368</ele>
        <time>2022-05-15T10:06:54Z</time>
      </trkpt>
      <trkpt lat="42.337727" lon="-3.930307">
        <ele>888.7238025926054</ele>
        <time>2022-05-15T10:07:04Z</time>
      </trkpt>
      <trkpt lat="42.337749" lon="-3.93043">
        <ele>888.7935170112178</ele>
        <time>2022-05-15T10:07:11Z</time>
      </trkpt>
      <trkpt lat="42.337768" lon="-3.930556">
        <ele>888.3095471896231</ele>
        <time>2022-05-15T10:07:18Z</time>
      </trkpt>
      <trkpt lat="42.337771" lon="-3.930679">
        <ele>888.0941896000877</ele>
        <time>2022-05-15T10:07:24Z</time>
      </trkpt>
      <trkpt lat="42.337798" lon="-3.930802">
        <ele>888.9134302455932</ele>
        <time>2022-05-15T10:07:31Z</time>
      </trkpt>
      <trkpt lat="42.33782" lon="-3.930938">
        <ele>889.1222805902362</ele>
        <time>2022-05-15T10:07:39Z</time>
      </trkpt>
      <trkpt lat="42.337841" lon="-3.931069">
        <ele>888.6519310548902</ele>
        <time>2022-05-15T10:07:46Z</time>
      </trkpt>
      <trkpt lat="42.337863" lon="-3.931196">
        <ele>889.5621523987502</ele>
        <time>2022-05-15T10:07:54Z</time>
      </trkpt>
      <trkpt lat="42.337893" lon="-3.931321">
        <ele>888.727620777674</ele>
        <time>2022-05-15T10:08:03Z</time>
      </trkpt>
      <trkpt lat="42.337905" lon="-3.931443">
        <ele>887.7939859731123</ele>
        <time>2022-05-15T10:08:12Z</time>
      </trkpt>
      <trkpt lat="42.33794" lon="-3.931566">
        <ele>886.5177048100159</ele>
        <time>2022-05-15T10:08:19Z</time>
      </trkpt>
      <trkpt lat="42.337937" lon="-3.93169">
        <ele>885.9351070933044</ele>
        <time>2022-05-15T10:08:26Z</time>
      </trkpt>
      <trkpt lat="42.337951" lon="-3.93181">
        <ele>883.6493745278567</ele>
        <time>2022-05-15T10:08:34Z</time>
      </trkpt>
      <trkpt lat="42.337971" lon="-3.931929">
        <ele>881.6717629376799</ele>
        <time>2022-05-15T10:08:41Z</time>
      </trkpt>
      <trkpt lat="42.338005" lon="-3.932045">
        <ele>883.6309185717255</ele>
        <time>2022-05-15T10:08:49Z</time>
      </trkpt>
      <trkpt lat="42.338014" lon="-3.932175">
        <ele>883.0453504733741</ele>
        <time>2022-05-15T10:08:56Z</time>
      </trkpt>
      <trkpt lat="42.338021" lon="-3.932296">
        <ele>881.3964910795912</ele>
        <time>2022-05-15T10:09:03Z</time>
      </trkpt>
      <trkpt lat="42.338039" lon="-3.932429">
        <ele>881.0467916307971</ele>
        <time>2022-05-15T10:09:11Z</time>
      </trkpt>
      <trkpt lat="42.338051" lon="-3.932556">
        <ele>880.623028954491</ele>
        <time>2022-05-15T10:09:19Z</time>
      </trkpt>
      <trkpt lat="42.338045" lon="-3.932687">
        <ele>883.2219036025926</ele>
        <time>2022-05-15T10:09:27Z</time>
      </trkpt>
      <trkpt lat="42.338056" lon="-3.932818">
        <ele>884.3578047854826</ele>
        <time>2022-05-15T10:09:34Z</time>
      </trkpt>
      <trkpt lat="42.33807" lon="-3.932947">
        <ele>884.687920502387</ele>
        <time>2022-05-15T10:09:43Z</time>
      </trkpt>
      <trkpt lat="42.338076" lon="-3.933086">
        <ele>885.8660768168047</ele>
        <time>2022-05-15T10:09:51Z</time>
      </trkpt>
      <trkpt lat="42.338052" lon="-3.933209">
        <ele>885.0575492568314</ele>
        <time>2022-05-15T10:09:59Z</time>
      </trkpt>
      <trkpt lat="42.338054" lon="-3.933347">
        <ele>886.4706623684615</ele>
        <time>2022-05-15T10:10:08Z</time>
      </trkpt>
      <trkpt lat="42.338028" lon="-3.933466">
        <ele>887.658935688436</ele>
        <time>2022-05-15T10:10:14Z</time>
      </trkpt>
      <trkpt lat="42.338008" lon="-3.933587">
        <ele>887.9407965717837</ele>
        <time>2022-05-15T10:10:23Z</time>
      </trkpt>
      <trkpt lat="42.337974" lon="-3.933704">
        <ele>888.5706120720133</ele>
        <time>2022-05-15T10:10:29Z</time>
      </trkpt>
      <trkpt lat="42.337942" lon="-3.93383">
        <ele>888.7930392017588</ele>
        <time>2022-05-15T10:10:38Z</time>
      </trkpt>
      <trkpt lat="42.337882" lon="-3.933926">
        <ele>888.3617943273857</ele>
        <time>2022-05-15T10:10:46Z</time>
      </trkpt>
      <trkpt lat="42.337827" lon="-3.93404">
        <ele>886.9817015631124</ele>
        <time>2022-05-15T10:10:54Z</time>
      </trkpt>
      <trkpt lat="42.337788" lon="-3.934154">
        <ele>885.2537216749042</ele>
        <time>2022-05-15T10:11:02Z</time>
      </trkpt>
      <trkpt lat="42.337742" lon="-3.934266">
        <ele>883.9766170987859</ele>
        <time>2022-05-15T10:11:09Z</time>
      </trkpt>
      <trkpt lat="42.337682" lon="-3.934367">
        <ele>882.1427144398913</ele>
        <time>2022-05-15T10:11:14Z</time>
      </trkpt>
      <trkpt lat="42.337611" lon="-3.934458">
        <ele>879.3381937509403</ele>
        <time>2022-05-15T10:11:22Z</time>
      </trkpt>
      <trkpt lat="42.33756" lon="-3.934561">
        <ele>878.1843933425844</ele>
        <time>2022-05-15T10:11:30Z</time>
      </trkpt>
      <trkpt lat="42.337525" lon="-3.934681">
        <ele>877.0972017720342</ele>
        <time>2022-05-15T10:11:37Z</time>
      </trkpt>
      <trkpt lat="42.337506" lon="-3.934808">
        <ele>877.9831198826432</ele>
        <time>2022-05-15T10:11:43Z</time>
      </trkpt>
      <trkpt lat="42.337478" lon="-3.934932">
        <ele>878.8542030220851</ele>
        <time>2022-05-15T10:11:52Z</time>
      </trkpt>
      <trkpt lat="42.337448" lon="-3.935063">
        <ele>878.4195133922622</ele>
        <time>2022-05-15T10:12:01Z</time>
      </trkpt>
      <trkpt lat="42.337428" lon="-3.935187">
        <ele>878.530388710089</ele>
        <time>2022-05-15T10:12:08Z</time>
      </trkpt>
      <trkpt lat="42.337407" lon="-3.935307">
        <ele>879.5563023425639</ele>
        <time>2022-05-15T10:12:15Z</time>
      </trkpt>
      <trkpt lat="42.337393" lon="-3.935427">
        <ele>881.8884102245793</ele>
        <time>2022-05-15T10:12:23Z</time>
      </trkpt>
      <trkpt lat="42.337372" lon="-3.935562">
        <ele>883.860501552932</ele>
        <time>2022-05-15T10:12:31Z</time>
      </trkpt>
      <trkpt lat="42.337339" lon="-3.935687">
        <ele>884.599479874596</ele>
        <time>2022-05-15T10:12:38Z</time>
      </trkpt>
      <trkpt lat="42.337323" lon="-3.935816">
        <ele>885.11048112344</ele>
        <time>2022-05-15T10:12:47Z</time>
      </trkpt>
      <trkpt lat="42.337296" lon="-3.93594">
        <ele>885.1878798631951</ele>
        <time>2022-05-15T10:12:54Z</time>
      </trkpt>
      <trkpt lat="42.33728" lon="-3.936064">
        <ele>885.0163147933781</ele>
        <time>2022-05-15T10:13:03Z</time>
      </trkpt>
      <trkpt lat="42.337258" lon="-3.936195">
        <ele>885.2199356900528</ele>
        <time>2022-05-15T10:13:11Z</time>
      </trkpt>
      <trkpt lat="42.337234" lon="-3.93632">
        <ele>886.1036571450531</ele>
        <time>2022-05-15T10:13:18Z</time>
      </trkpt>
      <trkpt lat="42.337214" lon="-3.93644">
        <ele>885.7397568924353</ele>
        <time>2022-05-15T10:13:26Z</time>
      </trkpt>
      <trkpt lat="42.337204" lon="-3.936572">
        <ele>886.2252552881837</ele>
        <time>2022-05-15T10:13:33Z</time>
      </trkpt>
      <trkpt lat="42.337179" lon="-3.9367">
        <ele>887.0471213310957</ele>
        <time>2022-05-15T10:13:42Z</time>
      </trkpt>
      <trkpt lat="42.33717" lon="-3.936825">
        <ele>888.5803398927674</ele>
        <time>2022-05-15T10:13:49Z</time>
      </trkpt>
      <trkpt lat="42.337149" lon="-3.936949">
        <ele>888.3315242091194</ele>
        <time>2022-05-15T10:13:58Z</time>
      </trkpt>
      <trkpt lat="42.337141" lon="-3.937081">
        <ele>887.5919080106542</ele>
        <time>2022-05-15T10:14:07Z</time>
      </trkpt>
      <trkpt lat="42.337127" lon="-3.937215">
        <ele>887.6758962301537</ele>
        <time>2022-05-15T10:14:14Z</time>
      </trkpt>
      <trkpt lat="42.337109" lon="-3.937344">
        <ele>889.457143115811</ele>
        <time>2022-05-15T10:14:22Z</time>
      </trkpt>
      <trkpt lat="42.337061" lon="-3.937457">
        <ele>889.5001999177039</ele>
        <time>2022-05-15T10:14:29Z</time>
      </trkpt>
      <trkpt lat="42.336997" lon="-3.937547">
        <ele>889.961275449954</ele>
        <time>2022-05-15T10:14:37Z</time>
      </trkpt>
      <trkpt lat="42.336955" lon="-3.937661">
        <ele>889.1679684072733</ele>
        <time>2022-05-15T10:14:46Z</time>
      </trkpt>
      <trkpt lat="42.336922" lon="-3.937775">
        <ele>889.7004917962477</ele>
        <time>2022-05-15T10:14:52Z</time>
      </trkpt>
      <trkpt lat="42.336888" lon="-3.937894">
        <ele>891.929721724242</ele>
        <time>2022-05-15T10:14:59Z</time>
      </trkpt>
      <trkpt lat="42.336845" lon="-3.938015">
        <ele>892.8278339272365</ele>
        <time>2022-05-15T10:15:08Z</time>
      </trkpt>
      <trkpt lat="42.336798" lon="-3.938122">
        <ele>893.7270053550601</ele>
        <time>2022-05-15T10:15:16Z</time>
      </trkpt>
      <trkpt lat="42.336756" lon="-3.93823">
        <ele>893.4469132572412</ele>
        <time>2022-05-15T10:15:22Z</time>
      </trkpt>
      <trkpt lat="42.336711" lon="-3.938348">
        <ele>893.7269446570426</ele>
        <time>2022-05-15T10:15:29Z</time>
      </trkpt>
      <trkpt lat="42.336679" lon="-3.938464">
        <ele>892.9157533114776</ele>
        <time>2022-05-15T10:15:37Z</time>
      </trkpt>
      <trkpt lat="42.336635" lon="-3.938586">
        <ele>893.2091411007568</ele>
        <time>2022-05-15T10:15:46Z</time>
      </trkpt>
      <trkpt lat="42.336603" lon="-3.9387">
        <ele>895.4738526130095</ele>
        <time>2022-05-15T10:15:54Z</time>
      </trkpt>
      <trkpt lat="42.336577" lon="-3.938829">
        <ele>898.0409650318325</ele>
        <time>2022-05-15T10:16:02Z</time>
      </trkpt>
      <trkpt lat="42.336526" lon="-3.938934">
        <ele>897.404529530555</ele>
        <time>2022-05-15T10:16:09Z</time>
      </trkpt>
      <trkpt lat="42.336494" lon="-3.939055">
        <ele>897.1237644385546</ele>
        <time>2022-05-15T10:16:17Z</time>
      </trkpt>
      <trkpt lat="42.336455" lon="-3.939172">
        <ele>897.5183452125639</ele>
        <time>2022-05-15T10:16:24Z</time>
      </trkpt>
      <trkpt lat="42.336444" lon="-3.939307">
        <ele>898.1792957345024</ele>
        <time>2022-05-15T10:16:33Z</time>
      </trkpt>
      <trkpt lat="42.336406" lon="-3.939422">
        <ele>897.3919464517385</ele>
        <time>2022-05-15T10:16:39Z</time>
      </trkpt>
      <trkpt lat="42.336374" lon="-3.939537">
        <ele>897.4799478175119</ele>
        <time>2022-05-15T10:16:47Z</time>
      </trkpt>
      <trkpt lat="42.336347" lon="-3.939665">
        <ele>897.2581155095249</ele>
        <time>2022-05-15T10:16:55Z</time>
      </trkpt>
      <trkpt lat="42.336318" lon="-3.93979">
        <ele>897.8153749834746</ele>
        <time>2022-05-15T10:17:02Z</time>
      </trkpt>
      <trkpt lat="42.336284" lon="-3.939913">
        <ele>897.878073098138</ele>
        <time>2022-05-15T10:17:10Z</time>
      </trkpt>
      <trkpt lat="42.336252" lon="-3.940031">
        <ele>899.1864596540108</ele>
        <time>2022-05-15T10:17:17Z</time>
      </trkpt>
      <trkpt lat="42.336239" lon="-3.940156">
        <ele>899.694005696103</ele>
        <time>2022-05-15T10:17:25Z</time>
      </trkpt>
      <trkpt lat="42.336196" lon="-3.940264">
        <ele>900.1098811589181</ele>
        <time>2022-05-15T10:17:33Z</time>
      </trkpt>
      <trkpt lat="42.336167" lon="-3.940387">
        <ele>899.9426861740649</ele>
        <time>2022-05-15T10:17:40Z</time>
      </trkpt>
      <trkpt lat="42.336145" lon="-3.940512">
        <ele>900.2637107064947</ele>
        <time>2022-05-15T10:17:47Z</time>
      </trkpt>
      <trkpt lat="42.336137" lon="-3.94065">
        <ele>900.6983252242208</ele>
        <time>2022-05-15T10:17:56Z</time>
      </trkpt>
      <trkpt lat="42.336101" lon="-3.94077">
        <ele>901.0629815384746</ele>
        <time>2022-05-15T10:18:03Z</time>
      </trkpt>
      <trkpt lat="42.3361" lon="-3.940902">
        <ele>900.9868947155774</ele>
        <time>2022-05-15T10:18:12Z</time>
      </trkpt>
      <trkpt lat="42.336064" lon="-3.941022">
        <ele>899.5864300811663</ele>
        <time>2022-05-15T10:18:19Z</time>
      </trkpt>
      <trkpt lat="42.33604" lon="-3.94114">
        <ele>899.2526757856831</ele>
        <time>2022-05-15T10:18:27Z</time>
      </trkpt>
      <trkpt lat="42.336008" lon="-3.941257">
        <ele>898.7237520292401</ele>
        <time>2022-05-15T10:18:34Z</time>
      </trkpt>
      <trkpt lat="42.335995" lon="-3.94139">
        <ele>898.9632875602692</ele>
        <time>2022-05-15T10:18:43Z</time>
      </trkpt>
      <trkpt lat="42.335974" lon="-3.941523">
        <ele>898.4936364367604</ele>
        <time>2022-05-15T10:18:49Z</time>
      </trkpt>
      <trkpt lat="42.335912" lon="-3.941629">
        <ele>898.6079966081306</ele>
        <time>2022-05-15T10:18:58Z</time>
      </trkpt>
      <trkpt lat="42.335884" lon="-3.941746">
        <ele>900.7336201397702</ele>
        <time>2022-05-15T10:19:07Z</time>
      </trkpt>
      <trkpt lat="42.335846" lon="-3.941875">
        <ele>902.5877644214779</ele>
        <time>2022-05-15T10:19:16Z</time>
      </trkpt>
      <trkpt lat="42.335848" lon="-3.942008">
        <ele>905.6216250276193</ele>
        <time>2022-05-15T10:19:24Z</time>
      </trkpt>
      <trkpt lat="42.335815" lon="-3.942137">
        <ele>907.5337715800852</ele>
        <time>2022-05-15T10:19:31Z</time>
      </trkpt>
      <trkpt lat="42.335796" lon="-3.942268">
        <ele>908.4394598212093</ele>
        <time>2022-05-15T10:19:39Z</time>
      </trkpt>
      <trkpt lat="42.335738" lon="-3.942381">
        <ele>908.200973007828</ele>
        <time>2022-05-15T10:19:48Z</time>
      </trkpt>
      <trkpt lat="42.335728" lon="-3.942507">
        <ele>907.3987820651382</ele>
        <time>2022-05-15T10:19:56Z</time>
      </trkpt>
      <trkpt lat="42.335692" lon="-3.94262">
        <ele>906.8967461902648</ele>
        <time>2022-05-15T10:20:04Z</time>
      </trkpt>
      <trkpt lat="42.335682" lon="-3.942756">
        <ele>907.4203025940806</ele>
        <time>2022-05-15T10:20:12Z</time>
      </trkpt>
      <trkpt lat="42.335661" lon="-3.942879">
        <ele>907.1225338466465</ele>
        <time>2022-05-15T10:20:21Z</time>
      </trkpt>
      <trkpt lat="42.335621" lon="-3.94299">
        <ele>907.2720601679757</ele>
        <time>2022-05-15T10:20:29Z</time>
      </trkpt>
      <trkpt lat="42.335576" lon="-3.943098">
        <ele>907.7594323372468</ele>
        <time>2022-05-15T10:20:36Z</time>
      </trkpt>
      <trkpt lat="42.335529" lon="-3.943212">
        <ele>907.7647943943739</ele>
        <time>2022-05-15T10:20:44Z</time>
      </trkpt>
      <trkpt lat="42.335489" lon="-3.943324">
        <ele>908.0478981630877</ele>
        <time>2022-05-15T10:20:56Z</time>
      </trkpt>
      <trkpt lat="42.335423" lon="-3.943409">
        <ele>909.2684833938256</ele>
        <time>2022-05-15T10:21:04Z</time>
      </trkpt>
      <trkpt lat="42.335369" lon="-3.943517">
        <ele>911.5257382849231</ele>
        <time>2022-05-15T10:21:13Z</time>
      </trkpt>
      <trkpt lat="42.33532" lon="-3.943618">
        <ele>912.7803983623162</ele>
        <time>2022-05-15T10:21:21Z</time>
      </trkpt>
      <trkpt lat="42.335257" lon="-3.943727">
        <ele>913.7621637247503</ele>
        <time>2022-05-15T10:21:28Z</time>
      </trkpt>
      <trkpt lat="42.33521" lon="-3.943838">
        <ele>913.5618793796748</ele>
        <time>2022-05-15T10:21:37Z</time>
      </trkpt>
      <trkpt lat="42.335136" lon="-3.943922">
        <ele>913.941466121003</ele>
        <time>2022-05-15T10:21:44Z</time>
      </trkpt>
      <trkpt lat="42.335064" lon="-3.944024">
        <ele>915.2529054479674</ele>
        <time>2022-05-15T10:21:51Z</time>
      </trkpt>
      <trkpt lat="42.334998" lon="-3.944129">
        <ele>915.2941023483872</ele>
        <time>2022-05-15T10:22:00Z</time>
      </trkpt>
      <trkpt lat="42.334944" lon="-3.944238">
        <ele>914.2436657389626</ele>
        <time>2022-05-15T10:22:07Z</time>
      </trkpt>
      <trkpt lat="42.334881" lon="-3.944342">
        <ele>914.4006112366915</ele>
        <time>2022-05-15T10:22:15Z</time>
      </trkpt>
      <trkpt lat="42.334816" lon="-3.94444">
        <ele>912.8503945115954</ele>
        <time>2022-05-15T10:22:23Z</time>
      </trkpt>
      <trkpt lat="42.334763" lon="-3.944548">
        <ele>913.1210560826585</ele>
        <time>2022-05-15T10:22:32Z</time>
      </trkpt>
      <trkpt lat="42.334692" lon="-3.944631">
        <ele>912.263522811234</ele>
        <time>2022-05-15T10:22:39Z</time>
      </trkpt>
      <trkpt lat="42.334621" lon="-3.944709">
        <ele>911.8416546732187</ele>
        <time>2022-05-15T10:22:46Z</time>
      </trkpt>
      <trkpt lat="42.334549" lon="-3.944807">
        <ele>912.8387829717249</ele>
        <time>2022-05-15T10:22:54Z</time>
      </trkpt>
      <trkpt lat="42.334492" lon="-3.944906">
        <ele>913.0776790492237</ele>
        <time>2022-05-15T10:23:03Z</time>
      </trkpt>
      <trkpt lat="42.334469" lon="-3.945033">
        <ele>912.7278661206365</ele>
        <time>2022-05-15T10:23:09Z</time>
      </trkpt>
      <trkpt lat="42.334432" lon="-3.945146">
        <ele>913.4853128734976</ele>
        <time>2022-05-15T10:23:17Z</time>
      </trkpt>
      <trkpt lat="42.33441" lon="-3.945279">
        <ele>912.5059575159103</ele>
        <time>2022-05-15T10:23:26Z</time>
      </trkpt>
      <trkpt lat="42.334382" lon="-3.945411">
        <ele>913.0839412771165</ele>
        <time>2022-05-15T10:23:34Z</time>
      </trkpt>
      <trkpt lat="42.334326" lon="-3.945515">
        <ele>913.9997764248401</ele>
        <time>2022-05-15T10:23:42Z</time>
      </trkpt>
      <trkpt lat="42.334293" lon="-3.945631">
        <ele>914.8324074884877</ele>
        <time>2022-05-15T10:23:49Z</time>
      </trkpt>
      <trkpt lat="42.334257" lon="-3.945745">
        <ele>915.2271099872887</ele>
        <time>2022-05-15T10:23:58Z</time>
      </trkpt>
      <trkpt lat="42.334215" lon="-3.94586">
        <ele>914.9885793849826</ele>
        <time>2022-05-15T10:24:07Z</time>
      </trkpt>
      <trkpt lat="42.334208" lon="-3.945986">
        <ele>914.919707948342</ele>
        <time>2022-05-15T10:24:14Z</time>
      </trkpt>
      <trkpt lat="42.334198" lon="-3.94612">
        <ele>915.6250016000122</ele>
        <time>2022-05-15T10:24:23Z</time>
      </trkpt>
      <trkpt lat="42.334164" lon="-3.946241">
        <ele>914.9868520209566</ele>
        <time>2022-05-15T10:24:29Z</time>
      </trkpt>
      <trkpt lat="42.334152" lon="-3.946363">
        <ele>915.7496019145474</ele>
        <time>2022-05-15T10:24:38Z</time>
      </trkpt>
      <trkpt lat="42.334103" lon="-3.946479">
        <ele>917.2503164866939</ele>
        <time>2022-05-15T10:24:46Z</time>
      </trkpt>
      <trkpt lat="42.334064" lon="-3.946593">
        <ele>919.0540231000632</ele>
        <time>2022-05-15T10:24:54Z</time>
      </trkpt>
      <trkpt lat="42.33401" lon="-3.946705">
        <ele>919.0170605340973</ele>
        <time>2022-05-15T10:25:03Z</time>
      </trkpt>
      <trkpt lat="42.333969" lon="-3.946825">
        <ele>919.5948238298297</ele>
        <time>2022-05-15T10:25:11Z</time>
      </trkpt>
      <trkpt lat="42.333947" lon="-3.946945">
        <ele>919.9143399801105</ele>
        <time>2022-05-15T10:25:19Z</time>
      </trkpt>
      <trkpt lat="42.333901" lon="-3.947053">
        <ele>920.2609774041921</ele>
        <time>2022-05-15T10:25:27Z</time>
      </trkpt>
      <trkpt lat="42.333877" lon="-3.947179">
        <ele>920.9716700986028</ele>
        <time>2022-05-15T10:25:34Z</time>
      </trkpt>
      <trkpt lat="42.333808" lon="-3.947275">
        <ele>919.8943940028548</ele>
        <time>2022-05-15T10:25:42Z</time>
      </trkpt>
      <trkpt lat="42.33377" lon="-3.947388">
        <ele>919.744496463798</ele>
        <time>2022-05-15T10:25:49Z</time>
      </trkpt>
      <trkpt lat="42.333726" lon="-3.947513">
        <ele>920.2424307595938</ele>
        <time>2022-05-15T10:25:58Z</time>
      </trkpt>
      <trkpt lat="42.333674" lon="-3.947614">
        <ele>920.5872709713876</ele>
        <time>2022-05-15T10:26:04Z</time>
      </trkpt>
      <trkpt lat="42.333645" lon="-3.947742">
        <ele>922.2962327515706</ele>
        <time>2022-05-15T10:26:14Z</time>
      </trkpt>
      <trkpt lat="42.333634" lon="-3.94787">
        <ele>923.4721518550068</ele>
        <time>2022-05-15T10:26:23Z</time>
      </trkpt>
      <trkpt lat="42.333598" lon="-3.947995">
        <ele>921.8134756330401</ele>
        <time>2022-05-15T10:26:32Z</time>
      </trkpt>
      <trkpt lat="42.333543" lon="-3.948096">
        <ele>922.5686958432198</ele>
        <time>2022-05-15T10:26:39Z</time>
      </trkpt>
      <trkpt lat="42.333501" lon="-3.948222">
        <ele>925.1516748936847</ele>
        <time>2022-05-15T10:26:47Z</time>
      </trkpt>
      <trkpt lat="42.333473" lon="-3.94835">
        <ele>927.1366555988789</ele>
        <time>2022-05-15T10:26:54Z</time>
      </trkpt>
      <trkpt lat="42.333416" lon="-3.948462">
        <ele>929.042994806543</ele>
        <time>2022-05-15T10:27:03Z</time>
      </trkpt>
      <trkpt lat="42.333372" lon="-3.94858">
        <ele>929.6267351601273</ele>
        <time>2022-05-15T10:27:11Z</time>
      </trkpt>
      <trkpt lat="42.333322" lon="-3.948682">
        <ele>929.7792084217072</ele>
        <time>2022-05-15T10:27:18Z</time>
      </trkpt>
      <trkpt lat="42.333278" lon="-3.948805">
        <ele>929.4654987649992</ele>
        <time>2022-05-15T10:27:27Z</time>
      </trkpt>
      <trkpt lat="42.333244" lon="-3.948927">
        <ele>930.3381212102249</ele>
        <time>2022-05-15T10:27:36Z</time>
      </trkpt>
      <trkpt lat="42.333183" lon="-3.949028">
        <ele>930.8701352383941</ele>
        <time>2022-05-15T10:27:44Z</time>
      </trkpt>
      <trkpt lat="42.333096" lon="-3.949087">
        <ele>931.1827569520101</ele>
        <time>2022-05-15T10:27:53Z</time>
      </trkpt>
      <trkpt lat="42.333033" lon="-3.949182">
        <ele>929.9830409456044</ele>
        <time>2022-05-15T10:28:03Z</time>
      </trkpt>
      <trkpt lat="42.332964" lon="-3.949264">
        <ele>928.6677138321102</ele>
        <time>2022-05-15T10:28:19Z</time>
      </trkpt>
      <trkpt lat="42.3329" lon="-3.949358">
        <ele>929.2034593420103</ele>
        <time>2022-05-15T10:28:26Z</time>
      </trkpt>
      <trkpt lat="42.332872" lon="-3.949478">
        <ele>928.9801032198593</ele>
        <time>2022-05-15T10:28:34Z</time>
      </trkpt>
      <trkpt lat="42.332844" lon="-3.949599">
        <ele>930.2233546189964</ele>
        <time>2022-05-15T10:28:41Z</time>
      </trkpt>
      <trkpt lat="42.332787" lon="-3.949706">
        <ele>929.9071744997054</ele>
        <time>2022-05-15T10:28:49Z</time>
      </trkpt>
      <trkpt lat="42.332735" lon="-3.949813">
        <ele>929.4726694785058</ele>
        <time>2022-05-15T10:28:57Z</time>
      </trkpt>
      <trkpt lat="42.332669" lon="-3.949912">
        <ele>928.4396325284615</ele>
        <time>2022-05-15T10:29:06Z</time>
      </trkpt>
      <trkpt lat="42.332623" lon="-3.950031">
        <ele>927.6051532877609</ele>
        <time>2022-05-15T10:29:16Z</time>
      </trkpt>
      <trkpt lat="42.332561" lon="-3.950132">
        <ele>927.2350191082805</ele>
        <time>2022-05-15T10:29:24Z</time>
      </trkpt>
      <trkpt lat="42.332525" lon="-3.950248">
        <ele>927.2461612839252</ele>
        <time>2022-05-15T10:29:33Z</time>
      </trkpt>
      <trkpt lat="42.332501" lon="-3.950379">
        <ele>925.5150752756745</ele>
        <time>2022-05-15T10:29:42Z</time>
      </trkpt>
      <trkpt lat="42.332508" lon="-3.95051">
        <ele>924.8608233453706</ele>
        <time>2022-05-15T10:29:51Z</time>
      </trkpt>
      <trkpt lat="42.332505" lon="-3.950637">
        <ele>923.5634058574215</ele>
        <time>2022-05-15T10:30:01Z</time>
      </trkpt>
      <trkpt lat="42.332537" lon="-3.950755">
        <ele>923.4867610130459</ele>
        <time>2022-05-15T10:30:08Z</time>
      </trkpt>
      <trkpt lat="42.332497" lon="-3.950869">
        <ele>924.0033081481233</ele>
        <time>2022-05-15T10:30:15Z</time>
      </trkpt>
      <trkpt lat="42.332446" lon="-3.950981">
        <ele>924.4780919020995</ele>
        <time>2022-05-15T10:30:24Z</time>
      </trkpt>
      <trkpt lat="42.33238" lon="-3.951074">
        <ele>924.177930727601</ele>
        <time>2022-05-15T10:30:33Z</time>
      </trkpt>
      <trkpt lat="42.332309" lon="-3.951162">
        <ele>925.2634344939142</ele>
        <time>2022-05-15T10:30:43Z</time>
      </trkpt>
      <trkpt lat="42.33223" lon="-3.951242">
        <ele>926.4336075363681</ele>
        <time>2022-05-15T10:30:52Z</time>
      </trkpt>
      <trkpt lat="42.332152" lon="-3.951328">
        <ele>926.4061009837314</ele>
        <time>2022-05-15T10:31:01Z</time>
      </trkpt>
      <trkpt lat="42.332076" lon="-3.951396">
        <ele>926.9459727657959</ele>
        <time>2022-05-15T10:31:09Z</time>
      </trkpt>
      <trkpt lat="42.33201" lon="-3.951486">
        <ele>926.8950009141117</ele>
        <time>2022-05-15T10:31:19Z</time>
      </trkpt>
      <trkpt lat="42.331949" lon="-3.951575">
        <ele>926.9170666700229</ele>
        <time>2022-05-15T10:31:28Z</time>
      </trkpt>
      <trkpt lat="42.331881" lon="-3.951668">
        <ele>928.2252417327836</ele>
        <time>2022-05-15T10:31:37Z</time>
      </trkpt>
      <trkpt lat="42.331832" lon="-3.951779">
        <ele>927.6484528491274</ele>
        <time>2022-05-15T10:31:47Z</time>
      </trkpt>
      <trkpt lat="42.331778" lon="-3.951876">
        <ele>927.9577934360132</ele>
        <time>2022-05-15T10:31:54Z</time>
      </trkpt>
      <trkpt lat="42.331725" lon="-3.951975">
        <ele>927.0991299375892</ele>
        <time>2022-05-15T10:32:03Z</time>
      </trkpt>
      <trkpt lat="42.33166" lon="-3.952069">
        <ele>927.3887430429459</ele>
        <time>2022-05-15T10:32:09Z</time>
      </trkpt>
      <trkpt lat="42.331595" lon="-3.95217">
        <ele>929.1233945861459</ele>
        <time>2022-05-15T10:32:18Z</time>
      </trkpt>
      <trkpt lat="42.331533" lon="-3.952274">
        <ele>930.548207952641</ele>
        <time>2022-05-15T10:32:27Z</time>
      </trkpt>
      <trkpt lat="42.331462" lon="-3.952351">
        <ele>931.5190071193501</ele>
        <time>2022-05-15T10:32:34Z</time>
      </trkpt>
      <trkpt lat="42.331411" lon="-3.952454">
        <ele>932.4402190363035</ele>
        <time>2022-05-15T10:32:43Z</time>
      </trkpt>
      <trkpt lat="42.331365" lon="-3.952561">
        <ele>933.5134168500081</ele>
        <time>2022-05-15T10:32:51Z</time>
      </trkpt>
      <trkpt lat="42.331331" lon="-3.952683">
        <ele>934.2606354197487</ele>
        <time>2022-05-15T10:32:59Z</time>
      </trkpt>
      <trkpt lat="42.331275" lon="-3.952788">
        <ele>934.4618158517405</ele>
        <time>2022-05-15T10:33:08Z</time>
      </trkpt>
      <trkpt lat="42.331202" lon="-3.952882">
        <ele>934.6511224927381</ele>
        <time>2022-05-15T10:33:17Z</time>
      </trkpt>
      <trkpt lat="42.331134" lon="-3.952989">
        <ele>934.6852333815768</ele>
        <time>2022-05-15T10:33:24Z</time>
      </trkpt>
      <trkpt lat="42.331077" lon="-3.953092">
        <ele>935.4713079286739</ele>
        <time>2022-05-15T10:33:34Z</time>
      </trkpt>
      <trkpt lat="42.330997" lon="-3.953173">
        <ele>936.1535043567419</ele>
        <time>2022-05-15T10:33:41Z</time>
      </trkpt>
      <trkpt lat="42.330929" lon="-3.953266">
        <ele>937.9007200682536</ele>
        <time>2022-05-15T10:33:49Z</time>
      </trkpt>
      <trkpt lat="42.33087" lon="-3.953358">
        <ele>939.5026459638029</ele>
        <time>2022-05-15T10:33:56Z</time>
      </trkpt>
      <trkpt lat="42.330802" lon="-3.953444">
        <ele>940.4748916719109</ele>
        <time>2022-05-15T10:34:03Z</time>
      </trkpt>
      <trkpt lat="42.330747" lon="-3.953545">
        <ele>941.5201215166599</ele>
        <time>2022-05-15T10:34:09Z</time>
      </trkpt>
      <trkpt lat="42.330693" lon="-3.953644">
        <ele>942.8126047663391</ele>
        <time>2022-05-15T10:34:17Z</time>
      </trkpt>
      <trkpt lat="42.330627" lon="-3.953743">
        <ele>944.2028920166194</ele>
        <time>2022-05-15T10:34:24Z</time>
      </trkpt>
      <trkpt lat="42.330556" lon="-3.953835">
        <ele>945.0718697542325</ele>
        <time>2022-05-15T10:34:33Z</time>
      </trkpt>
      <trkpt lat="42.330492" lon="-3.953925">
        <ele>946.6073803128675</ele>
        <time>2022-05-15T10:34:42Z</time>
      </trkpt>
      <trkpt lat="42.330427" lon="-3.954012">
        <ele>946.7178146522492</ele>
        <time>2022-05-15T10:34:48Z</time>
      </trkpt>
      <trkpt lat="42.330354" lon="-3.954095">
        <ele>946.623579710722</ele>
        <time>2022-05-15T10:34:59Z</time>
      </trkpt>
      <trkpt lat="42.330278" lon="-3.954176">
        <ele>944.8818473424762</ele>
        <time>2022-05-15T10:35:06Z</time>
      </trkpt>
      <trkpt lat="42.330214" lon="-3.954268">
        <ele>943.119422099553</ele>
        <time>2022-05-15T10:35:14Z</time>
      </trkpt>
      <trkpt lat="42.330163" lon="-3.954388">
        <ele>942.3492454783991</ele>
        <time>2022-05-15T10:35:23Z</time>
      </trkpt>
      <trkpt lat="42.330094" lon="-3.9545">
        <ele>941.1897749174386</ele>
        <time>2022-05-15T10:35:33Z</time>
      </trkpt>
      <trkpt lat="42.330045" lon="-3.954617">
        <ele>940.5096417563036</ele>
        <time>2022-05-15T10:35:42Z</time>
      </trkpt>
      <trkpt lat="42.330006" lon="-3.954729">
        <ele>939.8256255872548</ele>
        <time>2022-05-15T10:35:51Z</time>
      </trkpt>
      <trkpt lat="42.329967" lon="-3.954851">
        <ele>938.5030265441164</ele>
        <time>2022-05-15T10:35:59Z</time>
      </trkpt>
      <trkpt lat="42.329906" lon="-3.954942">
        <ele>937.4408729765564</ele>
        <time>2022-05-15T10:36:06Z</time>
      </trkpt>
      <trkpt lat="42.329851" lon="-3.955045">
        <ele>937.8001377191395</ele>
        <time>2022-05-15T10:36:14Z</time>
      </trkpt>
      <trkpt lat="42.329796" lon="-3.955143">
        <ele>937.9056081837043</ele>
        <time>2022-05-15T10:36:24Z</time>
      </trkpt>
      <trkpt lat="42.329747" lon="-3.95526">
        <ele>938.6302260318771</ele>
        <time>2022-05-15T10:36:33Z</time>
      </trkpt>
      <trkpt lat="42.329678" lon="-3.955356">
        <ele>938.1903407629579</ele>
        <time>2022-05-15T10:36:41Z</time>
      </trkpt>
      <trkpt lat="42.329623" lon="-3.95546">
        <ele>939.0581796951592</ele>
        <time>2022-05-15T10:36:49Z</time>
      </trkpt>
      <trkpt lat="42.329554" lon="-3.955563">
        <ele>939.1917302235961</ele>
        <time>2022-05-15T10:36:58Z</time>
      </trkpt>
      <trkpt lat="42.329481" lon="-3.955651">
        <ele>938.7628079457209</ele>
        <time>2022-05-15T10:37:04Z</time>
      </trkpt>
      <trkpt lat="42.32941" lon="-3.955744">
        <ele>938.2260944703594</ele>
        <time>2022-05-15T10:37:12Z</time>
      </trkpt>
      <trkpt lat="42.329344" lon="-3.955848">
        <ele>937.8099693190306</ele>
        <time>2022-05-15T10:37:19Z</time>
      </trkpt>
      <trkpt lat="42.329269" lon="-3.955943">
        <ele>937.4990342110395</ele>
        <time>2022-05-15T10:37:33Z</time>
      </trkpt>
      <trkpt lat="42.329214" lon="-3.956043">
        <ele>939.680605288595</ele>
        <time>2022-05-15T10:37:39Z</time>
      </trkpt>
      <trkpt lat="42.329154" lon="-3.956147">
        <ele>940.7317753853276</ele>
        <time>2022-05-15T10:37:48Z</time>
      </trkpt>
      <trkpt lat="42.329108" lon="-3.956257">
        <ele>942.0277122557163</ele>
        <time>2022-05-15T10:37:57Z</time>
      </trkpt>
      <trkpt lat="42.329062" lon="-3.956365">
        <ele>941.9067940078676</ele>
        <time>2022-05-15T10:38:04Z</time>
      </trkpt>
      <trkpt lat="42.329024" lon="-3.956487">
        <ele>943.0395949846134</ele>
        <time>2022-05-15T10:38:14Z</time>
      </trkpt>
      <trkpt lat="42.328975" lon="-3.956596">
        <ele>943.4862607996911</ele>
        <time>2022-05-15T10:38:21Z</time>
      </trkpt>
      <trkpt lat="42.328927" lon="-3.956716">
        <ele>944.5393096925691</ele>
        <time>2022-05-15T10:38:29Z</time>
      </trkpt>
      <trkpt lat="42.328877" lon="-3.956822">
        <ele>945.5322754206136</ele>
        <time>2022-05-15T10:38:37Z</time>
      </trkpt>
      <trkpt lat="42.328836" lon="-3.956939">
        <ele>944.9801371060312</ele>
        <time>2022-05-15T10:38:44Z</time>
      </trkpt>
      <trkpt lat="42.32879" lon="-3.957051">
        <ele>945.8779260329902</ele>
        <time>2022-05-15T10:38:52Z</time>
      </trkpt>
      <trkpt lat="42.328739" lon="-3.957163">
        <ele>948.2904158364981</ele>
        <time>2022-05-15T10:39:01Z</time>
      </trkpt>
      <trkpt lat="42.328705" lon="-3.957286">
        <ele>949.0277900211513</ele>
        <time>2022-05-15T10:39:08Z</time>
      </trkpt>
      <trkpt lat="42.328669" lon="-3.957417">
        <ele>950.6861137505621</ele>
        <time>2022-05-15T10:39:14Z</time>
      </trkpt>
      <trkpt lat="42.328638" lon="-3.957547">
        <ele>951.7231786204502</ele>
        <time>2022-05-15T10:39:24Z</time>
      </trkpt>
      <trkpt lat="42.328633" lon="-3.957678">
        <ele>952.4191375728697</ele>
        <time>2022-05-15T10:39:32Z</time>
      </trkpt>
      <trkpt lat="42.328597" lon="-3.957804">
        <ele>954.0172700881958</ele>
        <time>2022-05-15T10:39:41Z</time>
      </trkpt>
      <trkpt lat="42.328571" lon="-3.957926">
        <ele>955.148129535839</ele>
        <time>2022-05-15T10:39:48Z</time>
      </trkpt>
      <trkpt lat="42.328543" lon="-3.958055">
        <ele>956.4228377221152</ele>
        <time>2022-05-15T10:39:57Z</time>
      </trkpt>
      <trkpt lat="42.328509" lon="-3.95818">
        <ele>957.3443822972476</ele>
        <time>2022-05-15T10:40:06Z</time>
      </trkpt>
      <trkpt lat="42.328482" lon="-3.958305">
        <ele>956.8177546150982</ele>
        <time>2022-05-15T10:40:14Z</time>
      </trkpt>
      <trkpt lat="42.328451" lon="-3.958426">
        <ele>958.723813701421</ele>
        <time>2022-05-15T10:40:23Z</time>
      </trkpt>
      <trkpt lat="42.328428" lon="-3.958555">
        <ele>959.1544205835089</ele>
        <time>2022-05-15T10:40:38Z</time>
      </trkpt>
      <trkpt lat="42.328398" lon="-3.958681">
        <ele>959.8626512633637</ele>
        <time>2022-05-15T10:40:47Z</time>
      </trkpt>
      <trkpt lat="42.328386" lon="-3.958806">
        <ele>960.1457307944074</ele>
        <time>2022-05-15T10:40:59Z</time>
      </trkpt>
      <trkpt lat="42.328382" lon="-3.958939">
        <ele>960.5583359999582</ele>
        <time>2022-05-15T10:41:08Z</time>
      </trkpt>
      <trkpt lat="42.328366" lon="-3.959069">
        <ele>961.3113295352086</ele>
        <time>2022-05-15T10:41:21Z</time>
      </trkpt>
      <trkpt lat="42.328368" lon="-3.959194">
        <ele>961.3931634370238</ele>
        <time>2022-05-15T10:41:32Z</time>
      </trkpt>
      <trkpt lat="42.328346" lon="-3.95932">
        <ele>961.8437509657815</ele>
        <time>2022-05-15T10:41:41Z</time>
      </trkpt>
      <trkpt lat="42.328327" lon="-3.959452">
        <ele>962.0412906892598</ele>
        <time>2022-05-15T10:41:49Z</time>
      </trkpt>
      <trkpt lat="42.328307" lon="-3.959571">
        <ele>962.2628304352984</ele>
        <time>2022-05-15T10:41:59Z</time>
      </trkpt>
      <trkpt lat="42.328315" lon="-3.959703">
        <ele>962.3227452896535</ele>
        <time>2022-05-15T10:42:08Z</time>
      </trkpt>
      <trkpt lat="42.328338" lon="-3.959822">
        <ele>963.5798114323989</ele>
        <time>2022-05-15T10:42:17Z</time>
      </trkpt>
      <trkpt lat="42.328357" lon="-3.959944">
        <ele>965.8523282008246</ele>
        <time>2022-05-15T10:42:24Z</time>
      </trkpt>
      <trkpt lat="42.328379" lon="-3.960072">
        <ele>967.4646763531491</ele>
        <time>2022-05-15T10:42:32Z</time>
      </trkpt>
      <trkpt lat="42.328388" lon="-3.960197">
        <ele>967.7307795314118</ele>
        <time>2022-05-15T10:42:39Z</time>
      </trkpt>
      <trkpt lat="42.328393" lon="-3.960332">
        <ele>968.8898217212409</ele>
        <time>2022-05-15T10:42:47Z</time>
      </trkpt>
      <trkpt lat="42.328413" lon="-3.960468">
        <ele>970.1577305356041</ele>
        <time>2022-05-15T10:42:56Z</time>
      </trkpt>
      <trkpt lat="42.328429" lon="-3.960597">
        <ele>971.4578040279448</ele>
        <time>2022-05-15T10:43:03Z</time>
      </trkpt>
      <trkpt lat="42.328456" lon="-3.960721">
        <ele>971.2355106845498</ele>
        <time>2022-05-15T10:43:11Z</time>
      </trkpt>
      <trkpt lat="42.328475" lon="-3.96084">
        <ele>972.7183419577777</ele>
        <time>2022-05-15T10:43:19Z</time>
      </trkpt>
      <trkpt lat="42.32848" lon="-3.960977">
        <ele>974.0836539221928</ele>
        <time>2022-05-15T10:43:28Z</time>
      </trkpt>
      <trkpt lat="42.328505" lon="-3.961111">
        <ele>975.4137845151126</ele>
        <time>2022-05-15T10:43:37Z</time>
      </trkpt>
      <trkpt lat="42.328495" lon="-3.961242">
        <ele>975.2679619686678</ele>
        <time>2022-05-15T10:43:44Z</time>
      </trkpt>
      <trkpt lat="42.328527" lon="-3.961363">
        <ele>974.8073525587097</ele>
        <time>2022-05-15T10:43:53Z</time>
      </trkpt>
      <trkpt lat="42.328558" lon="-3.961487">
        <ele>974.3298233533278</ele>
        <time>2022-05-15T10:44:01Z</time>
      </trkpt>
      <trkpt lat="42.328572" lon="-3.961611">
        <ele>977.1273329695687</ele>
        <time>2022-05-15T10:44:09Z</time>
      </trkpt>
      <trkpt lat="42.328568" lon="-3.961742">
        <ele>977.6934597808868</ele>
        <time>2022-05-15T10:44:18Z</time>
      </trkpt>
      <trkpt lat="42.328583" lon="-3.961864">
        <ele>977.030677373521</ele>
        <time>2022-05-15T10:44:26Z</time>
      </trkpt>
      <trkpt lat="42.328609" lon="-3.961984">
        <ele>975.9425632338971</ele>
        <time>2022-05-15T10:44:34Z</time>
      </trkpt>
      <trkpt lat="42.328631" lon="-3.962116">
        <ele>977.0694042192772</ele>
        <time>2022-05-15T10:44:44Z</time>
      </trkpt>
      <trkpt lat="42.328642" lon="-3.962251">
        <ele>979.4085292899981</ele>
        <time>2022-05-15T10:44:54Z</time>
      </trkpt>
      <trkpt lat="42.328634" lon="-3.962376">
        <ele>979.8606704669073</ele>
        <time>2022-05-15T10:45:04Z</time>
      </trkpt>
      <trkpt lat="42.32864" lon="-3.962511">
        <ele>979.7931949431077</ele>
        <time>2022-05-15T10:45:13Z</time>
      </trkpt>
      <trkpt lat="42.32866" lon="-3.962634">
        <ele>980.478244246915</ele>
        <time>2022-05-15T10:45:21Z</time>
      </trkpt>
      <trkpt lat="42.32866" lon="-3.96277">
        <ele>980.1218992546201</ele>
        <time>2022-05-15T10:45:29Z</time>
      </trkpt>
      <trkpt lat="42.328648" lon="-3.962897">
        <ele>980.1334987981245</ele>
        <time>2022-05-15T10:45:38Z</time>
      </trkpt>
      <trkpt lat="42.328644" lon="-3.963023">
        <ele>981.4043268794194</ele>
        <time>2022-05-15T10:45:48Z</time>
      </trkpt>
      <trkpt lat="42.328651" lon="-3.96315">
        <ele>982.0972583154216</ele>
        <time>2022-05-15T10:45:58Z</time>
      </trkpt>
      <trkpt lat="42.328666" lon="-3.963283">
        <ele>983.6495467815548</ele>
        <time>2022-05-15T10:47:24Z</time>
      </trkpt>
      <trkpt lat="42.328687" lon="-3.963404">
        <ele>987.1528122443706</ele>
        <time>2022-05-15T10:47:34Z</time>
      </trkpt>
      <trkpt lat="42.328709" lon="-3.963523">
        <ele>990.033183532767</ele>
        <time>2022-05-15T10:47:43Z</time>
      </trkpt>
      <trkpt lat="42.328723" lon="-3.963643">
        <ele>991.9796870378777</ele>
        <time>2022-05-15T10:47:52Z</time>
      </trkpt>
      <trkpt lat="42.328772" lon="-3.963749">
        <ele>992.915270684287</ele>
        <time>2022-05-15T10:47:59Z</time>
      </trkpt>
      <trkpt lat="42.328773" lon="-3.963876">
        <ele>994.3626767499372</ele>
        <time>2022-05-15T10:48:09Z</time>
      </trkpt>
      <trkpt lat="42.328746" lon="-3.964004">
        <ele>995.2767988154665</ele>
        <time>2022-05-15T10:48:34Z</time>
      </trkpt>
      <trkpt lat="42.328736" lon="-3.964124">
        <ele>995.65709631145</ele>
        <time>2022-05-15T10:48:43Z</time>
      </trkpt>
      <trkpt lat="42.328727" lon="-3.964257">
        <ele>995.747385116294</ele>
        <time>2022-05-15T10:48:52Z</time>
      </trkpt>
      <trkpt lat="42.328705" lon="-3.964388">
        <ele>995.9816887397319</ele>
        <time>2022-05-15T10:48:59Z</time>
      </trkpt>
      <trkpt lat="42.328702" lon="-3.964512">
        <ele>994.7949765883386</ele>
        <time>2022-05-15T10:49:08Z</time>
      </trkpt>
      <trkpt lat="42.328678" lon="-3.964633">
        <ele>994.8711602082476</ele>
        <time>2022-05-15T10:49:16Z</time>
      </trkpt>
      <trkpt lat="42.328669" lon="-3.964756">
        <ele>994.2533881422132</ele>
        <time>2022-05-15T10:49:46Z</time>
      </trkpt>
      <trkpt lat="42.328657" lon="-3.964879">
        <ele>993.6078446386382</ele>
        <time>2022-05-15T10:49:54Z</time>
      </trkpt>
      <trkpt lat="42.328645" lon="-3.965011">
        <ele>994.5918488977477</ele>
        <time>2022-05-15T10:50:03Z</time>
      </trkpt>
      <trkpt lat="42.328651" lon="-3.965133">
        <ele>994.6866103066131</ele>
        <time>2022-05-15T10:50:10Z</time>
      </trkpt>
      <trkpt lat="42.328637" lon="-3.96526">
        <ele>996.3824505330995</ele>
        <time>2022-05-15T10:50:19Z</time>
      </trkpt>
      <trkpt lat="42.32863" lon="-3.96539">
        <ele>996.714156226255</ele>
        <time>2022-05-15T10:50:28Z</time>
      </trkpt>
      <trkpt lat="42.328637" lon="-3.965516">
        <ele>997.7024642927572</ele>
        <time>2022-05-15T10:50:36Z</time>
      </trkpt>
      <trkpt lat="42.328634" lon="-3.965654">
        <ele>996.7807186227292</ele>
        <time>2022-05-15T10:50:44Z</time>
      </trkpt>
      <trkpt lat="42.328612" lon="-3.965775">
        <ele>995.2952885264531</ele>
        <time>2022-05-15T10:50:52Z</time>
      </trkpt>
      <trkpt lat="42.328588" lon="-3.965901">
        <ele>995.3724602200091</ele>
        <time>2022-05-15T10:50:59Z</time>
      </trkpt>
      <trkpt lat="42.328558" lon="-3.96602">
        <ele>996.99984510988</ele>
        <time>2022-05-15T10:51:07Z</time>
      </trkpt>
      <trkpt lat="42.328553" lon="-3.966145">
        <ele>997.0216759638861</ele>
        <time>2022-05-15T10:51:14Z</time>
      </trkpt>
      <trkpt lat="42.328532" lon="-3.966263">
        <ele>996.9888138016686</ele>
        <time>2022-05-15T10:51:22Z</time>
      </trkpt>
      <trkpt lat="42.328522" lon="-3.966391">
        <ele>997.326977209188</ele>
        <time>2022-05-15T10:51:31Z</time>
      </trkpt>
      <trkpt lat="42.328488" lon="-3.966513">
        <ele>997.9117886917666</ele>
        <time>2022-05-15T10:51:39Z</time>
      </trkpt>
      <trkpt lat="42.328456" lon="-3.966634">
        <ele>999.9241816839203</ele>
        <time>2022-05-15T10:51:47Z</time>
      </trkpt>
      <trkpt lat="42.328438" lon="-3.966759">
        <ele>998.4259238662198</ele>
        <time>2022-05-15T10:51:54Z</time>
      </trkpt>
      <trkpt lat="42.328399" lon="-3.966878">
        <ele>998.0475247874856</ele>
        <time>2022-05-15T10:52:02Z</time>
      </trkpt>
      <trkpt lat="42.328358" lon="-3.966996">
        <ele>999.8846945241094</ele>
        <time>2022-05-15T10:52:09Z</time>
      </trkpt>
      <trkpt lat="42.328355" lon="-3.967119">
        <ele>998.4773416407406</ele>
        <time>2022-05-15T10:52:18Z</time>
      </trkpt>
      <trkpt lat="42.328322" lon="-3.967237">
        <ele>998.93846288044</ele>
        <time>2022-05-15T10:52:24Z</time>
      </trkpt>
      <trkpt lat="42.328287" lon="-3.967353">
        <ele>999.0759804109111</ele>
        <time>2022-05-15T10:52:34Z</time>
      </trkpt>
      <trkpt lat="42.32826" lon="-3.967472">
        <ele>999.9259564746171</ele>
        <time>2022-05-15T10:52:43Z</time>
      </trkpt>
      <trkpt lat="42.328233" lon="-3.967589">
        <ele>1001.0713885044679</ele>
        <time>2022-05-15T10:52:51Z</time>
      </trkpt>
      <trkpt lat="42.328212" lon="-3.96771">
        <ele>1000.6009077969939</ele>
        <time>2022-05-15T10:52:59Z</time>
      </trkpt>
      <trkpt lat="42.328189" lon="-3.967842">
        <ele>1001.7865274194628</ele>
        <time>2022-05-15T10:53:07Z</time>
      </trkpt>
      <trkpt lat="42.328179" lon="-3.967965">
        <ele>1001.3697105916217</ele>
        <time>2022-05-15T10:53:14Z</time>
      </trkpt>
      <trkpt lat="42.328152" lon="-3.96809">
        <ele>1000.9190110433847</ele>
        <time>2022-05-15T10:53:22Z</time>
      </trkpt>
      <trkpt lat="42.328119" lon="-3.968217">
        <ele>1000.8401746731251</ele>
        <time>2022-05-15T10:53:29Z</time>
      </trkpt>
      <trkpt lat="42.328106" lon="-3.968341">
        <ele>999.6782830068842</ele>
        <time>2022-05-15T10:53:38Z</time>
      </trkpt>
      <trkpt lat="42.3281" lon="-3.968477">
        <ele>998.3561500050128</ele>
        <time>2022-05-15T10:53:46Z</time>
      </trkpt>
      <trkpt lat="42.328078" lon="-3.968608">
        <ele>997.1717872545123</ele>
        <time>2022-05-15T10:53:53Z</time>
      </trkpt>
      <trkpt lat="42.328068" lon="-3.968732">
        <ele>995.9644159385934</ele>
        <time>2022-05-15T10:53:59Z</time>
      </trkpt>
      <trkpt lat="42.328045" lon="-3.968859">
        <ele>995.1999013470486</ele>
        <time>2022-05-15T10:54:08Z</time>
      </trkpt>
      <trkpt lat="42.328025" lon="-3.968986">
        <ele>994.9815535070375</ele>
        <time>2022-05-15T10:54:14Z</time>
      </trkpt>
      <trkpt lat="42.328005" lon="-3.969107">
        <ele>995.3772769570351</ele>
        <time>2022-05-15T10:54:22Z</time>
      </trkpt>
      <trkpt lat="42.327994" lon="-3.969238">
        <ele>994.6405946500599</ele>
        <time>2022-05-15T10:54:29Z</time>
      </trkpt>
      <trkpt lat="42.327979" lon="-3.969368">
        <ele>993.601186315529</ele>
        <time>2022-05-15T10:54:38Z</time>
      </trkpt>
      <trkpt lat="42.327973" lon="-3.969501">
        <ele>992.1499936310574</ele>
        <time>2022-05-15T10:54:46Z</time>
      </trkpt>
      <trkpt lat="42.327958" lon="-3.969626">
        <ele>991.6031092843041</ele>
        <time>2022-05-15T10:54:53Z</time>
      </trkpt>
      <trkpt lat="42.327949" lon="-3.969748">
        <ele>990.7063530702144</ele>
        <time>2022-05-15T10:55:01Z</time>
      </trkpt>
      <trkpt lat="42.327944" lon="-3.969874">
        <ele>991.8145268540829</ele>
        <time>2022-05-15T10:55:09Z</time>
      </trkpt>
      <trkpt lat="42.327922" lon="-3.969997">
        <ele>992.228260894306</ele>
        <time>2022-05-15T10:55:16Z</time>
      </trkpt>
      <trkpt lat="42.327891" lon="-3.970134">
        <ele>993.2212678585202</ele>
        <time>2022-05-15T10:55:24Z</time>
      </trkpt>
      <trkpt lat="42.32786" lon="-3.970248">
        <ele>994.1868550004438</ele>
        <time>2022-05-15T10:55:32Z</time>
      </trkpt>
      <trkpt lat="42.327844" lon="-3.970368">
        <ele>994.7326301243156</ele>
        <time>2022-05-15T10:55:38Z</time>
      </trkpt>
      <trkpt lat="42.327804" lon="-3.970489">
        <ele>995.2287547914311</ele>
        <time>2022-05-15T10:55:45Z</time>
      </trkpt>
      <trkpt lat="42.327767" lon="-3.970603">
        <ele>995.5660354681313</ele>
        <time>2022-05-15T10:55:51Z</time>
      </trkpt>
      <trkpt lat="42.327734" lon="-3.970737">
        <ele>995.6532938973978</ele>
        <time>2022-05-15T10:55:57Z</time>
      </trkpt>
      <trkpt lat="42.327719" lon="-3.970857">
        <ele>995.8281046068296</ele>
        <time>2022-05-15T10:56:03Z</time>
      </trkpt>
      <trkpt lat="42.327694" lon="-3.97098">
        <ele>996.0401307111606</ele>
        <time>2022-05-15T10:56:08Z</time>
      </trkpt>
      <trkpt lat="42.327669" lon="-3.971105">
        <ele>996.5763852717355</ele>
        <time>2022-05-15T10:56:15Z</time>
      </trkpt>
      <trkpt lat="42.327651" lon="-3.97124">
        <ele>996.7751741129905</ele>
        <time>2022-05-15T10:56:22Z</time>
      </trkpt>
      <trkpt lat="42.327621" lon="-3.97136">
        <ele>995.6445764014497</ele>
        <time>2022-05-15T10:56:28Z</time>
      </trkpt>
      <trkpt lat="42.327609" lon="-3.971481">
        <ele>994.6845505163074</ele>
        <time>2022-05-15T10:56:34Z</time>
      </trkpt>
      <trkpt lat="42.327592" lon="-3.971611">
        <ele>995.2567214816809</ele>
        <time>2022-05-15T10:56:39Z</time>
      </trkpt>
      <trkpt lat="42.327574" lon="-3.971749">
        <ele>996.4782114727423</ele>
        <time>2022-05-15T10:56:46Z</time>
      </trkpt>
      <trkpt lat="42.327579" lon="-3.971874">
        <ele>996.0817578630522</ele>
        <time>2022-05-15T10:56:52Z</time>
      </trkpt>
      <trkpt lat="42.32756" lon="-3.971997">
        <ele>996.1389496726915</ele>
        <time>2022-05-15T10:56:58Z</time>
      </trkpt>
      <trkpt lat="42.327545" lon="-3.972125">
        <ele>995.5848429556936</ele>
        <time>2022-05-15T10:57:04Z</time>
      </trkpt>
      <trkpt lat="42.327543" lon="-3.972251">
        <ele>995.312100562267</ele>
        <time>2022-05-15T10:57:09Z</time>
      </trkpt>
      <trkpt lat="42.327543" lon="-3.972383">
        <ele>994.0254396563396</ele>
        <time>2022-05-15T10:57:17Z</time>
      </trkpt>
      <trkpt lat="42.327544" lon="-3.972526">
        <ele>993.8315133312717</ele>
        <time>2022-05-15T10:57:24Z</time>
      </trkpt>
      <trkpt lat="42.327534" lon="-3.972654">
        <ele>994.0073385667056</ele>
        <time>2022-05-15T10:57:31Z</time>
      </trkpt>
      <trkpt lat="42.327533" lon="-3.972776">
        <ele>994.2858888721094</ele>
        <time>2022-05-15T10:57:46Z</time>
      </trkpt>
      <trkpt lat="42.327544" lon="-3.972898">
        <ele>995.2467233007774</ele>
        <time>2022-05-15T10:57:54Z</time>
      </trkpt>
      <trkpt lat="42.327543" lon="-3.973032">
        <ele>995.0908955745399</ele>
        <time>2022-05-15T10:58:03Z</time>
      </trkpt>
      <trkpt lat="42.327518" lon="-3.973167">
        <ele>995.9930351581424</ele>
        <time>2022-05-15T10:58:11Z</time>
      </trkpt>
      <trkpt lat="42.327529" lon="-3.9733">
        <ele>994.5380574697629</ele>
        <time>2022-05-15T10:58:19Z</time>
      </trkpt>
      <trkpt lat="42.327545" lon="-3.973429">
        <ele>993.731201402843</ele>
        <time>2022-05-15T10:58:31Z</time>
      </trkpt>
      <trkpt lat="42.327538" lon="-3.973557">
        <ele>992.6562582869083</ele>
        <time>2022-05-15T10:58:39Z</time>
      </trkpt>
      <trkpt lat="42.327532" lon="-3.973683">
        <ele>993.8427386395633</ele>
        <time>2022-05-15T10:58:47Z</time>
      </trkpt>
      <trkpt lat="42.327533" lon="-3.973808">
        <ele>994.1611480508</ele>
        <time>2022-05-15T10:58:54Z</time>
      </trkpt>
      <trkpt lat="42.327534" lon="-3.973942">
        <ele>993.7807051120326</ele>
        <time>2022-05-15T10:59:03Z</time>
      </trkpt>
      <trkpt lat="42.327528" lon="-3.974073">
        <ele>993.4116210900247</ele>
        <time>2022-05-15T10:59:12Z</time>
      </trkpt>
      <trkpt lat="42.32754" lon="-3.974201">
        <ele>994.4728969633579</ele>
        <time>2022-05-15T10:59:21Z</time>
      </trkpt>
      <trkpt lat="42.327553" lon="-3.974335">
        <ele>994.6475722882897</ele>
        <time>2022-05-15T10:59:29Z</time>
      </trkpt>
      <trkpt lat="42.327557" lon="-3.974457">
        <ele>996.1524006864056</ele>
        <time>2022-05-15T10:59:36Z</time>
      </trkpt>
      <trkpt lat="42.327575" lon="-3.974577">
        <ele>997.1673972895369</ele>
        <time>2022-05-15T10:59:43Z</time>
      </trkpt>
      <trkpt lat="42.327594" lon="-3.974705">
        <ele>998.1936043621972</ele>
        <time>2022-05-15T10:59:49Z</time>
      </trkpt>
      <trkpt lat="42.32761" lon="-3.974828">
        <ele>998.8069304497913</ele>
        <time>2022-05-15T10:59:58Z</time>
      </trkpt>
      <trkpt lat="42.327606" lon="-3.974955">
        <ele>998.4426771271974</ele>
        <time>2022-05-15T11:00:08Z</time>
      </trkpt>
      <trkpt lat="42.327641" lon="-3.97508">
        <ele>999.2458533542231</ele>
        <time>2022-05-15T11:00:18Z</time>
      </trkpt>
      <trkpt lat="42.327674" lon="-3.975195">
        <ele>997.8386383559555</ele>
        <time>2022-05-15T11:00:26Z</time>
      </trkpt>
      <trkpt lat="42.327698" lon="-3.975314">
        <ele>996.6060082633048</ele>
        <time>2022-05-15T11:00:34Z</time>
      </trkpt>
      <trkpt lat="42.327717" lon="-3.975441">
        <ele>997.42176292371</ele>
        <time>2022-05-15T11:00:42Z</time>
      </trkpt>
      <trkpt lat="42.327726" lon="-3.975567">
        <ele>997.1375607149675</ele>
        <time>2022-05-15T11:00:58Z</time>
      </trkpt>
      <trkpt lat="42.327748" lon="-3.975688">
        <ele>996.447850198485</ele>
        <time>2022-05-15T11:01:09Z</time>
      </trkpt>
      <trkpt lat="42.327754" lon="-3.975818">
        <ele>995.7034381683916</ele>
        <time>2022-05-15T11:01:16Z</time>
      </trkpt>
      <trkpt lat="42.327775" lon="-3.975952">
        <ele>995.0698248017579</ele>
        <time>2022-05-15T11:01:24Z</time>
      </trkpt>
      <trkpt lat="42.327794" lon="-3.976085">
        <ele>993.8780818413943</ele>
        <time>2022-05-15T11:01:32Z</time>
      </trkpt>
      <trkpt lat="42.327803" lon="-3.976213">
        <ele>994.7845139466226</ele>
        <time>2022-05-15T11:01:38Z</time>
      </trkpt>
      <trkpt lat="42.327809" lon="-3.976335">
        <ele>995.5185894882306</ele>
        <time>2022-05-15T11:01:48Z</time>
      </trkpt>
      <trkpt lat="42.327824" lon="-3.976454">
        <ele>994.5478167524561</ele>
        <time>2022-05-15T11:01:55Z</time>
      </trkpt>
      <trkpt lat="42.32784" lon="-3.976576">
        <ele>993.5793682606891</ele>
        <time>2022-05-15T11:02:03Z</time>
      </trkpt>
      <trkpt lat="42.327836" lon="-3.976704">
        <ele>993.3377415509894</ele>
        <time>2022-05-15T11:02:11Z</time>
      </trkpt>
      <trkpt lat="42.327855" lon="-3.976828">
        <ele>993.2063220283017</ele>
        <time>2022-05-15T11:02:18Z</time>
      </trkpt>
      <trkpt lat="42.327867" lon="-3.976964">
        <ele>994.7457642834634</ele>
        <time>2022-05-15T11:02:27Z</time>
      </trkpt>
      <trkpt lat="42.327866" lon="-3.977093">
        <ele>996.4266566960141</ele>
        <time>2022-05-15T11:02:34Z</time>
      </trkpt>
      <trkpt lat="42.327871" lon="-3.977226">
        <ele>995.6982455011457</ele>
        <time>2022-05-15T11:02:44Z</time>
      </trkpt>
      <trkpt lat="42.327865" lon="-3.977355">
        <ele>997.146821718663</ele>
        <time>2022-05-15T11:02:53Z</time>
      </trkpt>
      <trkpt lat="42.327856" lon="-3.977479">
        <ele>996.2981878677383</ele>
        <time>2022-05-15T11:02:59Z</time>
      </trkpt>
      <trkpt lat="42.327862" lon="-3.977608">
        <ele>997.0293585928157</ele>
        <time>2022-05-15T11:03:07Z</time>
      </trkpt>
      <trkpt lat="42.327853" lon="-3.977731">
        <ele>998.6428639125079</ele>
        <time>2022-05-15T11:03:22Z</time>
      </trkpt>
      <trkpt lat="42.32788" lon="-3.977862">
        <ele>993.2511939611286</ele>
        <time>2022-05-15T11:19:27Z</time>
      </trkpt>
      <trkpt lat="42.327879" lon="-3.977987">
        <ele>992.8572874562815</ele>
        <time>2022-05-15T11:19:37Z</time>
      </trkpt>
      <trkpt lat="42.327884" lon="-3.978115">
        <ele>992.433982456103</ele>
        <time>2022-05-15T11:19:51Z</time>
      </trkpt>
      <trkpt lat="42.327882" lon="-3.97824">
        <ele>992.7509151101112</ele>
        <time>2022-05-15T11:20:02Z</time>
      </trkpt>
      <trkpt lat="42.327897" lon="-3.978367">
        <ele>992.4704859750345</ele>
        <time>2022-05-15T11:20:13Z</time>
      </trkpt>
      <trkpt lat="42.327901" lon="-3.978497">
        <ele>991.504466323182</ele>
        <time>2022-05-15T11:20:23Z</time>
      </trkpt>
      <trkpt lat="42.327886" lon="-3.978634">
        <ele>992.5040274076164</ele>
        <time>2022-05-15T11:20:32Z</time>
      </trkpt>
      <trkpt lat="42.327875" lon="-3.978755">
        <ele>992.4525412423536</ele>
        <time>2022-05-15T11:20:41Z</time>
      </trkpt>
      <trkpt lat="42.327871" lon="-3.978889">
        <ele>993.0488808248192</ele>
        <time>2022-05-15T11:20:49Z</time>
      </trkpt>
      <trkpt lat="42.327868" lon="-3.97902">
        <ele>994.3615102190524</ele>
        <time>2022-05-15T11:20:58Z</time>
      </trkpt>
      <trkpt lat="42.327873" lon="-3.979143">
        <ele>992.7395525146276</ele>
        <time>2022-05-15T11:21:06Z</time>
      </trkpt>
      <trkpt lat="42.327877" lon="-3.979272">
        <ele>991.9920119363815</ele>
        <time>2022-05-15T11:21:14Z</time>
      </trkpt>
      <trkpt lat="42.327889" lon="-3.979407">
        <ele>992.9085099762306</ele>
        <time>2022-05-15T11:21:24Z</time>
      </trkpt>
      <trkpt lat="42.327886" lon="-3.979534">
        <ele>993.4465399924666</ele>
        <time>2022-05-15T11:21:32Z</time>
      </trkpt>
      <trkpt lat="42.327887" lon="-3.979667">
        <ele>993.7894332269207</ele>
        <time>2022-05-15T11:21:40Z</time>
      </trkpt>
      <trkpt lat="42.327889" lon="-3.97979">
        <ele>994.1863876162097</ele>
        <time>2022-05-15T11:21:47Z</time>
      </trkpt>
      <trkpt lat="42.327896" lon="-3.979923">
        <ele>994.2573375040665</ele>
        <time>2022-05-15T11:21:55Z</time>
      </trkpt>
      <trkpt lat="42.327901" lon="-3.980047">
        <ele>994.5505724968389</ele>
        <time>2022-05-15T11:22:03Z</time>
      </trkpt>
      <trkpt lat="42.327903" lon="-3.98017">
        <ele>993.2624352872372</ele>
        <time>2022-05-15T11:22:11Z</time>
      </trkpt>
      <trkpt lat="42.327904" lon="-3.980305">
        <ele>992.9705009972677</ele>
        <time>2022-05-15T11:22:21Z</time>
      </trkpt>
      <trkpt lat="42.327899" lon="-3.980433">
        <ele>993.5590389901772</ele>
        <time>2022-05-15T11:22:29Z</time>
      </trkpt>
      <trkpt lat="42.327898" lon="-3.980565">
        <ele>993.6558795245364</ele>
        <time>2022-05-15T11:22:38Z</time>
      </trkpt>
      <trkpt lat="42.327893" lon="-3.980695">
        <ele>995.0171856367961</ele>
        <time>2022-05-15T11:22:48Z</time>
      </trkpt>
      <trkpt lat="42.327896" lon="-3.980818">
        <ele>995.8002260159701</ele>
        <time>2022-05-15T11:22:57Z</time>
      </trkpt>
      <trkpt lat="42.327899" lon="-3.980945">
        <ele>996.0806407546625</ele>
        <time>2022-05-15T11:23:06Z</time>
      </trkpt>
      <trkpt lat="42.327898" lon="-3.981072">
        <ele>995.7424095543101</ele>
        <time>2022-05-15T11:23:14Z</time>
      </trkpt>
      <trkpt lat="42.327914" lon="-3.981198">
        <ele>994.3746963497251</ele>
        <time>2022-05-15T11:23:23Z</time>
      </trkpt>
      <trkpt lat="42.3279" lon="-3.981326">
        <ele>992.6622717566788</ele>
        <time>2022-05-15T11:23:33Z</time>
      </trkpt>
      <trkpt lat="42.327913" lon="-3.98145">
        <ele>992.8377789072692</ele>
        <time>2022-05-15T11:23:41Z</time>
      </trkpt>
      <trkpt lat="42.327937" lon="-3.981579">
        <ele>990.8175849728286</ele>
        <time>2022-05-15T11:23:51Z</time>
      </trkpt>
      <trkpt lat="42.327952" lon="-3.981708">
        <ele>989.7711008386686</ele>
        <time>2022-05-15T11:23:59Z</time>
      </trkpt>
      <trkpt lat="42.327968" lon="-3.981829">
        <ele>988.6138289440423</ele>
        <time>2022-05-15T11:24:09Z</time>
      </trkpt>
      <trkpt lat="42.327989" lon="-3.981952">
        <ele>987.7022422291338</ele>
        <time>2022-05-15T11:24:19Z</time>
      </trkpt>
      <trkpt lat="42.327966" lon="-3.982073">
        <ele>986.7794705573469</ele>
        <time>2022-05-15T11:24:42Z</time>
      </trkpt>
      <trkpt lat="42.327922" lon="-3.982184">
        <ele>986.5450144214556</ele>
        <time>2022-05-15T11:24:49Z</time>
      </trkpt>
      <trkpt lat="42.327881" lon="-3.982298">
        <ele>986.7884224792942</ele>
        <time>2022-05-15T11:24:58Z</time>
      </trkpt>
      <trkpt lat="42.327836" lon="-3.982416">
        <ele>986.7986768074334</ele>
        <time>2022-05-15T11:25:04Z</time>
      </trkpt>
      <trkpt lat="42.327779" lon="-3.982523">
        <ele>988.3810660801828</ele>
        <time>2022-05-15T11:25:14Z</time>
      </trkpt>
      <trkpt lat="42.327726" lon="-3.982633">
        <ele>990.8091470301151</ele>
        <time>2022-05-15T11:25:23Z</time>
      </trkpt>
      <trkpt lat="42.327667" lon="-3.982732">
        <ele>991.2777854781598</ele>
        <time>2022-05-15T11:25:29Z</time>
      </trkpt>
      <trkpt lat="42.327632" lon="-3.982845">
        <ele>989.8451022021472</ele>
        <time>2022-05-15T11:25:38Z</time>
      </trkpt>
      <trkpt lat="42.327584" lon="-3.982949">
        <ele>988.9856706773862</ele>
        <time>2022-05-15T11:25:46Z</time>
      </trkpt>
      <trkpt lat="42.32752" lon="-3.983048">
        <ele>988.5970830824226</ele>
        <time>2022-05-15T11:25:54Z</time>
      </trkpt>
      <trkpt lat="42.327453" lon="-3.983146">
        <ele>987.428483415395</ele>
        <time>2022-05-15T11:26:04Z</time>
      </trkpt>
      <trkpt lat="42.327393" lon="-3.983253">
        <ele>987.2022338081151</ele>
        <time>2022-05-15T11:26:13Z</time>
      </trkpt>
      <trkpt lat="42.327341" lon="-3.983356">
        <ele>984.6377451177686</ele>
        <time>2022-05-15T11:26:23Z</time>
      </trkpt>
      <trkpt lat="42.327272" lon="-3.983438">
        <ele>983.7650190386921</ele>
        <time>2022-05-15T11:26:31Z</time>
      </trkpt>
      <trkpt lat="42.327195" lon="-3.983503">
        <ele>983.2325612250715</ele>
        <time>2022-05-15T11:26:38Z</time>
      </trkpt>
      <trkpt lat="42.32713" lon="-3.98359">
        <ele>982.6781652700156</ele>
        <time>2022-05-15T11:26:44Z</time>
      </trkpt>
      <trkpt lat="42.327071" lon="-3.983696">
        <ele>981.920479523018</ele>
        <time>2022-05-15T11:26:52Z</time>
      </trkpt>
      <trkpt lat="42.326993" lon="-3.983788">
        <ele>980.4973880210891</ele>
        <time>2022-05-15T11:26:59Z</time>
      </trkpt>
      <trkpt lat="42.326918" lon="-3.983864">
        <ele>979.5238786386326</ele>
        <time>2022-05-15T11:27:09Z</time>
      </trkpt>
      <trkpt lat="42.326843" lon="-3.983954">
        <ele>977.7294314028695</ele>
        <time>2022-05-15T11:27:17Z</time>
      </trkpt>
      <trkpt lat="42.326775" lon="-3.984052">
        <ele>976.8334746845067</ele>
        <time>2022-05-15T11:27:26Z</time>
      </trkpt>
      <trkpt lat="42.32672" lon="-3.984166">
        <ele>974.9076195666566</ele>
        <time>2022-05-15T11:27:34Z</time>
      </trkpt>
      <trkpt lat="42.32668" lon="-3.984279">
        <ele>973.1599934864789</ele>
        <time>2022-05-15T11:27:43Z</time>
      </trkpt>
      <trkpt lat="42.326667" lon="-3.984406">
        <ele>971.667814841494</ele>
        <time>2022-05-15T11:27:52Z</time>
      </trkpt>
      <trkpt lat="42.326647" lon="-3.984531">
        <ele>969.410070057027</ele>
        <time>2022-05-15T11:27:59Z</time>
      </trkpt>
      <trkpt lat="42.326623" lon="-3.984651">
        <ele>967.693984946236</ele>
        <time>2022-05-15T11:28:08Z</time>
      </trkpt>
      <trkpt lat="42.326599" lon="-3.98477">
        <ele>966.7492294348776</ele>
        <time>2022-05-15T11:28:17Z</time>
      </trkpt>
      <trkpt lat="42.32657" lon="-3.9849">
        <ele>966.3985384469852</ele>
        <time>2022-05-15T11:28:26Z</time>
      </trkpt>
      <trkpt lat="42.326548" lon="-3.985025">
        <ele>966.9610841469839</ele>
        <time>2022-05-15T11:28:34Z</time>
      </trkpt>
      <trkpt lat="42.326522" lon="-3.985148">
        <ele>965.6611765315756</ele>
        <time>2022-05-15T11:28:42Z</time>
      </trkpt>
      <trkpt lat="42.326503" lon="-3.985283">
        <ele>964.7667151791975</ele>
        <time>2022-05-15T11:28:49Z</time>
      </trkpt>
      <trkpt lat="42.326477" lon="-3.985416">
        <ele>962.8115922380239</ele>
        <time>2022-05-15T11:28:58Z</time>
      </trkpt>
      <trkpt lat="42.326458" lon="-3.985542">
        <ele>962.136873154901</ele>
        <time>2022-05-15T11:29:07Z</time>
      </trkpt>
      <trkpt lat="42.326443" lon="-3.985674">
        <ele>961.0111026735976</ele>
        <time>2022-05-15T11:29:14Z</time>
      </trkpt>
      <trkpt lat="42.326423" lon="-3.985798">
        <ele>960.8474316848442</ele>
        <time>2022-05-15T11:29:22Z</time>
      </trkpt>
      <trkpt lat="42.326406" lon="-3.985933">
        <ele>959.4886678904295</ele>
        <time>2022-05-15T11:29:29Z</time>
      </trkpt>
      <trkpt lat="42.326389" lon="-3.986054">
        <ele>958.8982666591182</ele>
        <time>2022-05-15T11:29:37Z</time>
      </trkpt>
      <trkpt lat="42.32638" lon="-3.986189">
        <ele>957.5368728497997</ele>
        <time>2022-05-15T11:29:44Z</time>
      </trkpt>
      <trkpt lat="42.326371" lon="-3.986321">
        <ele>954.7555492622778</ele>
        <time>2022-05-15T11:29:53Z</time>
      </trkpt>
      <trkpt lat="42.32635" lon="-3.986455">
        <ele>953.9951918544248</ele>
        <time>2022-05-15T11:29:59Z</time>
      </trkpt>
      <trkpt lat="42.326325" lon="-3.986586">
        <ele>953.049231714569</ele>
        <time>2022-05-15T11:30:08Z</time>
      </trkpt>
      <trkpt lat="42.326286" lon="-3.986705">
        <ele>951.8481725212187</ele>
        <time>2022-05-15T11:30:15Z</time>
      </trkpt>
      <trkpt lat="42.326262" lon="-3.986824">
        <ele>950.5451856246218</ele>
        <time>2022-05-15T11:30:23Z</time>
      </trkpt>
      <trkpt lat="42.326243" lon="-3.986947">
        <ele>949.2851988235489</ele>
        <time>2022-05-15T11:30:30Z</time>
      </trkpt>
      <trkpt lat="42.326226" lon="-3.98707">
        <ele>948.258470187895</ele>
        <time>2022-05-15T11:30:38Z</time>
      </trkpt>
      <trkpt lat="42.326197" lon="-3.987187">
        <ele>946.7321571195498</ele>
        <time>2022-05-15T11:30:47Z</time>
      </trkpt>
      <trkpt lat="42.326161" lon="-3.98731">
        <ele>945.0668703839183</ele>
        <time>2022-05-15T11:30:54Z</time>
      </trkpt>
      <trkpt lat="42.326118" lon="-3.987432">
        <ele>944.5679384404793</ele>
        <time>2022-05-15T11:31:02Z</time>
      </trkpt>
      <trkpt lat="42.326067" lon="-3.987542">
        <ele>945.3727643536404</ele>
        <time>2022-05-15T11:31:09Z</time>
      </trkpt>
      <trkpt lat="42.326011" lon="-3.987647">
        <ele>946.0144300591201</ele>
        <time>2022-05-15T11:31:17Z</time>
      </trkpt>
      <trkpt lat="42.326004" lon="-3.987777">
        <ele>945.1040837801993</ele>
        <time>2022-05-15T11:31:29Z</time>
      </trkpt>
      <trkpt lat="42.326026" lon="-3.987901">
        <ele>944.2685287622735</ele>
        <time>2022-05-15T11:31:38Z</time>
      </trkpt>
      <trkpt lat="42.32605" lon="-3.988021">
        <ele>943.6438657222316</ele>
        <time>2022-05-15T11:31:44Z</time>
      </trkpt>
      <trkpt lat="42.326069" lon="-3.988142">
        <ele>942.315600563772</ele>
        <time>2022-05-15T11:31:53Z</time>
      </trkpt>
      <trkpt lat="42.326067" lon="-3.988271">
        <ele>942.4439471205696</ele>
        <time>2022-05-15T11:32:02Z</time>
      </trkpt>
      <trkpt lat="42.326068" lon="-3.988392">
        <ele>942.854075643234</ele>
        <time>2022-05-15T11:32:09Z</time>
      </trkpt>
      <trkpt lat="42.326076" lon="-3.988518">
        <ele>942.6350113637745</ele>
        <time>2022-05-15T11:32:17Z</time>
      </trkpt>
      <trkpt lat="42.326077" lon="-3.98865">
        <ele>942.0657763043419</ele>
        <time>2022-05-15T11:32:24Z</time>
      </trkpt>
      <trkpt lat="42.326081" lon="-3.988777">
        <ele>942.8210046207532</ele>
        <time>2022-05-15T11:32:32Z</time>
      </trkpt>
      <trkpt lat="42.326083" lon="-3.988912">
        <ele>942.2595395706594</ele>
        <time>2022-05-15T11:32:41Z</time>
      </trkpt>
      <trkpt lat="42.326083" lon="-3.989046">
        <ele>943.7031212262809</ele>
        <time>2022-05-15T11:32:56Z</time>
      </trkpt>
      <trkpt lat="42.32609" lon="-3.989168">
        <ele>944.5574285360053</ele>
        <time>2022-05-15T11:33:04Z</time>
      </trkpt>
      <trkpt lat="42.326084" lon="-3.989297">
        <ele>943.9925500210375</ele>
        <time>2022-05-15T11:33:13Z</time>
      </trkpt>
      <trkpt lat="42.326089" lon="-3.989419">
        <ele>944.3199714589864</ele>
        <time>2022-05-15T11:33:23Z</time>
      </trkpt>
      <trkpt lat="42.326084" lon="-3.989554">
        <ele>946.430502329953</ele>
        <time>2022-05-15T11:33:31Z</time>
      </trkpt>
      <trkpt lat="42.326091" lon="-3.989681">
        <ele>945.8869764134288</ele>
        <time>2022-05-15T11:33:41Z</time>
      </trkpt>
      <trkpt lat="42.326079" lon="-3.989812">
        <ele>947.0086089251563</ele>
        <time>2022-05-15T11:33:49Z</time>
      </trkpt>
      <trkpt lat="42.326097" lon="-3.989938">
        <ele>947.7913337117061</ele>
        <time>2022-05-15T11:33:58Z</time>
      </trkpt>
      <trkpt lat="42.32612" lon="-3.990064">
        <ele>947.5865803891793</ele>
        <time>2022-05-15T11:34:07Z</time>
      </trkpt>
      <trkpt lat="42.326131" lon="-3.990199">
        <ele>947.4693999048322</ele>
        <time>2022-05-15T11:34:14Z</time>
      </trkpt>
      <trkpt lat="42.326138" lon="-3.990327">
        <ele>947.3047541175038</ele>
        <time>2022-05-15T11:34:24Z</time>
      </trkpt>
      <trkpt lat="42.326139" lon="-3.990452">
        <ele>947.483537892811</ele>
        <time>2022-05-15T11:34:36Z</time>
      </trkpt>
      <trkpt lat="42.326175" lon="-3.990575">
        <ele>949.7484333142638</ele>
        <time>2022-05-15T11:37:32Z</time>
      </trkpt>
      <trkpt lat="42.326184" lon="-3.990698">
        <ele>951.0876214997843</ele>
        <time>2022-05-15T11:37:41Z</time>
      </trkpt>
      <trkpt lat="42.326179" lon="-3.990823">
        <ele>952.0448500579223</ele>
        <time>2022-05-15T11:37:49Z</time>
      </trkpt>
      <trkpt lat="42.326189" lon="-3.99095">
        <ele>953.9457427123562</ele>
        <time>2022-05-15T11:37:59Z</time>
      </trkpt>
      <trkpt lat="42.326185" lon="-3.991089">
        <ele>955.4558943631127</ele>
        <time>2022-05-15T11:38:08Z</time>
      </trkpt>
      <trkpt lat="42.326191" lon="-3.991218">
        <ele>956.2884970987216</ele>
        <time>2022-05-15T11:38:17Z</time>
      </trkpt>
      <trkpt lat="42.326209" lon="-3.991337">
        <ele>956.0624854937196</ele>
        <time>2022-05-15T11:38:24Z</time>
      </trkpt>
      <trkpt lat="42.326197" lon="-3.991459">
        <ele>955.779123712331</ele>
        <time>2022-05-15T11:38:34Z</time>
      </trkpt>
      <trkpt lat="42.326219" lon="-3.991593">
        <ele>955.1556407082826</ele>
        <time>2022-05-15T11:38:43Z</time>
      </trkpt>
      <trkpt lat="42.326229" lon="-3.991725">
        <ele>956.041028894484</ele>
        <time>2022-05-15T11:38:52Z</time>
      </trkpt>
      <trkpt lat="42.326218" lon="-3.991852">
        <ele>957.5167405037209</ele>
        <time>2022-05-15T11:38:59Z</time>
      </trkpt>
      <trkpt lat="42.326223" lon="-3.991977">
        <ele>957.3393019549549</ele>
        <time>2022-05-15T11:39:09Z</time>
      </trkpt>
      <trkpt lat="42.326213" lon="-3.992107">
        <ele>958.9083297792822</ele>
        <time>2022-05-15T11:39:16Z</time>
      </trkpt>
      <trkpt lat="42.326205" lon="-3.992241">
        <ele>959.6574270837009</ele>
        <time>2022-05-15T11:39:24Z</time>
      </trkpt>
      <trkpt lat="42.326192" lon="-3.992374">
        <ele>960.010342149064</ele>
        <time>2022-05-15T11:39:34Z</time>
      </trkpt>
      <trkpt lat="42.326179" lon="-3.992495">
        <ele>960.4993474613875</ele>
        <time>2022-05-15T11:39:44Z</time>
      </trkpt>
      <trkpt lat="42.326172" lon="-3.992627">
        <ele>960.3575763767585</ele>
        <time>2022-05-15T11:39:52Z</time>
      </trkpt>
      <trkpt lat="42.326155" lon="-3.992759">
        <ele>960.7527815019712</ele>
        <time>2022-05-15T11:39:59Z</time>
      </trkpt>
      <trkpt lat="42.326132" lon="-3.99288">
        <ele>960.5671547958627</ele>
        <time>2022-05-15T11:40:09Z</time>
      </trkpt>
      <trkpt lat="42.326111" lon="-3.993009">
        <ele>961.6274860640988</ele>
        <time>2022-05-15T11:40:18Z</time>
      </trkpt>
      <trkpt lat="42.326074" lon="-3.993133">
        <ele>963.3639288283885</ele>
        <time>2022-05-15T11:40:27Z</time>
      </trkpt>
      <trkpt lat="42.326022" lon="-3.993245">
        <ele>963.4835328813642</ele>
        <time>2022-05-15T11:40:34Z</time>
      </trkpt>
      <trkpt lat="42.325982" lon="-3.993367">
        <ele>964.6965764407068</ele>
        <time>2022-05-15T11:40:44Z</time>
      </trkpt>
      <trkpt lat="42.325941" lon="-3.993489">
        <ele>966.1953195286915</ele>
        <time>2022-05-15T11:40:53Z</time>
      </trkpt>
      <trkpt lat="42.325918" lon="-3.993611">
        <ele>968.2923737689853</ele>
        <time>2022-05-15T11:41:11Z</time>
      </trkpt>
      <trkpt lat="42.32586" lon="-3.993713">
        <ele>969.3769696420059</ele>
        <time>2022-05-15T11:41:19Z</time>
      </trkpt>
      <trkpt lat="42.325787" lon="-3.9938">
        <ele>971.6813196437433</ele>
        <time>2022-05-15T11:41:28Z</time>
      </trkpt>
      <trkpt lat="42.325728" lon="-3.993906">
        <ele>973.6363225309178</ele>
        <time>2022-05-15T11:41:41Z</time>
      </trkpt>
      <trkpt lat="42.325669" lon="-3.994003">
        <ele>975.3384513687342</ele>
        <time>2022-05-15T11:41:48Z</time>
      </trkpt>
      <trkpt lat="42.325611" lon="-3.994114">
        <ele>976.668168047443</ele>
        <time>2022-05-15T11:41:58Z</time>
      </trkpt>
      <trkpt lat="42.325541" lon="-3.994207">
        <ele>978.0099712060764</ele>
        <time>2022-05-15T11:42:08Z</time>
      </trkpt>
      <trkpt lat="42.325514" lon="-3.994336">
        <ele>978.5312033239752</ele>
        <time>2022-05-15T11:42:18Z</time>
      </trkpt>
      <trkpt lat="42.325483" lon="-3.994453">
        <ele>980.0114555088803</ele>
        <time>2022-05-15T11:42:29Z</time>
      </trkpt>
      <trkpt lat="42.325474" lon="-3.994576">
        <ele>980.6577731156722</ele>
        <time>2022-05-15T11:42:39Z</time>
      </trkpt>
      <trkpt lat="42.325466" lon="-3.994709">
        <ele>981.5572352036834</ele>
        <time>2022-05-15T11:42:48Z</time>
      </trkpt>
      <trkpt lat="42.32544" lon="-3.994835">
        <ele>982.1968108676374</ele>
        <time>2022-05-15T11:42:57Z</time>
      </trkpt>
      <trkpt lat="42.325456" lon="-3.994968">
        <ele>983.0175173617899</ele>
        <time>2022-05-15T11:43:07Z</time>
      </trkpt>
      <trkpt lat="42.325436" lon="-3.9951">
        <ele>983.5307442508638</ele>
        <time>2022-05-15T11:43:16Z</time>
      </trkpt>
      <trkpt lat="42.325415" lon="-3.995237">
        <ele>983.3910930342972</ele>
        <time>2022-05-15T11:43:24Z</time>
      </trkpt>
      <trkpt lat="42.325387" lon="-3.99536">
        <ele>985.545877055265</ele>
        <time>2022-05-15T11:43:33Z</time>
      </trkpt>
      <trkpt lat="42.325367" lon="-3.99549">
        <ele>986.2707987139001</ele>
        <time>2022-05-15T11:43:42Z</time>
      </trkpt>
      <trkpt lat="42.32534" lon="-3.995613">
        <ele>986.8071564845741</ele>
        <time>2022-05-15T11:43:51Z</time>
      </trkpt>
      <trkpt lat="42.325302" lon="-3.995724">
        <ele>987.5518359541893</ele>
        <time>2022-05-15T11:43:58Z</time>
      </trkpt>
      <trkpt lat="42.325256" lon="-3.995831">
        <ele>988.6305788932368</ele>
        <time>2022-05-15T11:44:07Z</time>
      </trkpt>
      <trkpt lat="42.32522" lon="-3.995953">
        <ele>989.4695717645809</ele>
        <time>2022-05-15T11:44:14Z</time>
      </trkpt>
      <trkpt lat="42.325169" lon="-3.996055">
        <ele>990.6455970248207</ele>
        <time>2022-05-15T11:44:24Z</time>
      </trkpt>
      <trkpt lat="42.325111" lon="-3.996155">
        <ele>991.1086428165436</ele>
        <time>2022-05-15T11:44:32Z</time>
      </trkpt>
      <trkpt lat="42.325034" lon="-3.996243">
        <ele>991.5562831973657</ele>
        <time>2022-05-15T11:44:39Z</time>
      </trkpt>
      <trkpt lat="42.324958" lon="-3.99634">
        <ele>993.1317682731897</ele>
        <time>2022-05-15T11:44:49Z</time>
      </trkpt>
      <trkpt lat="42.324891" lon="-3.996423">
        <ele>992.1768092121929</ele>
        <time>2022-05-15T11:44:57Z</time>
      </trkpt>
      <trkpt lat="42.324844" lon="-3.996541">
        <ele>991.6127387667075</ele>
        <time>2022-05-15T11:45:06Z</time>
      </trkpt>
      <trkpt lat="42.324801" lon="-3.996667">
        <ele>993.1446841331199</ele>
        <time>2022-05-15T11:45:14Z</time>
      </trkpt>
      <trkpt lat="42.324758" lon="-3.996776">
        <ele>993.8236074224114</ele>
        <time>2022-05-15T11:45:23Z</time>
      </trkpt>
      <trkpt lat="42.324728" lon="-3.996903">
        <ele>994.1885055787861</ele>
        <time>2022-05-15T11:45:34Z</time>
      </trkpt>
      <trkpt lat="42.324674" lon="-3.997013">
        <ele>994.1637647729367</ele>
        <time>2022-05-15T11:45:43Z</time>
      </trkpt>
      <trkpt lat="42.324623" lon="-3.997132">
        <ele>994.1798575669527</ele>
        <time>2022-05-15T11:45:52Z</time>
      </trkpt>
      <trkpt lat="42.32459" lon="-3.997247">
        <ele>993.4063396053389</ele>
        <time>2022-05-15T11:45:59Z</time>
      </trkpt>
      <trkpt lat="42.324544" lon="-3.997357">
        <ele>992.6905415095389</ele>
        <time>2022-05-15T11:46:08Z</time>
      </trkpt>
      <trkpt lat="42.324503" lon="-3.997479">
        <ele>992.954534266144</ele>
        <time>2022-05-15T11:46:17Z</time>
      </trkpt>
      <trkpt lat="42.324441" lon="-3.997573">
        <ele>992.6252658674493</ele>
        <time>2022-05-15T11:46:24Z</time>
      </trkpt>
      <trkpt lat="42.32439" lon="-3.997677">
        <ele>992.9027724610642</ele>
        <time>2022-05-15T11:46:33Z</time>
      </trkpt>
      <trkpt lat="42.324341" lon="-3.997791">
        <ele>993.3322053533047</ele>
        <time>2022-05-15T11:46:39Z</time>
      </trkpt>
      <trkpt lat="42.324285" lon="-3.997902">
        <ele>993.5563050797209</ele>
        <time>2022-05-15T11:46:48Z</time>
      </trkpt>
      <trkpt lat="42.324242" lon="-3.998028">
        <ele>993.5287484638393</ele>
        <time>2022-05-15T11:46:56Z</time>
      </trkpt>
      <trkpt lat="42.324201" lon="-3.998144">
        <ele>993.1750971404836</ele>
        <time>2022-05-15T11:47:03Z</time>
      </trkpt>
      <trkpt lat="42.324171" lon="-3.998263">
        <ele>992.9577919114381</ele>
        <time>2022-05-15T11:47:11Z</time>
      </trkpt>
      <trkpt lat="42.324133" lon="-3.998374">
        <ele>992.4562630532309</ele>
        <time>2022-05-15T11:47:18Z</time>
      </trkpt>
      <trkpt lat="42.324096" lon="-3.998498">
        <ele>992.9718493949622</ele>
        <time>2022-05-15T11:47:27Z</time>
      </trkpt>
      <trkpt lat="42.324051" lon="-3.998612">
        <ele>993.3716666568071</ele>
        <time>2022-05-15T11:47:34Z</time>
      </trkpt>
      <trkpt lat="42.323995" lon="-3.998725">
        <ele>994.1743950964883</ele>
        <time>2022-05-15T11:47:42Z</time>
      </trkpt>
      <trkpt lat="42.323946" lon="-3.998836">
        <ele>995.3820339636877</ele>
        <time>2022-05-15T11:47:49Z</time>
      </trkpt>
      <trkpt lat="42.323907" lon="-3.998947">
        <ele>995.5114919515327</ele>
        <time>2022-05-15T11:47:56Z</time>
      </trkpt>
      <trkpt lat="42.323879" lon="-3.999067">
        <ele>995.6315265577286</ele>
        <time>2022-05-15T11:48:03Z</time>
      </trkpt>
      <trkpt lat="42.323857" lon="-3.999196">
        <ele>995.1570840310305</ele>
        <time>2022-05-15T11:48:11Z</time>
      </trkpt>
      <trkpt lat="42.323821" lon="-3.99932">
        <ele>995.1900717634708</ele>
        <time>2022-05-15T11:48:18Z</time>
      </trkpt>
      <trkpt lat="42.323804" lon="-3.999456">
        <ele>994.9271903242916</ele>
        <time>2022-05-15T11:48:24Z</time>
      </trkpt>
      <trkpt lat="42.323782" lon="-3.999594">
        <ele>994.9839977035299</ele>
        <time>2022-05-15T11:48:32Z</time>
      </trkpt>
      <trkpt lat="42.323753" lon="-3.99971">
        <ele>995.6982431076467</ele>
        <time>2022-05-15T11:48:39Z</time>
      </trkpt>
      <trkpt lat="42.323714" lon="-3.999831">
        <ele>995.5410287147388</ele>
        <time>2022-05-15T11:48:46Z</time>
      </trkpt>
      <trkpt lat="42.323673" lon="-3.999958">
        <ele>996.0137409307063</ele>
        <time>2022-05-15T11:48:53Z</time>
      </trkpt>
      <trkpt lat="42.32363" lon="-4.000074">
        <ele>995.5822630841285</ele>
        <time>2022-05-15T11:48:59Z</time>
      </trkpt>
      <trkpt lat="42.323592" lon="-4.000198">
        <ele>994.9002639967948</ele>
        <time>2022-05-15T11:49:08Z</time>
      </trkpt>
      <trkpt lat="42.323567" lon="-4.000325">
        <ele>995.5215985076502</ele>
        <time>2022-05-15T11:49:16Z</time>
      </trkpt>
      <trkpt lat="42.323539" lon="-4.000446">
        <ele>995.3744625421241</ele>
        <time>2022-05-15T11:49:23Z</time>
      </trkpt>
      <trkpt lat="42.3235" lon="-4.000557">
        <ele>995.3185453638434</ele>
        <time>2022-05-15T11:49:29Z</time>
      </trkpt>
      <trkpt lat="42.323465" lon="-4.000682">
        <ele>995.0308121517301</ele>
        <time>2022-05-15T11:49:36Z</time>
      </trkpt>
      <trkpt lat="42.323433" lon="-4.000799">
        <ele>994.8298451760784</ele>
        <time>2022-05-15T11:49:43Z</time>
      </trkpt>
      <trkpt lat="42.323408" lon="-4.000929">
        <ele>994.4892176445574</ele>
        <time>2022-05-15T11:49:49Z</time>
      </trkpt>
      <trkpt lat="42.323375" lon="-4.001052">
        <ele>994.3552191900089</ele>
        <time>2022-05-15T11:49:57Z</time>
      </trkpt>
      <trkpt lat="42.323355" lon="-4.001182">
        <ele>994.882415340282</ele>
        <time>2022-05-15T11:50:04Z</time>
      </trkpt>
      <trkpt lat="42.323327" lon="-4.0013">
        <ele>995.8882049573585</ele>
        <time>2022-05-15T11:50:11Z</time>
      </trkpt>
      <trkpt lat="42.32329" lon="-4.001414">
        <ele>996.0654163276777</ele>
        <time>2022-05-15T11:50:17Z</time>
      </trkpt>
      <trkpt lat="42.323261" lon="-4.001548">
        <ele>995.4271873151883</ele>
        <time>2022-05-15T11:50:24Z</time>
      </trkpt>
      <trkpt lat="42.323244" lon="-4.001681">
        <ele>996.0066951429471</ele>
        <time>2022-05-15T11:50:31Z</time>
      </trkpt>
      <trkpt lat="42.323217" lon="-4.001813">
        <ele>998.3827746110037</ele>
        <time>2022-05-15T11:50:38Z</time>
      </trkpt>
      <trkpt lat="42.32318" lon="-4.001944">
        <ele>998.8200029972941</ele>
        <time>2022-05-15T11:50:46Z</time>
      </trkpt>
      <trkpt lat="42.323163" lon="-4.00207">
        <ele>998.6553792189807</ele>
        <time>2022-05-15T11:50:53Z</time>
      </trkpt>
      <trkpt lat="42.32314" lon="-4.002196">
        <ele>997.6994322054088</ele>
        <time>2022-05-15T11:51:01Z</time>
      </trkpt>
      <trkpt lat="42.323128" lon="-4.00232">
        <ele>997.6175031214952</ele>
        <time>2022-05-15T11:51:09Z</time>
      </trkpt>
      <trkpt lat="42.323073" lon="-4.002418">
        <ele>995.7185220960528</ele>
        <time>2022-05-15T11:51:21Z</time>
      </trkpt>
      <trkpt lat="42.323091" lon="-4.002539">
        <ele>996.3994964165613</ele>
        <time>2022-05-15T11:52:06Z</time>
      </trkpt>
      <trkpt lat="42.323064" lon="-4.002661">
        <ele>995.0851424131542</ele>
        <time>2022-05-15T11:52:14Z</time>
      </trkpt>
      <trkpt lat="42.323045" lon="-4.002783">
        <ele>993.8952015796676</ele>
        <time>2022-05-15T11:52:22Z</time>
      </trkpt>
      <trkpt lat="42.32301" lon="-4.002906">
        <ele>993.4314970057458</ele>
        <time>2022-05-15T11:52:31Z</time>
      </trkpt>
      <trkpt lat="42.322978" lon="-4.003029">
        <ele>993.6734412768856</ele>
        <time>2022-05-15T11:52:39Z</time>
      </trkpt>
      <trkpt lat="42.322937" lon="-4.003152">
        <ele>993.4279360445216</ele>
        <time>2022-05-15T11:52:47Z</time>
      </trkpt>
      <trkpt lat="42.322919" lon="-4.003279">
        <ele>995.6693408451974</ele>
        <time>2022-05-15T11:52:56Z</time>
      </trkpt>
      <trkpt lat="42.322908" lon="-4.00341">
        <ele>995.9675780152902</ele>
        <time>2022-05-15T11:53:04Z</time>
      </trkpt>
      <trkpt lat="42.322883" lon="-4.003526">
        <ele>996.3132135663182</ele>
        <time>2022-05-15T11:53:13Z</time>
      </trkpt>
      <trkpt lat="42.322846" lon="-4.003647">
        <ele>994.8679538927972</ele>
        <time>2022-05-15T11:53:22Z</time>
      </trkpt>
      <trkpt lat="42.322817" lon="-4.003778">
        <ele>993.8537263739854</ele>
        <time>2022-05-15T11:53:30Z</time>
      </trkpt>
      <trkpt lat="42.322778" lon="-4.003891">
        <ele>992.1093065990135</ele>
        <time>2022-05-15T11:53:39Z</time>
      </trkpt>
      <trkpt lat="42.322756" lon="-4.00401">
        <ele>992.4201495498419</ele>
        <time>2022-05-15T11:53:50Z</time>
      </trkpt>
      <trkpt lat="42.322721" lon="-4.004135">
        <ele>994.2980084288865</ele>
        <time>2022-05-15T11:53:59Z</time>
      </trkpt>
      <trkpt lat="42.322688" lon="-4.004252">
        <ele>994.5532974684611</ele>
        <time>2022-05-15T11:54:19Z</time>
      </trkpt>
      <trkpt lat="42.32267" lon="-4.004372">
        <ele>994.4146638754755</ele>
        <time>2022-05-15T11:54:28Z</time>
      </trkpt>
      <trkpt lat="42.322653" lon="-4.004499">
        <ele>994.651766275987</ele>
        <time>2022-05-15T11:54:36Z</time>
      </trkpt>
      <trkpt lat="42.322634" lon="-4.004625">
        <ele>993.9696742324159</ele>
        <time>2022-05-15T11:54:44Z</time>
      </trkpt>
      <trkpt lat="42.322605" lon="-4.004751">
        <ele>992.8491687802598</ele>
        <time>2022-05-15T11:54:54Z</time>
      </trkpt>
      <trkpt lat="42.322593" lon="-4.004887">
        <ele>993.3789004255086</ele>
        <time>2022-05-15T11:55:03Z</time>
      </trkpt>
      <trkpt lat="42.322583" lon="-4.005008">
        <ele>994.8806094424799</ele>
        <time>2022-05-15T11:55:11Z</time>
      </trkpt>
      <trkpt lat="42.32255" lon="-4.005136">
        <ele>994.9085726346821</ele>
        <time>2022-05-15T11:55:19Z</time>
      </trkpt>
      <trkpt lat="42.322533" lon="-4.005267">
        <ele>995.5833771191537</ele>
        <time>2022-05-15T11:55:27Z</time>
      </trkpt>
      <trkpt lat="42.322503" lon="-4.005393">
        <ele>994.0422752639279</ele>
        <time>2022-05-15T11:55:34Z</time>
      </trkpt>
      <trkpt lat="42.322475" lon="-4.005525">
        <ele>994.6591273518279</ele>
        <time>2022-05-15T11:55:43Z</time>
      </trkpt>
      <trkpt lat="42.322451" lon="-4.005654">
        <ele>993.8630110677332</ele>
        <time>2022-05-15T11:55:52Z</time>
      </trkpt>
      <trkpt lat="42.322426" lon="-4.005787">
        <ele>992.4788373485208</ele>
        <time>2022-05-15T11:55:59Z</time>
      </trkpt>
      <trkpt lat="42.322397" lon="-4.005902">
        <ele>993.5533751193434</ele>
        <time>2022-05-15T11:56:06Z</time>
      </trkpt>
      <trkpt lat="42.32236" lon="-4.006016">
        <ele>993.2460135053843</ele>
        <time>2022-05-15T11:56:14Z</time>
      </trkpt>
      <trkpt lat="42.322337" lon="-4.00614">
        <ele>992.9894435368478</ele>
        <time>2022-05-15T11:56:22Z</time>
      </trkpt>
      <trkpt lat="42.322321" lon="-4.006276">
        <ele>992.6676616920158</ele>
        <time>2022-05-15T11:56:28Z</time>
      </trkpt>
      <trkpt lat="42.322286" lon="-4.006399">
        <ele>992.3305561132729</ele>
        <time>2022-05-15T11:56:37Z</time>
      </trkpt>
      <trkpt lat="42.322242" lon="-4.00652">
        <ele>992.5114865023643</ele>
        <time>2022-05-15T11:56:46Z</time>
      </trkpt>
      <trkpt lat="42.322214" lon="-4.006642">
        <ele>991.6236771885306</ele>
        <time>2022-05-15T11:56:53Z</time>
      </trkpt>
      <trkpt lat="42.322187" lon="-4.006765">
        <ele>992.0558958845213</ele>
        <time>2022-05-15T11:57:00Z</time>
      </trkpt>
      <trkpt lat="42.322146" lon="-4.006878">
        <ele>993.2244230080396</ele>
        <time>2022-05-15T11:57:07Z</time>
      </trkpt>
      <trkpt lat="42.322112" lon="-4.006991">
        <ele>992.8188311345875</ele>
        <time>2022-05-15T11:57:16Z</time>
      </trkpt>
      <trkpt lat="42.322074" lon="-4.00711">
        <ele>992.9556384515017</ele>
        <time>2022-05-15T11:57:23Z</time>
      </trkpt>
      <trkpt lat="42.322047" lon="-4.007227">
        <ele>993.9804302016273</ele>
        <time>2022-05-15T11:57:33Z</time>
      </trkpt>
      <trkpt lat="42.322026" lon="-4.007346">
        <ele>992.73972907383</ele>
        <time>2022-05-15T11:58:37Z</time>
      </trkpt>
      <trkpt lat="42.321991" lon="-4.007476">
        <ele>991.9848658228293</ele>
        <time>2022-05-15T11:58:51Z</time>
      </trkpt>
      <trkpt lat="42.321956" lon="-4.007598">
        <ele>991.2032800875604</ele>
        <time>2022-05-15T11:58:58Z</time>
      </trkpt>
      <trkpt lat="42.321925" lon="-4.007726">
        <ele>991.1977293938398</ele>
        <time>2022-05-15T11:59:08Z</time>
      </trkpt>
      <trkpt lat="42.321901" lon="-4.007845">
        <ele>990.3366754930466</ele>
        <time>2022-05-15T11:59:16Z</time>
      </trkpt>
      <trkpt lat="42.321868" lon="-4.007971">
        <ele>990.0325607266277</ele>
        <time>2022-05-15T11:59:24Z</time>
      </trkpt>
      <trkpt lat="42.321849" lon="-4.008096">
        <ele>989.576821828261</ele>
        <time>2022-05-15T11:59:33Z</time>
      </trkpt>
      <trkpt lat="42.321818" lon="-4.008217">
        <ele>989.0861474871635</ele>
        <time>2022-05-15T11:59:39Z</time>
      </trkpt>
      <trkpt lat="42.321775" lon="-4.008326">
        <ele>987.8496904606</ele>
        <time>2022-05-15T11:59:48Z</time>
      </trkpt>
      <trkpt lat="42.321754" lon="-4.008453">
        <ele>987.466843557544</ele>
        <time>2022-05-15T11:59:56Z</time>
      </trkpt>
      <trkpt lat="42.321718" lon="-4.008575">
        <ele>987.4047689847648</ele>
        <time>2022-05-15T12:00:04Z</time>
      </trkpt>
      <trkpt lat="42.321668" lon="-4.008695">
        <ele>985.4822271140292</ele>
        <time>2022-05-15T12:00:13Z</time>
      </trkpt>
      <trkpt lat="42.321627" lon="-4.008806">
        <ele>985.1714282929897</ele>
        <time>2022-05-15T12:00:19Z</time>
      </trkpt>
      <trkpt lat="42.321596" lon="-4.008938">
        <ele>984.5725111439824</ele>
        <time>2022-05-15T12:00:29Z</time>
      </trkpt>
      <trkpt lat="42.321569" lon="-4.009057">
        <ele>983.4321632273495</ele>
        <time>2022-05-15T12:00:37Z</time>
      </trkpt>
      <trkpt lat="42.321537" lon="-4.009174">
        <ele>983.9465095354244</ele>
        <time>2022-05-15T12:00:44Z</time>
      </trkpt>
      <trkpt lat="42.321505" lon="-4.0093">
        <ele>983.5110616153106</ele>
        <time>2022-05-15T12:00:54Z</time>
      </trkpt>
      <trkpt lat="42.32148" lon="-4.009423">
        <ele>983.4921040078625</ele>
        <time>2022-05-15T12:01:02Z</time>
      </trkpt>
      <trkpt lat="42.321449" lon="-4.009543">
        <ele>982.5406873328611</ele>
        <time>2022-05-15T12:01:11Z</time>
      </trkpt>
      <trkpt lat="42.321422" lon="-4.00967">
        <ele>982.101363918744</ele>
        <time>2022-05-15T12:01:19Z</time>
      </trkpt>
      <trkpt lat="42.321394" lon="-4.009804">
        <ele>981.6798314256594</ele>
        <time>2022-05-15T12:01:31Z</time>
      </trkpt>
      <trkpt lat="42.321382" lon="-4.00993">
        <ele>982.9648944325745</ele>
        <time>2022-05-15T12:01:39Z</time>
      </trkpt>
      <trkpt lat="42.32135" lon="-4.010048">
        <ele>981.4661781806499</ele>
        <time>2022-05-15T12:01:47Z</time>
      </trkpt>
      <trkpt lat="42.32131" lon="-4.010176">
        <ele>982.4234600719064</ele>
        <time>2022-05-15T12:01:54Z</time>
      </trkpt>
      <trkpt lat="42.321281" lon="-4.010293">
        <ele>983.5421122396365</ele>
        <time>2022-05-15T12:02:00Z</time>
      </trkpt>
      <trkpt lat="42.321266" lon="-4.010427">
        <ele>982.6506379777566</ele>
        <time>2022-05-15T12:02:11Z</time>
      </trkpt>
      <trkpt lat="42.321234" lon="-4.010544">
        <ele>982.9451423725113</ele>
        <time>2022-05-15T12:02:17Z</time>
      </trkpt>
      <trkpt lat="42.321211" lon="-4.010669">
        <ele>983.2839716793969</ele>
        <time>2022-05-15T12:02:24Z</time>
      </trkpt>
      <trkpt lat="42.321192" lon="-4.010803">
        <ele>982.9979468490928</ele>
        <time>2022-05-15T12:02:34Z</time>
      </trkpt>
      <trkpt lat="42.321162" lon="-4.010922">
        <ele>982.9548588916659</ele>
        <time>2022-05-15T12:02:41Z</time>
      </trkpt>
      <trkpt lat="42.321133" lon="-4.011051">
        <ele>981.4464886281639</ele>
        <time>2022-05-15T12:02:49Z</time>
      </trkpt>
      <trkpt lat="42.321123" lon="-4.011175">
        <ele>980.6607957677916</ele>
        <time>2022-05-15T12:02:57Z</time>
      </trkpt>
      <trkpt lat="42.321109" lon="-4.011295">
        <ele>980.1889730794355</ele>
        <time>2022-05-15T12:03:08Z</time>
      </trkpt>
      <trkpt lat="42.321044" lon="-4.011401">
        <ele>979.8092831708491</ele>
        <time>2022-05-15T12:03:17Z</time>
      </trkpt>
      <trkpt lat="42.321009" lon="-4.011518">
        <ele>978.4311298048124</ele>
        <time>2022-05-15T12:03:26Z</time>
      </trkpt>
      <trkpt lat="42.320988" lon="-4.011641">
        <ele>978.6104171024635</ele>
        <time>2022-05-15T12:03:36Z</time>
      </trkpt>
      <trkpt lat="42.320969" lon="-4.011764">
        <ele>980.0346953114495</ele>
        <time>2022-05-15T12:03:43Z</time>
      </trkpt>
      <trkpt lat="42.320948" lon="-4.011901">
        <ele>981.1583819687366</ele>
        <time>2022-05-15T12:03:53Z</time>
      </trkpt>
      <trkpt lat="42.320906" lon="-4.012008">
        <ele>982.4835272124037</ele>
        <time>2022-05-15T12:04:01Z</time>
      </trkpt>
      <trkpt lat="42.320876" lon="-4.012139">
        <ele>983.4677135078236</ele>
        <time>2022-05-15T12:04:09Z</time>
      </trkpt>
      <trkpt lat="42.320842" lon="-4.012259">
        <ele>982.2529796101153</ele>
        <time>2022-05-15T12:04:17Z</time>
      </trkpt>
      <trkpt lat="42.320822" lon="-4.012379">
        <ele>982.4344817614183</ele>
        <time>2022-05-15T12:04:24Z</time>
      </trkpt>
      <trkpt lat="42.320813" lon="-4.012507">
        <ele>983.5753185283393</ele>
        <time>2022-05-15T12:04:33Z</time>
      </trkpt>
      <trkpt lat="42.320786" lon="-4.012636">
        <ele>984.3349759085104</ele>
        <time>2022-05-15T12:04:41Z</time>
      </trkpt>
      <trkpt lat="42.320755" lon="-4.012764">
        <ele>984.823918607086</ele>
        <time>2022-05-15T12:04:48Z</time>
      </trkpt>
      <trkpt lat="42.320722" lon="-4.012891">
        <ele>984.6399881038815</ele>
        <time>2022-05-15T12:04:56Z</time>
      </trkpt>
      <trkpt lat="42.320696" lon="-4.01301">
        <ele>982.7700502453372</ele>
        <time>2022-05-15T12:05:04Z</time>
      </trkpt>
      <trkpt lat="42.320666" lon="-4.013126">
        <ele>982.945650937967</ele>
        <time>2022-05-15T12:05:09Z</time>
      </trkpt>
      <trkpt lat="42.320646" lon="-4.013257">
        <ele>983.0460657067597</ele>
        <time>2022-05-15T12:05:17Z</time>
      </trkpt>
      <trkpt lat="42.320614" lon="-4.013386">
        <ele>982.929166524671</ele>
        <time>2022-05-15T12:05:26Z</time>
      </trkpt>
      <trkpt lat="42.320585" lon="-4.013515">
        <ele>983.2746616723016</ele>
        <time>2022-05-15T12:05:33Z</time>
      </trkpt>
      <trkpt lat="42.320559" lon="-4.013634">
        <ele>983.9314114321023</ele>
        <time>2022-05-15T12:05:39Z</time>
      </trkpt>
      <trkpt lat="42.320542" lon="-4.013763">
        <ele>983.414610250853</ele>
        <time>2022-05-15T12:05:49Z</time>
      </trkpt>
      <trkpt lat="42.320518" lon="-4.013893">
        <ele>984.6816456289962</ele>
        <time>2022-05-15T12:05:56Z</time>
      </trkpt>
      <trkpt lat="42.320501" lon="-4.014019">
        <ele>983.9048921568319</ele>
        <time>2022-05-15T12:06:04Z</time>
      </trkpt>
      <trkpt lat="42.320459" lon="-4.014138">
        <ele>982.1144012706354</ele>
        <time>2022-05-15T12:06:11Z</time>
      </trkpt>
      <trkpt lat="42.320431" lon="-4.014272">
        <ele>984.0454977881163</ele>
        <time>2022-05-15T12:06:18Z</time>
      </trkpt>
      <trkpt lat="42.320415" lon="-4.014397">
        <ele>983.7415770655498</ele>
        <time>2022-05-15T12:06:27Z</time>
      </trkpt>
      <trkpt lat="42.320395" lon="-4.014524">
        <ele>983.9970638211817</ele>
        <time>2022-05-15T12:06:34Z</time>
      </trkpt>
      <trkpt lat="42.320399" lon="-4.014649">
        <ele>985.7234840523452</ele>
        <time>2022-05-15T12:06:46Z</time>
      </trkpt>
      <trkpt lat="42.32036" lon="-4.014775">
        <ele>984.6389536308125</ele>
        <time>2022-05-15T12:06:53Z</time>
      </trkpt>
      <trkpt lat="42.320323" lon="-4.014917">
        <ele>983.5323043037206</ele>
        <time>2022-05-15T12:07:04Z</time>
      </trkpt>
      <trkpt lat="42.320301" lon="-4.01504">
        <ele>982.687943380326</ele>
        <time>2022-05-15T12:07:13Z</time>
      </trkpt>
      <trkpt lat="42.320247" lon="-4.015173">
        <ele>982.6356505537406</ele>
        <time>2022-05-15T12:07:21Z</time>
      </trkpt>
      <trkpt lat="42.320212" lon="-4.015293">
        <ele>982.9361297544092</ele>
        <time>2022-05-15T12:07:28Z</time>
      </trkpt>
      <trkpt lat="42.320184" lon="-4.015419">
        <ele>982.2552960887551</ele>
        <time>2022-05-15T12:07:37Z</time>
      </trkpt>
      <trkpt lat="42.320163" lon="-4.015555">
        <ele>981.4338843915612</ele>
        <time>2022-05-15T12:07:46Z</time>
      </trkpt>
      <trkpt lat="42.320132" lon="-4.015671">
        <ele>981.4469061214477</ele>
        <time>2022-05-15T12:07:53Z</time>
      </trkpt>
      <trkpt lat="42.320096" lon="-4.015791">
        <ele>979.1570503758267</ele>
        <time>2022-05-15T12:08:01Z</time>
      </trkpt>
      <trkpt lat="42.320061" lon="-4.015915">
        <ele>978.0812003873289</ele>
        <time>2022-05-15T12:08:08Z</time>
      </trkpt>
      <trkpt lat="42.320037" lon="-4.01604">
        <ele>978.8770212000236</ele>
        <time>2022-05-15T12:08:17Z</time>
      </trkpt>
      <trkpt lat="42.320013" lon="-4.016164">
        <ele>979.0559931956232</ele>
        <time>2022-05-15T12:08:24Z</time>
      </trkpt>
      <trkpt lat="42.319962" lon="-4.016285">
        <ele>979.224795085378</ele>
        <time>2022-05-15T12:08:32Z</time>
      </trkpt>
      <trkpt lat="42.319919" lon="-4.0164">
        <ele>977.0375021481887</ele>
        <time>2022-05-15T12:08:39Z</time>
      </trkpt>
      <trkpt lat="42.319896" lon="-4.016521">
        <ele>977.2831984721124</ele>
        <time>2022-05-15T12:08:47Z</time>
      </trkpt>
      <trkpt lat="42.319867" lon="-4.016644">
        <ele>978.3023125408217</ele>
        <time>2022-05-15T12:08:54Z</time>
      </trkpt>
      <trkpt lat="42.319831" lon="-4.01677">
        <ele>978.5150709785521</ele>
        <time>2022-05-15T12:09:03Z</time>
      </trkpt>
      <trkpt lat="42.319796" lon="-4.016889">
        <ele>979.3851929847151</ele>
        <time>2022-05-15T12:09:09Z</time>
      </trkpt>
      <trkpt lat="42.319751" lon="-4.017014">
        <ele>981.3492779377848</ele>
        <time>2022-05-15T12:09:17Z</time>
      </trkpt>
      <trkpt lat="42.319701" lon="-4.01712">
        <ele>980.3006426505744</ele>
        <time>2022-05-15T12:09:23Z</time>
      </trkpt>
      <trkpt lat="42.319647" lon="-4.01723">
        <ele>980.0743456603959</ele>
        <time>2022-05-15T12:09:32Z</time>
      </trkpt>
      <trkpt lat="42.319606" lon="-4.01734">
        <ele>980.2045421609655</ele>
        <time>2022-05-15T12:09:39Z</time>
      </trkpt>
      <trkpt lat="42.319564" lon="-4.017456">
        <ele>981.595040788874</ele>
        <time>2022-05-15T12:09:46Z</time>
      </trkpt>
      <trkpt lat="42.319536" lon="-4.01758">
        <ele>982.3886341089383</ele>
        <time>2022-05-15T12:09:54Z</time>
      </trkpt>
      <trkpt lat="42.319499" lon="-4.017695">
        <ele>982.399986019358</ele>
        <time>2022-05-15T12:10:02Z</time>
      </trkpt>
      <trkpt lat="42.319443" lon="-4.01781">
        <ele>982.4356528026983</ele>
        <time>2022-05-15T12:10:09Z</time>
      </trkpt>
      <trkpt lat="42.319404" lon="-4.017934">
        <ele>983.3366233399138</ele>
        <time>2022-05-15T12:10:18Z</time>
      </trkpt>
      <trkpt lat="42.319366" lon="-4.01805">
        <ele>984.591808703728</ele>
        <time>2022-05-15T12:10:24Z</time>
      </trkpt>
      <trkpt lat="42.319317" lon="-4.018161">
        <ele>984.0199014451355</ele>
        <time>2022-05-15T12:10:32Z</time>
      </trkpt>
      <trkpt lat="42.319269" lon="-4.018268">
        <ele>981.3390841390938</ele>
        <time>2022-05-15T12:10:38Z</time>
      </trkpt>
      <trkpt lat="42.319228" lon="-4.018382">
        <ele>980.0791954640299</ele>
        <time>2022-05-15T12:10:44Z</time>
      </trkpt>
      <trkpt lat="42.319178" lon="-4.018488">
        <ele>978.8356484444812</ele>
        <time>2022-05-15T12:10:51Z</time>
      </trkpt>
      <trkpt lat="42.319133" lon="-4.018603">
        <ele>977.4518332062289</ele>
        <time>2022-05-15T12:10:59Z</time>
      </trkpt>
      <trkpt lat="42.319081" lon="-4.018725">
        <ele>978.3723298525438</ele>
        <time>2022-05-15T12:11:07Z</time>
      </trkpt>
      <trkpt lat="42.31904" lon="-4.018852">
        <ele>979.8895580861717</ele>
        <time>2022-05-15T12:11:14Z</time>
      </trkpt>
      <trkpt lat="42.319001" lon="-4.018969">
        <ele>980.7522609420121</ele>
        <time>2022-05-15T12:11:22Z</time>
      </trkpt>
      <trkpt lat="42.318962" lon="-4.019089">
        <ele>980.7896154318005</ele>
        <time>2022-05-15T12:11:29Z</time>
      </trkpt>
      <trkpt lat="42.31892" lon="-4.019202">
        <ele>981.5675235996023</ele>
        <time>2022-05-15T12:11:37Z</time>
      </trkpt>
      <trkpt lat="42.318872" lon="-4.019318">
        <ele>981.2279427275062</ele>
        <time>2022-05-15T12:11:44Z</time>
      </trkpt>
      <trkpt lat="42.318819" lon="-4.01943">
        <ele>981.9155732300133</ele>
        <time>2022-05-15T12:11:53Z</time>
      </trkpt>
      <trkpt lat="42.318768" lon="-4.019533">
        <ele>982.4894062485546</ele>
        <time>2022-05-15T12:11:59Z</time>
      </trkpt>
      <trkpt lat="42.318732" lon="-4.019656">
        <ele>982.8311469629407</ele>
        <time>2022-05-15T12:12:07Z</time>
      </trkpt>
      <trkpt lat="42.318674" lon="-4.019765">
        <ele>982.517483365722</ele>
        <time>2022-05-15T12:12:15Z</time>
      </trkpt>
      <trkpt lat="42.31863" lon="-4.019884">
        <ele>983.0364603390917</ele>
        <time>2022-05-15T12:12:23Z</time>
      </trkpt>
      <trkpt lat="42.318578" lon="-4.020006">
        <ele>983.0338724115863</ele>
        <time>2022-05-15T12:12:29Z</time>
      </trkpt>
      <trkpt lat="42.318528" lon="-4.020114">
        <ele>984.2107253735885</ele>
        <time>2022-05-15T12:12:37Z</time>
      </trkpt>
      <trkpt lat="42.318495" lon="-4.020228">
        <ele>985.0169658195227</ele>
        <time>2022-05-15T12:12:44Z</time>
      </trkpt>
      <trkpt lat="42.318463" lon="-4.020358">
        <ele>986.8505727397278</ele>
        <time>2022-05-15T12:12:53Z</time>
      </trkpt>
      <trkpt lat="42.318417" lon="-4.020474">
        <ele>986.8884919779375</ele>
        <time>2022-05-15T12:13:02Z</time>
      </trkpt>
      <trkpt lat="42.318376" lon="-4.020584">
        <ele>986.9552360298112</ele>
        <time>2022-05-15T12:13:08Z</time>
      </trkpt>
      <trkpt lat="42.318336" lon="-4.020698">
        <ele>987.5433784062043</ele>
        <time>2022-05-15T12:13:16Z</time>
      </trkpt>
      <trkpt lat="42.318306" lon="-4.020813">
        <ele>988.6599904438481</ele>
        <time>2022-05-15T12:13:23Z</time>
      </trkpt>
      <trkpt lat="42.31825" lon="-4.020911">
        <ele>986.6534984651953</ele>
        <time>2022-05-15T12:13:29Z</time>
      </trkpt>
      <trkpt lat="42.318218" lon="-4.021032">
        <ele>985.6554189119488</ele>
        <time>2022-05-15T12:13:37Z</time>
      </trkpt>
      <trkpt lat="42.318174" lon="-4.021138">
        <ele>986.2916139001027</ele>
        <time>2022-05-15T12:13:44Z</time>
      </trkpt>
      <trkpt lat="42.318129" lon="-4.021251">
        <ele>986.9127551335841</ele>
        <time>2022-05-15T12:13:52Z</time>
      </trkpt>
      <trkpt lat="42.318081" lon="-4.021361">
        <ele>986.8015063321218</ele>
        <time>2022-05-15T12:13:58Z</time>
      </trkpt>
      <trkpt lat="42.318062" lon="-4.021481">
        <ele>986.444787289016</ele>
        <time>2022-05-15T12:14:07Z</time>
      </trkpt>
      <trkpt lat="42.318019" lon="-4.021591">
        <ele>986.5791089851409</ele>
        <time>2022-05-15T12:14:13Z</time>
      </trkpt>
      <trkpt lat="42.317972" lon="-4.021705">
        <ele>986.9480480272323</ele>
        <time>2022-05-15T12:14:21Z</time>
      </trkpt>
      <trkpt lat="42.317923" lon="-4.021815">
        <ele>985.6510928170756</ele>
        <time>2022-05-15T12:14:29Z</time>
      </trkpt>
      <trkpt lat="42.317869" lon="-4.021928">
        <ele>984.6880946494639</ele>
        <time>2022-05-15T12:14:36Z</time>
      </trkpt>
      <trkpt lat="42.317825" lon="-4.022037">
        <ele>984.9750896636397</ele>
        <time>2022-05-15T12:14:43Z</time>
      </trkpt>
      <trkpt lat="42.317776" lon="-4.022148">
        <ele>983.5793218901381</ele>
        <time>2022-05-15T12:14:51Z</time>
      </trkpt>
      <trkpt lat="42.317734" lon="-4.022263">
        <ele>983.5435840301216</ele>
        <time>2022-05-15T12:14:57Z</time>
      </trkpt>
      <trkpt lat="42.31769" lon="-4.022382">
        <ele>983.6131510082632</ele>
        <time>2022-05-15T12:15:04Z</time>
      </trkpt>
      <trkpt lat="42.317627" lon="-4.022482">
        <ele>984.657617488876</ele>
        <time>2022-05-15T12:15:13Z</time>
      </trkpt>
      <trkpt lat="42.317576" lon="-4.02259">
        <ele>984.0221373979002</ele>
        <time>2022-05-15T12:15:19Z</time>
      </trkpt>
      <trkpt lat="42.317529" lon="-4.0227">
        <ele>983.0356980152428</ele>
        <time>2022-05-15T12:15:26Z</time>
      </trkpt>
      <trkpt lat="42.317494" lon="-4.022814">
        <ele>983.7099312450737</ele>
        <time>2022-05-15T12:15:33Z</time>
      </trkpt>
      <trkpt lat="42.31744" lon="-4.022917">
        <ele>983.7292151460424</ele>
        <time>2022-05-15T12:15:41Z</time>
      </trkpt>
      <trkpt lat="42.317398" lon="-4.023037">
        <ele>984.2264876123518</ele>
        <time>2022-05-15T12:15:49Z</time>
      </trkpt>
      <trkpt lat="42.317366" lon="-4.023153">
        <ele>984.2117968769744</ele>
        <time>2022-05-15T12:15:57Z</time>
      </trkpt>
      <trkpt lat="42.317324" lon="-4.02327">
        <ele>983.5675562312827</ele>
        <time>2022-05-15T12:16:07Z</time>
      </trkpt>
      <trkpt lat="42.317274" lon="-4.023385">
        <ele>983.8895878456533</ele>
        <time>2022-05-15T12:16:14Z</time>
      </trkpt>
      <trkpt lat="42.317219" lon="-4.023496">
        <ele>983.534617475234</ele>
        <time>2022-05-15T12:16:23Z</time>
      </trkpt>
      <trkpt lat="42.317169" lon="-4.023598">
        <ele>983.715613479726</ele>
        <time>2022-05-15T12:16:29Z</time>
      </trkpt>
      <trkpt lat="42.317111" lon="-4.023709">
        <ele>983.1893127784133</ele>
        <time>2022-05-15T12:16:37Z</time>
      </trkpt>
      <trkpt lat="42.317058" lon="-4.023825">
        <ele>982.7291058581322</ele>
        <time>2022-05-15T12:16:44Z</time>
      </trkpt>
      <trkpt lat="42.317058" lon="-4.023825">
        <ele>982.7291058581322</ele>
        <time>2022-05-15T12:16:45Z</time>
      </trkpt>
      <trkpt lat="42.317006" lon="-4.023937">
        <ele>983.2810449004173</ele>
        <time>2022-05-15T12:16:53Z</time>
      </trkpt>
      <trkpt lat="42.316963" lon="-4.024056">
        <ele>983.8300688667223</ele>
        <time>2022-05-15T12:17:02Z</time>
      </trkpt>
      <trkpt lat="42.316918" lon="-4.024171">
        <ele>983.9670681525022</ele>
        <time>2022-05-15T12:17:09Z</time>
      </trkpt>
      <trkpt lat="42.316869" lon="-4.024276">
        <ele>984.0752174099907</ele>
        <time>2022-05-15T12:17:18Z</time>
      </trkpt>
      <trkpt lat="42.31683" lon="-4.024392">
        <ele>983.9678556974977</ele>
        <time>2022-05-15T12:17:26Z</time>
      </trkpt>
      <trkpt lat="42.316785" lon="-4.024512">
        <ele>982.0301504693925</ele>
        <time>2022-05-15T12:17:34Z</time>
      </trkpt>
      <trkpt lat="42.316729" lon="-4.024613">
        <ele>981.8896379675716</ele>
        <time>2022-05-15T12:17:42Z</time>
      </trkpt>
      <trkpt lat="42.316735" lon="-4.024735">
        <ele>981.1404435969889</ele>
        <time>2022-05-15T12:18:42Z</time>
      </trkpt>
      <trkpt lat="42.316658" lon="-4.024814">
        <ele>979.6700262539089</ele>
        <time>2022-05-15T12:22:14Z</time>
      </trkpt>
      <trkpt lat="42.316583" lon="-4.024887">
        <ele>978.830936617218</ele>
        <time>2022-05-15T12:22:21Z</time>
      </trkpt>
      <trkpt lat="42.316531" lon="-4.024992">
        <ele>978.0548082431778</ele>
        <time>2022-05-15T12:22:27Z</time>
      </trkpt>
      <trkpt lat="42.316482" lon="-4.025095">
        <ele>977.8433667924255</ele>
        <time>2022-05-15T12:22:35Z</time>
      </trkpt>
      <trkpt lat="42.31642" lon="-4.025217">
        <ele>976.659331410192</ele>
        <time>2022-05-15T12:22:45Z</time>
      </trkpt>
      <trkpt lat="42.31637" lon="-4.025318">
        <ele>976.0786076905206</ele>
        <time>2022-05-15T12:22:53Z</time>
      </trkpt>
      <trkpt lat="42.316318" lon="-4.025433">
        <ele>974.2334932209924</ele>
        <time>2022-05-15T12:23:01Z</time>
      </trkpt>
      <trkpt lat="42.316273" lon="-4.02555">
        <ele>974.7271062005311</ele>
        <time>2022-05-15T12:23:08Z</time>
      </trkpt>
      <trkpt lat="42.316238" lon="-4.025662">
        <ele>975.5779122244567</ele>
        <time>2022-05-15T12:23:16Z</time>
      </trkpt>
      <trkpt lat="42.316183" lon="-4.025767">
        <ele>975.8549504652619</ele>
        <time>2022-05-15T12:23:23Z</time>
      </trkpt>
      <trkpt lat="42.316137" lon="-4.025872">
        <ele>976.051295359619</ele>
        <time>2022-05-15T12:23:29Z</time>
      </trkpt>
      <trkpt lat="42.316091" lon="-4.025978">
        <ele>975.2486475957558</ele>
        <time>2022-05-15T12:23:38Z</time>
      </trkpt>
      <trkpt lat="42.316044" lon="-4.026094">
        <ele>973.9511036183685</ele>
        <time>2022-05-15T12:23:46Z</time>
      </trkpt>
      <trkpt lat="42.315982" lon="-4.026198">
        <ele>973.0826211720705</ele>
        <time>2022-05-15T12:23:53Z</time>
      </trkpt>
      <trkpt lat="42.315931" lon="-4.026311">
        <ele>973.2342853127047</ele>
        <time>2022-05-15T12:24:03Z</time>
      </trkpt>
      <trkpt lat="42.315884" lon="-4.026426">
        <ele>972.2809179183096</ele>
        <time>2022-05-15T12:24:11Z</time>
      </trkpt>
      <trkpt lat="42.315816" lon="-4.026522">
        <ele>973.9487327085808</ele>
        <time>2022-05-15T12:24:18Z</time>
      </trkpt>
      <trkpt lat="42.315757" lon="-4.026617">
        <ele>975.7925805570558</ele>
        <time>2022-05-15T12:24:27Z</time>
      </trkpt>
      <trkpt lat="42.315706" lon="-4.02673">
        <ele>976.322969830595</ele>
        <time>2022-05-15T12:24:34Z</time>
      </trkpt>
      <trkpt lat="42.31566" lon="-4.026852">
        <ele>976.1559999659657</ele>
        <time>2022-05-15T12:24:42Z</time>
      </trkpt>
      <trkpt lat="42.315621" lon="-4.026966">
        <ele>975.6111316960305</ele>
        <time>2022-05-15T12:24:49Z</time>
      </trkpt>
      <trkpt lat="42.315581" lon="-4.027085">
        <ele>975.0838447194546</ele>
        <time>2022-05-15T12:24:57Z</time>
      </trkpt>
      <trkpt lat="42.315538" lon="-4.027204">
        <ele>975.6785836182535</ele>
        <time>2022-05-15T12:25:04Z</time>
      </trkpt>
      <trkpt lat="42.315483" lon="-4.027309">
        <ele>977.0964726321399</ele>
        <time>2022-05-15T12:25:13Z</time>
      </trkpt>
      <trkpt lat="42.315445" lon="-4.027424">
        <ele>977.3987153330818</ele>
        <time>2022-05-15T12:25:21Z</time>
      </trkpt>
      <trkpt lat="42.315405" lon="-4.02754">
        <ele>976.4621055005118</ele>
        <time>2022-05-15T12:25:28Z</time>
      </trkpt>
      <trkpt lat="42.315354" lon="-4.027642">
        <ele>975.923806075938</ele>
        <time>2022-05-15T12:25:36Z</time>
      </trkpt>
      <trkpt lat="42.31531" lon="-4.027756">
        <ele>974.9448003033176</ele>
        <time>2022-05-15T12:25:44Z</time>
      </trkpt>
      <trkpt lat="42.315263" lon="-4.027873">
        <ele>974.3488735845312</ele>
        <time>2022-05-15T12:25:52Z</time>
      </trkpt>
      <trkpt lat="42.315212" lon="-4.02799">
        <ele>972.6018775673583</ele>
        <time>2022-05-15T12:26:01Z</time>
      </trkpt>
      <trkpt lat="42.315173" lon="-4.028115">
        <ele>973.9735501585528</ele>
        <time>2022-05-15T12:26:09Z</time>
      </trkpt>
      <trkpt lat="42.315129" lon="-4.028233">
        <ele>974.1619013426825</ele>
        <time>2022-05-15T12:26:17Z</time>
      </trkpt>
      <trkpt lat="42.315089" lon="-4.028357">
        <ele>973.7090608458966</ele>
        <time>2022-05-15T12:26:24Z</time>
      </trkpt>
      <trkpt lat="42.315052" lon="-4.02847">
        <ele>973.4018954206258</ele>
        <time>2022-05-15T12:26:33Z</time>
      </trkpt>
      <trkpt lat="42.315012" lon="-4.028594">
        <ele>973.461465138942</ele>
        <time>2022-05-15T12:26:42Z</time>
      </trkpt>
      <trkpt lat="42.314973" lon="-4.028712">
        <ele>972.4462485006079</ele>
        <time>2022-05-15T12:26:49Z</time>
      </trkpt>
      <trkpt lat="42.314932" lon="-4.028824">
        <ele>972.7762919347733</ele>
        <time>2022-05-15T12:26:56Z</time>
      </trkpt>
      <trkpt lat="42.314895" lon="-4.028941">
        <ele>972.810320773162</ele>
        <time>2022-05-15T12:27:03Z</time>
      </trkpt>
      <trkpt lat="42.314862" lon="-4.029056">
        <ele>972.1337715629488</ele>
        <time>2022-05-15T12:27:11Z</time>
      </trkpt>
      <trkpt lat="42.314814" lon="-4.029173">
        <ele>972.6391401970759</ele>
        <time>2022-05-15T12:27:19Z</time>
      </trkpt>
      <trkpt lat="42.314794" lon="-4.029296">
        <ele>973.1263635717332</ele>
        <time>2022-05-15T12:27:38Z</time>
      </trkpt>
      <trkpt lat="42.314741" lon="-4.02941">
        <ele>971.9008023282513</ele>
        <time>2022-05-15T12:27:46Z</time>
      </trkpt>
      <trkpt lat="42.31467" lon="-4.029492">
        <ele>972.0293446229771</ele>
        <time>2022-05-15T12:27:54Z</time>
      </trkpt>
      <trkpt lat="42.31459" lon="-4.029579">
        <ele>970.9077106714249</ele>
        <time>2022-05-15T12:28:01Z</time>
      </trkpt>
      <trkpt lat="42.314508" lon="-4.029654">
        <ele>970.6682602055371</ele>
        <time>2022-05-15T12:28:08Z</time>
      </trkpt>
      <trkpt lat="42.314425" lon="-4.029717">
        <ele>970.4670399529859</ele>
        <time>2022-05-15T12:28:16Z</time>
      </trkpt>
      <trkpt lat="42.314353" lon="-4.029799">
        <ele>970.8219967214391</ele>
        <time>2022-05-15T12:28:24Z</time>
      </trkpt>
      <trkpt lat="42.314281" lon="-4.029875">
        <ele>969.9606903102249</ele>
        <time>2022-05-15T12:28:33Z</time>
      </trkpt>
      <trkpt lat="42.314221" lon="-4.029971">
        <ele>969.7520202798769</ele>
        <time>2022-05-15T12:28:39Z</time>
      </trkpt>
      <trkpt lat="42.314195" lon="-4.030097">
        <ele>970.3661560714245</ele>
        <time>2022-05-15T12:28:48Z</time>
      </trkpt>
      <trkpt lat="42.314177" lon="-4.030225">
        <ele>971.3040442671627</ele>
        <time>2022-05-15T12:28:56Z</time>
      </trkpt>
      <trkpt lat="42.314191" lon="-4.030349">
        <ele>971.3464529514313</ele>
        <time>2022-05-15T12:29:04Z</time>
      </trkpt>
      <trkpt lat="42.314209" lon="-4.030476">
        <ele>972.7385125132278</ele>
        <time>2022-05-15T12:29:12Z</time>
      </trkpt>
      <trkpt lat="42.31423" lon="-4.030596">
        <ele>972.5548177901655</ele>
        <time>2022-05-15T12:29:19Z</time>
      </trkpt>
      <trkpt lat="42.314233" lon="-4.030732">
        <ele>973.3632014542818</ele>
        <time>2022-05-15T12:29:26Z</time>
      </trkpt>
      <trkpt lat="42.314195" lon="-4.030845">
        <ele>973.0672148847952</ele>
        <time>2022-05-15T12:29:33Z</time>
      </trkpt>
      <trkpt lat="42.314165" lon="-4.030961">
        <ele>973.2042411146685</ele>
        <time>2022-05-15T12:29:41Z</time>
      </trkpt>
      <trkpt lat="42.314132" lon="-4.031084">
        <ele>973.1487043108791</ele>
        <time>2022-05-15T12:29:48Z</time>
      </trkpt>
      <trkpt lat="42.314101" lon="-4.031206">
        <ele>973.3694982072338</ele>
        <time>2022-05-15T12:29:54Z</time>
      </trkpt>
      <trkpt lat="42.314069" lon="-4.031331">
        <ele>973.4356071427464</ele>
        <time>2022-05-15T12:30:03Z</time>
      </trkpt>
      <trkpt lat="42.314038" lon="-4.031456">
        <ele>972.991500842385</ele>
        <time>2022-05-15T12:30:09Z</time>
      </trkpt>
      <trkpt lat="42.314013" lon="-4.03158">
        <ele>972.1565303299576</ele>
        <time>2022-05-15T12:30:18Z</time>
      </trkpt>
      <trkpt lat="42.313988" lon="-4.031713">
        <ele>971.9618928572163</ele>
        <time>2022-05-15T12:30:26Z</time>
      </trkpt>
      <trkpt lat="42.313958" lon="-4.031846">
        <ele>972.5823491578922</ele>
        <time>2022-05-15T12:30:33Z</time>
      </trkpt>
      <trkpt lat="42.313916" lon="-4.031958">
        <ele>972.5808231756091</ele>
        <time>2022-05-15T12:30:38Z</time>
      </trkpt>
      <trkpt lat="42.313888" lon="-4.032074">
        <ele>971.979265011847</ele>
        <time>2022-05-15T12:30:46Z</time>
      </trkpt>
      <trkpt lat="42.313871" lon="-4.032207">
        <ele>972.0544054657221</ele>
        <time>2022-05-15T12:30:54Z</time>
      </trkpt>
      <trkpt lat="42.313849" lon="-4.032325">
        <ele>971.9098775023594</ele>
        <time>2022-05-15T12:30:59Z</time>
      </trkpt>
      <trkpt lat="42.313813" lon="-4.03245">
        <ele>971.9940289054066</ele>
        <time>2022-05-15T12:31:07Z</time>
      </trkpt>
      <trkpt lat="42.313798" lon="-4.032574">
        <ele>971.9654883733019</ele>
        <time>2022-05-15T12:31:14Z</time>
      </trkpt>
      <trkpt lat="42.31378" lon="-4.032708">
        <ele>971.8178819231689</ele>
        <time>2022-05-15T12:31:22Z</time>
      </trkpt>
      <trkpt lat="42.313766" lon="-4.032837">
        <ele>972.5863919127733</ele>
        <time>2022-05-15T12:31:28Z</time>
      </trkpt>
      <trkpt lat="42.313761" lon="-4.032959">
        <ele>972.5988784451038</ele>
        <time>2022-05-15T12:31:36Z</time>
      </trkpt>
      <trkpt lat="42.313765" lon="-4.033095">
        <ele>972.6553554022685</ele>
        <time>2022-05-15T12:31:43Z</time>
      </trkpt>
      <trkpt lat="42.313757" lon="-4.033224">
        <ele>973.7697338880971</ele>
        <time>2022-05-15T12:31:49Z</time>
      </trkpt>
      <trkpt lat="42.313734" lon="-4.033343">
        <ele>974.1730656661093</ele>
        <time>2022-05-15T12:31:54Z</time>
      </trkpt>
      <trkpt lat="42.31372" lon="-4.033465">
        <ele>974.641462393105</ele>
        <time>2022-05-15T12:32:03Z</time>
      </trkpt>
      <trkpt lat="42.313715" lon="-4.033595">
        <ele>975.0452057328075</ele>
        <time>2022-05-15T12:32:11Z</time>
      </trkpt>
      <trkpt lat="42.313696" lon="-4.033722">
        <ele>974.6684092795476</ele>
        <time>2022-05-15T12:32:18Z</time>
      </trkpt>
      <trkpt lat="42.31367" lon="-4.033846">
        <ele>973.9131716676056</ele>
        <time>2022-05-15T12:32:24Z</time>
      </trkpt>
      <trkpt lat="42.313655" lon="-4.033981">
        <ele>973.2588429292664</ele>
        <time>2022-05-15T12:32:33Z</time>
      </trkpt>
      <trkpt lat="42.313614" lon="-4.034113">
        <ele>971.9058792730793</ele>
        <time>2022-05-15T12:32:40Z</time>
      </trkpt>
      <trkpt lat="42.31358" lon="-4.034232">
        <ele>971.7679105959833</ele>
        <time>2022-05-15T12:32:48Z</time>
      </trkpt>
      <trkpt lat="42.31354" lon="-4.034369">
        <ele>972.7331129992381</ele>
        <time>2022-05-15T12:32:55Z</time>
      </trkpt>
      <trkpt lat="42.313525" lon="-4.034499">
        <ele>972.9254245907068</ele>
        <time>2022-05-15T12:33:03Z</time>
      </trkpt>
      <trkpt lat="42.3135" lon="-4.034625">
        <ele>972.500006724149</ele>
        <time>2022-05-15T12:33:09Z</time>
      </trkpt>
      <trkpt lat="42.313476" lon="-4.034746">
        <ele>972.5488892095163</ele>
        <time>2022-05-15T12:33:17Z</time>
      </trkpt>
      <trkpt lat="42.31345" lon="-4.034871">
        <ele>971.2715726345778</ele>
        <time>2022-05-15T12:33:24Z</time>
      </trkpt>
      <trkpt lat="42.313428" lon="-4.035006">
        <ele>972.9214135585353</ele>
        <time>2022-05-15T12:33:32Z</time>
      </trkpt>
      <trkpt lat="42.3134" lon="-4.035133">
        <ele>971.9367888374254</ele>
        <time>2022-05-15T12:33:39Z</time>
      </trkpt>
      <trkpt lat="42.31338" lon="-4.035255">
        <ele>971.9846634594724</ele>
        <time>2022-05-15T12:33:48Z</time>
      </trkpt>
      <trkpt lat="42.313357" lon="-4.035389">
        <ele>971.9267427679151</ele>
        <time>2022-05-15T12:33:56Z</time>
      </trkpt>
      <trkpt lat="42.313336" lon="-4.035517">
        <ele>972.3514213133603</ele>
        <time>2022-05-15T12:34:04Z</time>
      </trkpt>
      <trkpt lat="42.313309" lon="-4.035641">
        <ele>973.6483178725466</ele>
        <time>2022-05-15T12:34:09Z</time>
      </trkpt>
      <trkpt lat="42.31328" lon="-4.035764">
        <ele>973.5219813687727</ele>
        <time>2022-05-15T12:34:16Z</time>
      </trkpt>
      <trkpt lat="42.313245" lon="-4.035879">
        <ele>972.0517611522228</ele>
        <time>2022-05-15T12:34:24Z</time>
      </trkpt>
      <trkpt lat="42.313218" lon="-4.036002">
        <ele>970.9361396636814</ele>
        <time>2022-05-15T12:34:31Z</time>
      </trkpt>
      <trkpt lat="42.313196" lon="-4.036122">
        <ele>970.8181992741302</ele>
        <time>2022-05-15T12:34:38Z</time>
      </trkpt>
      <trkpt lat="42.313175" lon="-4.036245">
        <ele>970.6012447634712</ele>
        <time>2022-05-15T12:34:44Z</time>
      </trkpt>
      <trkpt lat="42.313161" lon="-4.036383">
        <ele>971.1432509059086</ele>
        <time>2022-05-15T12:34:53Z</time>
      </trkpt>
      <trkpt lat="42.313144" lon="-4.036505">
        <ele>971.022550704889</ele>
        <time>2022-05-15T12:34:59Z</time>
      </trkpt>
      <trkpt lat="42.313109" lon="-4.036629">
        <ele>970.3703396059573</ele>
        <time>2022-05-15T12:35:06Z</time>
      </trkpt>
      <trkpt lat="42.313091" lon="-4.036767">
        <ele>969.8413526630029</ele>
        <time>2022-05-15T12:35:14Z</time>
      </trkpt>
      <trkpt lat="42.313053" lon="-4.036897">
        <ele>968.9369637230411</ele>
        <time>2022-05-15T12:35:22Z</time>
      </trkpt>
      <trkpt lat="42.313032" lon="-4.03702">
        <ele>968.7642601821572</ele>
        <time>2022-05-15T12:35:29Z</time>
      </trkpt>
      <trkpt lat="42.313018" lon="-4.037159">
        <ele>969.0337301734835</ele>
        <time>2022-05-15T12:35:37Z</time>
      </trkpt>
      <trkpt lat="42.312992" lon="-4.037278">
        <ele>968.041941662319</ele>
        <time>2022-05-15T12:35:44Z</time>
      </trkpt>
      <trkpt lat="42.312975" lon="-4.037406">
        <ele>968.6323886085302</ele>
        <time>2022-05-15T12:35:52Z</time>
      </trkpt>
      <trkpt lat="42.312945" lon="-4.037524">
        <ele>967.4711646465585</ele>
        <time>2022-05-15T12:35:58Z</time>
      </trkpt>
      <trkpt lat="42.312933" lon="-4.037647">
        <ele>968.1817789794877</ele>
        <time>2022-05-15T12:36:06Z</time>
      </trkpt>
      <trkpt lat="42.312925" lon="-4.037777">
        <ele>968.3872098643333</ele>
        <time>2022-05-15T12:36:14Z</time>
      </trkpt>
      <trkpt lat="42.312907" lon="-4.03791">
        <ele>969.152873236686</ele>
        <time>2022-05-15T12:36:21Z</time>
      </trkpt>
      <trkpt lat="42.312873" lon="-4.038038">
        <ele>969.2326568001881</ele>
        <time>2022-05-15T12:36:28Z</time>
      </trkpt>
      <trkpt lat="42.312822" lon="-4.038163">
        <ele>969.3568903002888</ele>
        <time>2022-05-15T12:36:36Z</time>
      </trkpt>
      <trkpt lat="42.312761" lon="-4.038261">
        <ele>967.87662002258</ele>
        <time>2022-05-15T12:36:43Z</time>
      </trkpt>
      <trkpt lat="42.31271" lon="-4.038365">
        <ele>968.680085837841</ele>
        <time>2022-05-15T12:36:51Z</time>
      </trkpt>
      <trkpt lat="42.31268" lon="-4.03849">
        <ele>967.6874178415164</ele>
        <time>2022-05-15T12:36:59Z</time>
      </trkpt>
      <trkpt lat="42.312666" lon="-4.038618">
        <ele>967.6620745351538</ele>
        <time>2022-05-15T12:37:06Z</time>
      </trkpt>
      <trkpt lat="42.312661" lon="-4.038758">
        <ele>967.870135593228</ele>
        <time>2022-05-15T12:37:14Z</time>
      </trkpt>
      <trkpt lat="42.312641" lon="-4.038891">
        <ele>967.7191793462262</ele>
        <time>2022-05-15T12:37:21Z</time>
      </trkpt>
      <trkpt lat="42.312643" lon="-4.039021">
        <ele>967.2641483126208</ele>
        <time>2022-05-15T12:37:29Z</time>
      </trkpt>
      <trkpt lat="42.312624" lon="-4.039144">
        <ele>967.3123954143375</ele>
        <time>2022-05-15T12:37:36Z</time>
      </trkpt>
      <trkpt lat="42.312597" lon="-4.039268">
        <ele>966.1639272700995</ele>
        <time>2022-05-15T12:37:43Z</time>
      </trkpt>
      <trkpt lat="42.312591" lon="-4.039404">
        <ele>965.9046895112842</ele>
        <time>2022-05-15T12:37:51Z</time>
      </trkpt>
      <trkpt lat="42.312576" lon="-4.039535">
        <ele>965.4198164660484</ele>
        <time>2022-05-15T12:38:08Z</time>
      </trkpt>
      <trkpt lat="42.312578" lon="-4.039662">
        <ele>966.767517151311</ele>
        <time>2022-05-15T12:38:33Z</time>
      </trkpt>
      <trkpt lat="42.312536" lon="-4.039773">
        <ele>965.720938208513</ele>
        <time>2022-05-15T12:38:39Z</time>
      </trkpt>
      <trkpt lat="42.312546" lon="-4.039903">
        <ele>962.5145402317867</ele>
        <time>2022-05-15T12:38:47Z</time>
      </trkpt>
      <trkpt lat="42.312546" lon="-4.040033">
        <ele>959.9595691291615</ele>
        <time>2022-05-15T12:38:56Z</time>
      </trkpt>
      <trkpt lat="42.312532" lon="-4.040155">
        <ele>959.1586744142696</ele>
        <time>2022-05-15T12:39:03Z</time>
      </trkpt>
      <trkpt lat="42.312535" lon="-4.040292">
        <ele>958.891097670421</ele>
        <time>2022-05-15T12:39:09Z</time>
      </trkpt>
      <trkpt lat="42.312547" lon="-4.040429">
        <ele>957.5552625339478</ele>
        <time>2022-05-15T12:39:17Z</time>
      </trkpt>
      <trkpt lat="42.312567" lon="-4.040551">
        <ele>956.9041878152639</ele>
        <time>2022-05-15T12:39:24Z</time>
      </trkpt>
      <trkpt lat="42.312591" lon="-4.040685">
        <ele>957.6961728585884</ele>
        <time>2022-05-15T12:39:32Z</time>
      </trkpt>
      <trkpt lat="42.312628" lon="-4.0408">
        <ele>958.3377445852384</ele>
        <time>2022-05-15T12:39:39Z</time>
      </trkpt>
      <trkpt lat="42.312662" lon="-4.040917">
        <ele>956.9729101369157</ele>
        <time>2022-05-15T12:40:01Z</time>
      </trkpt>
      <trkpt lat="42.312719" lon="-4.041017">
        <ele>954.4612267389894</ele>
        <time>2022-05-15T12:40:09Z</time>
      </trkpt>
      <trkpt lat="42.312761" lon="-4.041141">
        <ele>952.2112810360268</ele>
        <time>2022-05-15T12:40:17Z</time>
      </trkpt>
      <trkpt lat="42.312776" lon="-4.041275">
        <ele>951.935139358975</ele>
        <time>2022-05-15T12:40:24Z</time>
      </trkpt>
      <trkpt lat="42.312791" lon="-4.041401">
        <ele>950.6869802558795</ele>
        <time>2022-05-15T12:40:33Z</time>
      </trkpt>
      <trkpt lat="42.31282" lon="-4.041521">
        <ele>947.4508597785607</ele>
        <time>2022-05-15T12:41:03Z</time>
      </trkpt>
      <trkpt lat="42.312846" lon="-4.041638">
        <ele>945.6397995334119</ele>
        <time>2022-05-15T12:41:09Z</time>
      </trkpt>
      <trkpt lat="42.312892" lon="-4.041748">
        <ele>943.7922228882089</ele>
        <time>2022-05-15T12:41:19Z</time>
      </trkpt>
      <trkpt lat="42.312913" lon="-4.041866">
        <ele>941.0402927892283</ele>
        <time>2022-05-15T12:42:03Z</time>
      </trkpt>
      <trkpt lat="42.31285" lon="-4.041764">
        <ele>938.9643545867875</ele>
        <time>2022-05-15T12:44:33Z</time>
      </trkpt>
      <trkpt lat="42.312823" lon="-4.041891">
        <ele>939.8464908804744</ele>
        <time>2022-05-15T12:44:54Z</time>
      </trkpt>
      <trkpt lat="42.312808" lon="-4.042013">
        <ele>937.9794796518981</ele>
        <time>2022-05-15T12:45:03Z</time>
      </trkpt>
      <trkpt lat="42.312807" lon="-4.042136">
        <ele>935.2997153401375</ele>
        <time>2022-05-15T12:45:14Z</time>
      </trkpt>
      <trkpt lat="42.312807" lon="-4.042271">
        <ele>934.6728739328682</ele>
        <time>2022-05-15T12:45:24Z</time>
      </trkpt>
      <trkpt lat="42.31279" lon="-4.042402">
        <ele>932.0165032912046</ele>
        <time>2022-05-15T12:45:34Z</time>
      </trkpt>
      <trkpt lat="42.312806" lon="-4.042535">
        <ele>929.9966451916844</ele>
        <time>2022-05-15T12:45:44Z</time>
      </trkpt>
      <trkpt lat="42.312806" lon="-4.042658">
        <ele>928.4776576943696</ele>
        <time>2022-05-15T12:45:52Z</time>
      </trkpt>
      <trkpt lat="42.312821" lon="-4.042778">
        <ele>928.0219804244116</ele>
        <time>2022-05-15T12:45:59Z</time>
      </trkpt>
      <trkpt lat="42.312799" lon="-4.0429">
        <ele>931.5268018972129</ele>
        <time>2022-05-15T12:46:39Z</time>
      </trkpt>
      <trkpt lat="42.31244" lon="-4.043192">
        <ele>889.2829530257732</ele>
        <time>2022-05-16T07:27:16Z</time>
      </trkpt>
      <trkpt lat="42.312316" lon="-4.043255">
        <ele>923.3396284114569</ele>
        <time>2022-05-16T07:27:19Z</time>
      </trkpt>
      <trkpt lat="42.312361" lon="-4.043366">
        <ele>898.5846312884241</ele>
        <time>2022-05-16T07:27:39Z</time>
      </trkpt>
      <trkpt lat="42.312302" lon="-4.043464">
        <ele>894.6807494806126</ele>
        <time>2022-05-16T07:28:15Z</time>
      </trkpt>
      <trkpt lat="42.312265" lon="-4.043599">
        <ele>898.6490485537797</ele>
        <time>2022-05-16T07:28:29Z</time>
      </trkpt>
      <trkpt lat="42.312244" lon="-4.043743">
        <ele>894.9581514149904</ele>
        <time>2022-05-16T07:28:40Z</time>
      </trkpt>
      <trkpt lat="42.312227" lon="-4.043867">
        <ele>896.3055056035519</ele>
        <time>2022-05-16T07:28:48Z</time>
      </trkpt>
      <trkpt lat="42.312145" lon="-4.043946">
        <ele>892.4694631537423</ele>
        <time>2022-05-16T07:29:03Z</time>
      </trkpt>
      <trkpt lat="42.312146" lon="-4.044079">
        <ele>896.7919319299981</ele>
        <time>2022-05-16T07:29:13Z</time>
      </trkpt>
      <trkpt lat="42.312128" lon="-4.044205">
        <ele>899.1979038221762</ele>
        <time>2022-05-16T07:29:22Z</time>
      </trkpt>
      <trkpt lat="42.312103" lon="-4.044323">
        <ele>900.1699808174744</ele>
        <time>2022-05-16T07:29:31Z</time>
      </trkpt>
      <trkpt lat="42.312148" lon="-4.044437">
        <ele>906.773733695969</ele>
        <time>2022-05-16T07:30:04Z</time>
      </trkpt>
      <trkpt lat="42.312186" lon="-4.044555">
        <ele>901.2418183190748</ele>
        <time>2022-05-16T07:30:46Z</time>
      </trkpt>
      <trkpt lat="42.312278" lon="-4.044568">
        <ele>901.3246926637366</ele>
        <time>2022-05-16T07:30:52Z</time>
      </trkpt>
      <trkpt lat="42.312352" lon="-4.044649">
        <ele>899.5812252648175</ele>
        <time>2022-05-16T07:31:00Z</time>
      </trkpt>
      <trkpt lat="42.312437" lon="-4.044691">
        <ele>895.4367792457342</ele>
        <time>2022-05-16T07:31:06Z</time>
      </trkpt>
      <trkpt lat="42.312473" lon="-4.044809">
        <ele>891.5009108632803</ele>
        <time>2022-05-16T07:31:19Z</time>
      </trkpt>
      <trkpt lat="42.312503" lon="-4.044934">
        <ele>891.4449252067134</ele>
        <time>2022-05-16T07:31:28Z</time>
      </trkpt>
      <trkpt lat="42.312509" lon="-4.045079">
        <ele>890.1414889469743</ele>
        <time>2022-05-16T07:31:38Z</time>
      </trkpt>
      <trkpt lat="42.312517" lon="-4.045212">
        <ele>889.0426207594573</ele>
        <time>2022-05-16T07:31:46Z</time>
      </trkpt>
      <trkpt lat="42.312545" lon="-4.045329">
        <ele>886.9952953532338</ele>
        <time>2022-05-16T07:31:54Z</time>
      </trkpt>
      <trkpt lat="42.312593" lon="-4.045443">
        <ele>885.2000400274992</ele>
        <time>2022-05-16T07:32:01Z</time>
      </trkpt>
      <trkpt lat="42.312644" lon="-4.045553">
        <ele>882.5554130421951</ele>
        <time>2022-05-16T07:32:10Z</time>
      </trkpt>
      <trkpt lat="42.312681" lon="-4.045671">
        <ele>881.322984226048</ele>
        <time>2022-05-16T07:32:18Z</time>
      </trkpt>
      <trkpt lat="42.312717" lon="-4.045791">
        <ele>879.653916218318</ele>
        <time>2022-05-16T07:32:26Z</time>
      </trkpt>
      <trkpt lat="42.312767" lon="-4.045903">
        <ele>877.8184763910249</ele>
        <time>2022-05-16T07:33:00Z</time>
      </trkpt>
      <trkpt lat="42.312791" lon="-4.046035">
        <ele>880.5756113445386</ele>
        <time>2022-05-16T07:33:43Z</time>
      </trkpt>
      <trkpt lat="42.312839" lon="-4.046147">
        <ele>881.2297504302114</ele>
        <time>2022-05-16T07:33:49Z</time>
      </trkpt>
      <trkpt lat="42.312878" lon="-4.04627">
        <ele>880.2772995335981</ele>
        <time>2022-05-16T07:33:58Z</time>
      </trkpt>
      <trkpt lat="42.312947" lon="-4.046352">
        <ele>880.0981353139505</ele>
        <time>2022-05-16T07:34:06Z</time>
      </trkpt>
      <trkpt lat="42.313004" lon="-4.04645">
        <ele>880.8473101593554</ele>
        <time>2022-05-16T07:34:13Z</time>
      </trkpt>
      <trkpt lat="42.31306" lon="-4.046546">
        <ele>881.6316569419578</ele>
        <time>2022-05-16T07:34:21Z</time>
      </trkpt>
      <trkpt lat="42.313133" lon="-4.046637">
        <ele>881.1957424823195</ele>
        <time>2022-05-16T07:34:29Z</time>
      </trkpt>
      <trkpt lat="42.313215" lon="-4.046749">
        <ele>882.5490833343938</ele>
        <time>2022-05-16T07:34:38Z</time>
      </trkpt>
      <trkpt lat="42.313284" lon="-4.046855">
        <ele>883.3550133164972</ele>
        <time>2022-05-16T07:34:45Z</time>
      </trkpt>
      <trkpt lat="42.313335" lon="-4.046958">
        <ele>884.6286829086021</ele>
        <time>2022-05-16T07:34:51Z</time>
      </trkpt>
      <trkpt lat="42.313405" lon="-4.047045">
        <ele>884.022265936248</ele>
        <time>2022-05-16T07:34:59Z</time>
      </trkpt>
      <trkpt lat="42.313462" lon="-4.04714">
        <ele>884.9967030379921</ele>
        <time>2022-05-16T07:35:10Z</time>
      </trkpt>
      <trkpt lat="42.313481" lon="-4.047261">
        <ele>885.7568351225927</ele>
        <time>2022-05-16T07:35:20Z</time>
      </trkpt>
      <trkpt lat="42.313486" lon="-4.047394">
        <ele>886.6264046598226</ele>
        <time>2022-05-16T07:35:30Z</time>
      </trkpt>
      <trkpt lat="42.313503" lon="-4.047524">
        <ele>888.0430043404922</ele>
        <time>2022-05-16T07:35:39Z</time>
      </trkpt>
      <trkpt lat="42.313518" lon="-4.047658">
        <ele>889.6681028781459</ele>
        <time>2022-05-16T07:35:47Z</time>
      </trkpt>
      <trkpt lat="42.313532" lon="-4.047789">
        <ele>890.6655084518716</ele>
        <time>2022-05-16T07:35:56Z</time>
      </trkpt>
      <trkpt lat="42.313547" lon="-4.047925">
        <ele>889.6374607309699</ele>
        <time>2022-05-16T07:36:04Z</time>
      </trkpt>
      <trkpt lat="42.313558" lon="-4.048047">
        <ele>888.1284624421969</ele>
        <time>2022-05-16T07:36:11Z</time>
      </trkpt>
      <trkpt lat="42.313571" lon="-4.04817">
        <ele>886.1310044210404</ele>
        <time>2022-05-16T07:36:34Z</time>
      </trkpt>
      <trkpt lat="42.313572" lon="-4.048304">
        <ele>886.2726472094655</ele>
        <time>2022-05-16T07:36:44Z</time>
      </trkpt>
      <trkpt lat="42.313603" lon="-4.048419">
        <ele>883.7936936626211</ele>
        <time>2022-05-16T07:36:52Z</time>
      </trkpt>
      <trkpt lat="42.313644" lon="-4.048528">
        <ele>881.8733398448676</ele>
        <time>2022-05-16T07:37:02Z</time>
      </trkpt>
      <trkpt lat="42.313673" lon="-4.048646">
        <ele>879.6412406684831</ele>
        <time>2022-05-16T07:37:12Z</time>
      </trkpt>
      <trkpt lat="42.313703" lon="-4.048768">
        <ele>878.326004578732</ele>
        <time>2022-05-16T07:37:22Z</time>
      </trkpt>
      <trkpt lat="42.313717" lon="-4.048893">
        <ele>878.6362623181194</ele>
        <time>2022-05-16T07:37:33Z</time>
      </trkpt>
      <trkpt lat="42.313723" lon="-4.04902">
        <ele>879.4462978811935</ele>
        <time>2022-05-16T07:37:42Z</time>
      </trkpt>
      <trkpt lat="42.313768" lon="-4.049134">
        <ele>880.8625692985952</ele>
        <time>2022-05-16T07:37:51Z</time>
      </trkpt>
      <trkpt lat="42.31382" lon="-4.049242">
        <ele>879.2259921738878</ele>
        <time>2022-05-16T07:38:00Z</time>
      </trkpt>
      <trkpt lat="42.313831" lon="-4.049369">
        <ele>879.699498033151</ele>
        <time>2022-05-16T07:38:10Z</time>
      </trkpt>
      <trkpt lat="42.31386" lon="-4.049502">
        <ele>878.0772883929312</ele>
        <time>2022-05-16T07:38:21Z</time>
      </trkpt>
      <trkpt lat="42.313861" lon="-4.04965">
        <ele>878.5053475340828</ele>
        <time>2022-05-16T07:38:30Z</time>
      </trkpt>
      <trkpt lat="42.313824" lon="-4.049781">
        <ele>879.2301975935698</ele>
        <time>2022-05-16T07:38:40Z</time>
      </trkpt>
      <trkpt lat="42.313797" lon="-4.049899">
        <ele>879.4969669356942</ele>
        <time>2022-05-16T07:38:50Z</time>
      </trkpt>
      <trkpt lat="42.313781" lon="-4.050021">
        <ele>881.9707733970135</ele>
        <time>2022-05-16T07:38:57Z</time>
      </trkpt>
      <trkpt lat="42.313758" lon="-4.050146">
        <ele>880.4570796340704</ele>
        <time>2022-05-16T07:39:05Z</time>
      </trkpt>
      <trkpt lat="42.313707" lon="-4.050265">
        <ele>879.393957125023</ele>
        <time>2022-05-16T07:39:15Z</time>
      </trkpt>
      <trkpt lat="42.313672" lon="-4.050379">
        <ele>879.1588384024799</ele>
        <time>2022-05-16T07:39:22Z</time>
      </trkpt>
      <trkpt lat="42.313634" lon="-4.050505">
        <ele>879.9463934134692</ele>
        <time>2022-05-16T07:39:30Z</time>
      </trkpt>
      <trkpt lat="42.313613" lon="-4.050635">
        <ele>880.24417801667</ele>
        <time>2022-05-16T07:39:38Z</time>
      </trkpt>
      <trkpt lat="42.313596" lon="-4.050766">
        <ele>880.2658802000806</ele>
        <time>2022-05-16T07:39:48Z</time>
      </trkpt>
      <trkpt lat="42.313581" lon="-4.050899">
        <ele>879.2219230877236</ele>
        <time>2022-05-16T07:39:56Z</time>
      </trkpt>
      <trkpt lat="42.313586" lon="-4.051041">
        <ele>877.9965157788247</ele>
        <time>2022-05-16T07:40:03Z</time>
      </trkpt>
      <trkpt lat="42.313595" lon="-4.051172">
        <ele>875.9937044456601</ele>
        <time>2022-05-16T07:40:08Z</time>
      </trkpt>
      <trkpt lat="42.313612" lon="-4.051295">
        <ele>874.0312670990825</ele>
        <time>2022-05-16T07:40:17Z</time>
      </trkpt>
      <trkpt lat="42.313607" lon="-4.051416">
        <ele>869.8724372470751</ele>
        <time>2022-05-16T07:40:26Z</time>
      </trkpt>
      <trkpt lat="42.313626" lon="-4.051556">
        <ele>867.8850236302242</ele>
        <time>2022-05-16T07:40:33Z</time>
      </trkpt>
      <trkpt lat="42.313659" lon="-4.051686">
        <ele>865.4695056825876</ele>
        <time>2022-05-16T07:40:40Z</time>
      </trkpt>
      <trkpt lat="42.313684" lon="-4.051807">
        <ele>863.8982902625576</ele>
        <time>2022-05-16T07:40:47Z</time>
      </trkpt>
      <trkpt lat="42.313684" lon="-4.051932">
        <ele>863.1368567114696</ele>
        <time>2022-05-16T07:40:55Z</time>
      </trkpt>
      <trkpt lat="42.313687" lon="-4.052062">
        <ele>861.1932021928951</ele>
        <time>2022-05-16T07:41:03Z</time>
      </trkpt>
      <trkpt lat="42.313691" lon="-4.052185">
        <ele>859.4502613339573</ele>
        <time>2022-05-16T07:41:10Z</time>
      </trkpt>
      <trkpt lat="42.313702" lon="-4.052319">
        <ele>859.7714299438521</ele>
        <time>2022-05-16T07:41:18Z</time>
      </trkpt>
      <trkpt lat="42.31372" lon="-4.052443">
        <ele>858.5100577073172</ele>
        <time>2022-05-16T07:41:27Z</time>
      </trkpt>
      <trkpt lat="42.313751" lon="-4.052591">
        <ele>860.643044481054</ele>
        <time>2022-05-16T07:41:35Z</time>
      </trkpt>
      <trkpt lat="42.313774" lon="-4.052718">
        <ele>861.3455802807584</ele>
        <time>2022-05-16T07:41:46Z</time>
      </trkpt>
      <trkpt lat="42.313803" lon="-4.052864">
        <ele>861.5159046743065</ele>
        <time>2022-05-16T07:41:56Z</time>
      </trkpt>
      <trkpt lat="42.313824" lon="-4.053002">
        <ele>862.5934695005417</ele>
        <time>2022-05-16T07:42:06Z</time>
      </trkpt>
      <trkpt lat="42.313819" lon="-4.053124">
        <ele>862.0290340147913</ele>
        <time>2022-05-16T07:42:14Z</time>
      </trkpt>
      <trkpt lat="42.313822" lon="-4.053247">
        <ele>862.6611960390583</ele>
        <time>2022-05-16T07:42:22Z</time>
      </trkpt>
      <trkpt lat="42.313845" lon="-4.053366">
        <ele>863.5515986960381</ele>
        <time>2022-05-16T07:42:33Z</time>
      </trkpt>
      <trkpt lat="42.313865" lon="-4.053493">
        <ele>862.4441012199968</ele>
        <time>2022-05-16T07:43:14Z</time>
      </trkpt>
      <trkpt lat="42.313827" lon="-4.053615">
        <ele>862.6515726819634</ele>
        <time>2022-05-16T07:43:23Z</time>
      </trkpt>
      <trkpt lat="42.313802" lon="-4.053737">
        <ele>863.2279275655746</ele>
        <time>2022-05-16T07:43:31Z</time>
      </trkpt>
      <trkpt lat="42.313747" lon="-4.053849">
        <ele>864.327600334771</ele>
        <time>2022-05-16T07:43:42Z</time>
      </trkpt>
      <trkpt lat="42.313733" lon="-4.05397">
        <ele>866.9553246814758</ele>
        <time>2022-05-16T07:43:49Z</time>
      </trkpt>
      <trkpt lat="42.313716" lon="-4.054095">
        <ele>867.9025567471981</ele>
        <time>2022-05-16T07:43:58Z</time>
      </trkpt>
      <trkpt lat="42.31368" lon="-4.054213">
        <ele>868.3914334401488</ele>
        <time>2022-05-16T07:44:07Z</time>
      </trkpt>
      <trkpt lat="42.313649" lon="-4.054331">
        <ele>868.0512340301648</ele>
        <time>2022-05-16T07:44:15Z</time>
      </trkpt>
      <trkpt lat="42.313629" lon="-4.054453">
        <ele>867.0199673790485</ele>
        <time>2022-05-16T07:44:23Z</time>
      </trkpt>
      <trkpt lat="42.313598" lon="-4.054579">
        <ele>866.5320362756029</ele>
        <time>2022-05-16T07:44:32Z</time>
      </trkpt>
      <trkpt lat="42.313587" lon="-4.054727">
        <ele>866.7132995659485</ele>
        <time>2022-05-16T07:44:41Z</time>
      </trkpt>
      <trkpt lat="42.313536" lon="-4.054846">
        <ele>867.3878902131692</ele>
        <time>2022-05-16T07:44:51Z</time>
      </trkpt>
      <trkpt lat="42.313515" lon="-4.05499">
        <ele>867.3893405422568</ele>
        <time>2022-05-16T07:45:11Z</time>
      </trkpt>
      <trkpt lat="42.3135" lon="-4.055119">
        <ele>866.650999840349</ele>
        <time>2022-05-16T07:45:22Z</time>
      </trkpt>
      <trkpt lat="42.313482" lon="-4.055254">
        <ele>865.1020908085629</ele>
        <time>2022-05-16T07:45:32Z</time>
      </trkpt>
      <trkpt lat="42.313453" lon="-4.055383">
        <ele>864.9739877777174</ele>
        <time>2022-05-16T07:45:42Z</time>
      </trkpt>
      <trkpt lat="42.313431" lon="-4.05552">
        <ele>865.3982742335647</ele>
        <time>2022-05-16T07:45:52Z</time>
      </trkpt>
      <trkpt lat="42.313417" lon="-4.055648">
        <ele>864.6465201443061</ele>
        <time>2022-05-16T07:46:00Z</time>
      </trkpt>
      <trkpt lat="42.313384" lon="-4.055772">
        <ele>863.9977040858939</ele>
        <time>2022-05-16T07:46:10Z</time>
      </trkpt>
      <trkpt lat="42.31336" lon="-4.055899">
        <ele>864.2306062197313</ele>
        <time>2022-05-16T07:46:20Z</time>
      </trkpt>
      <trkpt lat="42.313328" lon="-4.056028">
        <ele>864.0776827000082</ele>
        <time>2022-05-16T07:46:30Z</time>
      </trkpt>
      <trkpt lat="42.313291" lon="-4.056141">
        <ele>865.0875032478943</ele>
        <time>2022-05-16T07:46:39Z</time>
      </trkpt>
      <trkpt lat="42.313278" lon="-4.056272">
        <ele>864.3394456785172</ele>
        <time>2022-05-16T07:46:48Z</time>
      </trkpt>
      <trkpt lat="42.313264" lon="-4.056396">
        <ele>863.8346925200894</ele>
        <time>2022-05-16T07:46:57Z</time>
      </trkpt>
      <trkpt lat="42.313237" lon="-4.056513">
        <ele>863.7579260338098</ele>
        <time>2022-05-16T07:47:05Z</time>
      </trkpt>
      <trkpt lat="42.313194" lon="-4.056631">
        <ele>865.1654114201665</ele>
        <time>2022-05-16T07:47:14Z</time>
      </trkpt>
      <trkpt lat="42.313158" lon="-4.056747">
        <ele>864.9995785299689</ele>
        <time>2022-05-16T07:47:20Z</time>
      </trkpt>
      <trkpt lat="42.313103" lon="-4.056859">
        <ele>865.8566988799721</ele>
        <time>2022-05-16T07:47:29Z</time>
      </trkpt>
      <trkpt lat="42.313064" lon="-4.056979">
        <ele>865.3950296603143</ele>
        <time>2022-05-16T07:47:37Z</time>
      </trkpt>
      <trkpt lat="42.313031" lon="-4.057103">
        <ele>864.9475591666996</ele>
        <time>2022-05-16T07:47:46Z</time>
      </trkpt>
      <trkpt lat="42.312998" lon="-4.057219">
        <ele>864.7054510796443</ele>
        <time>2022-05-16T07:47:54Z</time>
      </trkpt>
      <trkpt lat="42.312947" lon="-4.057329">
        <ele>865.9303651014343</ele>
        <time>2022-05-16T07:48:02Z</time>
      </trkpt>
      <trkpt lat="42.31292" lon="-4.057471">
        <ele>867.2815718054771</ele>
        <time>2022-05-16T07:48:12Z</time>
      </trkpt>
      <trkpt lat="42.31286" lon="-4.057588">
        <ele>868.7277114233002</ele>
        <time>2022-05-16T07:48:22Z</time>
      </trkpt>
      <trkpt lat="42.312811" lon="-4.057711">
        <ele>869.2717476449907</ele>
        <time>2022-05-16T07:48:32Z</time>
      </trkpt>
      <trkpt lat="42.312793" lon="-4.057837">
        <ele>870.6903809607029</ele>
        <time>2022-05-16T07:48:43Z</time>
      </trkpt>
      <trkpt lat="42.312781" lon="-4.057994">
        <ele>870.9489069804549</ele>
        <time>2022-05-16T07:48:53Z</time>
      </trkpt>
      <trkpt lat="42.312759" lon="-4.058112">
        <ele>871.1112425252795</ele>
        <time>2022-05-16T07:49:01Z</time>
      </trkpt>
      <trkpt lat="42.312721" lon="-4.058223">
        <ele>873.9704563608393</ele>
        <time>2022-05-16T07:49:11Z</time>
      </trkpt>
      <trkpt lat="42.312675" lon="-4.058329">
        <ele>876.5013617891818</ele>
        <time>2022-05-16T07:49:21Z</time>
      </trkpt>
      <trkpt lat="42.312623" lon="-4.058437">
        <ele>876.9191470518708</ele>
        <time>2022-05-16T07:49:31Z</time>
      </trkpt>
      <trkpt lat="42.312586" lon="-4.058556">
        <ele>878.3457719553262</ele>
        <time>2022-05-16T07:49:40Z</time>
      </trkpt>
      <trkpt lat="42.312539" lon="-4.058663">
        <ele>878.776635363698</ele>
        <time>2022-05-16T07:49:49Z</time>
      </trkpt>
      <trkpt lat="42.312508" lon="-4.058783">
        <ele>877.0946167102084</ele>
        <time>2022-05-16T07:49:56Z</time>
      </trkpt>
      <trkpt lat="42.31246" lon="-4.058887">
        <ele>876.0462388349697</ele>
        <time>2022-05-16T07:50:06Z</time>
      </trkpt>
      <trkpt lat="42.312425" lon="-4.059005">
        <ele>875.6875355187804</ele>
        <time>2022-05-16T07:50:19Z</time>
      </trkpt>
      <trkpt lat="42.312383" lon="-4.059123">
        <ele>875.605381433852</ele>
        <time>2022-05-16T07:50:26Z</time>
      </trkpt>
      <trkpt lat="42.312334" lon="-4.059246">
        <ele>878.0621411940083</ele>
        <time>2022-05-16T07:50:33Z</time>
      </trkpt>
      <trkpt lat="42.312282" lon="-4.059354">
        <ele>878.922903274186</ele>
        <time>2022-05-16T07:50:41Z</time>
      </trkpt>
      <trkpt lat="42.312252" lon="-4.059476">
        <ele>878.5326899299398</ele>
        <time>2022-05-16T07:50:49Z</time>
      </trkpt>
      <trkpt lat="42.312209" lon="-4.059591">
        <ele>878.6666503632441</ele>
        <time>2022-05-16T07:50:57Z</time>
      </trkpt>
      <trkpt lat="42.312162" lon="-4.059705">
        <ele>877.9291055845097</ele>
        <time>2022-05-16T07:51:05Z</time>
      </trkpt>
      <trkpt lat="42.312128" lon="-4.059837">
        <ele>877.6644818820059</ele>
        <time>2022-05-16T07:51:13Z</time>
      </trkpt>
      <trkpt lat="42.312097" lon="-4.059959">
        <ele>879.3040391681716</ele>
        <time>2022-05-16T07:51:21Z</time>
      </trkpt>
      <trkpt lat="42.312059" lon="-4.060084">
        <ele>876.3929651444778</ele>
        <time>2022-05-16T07:51:30Z</time>
      </trkpt>
      <trkpt lat="42.312023" lon="-4.060211">
        <ele>877.3271185318008</ele>
        <time>2022-05-16T07:51:38Z</time>
      </trkpt>
      <trkpt lat="42.312007" lon="-4.060335">
        <ele>876.4620667072013</ele>
        <time>2022-05-16T07:51:46Z</time>
      </trkpt>
      <trkpt lat="42.311997" lon="-4.060464">
        <ele>874.8832100592554</ele>
        <time>2022-05-16T07:51:53Z</time>
      </trkpt>
      <trkpt lat="42.311967" lon="-4.060581">
        <ele>873.8221883317456</ele>
        <time>2022-05-16T07:52:01Z</time>
      </trkpt>
      <trkpt lat="42.311927" lon="-4.060695">
        <ele>872.3321237117052</ele>
        <time>2022-05-16T07:52:09Z</time>
      </trkpt>
      <trkpt lat="42.311872" lon="-4.060806">
        <ele>872.9706406332552</ele>
        <time>2022-05-16T07:52:38Z</time>
      </trkpt>
      <trkpt lat="42.311812" lon="-4.060902">
        <ele>872.2519249180332</ele>
        <time>2022-05-16T07:52:44Z</time>
      </trkpt>
      <trkpt lat="42.311759" lon="-4.061006">
        <ele>872.4179280456156</ele>
        <time>2022-05-16T07:52:53Z</time>
      </trkpt>
      <trkpt lat="42.3117" lon="-4.061119">
        <ele>872.7157650934532</ele>
        <time>2022-05-16T07:53:02Z</time>
      </trkpt>
      <trkpt lat="42.311631" lon="-4.061223">
        <ele>874.0697433743626</ele>
        <time>2022-05-16T07:53:09Z</time>
      </trkpt>
      <trkpt lat="42.311569" lon="-4.061315">
        <ele>875.8463982157409</ele>
        <time>2022-05-16T07:53:17Z</time>
      </trkpt>
      <trkpt lat="42.311518" lon="-4.061416">
        <ele>876.0217541595921</ele>
        <time>2022-05-16T07:53:24Z</time>
      </trkpt>
      <trkpt lat="42.311458" lon="-4.061517">
        <ele>874.766568201594</ele>
        <time>2022-05-16T07:53:32Z</time>
      </trkpt>
      <trkpt lat="42.311414" lon="-4.061624">
        <ele>876.1141578769311</ele>
        <time>2022-05-16T07:53:39Z</time>
      </trkpt>
      <trkpt lat="42.31138" lon="-4.061749">
        <ele>877.4632783187553</ele>
        <time>2022-05-16T07:53:49Z</time>
      </trkpt>
      <trkpt lat="42.311335" lon="-4.061865">
        <ele>876.4591391002759</ele>
        <time>2022-05-16T07:53:57Z</time>
      </trkpt>
      <trkpt lat="42.311286" lon="-4.061978">
        <ele>876.6377913169563</ele>
        <time>2022-05-16T07:54:04Z</time>
      </trkpt>
      <trkpt lat="42.311231" lon="-4.062089">
        <ele>877.6598677895963</ele>
        <time>2022-05-16T07:54:14Z</time>
      </trkpt>
      <trkpt lat="42.311181" lon="-4.062192">
        <ele>877.4663681145757</ele>
        <time>2022-05-16T07:54:24Z</time>
      </trkpt>
      <trkpt lat="42.31113" lon="-4.062297">
        <ele>875.8814904121682</ele>
        <time>2022-05-16T07:54:32Z</time>
      </trkpt>
      <trkpt lat="42.311078" lon="-4.062411">
        <ele>875.6075783520937</ele>
        <time>2022-05-16T07:54:40Z</time>
      </trkpt>
      <trkpt lat="42.311028" lon="-4.062512">
        <ele>874.8123104609549</ele>
        <time>2022-05-16T07:54:47Z</time>
      </trkpt>
      <trkpt lat="42.310969" lon="-4.062625">
        <ele>876.1475946540013</ele>
        <time>2022-05-16T07:54:56Z</time>
      </trkpt>
      <trkpt lat="42.310901" lon="-4.062716">
        <ele>877.3081811890006</ele>
        <time>2022-05-16T07:55:05Z</time>
      </trkpt>
      <trkpt lat="42.310874" lon="-4.062847">
        <ele>878.0943480310962</ele>
        <time>2022-05-16T07:55:13Z</time>
      </trkpt>
      <trkpt lat="42.310856" lon="-4.062982">
        <ele>877.7248650221154</ele>
        <time>2022-05-16T07:55:22Z</time>
      </trkpt>
      <trkpt lat="42.310853" lon="-4.063106">
        <ele>876.9664868656546</ele>
        <time>2022-05-16T07:55:29Z</time>
      </trkpt>
      <trkpt lat="42.31085" lon="-4.06323">
        <ele>876.6728547876701</ele>
        <time>2022-05-16T07:55:37Z</time>
      </trkpt>
      <trkpt lat="42.310803" lon="-4.063349">
        <ele>875.4749519424513</ele>
        <time>2022-05-16T07:55:46Z</time>
      </trkpt>
      <trkpt lat="42.310758" lon="-4.063462">
        <ele>873.7427391475067</ele>
        <time>2022-05-16T07:55:52Z</time>
      </trkpt>
      <trkpt lat="42.31071" lon="-4.0636">
        <ele>872.7737193275243</ele>
        <time>2022-05-16T07:56:02Z</time>
      </trkpt>
      <trkpt lat="42.310679" lon="-4.06372">
        <ele>871.7492471989244</ele>
        <time>2022-05-16T07:56:10Z</time>
      </trkpt>
      <trkpt lat="42.310684" lon="-4.063842">
        <ele>869.3728631976992</ele>
        <time>2022-05-16T07:56:18Z</time>
      </trkpt>
      <trkpt lat="42.31064" lon="-4.063985">
        <ele>867.0989258829504</ele>
        <time>2022-05-16T07:56:27Z</time>
      </trkpt>
      <trkpt lat="42.310577" lon="-4.064077">
        <ele>867.2022627349943</ele>
        <time>2022-05-16T07:56:33Z</time>
      </trkpt>
      <trkpt lat="42.310525" lon="-4.064192">
        <ele>866.8288126681</ele>
        <time>2022-05-16T07:56:40Z</time>
      </trkpt>
      <trkpt lat="42.3105" lon="-4.064312">
        <ele>865.8475274462253</ele>
        <time>2022-05-16T07:56:47Z</time>
      </trkpt>
      <trkpt lat="42.310499" lon="-4.064443">
        <ele>865.4278139434755</ele>
        <time>2022-05-16T07:56:53Z</time>
      </trkpt>
      <trkpt lat="42.310496" lon="-4.064576">
        <ele>864.5390917630866</ele>
        <time>2022-05-16T07:57:00Z</time>
      </trkpt>
      <trkpt lat="42.310492" lon="-4.064703">
        <ele>863.8723673019558</ele>
        <time>2022-05-16T07:57:08Z</time>
      </trkpt>
      <trkpt lat="42.310487" lon="-4.064826">
        <ele>864.3191507393494</ele>
        <time>2022-05-16T07:57:15Z</time>
      </trkpt>
      <trkpt lat="42.310482" lon="-4.064956">
        <ele>865.448539858684</ele>
        <time>2022-05-16T07:57:22Z</time>
      </trkpt>
      <trkpt lat="42.31048" lon="-4.065079">
        <ele>866.9916437529027</ele>
        <time>2022-05-16T07:57:29Z</time>
      </trkpt>
      <trkpt lat="42.310486" lon="-4.065208">
        <ele>866.1798160262406</ele>
        <time>2022-05-16T07:57:47Z</time>
      </trkpt>
      <trkpt lat="42.310461" lon="-4.065341">
        <ele>868.613012528047</ele>
        <time>2022-05-16T07:57:55Z</time>
      </trkpt>
      <trkpt lat="42.310464" lon="-4.065464">
        <ele>869.8844203287736</ele>
        <time>2022-05-16T07:58:02Z</time>
      </trkpt>
      <trkpt lat="42.31048" lon="-4.0656">
        <ele>872.9139921357855</ele>
        <time>2022-05-16T07:58:09Z</time>
      </trkpt>
      <trkpt lat="42.310499" lon="-4.065728">
        <ele>875.6038693115115</ele>
        <time>2022-05-16T07:58:17Z</time>
      </trkpt>
      <trkpt lat="42.310503" lon="-4.065866">
        <ele>875.7887066630647</ele>
        <time>2022-05-16T07:58:26Z</time>
      </trkpt>
      <trkpt lat="42.310526" lon="-4.066004">
        <ele>877.5613771667704</ele>
        <time>2022-05-16T07:58:33Z</time>
      </trkpt>
      <trkpt lat="42.310534" lon="-4.066139">
        <ele>881.0918145775795</ele>
        <time>2022-05-16T07:58:40Z</time>
      </trkpt>
      <trkpt lat="42.310546" lon="-4.06627">
        <ele>883.5959949912503</ele>
        <time>2022-05-16T07:58:48Z</time>
      </trkpt>
      <trkpt lat="42.31057" lon="-4.066405">
        <ele>885.2948580402881</ele>
        <time>2022-05-16T07:58:54Z</time>
      </trkpt>
      <trkpt lat="42.31058" lon="-4.06653">
        <ele>884.4133628886193</ele>
        <time>2022-05-16T07:59:01Z</time>
      </trkpt>
      <trkpt lat="42.310584" lon="-4.066667">
        <ele>881.9949047546834</ele>
        <time>2022-05-16T07:59:09Z</time>
      </trkpt>
      <trkpt lat="42.310572" lon="-4.066793">
        <ele>881.7750780191272</ele>
        <time>2022-05-16T07:59:15Z</time>
      </trkpt>
      <trkpt lat="42.310541" lon="-4.066913">
        <ele>882.181822232902</ele>
        <time>2022-05-16T07:59:24Z</time>
      </trkpt>
      <trkpt lat="42.310521" lon="-4.067053">
        <ele>880.5163128627464</ele>
        <time>2022-05-16T07:59:38Z</time>
      </trkpt>
      <trkpt lat="42.31054" lon="-4.067178">
        <ele>877.8574146460742</ele>
        <time>2022-05-16T07:59:46Z</time>
      </trkpt>
      <trkpt lat="42.310517" lon="-4.067295">
        <ele>877.7638504533097</ele>
        <time>2022-05-16T07:59:54Z</time>
      </trkpt>
      <trkpt lat="42.310529" lon="-4.067436">
        <ele>877.9377965461463</ele>
        <time>2022-05-16T08:00:01Z</time>
      </trkpt>
      <trkpt lat="42.310545" lon="-4.067585">
        <ele>877.0827148389071</ele>
        <time>2022-05-16T08:00:08Z</time>
      </trkpt>
      <trkpt lat="42.310552" lon="-4.067723">
        <ele>877.9175638137385</ele>
        <time>2022-05-16T08:00:15Z</time>
      </trkpt>
      <trkpt lat="42.310565" lon="-4.067859">
        <ele>878.9340499825776</ele>
        <time>2022-05-16T08:00:23Z</time>
      </trkpt>
      <trkpt lat="42.310579" lon="-4.067991">
        <ele>879.2456996859983</ele>
        <time>2022-05-16T08:00:30Z</time>
      </trkpt>
      <trkpt lat="42.310572" lon="-4.068127">
        <ele>877.8061230899766</ele>
        <time>2022-05-16T08:00:40Z</time>
      </trkpt>
      <trkpt lat="42.310529" lon="-4.068251">
        <ele>877.0688575087115</ele>
        <time>2022-05-16T08:00:49Z</time>
      </trkpt>
      <trkpt lat="42.310514" lon="-4.068372">
        <ele>877.102103552781</ele>
        <time>2022-05-16T08:00:58Z</time>
      </trkpt>
      <trkpt lat="42.310522" lon="-4.068499">
        <ele>876.9159212829545</ele>
        <time>2022-05-16T08:01:04Z</time>
      </trkpt>
      <trkpt lat="42.310539" lon="-4.068631">
        <ele>876.0992641476914</ele>
        <time>2022-05-16T08:01:10Z</time>
      </trkpt>
      <trkpt lat="42.310561" lon="-4.068757">
        <ele>877.9273162279278</ele>
        <time>2022-05-16T08:01:16Z</time>
      </trkpt>
      <trkpt lat="42.310553" lon="-4.068895">
        <ele>881.6803691294044</ele>
        <time>2022-05-16T08:01:54Z</time>
      </trkpt>
      <trkpt lat="42.310573" lon="-4.06902">
        <ele>885.8575253784657</ele>
        <time>2022-05-16T08:02:01Z</time>
      </trkpt>
      <trkpt lat="42.310573" lon="-4.069155">
        <ele>889.2214223314077</ele>
        <time>2022-05-16T08:02:11Z</time>
      </trkpt>
      <trkpt lat="42.310559" lon="-4.069284">
        <ele>890.4912927858531</ele>
        <time>2022-05-16T08:02:21Z</time>
      </trkpt>
      <trkpt lat="42.310549" lon="-4.069415">
        <ele>892.5954105490819</ele>
        <time>2022-05-16T08:02:30Z</time>
      </trkpt>
      <trkpt lat="42.310581" lon="-4.069536">
        <ele>894.9268742324784</ele>
        <time>2022-05-16T08:02:39Z</time>
      </trkpt>
      <trkpt lat="42.310608" lon="-4.069664">
        <ele>896.4537386540323</ele>
        <time>2022-05-16T08:02:48Z</time>
      </trkpt>
      <trkpt lat="42.310641" lon="-4.06978">
        <ele>896.9175430731848</ele>
        <time>2022-05-16T08:02:56Z</time>
      </trkpt>
      <trkpt lat="42.310658" lon="-4.069906">
        <ele>898.5742280753329</ele>
        <time>2022-05-16T08:03:06Z</time>
      </trkpt>
      <trkpt lat="42.310662" lon="-4.07004">
        <ele>897.2749036569148</ele>
        <time>2022-05-16T08:03:15Z</time>
      </trkpt>
      <trkpt lat="42.31065" lon="-4.070178">
        <ele>894.8012991463766</ele>
        <time>2022-05-16T08:03:23Z</time>
      </trkpt>
      <trkpt lat="42.310674" lon="-4.070303">
        <ele>894.783516664058</ele>
        <time>2022-05-16T08:03:30Z</time>
      </trkpt>
      <trkpt lat="42.310684" lon="-4.070451">
        <ele>894.3613246493042</ele>
        <time>2022-05-16T08:03:38Z</time>
      </trkpt>
      <trkpt lat="42.310658" lon="-4.070582">
        <ele>892.8200354576111</ele>
        <time>2022-05-16T08:03:48Z</time>
      </trkpt>
      <trkpt lat="42.310594" lon="-4.070694">
        <ele>891.5135419527069</ele>
        <time>2022-05-16T08:03:58Z</time>
      </trkpt>
      <trkpt lat="42.310528" lon="-4.070791">
        <ele>890.2644643979147</ele>
        <time>2022-05-16T08:04:09Z</time>
      </trkpt>
      <trkpt lat="42.310468" lon="-4.070894">
        <ele>890.3512145122513</ele>
        <time>2022-05-16T08:04:20Z</time>
      </trkpt>
      <trkpt lat="42.310386" lon="-4.070998">
        <ele>890.0482845017686</ele>
        <time>2022-05-16T08:04:29Z</time>
      </trkpt>
      <trkpt lat="42.310334" lon="-4.0711">
        <ele>889.5104281008244</ele>
        <time>2022-05-16T08:04:37Z</time>
      </trkpt>
      <trkpt lat="42.310298" lon="-4.071225">
        <ele>889.6682757241651</ele>
        <time>2022-05-16T08:04:44Z</time>
      </trkpt>
      <trkpt lat="42.310237" lon="-4.071322">
        <ele>888.9214063007385</ele>
        <time>2022-05-16T08:04:51Z</time>
      </trkpt>
      <trkpt lat="42.310182" lon="-4.071418">
        <ele>888.2131638601422</ele>
        <time>2022-05-16T08:04:57Z</time>
      </trkpt>
      <trkpt lat="42.310131" lon="-4.07154">
        <ele>888.02848484274</ele>
        <time>2022-05-16T08:05:04Z</time>
      </trkpt>
      <trkpt lat="42.310065" lon="-4.071643">
        <ele>886.57691372931</ele>
        <time>2022-05-16T08:05:11Z</time>
      </trkpt>
      <trkpt lat="42.310016" lon="-4.071765">
        <ele>885.9588041976094</ele>
        <time>2022-05-16T08:05:17Z</time>
      </trkpt>
      <trkpt lat="42.309969" lon="-4.071885">
        <ele>884.6213722163811</ele>
        <time>2022-05-16T08:05:25Z</time>
      </trkpt>
      <trkpt lat="42.309919" lon="-4.072006">
        <ele>884.1097317254171</ele>
        <time>2022-05-16T08:05:32Z</time>
      </trkpt>
      <trkpt lat="42.309892" lon="-4.072131">
        <ele>884.2518492639065</ele>
        <time>2022-05-16T08:05:40Z</time>
      </trkpt>
      <trkpt lat="42.309852" lon="-4.072255">
        <ele>884.9090012544766</ele>
        <time>2022-05-16T08:05:47Z</time>
      </trkpt>
      <trkpt lat="42.309854" lon="-4.072393">
        <ele>884.7210812801495</ele>
        <time>2022-05-16T08:05:57Z</time>
      </trkpt>
      <trkpt lat="42.309849" lon="-4.072522">
        <ele>884.9415034512058</ele>
        <time>2022-05-16T08:06:06Z</time>
      </trkpt>
      <trkpt lat="42.309823" lon="-4.072648">
        <ele>884.7573010195047</ele>
        <time>2022-05-16T08:06:14Z</time>
      </trkpt>
      <trkpt lat="42.309802" lon="-4.07278">
        <ele>884.3542021214962</ele>
        <time>2022-05-16T08:06:22Z</time>
      </trkpt>
      <trkpt lat="42.309778" lon="-4.072899">
        <ele>885.3235721783713</ele>
        <time>2022-05-16T08:06:29Z</time>
      </trkpt>
      <trkpt lat="42.309753" lon="-4.073025">
        <ele>886.42359139584</ele>
        <time>2022-05-16T08:06:36Z</time>
      </trkpt>
      <trkpt lat="42.309711" lon="-4.073147">
        <ele>886.266174714081</ele>
        <time>2022-05-16T08:06:43Z</time>
      </trkpt>
      <trkpt lat="42.309693" lon="-4.073283">
        <ele>886.8183048916981</ele>
        <time>2022-05-16T08:06:51Z</time>
      </trkpt>
      <trkpt lat="42.3097" lon="-4.07341">
        <ele>886.1980902161449</ele>
        <time>2022-05-16T08:06:57Z</time>
      </trkpt>
      <trkpt lat="42.309687" lon="-4.073545">
        <ele>886.2328311121091</ele>
        <time>2022-05-16T08:07:04Z</time>
      </trkpt>
      <trkpt lat="42.309674" lon="-4.073684">
        <ele>887.3139150738716</ele>
        <time>2022-05-16T08:07:10Z</time>
      </trkpt>
      <trkpt lat="42.309661" lon="-4.073805">
        <ele>888.224998886697</ele>
        <time>2022-05-16T08:07:16Z</time>
      </trkpt>
      <trkpt lat="42.309647" lon="-4.073959">
        <ele>888.8223675247282</ele>
        <time>2022-05-16T08:07:24Z</time>
      </trkpt>
      <trkpt lat="42.309652" lon="-4.074087">
        <ele>889.2508609611541</ele>
        <time>2022-05-16T08:07:29Z</time>
      </trkpt>
      <trkpt lat="42.30965" lon="-4.074226">
        <ele>889.87035605032</ele>
        <time>2022-05-16T08:07:35Z</time>
      </trkpt>
      <trkpt lat="42.309661" lon="-4.074356">
        <ele>889.1625732518733</ele>
        <time>2022-05-16T08:07:41Z</time>
      </trkpt>
      <trkpt lat="42.309657" lon="-4.07448">
        <ele>889.6353402286768</ele>
        <time>2022-05-16T08:07:47Z</time>
      </trkpt>
      <trkpt lat="42.309646" lon="-4.074602">
        <ele>890.225057429634</ele>
        <time>2022-05-16T08:07:52Z</time>
      </trkpt>
      <trkpt lat="42.309617" lon="-4.074735">
        <ele>892.7031297544017</ele>
        <time>2022-05-16T08:07:58Z</time>
      </trkpt>
      <trkpt lat="42.309582" lon="-4.074878">
        <ele>896.7179012019187</ele>
        <time>2022-05-16T08:08:05Z</time>
      </trkpt>
      <trkpt lat="42.309551" lon="-4.074995">
        <ele>896.7852972391993</ele>
        <time>2022-05-16T08:08:12Z</time>
      </trkpt>
      <trkpt lat="42.309522" lon="-4.075126">
        <ele>897.9561507673934</ele>
        <time>2022-05-16T08:08:20Z</time>
      </trkpt>
      <trkpt lat="42.309494" lon="-4.075247">
        <ele>893.5857507307082</ele>
        <time>2022-05-16T08:08:28Z</time>
      </trkpt>
      <trkpt lat="42.309434" lon="-4.075338">
        <ele>889.7930705314502</ele>
        <time>2022-05-16T08:08:37Z</time>
      </trkpt>
      <trkpt lat="42.309415" lon="-4.075465">
        <ele>888.5637858761474</ele>
        <time>2022-05-16T08:08:45Z</time>
      </trkpt>
      <trkpt lat="42.309398" lon="-4.075601">
        <ele>884.8810236947611</ele>
        <time>2022-05-16T08:08:53Z</time>
      </trkpt>
      <trkpt lat="42.309352" lon="-4.075711">
        <ele>881.4993994412944</ele>
        <time>2022-05-16T08:09:01Z</time>
      </trkpt>
      <trkpt lat="42.30932" lon="-4.075825">
        <ele>879.3732693847269</ele>
        <time>2022-05-16T08:09:08Z</time>
      </trkpt>
      <trkpt lat="42.309283" lon="-4.075955">
        <ele>876.2738242326304</ele>
        <time>2022-05-16T08:09:16Z</time>
      </trkpt>
      <trkpt lat="42.309229" lon="-4.076074">
        <ele>875.0808735229075</ele>
        <time>2022-05-16T08:09:23Z</time>
      </trkpt>
      <trkpt lat="42.309186" lon="-4.076199">
        <ele>874.2430505249649</ele>
        <time>2022-05-16T08:09:32Z</time>
      </trkpt>
      <trkpt lat="42.309172" lon="-4.076333">
        <ele>872.7716034315526</ele>
        <time>2022-05-16T08:09:38Z</time>
      </trkpt>
      <trkpt lat="42.30913" lon="-4.076455">
        <ele>871.878311926499</ele>
        <time>2022-05-16T08:09:47Z</time>
      </trkpt>
      <trkpt lat="42.309096" lon="-4.076568">
        <ele>872.730619517155</ele>
        <time>2022-05-16T08:09:53Z</time>
      </trkpt>
      <trkpt lat="42.309053" lon="-4.076689">
        <ele>872.9827198488638</ele>
        <time>2022-05-16T08:10:02Z</time>
      </trkpt>
      <trkpt lat="42.309045" lon="-4.076831">
        <ele>875.044731608592</ele>
        <time>2022-05-16T08:10:11Z</time>
      </trkpt>
      <trkpt lat="42.309047" lon="-4.076964">
        <ele>877.2399138901383</ele>
        <time>2022-05-16T08:10:18Z</time>
      </trkpt>
      <trkpt lat="42.309034" lon="-4.077086">
        <ele>877.5079658739269</ele>
        <time>2022-05-16T08:10:26Z</time>
      </trkpt>
      <trkpt lat="42.309015" lon="-4.077213">
        <ele>880.9832292310894</ele>
        <time>2022-05-16T08:10:33Z</time>
      </trkpt>
      <trkpt lat="42.308974" lon="-4.077322">
        <ele>881.4650300834328</ele>
        <time>2022-05-16T08:10:40Z</time>
      </trkpt>
      <trkpt lat="42.30894" lon="-4.077434">
        <ele>881.6625523241237</ele>
        <time>2022-05-16T08:10:47Z</time>
      </trkpt>
      <trkpt lat="42.308908" lon="-4.07755">
        <ele>879.18322672043</ele>
        <time>2022-05-16T08:10:54Z</time>
      </trkpt>
      <trkpt lat="42.308885" lon="-4.07767">
        <ele>878.5424657994881</ele>
        <time>2022-05-16T08:11:03Z</time>
      </trkpt>
      <trkpt lat="42.308848" lon="-4.077803">
        <ele>877.4522829577327</ele>
        <time>2022-05-16T08:11:12Z</time>
      </trkpt>
      <trkpt lat="42.308813" lon="-4.077923">
        <ele>876.3708289880306</ele>
        <time>2022-05-16T08:11:20Z</time>
      </trkpt>
      <trkpt lat="42.308771" lon="-4.078033">
        <ele>875.5843457896262</ele>
        <time>2022-05-16T08:11:29Z</time>
      </trkpt>
      <trkpt lat="42.308736" lon="-4.078156">
        <ele>877.3133177561685</ele>
        <time>2022-05-16T08:11:38Z</time>
      </trkpt>
      <trkpt lat="42.308697" lon="-4.078282">
        <ele>878.5874536978081</ele>
        <time>2022-05-16T08:11:49Z</time>
      </trkpt>
      <trkpt lat="42.308647" lon="-4.078399">
        <ele>879.1406413242221</ele>
        <time>2022-05-16T08:11:57Z</time>
      </trkpt>
      <trkpt lat="42.30862" lon="-4.078524">
        <ele>882.3952896315604</ele>
        <time>2022-05-16T08:12:05Z</time>
      </trkpt>
      <trkpt lat="42.308617" lon="-4.078661">
        <ele>882.096765187569</ele>
        <time>2022-05-16T08:12:12Z</time>
      </trkpt>
      <trkpt lat="42.308612" lon="-4.07879">
        <ele>883.2675803462043</ele>
        <time>2022-05-16T08:12:19Z</time>
      </trkpt>
      <trkpt lat="42.308604" lon="-4.078913">
        <ele>884.6813897900283</ele>
        <time>2022-05-16T08:12:25Z</time>
      </trkpt>
      <trkpt lat="42.308562" lon="-4.079024">
        <ele>884.8691914929077</ele>
        <time>2022-05-16T08:12:33Z</time>
      </trkpt>
      <trkpt lat="42.30851" lon="-4.079146">
        <ele>884.9846108164638</ele>
        <time>2022-05-16T08:12:40Z</time>
      </trkpt>
      <trkpt lat="42.308462" lon="-4.079256">
        <ele>883.9652164969593</ele>
        <time>2022-05-16T08:12:49Z</time>
      </trkpt>
      <trkpt lat="42.308445" lon="-4.079377">
        <ele>886.4932777350768</ele>
        <time>2022-05-16T08:12:57Z</time>
      </trkpt>
      <trkpt lat="42.308417" lon="-4.079496">
        <ele>887.395319682546</ele>
        <time>2022-05-16T08:13:04Z</time>
      </trkpt>
      <trkpt lat="42.308377" lon="-4.079612">
        <ele>886.5031709419563</ele>
        <time>2022-05-16T08:13:11Z</time>
      </trkpt>
      <trkpt lat="42.308326" lon="-4.079727">
        <ele>886.6328888293356</ele>
        <time>2022-05-16T08:13:17Z</time>
      </trkpt>
      <trkpt lat="42.308286" lon="-4.079857">
        <ele>885.4085016418248</ele>
        <time>2022-05-16T08:13:23Z</time>
      </trkpt>
      <trkpt lat="42.308234" lon="-4.079968">
        <ele>885.1905435090885</ele>
        <time>2022-05-16T08:13:29Z</time>
      </trkpt>
      <trkpt lat="42.308188" lon="-4.080091">
        <ele>884.0499697653577</ele>
        <time>2022-05-16T08:13:36Z</time>
      </trkpt>
      <trkpt lat="42.308152" lon="-4.080212">
        <ele>883.5453767422587</ele>
        <time>2022-05-16T08:13:42Z</time>
      </trkpt>
      <trkpt lat="42.308116" lon="-4.080339">
        <ele>883.0624216170982</ele>
        <time>2022-05-16T08:13:50Z</time>
      </trkpt>
      <trkpt lat="42.308078" lon="-4.080463">
        <ele>884.5735871801153</ele>
        <time>2022-05-16T08:13:58Z</time>
      </trkpt>
      <trkpt lat="42.308045" lon="-4.080578">
        <ele>884.7036148225889</ele>
        <time>2022-05-16T08:14:04Z</time>
      </trkpt>
      <trkpt lat="42.308004" lon="-4.080721">
        <ele>885.0110316695645</ele>
        <time>2022-05-16T08:14:13Z</time>
      </trkpt>
      <trkpt lat="42.307953" lon="-4.080837">
        <ele>885.3700016075745</ele>
        <time>2022-05-16T08:14:20Z</time>
      </trkpt>
      <trkpt lat="42.307923" lon="-4.080958">
        <ele>886.7732105217874</ele>
        <time>2022-05-16T08:14:28Z</time>
      </trkpt>
      <trkpt lat="42.30789" lon="-4.081072">
        <ele>887.1093772407621</ele>
        <time>2022-05-16T08:14:36Z</time>
      </trkpt>
      <trkpt lat="42.307839" lon="-4.081175">
        <ele>886.7776443781331</ele>
        <time>2022-05-16T08:14:44Z</time>
      </trkpt>
      <trkpt lat="42.307802" lon="-4.081287">
        <ele>887.1276221582666</ele>
        <time>2022-05-16T08:14:51Z</time>
      </trkpt>
      <trkpt lat="42.307764" lon="-4.08141">
        <ele>888.7608292158693</ele>
        <time>2022-05-16T08:15:00Z</time>
      </trkpt>
      <trkpt lat="42.3077" lon="-4.081516">
        <ele>890.8364154566079</ele>
        <time>2022-05-16T08:15:08Z</time>
      </trkpt>
      <trkpt lat="42.307648" lon="-4.081627">
        <ele>891.2767460104078</ele>
        <time>2022-05-16T08:15:16Z</time>
      </trkpt>
      <trkpt lat="42.307599" lon="-4.081732">
        <ele>891.6060829507187</ele>
        <time>2022-05-16T08:15:23Z</time>
      </trkpt>
      <trkpt lat="42.307548" lon="-4.081844">
        <ele>892.9896324574947</ele>
        <time>2022-05-16T08:15:30Z</time>
      </trkpt>
      <trkpt lat="42.30749" lon="-4.081943">
        <ele>893.1309831244871</ele>
        <time>2022-05-16T08:15:36Z</time>
      </trkpt>
      <trkpt lat="42.307434" lon="-4.08204">
        <ele>894.4894267683849</ele>
        <time>2022-05-16T08:15:43Z</time>
      </trkpt>
      <trkpt lat="42.307367" lon="-4.082141">
        <ele>895.1127912765369</ele>
        <time>2022-05-16T08:15:51Z</time>
      </trkpt>
      <trkpt lat="42.307313" lon="-4.082262">
        <ele>894.3258230006322</ele>
        <time>2022-05-16T08:15:59Z</time>
      </trkpt>
      <trkpt lat="42.307271" lon="-4.08237">
        <ele>894.0840735156089</ele>
        <time>2022-05-16T08:16:05Z</time>
      </trkpt>
      <trkpt lat="42.307232" lon="-4.082483">
        <ele>894.5593081321567</ele>
        <time>2022-05-16T08:16:11Z</time>
      </trkpt>
      <trkpt lat="42.30719" lon="-4.082599">
        <ele>894.2044132230803</ele>
        <time>2022-05-16T08:16:18Z</time>
      </trkpt>
      <trkpt lat="42.307152" lon="-4.082719">
        <ele>893.6899120444432</ele>
        <time>2022-05-16T08:16:26Z</time>
      </trkpt>
      <trkpt lat="42.307123" lon="-4.082845">
        <ele>893.9603165667504</ele>
        <time>2022-05-16T08:16:33Z</time>
      </trkpt>
      <trkpt lat="42.307111" lon="-4.082973">
        <ele>893.2209550682455</ele>
        <time>2022-05-16T08:16:40Z</time>
      </trkpt>
      <trkpt lat="42.307062" lon="-4.083093">
        <ele>894.2872386099771</ele>
        <time>2022-05-16T08:16:49Z</time>
      </trkpt>
      <trkpt lat="42.306997" lon="-4.083191">
        <ele>895.3733020490035</ele>
        <time>2022-05-16T08:16:57Z</time>
      </trkpt>
      <trkpt lat="42.306959" lon="-4.08332">
        <ele>896.4789582509547</ele>
        <time>2022-05-16T08:17:06Z</time>
      </trkpt>
      <trkpt lat="42.306912" lon="-4.08343">
        <ele>896.175901344046</ele>
        <time>2022-05-16T08:17:13Z</time>
      </trkpt>
      <trkpt lat="42.306851" lon="-4.083525">
        <ele>897.868064198643</ele>
        <time>2022-05-16T08:17:20Z</time>
      </trkpt>
      <trkpt lat="42.306791" lon="-4.083619">
        <ele>898.7666386812925</ele>
        <time>2022-05-16T08:17:26Z</time>
      </trkpt>
      <trkpt lat="42.306721" lon="-4.083702">
        <ele>898.8532018372789</ele>
        <time>2022-05-16T08:17:33Z</time>
      </trkpt>
      <trkpt lat="42.306656" lon="-4.083799">
        <ele>898.9739592690021</ele>
        <time>2022-05-16T08:17:40Z</time>
      </trkpt>
      <trkpt lat="42.306604" lon="-4.083939">
        <ele>897.9725234834477</ele>
        <time>2022-05-16T08:17:49Z</time>
      </trkpt>
      <trkpt lat="42.306537" lon="-4.084021">
        <ele>897.236414107494</ele>
        <time>2022-05-16T08:17:59Z</time>
      </trkpt>
      <trkpt lat="42.30648" lon="-4.084152">
        <ele>897.7341241473332</ele>
        <time>2022-05-16T08:18:09Z</time>
      </trkpt>
      <trkpt lat="42.306418" lon="-4.084249">
        <ele>896.6260191267356</ele>
        <time>2022-05-16T08:18:17Z</time>
      </trkpt>
      <trkpt lat="42.306348" lon="-4.084342">
        <ele>894.4980642367154</ele>
        <time>2022-05-16T08:18:27Z</time>
      </trkpt>
      <trkpt lat="42.306279" lon="-4.084425">
        <ele>895.3179042302072</ele>
        <time>2022-05-16T08:18:35Z</time>
      </trkpt>
      <trkpt lat="42.306196" lon="-4.084481">
        <ele>894.6077591087669</ele>
        <time>2022-05-16T08:18:42Z</time>
      </trkpt>
      <trkpt lat="42.306115" lon="-4.08456">
        <ele>895.7740297587588</ele>
        <time>2022-05-16T08:18:50Z</time>
      </trkpt>
      <trkpt lat="42.306047" lon="-4.084646">
        <ele>896.447696942836</ele>
        <time>2022-05-16T08:18:57Z</time>
      </trkpt>
      <trkpt lat="42.305994" lon="-4.084761">
        <ele>896.9664070578292</ele>
        <time>2022-05-16T08:19:05Z</time>
      </trkpt>
      <trkpt lat="42.305932" lon="-4.084855">
        <ele>897.0594792440534</ele>
        <time>2022-05-16T08:19:12Z</time>
      </trkpt>
      <trkpt lat="42.305867" lon="-4.084959">
        <ele>895.9464852800593</ele>
        <time>2022-05-16T08:19:19Z</time>
      </trkpt>
      <trkpt lat="42.305805" lon="-4.085054">
        <ele>893.7687976351008</ele>
        <time>2022-05-16T08:19:25Z</time>
      </trkpt>
      <trkpt lat="42.305741" lon="-4.085154">
        <ele>892.9492352893576</ele>
        <time>2022-05-16T08:19:32Z</time>
      </trkpt>
      <trkpt lat="42.305677" lon="-4.085258">
        <ele>892.7129762237892</ele>
        <time>2022-05-16T08:19:40Z</time>
      </trkpt>
      <trkpt lat="42.305613" lon="-4.085344">
        <ele>894.4262101072818</ele>
        <time>2022-05-16T08:19:47Z</time>
      </trkpt>
      <trkpt lat="42.305552" lon="-4.085452">
        <ele>894.1889664484188</ele>
        <time>2022-05-16T08:19:54Z</time>
      </trkpt>
      <trkpt lat="42.305477" lon="-4.085546">
        <ele>893.0168793722987</ele>
        <time>2022-05-16T08:20:01Z</time>
      </trkpt>
      <trkpt lat="42.305411" lon="-4.085646">
        <ele>891.7898343848065</ele>
        <time>2022-05-16T08:20:08Z</time>
      </trkpt>
      <trkpt lat="42.305346" lon="-4.085744">
        <ele>889.7774384682998</ele>
        <time>2022-05-16T08:20:17Z</time>
      </trkpt>
      <trkpt lat="42.305279" lon="-4.085846">
        <ele>888.0755298119038</ele>
        <time>2022-05-16T08:20:26Z</time>
      </trkpt>
      <trkpt lat="42.305207" lon="-4.08592">
        <ele>887.1983244596049</ele>
        <time>2022-05-16T08:20:33Z</time>
      </trkpt>
      <trkpt lat="42.305139" lon="-4.086002">
        <ele>886.5924008591101</ele>
        <time>2022-05-16T08:20:41Z</time>
      </trkpt>
      <trkpt lat="42.305062" lon="-4.086085">
        <ele>886.244214033708</ele>
        <time>2022-05-16T08:20:49Z</time>
      </trkpt>
      <trkpt lat="42.304995" lon="-4.08618">
        <ele>886.7500829650089</ele>
        <time>2022-05-16T08:20:59Z</time>
      </trkpt>
      <trkpt lat="42.304905" lon="-4.086281">
        <ele>886.8446482717991</ele>
        <time>2022-05-16T08:21:08Z</time>
      </trkpt>
      <trkpt lat="42.304822" lon="-4.086359">
        <ele>887.6530086509883</ele>
        <time>2022-05-16T08:21:15Z</time>
      </trkpt>
      <trkpt lat="42.304758" lon="-4.086468">
        <ele>888.4061285993084</ele>
        <time>2022-05-16T08:21:23Z</time>
      </trkpt>
      <trkpt lat="42.304705" lon="-4.086585">
        <ele>888.9504864579067</ele>
        <time>2022-05-16T08:21:31Z</time>
      </trkpt>
      <trkpt lat="42.304637" lon="-4.086681">
        <ele>889.9583293590695</ele>
        <time>2022-05-16T08:21:39Z</time>
      </trkpt>
      <trkpt lat="42.30457" lon="-4.086773">
        <ele>889.4969454277307</ele>
        <time>2022-05-16T08:21:46Z</time>
      </trkpt>
      <trkpt lat="42.30452" lon="-4.086878">
        <ele>890.7173267416656</ele>
        <time>2022-05-16T08:21:51Z</time>
      </trkpt>
      <trkpt lat="42.304458" lon="-4.086969">
        <ele>890.300370329991</ele>
        <time>2022-05-16T08:21:59Z</time>
      </trkpt>
      <trkpt lat="42.304379" lon="-4.087057">
        <ele>888.7730182344094</ele>
        <time>2022-05-16T08:22:06Z</time>
      </trkpt>
      <trkpt lat="42.304317" lon="-4.087159">
        <ele>888.3580950405449</ele>
        <time>2022-05-16T08:22:13Z</time>
      </trkpt>
      <trkpt lat="42.304247" lon="-4.087249">
        <ele>886.9429746111855</ele>
        <time>2022-05-16T08:22:21Z</time>
      </trkpt>
      <trkpt lat="42.304175" lon="-4.087335">
        <ele>886.6060469904914</ele>
        <time>2022-05-16T08:22:28Z</time>
      </trkpt>
      <trkpt lat="42.304122" lon="-4.087438">
        <ele>887.1550872437656</ele>
        <time>2022-05-16T08:22:36Z</time>
      </trkpt>
      <trkpt lat="42.304059" lon="-4.087528">
        <ele>887.5620931824669</ele>
        <time>2022-05-16T08:22:43Z</time>
      </trkpt>
      <trkpt lat="42.303967" lon="-4.087576">
        <ele>889.8544865930453</ele>
        <time>2022-05-16T08:22:52Z</time>
      </trkpt>
      <trkpt lat="42.303882" lon="-4.087529">
        <ele>888.2113675521687</ele>
        <time>2022-05-16T08:22:59Z</time>
      </trkpt>
      <trkpt lat="42.303792" lon="-4.087501">
        <ele>888.0104483887553</ele>
        <time>2022-05-16T08:23:05Z</time>
      </trkpt>
      <trkpt lat="42.303707" lon="-4.087456">
        <ele>888.9595745969564</ele>
        <time>2022-05-16T08:23:12Z</time>
      </trkpt>
      <trkpt lat="42.303619" lon="-4.087406">
        <ele>887.7927217679098</ele>
        <time>2022-05-16T08:23:24Z</time>
      </trkpt>
      <trkpt lat="42.303509" lon="-4.087376">
        <ele>888.6152658574283</ele>
        <time>2022-05-16T08:23:38Z</time>
      </trkpt>
      <trkpt lat="42.303414" lon="-4.087358">
        <ele>888.2173829628155</ele>
        <time>2022-05-16T08:23:44Z</time>
      </trkpt>
      <trkpt lat="42.303318" lon="-4.087348">
        <ele>889.1712526120245</ele>
        <time>2022-05-16T08:23:51Z</time>
      </trkpt>
      <trkpt lat="42.30322" lon="-4.087316">
        <ele>887.6746646165848</ele>
        <time>2022-05-16T08:24:00Z</time>
      </trkpt>
      <trkpt lat="42.303116" lon="-4.087294">
        <ele>887.9428091812879</ele>
        <time>2022-05-16T08:24:09Z</time>
      </trkpt>
      <trkpt lat="42.303024" lon="-4.087305">
        <ele>888.8155796956271</ele>
        <time>2022-05-16T08:24:17Z</time>
      </trkpt>
      <trkpt lat="42.302974" lon="-4.087418">
        <ele>887.4686327343807</ele>
        <time>2022-05-16T08:24:31Z</time>
      </trkpt>
      <trkpt lat="42.302931" lon="-4.087529">
        <ele>886.358232033439</ele>
        <time>2022-05-16T08:24:39Z</time>
      </trkpt>
      <trkpt lat="42.302899" lon="-4.08765">
        <ele>885.5697666043416</ele>
        <time>2022-05-16T08:24:46Z</time>
      </trkpt>
      <trkpt lat="42.302853" lon="-4.08777">
        <ele>884.8579532261938</ele>
        <time>2022-05-16T08:24:52Z</time>
      </trkpt>
      <trkpt lat="42.302814" lon="-4.087889">
        <ele>882.2729775644839</ele>
        <time>2022-05-16T08:25:00Z</time>
      </trkpt>
      <trkpt lat="42.30279" lon="-4.088007">
        <ele>881.2912400690839</ele>
        <time>2022-05-16T08:25:07Z</time>
      </trkpt>
      <trkpt lat="42.302763" lon="-4.088128">
        <ele>880.5618479568511</ele>
        <time>2022-05-16T08:25:16Z</time>
      </trkpt>
      <trkpt lat="42.302718" lon="-4.088247">
        <ele>879.9370318250731</ele>
        <time>2022-05-16T08:25:24Z</time>
      </trkpt>
      <trkpt lat="42.302673" lon="-4.088356">
        <ele>879.8147162022069</ele>
        <time>2022-05-16T08:25:31Z</time>
      </trkpt>
      <trkpt lat="42.30262" lon="-4.088469">
        <ele>880.6993463775143</ele>
        <time>2022-05-16T08:25:39Z</time>
      </trkpt>
      <trkpt lat="42.302562" lon="-4.088565">
        <ele>881.4122406216338</ele>
        <time>2022-05-16T08:25:46Z</time>
      </trkpt>
      <trkpt lat="42.30251" lon="-4.08867">
        <ele>882.5517004486173</ele>
        <time>2022-05-16T08:25:53Z</time>
      </trkpt>
      <trkpt lat="42.302485" lon="-4.0888">
        <ele>883.0335050383583</ele>
        <time>2022-05-16T08:26:02Z</time>
      </trkpt>
      <trkpt lat="42.302437" lon="-4.088907">
        <ele>881.358181132935</ele>
        <time>2022-05-16T08:26:10Z</time>
      </trkpt>
      <trkpt lat="42.302403" lon="-4.089019">
        <ele>881.6226166132838</ele>
        <time>2022-05-16T08:26:17Z</time>
      </trkpt>
      <trkpt lat="42.30235" lon="-4.089133">
        <ele>880.9845402846113</ele>
        <time>2022-05-16T08:26:24Z</time>
      </trkpt>
      <trkpt lat="42.3023" lon="-4.089236">
        <ele>884.2948942631483</ele>
        <time>2022-05-16T08:26:31Z</time>
      </trkpt>
      <trkpt lat="42.302252" lon="-4.089359">
        <ele>885.4536399245262</ele>
        <time>2022-05-16T08:26:39Z</time>
      </trkpt>
      <trkpt lat="42.302206" lon="-4.08947">
        <ele>885.5537293506786</ele>
        <time>2022-05-16T08:26:46Z</time>
      </trkpt>
      <trkpt lat="42.302164" lon="-4.089578">
        <ele>885.4582611983642</ele>
        <time>2022-05-16T08:26:52Z</time>
      </trkpt>
      <trkpt lat="42.302105" lon="-4.08968">
        <ele>885.6432193210348</ele>
        <time>2022-05-16T08:26:59Z</time>
      </trkpt>
      <trkpt lat="42.302059" lon="-4.089788">
        <ele>885.3747261948884</ele>
        <time>2022-05-16T08:27:08Z</time>
      </trkpt>
      <trkpt lat="42.302032" lon="-4.089908">
        <ele>884.8367305947468</ele>
        <time>2022-05-16T08:27:16Z</time>
      </trkpt>
      <trkpt lat="42.301982" lon="-4.090013">
        <ele>883.9447440821677</ele>
        <time>2022-05-16T08:27:26Z</time>
      </trkpt>
      <trkpt lat="42.301937" lon="-4.090126">
        <ele>885.0302732754499</ele>
        <time>2022-05-16T08:27:33Z</time>
      </trkpt>
      <trkpt lat="42.301885" lon="-4.090241">
        <ele>885.0048666577786</ele>
        <time>2022-05-16T08:27:41Z</time>
      </trkpt>
      <trkpt lat="42.301839" lon="-4.090365">
        <ele>882.8753124084324</ele>
        <time>2022-05-16T08:27:49Z</time>
      </trkpt>
      <trkpt lat="42.30179" lon="-4.090474">
        <ele>880.7386285886168</ele>
        <time>2022-05-16T08:27:56Z</time>
      </trkpt>
      <trkpt lat="42.30175" lon="-4.090601">
        <ele>881.4019326008856</ele>
        <time>2022-05-16T08:28:04Z</time>
      </trkpt>
      <trkpt lat="42.301698" lon="-4.090712">
        <ele>881.5451472885907</ele>
        <time>2022-05-16T08:28:12Z</time>
      </trkpt>
      <trkpt lat="42.301643" lon="-4.090815">
        <ele>881.1687776446342</ele>
        <time>2022-05-16T08:28:19Z</time>
      </trkpt>
      <trkpt lat="42.301579" lon="-4.090924">
        <ele>879.9380576787516</ele>
        <time>2022-05-16T08:28:26Z</time>
      </trkpt>
      <trkpt lat="42.301524" lon="-4.091041">
        <ele>878.967032643035</ele>
        <time>2022-05-16T08:28:33Z</time>
      </trkpt>
      <trkpt lat="42.301455" lon="-4.091125">
        <ele>877.4384306594729</ele>
        <time>2022-05-16T08:28:41Z</time>
      </trkpt>
      <trkpt lat="42.301376" lon="-4.091212">
        <ele>874.7309281732887</ele>
        <time>2022-05-16T08:28:48Z</time>
      </trkpt>
      <trkpt lat="42.301286" lon="-4.091258">
        <ele>873.5791620016098</ele>
        <time>2022-05-16T08:28:56Z</time>
      </trkpt>
      <trkpt lat="42.30119" lon="-4.091327">
        <ele>872.9543069628999</ele>
        <time>2022-05-16T08:29:06Z</time>
      </trkpt>
      <trkpt lat="42.301082" lon="-4.091382">
        <ele>874.2791946390644</ele>
        <time>2022-05-16T08:29:16Z</time>
      </trkpt>
      <trkpt lat="42.300984" lon="-4.09144">
        <ele>875.3556594634429</ele>
        <time>2022-05-16T08:29:26Z</time>
      </trkpt>
      <trkpt lat="42.300895" lon="-4.091488">
        <ele>876.2332568345591</ele>
        <time>2022-05-16T08:29:34Z</time>
      </trkpt>
      <trkpt lat="42.300803" lon="-4.091547">
        <ele>877.2392112324014</ele>
        <time>2022-05-16T08:29:42Z</time>
      </trkpt>
      <trkpt lat="42.300721" lon="-4.09161">
        <ele>877.3751315688714</ele>
        <time>2022-05-16T08:29:49Z</time>
      </trkpt>
      <trkpt lat="42.300635" lon="-4.09167">
        <ele>878.5429202131927</ele>
        <time>2022-05-16T08:29:57Z</time>
      </trkpt>
      <trkpt lat="42.300549" lon="-4.091741">
        <ele>878.4058291111141</ele>
        <time>2022-05-16T08:30:05Z</time>
      </trkpt>
      <trkpt lat="42.300465" lon="-4.091823">
        <ele>878.0431820200756</ele>
        <time>2022-05-16T08:30:13Z</time>
      </trkpt>
      <trkpt lat="42.300389" lon="-4.09189">
        <ele>876.1489137895405</ele>
        <time>2022-05-16T08:30:19Z</time>
      </trkpt>
      <trkpt lat="42.3003" lon="-4.091921">
        <ele>876.6300995144993</ele>
        <time>2022-05-16T08:30:27Z</time>
      </trkpt>
      <trkpt lat="42.300211" lon="-4.091961">
        <ele>879.2890713559464</ele>
        <time>2022-05-16T08:30:37Z</time>
      </trkpt>
      <trkpt lat="42.300123" lon="-4.091987">
        <ele>880.0807487601414</ele>
        <time>2022-05-16T08:30:50Z</time>
      </trkpt>
      <trkpt lat="42.300069" lon="-4.092093">
        <ele>880.083518913947</ele>
        <time>2022-05-16T08:36:50Z</time>
      </trkpt>
      <trkpt lat="42.29999" lon="-4.092167">
        <ele>877.5642804717645</ele>
        <time>2022-05-16T08:36:57Z</time>
      </trkpt>
      <trkpt lat="42.299893" lon="-4.09222">
        <ele>877.3391079325229</ele>
        <time>2022-05-16T08:37:05Z</time>
      </trkpt>
      <trkpt lat="42.299816" lon="-4.092297">
        <ele>878.4254484567791</ele>
        <time>2022-05-16T08:37:13Z</time>
      </trkpt>
      <trkpt lat="42.299727" lon="-4.092351">
        <ele>877.1666321093217</ele>
        <time>2022-05-16T08:37:20Z</time>
      </trkpt>
      <trkpt lat="42.299647" lon="-4.092422">
        <ele>875.1329733068123</ele>
        <time>2022-05-16T08:37:28Z</time>
      </trkpt>
      <trkpt lat="42.299576" lon="-4.092504">
        <ele>873.4501744061708</ele>
        <time>2022-05-16T08:37:35Z</time>
      </trkpt>
      <trkpt lat="42.29948" lon="-4.092541">
        <ele>871.221790892072</ele>
        <time>2022-05-16T08:37:42Z</time>
      </trkpt>
      <trkpt lat="42.299392" lon="-4.092598">
        <ele>869.9678172850981</ele>
        <time>2022-05-16T08:37:48Z</time>
      </trkpt>
      <trkpt lat="42.299296" lon="-4.092632">
        <ele>869.552545950748</ele>
        <time>2022-05-16T08:37:55Z</time>
      </trkpt>
      <trkpt lat="42.299213" lon="-4.09269">
        <ele>869.345797217451</ele>
        <time>2022-05-16T08:38:08Z</time>
      </trkpt>
      <trkpt lat="42.299125" lon="-4.092739">
        <ele>866.2118583908305</ele>
        <time>2022-05-16T08:38:22Z</time>
      </trkpt>
      <trkpt lat="42.299038" lon="-4.092808">
        <ele>866.2858371343464</ele>
        <time>2022-05-16T08:38:33Z</time>
      </trkpt>
      <trkpt lat="42.298952" lon="-4.09287">
        <ele>865.1404358334839</ele>
        <time>2022-05-16T08:38:43Z</time>
      </trkpt>
      <trkpt lat="42.298868" lon="-4.092929">
        <ele>865.97887683101</ele>
        <time>2022-05-16T08:38:53Z</time>
      </trkpt>
      <trkpt lat="42.298787" lon="-4.093004">
        <ele>864.7431504372507</ele>
        <time>2022-05-16T08:39:03Z</time>
      </trkpt>
      <trkpt lat="42.298721" lon="-4.093094">
        <ele>861.9625843176618</ele>
        <time>2022-05-16T08:39:11Z</time>
      </trkpt>
      <trkpt lat="42.298639" lon="-4.093146">
        <ele>861.9352341778576</ele>
        <time>2022-05-16T08:39:21Z</time>
      </trkpt>
      <trkpt lat="42.298558" lon="-4.093216">
        <ele>861.7815301297233</ele>
        <time>2022-05-16T08:39:26Z</time>
      </trkpt>
      <trkpt lat="42.298476" lon="-4.093279">
        <ele>860.807588968426</ele>
        <time>2022-05-16T08:39:33Z</time>
      </trkpt>
      <trkpt lat="42.298393" lon="-4.09335">
        <ele>860.8124023731798</ele>
        <time>2022-05-16T08:39:41Z</time>
      </trkpt>
      <trkpt lat="42.298312" lon="-4.09341">
        <ele>861.366125293076</ele>
        <time>2022-05-16T08:39:49Z</time>
      </trkpt>
      <trkpt lat="42.298235" lon="-4.093472">
        <ele>861.8913274398074</ele>
        <time>2022-05-16T08:39:56Z</time>
      </trkpt>
      <trkpt lat="42.298158" lon="-4.093536">
        <ele>862.9094528388232</ele>
        <time>2022-05-16T08:40:04Z</time>
      </trkpt>
      <trkpt lat="42.298068" lon="-4.093591">
        <ele>863.1807177308947</ele>
        <time>2022-05-16T08:40:11Z</time>
      </trkpt>
      <trkpt lat="42.29798" lon="-4.093636">
        <ele>861.9293084181845</ele>
        <time>2022-05-16T08:40:16Z</time>
      </trkpt>
      <trkpt lat="42.297895" lon="-4.093676">
        <ele>863.1353925643489</ele>
        <time>2022-05-16T08:40:23Z</time>
      </trkpt>
      <trkpt lat="42.297807" lon="-4.093728">
        <ele>862.2584487125278</ele>
        <time>2022-05-16T08:40:29Z</time>
      </trkpt>
      <trkpt lat="42.297725" lon="-4.09379">
        <ele>862.8175262631848</ele>
        <time>2022-05-16T08:40:36Z</time>
      </trkpt>
      <trkpt lat="42.297635" lon="-4.093855">
        <ele>861.9145788485184</ele>
        <time>2022-05-16T08:40:44Z</time>
      </trkpt>
      <trkpt lat="42.297569" lon="-4.093939">
        <ele>863.2476592846215</ele>
        <time>2022-05-16T08:40:51Z</time>
      </trkpt>
      <trkpt lat="42.2975" lon="-4.094027">
        <ele>863.7389639141038</ele>
        <time>2022-05-16T08:41:00Z</time>
      </trkpt>
      <trkpt lat="42.297435" lon="-4.094116">
        <ele>864.0881817992777</ele>
        <time>2022-05-16T08:41:08Z</time>
      </trkpt>
      <trkpt lat="42.297365" lon="-4.094193">
        <ele>862.5534987365827</ele>
        <time>2022-05-16T08:41:15Z</time>
      </trkpt>
      <trkpt lat="42.297275" lon="-4.094251">
        <ele>859.7454846538603</ele>
        <time>2022-05-16T08:41:21Z</time>
      </trkpt>
      <trkpt lat="42.297204" lon="-4.094333">
        <ele>858.3301569856703</ele>
        <time>2022-05-16T08:41:29Z</time>
      </trkpt>
      <trkpt lat="42.297123" lon="-4.094399">
        <ele>855.7270267130807</ele>
        <time>2022-05-16T08:41:38Z</time>
      </trkpt>
      <trkpt lat="42.297039" lon="-4.09447">
        <ele>854.8479513945058</ele>
        <time>2022-05-16T08:41:51Z</time>
      </trkpt>
      <trkpt lat="42.296958" lon="-4.094547">
        <ele>858.616203263402</ele>
        <time>2022-05-16T08:41:59Z</time>
      </trkpt>
      <trkpt lat="42.296865" lon="-4.094616">
        <ele>858.6121008265764</ele>
        <time>2022-05-16T08:42:09Z</time>
      </trkpt>
      <trkpt lat="42.296769" lon="-4.094664">
        <ele>859.4077947633341</ele>
        <time>2022-05-16T08:42:16Z</time>
      </trkpt>
      <trkpt lat="42.296692" lon="-4.094741">
        <ele>859.9417233848944</ele>
        <time>2022-05-16T08:42:22Z</time>
      </trkpt>
      <trkpt lat="42.2966" lon="-4.094794">
        <ele>859.2121022036299</ele>
        <time>2022-05-16T08:42:30Z</time>
      </trkpt>
      <trkpt lat="42.296509" lon="-4.094855">
        <ele>857.6784209907055</ele>
        <time>2022-05-16T08:42:40Z</time>
      </trkpt>
      <trkpt lat="42.296439" lon="-4.094934">
        <ele>858.9988720463589</ele>
        <time>2022-05-16T08:42:47Z</time>
      </trkpt>
      <trkpt lat="42.296378" lon="-4.095037">
        <ele>858.916491205804</ele>
        <time>2022-05-16T08:42:55Z</time>
      </trkpt>
      <trkpt lat="42.296315" lon="-4.09513">
        <ele>858.8526172675192</ele>
        <time>2022-05-16T08:43:04Z</time>
      </trkpt>
      <trkpt lat="42.296241" lon="-4.095228">
        <ele>857.1258491855115</ele>
        <time>2022-05-16T08:43:12Z</time>
      </trkpt>
      <trkpt lat="42.29616" lon="-4.095283">
        <ele>858.5478978222236</ele>
        <time>2022-05-16T08:43:19Z</time>
      </trkpt>
      <trkpt lat="42.296069" lon="-4.095344">
        <ele>858.8443770334125</ele>
        <time>2022-05-16T08:43:27Z</time>
      </trkpt>
      <trkpt lat="42.295983" lon="-4.095401">
        <ele>857.2368472833186</ele>
        <time>2022-05-16T08:43:35Z</time>
      </trkpt>
      <trkpt lat="42.295893" lon="-4.095472">
        <ele>856.34032545425</ele>
        <time>2022-05-16T08:43:42Z</time>
      </trkpt>
      <trkpt lat="42.295808" lon="-4.09553">
        <ele>856.520173965022</ele>
        <time>2022-05-16T08:43:48Z</time>
      </trkpt>
      <trkpt lat="42.295728" lon="-4.095599">
        <ele>855.139100135304</ele>
        <time>2022-05-16T08:43:55Z</time>
      </trkpt>
      <trkpt lat="42.295634" lon="-4.095644">
        <ele>852.1408897684887</ele>
        <time>2022-05-16T08:44:04Z</time>
      </trkpt>
      <trkpt lat="42.295549" lon="-4.095691">
        <ele>851.5441766874865</ele>
        <time>2022-05-16T08:44:10Z</time>
      </trkpt>
      <trkpt lat="42.295476" lon="-4.095766">
        <ele>852.4082789542153</ele>
        <time>2022-05-16T08:44:15Z</time>
      </trkpt>
      <trkpt lat="42.295401" lon="-4.095844">
        <ele>856.1299832966179</ele>
        <time>2022-05-16T08:44:23Z</time>
      </trkpt>
      <trkpt lat="42.295313" lon="-4.095908">
        <ele>857.0272178454325</ele>
        <time>2022-05-16T08:44:29Z</time>
      </trkpt>
      <trkpt lat="42.295216" lon="-4.09595">
        <ele>856.763095238246</ele>
        <time>2022-05-16T08:44:35Z</time>
      </trkpt>
      <trkpt lat="42.295139" lon="-4.096018">
        <ele>856.4078106172383</ele>
        <time>2022-05-16T08:44:40Z</time>
      </trkpt>
      <trkpt lat="42.29505" lon="-4.096091">
        <ele>852.395216836594</ele>
        <time>2022-05-16T08:44:48Z</time>
      </trkpt>
      <trkpt lat="42.294983" lon="-4.096179">
        <ele>849.3807756556198</ele>
        <time>2022-05-16T08:44:55Z</time>
      </trkpt>
      <trkpt lat="42.29491" lon="-4.096261">
        <ele>845.9073249297217</ele>
        <time>2022-05-16T08:45:04Z</time>
      </trkpt>
      <trkpt lat="42.29484" lon="-4.096351">
        <ele>845.479226410389</ele>
        <time>2022-05-16T08:45:10Z</time>
      </trkpt>
      <trkpt lat="42.294771" lon="-4.096444">
        <ele>844.3770834505558</ele>
        <time>2022-05-16T08:45:20Z</time>
      </trkpt>
      <trkpt lat="42.294698" lon="-4.096532">
        <ele>844.7389164455235</ele>
        <time>2022-05-16T08:45:27Z</time>
      </trkpt>
      <trkpt lat="42.294628" lon="-4.096628">
        <ele>843.7823158316314</ele>
        <time>2022-05-16T08:45:34Z</time>
      </trkpt>
      <trkpt lat="42.294559" lon="-4.096708">
        <ele>843.0699632270262</ele>
        <time>2022-05-16T08:45:40Z</time>
      </trkpt>
      <trkpt lat="42.294492" lon="-4.096798">
        <ele>843.3403375940397</ele>
        <time>2022-05-16T08:45:47Z</time>
      </trkpt>
      <trkpt lat="42.29443" lon="-4.096892">
        <ele>841.2706362931058</ele>
        <time>2022-05-16T08:45:54Z</time>
      </trkpt>
      <trkpt lat="42.294376" lon="-4.097005">
        <ele>841.7193910107017</ele>
        <time>2022-05-16T08:46:02Z</time>
      </trkpt>
      <trkpt lat="42.29433" lon="-4.097116">
        <ele>842.7814112761989</ele>
        <time>2022-05-16T08:46:10Z</time>
      </trkpt>
      <trkpt lat="42.294276" lon="-4.097232">
        <ele>846.5924047147855</ele>
        <time>2022-05-16T08:46:18Z</time>
      </trkpt>
      <trkpt lat="42.29422" lon="-4.097354">
        <ele>848.8982916418463</ele>
        <time>2022-05-16T08:46:27Z</time>
      </trkpt>
      <trkpt lat="42.294163" lon="-4.097457">
        <ele>852.0280412659049</ele>
        <time>2022-05-16T08:46:35Z</time>
      </trkpt>
      <trkpt lat="42.294096" lon="-4.097539">
        <ele>851.912622814998</ele>
        <time>2022-05-16T08:46:44Z</time>
      </trkpt>
      <trkpt lat="42.29401" lon="-4.097615">
        <ele>851.5825069574639</ele>
        <time>2022-05-16T08:46:51Z</time>
      </trkpt>
      <trkpt lat="42.293926" lon="-4.097681">
        <ele>851.9207663256675</ele>
        <time>2022-05-16T08:46:58Z</time>
      </trkpt>
      <trkpt lat="42.293847" lon="-4.097763">
        <ele>854.088468439877</ele>
        <time>2022-05-16T08:47:06Z</time>
      </trkpt>
      <trkpt lat="42.293801" lon="-4.097876">
        <ele>858.101650330238</ele>
        <time>2022-05-16T08:47:15Z</time>
      </trkpt>
      <trkpt lat="42.293749" lon="-4.097992">
        <ele>859.90843310114</ele>
        <time>2022-05-16T08:47:25Z</time>
      </trkpt>
      <trkpt lat="42.293665" lon="-4.098073">
        <ele>860.4424254754558</ele>
        <time>2022-05-16T08:47:31Z</time>
      </trkpt>
      <trkpt lat="42.293593" lon="-4.098148">
        <ele>861.3753879824653</ele>
        <time>2022-05-16T08:47:38Z</time>
      </trkpt>
      <trkpt lat="42.293533" lon="-4.098239">
        <ele>861.8798438077793</ele>
        <time>2022-05-16T08:47:44Z</time>
      </trkpt>
      <trkpt lat="42.293485" lon="-4.098347">
        <ele>861.3341862931848</ele>
        <time>2022-05-16T08:47:51Z</time>
      </trkpt>
      <trkpt lat="42.293421" lon="-4.098433">
        <ele>862.1163230622187</ele>
        <time>2022-05-16T08:48:01Z</time>
      </trkpt>
      <trkpt lat="42.293355" lon="-4.09853">
        <ele>861.0913329999894</ele>
        <time>2022-05-16T08:48:09Z</time>
      </trkpt>
      <trkpt lat="42.293274" lon="-4.098597">
        <ele>859.2238479359075</ele>
        <time>2022-05-16T08:48:16Z</time>
      </trkpt>
      <trkpt lat="42.29318" lon="-4.09865">
        <ele>857.4304259316996</ele>
        <time>2022-05-16T08:48:25Z</time>
      </trkpt>
      <trkpt lat="42.293089" lon="-4.09869">
        <ele>856.8107818923891</ele>
        <time>2022-05-16T08:48:35Z</time>
      </trkpt>
      <trkpt lat="42.293019" lon="-4.098774">
        <ele>857.3895263522863</ele>
        <time>2022-05-16T08:48:55Z</time>
      </trkpt>
      <trkpt lat="42.292949" lon="-4.098862">
        <ele>856.0408875606954</ele>
        <time>2022-05-16T08:49:10Z</time>
      </trkpt>
      <trkpt lat="42.29287" lon="-4.098929">
        <ele>854.721007803455</ele>
        <time>2022-05-16T08:49:24Z</time>
      </trkpt>
      <trkpt lat="42.29277" lon="-4.098937">
        <ele>852.4246455403045</ele>
        <time>2022-05-16T08:49:44Z</time>
      </trkpt>
      <trkpt lat="42.292684" lon="-4.098991">
        <ele>849.2267116159201</ele>
        <time>2022-05-16T08:49:57Z</time>
      </trkpt>
      <trkpt lat="42.292641" lon="-4.099105">
        <ele>856.151413096115</ele>
        <time>2022-05-16T08:51:46Z</time>
      </trkpt>
      <trkpt lat="42.292621" lon="-4.099225">
        <ele>859.083654156886</ele>
        <time>2022-05-16T08:51:54Z</time>
      </trkpt>
      <trkpt lat="42.292679" lon="-4.09913">
        <ele>861.4929576162249</ele>
        <time>2022-05-16T08:52:42Z</time>
      </trkpt>
      <trkpt lat="42.29276" lon="-4.099065">
        <ele>857.982267848216</ele>
        <time>2022-05-16T08:53:04Z</time>
      </trkpt>
      <trkpt lat="42.292849" lon="-4.0991">
        <ele>858.6941768517718</ele>
        <time>2022-05-16T08:53:38Z</time>
      </trkpt>
      <trkpt lat="42.292774" lon="-4.099201">
        <ele>864.8428261838853</ele>
        <time>2022-05-16T08:54:49Z</time>
      </trkpt>
      <trkpt lat="42.292688" lon="-4.099235">
        <ele>868.4365856917575</ele>
        <time>2022-05-16T08:54:54Z</time>
      </trkpt>
      <trkpt lat="42.292594" lon="-4.099258">
        <ele>874.4841196797788</ele>
        <time>2022-05-16T08:55:14Z</time>
      </trkpt>
      <trkpt lat="42.292576" lon="-4.099137">
        <ele>885.7071276381612</ele>
        <time>2022-05-16T08:56:22Z</time>
      </trkpt>
      <trkpt lat="42.29248" lon="-4.09913">
        <ele>902.1410982050002</ele>
        <time>2022-05-16T08:58:01Z</time>
      </trkpt>
      <trkpt lat="42.292556" lon="-4.099065">
        <ele>906.1521575739607</ele>
        <time>2022-05-16T08:59:51Z</time>
      </trkpt>
      <trkpt lat="42.292652" lon="-4.099049">
        <ele>901.3535375744104</ele>
        <time>2022-05-16T09:00:09Z</time>
      </trkpt>
      <trkpt lat="42.292747" lon="-4.098999">
        <ele>894.3808687180281</ele>
        <time>2022-05-16T09:00:20Z</time>
      </trkpt>
      <trkpt lat="42.292851" lon="-4.099049">
        <ele>882.6702157128602</ele>
        <time>2022-05-16T09:00:29Z</time>
      </trkpt>
      <trkpt lat="42.292857" lon="-4.09917">
        <ele>872.4855100093409</ele>
        <time>2022-05-16T09:00:42Z</time>
      </trkpt>
      <trkpt lat="42.292819" lon="-4.099282">
        <ele>869.0130375530571</ele>
        <time>2022-05-16T09:00:52Z</time>
      </trkpt>
      <trkpt lat="42.292753" lon="-4.099365">
        <ele>862.1724111754447</ele>
        <time>2022-05-16T09:01:10Z</time>
      </trkpt>
      <trkpt lat="42.292673" lon="-4.099423">
        <ele>857.1043339371681</ele>
        <time>2022-05-16T09:01:17Z</time>
      </trkpt>
      <trkpt lat="42.292604" lon="-4.099511">
        <ele>858.3984821476042</ele>
        <time>2022-05-16T09:01:56Z</time>
      </trkpt>
      <trkpt lat="42.292562" lon="-4.099621">
        <ele>861.1007670238614</ele>
        <time>2022-05-16T09:02:11Z</time>
      </trkpt>
      <trkpt lat="42.292521" lon="-4.099743">
        <ele>858.7814090829343</ele>
        <time>2022-05-16T09:02:21Z</time>
      </trkpt>
      <trkpt lat="42.292551" lon="-4.099863">
        <ele>858.0487445611507</ele>
        <time>2022-05-16T09:02:50Z</time>
      </trkpt>
      <trkpt lat="42.292495" lon="-4.099962">
        <ele>855.2607316691428</ele>
        <time>2022-05-16T09:03:21Z</time>
      </trkpt>
      <trkpt lat="42.292458" lon="-4.100082">
        <ele>849.9575571184978</ele>
        <time>2022-05-16T09:03:30Z</time>
      </trkpt>
      <trkpt lat="42.292411" lon="-4.100186">
        <ele>847.2224439289421</ele>
        <time>2022-05-16T09:03:39Z</time>
      </trkpt>
      <trkpt lat="42.292406" lon="-4.100315">
        <ele>845.1887029223144</ele>
        <time>2022-05-16T09:03:47Z</time>
      </trkpt>
      <trkpt lat="42.292368" lon="-4.100441">
        <ele>841.1275315573439</ele>
        <time>2022-05-16T09:03:57Z</time>
      </trkpt>
      <trkpt lat="42.29232" lon="-4.100554">
        <ele>839.0026611080393</ele>
        <time>2022-05-16T09:04:06Z</time>
      </trkpt>
      <trkpt lat="42.292272" lon="-4.100658">
        <ele>837.9988255575299</ele>
        <time>2022-05-16T09:04:16Z</time>
      </trkpt>
      <trkpt lat="42.292248" lon="-4.100777">
        <ele>837.6820984659716</ele>
        <time>2022-05-16T09:04:26Z</time>
      </trkpt>
      <trkpt lat="42.292208" lon="-4.100888">
        <ele>836.7691473606974</ele>
        <time>2022-05-16T09:04:34Z</time>
      </trkpt>
      <trkpt lat="42.292143" lon="-4.100999">
        <ele>834.6841822145507</ele>
        <time>2022-05-16T09:04:41Z</time>
      </trkpt>
      <trkpt lat="42.292102" lon="-4.101112">
        <ele>834.7980013387278</ele>
        <time>2022-05-16T09:04:49Z</time>
      </trkpt>
      <trkpt lat="42.292057" lon="-4.101217">
        <ele>834.1775461807847</ele>
        <time>2022-05-16T09:04:57Z</time>
      </trkpt>
      <trkpt lat="42.292006" lon="-4.101318">
        <ele>833.5711027467623</ele>
        <time>2022-05-16T09:05:02Z</time>
      </trkpt>
      <trkpt lat="42.291961" lon="-4.101431">
        <ele>832.0385291855782</ele>
        <time>2022-05-16T09:05:11Z</time>
      </trkpt>
      <trkpt lat="42.29192" lon="-4.101561">
        <ele>831.199805945158</ele>
        <time>2022-05-16T09:05:19Z</time>
      </trkpt>
      <trkpt lat="42.291879" lon="-4.101679">
        <ele>830.0034632636234</ele>
        <time>2022-05-16T09:05:28Z</time>
      </trkpt>
      <trkpt lat="42.291856" lon="-4.101805">
        <ele>829.4917580084875</ele>
        <time>2022-05-16T09:05:37Z</time>
      </trkpt>
      <trkpt lat="42.291833" lon="-4.101924">
        <ele>829.8592797191814</ele>
        <time>2022-05-16T09:05:45Z</time>
      </trkpt>
      <trkpt lat="42.291801" lon="-4.102062">
        <ele>831.1841539852321</ele>
        <time>2022-05-16T09:05:54Z</time>
      </trkpt>
      <trkpt lat="42.291788" lon="-4.102194">
        <ele>832.1739863436669</ele>
        <time>2022-05-16T09:06:02Z</time>
      </trkpt>
      <trkpt lat="42.291767" lon="-4.102324">
        <ele>831.4506244044751</ele>
        <time>2022-05-16T09:06:10Z</time>
      </trkpt>
      <trkpt lat="42.29172" lon="-4.102468">
        <ele>832.8626690721139</ele>
        <time>2022-05-16T09:06:19Z</time>
      </trkpt>
      <trkpt lat="42.291693" lon="-4.102584">
        <ele>832.0717926537618</ele>
        <time>2022-05-16T09:06:27Z</time>
      </trkpt>
      <trkpt lat="42.291673" lon="-4.102721">
        <ele>832.7994294632226</ele>
        <time>2022-05-16T09:06:35Z</time>
      </trkpt>
      <trkpt lat="42.291656" lon="-4.102855">
        <ele>832.898029692471</ele>
        <time>2022-05-16T09:06:42Z</time>
      </trkpt>
      <trkpt lat="42.291669" lon="-4.103015">
        <ele>834.3440474718809</ele>
        <time>2022-05-16T09:06:50Z</time>
      </trkpt>
      <trkpt lat="42.291681" lon="-4.103156">
        <ele>834.0722979400307</ele>
        <time>2022-05-16T09:06:57Z</time>
      </trkpt>
      <trkpt lat="42.291667" lon="-4.103294">
        <ele>835.191000090912</ele>
        <time>2022-05-16T09:07:03Z</time>
      </trkpt>
      <trkpt lat="42.291673" lon="-4.103429">
        <ele>835.5739711802453</ele>
        <time>2022-05-16T09:07:12Z</time>
      </trkpt>
      <trkpt lat="42.291674" lon="-4.103557">
        <ele>835.9149823524058</ele>
        <time>2022-05-16T09:07:21Z</time>
      </trkpt>
      <trkpt lat="42.291685" lon="-4.103685">
        <ele>834.5203937459737</ele>
        <time>2022-05-16T09:07:28Z</time>
      </trkpt>
      <trkpt lat="42.291686" lon="-4.10381">
        <ele>833.0820590667427</ele>
        <time>2022-05-16T09:07:36Z</time>
      </trkpt>
      <trkpt lat="42.291682" lon="-4.103937">
        <ele>832.7497101966292</ele>
        <time>2022-05-16T09:07:43Z</time>
      </trkpt>
      <trkpt lat="42.291672" lon="-4.104065">
        <ele>833.3290410339832</ele>
        <time>2022-05-16T09:07:51Z</time>
      </trkpt>
      <trkpt lat="42.291685" lon="-4.104191">
        <ele>832.060836026445</ele>
        <time>2022-05-16T09:08:01Z</time>
      </trkpt>
      <trkpt lat="42.291697" lon="-4.104316">
        <ele>832.804144131951</ele>
        <time>2022-05-16T09:08:08Z</time>
      </trkpt>
      <trkpt lat="42.291702" lon="-4.104439">
        <ele>832.7414251072332</ele>
        <time>2022-05-16T09:08:14Z</time>
      </trkpt>
      <trkpt lat="42.291696" lon="-4.104573">
        <ele>834.467463764362</ele>
        <time>2022-05-16T09:08:23Z</time>
      </trkpt>
      <trkpt lat="42.291704" lon="-4.104697">
        <ele>835.5543804699555</ele>
        <time>2022-05-16T09:08:31Z</time>
      </trkpt>
      <trkpt lat="42.291706" lon="-4.104831">
        <ele>835.43337352667</ele>
        <time>2022-05-16T09:08:38Z</time>
      </trkpt>
      <trkpt lat="42.291708" lon="-4.104963">
        <ele>835.0382664669305</ele>
        <time>2022-05-16T09:08:46Z</time>
      </trkpt>
      <trkpt lat="42.2917" lon="-4.105102">
        <ele>832.9328406834975</ele>
        <time>2022-05-16T09:08:55Z</time>
      </trkpt>
      <trkpt lat="42.291694" lon="-4.105237">
        <ele>832.4475041134283</ele>
        <time>2022-05-16T09:09:01Z</time>
      </trkpt>
      <trkpt lat="42.291697" lon="-4.105359">
        <ele>832.1598983621225</ele>
        <time>2022-05-16T09:09:08Z</time>
      </trkpt>
      <trkpt lat="42.291702" lon="-4.105482">
        <ele>833.0243275389075</ele>
        <time>2022-05-16T09:09:15Z</time>
      </trkpt>
      <trkpt lat="42.291714" lon="-4.105614">
        <ele>832.1591780986637</ele>
        <time>2022-05-16T09:09:21Z</time>
      </trkpt>
      <trkpt lat="42.291727" lon="-4.105746">
        <ele>831.6387856164947</ele>
        <time>2022-05-16T09:09:29Z</time>
      </trkpt>
      <trkpt lat="42.291731" lon="-4.105878">
        <ele>831.2465886147693</ele>
        <time>2022-05-16T09:09:36Z</time>
      </trkpt>
      <trkpt lat="42.291727" lon="-4.106015">
        <ele>831.591876719147</ele>
        <time>2022-05-16T09:09:45Z</time>
      </trkpt>
      <trkpt lat="42.291724" lon="-4.106138">
        <ele>831.688600262627</ele>
        <time>2022-05-16T09:09:51Z</time>
      </trkpt>
      <trkpt lat="42.291742" lon="-4.106272">
        <ele>831.82837401703</ele>
        <time>2022-05-16T09:10:00Z</time>
      </trkpt>
      <trkpt lat="42.291761" lon="-4.106405">
        <ele>831.5091768288985</ele>
        <time>2022-05-16T09:10:09Z</time>
      </trkpt>
      <trkpt lat="42.291767" lon="-4.106529">
        <ele>830.2915456043556</ele>
        <time>2022-05-16T09:10:17Z</time>
      </trkpt>
      <trkpt lat="42.291769" lon="-4.106661">
        <ele>828.5766632864252</ele>
        <time>2022-05-16T09:10:24Z</time>
      </trkpt>
      <trkpt lat="42.291777" lon="-4.106801">
        <ele>828.0838612662628</ele>
        <time>2022-05-16T09:10:31Z</time>
      </trkpt>
      <trkpt lat="42.291779" lon="-4.106938">
        <ele>828.5556491957977</ele>
        <time>2022-05-16T09:10:39Z</time>
      </trkpt>
      <trkpt lat="42.291779" lon="-4.107074">
        <ele>827.914924884215</ele>
        <time>2022-05-16T09:10:45Z</time>
      </trkpt>
      <trkpt lat="42.291789" lon="-4.107229">
        <ele>827.2807108042762</ele>
        <time>2022-05-16T09:10:53Z</time>
      </trkpt>
      <trkpt lat="42.291778" lon="-4.107361">
        <ele>827.8548189578578</ele>
        <time>2022-05-16T09:11:00Z</time>
      </trkpt>
      <trkpt lat="42.291773" lon="-4.107495">
        <ele>830.0176506182179</ele>
        <time>2022-05-16T09:11:08Z</time>
      </trkpt>
      <trkpt lat="42.291781" lon="-4.107623">
        <ele>833.127468935214</ele>
        <time>2022-05-16T09:11:16Z</time>
      </trkpt>
      <trkpt lat="42.291788" lon="-4.107752">
        <ele>834.9835640229285</ele>
        <time>2022-05-16T09:11:24Z</time>
      </trkpt>
      <trkpt lat="42.291811" lon="-4.107875">
        <ele>834.9005276383832</ele>
        <time>2022-05-16T09:11:31Z</time>
      </trkpt>
      <trkpt lat="42.291816" lon="-4.108">
        <ele>836.5530252773315</ele>
        <time>2022-05-16T09:11:39Z</time>
      </trkpt>
      <trkpt lat="42.291829" lon="-4.108129">
        <ele>834.8139860620722</ele>
        <time>2022-05-16T09:11:49Z</time>
      </trkpt>
      <trkpt lat="42.291844" lon="-4.108259">
        <ele>833.3586160810664</ele>
        <time>2022-05-16T09:11:57Z</time>
      </trkpt>
      <trkpt lat="42.291866" lon="-4.108382">
        <ele>831.4231230607256</ele>
        <time>2022-05-16T09:12:06Z</time>
      </trkpt>
      <trkpt lat="42.29188" lon="-4.108514">
        <ele>828.5014805188403</ele>
        <time>2022-05-16T09:12:16Z</time>
      </trkpt>
      <trkpt lat="42.291876" lon="-4.108641">
        <ele>827.3850528048351</ele>
        <time>2022-05-16T09:12:24Z</time>
      </trkpt>
      <trkpt lat="42.291876" lon="-4.108772">
        <ele>826.2727523790672</ele>
        <time>2022-05-16T09:12:32Z</time>
      </trkpt>
      <trkpt lat="42.291867" lon="-4.108901">
        <ele>824.8652105517685</ele>
        <time>2022-05-16T09:12:41Z</time>
      </trkpt>
      <trkpt lat="42.291862" lon="-4.109024">
        <ele>824.1051363004372</ele>
        <time>2022-05-16T09:12:49Z</time>
      </trkpt>
      <trkpt lat="42.291865" lon="-4.109182">
        <ele>822.6277407677844</ele>
        <time>2022-05-16T09:12:58Z</time>
      </trkpt>
      <trkpt lat="42.291857" lon="-4.109318">
        <ele>822.475792394951</ele>
        <time>2022-05-16T09:13:06Z</time>
      </trkpt>
      <trkpt lat="42.291852" lon="-4.109445">
        <ele>821.8986616255715</ele>
        <time>2022-05-16T09:13:13Z</time>
      </trkpt>
      <trkpt lat="42.291856" lon="-4.109571">
        <ele>821.0639957301319</ele>
        <time>2022-05-16T09:13:21Z</time>
      </trkpt>
      <trkpt lat="42.291863" lon="-4.109693">
        <ele>821.4085945282131</ele>
        <time>2022-05-16T09:13:28Z</time>
      </trkpt>
      <trkpt lat="42.291865" lon="-4.109829">
        <ele>821.6802617441863</ele>
        <time>2022-05-16T09:13:35Z</time>
      </trkpt>
      <trkpt lat="42.29186" lon="-4.10996">
        <ele>821.9715392179787</ele>
        <time>2022-05-16T09:13:41Z</time>
      </trkpt>
      <trkpt lat="42.29186" lon="-4.110088">
        <ele>821.7484179865569</ele>
        <time>2022-05-16T09:13:50Z</time>
      </trkpt>
      <trkpt lat="42.291866" lon="-4.110221">
        <ele>821.1483393572271</ele>
        <time>2022-05-16T09:13:58Z</time>
      </trkpt>
      <trkpt lat="42.291862" lon="-4.110357">
        <ele>820.8344825413078</ele>
        <time>2022-05-16T09:14:06Z</time>
      </trkpt>
      <trkpt lat="42.291882" lon="-4.110483">
        <ele>821.2090097377077</ele>
        <time>2022-05-16T09:14:14Z</time>
      </trkpt>
      <trkpt lat="42.291905" lon="-4.110608">
        <ele>819.1788975186646</ele>
        <time>2022-05-16T09:14:21Z</time>
      </trkpt>
      <trkpt lat="42.291902" lon="-4.110743">
        <ele>818.7437021704391</ele>
        <time>2022-05-16T09:14:28Z</time>
      </trkpt>
      <trkpt lat="42.291892" lon="-4.110865">
        <ele>818.582931401208</ele>
        <time>2022-05-16T09:14:35Z</time>
      </trkpt>
      <trkpt lat="42.291888" lon="-4.110997">
        <ele>818.9561497773975</ele>
        <time>2022-05-16T09:14:43Z</time>
      </trkpt>
      <trkpt lat="42.291902" lon="-4.111136">
        <ele>817.3399795284495</ele>
        <time>2022-05-16T09:14:50Z</time>
      </trkpt>
      <trkpt lat="42.29192" lon="-4.111271">
        <ele>818.0321687515825</ele>
        <time>2022-05-16T09:14:57Z</time>
      </trkpt>
      <trkpt lat="42.291929" lon="-4.111405">
        <ele>819.3916795291007</ele>
        <time>2022-05-16T09:15:05Z</time>
      </trkpt>
      <trkpt lat="42.29194" lon="-4.111532">
        <ele>820.3398514138535</ele>
        <time>2022-05-16T09:15:13Z</time>
      </trkpt>
      <trkpt lat="42.291956" lon="-4.111663">
        <ele>821.5485205557197</ele>
        <time>2022-05-16T09:15:20Z</time>
      </trkpt>
      <trkpt lat="42.291969" lon="-4.111793">
        <ele>821.0826024087146</ele>
        <time>2022-05-16T09:15:28Z</time>
      </trkpt>
      <trkpt lat="42.291972" lon="-4.111916">
        <ele>822.1198273412883</ele>
        <time>2022-05-16T09:15:35Z</time>
      </trkpt>
      <trkpt lat="42.291969" lon="-4.112049">
        <ele>823.5509099960327</ele>
        <time>2022-05-16T09:15:43Z</time>
      </trkpt>
      <trkpt lat="42.291968" lon="-4.112178">
        <ele>821.0866932850331</ele>
        <time>2022-05-16T09:15:50Z</time>
      </trkpt>
      <trkpt lat="42.291966" lon="-4.112329">
        <ele>819.472505427897</ele>
        <time>2022-05-16T09:15:59Z</time>
      </trkpt>
      <trkpt lat="42.291976" lon="-4.112456">
        <ele>818.2513159867376</ele>
        <time>2022-05-16T09:16:06Z</time>
      </trkpt>
      <trkpt lat="42.291975" lon="-4.112578">
        <ele>818.6339008016512</ele>
        <time>2022-05-16T09:16:12Z</time>
      </trkpt>
      <trkpt lat="42.291973" lon="-4.112703">
        <ele>817.5033129407093</ele>
        <time>2022-05-16T09:16:19Z</time>
      </trkpt>
      <trkpt lat="42.291973" lon="-4.112828">
        <ele>818.0805752007291</ele>
        <time>2022-05-16T09:16:27Z</time>
      </trkpt>
      <trkpt lat="42.291983" lon="-4.11296">
        <ele>817.8176163956523</ele>
        <time>2022-05-16T09:16:35Z</time>
      </trkpt>
      <trkpt lat="42.291997" lon="-4.113088">
        <ele>815.4002743717283</ele>
        <time>2022-05-16T09:16:42Z</time>
      </trkpt>
      <trkpt lat="42.292006" lon="-4.113213">
        <ele>816.5792919248343</ele>
        <time>2022-05-16T09:16:50Z</time>
      </trkpt>
      <trkpt lat="42.292012" lon="-4.113345">
        <ele>816.7011801460758</ele>
        <time>2022-05-16T09:16:59Z</time>
      </trkpt>
      <trkpt lat="42.292018" lon="-4.113483">
        <ele>816.5830886708573</ele>
        <time>2022-05-16T09:17:07Z</time>
      </trkpt>
      <trkpt lat="42.292025" lon="-4.113604">
        <ele>817.3672339450568</ele>
        <time>2022-05-16T09:17:14Z</time>
      </trkpt>
      <trkpt lat="42.292013" lon="-4.113726">
        <ele>817.4419299513102</ele>
        <time>2022-05-16T09:17:22Z</time>
      </trkpt>
      <trkpt lat="42.291999" lon="-4.113858">
        <ele>817.2833454497159</ele>
        <time>2022-05-16T09:17:32Z</time>
      </trkpt>
      <trkpt lat="42.292003" lon="-4.11399">
        <ele>816.208428138867</ele>
        <time>2022-05-16T09:17:41Z</time>
      </trkpt>
      <trkpt lat="42.292023" lon="-4.114121">
        <ele>814.8379538413137</ele>
        <time>2022-05-16T09:17:50Z</time>
      </trkpt>
      <trkpt lat="42.292044" lon="-4.114245">
        <ele>812.4744802163914</ele>
        <time>2022-05-16T09:17:59Z</time>
      </trkpt>
      <trkpt lat="42.292054" lon="-4.114384">
        <ele>812.9602872356772</ele>
        <time>2022-05-16T09:18:08Z</time>
      </trkpt>
      <trkpt lat="42.292067" lon="-4.114511">
        <ele>812.7502621058375</ele>
        <time>2022-05-16T09:18:17Z</time>
      </trkpt>
      <trkpt lat="42.292065" lon="-4.114635">
        <ele>811.5858901897445</ele>
        <time>2022-05-16T09:18:24Z</time>
      </trkpt>
      <trkpt lat="42.292067" lon="-4.114771">
        <ele>812.4633922288194</ele>
        <time>2022-05-16T09:18:31Z</time>
      </trkpt>
      <trkpt lat="42.292057" lon="-4.114892">
        <ele>812.498637970537</ele>
        <time>2022-05-16T09:18:37Z</time>
      </trkpt>
      <trkpt lat="42.292063" lon="-4.115025">
        <ele>812.4841823941097</ele>
        <time>2022-05-16T09:18:46Z</time>
      </trkpt>
      <trkpt lat="42.292067" lon="-4.115164">
        <ele>813.7578250644729</ele>
        <time>2022-05-16T09:18:54Z</time>
      </trkpt>
      <trkpt lat="42.292078" lon="-4.115286">
        <ele>813.4200099520385</ele>
        <time>2022-05-16T09:19:00Z</time>
      </trkpt>
      <trkpt lat="42.292087" lon="-4.115417">
        <ele>813.9510398814455</ele>
        <time>2022-05-16T09:19:07Z</time>
      </trkpt>
      <trkpt lat="42.292081" lon="-4.115555">
        <ele>814.5541756832972</ele>
        <time>2022-05-16T09:19:14Z</time>
      </trkpt>
      <trkpt lat="42.292081" lon="-4.115693">
        <ele>815.9115072032437</ele>
        <time>2022-05-16T09:19:22Z</time>
      </trkpt>
      <trkpt lat="42.292096" lon="-4.115819">
        <ele>815.9314083298668</ele>
        <time>2022-05-16T09:19:30Z</time>
      </trkpt>
      <trkpt lat="42.292098" lon="-4.115941">
        <ele>816.325904129073</ele>
        <time>2022-05-16T09:19:37Z</time>
      </trkpt>
      <trkpt lat="42.292104" lon="-4.116077">
        <ele>816.3251455202699</ele>
        <time>2022-05-16T09:19:46Z</time>
      </trkpt>
      <trkpt lat="42.292107" lon="-4.116215">
        <ele>816.4471680922434</ele>
        <time>2022-05-16T09:19:53Z</time>
      </trkpt>
      <trkpt lat="42.292114" lon="-4.116346">
        <ele>816.1164864208549</ele>
        <time>2022-05-16T09:20:00Z</time>
      </trkpt>
      <trkpt lat="42.292102" lon="-4.116485">
        <ele>817.9331103181466</ele>
        <time>2022-05-16T09:20:07Z</time>
      </trkpt>
      <trkpt lat="42.292115" lon="-4.116606">
        <ele>817.5555073814467</ele>
        <time>2022-05-16T09:20:13Z</time>
      </trkpt>
      <trkpt lat="42.292124" lon="-4.116729">
        <ele>818.1300994800404</ele>
        <time>2022-05-16T09:20:21Z</time>
      </trkpt>
      <trkpt lat="42.292156" lon="-4.116849">
        <ele>818.8198215402663</ele>
        <time>2022-05-16T09:20:32Z</time>
      </trkpt>
      <trkpt lat="42.292166" lon="-4.11697">
        <ele>817.2642611060292</ele>
        <time>2022-05-16T09:22:02Z</time>
      </trkpt>
      <trkpt lat="42.292176" lon="-4.117105">
        <ele>816.8661337429658</ele>
        <time>2022-05-16T09:22:15Z</time>
      </trkpt>
      <trkpt lat="42.292165" lon="-4.117229">
        <ele>818.4842275222763</ele>
        <time>2022-05-16T09:22:23Z</time>
      </trkpt>
      <trkpt lat="42.292156" lon="-4.117354">
        <ele>819.0538710812107</ele>
        <time>2022-05-16T09:22:32Z</time>
      </trkpt>
      <trkpt lat="42.292167" lon="-4.117475">
        <ele>820.9589125057682</ele>
        <time>2022-05-16T09:22:38Z</time>
      </trkpt>
      <trkpt lat="42.292184" lon="-4.117603">
        <ele>820.6851647887379</ele>
        <time>2022-05-16T09:23:00Z</time>
      </trkpt>
      <trkpt lat="42.292203" lon="-4.117731">
        <ele>821.6815545391291</ele>
        <time>2022-05-16T09:23:10Z</time>
      </trkpt>
      <trkpt lat="42.292191" lon="-4.117862">
        <ele>822.4002245310694</ele>
        <time>2022-05-16T09:23:17Z</time>
      </trkpt>
      <trkpt lat="42.292196" lon="-4.117987">
        <ele>822.9899070262909</ele>
        <time>2022-05-16T09:23:24Z</time>
      </trkpt>
      <trkpt lat="42.292214" lon="-4.118118">
        <ele>824.0127508742735</ele>
        <time>2022-05-16T09:23:32Z</time>
      </trkpt>
      <trkpt lat="42.292215" lon="-4.118263">
        <ele>825.4635616028681</ele>
        <time>2022-05-16T09:23:40Z</time>
      </trkpt>
      <trkpt lat="42.29222" lon="-4.118408">
        <ele>826.0250343661755</ele>
        <time>2022-05-16T09:23:50Z</time>
      </trkpt>
      <trkpt lat="42.292221" lon="-4.118544">
        <ele>826.3280225042254</ele>
        <time>2022-05-16T09:24:00Z</time>
      </trkpt>
      <trkpt lat="42.292226" lon="-4.118665">
        <ele>825.3484466793016</ele>
        <time>2022-05-16T09:24:08Z</time>
      </trkpt>
      <trkpt lat="42.292261" lon="-4.118781">
        <ele>823.9474241808057</ele>
        <time>2022-05-16T09:24:17Z</time>
      </trkpt>
      <trkpt lat="42.292258" lon="-4.118913">
        <ele>822.505709159188</ele>
        <time>2022-05-16T09:24:59Z</time>
      </trkpt>
      <trkpt lat="42.292257" lon="-4.119048">
        <ele>821.6469489187002</ele>
        <time>2022-05-16T09:25:07Z</time>
      </trkpt>
      <trkpt lat="42.292285" lon="-4.119166">
        <ele>820.9351648110896</ele>
        <time>2022-05-16T09:25:22Z</time>
      </trkpt>
      <trkpt lat="42.292276" lon="-4.119291">
        <ele>823.1743603022769</ele>
        <time>2022-05-16T09:25:29Z</time>
      </trkpt>
      <trkpt lat="42.292276" lon="-4.119425">
        <ele>825.342074223794</ele>
        <time>2022-05-16T09:25:37Z</time>
      </trkpt>
      <trkpt lat="42.292273" lon="-4.119548">
        <ele>825.57856578473</ele>
        <time>2022-05-16T09:25:44Z</time>
      </trkpt>
      <trkpt lat="42.29226" lon="-4.119672">
        <ele>824.7364978790283</ele>
        <time>2022-05-16T09:25:51Z</time>
      </trkpt>
      <trkpt lat="42.292263" lon="-4.119794">
        <ele>825.0357485143468</ele>
        <time>2022-05-16T09:25:57Z</time>
      </trkpt>
      <trkpt lat="42.292277" lon="-4.119922">
        <ele>825.3133618421853</ele>
        <time>2022-05-16T09:26:03Z</time>
      </trkpt>
      <trkpt lat="42.292278" lon="-4.120061">
        <ele>826.4155963007361</ele>
        <time>2022-05-16T09:26:10Z</time>
      </trkpt>
      <trkpt lat="42.292276" lon="-4.12019">
        <ele>827.0407675970346</ele>
        <time>2022-05-16T09:26:17Z</time>
      </trkpt>
      <trkpt lat="42.292292" lon="-4.120312">
        <ele>825.75872292649</ele>
        <time>2022-05-16T09:26:23Z</time>
      </trkpt>
      <trkpt lat="42.292309" lon="-4.120447">
        <ele>826.2908286061138</ele>
        <time>2022-05-16T09:26:30Z</time>
      </trkpt>
      <trkpt lat="42.292305" lon="-4.120578">
        <ele>826.1157805519179</ele>
        <time>2022-05-16T09:26:36Z</time>
      </trkpt>
      <trkpt lat="42.292301" lon="-4.120728">
        <ele>823.5916746845469</ele>
        <time>2022-05-16T09:26:46Z</time>
      </trkpt>
      <trkpt lat="42.292309" lon="-4.120856">
        <ele>822.1045896336436</ele>
        <time>2022-05-16T09:26:54Z</time>
      </trkpt>
      <trkpt lat="42.292305" lon="-4.12099">
        <ele>821.2386191803962</ele>
        <time>2022-05-16T09:27:04Z</time>
      </trkpt>
      <trkpt lat="42.292303" lon="-4.121152">
        <ele>820.5160178178921</ele>
        <time>2022-05-16T09:27:12Z</time>
      </trkpt>
      <trkpt lat="42.292302" lon="-4.121281">
        <ele>819.3222339851782</ele>
        <time>2022-05-16T09:27:18Z</time>
      </trkpt>
      <trkpt lat="42.292311" lon="-4.121403">
        <ele>819.6649895543233</ele>
        <time>2022-05-16T09:27:24Z</time>
      </trkpt>
      <trkpt lat="42.2923" lon="-4.121527">
        <ele>821.4742983002216</ele>
        <time>2022-05-16T09:27:32Z</time>
      </trkpt>
      <trkpt lat="42.29227" lon="-4.121656">
        <ele>821.8135038493201</ele>
        <time>2022-05-16T09:27:40Z</time>
      </trkpt>
      <trkpt lat="42.29227" lon="-4.121779">
        <ele>821.4885055422783</ele>
        <time>2022-05-16T09:27:47Z</time>
      </trkpt>
      <trkpt lat="42.292285" lon="-4.121915">
        <ele>821.5556971672922</ele>
        <time>2022-05-16T09:27:54Z</time>
      </trkpt>
      <trkpt lat="42.292294" lon="-4.122054">
        <ele>822.1324017103761</ele>
        <time>2022-05-16T09:28:00Z</time>
      </trkpt>
      <trkpt lat="42.292299" lon="-4.122185">
        <ele>820.0814744736999</ele>
        <time>2022-05-16T09:28:07Z</time>
      </trkpt>
      <trkpt lat="42.2923" lon="-4.12232">
        <ele>818.4818956553936</ele>
        <time>2022-05-16T09:28:14Z</time>
      </trkpt>
      <trkpt lat="42.292311" lon="-4.122452">
        <ele>815.8337382301688</ele>
        <time>2022-05-16T09:28:20Z</time>
      </trkpt>
      <trkpt lat="42.292321" lon="-4.122586">
        <ele>814.8696993505582</ele>
        <time>2022-05-16T09:28:29Z</time>
      </trkpt>
      <trkpt lat="42.292328" lon="-4.122712">
        <ele>814.509044399485</ele>
        <time>2022-05-16T09:28:35Z</time>
      </trkpt>
      <trkpt lat="42.292345" lon="-4.122841">
        <ele>815.5184576632455</ele>
        <time>2022-05-16T09:28:45Z</time>
      </trkpt>
      <trkpt lat="42.292342" lon="-4.122964">
        <ele>814.5859776753932</ele>
        <time>2022-05-16T09:28:53Z</time>
      </trkpt>
      <trkpt lat="42.292314" lon="-4.123086">
        <ele>811.6186596648768</ele>
        <time>2022-05-16T09:29:05Z</time>
      </trkpt>
      <trkpt lat="42.292322" lon="-4.12321">
        <ele>811.3143845042214</ele>
        <time>2022-05-16T09:29:12Z</time>
      </trkpt>
      <trkpt lat="42.292339" lon="-4.123335">
        <ele>811.3976382091641</ele>
        <time>2022-05-16T09:29:18Z</time>
      </trkpt>
      <trkpt lat="42.292344" lon="-4.123457">
        <ele>811.5354689629748</ele>
        <time>2022-05-16T09:29:24Z</time>
      </trkpt>
      <trkpt lat="42.292362" lon="-4.123587">
        <ele>811.3019871301949</ele>
        <time>2022-05-16T09:29:32Z</time>
      </trkpt>
      <trkpt lat="42.292369" lon="-4.123725">
        <ele>811.3039340265095</ele>
        <time>2022-05-16T09:29:39Z</time>
      </trkpt>
      <trkpt lat="42.29239" lon="-4.123858">
        <ele>812.5905065797269</ele>
        <time>2022-05-16T09:29:47Z</time>
      </trkpt>
      <trkpt lat="42.292396" lon="-4.123979">
        <ele>812.7613049624488</ele>
        <time>2022-05-16T09:29:54Z</time>
      </trkpt>
      <trkpt lat="42.29239" lon="-4.124101">
        <ele>812.0711088702083</ele>
        <time>2022-05-16T09:30:03Z</time>
      </trkpt>
      <trkpt lat="42.292357" lon="-4.124224">
        <ele>812.8950618775561</ele>
        <time>2022-05-16T09:30:13Z</time>
      </trkpt>
      <trkpt lat="42.292349" lon="-4.12435">
        <ele>812.2819460192695</ele>
        <time>2022-05-16T09:30:21Z</time>
      </trkpt>
      <trkpt lat="42.292355" lon="-4.124478">
        <ele>812.0276561519131</ele>
        <time>2022-05-16T09:30:28Z</time>
      </trkpt>
      <trkpt lat="42.292302" lon="-4.124591">
        <ele>811.4877768540755</ele>
        <time>2022-05-16T09:30:43Z</time>
      </trkpt>
      <trkpt lat="42.29229" lon="-4.124724">
        <ele>810.8218494011089</ele>
        <time>2022-05-16T09:32:11Z</time>
      </trkpt>
      <trkpt lat="42.292264" lon="-4.124844">
        <ele>810.7924334136769</ele>
        <time>2022-05-16T09:32:18Z</time>
      </trkpt>
      <trkpt lat="42.29227" lon="-4.124967">
        <ele>809.016462652944</ele>
        <time>2022-05-16T09:32:26Z</time>
      </trkpt>
      <trkpt lat="42.292241" lon="-4.125095">
        <ele>810.0930330380797</ele>
        <time>2022-05-16T09:32:37Z</time>
      </trkpt>
      <trkpt lat="42.292223" lon="-4.12522">
        <ele>810.7651849770918</ele>
        <time>2022-05-16T09:33:03Z</time>
      </trkpt>
      <trkpt lat="42.292226" lon="-4.125341">
        <ele>810.8414568426087</ele>
        <time>2022-05-16T09:33:15Z</time>
      </trkpt>
      <trkpt lat="42.292219" lon="-4.12547">
        <ele>810.6545090656728</ele>
        <time>2022-05-16T09:33:25Z</time>
      </trkpt>
      <trkpt lat="42.292201" lon="-4.125595">
        <ele>811.6812361124903</ele>
        <time>2022-05-16T09:33:33Z</time>
      </trkpt>
      <trkpt lat="42.292187" lon="-4.12572">
        <ele>812.6951623139903</ele>
        <time>2022-05-16T09:33:40Z</time>
      </trkpt>
      <trkpt lat="42.292167" lon="-4.125851">
        <ele>812.4170354167</ele>
        <time>2022-05-16T09:33:49Z</time>
      </trkpt>
      <trkpt lat="42.29217" lon="-4.125976">
        <ele>813.1904770694673</ele>
        <time>2022-05-16T09:33:58Z</time>
      </trkpt>
      <trkpt lat="42.292189" lon="-4.126108">
        <ele>814.9547121422365</ele>
        <time>2022-05-16T09:34:48Z</time>
      </trkpt>
      <trkpt lat="42.292173" lon="-4.126234">
        <ele>816.884615899995</ele>
        <time>2022-05-16T09:34:54Z</time>
      </trkpt>
      <trkpt lat="42.292138" lon="-4.126355">
        <ele>819.3683281075209</ele>
        <time>2022-05-16T09:35:03Z</time>
      </trkpt>
      <trkpt lat="42.292148" lon="-4.12649">
        <ele>820.3491393392906</ele>
        <time>2022-05-16T09:35:12Z</time>
      </trkpt>
      <trkpt lat="42.29216" lon="-4.126614">
        <ele>821.0337493279949</ele>
        <time>2022-05-16T09:35:19Z</time>
      </trkpt>
      <trkpt lat="42.292183" lon="-4.126759">
        <ele>819.9723972966895</ele>
        <time>2022-05-16T09:35:28Z</time>
      </trkpt>
      <trkpt lat="42.292204" lon="-4.126887">
        <ele>819.4070634916425</ele>
        <time>2022-05-16T09:35:36Z</time>
      </trkpt>
      <trkpt lat="42.292242" lon="-4.127013">
        <ele>818.5850013336167</ele>
        <time>2022-05-16T09:35:44Z</time>
      </trkpt>
      <trkpt lat="42.292273" lon="-4.127128">
        <ele>818.7974800458178</ele>
        <time>2022-05-16T09:35:51Z</time>
      </trkpt>
      <trkpt lat="42.292352" lon="-4.127213">
        <ele>817.7734862752259</ele>
        <time>2022-05-16T09:35:59Z</time>
      </trkpt>
      <trkpt lat="42.292438" lon="-4.127253">
        <ele>818.0507765654474</ele>
        <time>2022-05-16T09:36:09Z</time>
      </trkpt>
      <trkpt lat="42.292529" lon="-4.127272">
        <ele>816.0050635077059</ele>
        <time>2022-05-16T09:36:19Z</time>
      </trkpt>
      <trkpt lat="42.292502" lon="-4.1274">
        <ele>813.5629168450832</ele>
        <time>2022-05-16T09:36:46Z</time>
      </trkpt>
      <trkpt lat="42.292532" lon="-4.127525">
        <ele>815.7241631262004</ele>
        <time>2022-05-16T09:36:58Z</time>
      </trkpt>
      <trkpt lat="42.292542" lon="-4.127653">
        <ele>815.1753836609423</ele>
        <time>2022-05-16T09:37:06Z</time>
      </trkpt>
      <trkpt lat="42.292571" lon="-4.127774">
        <ele>816.4138009138405</ele>
        <time>2022-05-16T09:37:17Z</time>
      </trkpt>
      <trkpt lat="42.292587" lon="-4.127904">
        <ele>816.9343330832198</ele>
        <time>2022-05-16T09:37:26Z</time>
      </trkpt>
      <trkpt lat="42.292658" lon="-4.127991">
        <ele>821.5679605873302</ele>
        <time>2022-05-16T09:37:36Z</time>
      </trkpt>
      <trkpt lat="42.292654" lon="-4.128143">
        <ele>827.9538255808875</ele>
        <time>2022-05-16T09:37:43Z</time>
      </trkpt>
      <trkpt lat="42.292704" lon="-4.12825">
        <ele>834.4522839300334</ele>
        <time>2022-05-16T09:37:54Z</time>
      </trkpt>
      <trkpt lat="42.292709" lon="-4.128372">
        <ele>837.5961516862735</ele>
        <time>2022-05-16T09:38:21Z</time>
      </trkpt>
      <trkpt lat="42.292791" lon="-4.128316">
        <ele>831.8953324509785</ele>
        <time>2022-05-16T09:39:00Z</time>
      </trkpt>
      <trkpt lat="42.292855" lon="-4.128224">
        <ele>832.2318215006962</ele>
        <time>2022-05-16T09:39:18Z</time>
      </trkpt>
      <trkpt lat="42.292853" lon="-4.128101">
        <ele>832.4477799348533</ele>
        <time>2022-05-16T09:39:23Z</time>
      </trkpt>
      <trkpt lat="42.292918" lon="-4.127997">
        <ele>832.4565754365176</ele>
        <time>2022-05-16T09:39:39Z</time>
      </trkpt>
      <trkpt lat="42.293275" lon="-4.128499">
        <ele>977.4591644359753</ele>
        <time>2022-05-16T09:48:05Z</time>
      </trkpt>
      <trkpt lat="42.293049" lon="-4.129447">
        <ele>928.4762193337083</ele>
        <time>2022-05-16T09:48:06Z</time>
      </trkpt>
      <trkpt lat="42.293011" lon="-4.129318">
        <ele>918.1141473501921</ele>
        <time>2022-05-16T09:48:08Z</time>
      </trkpt>
      <trkpt lat="42.292928" lon="-4.128925">
        <ele>888.335029724054</ele>
        <time>2022-05-16T09:48:10Z</time>
      </trkpt>
      <trkpt lat="42.292883" lon="-4.128694">
        <ele>865.4690903229639</ele>
        <time>2022-05-16T09:48:12Z</time>
      </trkpt>
      <trkpt lat="42.292845" lon="-4.128552">
        <ele>852.8032236136496</ele>
        <time>2022-05-16T09:48:13Z</time>
      </trkpt>
      <trkpt lat="42.292768" lon="-4.128486">
        <ele>842.4232824370265</ele>
        <time>2022-05-16T09:48:27Z</time>
      </trkpt>
      <trkpt lat="42.292674" lon="-4.128486">
        <ele>827.9099710006267</ele>
        <time>2022-05-16T09:51:18Z</time>
      </trkpt>
      <trkpt lat="42.292646" lon="-4.128601">
        <ele>828.5800255807117</ele>
        <time>2022-05-16T09:54:06Z</time>
      </trkpt>
      <trkpt lat="42.292609" lon="-4.128722">
        <ele>829.0833171540871</ele>
        <time>2022-05-16T09:54:16Z</time>
      </trkpt>
      <trkpt lat="42.292542" lon="-4.128813">
        <ele>834.308426826261</ele>
        <time>2022-05-16T09:54:28Z</time>
      </trkpt>
      <trkpt lat="42.29246" lon="-4.128863">
        <ele>837.7225068667904</ele>
        <time>2022-05-16T09:54:41Z</time>
      </trkpt>
      <trkpt lat="42.29237" lon="-4.128884">
        <ele>839.9210446225479</ele>
        <time>2022-05-16T09:54:52Z</time>
      </trkpt>
      <trkpt lat="42.292354" lon="-4.129004">
        <ele>842.1454782430083</ele>
        <time>2022-05-16T09:55:09Z</time>
      </trkpt>
      <trkpt lat="42.292351" lon="-4.129132">
        <ele>836.3709491649643</ele>
        <time>2022-05-16T09:55:22Z</time>
      </trkpt>
      <trkpt lat="42.292404" lon="-4.129232">
        <ele>833.4479628959671</ele>
        <time>2022-05-16T09:55:31Z</time>
      </trkpt>
      <trkpt lat="42.292395" lon="-4.129354">
        <ele>834.0597063098103</ele>
        <time>2022-05-16T09:55:59Z</time>
      </trkpt>
      <trkpt lat="42.292401" lon="-4.129488">
        <ele>832.7381966896355</ele>
        <time>2022-05-16T09:56:07Z</time>
      </trkpt>
      <trkpt lat="42.292374" lon="-4.129612">
        <ele>833.138147957623</ele>
        <time>2022-05-16T09:56:19Z</time>
      </trkpt>
      <trkpt lat="42.292375" lon="-4.129739">
        <ele>832.8790570627898</ele>
        <time>2022-05-16T09:56:29Z</time>
      </trkpt>
      <trkpt lat="42.29241" lon="-4.129866">
        <ele>832.6219283584505</ele>
        <time>2022-05-16T09:56:37Z</time>
      </trkpt>
      <trkpt lat="42.292421" lon="-4.129998">
        <ele>833.4024903848767</ele>
        <time>2022-05-16T09:56:49Z</time>
      </trkpt>
      <trkpt lat="42.292435" lon="-4.13012">
        <ele>833.7963099498302</ele>
        <time>2022-05-16T09:56:58Z</time>
      </trkpt>
      <trkpt lat="42.292462" lon="-4.130238">
        <ele>835.063598703593</ele>
        <time>2022-05-16T09:57:08Z</time>
      </trkpt>
      <trkpt lat="42.292484" lon="-4.130369">
        <ele>836.5871881032363</ele>
        <time>2022-05-16T09:57:18Z</time>
      </trkpt>
      <trkpt lat="42.292514" lon="-4.13049">
        <ele>839.1986561296508</ele>
        <time>2022-05-16T09:57:25Z</time>
      </trkpt>
      <trkpt lat="42.292549" lon="-4.130626">
        <ele>839.4566522007808</ele>
        <time>2022-05-16T09:57:34Z</time>
      </trkpt>
      <trkpt lat="42.292523" lon="-4.130752">
        <ele>840.0977062163875</ele>
        <time>2022-05-16T09:57:42Z</time>
      </trkpt>
      <trkpt lat="42.292536" lon="-4.130882">
        <ele>841.7529785037041</ele>
        <time>2022-05-16T09:57:51Z</time>
      </trkpt>
      <trkpt lat="42.292536" lon="-4.131004">
        <ele>842.8161929985508</ele>
        <time>2022-05-16T09:58:01Z</time>
      </trkpt>
      <trkpt lat="42.292567" lon="-4.131123">
        <ele>838.8396591581404</ele>
        <time>2022-05-16T09:58:13Z</time>
      </trkpt>
      <trkpt lat="42.292566" lon="-4.131267">
        <ele>838.4108864739537</ele>
        <time>2022-05-16T09:58:25Z</time>
      </trkpt>
      <trkpt lat="42.292579" lon="-4.131396">
        <ele>837.9189331522211</ele>
        <time>2022-05-16T09:58:33Z</time>
      </trkpt>
      <trkpt lat="42.292566" lon="-4.13152">
        <ele>837.4659643415362</ele>
        <time>2022-05-16T09:58:43Z</time>
      </trkpt>
      <trkpt lat="42.292557" lon="-4.131642">
        <ele>836.3315552789718</ele>
        <time>2022-05-16T09:59:42Z</time>
      </trkpt>
      <trkpt lat="42.292508" lon="-4.131746">
        <ele>835.6471316758543</ele>
        <time>2022-05-16T09:59:51Z</time>
      </trkpt>
      <trkpt lat="42.292432" lon="-4.13183">
        <ele>834.8235606309026</ele>
        <time>2022-05-16T09:59:59Z</time>
      </trkpt>
      <trkpt lat="42.292344" lon="-4.131884">
        <ele>837.542596694082</ele>
        <time>2022-05-16T10:00:09Z</time>
      </trkpt>
      <trkpt lat="42.292247" lon="-4.131918">
        <ele>839.1708478396758</ele>
        <time>2022-05-16T10:00:18Z</time>
      </trkpt>
      <trkpt lat="42.292153" lon="-4.131963">
        <ele>840.807823526673</ele>
        <time>2022-05-16T10:00:25Z</time>
      </trkpt>
      <trkpt lat="42.292057" lon="-4.132016">
        <ele>838.9383755046874</ele>
        <time>2022-05-16T10:00:33Z</time>
      </trkpt>
      <trkpt lat="42.29197" lon="-4.132057">
        <ele>839.6447537103668</ele>
        <time>2022-05-16T10:00:41Z</time>
      </trkpt>
      <trkpt lat="42.29188" lon="-4.132118">
        <ele>841.8681543320417</ele>
        <time>2022-05-16T10:00:50Z</time>
      </trkpt>
      <trkpt lat="42.29181" lon="-4.132196">
        <ele>844.1465912973508</ele>
        <time>2022-05-16T10:01:06Z</time>
      </trkpt>
      <trkpt lat="42.291722" lon="-4.132265">
        <ele>841.1345009766519</ele>
        <time>2022-05-16T10:01:14Z</time>
      </trkpt>
      <trkpt lat="42.291642" lon="-4.132343">
        <ele>837.4224882246926</ele>
        <time>2022-05-16T10:01:23Z</time>
      </trkpt>
      <trkpt lat="42.291562" lon="-4.132421">
        <ele>836.1707704244182</ele>
        <time>2022-05-16T10:01:33Z</time>
      </trkpt>
      <trkpt lat="42.291467" lon="-4.132444">
        <ele>837.4015923775733</ele>
        <time>2022-05-16T10:02:08Z</time>
      </trkpt>
      <trkpt lat="42.291374" lon="-4.132479">
        <ele>837.4546208549291</ele>
        <time>2022-05-16T10:02:16Z</time>
      </trkpt>
      <trkpt lat="42.291279" lon="-4.132521">
        <ele>839.3782502440736</ele>
        <time>2022-05-16T10:02:25Z</time>
      </trkpt>
      <trkpt lat="42.291193" lon="-4.132567">
        <ele>841.8184322016314</ele>
        <time>2022-05-16T10:02:34Z</time>
      </trkpt>
      <trkpt lat="42.291097" lon="-4.132612">
        <ele>842.8465353790671</ele>
        <time>2022-05-16T10:02:41Z</time>
      </trkpt>
      <trkpt lat="42.291008" lon="-4.132658">
        <ele>842.2711584465578</ele>
        <time>2022-05-16T10:02:50Z</time>
      </trkpt>
      <trkpt lat="42.290912" lon="-4.132688">
        <ele>844.6766157243401</ele>
        <time>2022-05-16T10:03:00Z</time>
      </trkpt>
      <trkpt lat="42.29082" lon="-4.132731">
        <ele>845.3586216904223</ele>
        <time>2022-05-16T10:03:09Z</time>
      </trkpt>
      <trkpt lat="42.290733" lon="-4.132766">
        <ele>846.2530048163608</ele>
        <time>2022-05-16T10:03:15Z</time>
      </trkpt>
      <trkpt lat="42.290654" lon="-4.132834">
        <ele>844.8456585435197</ele>
        <time>2022-05-16T10:03:23Z</time>
      </trkpt>
      <trkpt lat="42.290562" lon="-4.132871">
        <ele>841.9726096931845</ele>
        <time>2022-05-16T10:03:30Z</time>
      </trkpt>
      <trkpt lat="42.290475" lon="-4.132933">
        <ele>843.6638346482068</ele>
        <time>2022-05-16T10:03:40Z</time>
      </trkpt>
      <trkpt lat="42.290396" lon="-4.132994">
        <ele>844.6211053971201</ele>
        <time>2022-05-16T10:03:49Z</time>
      </trkpt>
      <trkpt lat="42.290302" lon="-4.133029">
        <ele>847.7323348075151</ele>
        <time>2022-05-16T10:03:58Z</time>
      </trkpt>
      <trkpt lat="42.29022" lon="-4.133088">
        <ele>848.2610601186752</ele>
        <time>2022-05-16T10:04:06Z</time>
      </trkpt>
      <trkpt lat="42.290134" lon="-4.133147">
        <ele>849.6666861269623</ele>
        <time>2022-05-16T10:04:15Z</time>
      </trkpt>
      <trkpt lat="42.290054" lon="-4.13322">
        <ele>854.5718316435814</ele>
        <time>2022-05-16T10:04:25Z</time>
      </trkpt>
      <trkpt lat="42.289999" lon="-4.133328">
        <ele>856.7721231803298</ele>
        <time>2022-05-16T10:04:34Z</time>
      </trkpt>
      <trkpt lat="42.289928" lon="-4.133414">
        <ele>856.0850055376068</ele>
        <time>2022-05-16T10:04:41Z</time>
      </trkpt>
      <trkpt lat="42.289842" lon="-4.133478">
        <ele>857.2707037515938</ele>
        <time>2022-05-16T10:04:52Z</time>
      </trkpt>
      <trkpt lat="42.289758" lon="-4.133552">
        <ele>857.4709502551705</ele>
        <time>2022-05-16T10:05:02Z</time>
      </trkpt>
      <trkpt lat="42.289675" lon="-4.133612">
        <ele>856.2916135359555</ele>
        <time>2022-05-16T10:05:11Z</time>
      </trkpt>
      <trkpt lat="42.289593" lon="-4.13369">
        <ele>857.4242435768247</ele>
        <time>2022-05-16T10:05:21Z</time>
      </trkpt>
      <trkpt lat="42.28951" lon="-4.133754">
        <ele>854.928011527285</ele>
        <time>2022-05-16T10:05:30Z</time>
      </trkpt>
      <trkpt lat="42.289429" lon="-4.133826">
        <ele>854.9992603575811</ele>
        <time>2022-05-16T10:05:35Z</time>
      </trkpt>
      <trkpt lat="42.289365" lon="-4.133921">
        <ele>856.2651340039447</ele>
        <time>2022-05-16T10:05:49Z</time>
      </trkpt>
      <trkpt lat="42.289317" lon="-4.134031">
        <ele>857.8367554182187</ele>
        <time>2022-05-16T10:05:59Z</time>
      </trkpt>
      <trkpt lat="42.289253" lon="-4.134123">
        <ele>856.8790887203068</ele>
        <time>2022-05-16T10:06:12Z</time>
      </trkpt>
      <trkpt lat="42.289228" lon="-4.134246">
        <ele>856.9592987317592</ele>
        <time>2022-05-16T10:06:24Z</time>
      </trkpt>
      <trkpt lat="42.289191" lon="-4.134364">
        <ele>857.8353263987228</ele>
        <time>2022-05-16T10:06:35Z</time>
      </trkpt>
      <trkpt lat="42.289126" lon="-4.134456">
        <ele>860.5679886918515</ele>
        <time>2022-05-16T10:06:44Z</time>
      </trkpt>
      <trkpt lat="42.289086" lon="-4.134582">
        <ele>861.870752170682</ele>
        <time>2022-05-16T10:06:52Z</time>
      </trkpt>
      <trkpt lat="42.28906" lon="-4.134713">
        <ele>857.6746680177748</ele>
        <time>2022-05-16T10:06:59Z</time>
      </trkpt>
      <trkpt lat="42.289005" lon="-4.13481">
        <ele>855.9090667972341</ele>
        <time>2022-05-16T10:07:05Z</time>
      </trkpt>
      <trkpt lat="42.288946" lon="-4.134903">
        <ele>854.6354667451233</ele>
        <time>2022-05-16T10:07:12Z</time>
      </trkpt>
      <trkpt lat="42.288928" lon="-4.135027">
        <ele>859.7191399894655</ele>
        <time>2022-05-16T10:07:22Z</time>
      </trkpt>
      <trkpt lat="42.288898" lon="-4.135158">
        <ele>861.5585181219503</ele>
        <time>2022-05-16T10:07:35Z</time>
      </trkpt>
      <trkpt lat="42.288879" lon="-4.13529">
        <ele>864.7780170654878</ele>
        <time>2022-05-16T10:07:42Z</time>
      </trkpt>
      <trkpt lat="42.288819" lon="-4.135401">
        <ele>863.8417534213513</ele>
        <time>2022-05-16T10:07:52Z</time>
      </trkpt>
      <trkpt lat="42.288784" lon="-4.135518">
        <ele>861.6668886300176</ele>
        <time>2022-05-16T10:07:59Z</time>
      </trkpt>
      <trkpt lat="42.288755" lon="-4.135645">
        <ele>859.5215463759378</ele>
        <time>2022-05-16T10:08:29Z</time>
      </trkpt>
      <trkpt lat="42.288697" lon="-4.135745">
        <ele>859.1895606610924</ele>
        <time>2022-05-16T10:08:58Z</time>
      </trkpt>
      <trkpt lat="42.288739" lon="-4.135861">
        <ele>864.7954373797402</ele>
        <time>2022-05-16T10:10:26Z</time>
      </trkpt>
      <trkpt lat="42.28867" lon="-4.135947">
        <ele>867.7154518757015</ele>
        <time>2022-05-16T10:10:36Z</time>
      </trkpt>
      <trkpt lat="42.288635" lon="-4.136063">
        <ele>870.1424435079098</ele>
        <time>2022-05-16T10:10:46Z</time>
      </trkpt>
      <trkpt lat="42.288586" lon="-4.136165">
        <ele>870.1598377013579</ele>
        <time>2022-05-16T10:10:54Z</time>
      </trkpt>
      <trkpt lat="42.288544" lon="-4.13628">
        <ele>869.7531658150256</ele>
        <time>2022-05-16T10:11:01Z</time>
      </trkpt>
      <trkpt lat="42.28848" lon="-4.136366">
        <ele>870.0996108977124</ele>
        <time>2022-05-16T10:11:08Z</time>
      </trkpt>
      <trkpt lat="42.288473" lon="-4.136495">
        <ele>871.3556811017916</ele>
        <time>2022-05-16T10:11:14Z</time>
      </trkpt>
      <trkpt lat="42.28845" lon="-4.136624">
        <ele>866.3158919466659</ele>
        <time>2022-05-16T10:11:20Z</time>
      </trkpt>
      <trkpt lat="42.288427" lon="-4.136757">
        <ele>861.5951066669077</ele>
        <time>2022-05-16T10:11:29Z</time>
      </trkpt>
      <trkpt lat="42.288399" lon="-4.136874">
        <ele>859.5817010356113</ele>
        <time>2022-05-16T10:11:36Z</time>
      </trkpt>
      <trkpt lat="42.288366" lon="-4.136988">
        <ele>857.0434416616336</ele>
        <time>2022-05-16T10:11:43Z</time>
      </trkpt>
      <trkpt lat="42.288331" lon="-4.137104">
        <ele>855.2722124923021</ele>
        <time>2022-05-16T10:11:52Z</time>
      </trkpt>
      <trkpt lat="42.288295" lon="-4.137228">
        <ele>855.8704305458814</ele>
        <time>2022-05-16T10:11:58Z</time>
      </trkpt>
      <trkpt lat="42.288274" lon="-4.137357">
        <ele>857.5028155846521</ele>
        <time>2022-05-16T10:12:05Z</time>
      </trkpt>
      <trkpt lat="42.288231" lon="-4.137476">
        <ele>860.3691341457888</ele>
        <time>2022-05-16T10:12:13Z</time>
      </trkpt>
      <trkpt lat="42.288207" lon="-4.137618">
        <ele>859.8567280229181</ele>
        <time>2022-05-16T10:12:20Z</time>
      </trkpt>
      <trkpt lat="42.288175" lon="-4.137739">
        <ele>858.7464043721557</ele>
        <time>2022-05-16T10:12:27Z</time>
      </trkpt>
      <trkpt lat="42.288117" lon="-4.137879">
        <ele>855.6542298011482</ele>
        <time>2022-05-16T10:12:36Z</time>
      </trkpt>
      <trkpt lat="42.288109" lon="-4.138002">
        <ele>854.3711113715544</ele>
        <time>2022-05-16T10:12:44Z</time>
      </trkpt>
      <trkpt lat="42.288067" lon="-4.138116">
        <ele>852.4536578729749</ele>
        <time>2022-05-16T10:12:52Z</time>
      </trkpt>
      <trkpt lat="42.288046" lon="-4.138245">
        <ele>850.4847209565341</ele>
        <time>2022-05-16T10:12:59Z</time>
      </trkpt>
      <trkpt lat="42.28809" lon="-4.138362">
        <ele>847.0785841718316</ele>
        <time>2022-05-16T10:13:09Z</time>
      </trkpt>
      <trkpt lat="42.288078" lon="-4.138488">
        <ele>846.1129900394008</ele>
        <time>2022-05-16T10:13:24Z</time>
      </trkpt>
      <trkpt lat="42.288118" lon="-4.138379">
        <ele>855.7117974264547</ele>
        <time>2022-05-16T10:14:06Z</time>
      </trkpt>
      <trkpt lat="42.288155" lon="-4.138508">
        <ele>856.1198354288936</ele>
        <time>2022-05-16T10:14:17Z</time>
      </trkpt>
      <trkpt lat="42.288141" lon="-4.138636">
        <ele>855.7643572119996</ele>
        <time>2022-05-16T10:14:21Z</time>
      </trkpt>
      <trkpt lat="42.288136" lon="-4.138762">
        <ele>854.4392088223249</ele>
        <time>2022-05-16T10:14:26Z</time>
      </trkpt>
      <trkpt lat="42.288152" lon="-4.138896">
        <ele>854.4323287894949</ele>
        <time>2022-05-16T10:14:32Z</time>
      </trkpt>
      <trkpt lat="42.288169" lon="-4.139031">
        <ele>854.2579710157588</ele>
        <time>2022-05-16T10:14:38Z</time>
      </trkpt>
      <trkpt lat="42.288205" lon="-4.139148">
        <ele>853.9727791892365</ele>
        <time>2022-05-16T10:14:47Z</time>
      </trkpt>
      <trkpt lat="42.288255" lon="-4.139263">
        <ele>856.397243197076</ele>
        <time>2022-05-16T10:14:56Z</time>
      </trkpt>
      <trkpt lat="42.288269" lon="-4.139384">
        <ele>861.9569135382771</ele>
        <time>2022-05-16T10:15:03Z</time>
      </trkpt>
      <trkpt lat="42.288313" lon="-4.139512">
        <ele>867.7726570172235</ele>
        <time>2022-05-16T10:15:07Z</time>
      </trkpt>
      <trkpt lat="42.288328" lon="-4.139637">
        <ele>871.9532815571874</ele>
        <time>2022-05-16T10:15:14Z</time>
      </trkpt>
      <trkpt lat="42.288367" lon="-4.139747">
        <ele>876.9980424437672</ele>
        <time>2022-05-16T10:15:19Z</time>
      </trkpt>
      <trkpt lat="42.28843" lon="-4.139838">
        <ele>879.0082257390022</ele>
        <time>2022-05-16T10:15:31Z</time>
      </trkpt>
      <trkpt lat="42.288516" lon="-4.139896">
        <ele>878.8230806477368</ele>
        <time>2022-05-16T10:15:53Z</time>
      </trkpt>
      <trkpt lat="42.288591" lon="-4.13999">
        <ele>880.9755897298455</ele>
        <time>2022-05-16T10:16:07Z</time>
      </trkpt>
      <trkpt lat="42.288627" lon="-4.140118">
        <ele>879.8656348250806</ele>
        <time>2022-05-16T10:16:15Z</time>
      </trkpt>
      <trkpt lat="42.288679" lon="-4.140218">
        <ele>882.2398940967396</ele>
        <time>2022-05-16T10:16:29Z</time>
      </trkpt>
      <trkpt lat="42.288722" lon="-4.140345">
        <ele>881.6250919122249</ele>
        <time>2022-05-16T10:17:51Z</time>
      </trkpt>
      <trkpt lat="42.288718" lon="-4.140472">
        <ele>883.2736585047096</ele>
        <time>2022-05-16T10:18:19Z</time>
      </trkpt>
      <trkpt lat="42.288682" lon="-4.140594">
        <ele>878.6189969060943</ele>
        <time>2022-05-16T10:18:44Z</time>
      </trkpt>
      <trkpt lat="42.2886" lon="-4.140666">
        <ele>878.7359748613089</ele>
        <time>2022-05-16T10:18:56Z</time>
      </trkpt>
      <trkpt lat="42.288503" lon="-4.140617">
        <ele>877.6605656025931</ele>
        <time>2022-05-16T10:19:02Z</time>
      </trkpt>
      <trkpt lat="42.288402" lon="-4.140643">
        <ele>879.7867635600269</ele>
        <time>2022-05-16T10:19:11Z</time>
      </trkpt>
      <trkpt lat="42.288363" lon="-4.140758">
        <ele>873.6731665479019</ele>
        <time>2022-05-16T10:19:29Z</time>
      </trkpt>
      <trkpt lat="42.288275" lon="-4.140795">
        <ele>869.062273782678</ele>
        <time>2022-05-16T10:19:41Z</time>
      </trkpt>
      <trkpt lat="42.288191" lon="-4.140743">
        <ele>873.8686543451622</ele>
        <time>2022-05-16T10:19:51Z</time>
      </trkpt>
      <trkpt lat="42.288089" lon="-4.140699">
        <ele>872.7563176853582</ele>
        <time>2022-05-16T10:20:40Z</time>
      </trkpt>
      <trkpt lat="42.287992" lon="-4.140675">
        <ele>870.5712986439466</ele>
        <time>2022-05-16T10:20:49Z</time>
      </trkpt>
      <trkpt lat="42.287941" lon="-4.140799">
        <ele>860.732004548423</ele>
        <time>2022-05-16T10:21:09Z</time>
      </trkpt>
      <trkpt lat="42.28783" lon="-4.140847">
        <ele>860.8688983749598</ele>
        <time>2022-05-16T10:21:14Z</time>
      </trkpt>
      <trkpt lat="42.287752" lon="-4.14096">
        <ele>855.1726435301825</ele>
        <time>2022-05-16T10:21:45Z</time>
      </trkpt>
      <trkpt lat="42.287711" lon="-4.141072">
        <ele>851.7510712454095</ele>
        <time>2022-05-16T10:21:53Z</time>
      </trkpt>
      <trkpt lat="42.287734" lon="-4.141199">
        <ele>848.369647138752</ele>
        <time>2022-05-16T10:22:05Z</time>
      </trkpt>
      <trkpt lat="42.287774" lon="-4.141312">
        <ele>847.6628807112575</ele>
        <time>2022-05-16T10:22:13Z</time>
      </trkpt>
      <trkpt lat="42.287804" lon="-4.141433">
        <ele>847.5224300697446</ele>
        <time>2022-05-16T10:22:25Z</time>
      </trkpt>
      <trkpt lat="42.287748" lon="-4.14154">
        <ele>844.9683630904183</ele>
        <time>2022-05-16T10:22:38Z</time>
      </trkpt>
      <trkpt lat="42.287692" lon="-4.14164">
        <ele>845.901710039936</ele>
        <time>2022-05-16T10:22:48Z</time>
      </trkpt>
      <trkpt lat="42.287594" lon="-4.141666">
        <ele>851.2744971038774</ele>
        <time>2022-05-16T10:22:56Z</time>
      </trkpt>
      <trkpt lat="42.287502" lon="-4.141688">
        <ele>857.9525946248323</ele>
        <time>2022-05-16T10:23:03Z</time>
      </trkpt>
      <trkpt lat="42.287404" lon="-4.141685">
        <ele>862.8978857304901</ele>
        <time>2022-05-16T10:23:13Z</time>
      </trkpt>
      <trkpt lat="42.28731" lon="-4.141699">
        <ele>865.1954100187868</ele>
        <time>2022-05-16T10:23:21Z</time>
      </trkpt>
      <trkpt lat="42.28721" lon="-4.141685">
        <ele>867.6243120292202</ele>
        <time>2022-05-16T10:23:30Z</time>
      </trkpt>
      <trkpt lat="42.287286" lon="-4.141763">
        <ele>865.9741873266175</ele>
        <time>2022-05-16T10:25:09Z</time>
      </trkpt>
      <trkpt lat="42.287348" lon="-4.141862">
        <ele>865.7109258137643</ele>
        <time>2022-05-16T10:26:09Z</time>
      </trkpt>
      <trkpt lat="42.287271" lon="-4.141797">
        <ele>864.2005493668839</ele>
        <time>2022-05-16T10:27:14Z</time>
      </trkpt>
      <trkpt lat="42.287264" lon="-4.141921">
        <ele>859.6608009357005</ele>
        <time>2022-05-16T10:28:24Z</time>
      </trkpt>
      <trkpt lat="42.287763" lon="-4.143258">
        <ele>860.929989897646</ele>
        <time>2022-05-16T10:32:34Z</time>
      </trkpt>
      <trkpt lat="42.287703" lon="-4.143574">
        <ele>860.8625240251422</ele>
        <time>2022-05-16T10:32:35Z</time>
      </trkpt>
      <trkpt lat="42.287652" lon="-4.143405">
        <ele>864.0883805882186</ele>
        <time>2022-05-16T10:32:36Z</time>
      </trkpt>
      <trkpt lat="42.287684" lon="-4.143283">
        <ele>903.2934166574851</ele>
        <time>2022-05-16T10:32:47Z</time>
      </trkpt>
      <trkpt lat="42.287667" lon="-4.143126">
        <ele>910.5239696307108</ele>
        <time>2022-05-16T10:33:07Z</time>
      </trkpt>
      <trkpt lat="42.287669" lon="-4.142982">
        <ele>908.144037945196</ele>
        <time>2022-05-16T10:33:09Z</time>
      </trkpt>
      <trkpt lat="42.28765" lon="-4.142831">
        <ele>907.483265449293</ele>
        <time>2022-05-16T10:33:12Z</time>
      </trkpt>
      <trkpt lat="42.287639" lon="-4.142686">
        <ele>902.6601577652618</ele>
        <time>2022-05-16T10:33:14Z</time>
      </trkpt>
      <trkpt lat="42.287605" lon="-4.142497">
        <ele>896.2131065065041</ele>
        <time>2022-05-16T10:33:16Z</time>
      </trkpt>
      <trkpt lat="42.287558" lon="-4.142363">
        <ele>889.7043135538697</ele>
        <time>2022-05-16T10:33:17Z</time>
      </trkpt>
      <trkpt lat="42.287518" lon="-4.14223">
        <ele>885.8405428957194</ele>
        <time>2022-05-16T10:33:20Z</time>
      </trkpt>
      <trkpt lat="42.287472" lon="-4.142109">
        <ele>882.368376144208</ele>
        <time>2022-05-16T10:33:22Z</time>
      </trkpt>
      <trkpt lat="42.287424" lon="-4.14198">
        <ele>879.0526076098904</ele>
        <time>2022-05-16T10:33:24Z</time>
      </trkpt>
      <trkpt lat="42.287618" lon="-4.14215">
        <ele>859.2158349473029</ele>
        <time>2022-05-16T10:35:49Z</time>
      </trkpt>
      <trkpt lat="42.287477" lon="-4.142059">
        <ele>855.7476048078388</ele>
        <time>2022-05-16T10:35:51Z</time>
      </trkpt>
      <trkpt lat="42.287379" lon="-4.141953">
        <ele>858.9384501865134</ele>
        <time>2022-05-16T10:35:52Z</time>
      </trkpt>
      <trkpt lat="42.287285" lon="-4.141937">
        <ele>867.2371412087232</ele>
        <time>2022-05-16T10:36:45Z</time>
      </trkpt>
      <trkpt lat="42.287256" lon="-4.142243">
        <ele>865.8162193661556</ele>
        <time>2022-05-16T10:38:43Z</time>
      </trkpt>
      <trkpt lat="42.287293" lon="-4.14213">
        <ele>846.3293804293498</ele>
        <time>2022-05-16T10:38:45Z</time>
      </trkpt>
      <trkpt lat="42.287305" lon="-4.141986">
        <ele>866.274158783257</ele>
        <time>2022-05-16T10:38:48Z</time>
      </trkpt>
      <trkpt lat="42.287208" lon="-4.141982">
        <ele>860.4758432777599</ele>
        <time>2022-05-16T10:42:29Z</time>
      </trkpt>
      <trkpt lat="42.287106" lon="-4.141999">
        <ele>857.9462871924043</ele>
        <time>2022-05-16T10:42:37Z</time>
      </trkpt>
      <trkpt lat="42.287003" lon="-4.142025">
        <ele>854.7542788702995</ele>
        <time>2022-05-16T10:42:44Z</time>
      </trkpt>
      <trkpt lat="42.286925" lon="-4.142101">
        <ele>854.8438702970743</ele>
        <time>2022-05-16T10:42:54Z</time>
      </trkpt>
      <trkpt lat="42.286859" lon="-4.142188">
        <ele>853.8644744930789</ele>
        <time>2022-05-16T10:43:04Z</time>
      </trkpt>
      <trkpt lat="42.286892" lon="-4.142315">
        <ele>849.4992543468252</ele>
        <time>2022-05-16T10:43:12Z</time>
      </trkpt>
      <trkpt lat="42.286951" lon="-4.142423">
        <ele>847.4254572587088</ele>
        <time>2022-05-16T10:43:20Z</time>
      </trkpt>
      <trkpt lat="42.287015" lon="-4.142527">
        <ele>843.6188805028796</ele>
        <time>2022-05-16T10:43:31Z</time>
      </trkpt>
      <trkpt lat="42.287082" lon="-4.14264">
        <ele>841.9016288630664</ele>
        <time>2022-05-16T10:43:41Z</time>
      </trkpt>
      <trkpt lat="42.287131" lon="-4.142743">
        <ele>840.9711076309904</ele>
        <time>2022-05-16T10:43:51Z</time>
      </trkpt>
      <trkpt lat="42.287161" lon="-4.142866">
        <ele>843.3355042142794</ele>
        <time>2022-05-16T10:44:02Z</time>
      </trkpt>
      <trkpt lat="42.287202" lon="-4.14298">
        <ele>842.2190688299015</ele>
        <time>2022-05-16T10:44:10Z</time>
      </trkpt>
      <trkpt lat="42.287249" lon="-4.143115">
        <ele>843.9629971198738</ele>
        <time>2022-05-16T10:44:22Z</time>
      </trkpt>
      <trkpt lat="42.287295" lon="-4.143223">
        <ele>844.5478093214333</ele>
        <time>2022-05-16T10:44:29Z</time>
      </trkpt>
      <trkpt lat="42.287317" lon="-4.143341">
        <ele>845.8241153368726</ele>
        <time>2022-05-16T10:44:35Z</time>
      </trkpt>
      <trkpt lat="42.287383" lon="-4.143445">
        <ele>847.7027924899012</ele>
        <time>2022-05-16T10:44:42Z</time>
      </trkpt>
      <trkpt lat="42.287444" lon="-4.143541">
        <ele>847.3640133701265</ele>
        <time>2022-05-16T10:44:50Z</time>
      </trkpt>
      <trkpt lat="42.287491" lon="-4.143652">
        <ele>848.316293720156</ele>
        <time>2022-05-16T10:44:59Z</time>
      </trkpt>
      <trkpt lat="42.287537" lon="-4.143756">
        <ele>848.4894299870357</ele>
        <time>2022-05-16T10:45:07Z</time>
      </trkpt>
      <trkpt lat="42.287587" lon="-4.143875">
        <ele>848.8228547237813</ele>
        <time>2022-05-16T10:45:16Z</time>
      </trkpt>
      <trkpt lat="42.287602" lon="-4.144002">
        <ele>847.6835097940639</ele>
        <time>2022-05-16T10:45:28Z</time>
      </trkpt>
      <trkpt lat="42.287631" lon="-4.144129">
        <ele>846.9353892486542</ele>
        <time>2022-05-16T10:45:38Z</time>
      </trkpt>
      <trkpt lat="42.287686" lon="-4.144244">
        <ele>845.2685884879902</ele>
        <time>2022-05-16T10:45:47Z</time>
      </trkpt>
      <trkpt lat="42.287734" lon="-4.144362">
        <ele>844.4910306725651</ele>
        <time>2022-05-16T10:46:03Z</time>
      </trkpt>
      <trkpt lat="42.287767" lon="-4.144475">
        <ele>844.7523981351405</ele>
        <time>2022-05-16T10:46:19Z</time>
      </trkpt>
      <trkpt lat="42.287808" lon="-4.14459">
        <ele>846.0209494726732</ele>
        <time>2022-05-16T10:46:28Z</time>
      </trkpt>
      <trkpt lat="42.287871" lon="-4.144682">
        <ele>846.3724207105115</ele>
        <time>2022-05-16T10:46:37Z</time>
      </trkpt>
      <trkpt lat="42.287928" lon="-4.144779">
        <ele>847.0588964810595</ele>
        <time>2022-05-16T10:46:45Z</time>
      </trkpt>
      <trkpt lat="42.287976" lon="-4.144888">
        <ele>848.127461864613</ele>
        <time>2022-05-16T10:46:52Z</time>
      </trkpt>
      <trkpt lat="42.288002" lon="-4.145008">
        <ele>847.3608123799786</ele>
        <time>2022-05-16T10:47:00Z</time>
      </trkpt>
      <trkpt lat="42.28804" lon="-4.14512">
        <ele>846.5653227167204</ele>
        <time>2022-05-16T10:47:09Z</time>
      </trkpt>
      <trkpt lat="42.288093" lon="-4.145237">
        <ele>848.9311640076339</ele>
        <time>2022-05-16T10:47:40Z</time>
      </trkpt>
      <trkpt lat="42.28814" lon="-4.14536">
        <ele>849.3445300497115</ele>
        <time>2022-05-16T10:47:47Z</time>
      </trkpt>
      <trkpt lat="42.288207" lon="-4.145444">
        <ele>849.4108423860744</ele>
        <time>2022-05-16T10:47:54Z</time>
      </trkpt>
      <trkpt lat="42.288235" lon="-4.145573">
        <ele>849.7744010258466</ele>
        <time>2022-05-16T10:48:13Z</time>
      </trkpt>
      <trkpt lat="42.28829" lon="-4.145681">
        <ele>848.5487853391096</ele>
        <time>2022-05-16T10:48:34Z</time>
      </trkpt>
      <trkpt lat="42.288354" lon="-4.145793">
        <ele>848.4290776140988</ele>
        <time>2022-05-16T10:48:43Z</time>
      </trkpt>
      <trkpt lat="42.288414" lon="-4.145894">
        <ele>849.6958926972002</ele>
        <time>2022-05-16T10:48:51Z</time>
      </trkpt>
      <trkpt lat="42.288469" lon="-4.145998">
        <ele>850.0979147469625</ele>
        <time>2022-05-16T10:49:00Z</time>
      </trkpt>
      <trkpt lat="42.288505" lon="-4.146111">
        <ele>850.2394911814481</ele>
        <time>2022-05-16T10:49:06Z</time>
      </trkpt>
      <trkpt lat="42.288554" lon="-4.146232">
        <ele>854.1108258310705</ele>
        <time>2022-05-16T10:49:16Z</time>
      </trkpt>
      <trkpt lat="42.288597" lon="-4.146342">
        <ele>854.4574585175142</ele>
        <time>2022-05-16T10:49:23Z</time>
      </trkpt>
      <trkpt lat="42.288674" lon="-4.146418">
        <ele>853.4233308183029</ele>
        <time>2022-05-16T10:49:31Z</time>
      </trkpt>
      <trkpt lat="42.288765" lon="-4.146422">
        <ele>853.4928987864405</ele>
        <time>2022-05-16T10:49:41Z</time>
      </trkpt>
      <trkpt lat="42.288853" lon="-4.14649">
        <ele>853.2503705322742</ele>
        <time>2022-05-16T10:49:48Z</time>
      </trkpt>
      <trkpt lat="42.288901" lon="-4.146608">
        <ele>852.499820577912</ele>
        <time>2022-05-16T10:49:56Z</time>
      </trkpt>
      <trkpt lat="42.288925" lon="-4.146733">
        <ele>854.7177159087732</ele>
        <time>2022-05-16T10:50:04Z</time>
      </trkpt>
      <trkpt lat="42.288965" lon="-4.146852">
        <ele>854.5601653009653</ele>
        <time>2022-05-16T10:50:11Z</time>
      </trkpt>
      <trkpt lat="42.289035" lon="-4.146936">
        <ele>853.804749654606</ele>
        <time>2022-05-16T10:50:19Z</time>
      </trkpt>
      <trkpt lat="42.289112" lon="-4.147012">
        <ele>852.9933059262112</ele>
        <time>2022-05-16T10:50:27Z</time>
      </trkpt>
      <trkpt lat="42.289195" lon="-4.147086">
        <ele>851.758466668427</ele>
        <time>2022-05-16T10:50:35Z</time>
      </trkpt>
      <trkpt lat="42.289274" lon="-4.14715">
        <ele>851.3886237153783</ele>
        <time>2022-05-16T10:50:42Z</time>
      </trkpt>
      <trkpt lat="42.289352" lon="-4.147225">
        <ele>851.4679252160713</ele>
        <time>2022-05-16T10:50:49Z</time>
      </trkpt>
      <trkpt lat="42.289434" lon="-4.147292">
        <ele>852.4726086296141</ele>
        <time>2022-05-16T10:50:57Z</time>
      </trkpt>
      <trkpt lat="42.289521" lon="-4.147362">
        <ele>852.4919264335185</ele>
        <time>2022-05-16T10:51:03Z</time>
      </trkpt>
      <trkpt lat="42.289565" lon="-4.147483">
        <ele>851.4830907899886</ele>
        <time>2022-05-16T10:51:11Z</time>
      </trkpt>
      <trkpt lat="42.289634" lon="-4.14757">
        <ele>850.3525811033323</ele>
        <time>2022-05-16T10:51:18Z</time>
      </trkpt>
      <trkpt lat="42.289722" lon="-4.147624">
        <ele>850.1856303876266</ele>
        <time>2022-05-16T10:51:25Z</time>
      </trkpt>
      <trkpt lat="42.28981" lon="-4.147685">
        <ele>851.3928807117045</ele>
        <time>2022-05-16T10:51:32Z</time>
      </trkpt>
      <trkpt lat="42.289895" lon="-4.147744">
        <ele>851.4107441343367</ele>
        <time>2022-05-16T10:51:42Z</time>
      </trkpt>
      <trkpt lat="42.289951" lon="-4.147842">
        <ele>854.3297358406708</ele>
        <time>2022-05-16T10:51:50Z</time>
      </trkpt>
      <trkpt lat="42.289948" lon="-4.147971">
        <ele>853.206464767456</ele>
        <time>2022-05-16T10:51:57Z</time>
      </trkpt>
      <trkpt lat="42.289909" lon="-4.148098">
        <ele>852.6619292739779</ele>
        <time>2022-05-16T10:52:05Z</time>
      </trkpt>
      <trkpt lat="42.28988" lon="-4.148218">
        <ele>850.5943253217265</ele>
        <time>2022-05-16T10:52:57Z</time>
      </trkpt>
      <trkpt lat="42.289891" lon="-4.148339">
        <ele>848.8021980011836</ele>
        <time>2022-05-16T10:53:06Z</time>
      </trkpt>
      <trkpt lat="42.289902" lon="-4.148474">
        <ele>847.1856845840812</ele>
        <time>2022-05-16T10:53:14Z</time>
      </trkpt>
      <trkpt lat="42.289912" lon="-4.148606">
        <ele>845.0013666218147</ele>
        <time>2022-05-16T10:53:22Z</time>
      </trkpt>
      <trkpt lat="42.289908" lon="-4.148733">
        <ele>842.9670987185091</ele>
        <time>2022-05-16T10:53:30Z</time>
      </trkpt>
      <trkpt lat="42.289935" lon="-4.148862">
        <ele>841.6498474339023</ele>
        <time>2022-05-16T10:53:38Z</time>
      </trkpt>
      <trkpt lat="42.289954" lon="-4.148983">
        <ele>840.5928691029549</ele>
        <time>2022-05-16T10:53:44Z</time>
      </trkpt>
      <trkpt lat="42.289972" lon="-4.14911">
        <ele>839.8195562176406</ele>
        <time>2022-05-16T10:53:51Z</time>
      </trkpt>
      <trkpt lat="42.289991" lon="-4.149257">
        <ele>840.9760728199035</ele>
        <time>2022-05-16T10:53:59Z</time>
      </trkpt>
      <trkpt lat="42.289996" lon="-4.149408">
        <ele>841.001108280383</ele>
        <time>2022-05-16T10:54:09Z</time>
      </trkpt>
      <trkpt lat="42.29" lon="-4.149533">
        <ele>842.181545262225</ele>
        <time>2022-05-16T10:54:17Z</time>
      </trkpt>
      <trkpt lat="42.290032" lon="-4.149679">
        <ele>841.3869505841285</ele>
        <time>2022-05-16T10:54:25Z</time>
      </trkpt>
      <trkpt lat="42.290039" lon="-4.149827">
        <ele>840.4642071351409</ele>
        <time>2022-05-16T10:54:35Z</time>
      </trkpt>
      <trkpt lat="42.290057" lon="-4.149952">
        <ele>840.7907125260681</ele>
        <time>2022-05-16T10:54:41Z</time>
      </trkpt>
      <trkpt lat="42.29007" lon="-4.150088">
        <ele>841.4195659831166</ele>
        <time>2022-05-16T10:54:48Z</time>
      </trkpt>
      <trkpt lat="42.290087" lon="-4.150209">
        <ele>842.5702405776829</ele>
        <time>2022-05-16T10:54:56Z</time>
      </trkpt>
      <trkpt lat="42.290105" lon="-4.150334">
        <ele>843.3348933523521</ele>
        <time>2022-05-16T10:55:03Z</time>
      </trkpt>
      <trkpt lat="42.290084" lon="-4.150466">
        <ele>845.6576154762879</ele>
        <time>2022-05-16T10:55:12Z</time>
      </trkpt>
      <trkpt lat="42.290065" lon="-4.150598">
        <ele>845.3946698466316</ele>
        <time>2022-05-16T10:55:20Z</time>
      </trkpt>
      <trkpt lat="42.290072" lon="-4.150728">
        <ele>846.6345109790564</ele>
        <time>2022-05-16T10:55:28Z</time>
      </trkpt>
      <trkpt lat="42.290061" lon="-4.150867">
        <ele>846.434775040485</ele>
        <time>2022-05-16T10:55:35Z</time>
      </trkpt>
      <trkpt lat="42.290046" lon="-4.150987">
        <ele>845.0200319048017</ele>
        <time>2022-05-16T10:55:42Z</time>
      </trkpt>
      <trkpt lat="42.290046" lon="-4.151111">
        <ele>843.48526274506</ele>
        <time>2022-05-16T10:55:48Z</time>
      </trkpt>
      <trkpt lat="42.290059" lon="-4.151241">
        <ele>843.7667523026466</ele>
        <time>2022-05-16T10:55:56Z</time>
      </trkpt>
      <trkpt lat="42.290063" lon="-4.151368">
        <ele>844.9375068452209</ele>
        <time>2022-05-16T10:56:03Z</time>
      </trkpt>
      <trkpt lat="42.290057" lon="-4.151506">
        <ele>844.5234366292134</ele>
        <time>2022-05-16T10:56:11Z</time>
      </trkpt>
      <trkpt lat="42.290065" lon="-4.151628">
        <ele>843.6362438891083</ele>
        <time>2022-05-16T10:56:18Z</time>
      </trkpt>
      <trkpt lat="42.29006" lon="-4.151758">
        <ele>843.4011295931414</ele>
        <time>2022-05-16T10:56:25Z</time>
      </trkpt>
      <trkpt lat="42.290042" lon="-4.151886">
        <ele>843.3214996997267</ele>
        <time>2022-05-16T10:56:32Z</time>
      </trkpt>
      <trkpt lat="42.290031" lon="-4.152012">
        <ele>843.9203494684771</ele>
        <time>2022-05-16T10:56:39Z</time>
      </trkpt>
      <trkpt lat="42.290022" lon="-4.152141">
        <ele>844.5791203528643</ele>
        <time>2022-05-16T10:56:48Z</time>
      </trkpt>
      <trkpt lat="42.290011" lon="-4.152267">
        <ele>844.1074204128236</ele>
        <time>2022-05-16T10:56:56Z</time>
      </trkpt>
      <trkpt lat="42.289987" lon="-4.152386">
        <ele>843.4738485533744</ele>
        <time>2022-05-16T10:57:06Z</time>
      </trkpt>
      <trkpt lat="42.28997" lon="-4.152506">
        <ele>843.066426272504</ele>
        <time>2022-05-16T10:57:13Z</time>
      </trkpt>
      <trkpt lat="42.289946" lon="-4.152644">
        <ele>843.0751413749531</ele>
        <time>2022-05-16T10:57:20Z</time>
      </trkpt>
      <trkpt lat="42.289937" lon="-4.152767">
        <ele>842.3327025743201</ele>
        <time>2022-05-16T10:57:26Z</time>
      </trkpt>
      <trkpt lat="42.289929" lon="-4.152907">
        <ele>841.5586835602298</ele>
        <time>2022-05-16T10:57:34Z</time>
      </trkpt>
      <trkpt lat="42.289936" lon="-4.153043">
        <ele>840.9090950349346</ele>
        <time>2022-05-16T10:57:47Z</time>
      </trkpt>
      <trkpt lat="42.28992" lon="-4.153166">
        <ele>841.1091527827084</ele>
        <time>2022-05-16T10:57:59Z</time>
      </trkpt>
      <trkpt lat="42.289913" lon="-4.1533">
        <ele>841.1713091712445</ele>
        <time>2022-05-16T10:58:09Z</time>
      </trkpt>
      <trkpt lat="42.289905" lon="-4.153423">
        <ele>841.3968032542616</ele>
        <time>2022-05-16T10:58:17Z</time>
      </trkpt>
      <trkpt lat="42.289899" lon="-4.153544">
        <ele>840.5814111530781</ele>
        <time>2022-05-16T10:58:26Z</time>
      </trkpt>
      <trkpt lat="42.289879" lon="-4.153664">
        <ele>841.171619980596</ele>
        <time>2022-05-16T10:58:34Z</time>
      </trkpt>
      <trkpt lat="42.289883" lon="-4.153785">
        <ele>841.7491873605177</ele>
        <time>2022-05-16T10:58:41Z</time>
      </trkpt>
      <trkpt lat="42.289881" lon="-4.153908">
        <ele>841.5741909760982</ele>
        <time>2022-05-16T10:58:49Z</time>
      </trkpt>
      <trkpt lat="42.289886" lon="-4.154044">
        <ele>842.0104984696954</ele>
        <time>2022-05-16T10:58:56Z</time>
      </trkpt>
      <trkpt lat="42.289888" lon="-4.15418">
        <ele>842.5509480424225</ele>
        <time>2022-05-16T10:59:02Z</time>
      </trkpt>
      <trkpt lat="42.289907" lon="-4.154308">
        <ele>843.4839271139354</ele>
        <time>2022-05-16T10:59:08Z</time>
      </trkpt>
      <trkpt lat="42.289915" lon="-4.154434">
        <ele>846.2810955066234</ele>
        <time>2022-05-16T10:59:16Z</time>
      </trkpt>
      <trkpt lat="42.289919" lon="-4.154561">
        <ele>846.697138639167</ele>
        <time>2022-05-16T10:59:23Z</time>
      </trkpt>
      <trkpt lat="42.28991" lon="-4.1547">
        <ele>847.696370867081</ele>
        <time>2022-05-16T10:59:31Z</time>
      </trkpt>
      <trkpt lat="42.289901" lon="-4.154836">
        <ele>846.8364771082997</ele>
        <time>2022-05-16T10:59:40Z</time>
      </trkpt>
      <trkpt lat="42.289899" lon="-4.154966">
        <ele>846.8929447103292</ele>
        <time>2022-05-16T10:59:46Z</time>
      </trkpt>
      <trkpt lat="42.289869" lon="-4.1551">
        <ele>847.2646172046661</ele>
        <time>2022-05-16T10:59:53Z</time>
      </trkpt>
      <trkpt lat="42.289869" lon="-4.155241">
        <ele>846.6162034114823</ele>
        <time>2022-05-16T11:00:00Z</time>
      </trkpt>
      <trkpt lat="42.289871" lon="-4.155371">
        <ele>846.8152513206005</ele>
        <time>2022-05-16T11:00:07Z</time>
      </trkpt>
      <trkpt lat="42.289861" lon="-4.155499">
        <ele>847.0471548875794</ele>
        <time>2022-05-16T11:00:15Z</time>
      </trkpt>
      <trkpt lat="42.289856" lon="-4.155632">
        <ele>846.3331058984622</ele>
        <time>2022-05-16T11:00:22Z</time>
      </trkpt>
      <trkpt lat="42.289868" lon="-4.155766">
        <ele>846.7279901066795</ele>
        <time>2022-05-16T11:00:28Z</time>
      </trkpt>
      <trkpt lat="42.289848" lon="-4.155899">
        <ele>847.249547095038</ele>
        <time>2022-05-16T11:00:34Z</time>
      </trkpt>
      <trkpt lat="42.289859" lon="-4.156025">
        <ele>847.5368076665327</ele>
        <time>2022-05-16T11:00:40Z</time>
      </trkpt>
      <trkpt lat="42.289849" lon="-4.156147">
        <ele>847.9348133681342</ele>
        <time>2022-05-16T11:00:48Z</time>
      </trkpt>
      <trkpt lat="42.289829" lon="-4.156298">
        <ele>846.7481522411108</ele>
        <time>2022-05-16T11:00:58Z</time>
      </trkpt>
      <trkpt lat="42.289827" lon="-4.156426">
        <ele>846.1963429059833</ele>
        <time>2022-05-16T11:01:05Z</time>
      </trkpt>
      <trkpt lat="42.289825" lon="-4.156561">
        <ele>846.4447867153212</ele>
        <time>2022-05-16T11:01:12Z</time>
      </trkpt>
      <trkpt lat="42.289829" lon="-4.156692">
        <ele>846.7506690071896</ele>
        <time>2022-05-16T11:01:19Z</time>
      </trkpt>
      <trkpt lat="42.289825" lon="-4.156819">
        <ele>845.305365066044</ele>
        <time>2022-05-16T11:01:26Z</time>
      </trkpt>
      <trkpt lat="42.289808" lon="-4.156946">
        <ele>847.6500395312905</ele>
        <time>2022-05-16T11:01:34Z</time>
      </trkpt>
      <trkpt lat="42.289808" lon="-4.157086">
        <ele>847.2440817197785</ele>
        <time>2022-05-16T11:01:41Z</time>
      </trkpt>
      <trkpt lat="42.289788" lon="-4.157225">
        <ele>846.9984961934388</ele>
        <time>2022-05-16T11:01:47Z</time>
      </trkpt>
      <trkpt lat="42.289784" lon="-4.157359">
        <ele>848.4170329766348</ele>
        <time>2022-05-16T11:01:55Z</time>
      </trkpt>
      <trkpt lat="42.289776" lon="-4.157492">
        <ele>847.9854411398992</ele>
        <time>2022-05-16T11:02:02Z</time>
      </trkpt>
      <trkpt lat="42.289779" lon="-4.15762">
        <ele>847.3587750969455</ele>
        <time>2022-05-16T11:02:10Z</time>
      </trkpt>
      <trkpt lat="42.289794" lon="-4.157751">
        <ele>847.1052697468549</ele>
        <time>2022-05-16T11:02:17Z</time>
      </trkpt>
      <trkpt lat="42.289808" lon="-4.157878">
        <ele>847.4185345480219</ele>
        <time>2022-05-16T11:02:24Z</time>
      </trkpt>
      <trkpt lat="42.289819" lon="-4.158016">
        <ele>848.1136707700789</ele>
        <time>2022-05-16T11:02:31Z</time>
      </trkpt>
      <trkpt lat="42.289832" lon="-4.158146">
        <ele>848.5326067628339</ele>
        <time>2022-05-16T11:02:39Z</time>
      </trkpt>
      <trkpt lat="42.289846" lon="-4.158275">
        <ele>848.3686686903238</ele>
        <time>2022-05-16T11:02:47Z</time>
      </trkpt>
      <trkpt lat="42.289862" lon="-4.158408">
        <ele>847.6930145062506</ele>
        <time>2022-05-16T11:02:55Z</time>
      </trkpt>
      <trkpt lat="42.289889" lon="-4.158529">
        <ele>847.2635561488569</ele>
        <time>2022-05-16T11:03:01Z</time>
      </trkpt>
      <trkpt lat="42.289899" lon="-4.158661">
        <ele>847.5751912696287</ele>
        <time>2022-05-16T11:03:08Z</time>
      </trkpt>
      <trkpt lat="42.289922" lon="-4.158784">
        <ele>847.9623544663191</ele>
        <time>2022-05-16T11:03:14Z</time>
      </trkpt>
      <trkpt lat="42.289953" lon="-4.158902">
        <ele>848.1454302035272</ele>
        <time>2022-05-16T11:03:21Z</time>
      </trkpt>
      <trkpt lat="42.289984" lon="-4.15905">
        <ele>848.0613474119455</ele>
        <time>2022-05-16T11:03:29Z</time>
      </trkpt>
      <trkpt lat="42.290003" lon="-4.159184">
        <ele>847.5791858145967</ele>
        <time>2022-05-16T11:03:36Z</time>
      </trkpt>
      <trkpt lat="42.290023" lon="-4.159303">
        <ele>848.4339404320344</ele>
        <time>2022-05-16T11:03:42Z</time>
      </trkpt>
      <trkpt lat="42.29004" lon="-4.159427">
        <ele>849.6749046463519</ele>
        <time>2022-05-16T11:03:50Z</time>
      </trkpt>
      <trkpt lat="42.290045" lon="-4.159583">
        <ele>850.4892505668104</ele>
        <time>2022-05-16T11:04:00Z</time>
      </trkpt>
      <trkpt lat="42.290042" lon="-4.159715">
        <ele>850.1620565028861</ele>
        <time>2022-05-16T11:04:07Z</time>
      </trkpt>
      <trkpt lat="42.290053" lon="-4.159838">
        <ele>849.1664666626602</ele>
        <time>2022-05-16T11:04:15Z</time>
      </trkpt>
      <trkpt lat="42.290054" lon="-4.159964">
        <ele>848.1188732609153</ele>
        <time>2022-05-16T11:04:21Z</time>
      </trkpt>
      <trkpt lat="42.29007" lon="-4.160092">
        <ele>848.2014035768807</ele>
        <time>2022-05-16T11:04:27Z</time>
      </trkpt>
      <trkpt lat="42.290082" lon="-4.16022">
        <ele>847.5102347200736</ele>
        <time>2022-05-16T11:04:35Z</time>
      </trkpt>
      <trkpt lat="42.290075" lon="-4.160344">
        <ele>846.0798025364056</ele>
        <time>2022-05-16T11:04:43Z</time>
      </trkpt>
      <trkpt lat="42.290063" lon="-4.160482">
        <ele>845.4986278759316</ele>
        <time>2022-05-16T11:04:50Z</time>
      </trkpt>
      <trkpt lat="42.29006" lon="-4.160606">
        <ele>844.150379861705</ele>
        <time>2022-05-16T11:04:58Z</time>
      </trkpt>
      <trkpt lat="42.290025" lon="-4.160727">
        <ele>841.7031572191045</ele>
        <time>2022-05-16T11:05:15Z</time>
      </trkpt>
      <trkpt lat="42.290018" lon="-4.160852">
        <ele>841.8260061237961</ele>
        <time>2022-05-16T11:05:22Z</time>
      </trkpt>
      <trkpt lat="42.29002" lon="-4.160974">
        <ele>843.1958127366379</ele>
        <time>2022-05-16T11:05:33Z</time>
      </trkpt>
      <trkpt lat="42.290013" lon="-4.1611">
        <ele>842.6606639586389</ele>
        <time>2022-05-16T11:05:40Z</time>
      </trkpt>
      <trkpt lat="42.290023" lon="-4.161237">
        <ele>843.764071197249</ele>
        <time>2022-05-16T11:05:47Z</time>
      </trkpt>
      <trkpt lat="42.290041" lon="-4.161367">
        <ele>843.9425543183461</ele>
        <time>2022-05-16T11:05:54Z</time>
      </trkpt>
      <trkpt lat="42.290043" lon="-4.161492">
        <ele>843.9512432068586</ele>
        <time>2022-05-16T11:06:02Z</time>
      </trkpt>
      <trkpt lat="42.290026" lon="-4.16162">
        <ele>843.1490505030379</ele>
        <time>2022-05-16T11:06:09Z</time>
      </trkpt>
      <trkpt lat="42.290028" lon="-4.161765">
        <ele>844.7787037482485</ele>
        <time>2022-05-16T11:06:15Z</time>
      </trkpt>
      <trkpt lat="42.290037" lon="-4.161902">
        <ele>844.3595670238137</ele>
        <time>2022-05-16T11:06:24Z</time>
      </trkpt>
      <trkpt lat="42.290019" lon="-4.162035">
        <ele>843.7711071195081</ele>
        <time>2022-05-16T11:06:30Z</time>
      </trkpt>
      <trkpt lat="42.290014" lon="-4.162173">
        <ele>843.7524980632588</ele>
        <time>2022-05-16T11:06:38Z</time>
      </trkpt>
      <trkpt lat="42.290023" lon="-4.162296">
        <ele>844.2192729245871</ele>
        <time>2022-05-16T11:06:45Z</time>
      </trkpt>
      <trkpt lat="42.290008" lon="-4.162418">
        <ele>843.6403950257227</ele>
        <time>2022-05-16T11:06:53Z</time>
      </trkpt>
      <trkpt lat="42.290007" lon="-4.162548">
        <ele>844.5486732665449</ele>
        <time>2022-05-16T11:07:00Z</time>
      </trkpt>
      <trkpt lat="42.290026" lon="-4.162681">
        <ele>845.3778741955757</ele>
        <time>2022-05-16T11:07:07Z</time>
      </trkpt>
      <trkpt lat="42.290019" lon="-4.162802">
        <ele>845.1883972622454</ele>
        <time>2022-05-16T11:07:15Z</time>
      </trkpt>
      <trkpt lat="42.290026" lon="-4.162925">
        <ele>844.0559788616374</ele>
        <time>2022-05-16T11:07:24Z</time>
      </trkpt>
      <trkpt lat="42.290079" lon="-4.163024">
        <ele>842.7768097715452</ele>
        <time>2022-05-16T11:07:33Z</time>
      </trkpt>
      <trkpt lat="42.290127" lon="-4.163128">
        <ele>841.5923565635458</ele>
        <time>2022-05-16T11:07:40Z</time>
      </trkpt>
      <trkpt lat="42.290188" lon="-4.163227">
        <ele>841.6335891028866</ele>
        <time>2022-05-16T11:07:49Z</time>
      </trkpt>
      <trkpt lat="42.290256" lon="-4.163309">
        <ele>842.483645748347</ele>
        <time>2022-05-16T11:09:43Z</time>
      </trkpt>
      <trkpt lat="42.290298" lon="-4.163427">
        <ele>843.1694049891084</ele>
        <time>2022-05-16T11:09:51Z</time>
      </trkpt>
      <trkpt lat="42.290326" lon="-4.163552">
        <ele>843.8857436412945</ele>
        <time>2022-05-16T11:09:59Z</time>
      </trkpt>
      <trkpt lat="42.290349" lon="-4.163676">
        <ele>845.4194015413523</ele>
        <time>2022-05-16T11:10:06Z</time>
      </trkpt>
      <trkpt lat="42.29039" lon="-4.163797">
        <ele>845.5072832666337</ele>
        <time>2022-05-16T11:10:16Z</time>
      </trkpt>
      <trkpt lat="42.290421" lon="-4.163916">
        <ele>845.1399363419041</ele>
        <time>2022-05-16T11:10:26Z</time>
      </trkpt>
      <trkpt lat="42.290473" lon="-4.164017">
        <ele>846.477883153595</ele>
        <time>2022-05-16T11:11:30Z</time>
      </trkpt>
      <trkpt lat="42.290523" lon="-4.164137">
        <ele>845.9863808238879</ele>
        <time>2022-05-16T11:11:39Z</time>
      </trkpt>
      <trkpt lat="42.29059" lon="-4.164231">
        <ele>844.0409237863496</ele>
        <time>2022-05-16T11:11:48Z</time>
      </trkpt>
      <trkpt lat="42.290633" lon="-4.164337">
        <ele>843.2492852136493</ele>
        <time>2022-05-16T11:11:55Z</time>
      </trkpt>
      <trkpt lat="42.290685" lon="-4.164442">
        <ele>842.3725881353021</ele>
        <time>2022-05-16T11:12:03Z</time>
      </trkpt>
      <trkpt lat="42.290736" lon="-4.164544">
        <ele>843.1244370089844</ele>
        <time>2022-05-16T11:12:10Z</time>
      </trkpt>
      <trkpt lat="42.290789" lon="-4.164661">
        <ele>845.1610196642578</ele>
        <time>2022-05-16T11:12:17Z</time>
      </trkpt>
      <trkpt lat="42.290848" lon="-4.164754">
        <ele>846.5685026757419</ele>
        <time>2022-05-16T11:12:24Z</time>
      </trkpt>
      <trkpt lat="42.2909" lon="-4.164863">
        <ele>846.9064381523058</ele>
        <time>2022-05-16T11:12:31Z</time>
      </trkpt>
      <trkpt lat="42.290955" lon="-4.16498">
        <ele>846.6870228825137</ele>
        <time>2022-05-16T11:12:39Z</time>
      </trkpt>
      <trkpt lat="42.291005" lon="-4.165088">
        <ele>847.5897501986474</ele>
        <time>2022-05-16T11:12:47Z</time>
      </trkpt>
      <trkpt lat="42.291048" lon="-4.165195">
        <ele>848.5116353798658</ele>
        <time>2022-05-16T11:12:54Z</time>
      </trkpt>
      <trkpt lat="42.29109" lon="-4.165304">
        <ele>848.3581302911043</ele>
        <time>2022-05-16T11:13:02Z</time>
      </trkpt>
      <trkpt lat="42.291136" lon="-4.165421">
        <ele>848.0977799147367</ele>
        <time>2022-05-16T11:13:09Z</time>
      </trkpt>
      <trkpt lat="42.291175" lon="-4.165534">
        <ele>848.8952734777704</ele>
        <time>2022-05-16T11:13:13Z</time>
      </trkpt>
      <trkpt lat="42.291203" lon="-4.16565">
        <ele>850.2962807985023</ele>
        <time>2022-05-16T11:13:20Z</time>
      </trkpt>
      <trkpt lat="42.291179" lon="-4.165768">
        <ele>849.8455477980897</ele>
        <time>2022-05-16T11:13:29Z</time>
      </trkpt>
      <trkpt lat="42.291157" lon="-4.165911">
        <ele>849.6292715948075</ele>
        <time>2022-05-16T11:13:37Z</time>
      </trkpt>
      <trkpt lat="42.291147" lon="-4.16604">
        <ele>849.8368152724579</ele>
        <time>2022-05-16T11:13:46Z</time>
      </trkpt>
      <trkpt lat="42.291126" lon="-4.166164">
        <ele>849.2373791700229</ele>
        <time>2022-05-16T11:13:54Z</time>
      </trkpt>
      <trkpt lat="42.291097" lon="-4.166296">
        <ele>849.7689782008529</ele>
        <time>2022-05-16T11:14:03Z</time>
      </trkpt>
      <trkpt lat="42.291073" lon="-4.166425">
        <ele>848.9274810776114</ele>
        <time>2022-05-16T11:14:11Z</time>
      </trkpt>
      <trkpt lat="42.291076" lon="-4.166556">
        <ele>847.0982901193202</ele>
        <time>2022-05-16T11:14:19Z</time>
      </trkpt>
      <trkpt lat="42.291052" lon="-4.166676">
        <ele>844.4594913292676</ele>
        <time>2022-05-16T11:14:33Z</time>
      </trkpt>
      <trkpt lat="42.29103" lon="-4.166796">
        <ele>844.5556856775656</ele>
        <time>2022-05-16T11:14:40Z</time>
      </trkpt>
      <trkpt lat="42.291031" lon="-4.166934">
        <ele>845.3781871125102</ele>
        <time>2022-05-16T11:14:51Z</time>
      </trkpt>
      <trkpt lat="42.29102" lon="-4.167067">
        <ele>845.4184703715146</ele>
        <time>2022-05-16T11:15:00Z</time>
      </trkpt>
      <trkpt lat="42.291019" lon="-4.16719">
        <ele>845.654946051538</ele>
        <time>2022-05-16T11:15:09Z</time>
      </trkpt>
      <trkpt lat="42.290993" lon="-4.167317">
        <ele>847.3655843390152</ele>
        <time>2022-05-16T11:15:19Z</time>
      </trkpt>
      <trkpt lat="42.291005" lon="-4.167448">
        <ele>848.1902654580772</ele>
        <time>2022-05-16T11:15:27Z</time>
      </trkpt>
      <trkpt lat="42.291008" lon="-4.167576">
        <ele>849.1830839700997</ele>
        <time>2022-05-16T11:15:40Z</time>
      </trkpt>
      <trkpt lat="42.291026" lon="-4.167702">
        <ele>848.7535802908242</ele>
        <time>2022-05-16T11:15:49Z</time>
      </trkpt>
      <trkpt lat="42.291009" lon="-4.167837">
        <ele>848.083453938365</ele>
        <time>2022-05-16T11:15:58Z</time>
      </trkpt>
      <trkpt lat="42.290948" lon="-4.167929">
        <ele>847.5281929103658</ele>
        <time>2022-05-16T11:16:06Z</time>
      </trkpt>
      <trkpt lat="42.290882" lon="-4.168015">
        <ele>848.7300985818729</ele>
        <time>2022-05-16T11:16:14Z</time>
      </trkpt>
      <trkpt lat="42.290837" lon="-4.168149">
        <ele>849.1870746351779</ele>
        <time>2022-05-16T11:16:23Z</time>
      </trkpt>
      <trkpt lat="42.290834" lon="-4.168283">
        <ele>849.4652972184122</ele>
        <time>2022-05-16T11:16:32Z</time>
      </trkpt>
      <trkpt lat="42.290863" lon="-4.168407">
        <ele>851.5847683520988</ele>
        <time>2022-05-16T11:16:43Z</time>
      </trkpt>
      <trkpt lat="42.290857" lon="-4.168528">
        <ele>853.9056675788015</ele>
        <time>2022-05-16T11:16:52Z</time>
      </trkpt>
      <trkpt lat="42.290855" lon="-4.168651">
        <ele>856.5257931249216</ele>
        <time>2022-05-16T11:17:02Z</time>
      </trkpt>
      <trkpt lat="42.290854" lon="-4.16878">
        <ele>858.3061781153083</ele>
        <time>2022-05-16T11:17:12Z</time>
      </trkpt>
      <trkpt lat="42.290867" lon="-4.168906">
        <ele>861.0739882411435</ele>
        <time>2022-05-16T11:17:22Z</time>
      </trkpt>
      <trkpt lat="42.290894" lon="-4.169027">
        <ele>866.5887367101386</ele>
        <time>2022-05-16T11:17:37Z</time>
      </trkpt>
      <trkpt lat="42.29091" lon="-4.169154">
        <ele>869.147850186564</ele>
        <time>2022-05-16T11:17:53Z</time>
      </trkpt>
      <trkpt lat="42.290926" lon="-4.169282">
        <ele>870.2199178254232</ele>
        <time>2022-05-16T11:18:03Z</time>
      </trkpt>
      <trkpt lat="42.290941" lon="-4.169405">
        <ele>870.2534402990714</ele>
        <time>2022-05-16T11:18:12Z</time>
      </trkpt>
      <trkpt lat="42.290946" lon="-4.169526">
        <ele>871.6934889256954</ele>
        <time>2022-05-16T11:18:22Z</time>
      </trkpt>
      <trkpt lat="42.290895" lon="-4.169656">
        <ele>873.0395537009463</ele>
        <time>2022-05-16T11:18:34Z</time>
      </trkpt>
      <trkpt lat="42.290829" lon="-4.169758">
        <ele>874.8662360087037</ele>
        <time>2022-05-16T11:18:45Z</time>
      </trkpt>
      <trkpt lat="42.290735" lon="-4.169794">
        <ele>875.9144229246303</ele>
        <time>2022-05-16T11:18:55Z</time>
      </trkpt>
      <trkpt lat="42.290663" lon="-4.169881">
        <ele>879.6248547406867</ele>
        <time>2022-05-16T11:19:06Z</time>
      </trkpt>
      <trkpt lat="42.290589" lon="-4.169953">
        <ele>880.9176964750513</ele>
        <time>2022-05-16T11:19:15Z</time>
      </trkpt>
      <trkpt lat="42.29051" lon="-4.170031">
        <ele>882.1697535905987</ele>
        <time>2022-05-16T11:19:23Z</time>
      </trkpt>
      <trkpt lat="42.290433" lon="-4.170107">
        <ele>883.629877153784</ele>
        <time>2022-05-16T11:19:33Z</time>
      </trkpt>
      <trkpt lat="42.290366" lon="-4.170194">
        <ele>884.614321581088</ele>
        <time>2022-05-16T11:19:42Z</time>
      </trkpt>
      <trkpt lat="42.290326" lon="-4.170316">
        <ele>884.756782184355</ele>
        <time>2022-05-16T11:19:52Z</time>
      </trkpt>
      <trkpt lat="42.290262" lon="-4.170407">
        <ele>890.0919188354164</ele>
        <time>2022-05-16T11:20:08Z</time>
      </trkpt>
      <trkpt lat="42.290256" lon="-4.17053">
        <ele>889.0361863840371</ele>
        <time>2022-05-16T11:20:18Z</time>
      </trkpt>
      <trkpt lat="42.290251" lon="-4.170663">
        <ele>888.901171409525</ele>
        <time>2022-05-16T11:20:26Z</time>
      </trkpt>
      <trkpt lat="42.290233" lon="-4.170788">
        <ele>888.1696978891268</ele>
        <time>2022-05-16T11:20:35Z</time>
      </trkpt>
      <trkpt lat="42.290239" lon="-4.170914">
        <ele>887.6932140160352</ele>
        <time>2022-05-16T11:20:43Z</time>
      </trkpt>
      <trkpt lat="42.29022" lon="-4.171037">
        <ele>887.4539718562737</ele>
        <time>2022-05-16T11:20:52Z</time>
      </trkpt>
      <trkpt lat="42.29021" lon="-4.171163">
        <ele>888.4381986698136</ele>
        <time>2022-05-16T11:20:59Z</time>
      </trkpt>
      <trkpt lat="42.290219" lon="-4.171292">
        <ele>889.7710339771584</ele>
        <time>2022-05-16T11:21:07Z</time>
      </trkpt>
      <trkpt lat="42.290222" lon="-4.171414">
        <ele>891.2713167546317</ele>
        <time>2022-05-16T11:21:15Z</time>
      </trkpt>
      <trkpt lat="42.290209" lon="-4.171541">
        <ele>892.9519853601232</ele>
        <time>2022-05-16T11:21:25Z</time>
      </trkpt>
      <trkpt lat="42.290178" lon="-4.171661">
        <ele>895.9279886325821</ele>
        <time>2022-05-16T11:21:34Z</time>
      </trkpt>
      <trkpt lat="42.290084" lon="-4.171727">
        <ele>898.5000121500343</ele>
        <time>2022-05-16T11:21:43Z</time>
      </trkpt>
      <trkpt lat="42.289997" lon="-4.171776">
        <ele>900.2170555787161</ele>
        <time>2022-05-16T11:21:51Z</time>
      </trkpt>
      <trkpt lat="42.289935" lon="-4.171868">
        <ele>903.8312933100387</ele>
        <time>2022-05-16T11:23:26Z</time>
      </trkpt>
      <trkpt lat="42.289849" lon="-4.171937">
        <ele>905.5656429687515</ele>
        <time>2022-05-16T11:23:36Z</time>
      </trkpt>
      <trkpt lat="42.289788" lon="-4.172039">
        <ele>907.4781208159402</ele>
        <time>2022-05-16T11:23:46Z</time>
      </trkpt>
      <trkpt lat="42.289734" lon="-4.172137">
        <ele>909.6934299701825</ele>
        <time>2022-05-16T11:23:58Z</time>
      </trkpt>
      <trkpt lat="42.289697" lon="-4.172255">
        <ele>910.4019820755348</ele>
        <time>2022-05-16T11:24:24Z</time>
      </trkpt>
      <trkpt lat="42.289686" lon="-4.172382">
        <ele>910.3952723061666</ele>
        <time>2022-05-16T11:24:32Z</time>
      </trkpt>
      <trkpt lat="42.289654" lon="-4.172524">
        <ele>910.3696740120649</ele>
        <time>2022-05-16T11:25:28Z</time>
      </trkpt>
      <trkpt lat="42.289628" lon="-4.17267">
        <ele>909.1191456597298</ele>
        <time>2022-05-16T11:25:39Z</time>
      </trkpt>
      <trkpt lat="42.289597" lon="-4.172808">
        <ele>909.4819393055514</ele>
        <time>2022-05-16T11:25:49Z</time>
      </trkpt>
      <trkpt lat="42.289541" lon="-4.172927">
        <ele>910.3716291384771</ele>
        <time>2022-05-16T11:25:59Z</time>
      </trkpt>
      <trkpt lat="42.289468" lon="-4.173008">
        <ele>913.4687671298161</ele>
        <time>2022-05-16T11:26:09Z</time>
      </trkpt>
      <trkpt lat="42.28941" lon="-4.173113">
        <ele>916.1725076166913</ele>
        <time>2022-05-16T11:26:19Z</time>
      </trkpt>
      <trkpt lat="42.289337" lon="-4.173201">
        <ele>918.5813770275563</ele>
        <time>2022-05-16T11:26:27Z</time>
      </trkpt>
      <trkpt lat="42.28926" lon="-4.173281">
        <ele>919.4032787047327</ele>
        <time>2022-05-16T11:26:37Z</time>
      </trkpt>
      <trkpt lat="42.289216" lon="-4.173396">
        <ele>921.3064340334386</ele>
        <time>2022-05-16T11:26:46Z</time>
      </trkpt>
      <trkpt lat="42.289176" lon="-4.173506">
        <ele>922.1016371510923</ele>
        <time>2022-05-16T11:26:54Z</time>
      </trkpt>
      <trkpt lat="42.289165" lon="-4.173628">
        <ele>922.1896018078551</ele>
        <time>2022-05-16T11:27:01Z</time>
      </trkpt>
      <trkpt lat="42.289163" lon="-4.17376">
        <ele>923.619973580353</ele>
        <time>2022-05-16T11:27:11Z</time>
      </trkpt>
      <trkpt lat="42.289158" lon="-4.173884">
        <ele>925.936189445667</ele>
        <time>2022-05-16T11:27:21Z</time>
      </trkpt>
      <trkpt lat="42.289181" lon="-4.174015">
        <ele>925.7124317567796</ele>
        <time>2022-05-16T11:27:30Z</time>
      </trkpt>
      <trkpt lat="42.289175" lon="-4.174142">
        <ele>925.204417780973</ele>
        <time>2022-05-16T11:27:41Z</time>
      </trkpt>
      <trkpt lat="42.289134" lon="-4.174258">
        <ele>924.1118451533839</ele>
        <time>2022-05-16T11:27:49Z</time>
      </trkpt>
      <trkpt lat="42.289102" lon="-4.174386">
        <ele>924.480623498559</ele>
        <time>2022-05-16T11:27:57Z</time>
      </trkpt>
      <trkpt lat="42.289056" lon="-4.174493">
        <ele>925.4246699279174</ele>
        <time>2022-05-16T11:28:04Z</time>
      </trkpt>
      <trkpt lat="42.289013" lon="-4.174606">
        <ele>927.0140340477228</ele>
        <time>2022-05-16T11:28:11Z</time>
      </trkpt>
      <trkpt lat="42.289019" lon="-4.17476">
        <ele>928.0880986824632</ele>
        <time>2022-05-16T11:28:19Z</time>
      </trkpt>
      <trkpt lat="42.289005" lon="-4.174882">
        <ele>928.9517177557573</ele>
        <time>2022-05-16T11:28:27Z</time>
      </trkpt>
      <trkpt lat="42.289028" lon="-4.17501">
        <ele>929.1435155263171</ele>
        <time>2022-05-16T11:28:34Z</time>
      </trkpt>
      <trkpt lat="42.289027" lon="-4.175142">
        <ele>929.1522623002529</ele>
        <time>2022-05-16T11:28:42Z</time>
      </trkpt>
      <trkpt lat="42.289004" lon="-4.175266">
        <ele>931.1599409738556</ele>
        <time>2022-05-16T11:28:50Z</time>
      </trkpt>
      <trkpt lat="42.28898" lon="-4.175395">
        <ele>933.5879183663055</ele>
        <time>2022-05-16T11:28:57Z</time>
      </trkpt>
      <trkpt lat="42.28897" lon="-4.175527">
        <ele>934.7701367614791</ele>
        <time>2022-05-16T11:29:05Z</time>
      </trkpt>
      <trkpt lat="42.288948" lon="-4.175653">
        <ele>935.6670706244186</ele>
        <time>2022-05-16T11:29:12Z</time>
      </trkpt>
      <trkpt lat="42.288909" lon="-4.175774">
        <ele>936.3901073466986</ele>
        <time>2022-05-16T11:29:20Z</time>
      </trkpt>
      <trkpt lat="42.288869" lon="-4.175902">
        <ele>937.5919829932973</ele>
        <time>2022-05-16T11:29:27Z</time>
      </trkpt>
      <trkpt lat="42.288853" lon="-4.176032">
        <ele>938.2375239143148</ele>
        <time>2022-05-16T11:29:33Z</time>
      </trkpt>
      <trkpt lat="42.288837" lon="-4.176159">
        <ele>938.4113177563995</ele>
        <time>2022-05-16T11:29:41Z</time>
      </trkpt>
      <trkpt lat="42.288801" lon="-4.176277">
        <ele>940.3206864167005</ele>
        <time>2022-05-16T11:29:48Z</time>
      </trkpt>
      <trkpt lat="42.288731" lon="-4.17637">
        <ele>943.3703544028103</ele>
        <time>2022-05-16T11:29:57Z</time>
      </trkpt>
      <trkpt lat="42.288671" lon="-4.176472">
        <ele>944.4952186280861</ele>
        <time>2022-05-16T11:30:03Z</time>
      </trkpt>
      <trkpt lat="42.288611" lon="-4.176568">
        <ele>945.5975730391219</ele>
        <time>2022-05-16T11:30:11Z</time>
      </trkpt>
      <trkpt lat="42.288539" lon="-4.176652">
        <ele>945.5431209718809</ele>
        <time>2022-05-16T11:30:18Z</time>
      </trkpt>
      <trkpt lat="42.288471" lon="-4.176734">
        <ele>946.8391874851659</ele>
        <time>2022-05-16T11:30:24Z</time>
      </trkpt>
      <trkpt lat="42.288406" lon="-4.176834">
        <ele>947.2910679262131</ele>
        <time>2022-05-16T11:30:31Z</time>
      </trkpt>
      <trkpt lat="42.288341" lon="-4.176919">
        <ele>947.6683208458126</ele>
        <time>2022-05-16T11:30:38Z</time>
      </trkpt>
      <trkpt lat="42.288265" lon="-4.177013">
        <ele>949.3882882548496</ele>
        <time>2022-05-16T11:30:46Z</time>
      </trkpt>
      <trkpt lat="42.28822" lon="-4.17712">
        <ele>950.7256920831278</ele>
        <time>2022-05-16T11:30:53Z</time>
      </trkpt>
      <trkpt lat="42.288197" lon="-4.177241">
        <ele>951.4850634327158</ele>
        <time>2022-05-16T11:30:59Z</time>
      </trkpt>
      <trkpt lat="42.288175" lon="-4.177378">
        <ele>952.751213147305</ele>
        <time>2022-05-16T11:31:05Z</time>
      </trkpt>
      <trkpt lat="42.288155" lon="-4.177497">
        <ele>954.591686048545</ele>
        <time>2022-05-16T11:31:11Z</time>
      </trkpt>
      <trkpt lat="42.288127" lon="-4.177633">
        <ele>957.2043422972783</ele>
        <time>2022-05-16T11:31:20Z</time>
      </trkpt>
      <trkpt lat="42.288091" lon="-4.177752">
        <ele>958.0455987015739</ele>
        <time>2022-05-16T11:31:28Z</time>
      </trkpt>
      <trkpt lat="42.288029" lon="-4.177855">
        <ele>958.2347736945376</ele>
        <time>2022-05-16T11:31:36Z</time>
      </trkpt>
      <trkpt lat="42.287979" lon="-4.177961">
        <ele>961.0636509079486</ele>
        <time>2022-05-16T11:31:45Z</time>
      </trkpt>
      <trkpt lat="42.287912" lon="-4.178047">
        <ele>963.219058888033</ele>
        <time>2022-05-16T11:31:55Z</time>
      </trkpt>
      <trkpt lat="42.287823" lon="-4.178115">
        <ele>966.724333490245</ele>
        <time>2022-05-16T11:32:04Z</time>
      </trkpt>
      <trkpt lat="42.287758" lon="-4.178211">
        <ele>970.1717419428751</ele>
        <time>2022-05-16T11:32:16Z</time>
      </trkpt>
      <trkpt lat="42.287682" lon="-4.178285">
        <ele>971.3792333612218</ele>
        <time>2022-05-16T11:32:25Z</time>
      </trkpt>
      <trkpt lat="42.287621" lon="-4.178385">
        <ele>973.3996069980785</ele>
        <time>2022-05-16T11:32:33Z</time>
      </trkpt>
      <trkpt lat="42.287569" lon="-4.178492">
        <ele>974.8601454077289</ele>
        <time>2022-05-16T11:32:42Z</time>
      </trkpt>
      <trkpt lat="42.287519" lon="-4.178605">
        <ele>976.065218789503</ele>
        <time>2022-05-16T11:32:51Z</time>
      </trkpt>
      <trkpt lat="42.287465" lon="-4.178712">
        <ele>976.808908469975</ele>
        <time>2022-05-16T11:33:00Z</time>
      </trkpt>
      <trkpt lat="42.287424" lon="-4.178834">
        <ele>978.3818973572925</ele>
        <time>2022-05-16T11:33:10Z</time>
      </trkpt>
      <trkpt lat="42.287381" lon="-4.178956">
        <ele>978.8496829709038</ele>
        <time>2022-05-16T11:33:19Z</time>
      </trkpt>
      <trkpt lat="42.287339" lon="-4.179068">
        <ele>980.2947582630441</ele>
        <time>2022-05-16T11:33:28Z</time>
      </trkpt>
      <trkpt lat="42.287314" lon="-4.179188">
        <ele>979.8482438642532</ele>
        <time>2022-05-16T11:35:34Z</time>
      </trkpt>
      <trkpt lat="42.287273" lon="-4.179311">
        <ele>978.3577095791698</ele>
        <time>2022-05-16T11:35:46Z</time>
      </trkpt>
      <trkpt lat="42.287221" lon="-4.179188">
        <ele>978.8810004433617</ele>
        <time>2022-05-16T11:51:01Z</time>
      </trkpt>
      <trkpt lat="42.287293" lon="-4.179275">
        <ele>968.9517380241305</ele>
        <time>2022-05-16T11:53:58Z</time>
      </trkpt>
      <trkpt lat="42.287343" lon="-4.179383">
        <ele>969.4369025081396</ele>
        <time>2022-05-16T12:05:26Z</time>
      </trkpt>
      <trkpt lat="42.287375" lon="-4.179498">
        <ele>968.4784215418622</ele>
        <time>2022-05-16T12:05:37Z</time>
      </trkpt>
      <trkpt lat="42.287399" lon="-4.179626">
        <ele>969.0615876177326</ele>
        <time>2022-05-16T12:05:47Z</time>
      </trkpt>
      <trkpt lat="42.287414" lon="-4.179757">
        <ele>968.4022433413193</ele>
        <time>2022-05-16T12:05:56Z</time>
      </trkpt>
      <trkpt lat="42.287425" lon="-4.179889">
        <ele>968.3397096786648</ele>
        <time>2022-05-16T12:06:04Z</time>
      </trkpt>
      <trkpt lat="42.287426" lon="-4.180022">
        <ele>967.3817943492904</ele>
        <time>2022-05-16T12:06:15Z</time>
      </trkpt>
      <trkpt lat="42.287407" lon="-4.180147">
        <ele>966.3187029911205</ele>
        <time>2022-05-16T12:06:25Z</time>
      </trkpt>
      <trkpt lat="42.287401" lon="-4.18027">
        <ele>965.8673993255943</ele>
        <time>2022-05-16T12:06:35Z</time>
      </trkpt>
      <trkpt lat="42.287399" lon="-4.180407">
        <ele>965.2359776860103</ele>
        <time>2022-05-16T12:06:43Z</time>
      </trkpt>
      <trkpt lat="42.287407" lon="-4.180538">
        <ele>966.3267244352028</ele>
        <time>2022-05-16T12:06:51Z</time>
      </trkpt>
      <trkpt lat="42.28741" lon="-4.180664">
        <ele>967.169167210348</ele>
        <time>2022-05-16T12:06:59Z</time>
      </trkpt>
      <trkpt lat="42.287411" lon="-4.180801">
        <ele>966.367538084276</ele>
        <time>2022-05-16T12:07:09Z</time>
      </trkpt>
      <trkpt lat="42.287415" lon="-4.18093">
        <ele>964.0132936211303</ele>
        <time>2022-05-16T12:07:17Z</time>
      </trkpt>
      <trkpt lat="42.287418" lon="-4.181064">
        <ele>963.3311022836715</ele>
        <time>2022-05-16T12:07:26Z</time>
      </trkpt>
      <trkpt lat="42.287429" lon="-4.181194">
        <ele>963.3733856184408</ele>
        <time>2022-05-16T12:07:34Z</time>
      </trkpt>
      <trkpt lat="42.287433" lon="-4.181318">
        <ele>962.2686860179529</ele>
        <time>2022-05-16T12:07:42Z</time>
      </trkpt>
      <trkpt lat="42.287427" lon="-4.181453">
        <ele>962.0373779358342</ele>
        <time>2022-05-16T12:07:51Z</time>
      </trkpt>
      <trkpt lat="42.287437" lon="-4.181577">
        <ele>962.0489656794816</ele>
        <time>2022-05-16T12:07:57Z</time>
      </trkpt>
      <trkpt lat="42.287434" lon="-4.181714">
        <ele>962.0311314249411</ele>
        <time>2022-05-16T12:08:06Z</time>
      </trkpt>
      <trkpt lat="42.287434" lon="-4.181837">
        <ele>963.3812356339768</ele>
        <time>2022-05-16T12:08:14Z</time>
      </trkpt>
      <trkpt lat="42.287436" lon="-4.181964">
        <ele>964.3202865794301</ele>
        <time>2022-05-16T12:08:22Z</time>
      </trkpt>
      <trkpt lat="42.287427" lon="-4.182102">
        <ele>965.1200699582696</ele>
        <time>2022-05-16T12:08:31Z</time>
      </trkpt>
      <trkpt lat="42.287418" lon="-4.182224">
        <ele>966.0969206746668</ele>
        <time>2022-05-16T12:08:37Z</time>
      </trkpt>
      <trkpt lat="42.287406" lon="-4.182352">
        <ele>968.0031630247831</ele>
        <time>2022-05-16T12:08:45Z</time>
      </trkpt>
      <trkpt lat="42.287388" lon="-4.182482">
        <ele>967.4844384072348</ele>
        <time>2022-05-16T12:08:54Z</time>
      </trkpt>
      <trkpt lat="42.28737" lon="-4.182612">
        <ele>967.2393009541556</ele>
        <time>2022-05-16T12:09:02Z</time>
      </trkpt>
      <trkpt lat="42.287354" lon="-4.182747">
        <ele>967.5410271920264</ele>
        <time>2022-05-16T12:09:10Z</time>
      </trkpt>
      <trkpt lat="42.28734" lon="-4.182869">
        <ele>966.0293613309041</ele>
        <time>2022-05-16T12:09:17Z</time>
      </trkpt>
      <trkpt lat="42.287328" lon="-4.182996">
        <ele>965.7234272323549</ele>
        <time>2022-05-16T12:09:26Z</time>
      </trkpt>
      <trkpt lat="42.287323" lon="-4.183131">
        <ele>965.3512939289212</ele>
        <time>2022-05-16T12:09:34Z</time>
      </trkpt>
      <trkpt lat="42.287322" lon="-4.183264">
        <ele>965.9344046832994</ele>
        <time>2022-05-16T12:09:42Z</time>
      </trkpt>
      <trkpt lat="42.287306" lon="-4.183384">
        <ele>965.8003849545494</ele>
        <time>2022-05-16T12:09:50Z</time>
      </trkpt>
      <trkpt lat="42.287292" lon="-4.183534">
        <ele>964.2023071600124</ele>
        <time>2022-05-16T12:09:59Z</time>
      </trkpt>
      <trkpt lat="42.287271" lon="-4.183655">
        <ele>962.588400372304</ele>
        <time>2022-05-16T12:10:08Z</time>
      </trkpt>
      <trkpt lat="42.287253" lon="-4.183781">
        <ele>961.5914034247398</ele>
        <time>2022-05-16T12:10:16Z</time>
      </trkpt>
      <trkpt lat="42.287229" lon="-4.183903">
        <ele>962.3281762078404</ele>
        <time>2022-05-16T12:10:25Z</time>
      </trkpt>
      <trkpt lat="42.287214" lon="-4.184035">
        <ele>962.1355296503752</ele>
        <time>2022-05-16T12:10:33Z</time>
      </trkpt>
      <trkpt lat="42.287201" lon="-4.184159">
        <ele>962.6383435418829</ele>
        <time>2022-05-16T12:10:42Z</time>
      </trkpt>
      <trkpt lat="42.28717" lon="-4.184276">
        <ele>963.2273416928947</ele>
        <time>2022-05-16T12:10:50Z</time>
      </trkpt>
      <trkpt lat="42.287137" lon="-4.184388">
        <ele>963.7914342088625</ele>
        <time>2022-05-16T12:10:57Z</time>
      </trkpt>
      <trkpt lat="42.287095" lon="-4.184506">
        <ele>964.4844880104065</ele>
        <time>2022-05-16T12:11:06Z</time>
      </trkpt>
      <trkpt lat="42.287052" lon="-4.18462">
        <ele>964.477339704521</ele>
        <time>2022-05-16T12:11:13Z</time>
      </trkpt>
      <trkpt lat="42.287014" lon="-4.184732">
        <ele>964.8404877958819</ele>
        <time>2022-05-16T12:11:22Z</time>
      </trkpt>
      <trkpt lat="42.286975" lon="-4.184843">
        <ele>964.5393026834354</ele>
        <time>2022-05-16T12:11:31Z</time>
      </trkpt>
      <trkpt lat="42.28692" lon="-4.184946">
        <ele>964.108280682005</ele>
        <time>2022-05-16T12:11:38Z</time>
      </trkpt>
      <trkpt lat="42.286867" lon="-4.185045">
        <ele>962.9544888120145</ele>
        <time>2022-05-16T12:11:44Z</time>
      </trkpt>
      <trkpt lat="42.286805" lon="-4.185149">
        <ele>961.9959668973461</ele>
        <time>2022-05-16T12:11:54Z</time>
      </trkpt>
      <trkpt lat="42.286743" lon="-4.185277">
        <ele>959.363081317395</ele>
        <time>2022-05-16T12:12:03Z</time>
      </trkpt>
      <trkpt lat="42.28667" lon="-4.185375">
        <ele>956.2730149123818</ele>
        <time>2022-05-16T12:12:10Z</time>
      </trkpt>
      <trkpt lat="42.286599" lon="-4.185465">
        <ele>950.5718794101849</ele>
        <time>2022-05-16T12:12:22Z</time>
      </trkpt>
      <trkpt lat="42.286556" lon="-4.185591">
        <ele>943.5533494921401</ele>
        <time>2022-05-16T12:12:34Z</time>
      </trkpt>
      <trkpt lat="42.286518" lon="-4.185704">
        <ele>939.642433305271</ele>
        <time>2022-05-16T12:13:31Z</time>
      </trkpt>
      <trkpt lat="42.286495" lon="-4.185828">
        <ele>938.0398787250742</ele>
        <time>2022-05-16T12:13:37Z</time>
      </trkpt>
      <trkpt lat="42.286468" lon="-4.185959">
        <ele>935.7842763671651</ele>
        <time>2022-05-16T12:13:47Z</time>
      </trkpt>
      <trkpt lat="42.286441" lon="-4.186088">
        <ele>932.4916779985651</ele>
        <time>2022-05-16T12:13:55Z</time>
      </trkpt>
      <trkpt lat="42.286416" lon="-4.186207">
        <ele>930.24204518646</ele>
        <time>2022-05-16T12:14:02Z</time>
      </trkpt>
      <trkpt lat="42.286395" lon="-4.18633">
        <ele>927.759182295762</ele>
        <time>2022-05-16T12:14:09Z</time>
      </trkpt>
      <trkpt lat="42.286375" lon="-4.186453">
        <ele>924.6680143317208</ele>
        <time>2022-05-16T12:14:17Z</time>
      </trkpt>
      <trkpt lat="42.286347" lon="-4.18657">
        <ele>921.7868207050487</ele>
        <time>2022-05-16T12:14:27Z</time>
      </trkpt>
      <trkpt lat="42.286327" lon="-4.1867">
        <ele>919.1061193523929</ele>
        <time>2022-05-16T12:14:36Z</time>
      </trkpt>
      <trkpt lat="42.286305" lon="-4.18685">
        <ele>916.9479864826426</ele>
        <time>2022-05-16T12:14:44Z</time>
      </trkpt>
      <trkpt lat="42.286277" lon="-4.186978">
        <ele>914.65067432262</ele>
        <time>2022-05-16T12:14:54Z</time>
      </trkpt>
      <trkpt lat="42.286242" lon="-4.187122">
        <ele>910.9357295837253</ele>
        <time>2022-05-16T12:15:20Z</time>
      </trkpt>
      <trkpt lat="42.286225" lon="-4.187249">
        <ele>909.9947628621012</ele>
        <time>2022-05-16T12:15:28Z</time>
      </trkpt>
      <trkpt lat="42.28619" lon="-4.187374">
        <ele>907.9129479452968</ele>
        <time>2022-05-16T12:15:37Z</time>
      </trkpt>
      <trkpt lat="42.286165" lon="-4.187507">
        <ele>904.243510812521</ele>
        <time>2022-05-16T12:15:46Z</time>
      </trkpt>
      <trkpt lat="42.286131" lon="-4.18762">
        <ele>902.1340361051261</ele>
        <time>2022-05-16T12:15:53Z</time>
      </trkpt>
      <trkpt lat="42.286084" lon="-4.187724">
        <ele>900.3353384714574</ele>
        <time>2022-05-16T12:16:01Z</time>
      </trkpt>
      <trkpt lat="42.286035" lon="-4.187838">
        <ele>898.0606132568792</ele>
        <time>2022-05-16T12:16:08Z</time>
      </trkpt>
      <trkpt lat="42.285974" lon="-4.187944">
        <ele>895.9117585634813</ele>
        <time>2022-05-16T12:16:16Z</time>
      </trkpt>
      <trkpt lat="42.285935" lon="-4.188056">
        <ele>894.2054152591154</ele>
        <time>2022-05-16T12:16:23Z</time>
      </trkpt>
      <trkpt lat="42.285911" lon="-4.188189">
        <ele>893.8439090559259</ele>
        <time>2022-05-16T12:16:32Z</time>
      </trkpt>
      <trkpt lat="42.285889" lon="-4.188314">
        <ele>891.2201368492097</ele>
        <time>2022-05-16T12:16:42Z</time>
      </trkpt>
      <trkpt lat="42.285871" lon="-4.188445">
        <ele>889.2590251900256</ele>
        <time>2022-05-16T12:17:00Z</time>
      </trkpt>
      <trkpt lat="42.28586" lon="-4.188568">
        <ele>888.689337130636</ele>
        <time>2022-05-16T12:17:09Z</time>
      </trkpt>
      <trkpt lat="42.28586" lon="-4.18869">
        <ele>888.5545023540035</ele>
        <time>2022-05-16T12:17:17Z</time>
      </trkpt>
      <trkpt lat="42.28587" lon="-4.188819">
        <ele>886.4476931039244</ele>
        <time>2022-05-16T12:17:32Z</time>
      </trkpt>
      <trkpt lat="42.285874" lon="-4.188944">
        <ele>887.8229149682447</ele>
        <time>2022-05-16T12:17:40Z</time>
      </trkpt>
      <trkpt lat="42.285866" lon="-4.18907">
        <ele>886.3546345746145</ele>
        <time>2022-05-16T12:17:50Z</time>
      </trkpt>
      <trkpt lat="42.285878" lon="-4.189219">
        <ele>885.4333809101954</ele>
        <time>2022-05-16T12:18:00Z</time>
      </trkpt>
      <trkpt lat="42.285889" lon="-4.189349">
        <ele>883.4232715787366</ele>
        <time>2022-05-16T12:18:11Z</time>
      </trkpt>
      <trkpt lat="42.285897" lon="-4.189481">
        <ele>880.3090159809217</ele>
        <time>2022-05-16T12:18:21Z</time>
      </trkpt>
      <trkpt lat="42.285904" lon="-4.189605">
        <ele>878.3516596173868</ele>
        <time>2022-05-16T12:18:32Z</time>
      </trkpt>
      <trkpt lat="42.285922" lon="-4.189739">
        <ele>875.5741247218102</ele>
        <time>2022-05-16T12:18:43Z</time>
      </trkpt>
      <trkpt lat="42.285943" lon="-4.18986">
        <ele>875.2593059949577</ele>
        <time>2022-05-16T12:18:53Z</time>
      </trkpt>
      <trkpt lat="42.285955" lon="-4.18998">
        <ele>874.8185460399836</ele>
        <time>2022-05-16T12:19:01Z</time>
      </trkpt>
      <trkpt lat="42.285972" lon="-4.190104">
        <ele>873.5737636601552</ele>
        <time>2022-05-16T12:19:09Z</time>
      </trkpt>
      <trkpt lat="42.28598" lon="-4.19024">
        <ele>874.4688928890973</ele>
        <time>2022-05-16T12:19:21Z</time>
      </trkpt>
      <trkpt lat="42.285988" lon="-4.190365">
        <ele>873.6592372404411</ele>
        <time>2022-05-16T12:19:29Z</time>
      </trkpt>
      <trkpt lat="42.286003" lon="-4.190506">
        <ele>874.1898530460894</ele>
        <time>2022-05-16T12:19:39Z</time>
      </trkpt>
      <trkpt lat="42.285992" lon="-4.19064">
        <ele>873.2078293841332</ele>
        <time>2022-05-16T12:19:48Z</time>
      </trkpt>
      <trkpt lat="42.285999" lon="-4.190762">
        <ele>872.3634592359886</ele>
        <time>2022-05-16T12:19:56Z</time>
      </trkpt>
      <trkpt lat="42.285994" lon="-4.190895">
        <ele>873.0381467193365</ele>
        <time>2022-05-16T12:20:05Z</time>
      </trkpt>
      <trkpt lat="42.28601" lon="-4.191026">
        <ele>874.0863333456218</ele>
        <time>2022-05-16T12:20:15Z</time>
      </trkpt>
      <trkpt lat="42.286023" lon="-4.19116">
        <ele>873.2742395605892</ele>
        <time>2022-05-16T12:20:25Z</time>
      </trkpt>
      <trkpt lat="42.286055" lon="-4.191281">
        <ele>872.2849107459188</ele>
        <time>2022-05-16T12:20:33Z</time>
      </trkpt>
      <trkpt lat="42.286074" lon="-4.191415">
        <ele>870.7785714538768</ele>
        <time>2022-05-16T12:20:41Z</time>
      </trkpt>
      <trkpt lat="42.286097" lon="-4.19155">
        <ele>870.0534549476579</ele>
        <time>2022-05-16T12:20:49Z</time>
      </trkpt>
      <trkpt lat="42.286102" lon="-4.191673">
        <ele>870.2595000583678</ele>
        <time>2022-05-16T12:20:57Z</time>
      </trkpt>
      <trkpt lat="42.286107" lon="-4.191821">
        <ele>870.2664255257696</ele>
        <time>2022-05-16T12:21:07Z</time>
      </trkpt>
      <trkpt lat="42.286123" lon="-4.191969">
        <ele>870.8760523153469</ele>
        <time>2022-05-16T12:21:17Z</time>
      </trkpt>
      <trkpt lat="42.286126" lon="-4.1921">
        <ele>870.5193054666743</ele>
        <time>2022-05-16T12:21:24Z</time>
      </trkpt>
      <trkpt lat="42.286121" lon="-4.192227">
        <ele>869.275747179985</ele>
        <time>2022-05-16T12:21:32Z</time>
      </trkpt>
      <trkpt lat="42.28613" lon="-4.192375">
        <ele>867.6384164318442</ele>
        <time>2022-05-16T12:21:40Z</time>
      </trkpt>
      <trkpt lat="42.286137" lon="-4.192509">
        <ele>868.0637172032148</ele>
        <time>2022-05-16T12:21:50Z</time>
      </trkpt>
      <trkpt lat="42.286139" lon="-4.192643">
        <ele>867.4513231981546</ele>
        <time>2022-05-16T12:21:58Z</time>
      </trkpt>
      <trkpt lat="42.286146" lon="-4.192776">
        <ele>866.8814985612407</ele>
        <time>2022-05-16T12:22:07Z</time>
      </trkpt>
      <trkpt lat="42.286142" lon="-4.192907">
        <ele>866.4608124103397</ele>
        <time>2022-05-16T12:22:15Z</time>
      </trkpt>
      <trkpt lat="42.286135" lon="-4.193038">
        <ele>866.2001011455432</ele>
        <time>2022-05-16T12:22:24Z</time>
      </trkpt>
      <trkpt lat="42.286133" lon="-4.193165">
        <ele>866.1197862233967</ele>
        <time>2022-05-16T12:22:31Z</time>
      </trkpt>
      <trkpt lat="42.286145" lon="-4.193287">
        <ele>865.8281509494409</ele>
        <time>2022-05-16T12:22:37Z</time>
      </trkpt>
      <trkpt lat="42.286132" lon="-4.193426">
        <ele>866.1092882016674</ele>
        <time>2022-05-16T12:22:46Z</time>
      </trkpt>
      <trkpt lat="42.286132" lon="-4.193559">
        <ele>867.2155191358179</ele>
        <time>2022-05-16T12:22:54Z</time>
      </trkpt>
      <trkpt lat="42.286129" lon="-4.193681">
        <ele>866.7978577036411</ele>
        <time>2022-05-16T12:23:02Z</time>
      </trkpt>
      <trkpt lat="42.286118" lon="-4.193832">
        <ele>866.6380055453628</ele>
        <time>2022-05-16T12:23:12Z</time>
      </trkpt>
      <trkpt lat="42.286104" lon="-4.193982">
        <ele>865.4806319344789</ele>
        <time>2022-05-16T12:23:22Z</time>
      </trkpt>
      <trkpt lat="42.286102" lon="-4.194124">
        <ele>864.9764429926872</ele>
        <time>2022-05-16T12:23:32Z</time>
      </trkpt>
      <trkpt lat="42.286102" lon="-4.194271">
        <ele>864.6599478116259</ele>
        <time>2022-05-16T12:23:42Z</time>
      </trkpt>
      <trkpt lat="42.286071" lon="-4.1944">
        <ele>864.6521948631853</ele>
        <time>2022-05-16T12:23:50Z</time>
      </trkpt>
      <trkpt lat="42.28605" lon="-4.194524">
        <ele>865.6774225439876</ele>
        <time>2022-05-16T12:24:00Z</time>
      </trkpt>
      <trkpt lat="42.28602" lon="-4.194641">
        <ele>867.1438220012933</ele>
        <time>2022-05-16T12:24:09Z</time>
      </trkpt>
      <trkpt lat="42.286006" lon="-4.19477">
        <ele>867.4748814981431</ele>
        <time>2022-05-16T12:24:18Z</time>
      </trkpt>
      <trkpt lat="42.285987" lon="-4.194892">
        <ele>868.1788229690865</ele>
        <time>2022-05-16T12:24:27Z</time>
      </trkpt>
      <trkpt lat="42.285976" lon="-4.195023">
        <ele>866.8760580131784</ele>
        <time>2022-05-16T12:24:38Z</time>
      </trkpt>
      <trkpt lat="42.285986" lon="-4.195168">
        <ele>866.3841172549874</ele>
        <time>2022-05-16T12:26:07Z</time>
      </trkpt>
      <trkpt lat="42.285995" lon="-4.195297">
        <ele>864.7278157072142</ele>
        <time>2022-05-16T12:26:15Z</time>
      </trkpt>
      <trkpt lat="42.285995" lon="-4.19542">
        <ele>863.5531779797748</ele>
        <time>2022-05-16T12:26:22Z</time>
      </trkpt>
      <trkpt lat="42.285976" lon="-4.195545">
        <ele>861.4923917278647</ele>
        <time>2022-05-16T12:26:30Z</time>
      </trkpt>
      <trkpt lat="42.285984" lon="-4.195693">
        <ele>860.4535785578191</ele>
        <time>2022-05-16T12:26:38Z</time>
      </trkpt>
      <trkpt lat="42.285993" lon="-4.195817">
        <ele>861.2547441609204</ele>
        <time>2022-05-16T12:26:46Z</time>
      </trkpt>
      <trkpt lat="42.28598" lon="-4.195956">
        <ele>861.5420253481716</ele>
        <time>2022-05-16T12:26:54Z</time>
      </trkpt>
      <trkpt lat="42.285977" lon="-4.196087">
        <ele>861.7613918995485</ele>
        <time>2022-05-16T12:27:01Z</time>
      </trkpt>
      <trkpt lat="42.28597" lon="-4.196211">
        <ele>862.5297741508111</ele>
        <time>2022-05-16T12:27:08Z</time>
      </trkpt>
      <trkpt lat="42.285976" lon="-4.19634">
        <ele>862.0647876737639</ele>
        <time>2022-05-16T12:27:16Z</time>
      </trkpt>
      <trkpt lat="42.285968" lon="-4.196476">
        <ele>860.4971409384161</ele>
        <time>2022-05-16T12:27:24Z</time>
      </trkpt>
      <trkpt lat="42.28597" lon="-4.196603">
        <ele>861.0383559092879</ele>
        <time>2022-05-16T12:27:31Z</time>
      </trkpt>
      <trkpt lat="42.285963" lon="-4.196729">
        <ele>860.3184755546972</ele>
        <time>2022-05-16T12:27:40Z</time>
      </trkpt>
      <trkpt lat="42.285967" lon="-4.196851">
        <ele>859.889210274443</ele>
        <time>2022-05-16T12:27:46Z</time>
      </trkpt>
      <trkpt lat="42.285964" lon="-4.196986">
        <ele>858.8001273898408</ele>
        <time>2022-05-16T12:27:54Z</time>
      </trkpt>
      <trkpt lat="42.285961" lon="-4.19711">
        <ele>859.464604165405</ele>
        <time>2022-05-16T12:28:01Z</time>
      </trkpt>
      <trkpt lat="42.285951" lon="-4.197236">
        <ele>859.0129960943013</ele>
        <time>2022-05-16T12:28:10Z</time>
      </trkpt>
      <trkpt lat="42.285952" lon="-4.197359">
        <ele>858.0163324084133</ele>
        <time>2022-05-16T12:28:16Z</time>
      </trkpt>
      <trkpt lat="42.28593" lon="-4.197481">
        <ele>857.7088048476726</ele>
        <time>2022-05-16T12:28:25Z</time>
      </trkpt>
      <trkpt lat="42.285909" lon="-4.197609">
        <ele>857.1904072407633</ele>
        <time>2022-05-16T12:28:32Z</time>
      </trkpt>
      <trkpt lat="42.285915" lon="-4.197739">
        <ele>857.3006828185171</ele>
        <time>2022-05-16T12:28:40Z</time>
      </trkpt>
      <trkpt lat="42.285929" lon="-4.197873">
        <ele>857.3162975488231</ele>
        <time>2022-05-16T12:28:48Z</time>
      </trkpt>
      <trkpt lat="42.285945" lon="-4.198003">
        <ele>857.5215140581131</ele>
        <time>2022-05-16T12:28:56Z</time>
      </trkpt>
      <trkpt lat="42.285963" lon="-4.198133">
        <ele>859.2605714863166</ele>
        <time>2022-05-16T12:29:04Z</time>
      </trkpt>
      <trkpt lat="42.285971" lon="-4.198265">
        <ele>859.2979875924066</ele>
        <time>2022-05-16T12:29:11Z</time>
      </trkpt>
      <trkpt lat="42.285987" lon="-4.198402">
        <ele>857.9375031525269</ele>
        <time>2022-05-16T12:29:19Z</time>
      </trkpt>
      <trkpt lat="42.285997" lon="-4.198546">
        <ele>857.2548526236787</ele>
        <time>2022-05-16T12:29:28Z</time>
      </trkpt>
      <trkpt lat="42.285996" lon="-4.19867">
        <ele>857.1467411164194</ele>
        <time>2022-05-16T12:29:34Z</time>
      </trkpt>
      <trkpt lat="42.286004" lon="-4.198799">
        <ele>856.8541193706915</ele>
        <time>2022-05-16T12:29:42Z</time>
      </trkpt>
      <trkpt lat="42.286019" lon="-4.198925">
        <ele>856.9047608813271</ele>
        <time>2022-05-16T12:29:50Z</time>
      </trkpt>
      <trkpt lat="42.286034" lon="-4.199065">
        <ele>856.6202855017036</ele>
        <time>2022-05-16T12:29:59Z</time>
      </trkpt>
      <trkpt lat="42.286051" lon="-4.199198">
        <ele>856.5737887695432</ele>
        <time>2022-05-16T12:30:07Z</time>
      </trkpt>
      <trkpt lat="42.286063" lon="-4.199321">
        <ele>856.9451233008876</ele>
        <time>2022-05-16T12:30:14Z</time>
      </trkpt>
      <trkpt lat="42.286089" lon="-4.199452">
        <ele>856.7743156300858</ele>
        <time>2022-05-16T12:30:22Z</time>
      </trkpt>
      <trkpt lat="42.286107" lon="-4.199574">
        <ele>855.9234906006604</ele>
        <time>2022-05-16T12:30:30Z</time>
      </trkpt>
      <trkpt lat="42.286113" lon="-4.199701">
        <ele>855.759294421412</ele>
        <time>2022-05-16T12:30:37Z</time>
      </trkpt>
      <trkpt lat="42.286118" lon="-4.199826">
        <ele>855.1479248125106</ele>
        <time>2022-05-16T12:30:45Z</time>
      </trkpt>
      <trkpt lat="42.286125" lon="-4.19995">
        <ele>854.8910458441824</ele>
        <time>2022-05-16T12:30:52Z</time>
      </trkpt>
      <trkpt lat="42.286145" lon="-4.200075">
        <ele>855.2681688256562</ele>
        <time>2022-05-16T12:30:59Z</time>
      </trkpt>
      <trkpt lat="42.28615" lon="-4.200203">
        <ele>855.5584095688537</ele>
        <time>2022-05-16T12:31:07Z</time>
      </trkpt>
      <trkpt lat="42.286159" lon="-4.200324">
        <ele>856.5026399856433</ele>
        <time>2022-05-16T12:31:15Z</time>
      </trkpt>
      <trkpt lat="42.286177" lon="-4.200451">
        <ele>856.6465335246176</ele>
        <time>2022-05-16T12:31:22Z</time>
      </trkpt>
      <trkpt lat="42.286195" lon="-4.200579">
        <ele>855.8946481011808</ele>
        <time>2022-05-16T12:31:31Z</time>
      </trkpt>
      <trkpt lat="42.286218" lon="-4.200708">
        <ele>854.7213133750483</ele>
        <time>2022-05-16T12:31:41Z</time>
      </trkpt>
      <trkpt lat="42.286251" lon="-4.200839">
        <ele>854.7382415672764</ele>
        <time>2022-05-16T12:31:50Z</time>
      </trkpt>
      <trkpt lat="42.286277" lon="-4.200966">
        <ele>854.1820492949337</ele>
        <time>2022-05-16T12:31:56Z</time>
      </trkpt>
      <trkpt lat="42.286314" lon="-4.201086">
        <ele>854.0831238394603</ele>
        <time>2022-05-16T12:32:04Z</time>
      </trkpt>
      <trkpt lat="42.286313" lon="-4.201214">
        <ele>854.3468882879242</ele>
        <time>2022-05-16T12:32:20Z</time>
      </trkpt>
      <trkpt lat="42.286269" lon="-4.201328">
        <ele>854.3203701041639</ele>
        <time>2022-05-16T12:32:27Z</time>
      </trkpt>
      <trkpt lat="42.2862" lon="-4.20143">
        <ele>853.557690336369</ele>
        <time>2022-05-16T12:32:37Z</time>
      </trkpt>
      <trkpt lat="42.286134" lon="-4.201525">
        <ele>854.3977136323228</ele>
        <time>2022-05-16T12:32:44Z</time>
      </trkpt>
      <trkpt lat="42.286073" lon="-4.201615">
        <ele>852.030149907805</ele>
        <time>2022-05-16T12:32:52Z</time>
      </trkpt>
      <trkpt lat="42.285997" lon="-4.2017">
        <ele>849.5137268938124</ele>
        <time>2022-05-16T12:33:00Z</time>
      </trkpt>
      <trkpt lat="42.285967" lon="-4.201825">
        <ele>849.9560878733173</ele>
        <time>2022-05-16T12:33:08Z</time>
      </trkpt>
      <trkpt lat="42.285977" lon="-4.201948">
        <ele>849.7930431552231</ele>
        <time>2022-05-16T12:33:16Z</time>
      </trkpt>
      <trkpt lat="42.285983" lon="-4.202082">
        <ele>848.7298052515835</ele>
        <time>2022-05-16T12:33:25Z</time>
      </trkpt>
      <trkpt lat="42.285977" lon="-4.20221">
        <ele>848.1455041086301</ele>
        <time>2022-05-16T12:33:33Z</time>
      </trkpt>
      <trkpt lat="42.285952" lon="-4.202338">
        <ele>847.672901397571</ele>
        <time>2022-05-16T12:33:39Z</time>
      </trkpt>
      <trkpt lat="42.28591" lon="-4.202458">
        <ele>846.7535859728232</ele>
        <time>2022-05-16T12:33:47Z</time>
      </trkpt>
      <trkpt lat="42.285863" lon="-4.202576">
        <ele>845.4902642099187</ele>
        <time>2022-05-16T12:33:59Z</time>
      </trkpt>
      <trkpt lat="42.285854" lon="-4.202728">
        <ele>844.761467223987</ele>
        <time>2022-05-16T12:34:15Z</time>
      </trkpt>
      <trkpt lat="42.285852" lon="-4.20285">
        <ele>847.9712398350239</ele>
        <time>2022-05-16T12:34:23Z</time>
      </trkpt>
      <trkpt lat="42.285835" lon="-4.20298">
        <ele>848.7474763598293</ele>
        <time>2022-05-16T12:34:30Z</time>
      </trkpt>
      <trkpt lat="42.285802" lon="-4.203097">
        <ele>849.2362701259553</ele>
        <time>2022-05-16T12:34:36Z</time>
      </trkpt>
      <trkpt lat="42.285779" lon="-4.203223">
        <ele>848.892049241811</ele>
        <time>2022-05-16T12:34:43Z</time>
      </trkpt>
      <trkpt lat="42.285755" lon="-4.203347">
        <ele>848.121493363753</ele>
        <time>2022-05-16T12:34:51Z</time>
      </trkpt>
      <trkpt lat="42.285747" lon="-4.203482">
        <ele>846.6728112054989</ele>
        <time>2022-05-16T12:35:00Z</time>
      </trkpt>
      <trkpt lat="42.285731" lon="-4.203608">
        <ele>846.0779648218304</ele>
        <time>2022-05-16T12:35:07Z</time>
      </trkpt>
      <trkpt lat="42.285721" lon="-4.20373">
        <ele>845.7175866598263</ele>
        <time>2022-05-16T12:35:13Z</time>
      </trkpt>
      <trkpt lat="42.285732" lon="-4.203859">
        <ele>846.0925737097859</ele>
        <time>2022-05-16T12:35:23Z</time>
      </trkpt>
      <trkpt lat="42.285735" lon="-4.203984">
        <ele>846.3761057667434</ele>
        <time>2022-05-16T12:35:30Z</time>
      </trkpt>
      <trkpt lat="42.285741" lon="-4.204117">
        <ele>844.9603190524504</ele>
        <time>2022-05-16T12:35:37Z</time>
      </trkpt>
      <trkpt lat="42.285753" lon="-4.204243">
        <ele>845.8233376620337</ele>
        <time>2022-05-16T12:35:45Z</time>
      </trkpt>
      <trkpt lat="42.285762" lon="-4.204371">
        <ele>845.189448135905</ele>
        <time>2022-05-16T12:35:53Z</time>
      </trkpt>
      <trkpt lat="42.285761" lon="-4.204498">
        <ele>844.5477583482862</ele>
        <time>2022-05-16T12:35:58Z</time>
      </trkpt>
      <trkpt lat="42.285758" lon="-4.204623">
        <ele>844.6808342402801</ele>
        <time>2022-05-16T12:36:07Z</time>
      </trkpt>
      <trkpt lat="42.285749" lon="-4.204754">
        <ele>843.57408630196</ele>
        <time>2022-05-16T12:36:17Z</time>
      </trkpt>
      <trkpt lat="42.285747" lon="-4.204897">
        <ele>842.5064305942506</ele>
        <time>2022-05-16T12:36:25Z</time>
      </trkpt>
      <trkpt lat="42.285741" lon="-4.205025">
        <ele>841.223515166901</ele>
        <time>2022-05-16T12:36:31Z</time>
      </trkpt>
      <trkpt lat="42.28574" lon="-4.205156">
        <ele>840.4131097244099</ele>
        <time>2022-05-16T12:36:40Z</time>
      </trkpt>
      <trkpt lat="42.285729" lon="-4.205278">
        <ele>840.7087745470926</ele>
        <time>2022-05-16T12:36:47Z</time>
      </trkpt>
      <trkpt lat="42.285725" lon="-4.205408">
        <ele>840.6605447651818</ele>
        <time>2022-05-16T12:36:54Z</time>
      </trkpt>
      <trkpt lat="42.285716" lon="-4.205539">
        <ele>840.9762907233089</ele>
        <time>2022-05-16T12:37:01Z</time>
      </trkpt>
      <trkpt lat="42.285719" lon="-4.205671">
        <ele>839.8745584050193</ele>
        <time>2022-05-16T12:37:10Z</time>
      </trkpt>
      <trkpt lat="42.285732" lon="-4.205799">
        <ele>840.3005127366632</ele>
        <time>2022-05-16T12:37:18Z</time>
      </trkpt>
      <trkpt lat="42.285736" lon="-4.205927">
        <ele>839.7360368100926</ele>
        <time>2022-05-16T12:37:26Z</time>
      </trkpt>
      <trkpt lat="42.285728" lon="-4.206056">
        <ele>839.6774706365541</ele>
        <time>2022-05-16T12:37:34Z</time>
      </trkpt>
      <trkpt lat="42.285732" lon="-4.206183">
        <ele>837.959148388356</ele>
        <time>2022-05-16T12:37:43Z</time>
      </trkpt>
      <trkpt lat="42.285714" lon="-4.206319">
        <ele>838.2652391847223</ele>
        <time>2022-05-16T12:37:51Z</time>
      </trkpt>
      <trkpt lat="42.285708" lon="-4.206453">
        <ele>838.4215319175273</ele>
        <time>2022-05-16T12:37:58Z</time>
      </trkpt>
      <trkpt lat="42.285704" lon="-4.206585">
        <ele>836.2764923507348</ele>
        <time>2022-05-16T12:38:06Z</time>
      </trkpt>
      <trkpt lat="42.285683" lon="-4.206703">
        <ele>833.8759664846584</ele>
        <time>2022-05-16T12:38:14Z</time>
      </trkpt>
      <trkpt lat="42.285668" lon="-4.206842">
        <ele>833.7819196246564</ele>
        <time>2022-05-16T12:38:22Z</time>
      </trkpt>
      <trkpt lat="42.285654" lon="-4.206978">
        <ele>833.7588748307899</ele>
        <time>2022-05-16T12:38:29Z</time>
      </trkpt>
      <trkpt lat="42.285657" lon="-4.207115">
        <ele>834.204049856402</ele>
        <time>2022-05-16T12:38:38Z</time>
      </trkpt>
      <trkpt lat="42.28564" lon="-4.207253">
        <ele>834.4816505918279</ele>
        <time>2022-05-16T12:38:45Z</time>
      </trkpt>
      <trkpt lat="42.285617" lon="-4.207403">
        <ele>834.6930176476017</ele>
        <time>2022-05-16T12:38:53Z</time>
      </trkpt>
      <trkpt lat="42.285616" lon="-4.207533">
        <ele>835.8093674601987</ele>
        <time>2022-05-16T12:39:01Z</time>
      </trkpt>
      <trkpt lat="42.285617" lon="-4.207665">
        <ele>835.5111552653834</ele>
        <time>2022-05-16T12:39:10Z</time>
      </trkpt>
      <trkpt lat="42.28561" lon="-4.207804">
        <ele>835.8906809818</ele>
        <time>2022-05-16T12:39:19Z</time>
      </trkpt>
      <trkpt lat="42.285609" lon="-4.207939">
        <ele>835.4885557293892</ele>
        <time>2022-05-16T12:39:26Z</time>
      </trkpt>
      <trkpt lat="42.285619" lon="-4.208083">
        <ele>835.0158749762923</ele>
        <time>2022-05-16T12:39:34Z</time>
      </trkpt>
      <trkpt lat="42.28561" lon="-4.208215">
        <ele>836.3308590026572</ele>
        <time>2022-05-16T12:39:42Z</time>
      </trkpt>
      <trkpt lat="42.2856" lon="-4.208343">
        <ele>835.7652681097388</ele>
        <time>2022-05-16T12:39:50Z</time>
      </trkpt>
      <trkpt lat="42.285586" lon="-4.208471">
        <ele>835.468090317212</ele>
        <time>2022-05-16T12:39:56Z</time>
      </trkpt>
      <trkpt lat="42.285581" lon="-4.208602">
        <ele>834.8396875960752</ele>
        <time>2022-05-16T12:40:02Z</time>
      </trkpt>
      <trkpt lat="42.285568" lon="-4.208726">
        <ele>834.0035292385146</ele>
        <time>2022-05-16T12:40:11Z</time>
      </trkpt>
      <trkpt lat="42.285567" lon="-4.20885">
        <ele>834.9115614257753</ele>
        <time>2022-05-16T12:40:19Z</time>
      </trkpt>
      <trkpt lat="42.285557" lon="-4.208993">
        <ele>834.8727917000651</ele>
        <time>2022-05-16T12:40:26Z</time>
      </trkpt>
      <trkpt lat="42.285528" lon="-4.20911">
        <ele>834.5615215282887</ele>
        <time>2022-05-16T12:40:32Z</time>
      </trkpt>
      <trkpt lat="42.285517" lon="-4.209245">
        <ele>834.0793893961236</ele>
        <time>2022-05-16T12:40:41Z</time>
      </trkpt>
      <trkpt lat="42.285505" lon="-4.20937">
        <ele>833.7536659017205</ele>
        <time>2022-05-16T12:40:49Z</time>
      </trkpt>
      <trkpt lat="42.285496" lon="-4.209494">
        <ele>834.2124387668446</ele>
        <time>2022-05-16T12:40:56Z</time>
      </trkpt>
      <trkpt lat="42.285474" lon="-4.209621">
        <ele>833.5097244884819</ele>
        <time>2022-05-16T12:41:02Z</time>
      </trkpt>
      <trkpt lat="42.285463" lon="-4.209756">
        <ele>833.5568539611995</ele>
        <time>2022-05-16T12:41:11Z</time>
      </trkpt>
      <trkpt lat="42.285449" lon="-4.209877">
        <ele>834.3335868064314</ele>
        <time>2022-05-16T12:41:18Z</time>
      </trkpt>
      <trkpt lat="42.285448" lon="-4.210005">
        <ele>835.1621395302936</ele>
        <time>2022-05-16T12:41:26Z</time>
      </trkpt>
      <trkpt lat="42.285427" lon="-4.210138">
        <ele>835.1867448873818</ele>
        <time>2022-05-16T12:41:33Z</time>
      </trkpt>
      <trkpt lat="42.285392" lon="-4.210262">
        <ele>835.7326758746058</ele>
        <time>2022-05-16T12:41:41Z</time>
      </trkpt>
      <trkpt lat="42.285387" lon="-4.210389">
        <ele>835.3265058007091</ele>
        <time>2022-05-16T12:41:48Z</time>
      </trkpt>
      <trkpt lat="42.285361" lon="-4.210509">
        <ele>835.961414272897</ele>
        <time>2022-05-16T12:41:55Z</time>
      </trkpt>
      <trkpt lat="42.285317" lon="-4.210618">
        <ele>836.1384555138648</ele>
        <time>2022-05-16T12:42:01Z</time>
      </trkpt>
      <trkpt lat="42.285303" lon="-4.210739">
        <ele>837.3242612378672</ele>
        <time>2022-05-16T12:42:09Z</time>
      </trkpt>
      <trkpt lat="42.285259" lon="-4.210848">
        <ele>836.8161516003311</ele>
        <time>2022-05-16T12:42:16Z</time>
      </trkpt>
      <trkpt lat="42.285216" lon="-4.210955">
        <ele>837.3391461698338</ele>
        <time>2022-05-16T12:42:24Z</time>
      </trkpt>
      <trkpt lat="42.285188" lon="-4.211073">
        <ele>837.5540988249704</ele>
        <time>2022-05-16T12:42:31Z</time>
      </trkpt>
      <trkpt lat="42.285144" lon="-4.211196">
        <ele>836.7216789042577</ele>
        <time>2022-05-16T12:42:39Z</time>
      </trkpt>
      <trkpt lat="42.285097" lon="-4.211303">
        <ele>837.0543798254803</ele>
        <time>2022-05-16T12:42:46Z</time>
      </trkpt>
      <trkpt lat="42.285065" lon="-4.211429">
        <ele>839.1223851982504</ele>
        <time>2022-05-16T12:42:54Z</time>
      </trkpt>
      <trkpt lat="42.285015" lon="-4.211545">
        <ele>838.6134217754006</ele>
        <time>2022-05-16T12:43:01Z</time>
      </trkpt>
      <trkpt lat="42.284979" lon="-4.211658">
        <ele>838.0962903844193</ele>
        <time>2022-05-16T12:43:09Z</time>
      </trkpt>
      <trkpt lat="42.284942" lon="-4.211772">
        <ele>838.0677001615986</ele>
        <time>2022-05-16T12:43:16Z</time>
      </trkpt>
      <trkpt lat="42.284908" lon="-4.2119">
        <ele>838.0022585242987</ele>
        <time>2022-05-16T12:43:23Z</time>
      </trkpt>
      <trkpt lat="42.284868" lon="-4.21201">
        <ele>837.5378815177828</ele>
        <time>2022-05-16T12:43:31Z</time>
      </trkpt>
      <trkpt lat="42.284828" lon="-4.212139">
        <ele>837.3974152784795</ele>
        <time>2022-05-16T12:43:39Z</time>
      </trkpt>
      <trkpt lat="42.284786" lon="-4.212259">
        <ele>836.8837165674195</ele>
        <time>2022-05-16T12:43:45Z</time>
      </trkpt>
      <trkpt lat="42.284757" lon="-4.212378">
        <ele>836.4389108913019</ele>
        <time>2022-05-16T12:43:52Z</time>
      </trkpt>
      <trkpt lat="42.284722" lon="-4.212491">
        <ele>835.7845558458939</ele>
        <time>2022-05-16T12:43:59Z</time>
      </trkpt>
      <trkpt lat="42.284699" lon="-4.212609">
        <ele>835.8654869850725</ele>
        <time>2022-05-16T12:44:07Z</time>
      </trkpt>
      <trkpt lat="42.284649" lon="-4.212732">
        <ele>836.6430831924081</ele>
        <time>2022-05-16T12:44:15Z</time>
      </trkpt>
      <trkpt lat="42.284622" lon="-4.212869">
        <ele>836.7291507255286</ele>
        <time>2022-05-16T12:44:23Z</time>
      </trkpt>
      <trkpt lat="42.284603" lon="-4.212989">
        <ele>836.5816440246999</ele>
        <time>2022-05-16T12:44:30Z</time>
      </trkpt>
      <trkpt lat="42.284575" lon="-4.213106">
        <ele>836.713453897275</ele>
        <time>2022-05-16T12:44:38Z</time>
      </trkpt>
      <trkpt lat="42.284537" lon="-4.213229">
        <ele>836.8467146465555</ele>
        <time>2022-05-16T12:44:45Z</time>
      </trkpt>
      <trkpt lat="42.284507" lon="-4.213353">
        <ele>836.1948170838878</ele>
        <time>2022-05-16T12:44:52Z</time>
      </trkpt>
      <trkpt lat="42.284472" lon="-4.213465">
        <ele>835.5713396873325</ele>
        <time>2022-05-16T12:45:00Z</time>
      </trkpt>
      <trkpt lat="42.284425" lon="-4.213577">
        <ele>836.3729828642681</ele>
        <time>2022-05-16T12:45:07Z</time>
      </trkpt>
      <trkpt lat="42.284393" lon="-4.213706">
        <ele>836.343150257133</ele>
        <time>2022-05-16T12:45:13Z</time>
      </trkpt>
      <trkpt lat="42.284361" lon="-4.213825">
        <ele>836.1963289966807</ele>
        <time>2022-05-16T12:45:20Z</time>
      </trkpt>
      <trkpt lat="42.284343" lon="-4.213947">
        <ele>835.8519351417199</ele>
        <time>2022-05-16T12:45:28Z</time>
      </trkpt>
      <trkpt lat="42.284296" lon="-4.214062">
        <ele>835.4147064620629</ele>
        <time>2022-05-16T12:45:36Z</time>
      </trkpt>
      <trkpt lat="42.284255" lon="-4.214181">
        <ele>833.840522011742</ele>
        <time>2022-05-16T12:45:43Z</time>
      </trkpt>
      <trkpt lat="42.284218" lon="-4.214296">
        <ele>833.1395136239007</ele>
        <time>2022-05-16T12:45:50Z</time>
      </trkpt>
      <trkpt lat="42.284198" lon="-4.214418">
        <ele>832.8532355092466</ele>
        <time>2022-05-16T12:45:57Z</time>
      </trkpt>
      <trkpt lat="42.284166" lon="-4.214534">
        <ele>833.5334695130587</ele>
        <time>2022-05-16T12:46:05Z</time>
      </trkpt>
      <trkpt lat="42.284135" lon="-4.214658">
        <ele>834.6042786790058</ele>
        <time>2022-05-16T12:46:12Z</time>
      </trkpt>
      <trkpt lat="42.284085" lon="-4.214766">
        <ele>835.2510644942522</ele>
        <time>2022-05-16T12:46:19Z</time>
      </trkpt>
      <trkpt lat="42.284049" lon="-4.214886">
        <ele>835.8012937847525</ele>
        <time>2022-05-16T12:46:26Z</time>
      </trkpt>
      <trkpt lat="42.284017" lon="-4.215011">
        <ele>834.8370285164565</ele>
        <time>2022-05-16T12:46:33Z</time>
      </trkpt>
      <trkpt lat="42.283974" lon="-4.215121">
        <ele>834.04674879089</ele>
        <time>2022-05-16T12:46:40Z</time>
      </trkpt>
      <trkpt lat="42.283922" lon="-4.215239">
        <ele>833.1267828568816</ele>
        <time>2022-05-16T12:46:48Z</time>
      </trkpt>
      <trkpt lat="42.283873" lon="-4.215376">
        <ele>832.966324178502</ele>
        <time>2022-05-16T12:46:55Z</time>
      </trkpt>
      <trkpt lat="42.283841" lon="-4.215502">
        <ele>833.0015463866293</ele>
        <time>2022-05-16T12:47:03Z</time>
      </trkpt>
      <trkpt lat="42.283797" lon="-4.21561">
        <ele>832.4805308599025</ele>
        <time>2022-05-16T12:47:09Z</time>
      </trkpt>
      <trkpt lat="42.283759" lon="-4.215733">
        <ele>832.1634083092213</ele>
        <time>2022-05-16T12:47:17Z</time>
      </trkpt>
      <trkpt lat="42.283725" lon="-4.215862">
        <ele>832.675591353327</ele>
        <time>2022-05-16T12:47:26Z</time>
      </trkpt>
      <trkpt lat="42.283692" lon="-4.215989">
        <ele>832.7795069776475</ele>
        <time>2022-05-16T12:47:33Z</time>
      </trkpt>
      <trkpt lat="42.28366" lon="-4.216109">
        <ele>833.2158896280453</ele>
        <time>2022-05-16T12:47:40Z</time>
      </trkpt>
      <trkpt lat="42.283636" lon="-4.216232">
        <ele>832.2837121775374</ele>
        <time>2022-05-16T12:47:47Z</time>
      </trkpt>
      <trkpt lat="42.28361" lon="-4.216348">
        <ele>831.7223506374285</ele>
        <time>2022-05-16T12:47:53Z</time>
      </trkpt>
      <trkpt lat="42.283579" lon="-4.216476">
        <ele>832.2465986022726</ele>
        <time>2022-05-16T12:48:00Z</time>
      </trkpt>
      <trkpt lat="42.283569" lon="-4.216627">
        <ele>831.9508240446448</ele>
        <time>2022-05-16T12:48:09Z</time>
      </trkpt>
      <trkpt lat="42.283551" lon="-4.216757">
        <ele>831.481183080934</ele>
        <time>2022-05-16T12:48:16Z</time>
      </trkpt>
      <trkpt lat="42.283534" lon="-4.216889">
        <ele>830.8804320283234</ele>
        <time>2022-05-16T12:48:24Z</time>
      </trkpt>
      <trkpt lat="42.283519" lon="-4.21702">
        <ele>831.6111725326627</ele>
        <time>2022-05-16T12:48:33Z</time>
      </trkpt>
      <trkpt lat="42.283502" lon="-4.217158">
        <ele>831.1667370749637</ele>
        <time>2022-05-16T12:48:40Z</time>
      </trkpt>
      <trkpt lat="42.28348" lon="-4.217286">
        <ele>830.5828847102821</ele>
        <time>2022-05-16T12:48:47Z</time>
      </trkpt>
      <trkpt lat="42.283471" lon="-4.217418">
        <ele>830.4637281959876</ele>
        <time>2022-05-16T12:48:55Z</time>
      </trkpt>
      <trkpt lat="42.283454" lon="-4.21754">
        <ele>830.3439489891753</ele>
        <time>2022-05-16T12:49:02Z</time>
      </trkpt>
      <trkpt lat="42.283455" lon="-4.217669">
        <ele>829.5082809850574</ele>
        <time>2022-05-16T12:49:08Z</time>
      </trkpt>
      <trkpt lat="42.283451" lon="-4.217798">
        <ele>828.7421569190919</ele>
        <time>2022-05-16T12:49:16Z</time>
      </trkpt>
      <trkpt lat="42.283434" lon="-4.217926">
        <ele>829.049231916666</ele>
        <time>2022-05-16T12:49:23Z</time>
      </trkpt>
      <trkpt lat="42.283423" lon="-4.218056">
        <ele>828.2976723080501</ele>
        <time>2022-05-16T12:49:30Z</time>
      </trkpt>
      <trkpt lat="42.283412" lon="-4.218189">
        <ele>827.8411356341094</ele>
        <time>2022-05-16T12:49:38Z</time>
      </trkpt>
      <trkpt lat="42.283398" lon="-4.218327">
        <ele>828.991908528842</ele>
        <time>2022-05-16T12:49:45Z</time>
      </trkpt>
      <trkpt lat="42.283388" lon="-4.218462">
        <ele>828.3687330679968</ele>
        <time>2022-05-16T12:49:52Z</time>
      </trkpt>
      <trkpt lat="42.28337" lon="-4.218584">
        <ele>828.707061232999</ele>
        <time>2022-05-16T12:50:00Z</time>
      </trkpt>
      <trkpt lat="42.283364" lon="-4.21871">
        <ele>829.1450160201639</ele>
        <time>2022-05-16T12:50:07Z</time>
      </trkpt>
      <trkpt lat="42.283347" lon="-4.21883">
        <ele>829.1089343177155</ele>
        <time>2022-05-16T12:50:15Z</time>
      </trkpt>
      <trkpt lat="42.283326" lon="-4.218962">
        <ele>829.9317253911868</ele>
        <time>2022-05-16T12:50:22Z</time>
      </trkpt>
      <trkpt lat="42.283319" lon="-4.219086">
        <ele>830.1490654479712</ele>
        <time>2022-05-16T12:50:29Z</time>
      </trkpt>
      <trkpt lat="42.283291" lon="-4.21922">
        <ele>830.1331465849653</ele>
        <time>2022-05-16T12:50:37Z</time>
      </trkpt>
      <trkpt lat="42.283272" lon="-4.219342">
        <ele>830.5103686833754</ele>
        <time>2022-05-16T12:50:43Z</time>
      </trkpt>
      <trkpt lat="42.283261" lon="-4.219477">
        <ele>830.471134387888</ele>
        <time>2022-05-16T12:50:51Z</time>
      </trkpt>
      <trkpt lat="42.283241" lon="-4.219603">
        <ele>830.1831815801561</ele>
        <time>2022-05-16T12:50:58Z</time>
      </trkpt>
      <trkpt lat="42.283228" lon="-4.219726">
        <ele>829.1291140737012</ele>
        <time>2022-05-16T12:51:03Z</time>
      </trkpt>
      <trkpt lat="42.283215" lon="-4.219854">
        <ele>828.6947095738724</ele>
        <time>2022-05-16T12:51:10Z</time>
      </trkpt>
      <trkpt lat="42.283192" lon="-4.219973">
        <ele>827.9589545726776</ele>
        <time>2022-05-16T12:51:18Z</time>
      </trkpt>
      <trkpt lat="42.283173" lon="-4.220108">
        <ele>827.8228544322774</ele>
        <time>2022-05-16T12:51:25Z</time>
      </trkpt>
      <trkpt lat="42.283165" lon="-4.220233">
        <ele>828.0351676791906</ele>
        <time>2022-05-16T12:51:32Z</time>
      </trkpt>
      <trkpt lat="42.283156" lon="-4.220358">
        <ele>827.3164064157754</ele>
        <time>2022-05-16T12:51:41Z</time>
      </trkpt>
      <trkpt lat="42.283133" lon="-4.220482">
        <ele>826.6268866788596</ele>
        <time>2022-05-16T12:51:47Z</time>
      </trkpt>
      <trkpt lat="42.283108" lon="-4.220612">
        <ele>826.4386946819723</ele>
        <time>2022-05-16T12:51:54Z</time>
      </trkpt>
      <trkpt lat="42.283097" lon="-4.220743">
        <ele>826.7739151222631</ele>
        <time>2022-05-16T12:52:01Z</time>
      </trkpt>
      <trkpt lat="42.283055" lon="-4.220854">
        <ele>826.0972559917718</ele>
        <time>2022-05-16T12:52:09Z</time>
      </trkpt>
      <trkpt lat="42.283031" lon="-4.220974">
        <ele>826.1002380074933</ele>
        <time>2022-05-16T12:52:16Z</time>
      </trkpt>
      <trkpt lat="42.283024" lon="-4.22111">
        <ele>826.712305595167</ele>
        <time>2022-05-16T12:52:23Z</time>
      </trkpt>
      <trkpt lat="42.282984" lon="-4.221225">
        <ele>825.8406417313963</ele>
        <time>2022-05-16T12:52:30Z</time>
      </trkpt>
      <trkpt lat="42.282961" lon="-4.221351">
        <ele>825.4151366176084</ele>
        <time>2022-05-16T12:52:36Z</time>
      </trkpt>
      <trkpt lat="42.282954" lon="-4.221477">
        <ele>826.1186259211972</ele>
        <time>2022-05-16T12:52:43Z</time>
      </trkpt>
      <trkpt lat="42.282926" lon="-4.221608">
        <ele>828.1911789476871</ele>
        <time>2022-05-16T12:52:52Z</time>
      </trkpt>
      <trkpt lat="42.282898" lon="-4.221725">
        <ele>828.3026454979554</ele>
        <time>2022-05-16T12:52:58Z</time>
      </trkpt>
      <trkpt lat="42.282872" lon="-4.22186">
        <ele>828.0013880329207</ele>
        <time>2022-05-16T12:53:06Z</time>
      </trkpt>
      <trkpt lat="42.282835" lon="-4.221996">
        <ele>828.5933643793687</ele>
        <time>2022-05-16T12:53:13Z</time>
      </trkpt>
      <trkpt lat="42.282793" lon="-4.222114">
        <ele>828.6571830399334</ele>
        <time>2022-05-16T12:53:20Z</time>
      </trkpt>
      <trkpt lat="42.282756" lon="-4.222229">
        <ele>828.3859252212569</ele>
        <time>2022-05-16T12:53:26Z</time>
      </trkpt>
      <trkpt lat="42.282736" lon="-4.22235">
        <ele>827.296308462508</ele>
        <time>2022-05-16T12:53:33Z</time>
      </trkpt>
      <trkpt lat="42.282702" lon="-4.222472">
        <ele>826.8904860531911</ele>
        <time>2022-05-16T12:53:41Z</time>
      </trkpt>
      <trkpt lat="42.282678" lon="-4.222609">
        <ele>826.9988573323935</ele>
        <time>2022-05-16T12:53:50Z</time>
      </trkpt>
      <trkpt lat="42.282641" lon="-4.222726">
        <ele>826.0256709782407</ele>
        <time>2022-05-16T12:53:57Z</time>
      </trkpt>
      <trkpt lat="42.282596" lon="-4.222842">
        <ele>825.9908714164048</ele>
        <time>2022-05-16T12:54:04Z</time>
      </trkpt>
      <trkpt lat="42.282588" lon="-4.222966">
        <ele>825.8269259138033</ele>
        <time>2022-05-16T12:54:11Z</time>
      </trkpt>
      <trkpt lat="42.282554" lon="-4.223101">
        <ele>825.7870645485818</ele>
        <time>2022-05-16T12:54:19Z</time>
      </trkpt>
      <trkpt lat="42.282499" lon="-4.223218">
        <ele>825.2738162707537</ele>
        <time>2022-05-16T12:54:26Z</time>
      </trkpt>
      <trkpt lat="42.282458" lon="-4.223334">
        <ele>825.0093387849629</ele>
        <time>2022-05-16T12:54:34Z</time>
      </trkpt>
      <trkpt lat="42.282422" lon="-4.223445">
        <ele>825.3794819181785</ele>
        <time>2022-05-16T12:54:41Z</time>
      </trkpt>
      <trkpt lat="42.282381" lon="-4.223561">
        <ele>826.5621296931058</ele>
        <time>2022-05-16T12:54:49Z</time>
      </trkpt>
      <trkpt lat="42.282317" lon="-4.223677">
        <ele>826.815249664709</ele>
        <time>2022-05-16T12:54:56Z</time>
      </trkpt>
      <trkpt lat="42.282279" lon="-4.223794">
        <ele>826.0917677832767</ele>
        <time>2022-05-16T12:55:02Z</time>
      </trkpt>
      <trkpt lat="42.282229" lon="-4.223909">
        <ele>825.8385031912476</ele>
        <time>2022-05-16T12:55:11Z</time>
      </trkpt>
      <trkpt lat="42.282198" lon="-4.224028">
        <ele>826.5140963215381</ele>
        <time>2022-05-16T12:55:19Z</time>
      </trkpt>
      <trkpt lat="42.282156" lon="-4.224149">
        <ele>827.2070009345189</ele>
        <time>2022-05-16T12:55:27Z</time>
      </trkpt>
      <trkpt lat="42.282121" lon="-4.224273">
        <ele>826.9248155066743</ele>
        <time>2022-05-16T12:55:35Z</time>
      </trkpt>
      <trkpt lat="42.282074" lon="-4.224387">
        <ele>826.593554909341</ele>
        <time>2022-05-16T12:55:42Z</time>
      </trkpt>
      <trkpt lat="42.282031" lon="-4.224503">
        <ele>826.6096607390791</ele>
        <time>2022-05-16T12:55:47Z</time>
      </trkpt>
      <trkpt lat="42.281998" lon="-4.224627">
        <ele>827.8050889754668</ele>
        <time>2022-05-16T12:55:57Z</time>
      </trkpt>
      <trkpt lat="42.281965" lon="-4.224748">
        <ele>829.1985121872276</ele>
        <time>2022-05-16T12:56:04Z</time>
      </trkpt>
      <trkpt lat="42.281934" lon="-4.224882">
        <ele>829.0831407085061</ele>
        <time>2022-05-16T12:56:13Z</time>
      </trkpt>
      <trkpt lat="42.28188" lon="-4.224998">
        <ele>830.2344206478447</ele>
        <time>2022-05-16T12:56:22Z</time>
      </trkpt>
      <trkpt lat="42.281856" lon="-4.225117">
        <ele>831.575774741359</ele>
        <time>2022-05-16T12:56:29Z</time>
      </trkpt>
      <trkpt lat="42.281814" lon="-4.225244">
        <ele>831.5170617215335</ele>
        <time>2022-05-16T12:56:36Z</time>
      </trkpt>
      <trkpt lat="42.281777" lon="-4.225359">
        <ele>831.2398381251842</ele>
        <time>2022-05-16T12:56:45Z</time>
      </trkpt>
      <trkpt lat="42.281754" lon="-4.225485">
        <ele>832.070243742317</ele>
        <time>2022-05-16T12:56:54Z</time>
      </trkpt>
      <trkpt lat="42.281704" lon="-4.225595">
        <ele>833.1095882346854</ele>
        <time>2022-05-16T12:57:03Z</time>
      </trkpt>
      <trkpt lat="42.281647" lon="-4.225704">
        <ele>835.0952995419502</ele>
        <time>2022-05-16T12:57:11Z</time>
      </trkpt>
      <trkpt lat="42.281593" lon="-4.225807">
        <ele>836.3375642588362</ele>
        <time>2022-05-16T12:57:20Z</time>
      </trkpt>
      <trkpt lat="42.281525" lon="-4.225903">
        <ele>836.4350170148537</ele>
        <time>2022-05-16T12:57:47Z</time>
      </trkpt>
      <trkpt lat="42.281472" lon="-4.226007">
        <ele>837.5112846307456</ele>
        <time>2022-05-16T12:57:56Z</time>
      </trkpt>
      <trkpt lat="42.281437" lon="-4.226123">
        <ele>838.4394262544811</ele>
        <time>2022-05-16T12:58:03Z</time>
      </trkpt>
      <trkpt lat="42.281372" lon="-4.226209">
        <ele>838.9887498831376</ele>
        <time>2022-05-16T12:58:13Z</time>
      </trkpt>
      <trkpt lat="42.281322" lon="-4.226311">
        <ele>839.2919033812359</ele>
        <time>2022-05-16T12:58:25Z</time>
      </trkpt>
      <trkpt lat="42.258141" lon="-4.347504">
        <ele>840.5567769007757</ele>
        <time>2022-05-17T07:43:27Z</time>
      </trkpt>
      <trkpt lat="42.258066" lon="-4.347599">
        <ele>840.5811907835305</ele>
        <time>2022-05-17T07:43:36Z</time>
      </trkpt>
      <trkpt lat="42.258027" lon="-4.34772">
        <ele>841.0030965181068</ele>
        <time>2022-05-17T07:43:43Z</time>
      </trkpt>
      <trkpt lat="42.258005" lon="-4.347843">
        <ele>840.0267952540889</ele>
        <time>2022-05-17T07:43:52Z</time>
      </trkpt>
      <trkpt lat="42.258092" lon="-4.3479">
        <ele>837.8636517347768</ele>
        <time>2022-05-17T07:44:01Z</time>
      </trkpt>
      <trkpt lat="42.258181" lon="-4.347947">
        <ele>834.3567649042234</ele>
        <time>2022-05-17T07:44:12Z</time>
      </trkpt>
      <trkpt lat="42.258274" lon="-4.34798">
        <ele>826.8283692207187</ele>
        <time>2022-05-17T07:44:26Z</time>
      </trkpt>
      <trkpt lat="42.258368" lon="-4.348009">
        <ele>823.8020943021402</ele>
        <time>2022-05-17T07:44:36Z</time>
      </trkpt>
      <trkpt lat="42.258452" lon="-4.348058">
        <ele>822.00825299602</ele>
        <time>2022-05-17T07:44:45Z</time>
      </trkpt>
      <trkpt lat="42.258541" lon="-4.348086">
        <ele>820.0451095961034</ele>
        <time>2022-05-17T07:44:54Z</time>
      </trkpt>
      <trkpt lat="42.258602" lon="-4.348192">
        <ele>818.1261722072959</ele>
        <time>2022-05-17T07:45:04Z</time>
      </trkpt>
      <trkpt lat="42.258667" lon="-4.348278">
        <ele>817.1668762359768</ele>
        <time>2022-05-17T07:45:13Z</time>
      </trkpt>
      <trkpt lat="42.258743" lon="-4.348348">
        <ele>814.8410786157474</ele>
        <time>2022-05-17T07:45:24Z</time>
      </trkpt>
      <trkpt lat="42.258816" lon="-4.348422">
        <ele>814.1871789982542</ele>
        <time>2022-05-17T07:45:33Z</time>
      </trkpt>
      <trkpt lat="42.258883" lon="-4.348511">
        <ele>814.9653518656269</ele>
        <time>2022-05-17T07:45:44Z</time>
      </trkpt>
      <trkpt lat="42.258946" lon="-4.348603">
        <ele>814.6155322790146</ele>
        <time>2022-05-17T07:45:54Z</time>
      </trkpt>
      <trkpt lat="42.259022" lon="-4.348671">
        <ele>814.4099025512114</ele>
        <time>2022-05-17T07:46:02Z</time>
      </trkpt>
      <trkpt lat="42.259101" lon="-4.348738">
        <ele>814.2786816321313</ele>
        <time>2022-05-17T07:46:13Z</time>
      </trkpt>
      <trkpt lat="42.259181" lon="-4.348794">
        <ele>815.6608468154445</ele>
        <time>2022-05-17T07:46:20Z</time>
      </trkpt>
      <trkpt lat="42.25927" lon="-4.348838">
        <ele>820.6036279303953</ele>
        <time>2022-05-17T07:46:29Z</time>
      </trkpt>
      <trkpt lat="42.259368" lon="-4.348808">
        <ele>823.1963322479278</ele>
        <time>2022-05-17T07:46:38Z</time>
      </trkpt>
      <trkpt lat="42.259447" lon="-4.348748">
        <ele>825.9139075186104</ele>
        <time>2022-05-17T07:46:47Z</time>
      </trkpt>
      <trkpt lat="42.259528" lon="-4.348679">
        <ele>828.971599730663</ele>
        <time>2022-05-17T07:46:56Z</time>
      </trkpt>
      <trkpt lat="42.259603" lon="-4.348598">
        <ele>830.0158664109185</ele>
        <time>2022-05-17T07:47:06Z</time>
      </trkpt>
      <trkpt lat="42.259681" lon="-4.348521">
        <ele>830.0161717105657</ele>
        <time>2022-05-17T07:47:16Z</time>
      </trkpt>
      <trkpt lat="42.259768" lon="-4.348476">
        <ele>831.2547006076202</ele>
        <time>2022-05-17T07:47:25Z</time>
      </trkpt>
      <trkpt lat="42.259868" lon="-4.348466">
        <ele>833.3580768853426</ele>
        <time>2022-05-17T07:47:34Z</time>
      </trkpt>
      <trkpt lat="42.259958" lon="-4.348483">
        <ele>836.1115631982684</ele>
        <time>2022-05-17T07:47:43Z</time>
      </trkpt>
      <trkpt lat="42.260052" lon="-4.34849">
        <ele>836.2213813364506</ele>
        <time>2022-05-17T07:47:50Z</time>
      </trkpt>
      <trkpt lat="42.260143" lon="-4.348523">
        <ele>833.9151071086526</ele>
        <time>2022-05-17T07:47:59Z</time>
      </trkpt>
      <trkpt lat="42.260227" lon="-4.348575">
        <ele>831.397077428177</ele>
        <time>2022-05-17T07:48:08Z</time>
      </trkpt>
      <trkpt lat="42.260318" lon="-4.348622">
        <ele>829.0055372035131</ele>
        <time>2022-05-17T07:48:17Z</time>
      </trkpt>
      <trkpt lat="42.260413" lon="-4.348631">
        <ele>824.0566052906215</ele>
        <time>2022-05-17T07:48:28Z</time>
      </trkpt>
      <trkpt lat="42.260503" lon="-4.34862">
        <ele>823.9433388924226</ele>
        <time>2022-05-17T07:48:37Z</time>
      </trkpt>
      <trkpt lat="42.26059" lon="-4.348663">
        <ele>824.376896285452</ele>
        <time>2022-05-17T07:48:45Z</time>
      </trkpt>
      <trkpt lat="42.260676" lon="-4.348697">
        <ele>821.5347857307643</ele>
        <time>2022-05-17T07:48:54Z</time>
      </trkpt>
      <trkpt lat="42.260772" lon="-4.348701">
        <ele>821.5733572160825</ele>
        <time>2022-05-17T07:49:11Z</time>
      </trkpt>
      <trkpt lat="42.260856" lon="-4.34865">
        <ele>823.7119650226086</ele>
        <time>2022-05-17T07:49:26Z</time>
      </trkpt>
      <trkpt lat="42.260938" lon="-4.348722">
        <ele>823.915452699177</ele>
        <time>2022-05-17T07:49:34Z</time>
      </trkpt>
      <trkpt lat="42.261027" lon="-4.348786">
        <ele>824.0136898038909</ele>
        <time>2022-05-17T07:49:43Z</time>
      </trkpt>
      <trkpt lat="42.261096" lon="-4.348866">
        <ele>823.9049782883376</ele>
        <time>2022-05-17T07:49:51Z</time>
      </trkpt>
      <trkpt lat="42.261166" lon="-4.348953">
        <ele>825.6872070487589</ele>
        <time>2022-05-17T07:49:59Z</time>
      </trkpt>
      <trkpt lat="42.26124" lon="-4.349046">
        <ele>830.4900820888579</ele>
        <time>2022-05-17T07:50:08Z</time>
      </trkpt>
      <trkpt lat="42.261305" lon="-4.349154">
        <ele>833.6873031873256</ele>
        <time>2022-05-17T07:50:18Z</time>
      </trkpt>
      <trkpt lat="42.26136" lon="-4.349266">
        <ele>835.2685161223635</ele>
        <time>2022-05-17T07:50:26Z</time>
      </trkpt>
      <trkpt lat="42.261378" lon="-4.349392">
        <ele>836.8662075167522</ele>
        <time>2022-05-17T07:50:35Z</time>
      </trkpt>
      <trkpt lat="42.261424" lon="-4.349496">
        <ele>835.5997086977586</ele>
        <time>2022-05-17T07:50:42Z</time>
      </trkpt>
      <trkpt lat="42.261494" lon="-4.349596">
        <ele>835.8336650403216</ele>
        <time>2022-05-17T07:50:50Z</time>
      </trkpt>
      <trkpt lat="42.261544" lon="-4.349696">
        <ele>834.9419275578111</ele>
        <time>2022-05-17T07:50:58Z</time>
      </trkpt>
      <trkpt lat="42.261595" lon="-4.349797">
        <ele>836.1256246604025</ele>
        <time>2022-05-17T07:51:13Z</time>
      </trkpt>
      <trkpt lat="42.26166" lon="-4.349905">
        <ele>836.5618988731876</ele>
        <time>2022-05-17T07:51:28Z</time>
      </trkpt>
      <trkpt lat="42.261731" lon="-4.349992">
        <ele>835.207947826013</ele>
        <time>2022-05-17T07:51:35Z</time>
      </trkpt>
      <trkpt lat="42.261813" lon="-4.350074">
        <ele>836.1859418191016</ele>
        <time>2022-05-17T07:51:42Z</time>
      </trkpt>
      <trkpt lat="42.261887" lon="-4.350145">
        <ele>836.8335261996835</ele>
        <time>2022-05-17T07:51:49Z</time>
      </trkpt>
      <trkpt lat="42.261959" lon="-4.350223">
        <ele>836.8719084188342</ele>
        <time>2022-05-17T07:51:55Z</time>
      </trkpt>
      <trkpt lat="42.262033" lon="-4.350295">
        <ele>838.6392314629629</ele>
        <time>2022-05-17T07:52:01Z</time>
      </trkpt>
      <trkpt lat="42.262111" lon="-4.350376">
        <ele>839.247639159672</ele>
        <time>2022-05-17T07:52:07Z</time>
      </trkpt>
      <trkpt lat="42.262192" lon="-4.350456">
        <ele>839.404795948416</ele>
        <time>2022-05-17T07:52:14Z</time>
      </trkpt>
      <trkpt lat="42.262275" lon="-4.350539">
        <ele>842.2197672016919</ele>
        <time>2022-05-17T07:52:21Z</time>
      </trkpt>
      <trkpt lat="42.262357" lon="-4.350619">
        <ele>841.2550911074504</ele>
        <time>2022-05-17T07:52:29Z</time>
      </trkpt>
      <trkpt lat="42.262433" lon="-4.350691">
        <ele>842.3371529281139</ele>
        <time>2022-05-17T07:52:36Z</time>
      </trkpt>
      <trkpt lat="42.262513" lon="-4.350756">
        <ele>842.1560853347182</ele>
        <time>2022-05-17T07:52:42Z</time>
      </trkpt>
      <trkpt lat="42.262598" lon="-4.350831">
        <ele>842.469000801444</ele>
        <time>2022-05-17T07:52:50Z</time>
      </trkpt>
      <trkpt lat="42.262687" lon="-4.350901">
        <ele>844.8899333802983</ele>
        <time>2022-05-17T07:52:57Z</time>
      </trkpt>
      <trkpt lat="42.262765" lon="-4.350967">
        <ele>843.5831743245944</ele>
        <time>2022-05-17T07:53:04Z</time>
      </trkpt>
      <trkpt lat="42.262854" lon="-4.35103">
        <ele>843.9737161612138</ele>
        <time>2022-05-17T07:53:11Z</time>
      </trkpt>
      <trkpt lat="42.262942" lon="-4.351086">
        <ele>843.7517094248906</ele>
        <time>2022-05-17T07:53:18Z</time>
      </trkpt>
      <trkpt lat="42.263006" lon="-4.351186">
        <ele>842.0620083846152</ele>
        <time>2022-05-17T07:53:25Z</time>
      </trkpt>
      <trkpt lat="42.263013" lon="-4.35132">
        <ele>842.4703468689695</ele>
        <time>2022-05-17T07:53:33Z</time>
      </trkpt>
      <trkpt lat="42.262967" lon="-4.351438">
        <ele>840.7855565352365</ele>
        <time>2022-05-17T07:53:54Z</time>
      </trkpt>
      <trkpt lat="42.262896" lon="-4.351533">
        <ele>835.2782269204035</ele>
        <time>2022-05-17T07:54:00Z</time>
      </trkpt>
      <trkpt lat="42.262823" lon="-4.351622">
        <ele>835.0178827960044</ele>
        <time>2022-05-17T07:54:07Z</time>
      </trkpt>
      <trkpt lat="42.262772" lon="-4.351742">
        <ele>836.600148467347</ele>
        <time>2022-05-17T07:54:16Z</time>
      </trkpt>
      <trkpt lat="42.262724" lon="-4.351853">
        <ele>839.2537055462599</ele>
        <time>2022-05-17T07:54:23Z</time>
      </trkpt>
      <trkpt lat="42.262679" lon="-4.351974">
        <ele>839.8022213662043</ele>
        <time>2022-05-17T07:54:31Z</time>
      </trkpt>
      <trkpt lat="42.262642" lon="-4.352096">
        <ele>843.0039212461561</ele>
        <time>2022-05-17T07:54:39Z</time>
      </trkpt>
      <trkpt lat="42.262595" lon="-4.352213">
        <ele>842.8122279336676</ele>
        <time>2022-05-17T07:54:45Z</time>
      </trkpt>
      <trkpt lat="42.262536" lon="-4.352314">
        <ele>842.7164698457345</ele>
        <time>2022-05-17T07:54:53Z</time>
      </trkpt>
      <trkpt lat="42.262492" lon="-4.352433">
        <ele>841.6545687355101</ele>
        <time>2022-05-17T07:55:00Z</time>
      </trkpt>
      <trkpt lat="42.262439" lon="-4.352545">
        <ele>840.9317657770589</ele>
        <time>2022-05-17T07:55:08Z</time>
      </trkpt>
      <trkpt lat="42.262397" lon="-4.352664">
        <ele>841.9254882531241</ele>
        <time>2022-05-17T07:55:16Z</time>
      </trkpt>
      <trkpt lat="42.262358" lon="-4.352781">
        <ele>843.0366584639996</ele>
        <time>2022-05-17T07:55:25Z</time>
      </trkpt>
      <trkpt lat="42.262298" lon="-4.352888">
        <ele>842.9303089976311</ele>
        <time>2022-05-17T07:55:32Z</time>
      </trkpt>
      <trkpt lat="42.262241" lon="-4.353002">
        <ele>845.456182106398</ele>
        <time>2022-05-17T07:55:41Z</time>
      </trkpt>
      <trkpt lat="42.262195" lon="-4.353108">
        <ele>841.5453382311389</ele>
        <time>2022-05-17T07:55:48Z</time>
      </trkpt>
      <trkpt lat="42.262152" lon="-4.353233">
        <ele>839.0754727972671</ele>
        <time>2022-05-17T07:55:56Z</time>
      </trkpt>
      <trkpt lat="42.262095" lon="-4.353327">
        <ele>840.3955143652856</ele>
        <time>2022-05-17T07:56:03Z</time>
      </trkpt>
      <trkpt lat="42.262064" lon="-4.35345">
        <ele>838.2172427270561</ele>
        <time>2022-05-17T07:56:11Z</time>
      </trkpt>
      <trkpt lat="42.262015" lon="-4.353573">
        <ele>839.4229772025719</ele>
        <time>2022-05-17T07:56:21Z</time>
      </trkpt>
      <trkpt lat="42.26195" lon="-4.353666">
        <ele>839.0990374833345</ele>
        <time>2022-05-17T07:56:27Z</time>
      </trkpt>
      <trkpt lat="42.261916" lon="-4.353783">
        <ele>840.1500729322433</ele>
        <time>2022-05-17T07:56:34Z</time>
      </trkpt>
      <trkpt lat="42.26186" lon="-4.353888">
        <ele>840.7150532091036</ele>
        <time>2022-05-17T07:56:42Z</time>
      </trkpt>
      <trkpt lat="42.261803" lon="-4.353997">
        <ele>840.1744851982221</ele>
        <time>2022-05-17T07:56:51Z</time>
      </trkpt>
      <trkpt lat="42.26176" lon="-4.354108">
        <ele>842.2672710893676</ele>
        <time>2022-05-17T07:56:59Z</time>
      </trkpt>
      <trkpt lat="42.261699" lon="-4.35422">
        <ele>842.7429847521707</ele>
        <time>2022-05-17T07:57:07Z</time>
      </trkpt>
      <trkpt lat="42.261627" lon="-4.354302">
        <ele>843.5226055998355</ele>
        <time>2022-05-17T07:57:14Z</time>
      </trkpt>
      <trkpt lat="42.261571" lon="-4.354414">
        <ele>843.0985484328121</ele>
        <time>2022-05-17T07:57:22Z</time>
      </trkpt>
      <trkpt lat="42.261511" lon="-4.354511">
        <ele>842.6211627246812</ele>
        <time>2022-05-17T07:57:29Z</time>
      </trkpt>
      <trkpt lat="42.261446" lon="-4.354599">
        <ele>841.4190035229549</ele>
        <time>2022-05-17T07:57:35Z</time>
      </trkpt>
      <trkpt lat="42.261389" lon="-4.354704">
        <ele>842.59801174514</ele>
        <time>2022-05-17T07:57:43Z</time>
      </trkpt>
      <trkpt lat="42.261336" lon="-4.354813">
        <ele>841.1135363252833</ele>
        <time>2022-05-17T07:57:49Z</time>
      </trkpt>
      <trkpt lat="42.261272" lon="-4.354919">
        <ele>841.4161021420732</ele>
        <time>2022-05-17T07:57:56Z</time>
      </trkpt>
      <trkpt lat="42.261212" lon="-4.355033">
        <ele>840.6613599779084</ele>
        <time>2022-05-17T07:58:03Z</time>
      </trkpt>
      <trkpt lat="42.261155" lon="-4.355132">
        <ele>839.9068868421018</ele>
        <time>2022-05-17T07:58:10Z</time>
      </trkpt>
      <trkpt lat="42.261096" lon="-4.35524">
        <ele>838.6809101728722</ele>
        <time>2022-05-17T07:58:18Z</time>
      </trkpt>
      <trkpt lat="42.261037" lon="-4.355344">
        <ele>837.8421455901116</ele>
        <time>2022-05-17T07:58:26Z</time>
      </trkpt>
      <trkpt lat="42.260969" lon="-4.355443">
        <ele>838.3471707198769</ele>
        <time>2022-05-17T07:58:35Z</time>
      </trkpt>
      <trkpt lat="42.260903" lon="-4.355537">
        <ele>840.3866556920111</ele>
        <time>2022-05-17T07:58:44Z</time>
      </trkpt>
      <trkpt lat="42.260847" lon="-4.355645">
        <ele>840.9419227335602</ele>
        <time>2022-05-17T07:58:51Z</time>
      </trkpt>
      <trkpt lat="42.260787" lon="-4.355764">
        <ele>840.0173790212721</ele>
        <time>2022-05-17T07:58:58Z</time>
      </trkpt>
      <trkpt lat="42.260752" lon="-4.355891">
        <ele>841.2114544827491</ele>
        <time>2022-05-17T07:59:07Z</time>
      </trkpt>
      <trkpt lat="42.260686" lon="-4.35599">
        <ele>844.3183151260018</ele>
        <time>2022-05-17T07:59:16Z</time>
      </trkpt>
      <trkpt lat="42.26063" lon="-4.356095">
        <ele>845.5464148381725</ele>
        <time>2022-05-17T07:59:23Z</time>
      </trkpt>
      <trkpt lat="42.260564" lon="-4.35618">
        <ele>846.9432749738917</ele>
        <time>2022-05-17T07:59:29Z</time>
      </trkpt>
      <trkpt lat="42.260504" lon="-4.356296">
        <ele>847.4026172077283</ele>
        <time>2022-05-17T07:59:35Z</time>
      </trkpt>
      <trkpt lat="42.260439" lon="-4.356381">
        <ele>848.1184221915901</ele>
        <time>2022-05-17T07:59:41Z</time>
      </trkpt>
      <trkpt lat="42.260364" lon="-4.356468">
        <ele>850.0395749276504</ele>
        <time>2022-05-17T07:59:49Z</time>
      </trkpt>
      <trkpt lat="42.260308" lon="-4.356592">
        <ele>850.5332327513024</ele>
        <time>2022-05-17T07:59:57Z</time>
      </trkpt>
      <trkpt lat="42.260259" lon="-4.356704">
        <ele>848.8570377575234</ele>
        <time>2022-05-17T08:00:04Z</time>
      </trkpt>
      <trkpt lat="42.260203" lon="-4.356807">
        <ele>849.2596053928137</ele>
        <time>2022-05-17T08:00:11Z</time>
      </trkpt>
      <trkpt lat="42.260139" lon="-4.35691">
        <ele>849.5566449891776</ele>
        <time>2022-05-17T08:00:21Z</time>
      </trkpt>
      <trkpt lat="42.260078" lon="-4.357024">
        <ele>849.7857078360394</ele>
        <time>2022-05-17T08:00:29Z</time>
      </trkpt>
      <trkpt lat="42.260026" lon="-4.357131">
        <ele>848.5041736001149</ele>
        <time>2022-05-17T08:00:36Z</time>
      </trkpt>
      <trkpt lat="42.259965" lon="-4.357225">
        <ele>848.3293283488601</ele>
        <time>2022-05-17T08:00:42Z</time>
      </trkpt>
      <trkpt lat="42.259897" lon="-4.357327">
        <ele>850.0337590016425</ele>
        <time>2022-05-17T08:00:50Z</time>
      </trkpt>
      <trkpt lat="42.259841" lon="-4.357425">
        <ele>850.8767246901989</ele>
        <time>2022-05-17T08:00:57Z</time>
      </trkpt>
      <trkpt lat="42.259798" lon="-4.357552">
        <ele>848.7902105553076</ele>
        <time>2022-05-17T08:01:04Z</time>
      </trkpt>
      <trkpt lat="42.25975" lon="-4.35766">
        <ele>847.6538820108399</ele>
        <time>2022-05-17T08:01:10Z</time>
      </trkpt>
      <trkpt lat="42.259688" lon="-4.35776">
        <ele>846.5784652698785</ele>
        <time>2022-05-17T08:01:18Z</time>
      </trkpt>
      <trkpt lat="42.259616" lon="-4.357854">
        <ele>846.810470096767</ele>
        <time>2022-05-17T08:01:26Z</time>
      </trkpt>
      <trkpt lat="42.259549" lon="-4.357936">
        <ele>848.2908887444064</ele>
        <time>2022-05-17T08:01:33Z</time>
      </trkpt>
      <trkpt lat="42.259505" lon="-4.358043">
        <ele>847.7849018322304</ele>
        <time>2022-05-17T08:01:40Z</time>
      </trkpt>
      <trkpt lat="42.259464" lon="-4.358157">
        <ele>848.4194987611845</ele>
        <time>2022-05-17T08:01:47Z</time>
      </trkpt>
      <trkpt lat="42.259436" lon="-4.358273">
        <ele>848.394649386406</ele>
        <time>2022-05-17T08:01:53Z</time>
      </trkpt>
      <trkpt lat="42.259436" lon="-4.358409">
        <ele>849.6183606386185</ele>
        <time>2022-05-17T08:02:01Z</time>
      </trkpt>
      <trkpt lat="42.259397" lon="-4.35852">
        <ele>850.285346201621</ele>
        <time>2022-05-17T08:02:09Z</time>
      </trkpt>
      <trkpt lat="42.259353" lon="-4.358641">
        <ele>850.0911959130317</ele>
        <time>2022-05-17T08:02:16Z</time>
      </trkpt>
      <trkpt lat="42.259312" lon="-4.358769">
        <ele>849.7894867146388</ele>
        <time>2022-05-17T08:02:23Z</time>
      </trkpt>
      <trkpt lat="42.2593" lon="-4.358904">
        <ele>848.226339478977</ele>
        <time>2022-05-17T08:02:30Z</time>
      </trkpt>
      <trkpt lat="42.259276" lon="-4.359026">
        <ele>847.0273743132129</ele>
        <time>2022-05-17T08:02:37Z</time>
      </trkpt>
      <trkpt lat="42.259265" lon="-4.359169">
        <ele>845.8448176356032</ele>
        <time>2022-05-17T08:02:46Z</time>
      </trkpt>
      <trkpt lat="42.25925" lon="-4.359298">
        <ele>844.1247503925115</ele>
        <time>2022-05-17T08:02:51Z</time>
      </trkpt>
      <trkpt lat="42.259214" lon="-4.359418">
        <ele>844.5722592025995</ele>
        <time>2022-05-17T08:02:58Z</time>
      </trkpt>
      <trkpt lat="42.259202" lon="-4.359545">
        <ele>842.4293052162975</ele>
        <time>2022-05-17T08:03:04Z</time>
      </trkpt>
      <trkpt lat="42.25917" lon="-4.359659">
        <ele>842.2739147394896</ele>
        <time>2022-05-17T08:03:10Z</time>
      </trkpt>
      <trkpt lat="42.259158" lon="-4.359783">
        <ele>841.0472564836964</ele>
        <time>2022-05-17T08:03:17Z</time>
      </trkpt>
      <trkpt lat="42.259131" lon="-4.359913">
        <ele>840.0851619038731</ele>
        <time>2022-05-17T08:03:26Z</time>
      </trkpt>
      <trkpt lat="42.259101" lon="-4.360036">
        <ele>838.8875703373924</ele>
        <time>2022-05-17T08:03:33Z</time>
      </trkpt>
      <trkpt lat="42.259074" lon="-4.360159">
        <ele>837.1242162799463</ele>
        <time>2022-05-17T08:03:40Z</time>
      </trkpt>
      <trkpt lat="42.259042" lon="-4.360273">
        <ele>839.2554743848741</ele>
        <time>2022-05-17T08:03:49Z</time>
      </trkpt>
      <trkpt lat="42.259013" lon="-4.360401">
        <ele>838.7477594725788</ele>
        <time>2022-05-17T08:03:56Z</time>
      </trkpt>
      <trkpt lat="42.258976" lon="-4.360524">
        <ele>838.3572404226288</ele>
        <time>2022-05-17T08:04:04Z</time>
      </trkpt>
      <trkpt lat="42.258959" lon="-4.360655">
        <ele>837.4023649375886</ele>
        <time>2022-05-17T08:04:12Z</time>
      </trkpt>
      <trkpt lat="42.258942" lon="-4.360784">
        <ele>837.1150350319222</ele>
        <time>2022-05-17T08:04:19Z</time>
      </trkpt>
      <trkpt lat="42.258932" lon="-4.360917">
        <ele>837.40130024869</ele>
        <time>2022-05-17T08:04:28Z</time>
      </trkpt>
      <trkpt lat="42.25893" lon="-4.361047">
        <ele>837.9212658628821</ele>
        <time>2022-05-17T08:04:36Z</time>
      </trkpt>
      <trkpt lat="42.258916" lon="-4.361189">
        <ele>838.4525067694485</ele>
        <time>2022-05-17T08:04:43Z</time>
      </trkpt>
      <trkpt lat="42.258899" lon="-4.361309">
        <ele>837.9116279520094</ele>
        <time>2022-05-17T08:04:50Z</time>
      </trkpt>
      <trkpt lat="42.258901" lon="-4.361431">
        <ele>839.3824604777619</ele>
        <time>2022-05-17T08:04:57Z</time>
      </trkpt>
      <trkpt lat="42.258893" lon="-4.361559">
        <ele>840.0348526695743</ele>
        <time>2022-05-17T08:05:05Z</time>
      </trkpt>
      <trkpt lat="42.25887" lon="-4.361677">
        <ele>840.5508387414739</ele>
        <time>2022-05-17T08:05:13Z</time>
      </trkpt>
      <trkpt lat="42.258859" lon="-4.361806">
        <ele>839.7083908589557</ele>
        <time>2022-05-17T08:05:20Z</time>
      </trkpt>
      <trkpt lat="42.258838" lon="-4.361933">
        <ele>838.7896531848237</ele>
        <time>2022-05-17T08:05:26Z</time>
      </trkpt>
      <trkpt lat="42.258814" lon="-4.362066">
        <ele>837.0683227824047</ele>
        <time>2022-05-17T08:05:34Z</time>
      </trkpt>
      <trkpt lat="42.258801" lon="-4.362193">
        <ele>837.1799037903547</ele>
        <time>2022-05-17T08:05:41Z</time>
      </trkpt>
      <trkpt lat="42.2588" lon="-4.362333">
        <ele>836.0892179654911</ele>
        <time>2022-05-17T08:05:48Z</time>
      </trkpt>
      <trkpt lat="42.258796" lon="-4.362465">
        <ele>835.7749823480844</ele>
        <time>2022-05-17T08:05:57Z</time>
      </trkpt>
      <trkpt lat="42.258782" lon="-4.362589">
        <ele>836.221624317579</ele>
        <time>2022-05-17T08:06:08Z</time>
      </trkpt>
      <trkpt lat="42.258755" lon="-4.362714">
        <ele>837.7281041042879</ele>
        <time>2022-05-17T08:06:18Z</time>
      </trkpt>
      <trkpt lat="42.258741" lon="-4.362835">
        <ele>837.3580067642033</ele>
        <time>2022-05-17T08:06:25Z</time>
      </trkpt>
      <trkpt lat="42.258721" lon="-4.362956">
        <ele>837.9821219341829</ele>
        <time>2022-05-17T08:06:32Z</time>
      </trkpt>
      <trkpt lat="42.258714" lon="-4.363092">
        <ele>839.1140608424321</ele>
        <time>2022-05-17T08:06:40Z</time>
      </trkpt>
      <trkpt lat="42.258692" lon="-4.363211">
        <ele>839.4208908295259</ele>
        <time>2022-05-17T08:06:47Z</time>
      </trkpt>
      <trkpt lat="42.258669" lon="-4.36334">
        <ele>838.6837588101625</ele>
        <time>2022-05-17T08:06:54Z</time>
      </trkpt>
      <trkpt lat="42.258641" lon="-4.363466">
        <ele>839.4811384249479</ele>
        <time>2022-05-17T08:07:01Z</time>
      </trkpt>
      <trkpt lat="42.258608" lon="-4.363586">
        <ele>837.9573294492438</ele>
        <time>2022-05-17T08:07:09Z</time>
      </trkpt>
      <trkpt lat="42.258581" lon="-4.363712">
        <ele>836.2790622720495</ele>
        <time>2022-05-17T08:07:17Z</time>
      </trkpt>
      <trkpt lat="42.258543" lon="-4.363828">
        <ele>835.255034295842</ele>
        <time>2022-05-17T08:07:26Z</time>
      </trkpt>
      <trkpt lat="42.25849" lon="-4.363926">
        <ele>835.1867761509493</ele>
        <time>2022-05-17T08:07:36Z</time>
      </trkpt>
      <trkpt lat="42.258446" lon="-4.364042">
        <ele>836.5258551640436</ele>
        <time>2022-05-17T08:07:45Z</time>
      </trkpt>
      <trkpt lat="42.258369" lon="-4.364128">
        <ele>840.8459743307903</ele>
        <time>2022-05-17T08:10:36Z</time>
      </trkpt>
      <trkpt lat="42.258324" lon="-4.364243">
        <ele>844.833066644147</ele>
        <time>2022-05-17T08:11:05Z</time>
      </trkpt>
      <trkpt lat="42.258325" lon="-4.364367">
        <ele>845.1849178057164</ele>
        <time>2022-05-17T08:11:12Z</time>
      </trkpt>
      <trkpt lat="42.258318" lon="-4.364512">
        <ele>847.4690041076392</ele>
        <time>2022-05-17T08:11:21Z</time>
      </trkpt>
      <trkpt lat="42.25831" lon="-4.364641">
        <ele>847.9673967873678</ele>
        <time>2022-05-17T08:11:29Z</time>
      </trkpt>
      <trkpt lat="42.258298" lon="-4.36477">
        <ele>849.3846525363624</ele>
        <time>2022-05-17T08:11:40Z</time>
      </trkpt>
      <trkpt lat="42.258294" lon="-4.364903">
        <ele>849.9511599326506</ele>
        <time>2022-05-17T08:11:50Z</time>
      </trkpt>
      <trkpt lat="42.2583" lon="-4.365035">
        <ele>849.2079775808379</ele>
        <time>2022-05-17T08:11:57Z</time>
      </trkpt>
      <trkpt lat="42.258298" lon="-4.365176">
        <ele>852.398080994375</ele>
        <time>2022-05-17T08:12:07Z</time>
      </trkpt>
      <trkpt lat="42.258301" lon="-4.365305">
        <ele>854.0530974650756</ele>
        <time>2022-05-17T08:12:15Z</time>
      </trkpt>
      <trkpt lat="42.258298" lon="-4.365433">
        <ele>853.2714965548366</ele>
        <time>2022-05-17T08:12:23Z</time>
      </trkpt>
      <trkpt lat="42.25829" lon="-4.365556">
        <ele>856.221025487408</ele>
        <time>2022-05-17T08:12:31Z</time>
      </trkpt>
      <trkpt lat="42.258291" lon="-4.365683">
        <ele>858.7820421587676</ele>
        <time>2022-05-17T08:12:39Z</time>
      </trkpt>
      <trkpt lat="42.258303" lon="-4.365813">
        <ele>859.7833172893152</ele>
        <time>2022-05-17T08:12:47Z</time>
      </trkpt>
      <trkpt lat="42.258308" lon="-4.365938">
        <ele>860.6854916522279</ele>
        <time>2022-05-17T08:12:56Z</time>
      </trkpt>
      <trkpt lat="42.258315" lon="-4.366073">
        <ele>861.197406061925</ele>
        <time>2022-05-17T08:13:04Z</time>
      </trkpt>
      <trkpt lat="42.258306" lon="-4.366194">
        <ele>861.1990335714072</ele>
        <time>2022-05-17T08:13:13Z</time>
      </trkpt>
      <trkpt lat="42.258305" lon="-4.366322">
        <ele>860.9282874977216</ele>
        <time>2022-05-17T08:13:22Z</time>
      </trkpt>
      <trkpt lat="42.258294" lon="-4.366449">
        <ele>857.445926958695</ele>
        <time>2022-05-17T08:13:30Z</time>
      </trkpt>
      <trkpt lat="42.258297" lon="-4.366581">
        <ele>854.3231524862349</ele>
        <time>2022-05-17T08:13:39Z</time>
      </trkpt>
      <trkpt lat="42.258288" lon="-4.366712">
        <ele>856.062747371383</ele>
        <time>2022-05-17T08:13:50Z</time>
      </trkpt>
      <trkpt lat="42.258281" lon="-4.36684">
        <ele>855.8542221970856</ele>
        <time>2022-05-17T08:13:59Z</time>
      </trkpt>
      <trkpt lat="42.258281" lon="-4.366972">
        <ele>853.4996983921155</ele>
        <time>2022-05-17T08:14:08Z</time>
      </trkpt>
      <trkpt lat="42.258281" lon="-4.3671">
        <ele>856.3684488749132</ele>
        <time>2022-05-17T08:14:19Z</time>
      </trkpt>
      <trkpt lat="42.258277" lon="-4.367232">
        <ele>857.4868620634079</ele>
        <time>2022-05-17T08:14:28Z</time>
      </trkpt>
      <trkpt lat="42.258287" lon="-4.36737">
        <ele>857.2048375131562</ele>
        <time>2022-05-17T08:14:35Z</time>
      </trkpt>
      <trkpt lat="42.258303" lon="-4.367491">
        <ele>857.1314133368433</ele>
        <time>2022-05-17T08:14:44Z</time>
      </trkpt>
      <trkpt lat="42.258313" lon="-4.367617">
        <ele>857.1552996113896</ele>
        <time>2022-05-17T08:14:52Z</time>
      </trkpt>
      <trkpt lat="42.258303" lon="-4.367752">
        <ele>856.620389376767</ele>
        <time>2022-05-17T08:15:01Z</time>
      </trkpt>
      <trkpt lat="42.258286" lon="-4.367875">
        <ele>857.9342026002705</ele>
        <time>2022-05-17T08:15:09Z</time>
      </trkpt>
      <trkpt lat="42.258323" lon="-4.367999">
        <ele>859.0410666214302</ele>
        <time>2022-05-17T08:15:18Z</time>
      </trkpt>
      <trkpt lat="42.258317" lon="-4.36814">
        <ele>855.8426649300382</ele>
        <time>2022-05-17T08:15:23Z</time>
      </trkpt>
      <trkpt lat="42.258336" lon="-4.368275">
        <ele>852.6968847764656</ele>
        <time>2022-05-17T08:15:28Z</time>
      </trkpt>
      <trkpt lat="42.258361" lon="-4.368398">
        <ele>850.8978777835146</ele>
        <time>2022-05-17T08:15:34Z</time>
      </trkpt>
      <trkpt lat="42.258361" lon="-4.36853">
        <ele>850.3833650974557</ele>
        <time>2022-05-17T08:15:44Z</time>
      </trkpt>
      <trkpt lat="42.258352" lon="-4.368652">
        <ele>848.788566862233</ele>
        <time>2022-05-17T08:15:50Z</time>
      </trkpt>
      <trkpt lat="42.258363" lon="-4.368775">
        <ele>848.6652370039374</ele>
        <time>2022-05-17T08:15:57Z</time>
      </trkpt>
      <trkpt lat="42.258364" lon="-4.3689">
        <ele>850.6904513062909</ele>
        <time>2022-05-17T08:16:05Z</time>
      </trkpt>
      <trkpt lat="42.258368" lon="-4.369024">
        <ele>852.6833091787994</ele>
        <time>2022-05-17T08:16:11Z</time>
      </trkpt>
      <trkpt lat="42.258385" lon="-4.369147">
        <ele>853.6054298095405</ele>
        <time>2022-05-17T08:16:17Z</time>
      </trkpt>
      <trkpt lat="42.258403" lon="-4.369271">
        <ele>855.4330878490582</ele>
        <time>2022-05-17T08:16:24Z</time>
      </trkpt>
      <trkpt lat="42.258392" lon="-4.369393">
        <ele>854.5207108706236</ele>
        <time>2022-05-17T08:16:30Z</time>
      </trkpt>
      <trkpt lat="42.25838" lon="-4.369529">
        <ele>853.1890653809533</ele>
        <time>2022-05-17T08:16:37Z</time>
      </trkpt>
      <trkpt lat="42.2584" lon="-4.369652">
        <ele>854.1618559667841</ele>
        <time>2022-05-17T08:16:44Z</time>
      </trkpt>
      <trkpt lat="42.258396" lon="-4.369795">
        <ele>854.553461605683</ele>
        <time>2022-05-17T08:16:52Z</time>
      </trkpt>
      <trkpt lat="42.258384" lon="-4.369927">
        <ele>854.0205710791051</ele>
        <time>2022-05-17T08:16:58Z</time>
      </trkpt>
      <trkpt lat="42.258381" lon="-4.370053">
        <ele>854.4506542254239</ele>
        <time>2022-05-17T08:17:06Z</time>
      </trkpt>
      <trkpt lat="42.258386" lon="-4.370184">
        <ele>850.9982414571568</ele>
        <time>2022-05-17T08:17:11Z</time>
      </trkpt>
      <trkpt lat="42.258383" lon="-4.370313">
        <ele>848.6223546313122</ele>
        <time>2022-05-17T08:17:19Z</time>
      </trkpt>
      <trkpt lat="42.258366" lon="-4.370432">
        <ele>846.0361550981179</ele>
        <time>2022-05-17T08:17:24Z</time>
      </trkpt>
      <trkpt lat="42.258356" lon="-4.370564">
        <ele>844.8375130994245</ele>
        <time>2022-05-17T08:17:32Z</time>
      </trkpt>
      <trkpt lat="42.25838" lon="-4.370696">
        <ele>846.7149895811453</ele>
        <time>2022-05-17T08:17:41Z</time>
      </trkpt>
      <trkpt lat="42.258374" lon="-4.370831">
        <ele>848.9812336191535</ele>
        <time>2022-05-17T08:18:03Z</time>
      </trkpt>
      <trkpt lat="42.258372" lon="-4.37096">
        <ele>851.8654863815755</ele>
        <time>2022-05-17T08:18:11Z</time>
      </trkpt>
      <trkpt lat="42.258351" lon="-4.371084">
        <ele>848.0706519735977</ele>
        <time>2022-05-17T08:18:19Z</time>
      </trkpt>
      <trkpt lat="42.258355" lon="-4.371207">
        <ele>850.6004389701411</ele>
        <time>2022-05-17T08:18:27Z</time>
      </trkpt>
      <trkpt lat="42.258374" lon="-4.371344">
        <ele>853.7434358783066</ele>
        <time>2022-05-17T08:18:35Z</time>
      </trkpt>
      <trkpt lat="42.258396" lon="-4.371475">
        <ele>853.3188218697906</ele>
        <time>2022-05-17T08:18:40Z</time>
      </trkpt>
      <trkpt lat="42.2584" lon="-4.371614">
        <ele>851.1348754027858</ele>
        <time>2022-05-17T08:18:45Z</time>
      </trkpt>
      <trkpt lat="42.258409" lon="-4.37174">
        <ele>851.3648366630077</ele>
        <time>2022-05-17T08:18:51Z</time>
      </trkpt>
      <trkpt lat="42.25842" lon="-4.371862">
        <ele>849.5057263122872</ele>
        <time>2022-05-17T08:18:58Z</time>
      </trkpt>
      <trkpt lat="42.258415" lon="-4.371992">
        <ele>848.7955185482278</ele>
        <time>2022-05-17T08:19:05Z</time>
      </trkpt>
      <trkpt lat="42.258427" lon="-4.372122">
        <ele>852.117109067738</ele>
        <time>2022-05-17T08:19:15Z</time>
      </trkpt>
      <trkpt lat="42.258425" lon="-4.372243">
        <ele>854.2972814878449</ele>
        <time>2022-05-17T08:19:23Z</time>
      </trkpt>
      <trkpt lat="42.258428" lon="-4.372376">
        <ele>856.8904543751851</ele>
        <time>2022-05-17T08:19:33Z</time>
      </trkpt>
      <trkpt lat="42.258419" lon="-4.37251">
        <ele>854.9965398050845</ele>
        <time>2022-05-17T08:19:39Z</time>
      </trkpt>
      <trkpt lat="42.258416" lon="-4.372637">
        <ele>853.8801929112524</ele>
        <time>2022-05-17T08:19:45Z</time>
      </trkpt>
      <trkpt lat="42.258409" lon="-4.37276">
        <ele>853.7919261027128</ele>
        <time>2022-05-17T08:19:52Z</time>
      </trkpt>
      <trkpt lat="42.258392" lon="-4.37288">
        <ele>853.3125587254763</ele>
        <time>2022-05-17T08:19:59Z</time>
      </trkpt>
      <trkpt lat="42.258398" lon="-4.373011">
        <ele>856.598609435372</ele>
        <time>2022-05-17T08:20:06Z</time>
      </trkpt>
      <trkpt lat="42.258391" lon="-4.373154">
        <ele>854.9020261829719</ele>
        <time>2022-05-17T08:20:12Z</time>
      </trkpt>
      <trkpt lat="42.258394" lon="-4.373279">
        <ele>853.6756636574864</ele>
        <time>2022-05-17T08:20:17Z</time>
      </trkpt>
      <trkpt lat="42.2584" lon="-4.373405">
        <ele>849.8680994352326</ele>
        <time>2022-05-17T08:20:22Z</time>
      </trkpt>
      <trkpt lat="42.258418" lon="-4.373528">
        <ele>846.7036991231143</ele>
        <time>2022-05-17T08:20:29Z</time>
      </trkpt>
      <trkpt lat="42.258417" lon="-4.373656">
        <ele>842.9688168326393</ele>
        <time>2022-05-17T08:20:35Z</time>
      </trkpt>
      <trkpt lat="42.258432" lon="-4.37378">
        <ele>846.1884425450116</ele>
        <time>2022-05-17T08:20:50Z</time>
      </trkpt>
      <trkpt lat="42.258445" lon="-4.373904">
        <ele>847.9177284920588</ele>
        <time>2022-05-17T08:20:57Z</time>
      </trkpt>
      <trkpt lat="42.258449" lon="-4.374037">
        <ele>847.17868474219</ele>
        <time>2022-05-17T08:21:03Z</time>
      </trkpt>
      <trkpt lat="42.258451" lon="-4.374177">
        <ele>845.9464246267453</ele>
        <time>2022-05-17T08:21:09Z</time>
      </trkpt>
      <trkpt lat="42.258448" lon="-4.374306">
        <ele>849.5185177335516</ele>
        <time>2022-05-17T08:21:16Z</time>
      </trkpt>
      <trkpt lat="42.258453" lon="-4.374437">
        <ele>855.3228237656876</ele>
        <time>2022-05-17T08:21:25Z</time>
      </trkpt>
      <trkpt lat="42.258433" lon="-4.374565">
        <ele>854.2674309602007</ele>
        <time>2022-05-17T08:21:30Z</time>
      </trkpt>
      <trkpt lat="42.258414" lon="-4.374685">
        <ele>851.7806766200811</ele>
        <time>2022-05-17T08:21:36Z</time>
      </trkpt>
      <trkpt lat="42.258414" lon="-4.374821">
        <ele>849.2340067485347</ele>
        <time>2022-05-17T08:21:43Z</time>
      </trkpt>
      <trkpt lat="42.258416" lon="-4.374944">
        <ele>848.6991552757099</ele>
        <time>2022-05-17T08:21:55Z</time>
      </trkpt>
      <trkpt lat="42.258392" lon="-4.375066">
        <ele>847.3768049627542</ele>
        <time>2022-05-17T08:22:03Z</time>
      </trkpt>
      <trkpt lat="42.258375" lon="-4.37521">
        <ele>846.1076059099287</ele>
        <time>2022-05-17T08:22:12Z</time>
      </trkpt>
      <trkpt lat="42.258381" lon="-4.375337">
        <ele>846.3578302487731</ele>
        <time>2022-05-17T08:22:20Z</time>
      </trkpt>
      <trkpt lat="42.258394" lon="-4.375458">
        <ele>846.7194791287184</ele>
        <time>2022-05-17T08:22:27Z</time>
      </trkpt>
      <trkpt lat="42.258384" lon="-4.375601">
        <ele>845.1202116087079</ele>
        <time>2022-05-17T08:22:33Z</time>
      </trkpt>
      <trkpt lat="42.258356" lon="-4.37574">
        <ele>843.5765355043113</ele>
        <time>2022-05-17T08:22:40Z</time>
      </trkpt>
      <trkpt lat="42.25836" lon="-4.37587">
        <ele>845.2240855954587</ele>
        <time>2022-05-17T08:22:50Z</time>
      </trkpt>
      <trkpt lat="42.258376" lon="-4.376011">
        <ele>844.6933242622763</ele>
        <time>2022-05-17T08:22:57Z</time>
      </trkpt>
      <trkpt lat="42.258373" lon="-4.376136">
        <ele>842.1828975137323</ele>
        <time>2022-05-17T08:23:03Z</time>
      </trkpt>
      <trkpt lat="42.258366" lon="-4.376267">
        <ele>840.7123661031947</ele>
        <time>2022-05-17T08:23:11Z</time>
      </trkpt>
      <trkpt lat="42.258393" lon="-4.376391">
        <ele>842.0828193714842</ele>
        <time>2022-05-17T08:23:19Z</time>
      </trkpt>
      <trkpt lat="42.2584" lon="-4.376525">
        <ele>844.0303368493915</ele>
        <time>2022-05-17T08:23:27Z</time>
      </trkpt>
      <trkpt lat="42.258406" lon="-4.376652">
        <ele>847.3701849877834</ele>
        <time>2022-05-17T08:23:38Z</time>
      </trkpt>
      <trkpt lat="42.258376" lon="-4.376787">
        <ele>846.854400543496</ele>
        <time>2022-05-17T08:23:45Z</time>
      </trkpt>
      <trkpt lat="42.25836" lon="-4.376907">
        <ele>845.4512150324881</ele>
        <time>2022-05-17T08:23:50Z</time>
      </trkpt>
      <trkpt lat="42.258397" lon="-4.377032">
        <ele>847.6360679492354</ele>
        <time>2022-05-17T08:23:59Z</time>
      </trkpt>
      <trkpt lat="42.258411" lon="-4.377169">
        <ele>848.1112411348149</ele>
        <time>2022-05-17T08:24:06Z</time>
      </trkpt>
      <trkpt lat="42.258437" lon="-4.377306">
        <ele>847.9971423028037</ele>
        <time>2022-05-17T08:24:13Z</time>
      </trkpt>
      <trkpt lat="42.258439" lon="-4.377431">
        <ele>848.8979838723317</ele>
        <time>2022-05-17T08:24:22Z</time>
      </trkpt>
      <trkpt lat="42.258426" lon="-4.377568">
        <ele>848.0525429034606</ele>
        <time>2022-05-17T08:24:30Z</time>
      </trkpt>
      <trkpt lat="42.258415" lon="-4.377691">
        <ele>847.014864125289</ele>
        <time>2022-05-17T08:24:36Z</time>
      </trkpt>
      <trkpt lat="42.258419" lon="-4.377828">
        <ele>846.1877976935357</ele>
        <time>2022-05-17T08:24:42Z</time>
      </trkpt>
      <trkpt lat="42.258449" lon="-4.377958">
        <ele>848.0849121026695</ele>
        <time>2022-05-17T08:24:50Z</time>
      </trkpt>
      <trkpt lat="42.258418" lon="-4.378076">
        <ele>847.976104051806</ele>
        <time>2022-05-17T08:24:57Z</time>
      </trkpt>
      <trkpt lat="42.258407" lon="-4.378209">
        <ele>848.2703376160935</ele>
        <time>2022-05-17T08:25:06Z</time>
      </trkpt>
      <trkpt lat="42.25838" lon="-4.378329">
        <ele>847.7732744114473</ele>
        <time>2022-05-17T08:25:17Z</time>
      </trkpt>
      <trkpt lat="42.258362" lon="-4.378469">
        <ele>843.7525573102757</ele>
        <time>2022-05-17T08:25:22Z</time>
      </trkpt>
      <trkpt lat="42.258364" lon="-4.378593">
        <ele>841.9845773158595</ele>
        <time>2022-05-17T08:25:29Z</time>
      </trkpt>
      <trkpt lat="42.258354" lon="-4.378721">
        <ele>843.6960882553831</ele>
        <time>2022-05-17T08:25:39Z</time>
      </trkpt>
      <trkpt lat="42.258376" lon="-4.378842">
        <ele>847.193750445731</ele>
        <time>2022-05-17T08:25:46Z</time>
      </trkpt>
      <trkpt lat="42.2584" lon="-4.37897">
        <ele>848.039419632405</ele>
        <time>2022-05-17T08:25:52Z</time>
      </trkpt>
      <trkpt lat="42.258373" lon="-4.3791">
        <ele>851.244512588717</ele>
        <time>2022-05-17T08:26:03Z</time>
      </trkpt>
      <trkpt lat="42.258389" lon="-4.379233">
        <ele>852.1975653590634</ele>
        <time>2022-05-17T08:26:12Z</time>
      </trkpt>
      <trkpt lat="42.258389" lon="-4.379356">
        <ele>851.0281547503546</ele>
        <time>2022-05-17T08:26:18Z</time>
      </trkpt>
      <trkpt lat="42.258363" lon="-4.379493">
        <ele>855.1444418942556</ele>
        <time>2022-05-17T08:26:30Z</time>
      </trkpt>
      <trkpt lat="42.258354" lon="-4.379617">
        <ele>853.193735415116</ele>
        <time>2022-05-17T08:26:37Z</time>
      </trkpt>
      <trkpt lat="42.258345" lon="-4.379745">
        <ele>853.3729559117928</ele>
        <time>2022-05-17T08:26:44Z</time>
      </trkpt>
      <trkpt lat="42.25836" lon="-4.37987">
        <ele>853.9622212378308</ele>
        <time>2022-05-17T08:26:53Z</time>
      </trkpt>
      <trkpt lat="42.258364" lon="-4.380003">
        <ele>853.063787823543</ele>
        <time>2022-05-17T08:27:00Z</time>
      </trkpt>
      <trkpt lat="42.25838" lon="-4.380126">
        <ele>853.979743595235</ele>
        <time>2022-05-17T08:27:08Z</time>
      </trkpt>
      <trkpt lat="42.258373" lon="-4.380269">
        <ele>851.9738126471639</ele>
        <time>2022-05-17T08:27:15Z</time>
      </trkpt>
      <trkpt lat="42.258376" lon="-4.38039">
        <ele>848.6905351420864</ele>
        <time>2022-05-17T08:27:20Z</time>
      </trkpt>
      <trkpt lat="42.258391" lon="-4.380512">
        <ele>851.8734130514786</ele>
        <time>2022-05-17T08:27:31Z</time>
      </trkpt>
      <trkpt lat="42.258395" lon="-4.380645">
        <ele>850.4773800829425</ele>
        <time>2022-05-17T08:27:39Z</time>
      </trkpt>
      <trkpt lat="42.25844" lon="-4.380754">
        <ele>854.4460476534441</ele>
        <time>2022-05-17T08:27:49Z</time>
      </trkpt>
      <trkpt lat="42.258458" lon="-4.380897">
        <ele>851.6807376779616</ele>
        <time>2022-05-17T08:27:55Z</time>
      </trkpt>
      <trkpt lat="42.258494" lon="-4.381015">
        <ele>850.913210015744</ele>
        <time>2022-05-17T08:28:01Z</time>
      </trkpt>
      <trkpt lat="42.258528" lon="-4.381136">
        <ele>853.3773741321638</ele>
        <time>2022-05-17T08:28:08Z</time>
      </trkpt>
      <trkpt lat="42.258564" lon="-4.381248">
        <ele>854.4450868414715</ele>
        <time>2022-05-17T08:28:14Z</time>
      </trkpt>
      <trkpt lat="42.258616" lon="-4.381357">
        <ele>854.1660645343363</ele>
        <time>2022-05-17T08:28:20Z</time>
      </trkpt>
      <trkpt lat="42.258646" lon="-4.381479">
        <ele>852.8069956377149</ele>
        <time>2022-05-17T08:28:27Z</time>
      </trkpt>
      <trkpt lat="42.258667" lon="-4.3816">
        <ele>853.2729060919955</ele>
        <time>2022-05-17T08:28:36Z</time>
      </trkpt>
      <trkpt lat="42.258688" lon="-4.38173">
        <ele>854.8879853663966</ele>
        <time>2022-05-17T08:28:44Z</time>
      </trkpt>
      <trkpt lat="42.258721" lon="-4.381843">
        <ele>854.6263476349413</ele>
        <time>2022-05-17T08:28:51Z</time>
      </trkpt>
      <trkpt lat="42.258754" lon="-4.381968">
        <ele>853.9460513265803</ele>
        <time>2022-05-17T08:28:58Z</time>
      </trkpt>
      <trkpt lat="42.258796" lon="-4.382081">
        <ele>853.2126866085455</ele>
        <time>2022-05-17T08:29:04Z</time>
      </trkpt>
      <trkpt lat="42.258823" lon="-4.382208">
        <ele>852.5026278113946</ele>
        <time>2022-05-17T08:29:11Z</time>
      </trkpt>
      <trkpt lat="42.258846" lon="-4.382334">
        <ele>850.7441832963377</ele>
        <time>2022-05-17T08:29:21Z</time>
      </trkpt>
      <trkpt lat="42.258875" lon="-4.382451">
        <ele>851.204177477397</ele>
        <time>2022-05-17T08:29:29Z</time>
      </trkpt>
      <trkpt lat="42.258898" lon="-4.382576">
        <ele>851.863598539494</ele>
        <time>2022-05-17T08:29:36Z</time>
      </trkpt>
      <trkpt lat="42.258912" lon="-4.382707">
        <ele>850.4466969119385</ele>
        <time>2022-05-17T08:29:43Z</time>
      </trkpt>
      <trkpt lat="42.258929" lon="-4.382832">
        <ele>848.4672760143876</ele>
        <time>2022-05-17T08:29:49Z</time>
      </trkpt>
      <trkpt lat="42.25898" lon="-4.382944">
        <ele>847.5905327321962</ele>
        <time>2022-05-17T08:30:10Z</time>
      </trkpt>
      <trkpt lat="42.258989" lon="-4.383092">
        <ele>846.3424684945494</ele>
        <time>2022-05-17T08:30:17Z</time>
      </trkpt>
      <trkpt lat="42.259035" lon="-4.383206">
        <ele>847.8619550140575</ele>
        <time>2022-05-17T08:30:24Z</time>
      </trkpt>
      <trkpt lat="42.259083" lon="-4.383322">
        <ele>848.2191531555727</ele>
        <time>2022-05-17T08:30:30Z</time>
      </trkpt>
      <trkpt lat="42.259124" lon="-4.383442">
        <ele>848.4508416149765</ele>
        <time>2022-05-17T08:30:50Z</time>
      </trkpt>
      <trkpt lat="42.259115" lon="-4.383572">
        <ele>845.1762606911361</ele>
        <time>2022-05-17T08:30:57Z</time>
      </trkpt>
      <trkpt lat="42.259158" lon="-4.383692">
        <ele>843.043445113115</ele>
        <time>2022-05-17T08:31:05Z</time>
      </trkpt>
      <trkpt lat="42.259184" lon="-4.383808">
        <ele>842.1639399304986</ele>
        <time>2022-05-17T08:31:12Z</time>
      </trkpt>
      <trkpt lat="42.259234" lon="-4.383923">
        <ele>842.0692378217354</ele>
        <time>2022-05-17T08:32:28Z</time>
      </trkpt>
      <trkpt lat="42.259269" lon="-4.384053">
        <ele>840.6737887011841</ele>
        <time>2022-05-17T08:32:37Z</time>
      </trkpt>
      <trkpt lat="42.259304" lon="-4.384182">
        <ele>841.7228701878339</ele>
        <time>2022-05-17T08:32:44Z</time>
      </trkpt>
      <trkpt lat="42.259345" lon="-4.384309">
        <ele>843.8114579990506</ele>
        <time>2022-05-17T08:32:52Z</time>
      </trkpt>
      <trkpt lat="42.259367" lon="-4.384442">
        <ele>843.1427045119926</ele>
        <time>2022-05-17T08:32:58Z</time>
      </trkpt>
      <trkpt lat="42.259386" lon="-4.384572">
        <ele>842.4797158185393</ele>
        <time>2022-05-17T08:33:05Z</time>
      </trkpt>
      <trkpt lat="42.259435" lon="-4.384694">
        <ele>845.958871519193</ele>
        <time>2022-05-17T08:33:14Z</time>
      </trkpt>
      <trkpt lat="42.259487" lon="-4.384797">
        <ele>848.3179602902383</ele>
        <time>2022-05-17T08:33:22Z</time>
      </trkpt>
      <trkpt lat="42.259529" lon="-4.38491">
        <ele>849.5397174097598</ele>
        <time>2022-05-17T08:33:56Z</time>
      </trkpt>
      <trkpt lat="42.259565" lon="-4.385026">
        <ele>849.0244468525052</ele>
        <time>2022-05-17T08:34:03Z</time>
      </trkpt>
      <trkpt lat="42.259597" lon="-4.38515">
        <ele>847.8580783363432</ele>
        <time>2022-05-17T08:34:11Z</time>
      </trkpt>
      <trkpt lat="42.259634" lon="-4.385281">
        <ele>847.9975866880268</ele>
        <time>2022-05-17T08:34:20Z</time>
      </trkpt>
      <trkpt lat="42.259679" lon="-4.385403">
        <ele>847.5674095582217</ele>
        <time>2022-05-17T08:34:28Z</time>
      </trkpt>
      <trkpt lat="42.259711" lon="-4.385519">
        <ele>846.8603866631165</ele>
        <time>2022-05-17T08:34:35Z</time>
      </trkpt>
      <trkpt lat="42.259746" lon="-4.385639">
        <ele>845.5603833561763</ele>
        <time>2022-05-17T08:34:50Z</time>
      </trkpt>
      <trkpt lat="42.259785" lon="-4.385751">
        <ele>844.3989819996059</ele>
        <time>2022-05-17T08:34:58Z</time>
      </trkpt>
      <trkpt lat="42.259851" lon="-4.385839">
        <ele>844.7527125179768</ele>
        <time>2022-05-17T08:35:05Z</time>
      </trkpt>
      <trkpt lat="42.259947" lon="-4.385889">
        <ele>845.530650892295</ele>
        <time>2022-05-17T08:35:31Z</time>
      </trkpt>
      <trkpt lat="42.26003" lon="-4.385949">
        <ele>845.736541912891</ele>
        <time>2022-05-17T08:35:38Z</time>
      </trkpt>
      <trkpt lat="42.260098" lon="-4.386036">
        <ele>845.1295173531398</ele>
        <time>2022-05-17T08:35:44Z</time>
      </trkpt>
      <trkpt lat="42.260186" lon="-4.386097">
        <ele>844.2783961994573</ele>
        <time>2022-05-17T08:35:51Z</time>
      </trkpt>
      <trkpt lat="42.260264" lon="-4.386164">
        <ele>843.3382959291339</ele>
        <time>2022-05-17T08:35:58Z</time>
      </trkpt>
      <trkpt lat="42.260342" lon="-4.38623">
        <ele>843.0638334825635</ele>
        <time>2022-05-17T08:36:04Z</time>
      </trkpt>
      <trkpt lat="42.260431" lon="-4.386291">
        <ele>844.4715702943504</ele>
        <time>2022-05-17T08:36:12Z</time>
      </trkpt>
      <trkpt lat="42.260518" lon="-4.386333">
        <ele>846.5903319614008</ele>
        <time>2022-05-17T08:36:19Z</time>
      </trkpt>
      <trkpt lat="42.260603" lon="-4.386413">
        <ele>846.2609968082979</ele>
        <time>2022-05-17T08:36:26Z</time>
      </trkpt>
      <trkpt lat="42.260697" lon="-4.386499">
        <ele>847.9984013698995</ele>
        <time>2022-05-17T08:36:33Z</time>
      </trkpt>
      <trkpt lat="42.260775" lon="-4.386569">
        <ele>848.5528335794806</ele>
        <time>2022-05-17T08:36:39Z</time>
      </trkpt>
      <trkpt lat="42.260864" lon="-4.386653">
        <ele>848.3057719571516</ele>
        <time>2022-05-17T08:36:46Z</time>
      </trkpt>
      <trkpt lat="42.260932" lon="-4.386733">
        <ele>847.9928040029481</ele>
        <time>2022-05-17T08:36:52Z</time>
      </trkpt>
      <trkpt lat="42.261001" lon="-4.386828">
        <ele>847.7634732816368</ele>
        <time>2022-05-17T08:37:00Z</time>
      </trkpt>
      <trkpt lat="42.26108" lon="-4.386891">
        <ele>847.367371792905</ele>
        <time>2022-05-17T08:37:07Z</time>
      </trkpt>
      <trkpt lat="42.26116" lon="-4.386951">
        <ele>848.8996958974749</ele>
        <time>2022-05-17T08:37:14Z</time>
      </trkpt>
      <trkpt lat="42.261244" lon="-4.387029">
        <ele>847.5609275745228</ele>
        <time>2022-05-17T08:37:21Z</time>
      </trkpt>
      <trkpt lat="42.261334" lon="-4.38709">
        <ele>847.1657333886251</ele>
        <time>2022-05-17T08:37:28Z</time>
      </trkpt>
      <trkpt lat="42.261399" lon="-4.387181">
        <ele>847.6358708078042</ele>
        <time>2022-05-17T08:37:35Z</time>
      </trkpt>
      <trkpt lat="42.261484" lon="-4.387231">
        <ele>847.4900516150519</ele>
        <time>2022-05-17T08:37:42Z</time>
      </trkpt>
      <trkpt lat="42.261565" lon="-4.387294">
        <ele>847.4926891280338</ele>
        <time>2022-05-17T08:37:49Z</time>
      </trkpt>
      <trkpt lat="42.261652" lon="-4.387366">
        <ele>846.7844605576247</ele>
        <time>2022-05-17T08:37:57Z</time>
      </trkpt>
      <trkpt lat="42.261735" lon="-4.387415">
        <ele>847.0565489539877</ele>
        <time>2022-05-17T08:38:04Z</time>
      </trkpt>
      <trkpt lat="42.261819" lon="-4.387466">
        <ele>849.3179230866954</ele>
        <time>2022-05-17T08:38:11Z</time>
      </trkpt>
      <trkpt lat="42.261912" lon="-4.387517">
        <ele>850.9092855295166</ele>
        <time>2022-05-17T08:38:18Z</time>
      </trkpt>
      <trkpt lat="42.261995" lon="-4.387569">
        <ele>850.9770369837061</ele>
        <time>2022-05-17T08:38:24Z</time>
      </trkpt>
      <trkpt lat="42.262089" lon="-4.387657">
        <ele>849.1879833126441</ele>
        <time>2022-05-17T08:38:32Z</time>
      </trkpt>
      <trkpt lat="42.26217" lon="-4.387729">
        <ele>849.6274011582136</ele>
        <time>2022-05-17T08:38:39Z</time>
      </trkpt>
      <trkpt lat="42.262252" lon="-4.387806">
        <ele>850.0453104348853</ele>
        <time>2022-05-17T08:38:47Z</time>
      </trkpt>
      <trkpt lat="42.262322" lon="-4.387893">
        <ele>850.5452695162967</ele>
        <time>2022-05-17T08:38:53Z</time>
      </trkpt>
      <trkpt lat="42.262399" lon="-4.387959">
        <ele>851.5971451895311</ele>
        <time>2022-05-17T08:39:00Z</time>
      </trkpt>
      <trkpt lat="42.26248" lon="-4.388031">
        <ele>852.5398980965838</ele>
        <time>2022-05-17T08:39:09Z</time>
      </trkpt>
      <trkpt lat="42.262553" lon="-4.388114">
        <ele>853.2614334244281</ele>
        <time>2022-05-17T08:39:16Z</time>
      </trkpt>
      <trkpt lat="42.262637" lon="-4.388183">
        <ele>855.0480618616566</ele>
        <time>2022-05-17T08:39:23Z</time>
      </trkpt>
      <trkpt lat="42.262725" lon="-4.388244">
        <ele>855.7574008991942</ele>
        <time>2022-05-17T08:39:30Z</time>
      </trkpt>
      <trkpt lat="42.26281" lon="-4.388298">
        <ele>856.143598315306</ele>
        <time>2022-05-17T08:39:37Z</time>
      </trkpt>
      <trkpt lat="42.262893" lon="-4.388353">
        <ele>856.11873509828</ele>
        <time>2022-05-17T08:39:44Z</time>
      </trkpt>
      <trkpt lat="42.262963" lon="-4.388447">
        <ele>854.6154186474159</ele>
        <time>2022-05-17T08:39:51Z</time>
      </trkpt>
      <trkpt lat="42.263034" lon="-4.388546">
        <ele>854.327693448402</ele>
        <time>2022-05-17T08:40:07Z</time>
      </trkpt>
      <trkpt lat="42.26309" lon="-4.388658">
        <ele>852.364956997335</ele>
        <time>2022-05-17T08:40:13Z</time>
      </trkpt>
      <trkpt lat="42.263122" lon="-4.388778">
        <ele>852.0496225953102</ele>
        <time>2022-05-17T08:40:20Z</time>
      </trkpt>
      <trkpt lat="42.263164" lon="-4.388894">
        <ele>850.0301636168733</ele>
        <time>2022-05-17T08:40:26Z</time>
      </trkpt>
      <trkpt lat="42.263212" lon="-4.389026">
        <ele>847.4683428471908</ele>
        <time>2022-05-17T08:40:32Z</time>
      </trkpt>
      <trkpt lat="42.263269" lon="-4.389135">
        <ele>845.9735078699887</ele>
        <time>2022-05-17T08:40:38Z</time>
      </trkpt>
      <trkpt lat="42.26329" lon="-4.389253">
        <ele>843.3363837767392</ele>
        <time>2022-05-17T08:40:44Z</time>
      </trkpt>
      <trkpt lat="42.263325" lon="-4.389378">
        <ele>841.3220863118768</ele>
        <time>2022-05-17T08:40:52Z</time>
      </trkpt>
      <trkpt lat="42.263355" lon="-4.389493">
        <ele>839.7484154999256</ele>
        <time>2022-05-17T08:40:59Z</time>
      </trkpt>
      <trkpt lat="42.263391" lon="-4.389619">
        <ele>838.2678065774962</ele>
        <time>2022-05-17T08:41:06Z</time>
      </trkpt>
      <trkpt lat="42.263425" lon="-4.389737">
        <ele>836.7650477830321</ele>
        <time>2022-05-17T08:41:11Z</time>
      </trkpt>
      <trkpt lat="42.263459" lon="-4.389857">
        <ele>836.9602633174509</ele>
        <time>2022-05-17T08:41:17Z</time>
      </trkpt>
      <trkpt lat="42.263488" lon="-4.389982">
        <ele>838.5751675367355</ele>
        <time>2022-05-17T08:41:23Z</time>
      </trkpt>
      <trkpt lat="42.263523" lon="-4.390101">
        <ele>840.8601336563006</ele>
        <time>2022-05-17T08:41:30Z</time>
      </trkpt>
      <trkpt lat="42.263555" lon="-4.390216">
        <ele>840.8798067672178</ele>
        <time>2022-05-17T08:41:36Z</time>
      </trkpt>
      <trkpt lat="42.263586" lon="-4.390335">
        <ele>842.8018679460511</ele>
        <time>2022-05-17T08:41:43Z</time>
      </trkpt>
      <trkpt lat="42.263604" lon="-4.390458">
        <ele>844.5455560693517</ele>
        <time>2022-05-17T08:41:51Z</time>
      </trkpt>
      <trkpt lat="42.263625" lon="-4.3906">
        <ele>845.8634942788631</ele>
        <time>2022-05-17T08:41:58Z</time>
      </trkpt>
      <trkpt lat="42.263641" lon="-4.390741">
        <ele>847.9106872864068</ele>
        <time>2022-05-17T08:42:05Z</time>
      </trkpt>
      <trkpt lat="42.263657" lon="-4.390861">
        <ele>849.0588043769822</ele>
        <time>2022-05-17T08:42:11Z</time>
      </trkpt>
      <trkpt lat="42.263666" lon="-4.390995">
        <ele>848.998247269541</ele>
        <time>2022-05-17T08:42:17Z</time>
      </trkpt>
      <trkpt lat="42.263674" lon="-4.391118">
        <ele>849.8949809232727</ele>
        <time>2022-05-17T08:42:23Z</time>
      </trkpt>
      <trkpt lat="42.263702" lon="-4.391256">
        <ele>850.5846172627062</ele>
        <time>2022-05-17T08:42:31Z</time>
      </trkpt>
      <trkpt lat="42.263737" lon="-4.391374">
        <ele>850.7840682072565</ele>
        <time>2022-05-17T08:42:38Z</time>
      </trkpt>
      <trkpt lat="42.263762" lon="-4.391496">
        <ele>850.6614837674424</ele>
        <time>2022-05-17T08:42:44Z</time>
      </trkpt>
      <trkpt lat="42.263766" lon="-4.391625">
        <ele>849.023170216009</ele>
        <time>2022-05-17T08:42:50Z</time>
      </trkpt>
      <trkpt lat="42.263774" lon="-4.391749">
        <ele>850.1892439331859</ele>
        <time>2022-05-17T08:42:58Z</time>
      </trkpt>
      <trkpt lat="42.263775" lon="-4.39188">
        <ele>851.3214955925941</ele>
        <time>2022-05-17T08:43:07Z</time>
      </trkpt>
      <trkpt lat="42.263792" lon="-4.392">
        <ele>849.9936105748639</ele>
        <time>2022-05-17T08:43:14Z</time>
      </trkpt>
      <trkpt lat="42.263803" lon="-4.392121">
        <ele>850.1327434172854</ele>
        <time>2022-05-17T08:43:21Z</time>
      </trkpt>
      <trkpt lat="42.263816" lon="-4.392264">
        <ele>849.5530933486298</ele>
        <time>2022-05-17T08:43:28Z</time>
      </trkpt>
      <trkpt lat="42.263825" lon="-4.392399">
        <ele>848.2573301577941</ele>
        <time>2022-05-17T08:43:34Z</time>
      </trkpt>
      <trkpt lat="42.263842" lon="-4.39253">
        <ele>847.8117616428062</ele>
        <time>2022-05-17T08:43:40Z</time>
      </trkpt>
      <trkpt lat="42.263856" lon="-4.392657">
        <ele>846.3500069454312</ele>
        <time>2022-05-17T08:43:46Z</time>
      </trkpt>
      <trkpt lat="42.263886" lon="-4.392794">
        <ele>845.3467759387568</ele>
        <time>2022-05-17T08:43:53Z</time>
      </trkpt>
      <trkpt lat="42.263911" lon="-4.392932">
        <ele>846.8365264041349</ele>
        <time>2022-05-17T08:44:01Z</time>
      </trkpt>
      <trkpt lat="42.263943" lon="-4.393046">
        <ele>847.6730659911409</ele>
        <time>2022-05-17T08:44:07Z</time>
      </trkpt>
      <trkpt lat="42.26398" lon="-4.393167">
        <ele>847.6784848105162</ele>
        <time>2022-05-17T08:44:13Z</time>
      </trkpt>
      <trkpt lat="42.264004" lon="-4.393287">
        <ele>850.4118287237361</ele>
        <time>2022-05-17T08:44:21Z</time>
      </trkpt>
      <trkpt lat="42.264037" lon="-4.393408">
        <ele>850.5184312229976</ele>
        <time>2022-05-17T08:44:30Z</time>
      </trkpt>
      <trkpt lat="42.264036" lon="-4.393532">
        <ele>850.4137056292966</ele>
        <time>2022-05-17T08:44:38Z</time>
      </trkpt>
      <trkpt lat="42.264047" lon="-4.393663">
        <ele>850.2228927789256</ele>
        <time>2022-05-17T08:44:44Z</time>
      </trkpt>
      <trkpt lat="42.264062" lon="-4.393808">
        <ele>847.4565949104726</ele>
        <time>2022-05-17T08:44:50Z</time>
      </trkpt>
      <trkpt lat="42.264089" lon="-4.393931">
        <ele>845.3494697501883</ele>
        <time>2022-05-17T08:44:55Z</time>
      </trkpt>
      <trkpt lat="42.264106" lon="-4.394067">
        <ele>842.7264847485349</ele>
        <time>2022-05-17T08:45:01Z</time>
      </trkpt>
      <trkpt lat="42.264122" lon="-4.394195">
        <ele>841.759700300172</ele>
        <time>2022-05-17T08:45:08Z</time>
      </trkpt>
      <trkpt lat="42.264136" lon="-4.394328">
        <ele>838.760530536063</ele>
        <time>2022-05-17T08:45:14Z</time>
      </trkpt>
      <trkpt lat="42.264199" lon="-4.394438">
        <ele>837.6282943394035</ele>
        <time>2022-05-17T08:45:25Z</time>
      </trkpt>
      <trkpt lat="42.264253" lon="-4.394552">
        <ele>838.1914517423138</ele>
        <time>2022-05-17T08:45:31Z</time>
      </trkpt>
      <trkpt lat="42.264303" lon="-4.394678">
        <ele>839.3041662471369</ele>
        <time>2022-05-17T08:45:37Z</time>
      </trkpt>
      <trkpt lat="42.264322" lon="-4.39481">
        <ele>838.7958796089515</ele>
        <time>2022-05-17T08:45:42Z</time>
      </trkpt>
      <trkpt lat="42.264322" lon="-4.394936">
        <ele>836.4067683406174</ele>
        <time>2022-05-17T08:45:47Z</time>
      </trkpt>
      <trkpt lat="42.264332" lon="-4.395059">
        <ele>837.9039425840601</ele>
        <time>2022-05-17T08:45:55Z</time>
      </trkpt>
      <trkpt lat="42.264332" lon="-4.395192">
        <ele>838.7568777557462</ele>
        <time>2022-05-17T08:46:03Z</time>
      </trkpt>
      <trkpt lat="42.26436" lon="-4.39531">
        <ele>840.0050202142447</ele>
        <time>2022-05-17T08:46:11Z</time>
      </trkpt>
      <trkpt lat="42.26438" lon="-4.395446">
        <ele>837.5302475159988</ele>
        <time>2022-05-17T08:46:18Z</time>
      </trkpt>
      <trkpt lat="42.264406" lon="-4.39557">
        <ele>834.7587030753493</ele>
        <time>2022-05-17T08:46:24Z</time>
      </trkpt>
      <trkpt lat="42.264423" lon="-4.395694">
        <ele>833.8001004466787</ele>
        <time>2022-05-17T08:46:30Z</time>
      </trkpt>
      <trkpt lat="42.264462" lon="-4.395811">
        <ele>837.23984777648</ele>
        <time>2022-05-17T08:46:39Z</time>
      </trkpt>
      <trkpt lat="42.264476" lon="-4.395938">
        <ele>838.4260715721175</ele>
        <time>2022-05-17T08:46:49Z</time>
      </trkpt>
      <trkpt lat="42.26447" lon="-4.396059">
        <ele>838.2476408071816</ele>
        <time>2022-05-17T08:46:57Z</time>
      </trkpt>
      <trkpt lat="42.264501" lon="-4.39618">
        <ele>839.3778328718618</ele>
        <time>2022-05-17T08:47:06Z</time>
      </trkpt>
      <trkpt lat="42.264551" lon="-4.396301">
        <ele>838.3290272317827</ele>
        <time>2022-05-17T08:47:13Z</time>
      </trkpt>
      <trkpt lat="42.26456" lon="-4.396426">
        <ele>837.7850147262216</ele>
        <time>2022-05-17T08:47:21Z</time>
      </trkpt>
      <trkpt lat="42.264538" lon="-4.396559">
        <ele>836.5133515419438</ele>
        <time>2022-05-17T08:47:50Z</time>
      </trkpt>
      <trkpt lat="42.264557" lon="-4.396692">
        <ele>835.8457920243964</ele>
        <time>2022-05-17T08:47:58Z</time>
      </trkpt>
      <trkpt lat="42.264593" lon="-4.396805">
        <ele>834.8505666851997</ele>
        <time>2022-05-17T08:48:06Z</time>
      </trkpt>
      <trkpt lat="42.264625" lon="-4.396932">
        <ele>834.0965358950198</ele>
        <time>2022-05-17T08:48:15Z</time>
      </trkpt>
      <trkpt lat="42.26466" lon="-4.397046">
        <ele>832.7184335459024</ele>
        <time>2022-05-17T08:48:21Z</time>
      </trkpt>
      <trkpt lat="42.26473" lon="-4.39714">
        <ele>832.5630170768127</ele>
        <time>2022-05-17T08:48:28Z</time>
      </trkpt>
      <trkpt lat="42.264775" lon="-4.397267">
        <ele>831.1723939590156</ele>
        <time>2022-05-17T08:48:35Z</time>
      </trkpt>
      <trkpt lat="42.264786" lon="-4.397391">
        <ele>828.0449693044648</ele>
        <time>2022-05-17T08:48:41Z</time>
      </trkpt>
      <trkpt lat="42.264809" lon="-4.397511">
        <ele>826.640433004126</ele>
        <time>2022-05-17T08:48:50Z</time>
      </trkpt>
      <trkpt lat="42.264818" lon="-4.397632">
        <ele>826.5484945364296</ele>
        <time>2022-05-17T08:49:01Z</time>
      </trkpt>
      <trkpt lat="42.264848" lon="-4.397757">
        <ele>828.0286812176928</ele>
        <time>2022-05-17T08:50:17Z</time>
      </trkpt>
      <trkpt lat="42.264786" lon="-4.39786">
        <ele>827.2626561047509</ele>
        <time>2022-05-17T08:50:26Z</time>
      </trkpt>
      <trkpt lat="42.264747" lon="-4.398001">
        <ele>825.9669228857383</ele>
        <time>2022-05-17T08:50:31Z</time>
      </trkpt>
      <trkpt lat="42.264681" lon="-4.398088">
        <ele>826.6437829351053</ele>
        <time>2022-05-17T08:50:37Z</time>
      </trkpt>
      <trkpt lat="42.264576" lon="-4.398134">
        <ele>825.0056903166696</ele>
        <time>2022-05-17T08:50:45Z</time>
      </trkpt>
      <trkpt lat="42.264503" lon="-4.398227">
        <ele>823.0992045328021</ele>
        <time>2022-05-17T08:50:50Z</time>
      </trkpt>
      <trkpt lat="42.264426" lon="-4.398303">
        <ele>823.0772525863722</ele>
        <time>2022-05-17T08:51:06Z</time>
      </trkpt>
      <trkpt lat="42.264377" lon="-4.398423">
        <ele>821.6673242943361</ele>
        <time>2022-05-17T08:51:12Z</time>
      </trkpt>
      <trkpt lat="42.264298" lon="-4.398495">
        <ele>821.1940150689334</ele>
        <time>2022-05-17T08:51:25Z</time>
      </trkpt>
      <trkpt lat="42.264234" lon="-4.398618">
        <ele>820.2271033078432</ele>
        <time>2022-05-17T08:51:30Z</time>
      </trkpt>
      <trkpt lat="42.264143" lon="-4.398693">
        <ele>821.0308495350182</ele>
        <time>2022-05-17T08:51:36Z</time>
      </trkpt>
      <trkpt lat="42.264075" lon="-4.398786">
        <ele>820.3826908087358</ele>
        <time>2022-05-17T08:51:48Z</time>
      </trkpt>
      <trkpt lat="42.264004" lon="-4.398866">
        <ele>823.144539325498</ele>
        <time>2022-05-17T08:51:54Z</time>
      </trkpt>
      <trkpt lat="42.264003" lon="-4.398994">
        <ele>822.9799143867567</ele>
        <time>2022-05-17T08:53:54Z</time>
      </trkpt>
      <trkpt lat="42.26397" lon="-4.399113">
        <ele>830.1292716301978</ele>
        <time>2022-05-17T08:54:45Z</time>
      </trkpt>
      <trkpt lat="42.264066" lon="-4.399117">
        <ele>831.3003788292408</ele>
        <time>2022-05-17T08:55:19Z</time>
      </trkpt>
      <trkpt lat="42.264152" lon="-4.399053">
        <ele>832.8227369897068</ele>
        <time>2022-05-17T08:55:28Z</time>
      </trkpt>
      <trkpt lat="42.264235" lon="-4.398988">
        <ele>834.6465283958241</ele>
        <time>2022-05-17T08:55:38Z</time>
      </trkpt>
      <trkpt lat="42.264326" lon="-4.398979">
        <ele>836.3680441062897</ele>
        <time>2022-05-17T08:55:44Z</time>
      </trkpt>
      <trkpt lat="42.264399" lon="-4.399067">
        <ele>835.7486764006317</ele>
        <time>2022-05-17T08:55:52Z</time>
      </trkpt>
      <trkpt lat="42.264462" lon="-4.399157">
        <ele>835.2201881892979</ele>
        <time>2022-05-17T08:56:00Z</time>
      </trkpt>
      <trkpt lat="42.264522" lon="-4.399249">
        <ele>835.1294072344899</ele>
        <time>2022-05-17T08:56:08Z</time>
      </trkpt>
      <trkpt lat="42.26458" lon="-4.399342">
        <ele>835.9334514494985</ele>
        <time>2022-05-17T08:56:14Z</time>
      </trkpt>
      <trkpt lat="42.264651" lon="-4.39943">
        <ele>835.4657973516732</ele>
        <time>2022-05-17T08:56:21Z</time>
      </trkpt>
      <trkpt lat="42.264714" lon="-4.399527">
        <ele>834.0680355075747</ele>
        <time>2022-05-17T08:56:28Z</time>
      </trkpt>
      <trkpt lat="42.264773" lon="-4.399643">
        <ele>834.069743623957</ele>
        <time>2022-05-17T08:56:34Z</time>
      </trkpt>
      <trkpt lat="42.264846" lon="-4.399721">
        <ele>834.4140597302467</ele>
        <time>2022-05-17T08:56:41Z</time>
      </trkpt>
      <trkpt lat="42.264899" lon="-4.399819">
        <ele>834.4876618161798</ele>
        <time>2022-05-17T08:56:47Z</time>
      </trkpt>
      <trkpt lat="42.264968" lon="-4.399918">
        <ele>834.1630949173123</ele>
        <time>2022-05-17T08:56:55Z</time>
      </trkpt>
      <trkpt lat="42.265038" lon="-4.40002">
        <ele>835.7222342966124</ele>
        <time>2022-05-17T08:57:04Z</time>
      </trkpt>
      <trkpt lat="42.265097" lon="-4.400117">
        <ele>836.5783460224047</ele>
        <time>2022-05-17T08:57:10Z</time>
      </trkpt>
      <trkpt lat="42.265156" lon="-4.400215">
        <ele>836.3589063007385</ele>
        <time>2022-05-17T08:57:15Z</time>
      </trkpt>
      <trkpt lat="42.265229" lon="-4.400301">
        <ele>835.8592983484268</ele>
        <time>2022-05-17T08:57:25Z</time>
      </trkpt>
      <trkpt lat="42.265288" lon="-4.400395">
        <ele>837.3399486998096</ele>
        <time>2022-05-17T08:57:32Z</time>
      </trkpt>
      <trkpt lat="42.26532" lon="-4.400521">
        <ele>836.3955918354914</ele>
        <time>2022-05-17T08:57:38Z</time>
      </trkpt>
      <trkpt lat="42.2654" lon="-4.400599">
        <ele>834.9845632966608</ele>
        <time>2022-05-17T08:57:46Z</time>
      </trkpt>
      <trkpt lat="42.265489" lon="-4.400636">
        <ele>836.3142139781266</ele>
        <time>2022-05-17T08:57:52Z</time>
      </trkpt>
      <trkpt lat="42.26557" lon="-4.400707">
        <ele>837.4733129814267</ele>
        <time>2022-05-17T08:57:58Z</time>
      </trkpt>
      <trkpt lat="42.265653" lon="-4.400781">
        <ele>838.9664448807016</ele>
        <time>2022-05-17T08:58:06Z</time>
      </trkpt>
      <trkpt lat="42.265735" lon="-4.400843">
        <ele>839.9148283246905</ele>
        <time>2022-05-17T08:58:14Z</time>
      </trkpt>
      <trkpt lat="42.265816" lon="-4.400919">
        <ele>839.8671719888225</ele>
        <time>2022-05-17T08:58:22Z</time>
      </trkpt>
      <trkpt lat="42.265913" lon="-4.400962">
        <ele>838.189887127839</ele>
        <time>2022-05-17T08:58:29Z</time>
      </trkpt>
      <trkpt lat="42.266017" lon="-4.401012">
        <ele>836.9342159554362</ele>
        <time>2022-05-17T08:58:37Z</time>
      </trkpt>
      <trkpt lat="42.2661" lon="-4.401086">
        <ele>835.1928313504905</ele>
        <time>2022-05-17T08:58:43Z</time>
      </trkpt>
      <trkpt lat="42.266167" lon="-4.401173">
        <ele>833.3096516942605</ele>
        <time>2022-05-17T08:58:49Z</time>
      </trkpt>
      <trkpt lat="42.266209" lon="-4.401284">
        <ele>830.7931072367355</ele>
        <time>2022-05-17T08:58:57Z</time>
      </trkpt>
      <trkpt lat="42.266241" lon="-4.401401">
        <ele>829.2679041428491</ele>
        <time>2022-05-17T08:59:03Z</time>
      </trkpt>
      <trkpt lat="42.266237" lon="-4.401535">
        <ele>827.9084957493469</ele>
        <time>2022-05-17T08:59:10Z</time>
      </trkpt>
      <trkpt lat="42.266279" lon="-4.401647">
        <ele>827.0988676296547</ele>
        <time>2022-05-17T08:59:17Z</time>
      </trkpt>
      <trkpt lat="42.266303" lon="-4.401794">
        <ele>825.710759382695</ele>
        <time>2022-05-17T08:59:24Z</time>
      </trkpt>
      <trkpt lat="42.266438" lon="-4.401869">
        <ele>823.3959350241348</ele>
        <time>2022-05-17T08:59:28Z</time>
      </trkpt>
      <trkpt lat="42.266529" lon="-4.401897">
        <ele>823.6763986097649</ele>
        <time>2022-05-17T08:59:33Z</time>
      </trkpt>
      <trkpt lat="42.266571" lon="-4.402022">
        <ele>822.9689034586772</ele>
        <time>2022-05-17T08:59:38Z</time>
      </trkpt>
      <trkpt lat="42.26659" lon="-4.402167">
        <ele>821.411614713259</ele>
        <time>2022-05-17T08:59:46Z</time>
      </trkpt>
      <trkpt lat="42.266592" lon="-4.402302">
        <ele>821.6162559762597</ele>
        <time>2022-05-17T08:59:51Z</time>
      </trkpt>
      <trkpt lat="42.26657" lon="-4.40243">
        <ele>824.9839708209038</ele>
        <time>2022-05-17T08:59:58Z</time>
      </trkpt>
      <trkpt lat="42.266541" lon="-4.402559">
        <ele>822.5933299120516</ele>
        <time>2022-05-17T09:00:04Z</time>
      </trkpt>
      <trkpt lat="42.266517" lon="-4.402691">
        <ele>821.4193285312504</ele>
        <time>2022-05-17T09:00:11Z</time>
      </trkpt>
      <trkpt lat="42.266485" lon="-4.40282">
        <ele>820.3129850085825</ele>
        <time>2022-05-17T09:00:21Z</time>
      </trkpt>
      <trkpt lat="42.266471" lon="-4.402943">
        <ele>813.0075289597735</ele>
        <time>2022-05-17T09:00:31Z</time>
      </trkpt>
      <trkpt lat="42.266453" lon="-4.403067">
        <ele>816.216655254364</ele>
        <time>2022-05-17T09:00:49Z</time>
      </trkpt>
      <trkpt lat="42.266415" lon="-4.403189">
        <ele>817.1094701644033</ele>
        <time>2022-05-17T09:00:57Z</time>
      </trkpt>
      <trkpt lat="42.266386" lon="-4.403314">
        <ele>819.4446124853566</ele>
        <time>2022-05-17T09:01:07Z</time>
      </trkpt>
      <trkpt lat="42.266378" lon="-4.403436">
        <ele>819.8789546182379</ele>
        <time>2022-05-17T09:01:16Z</time>
      </trkpt>
      <trkpt lat="42.266389" lon="-4.403564">
        <ele>819.7144076162949</ele>
        <time>2022-05-17T09:01:23Z</time>
      </trkpt>
      <trkpt lat="42.266375" lon="-4.40369">
        <ele>820.4114578934386</ele>
        <time>2022-05-17T09:01:31Z</time>
      </trkpt>
      <trkpt lat="42.266376" lon="-4.403827">
        <ele>824.1447557238862</ele>
        <time>2022-05-17T09:01:40Z</time>
      </trkpt>
      <trkpt lat="42.266321" lon="-4.403939">
        <ele>829.3806164534763</ele>
        <time>2022-05-17T09:01:47Z</time>
      </trkpt>
      <trkpt lat="42.266292" lon="-4.404058">
        <ele>832.3925742162392</ele>
        <time>2022-05-17T09:01:54Z</time>
      </trkpt>
      <trkpt lat="42.266298" lon="-4.404181">
        <ele>833.709340822883</ele>
        <time>2022-05-17T09:02:01Z</time>
      </trkpt>
      <trkpt lat="42.266334" lon="-4.404305">
        <ele>834.1569283688441</ele>
        <time>2022-05-17T09:02:09Z</time>
      </trkpt>
      <trkpt lat="42.266342" lon="-4.404433">
        <ele>835.2959739873186</ele>
        <time>2022-05-17T09:02:17Z</time>
      </trkpt>
      <trkpt lat="42.266315" lon="-4.404563">
        <ele>837.8416813937947</ele>
        <time>2022-05-17T09:02:24Z</time>
      </trkpt>
      <trkpt lat="42.266309" lon="-4.404695">
        <ele>838.0785918766633</ele>
        <time>2022-05-17T09:02:32Z</time>
      </trkpt>
      <trkpt lat="42.2663" lon="-4.404836">
        <ele>839.8432808415964</ele>
        <time>2022-05-17T09:02:40Z</time>
      </trkpt>
      <trkpt lat="42.266317" lon="-4.404978">
        <ele>834.0722725028172</ele>
        <time>2022-05-17T09:02:46Z</time>
      </trkpt>
      <trkpt lat="42.266315" lon="-4.405125">
        <ele>827.8510392364115</ele>
        <time>2022-05-17T09:02:51Z</time>
      </trkpt>
      <trkpt lat="42.266294" lon="-4.405257">
        <ele>824.4807290807366</ele>
        <time>2022-05-17T09:02:57Z</time>
      </trkpt>
      <trkpt lat="42.266247" lon="-4.405374">
        <ele>822.6494484217837</ele>
        <time>2022-05-17T09:03:06Z</time>
      </trkpt>
      <trkpt lat="42.266241" lon="-4.405507">
        <ele>821.2861850336194</ele>
        <time>2022-05-17T09:03:17Z</time>
      </trkpt>
      <trkpt lat="42.266234" lon="-4.40563">
        <ele>819.5621509682387</ele>
        <time>2022-05-17T09:03:24Z</time>
      </trkpt>
      <trkpt lat="42.266225" lon="-4.405764">
        <ele>818.0653022062033</ele>
        <time>2022-05-17T09:03:32Z</time>
      </trkpt>
      <trkpt lat="42.266258" lon="-4.405881">
        <ele>820.4249297920614</ele>
        <time>2022-05-17T09:03:42Z</time>
      </trkpt>
      <trkpt lat="42.266282" lon="-4.406006">
        <ele>821.484560652636</ele>
        <time>2022-05-17T09:03:48Z</time>
      </trkpt>
      <trkpt lat="42.266216" lon="-4.406117">
        <ele>820.5136838499457</ele>
        <time>2022-05-17T09:03:58Z</time>
      </trkpt>
      <trkpt lat="42.266195" lon="-4.406246">
        <ele>819.2018319983035</ele>
        <time>2022-05-17T09:04:18Z</time>
      </trkpt>
      <trkpt lat="42.266286" lon="-4.406202">
        <ele>831.4475453086197</ele>
        <time>2022-05-17T09:07:26Z</time>
      </trkpt>
      <trkpt lat="42.266381" lon="-4.40616">
        <ele>832.7516164593399</ele>
        <time>2022-05-17T09:07:38Z</time>
      </trkpt>
      <trkpt lat="42.266483" lon="-4.406172">
        <ele>833.2822277238593</ele>
        <time>2022-05-17T09:07:45Z</time>
      </trkpt>
      <trkpt lat="42.266579" lon="-4.406192">
        <ele>833.4462407324463</ele>
        <time>2022-05-17T09:07:54Z</time>
      </trkpt>
      <trkpt lat="42.266678" lon="-4.40619">
        <ele>832.0219442686066</ele>
        <time>2022-05-17T09:08:03Z</time>
      </trkpt>
      <trkpt lat="42.266765" lon="-4.406231">
        <ele>831.8545930562541</ele>
        <time>2022-05-17T09:08:09Z</time>
      </trkpt>
      <trkpt lat="42.266846" lon="-4.406295">
        <ele>830.1003323486075</ele>
        <time>2022-05-17T09:08:31Z</time>
      </trkpt>
      <trkpt lat="42.266806" lon="-4.406421">
        <ele>828.9610894201323</ele>
        <time>2022-05-17T09:09:07Z</time>
      </trkpt>
      <trkpt lat="42.266769" lon="-4.406548">
        <ele>828.9673936739564</ele>
        <time>2022-05-17T09:09:35Z</time>
      </trkpt>
      <trkpt lat="42.266738" lon="-4.406677">
        <ele>827.4431940643117</ele>
        <time>2022-05-17T09:09:42Z</time>
      </trkpt>
      <trkpt lat="42.26669" lon="-4.406787">
        <ele>826.2948076380417</ele>
        <time>2022-05-17T09:09:50Z</time>
      </trkpt>
      <trkpt lat="42.266694" lon="-4.406911">
        <ele>824.1784635474905</ele>
        <time>2022-05-17T09:10:25Z</time>
      </trkpt>
      <trkpt lat="42.266737" lon="-4.407025">
        <ele>822.5348650384694</ele>
        <time>2022-05-17T09:10:30Z</time>
      </trkpt>
      <trkpt lat="42.266695" lon="-4.407141">
        <ele>822.5852327011526</ele>
        <time>2022-05-17T09:10:40Z</time>
      </trkpt>
      <trkpt lat="42.266722" lon="-4.407261">
        <ele>828.0058100111783</ele>
        <time>2022-05-17T09:10:49Z</time>
      </trkpt>
      <trkpt lat="42.266638" lon="-4.407189">
        <ele>828.1092345975339</ele>
        <time>2022-05-17T09:11:52Z</time>
      </trkpt>
      <trkpt lat="42.266622" lon="-4.407063">
        <ele>828.0119777210057</ele>
        <time>2022-05-17T09:12:02Z</time>
      </trkpt>
      <trkpt lat="42.266676" lon="-4.406965">
        <ele>828.9809591276571</ele>
        <time>2022-05-17T09:12:50Z</time>
      </trkpt>
      <trkpt lat="42.266765" lon="-4.406913">
        <ele>825.9154355144128</ele>
        <time>2022-05-17T09:13:28Z</time>
      </trkpt>
      <trkpt lat="42.266831" lon="-4.406806">
        <ele>822.5941535728052</ele>
        <time>2022-05-17T09:13:36Z</time>
      </trkpt>
      <trkpt lat="42.26689" lon="-4.40671">
        <ele>819.8312710523605</ele>
        <time>2022-05-17T09:13:43Z</time>
      </trkpt>
      <trkpt lat="42.266861" lon="-4.406593">
        <ele>822.4658982083201</ele>
        <time>2022-05-17T09:22:27Z</time>
      </trkpt>
      <trkpt lat="42.266772" lon="-4.40665">
        <ele>827.5134368594736</ele>
        <time>2022-05-17T09:36:03Z</time>
      </trkpt>
      <trkpt lat="42.266704" lon="-4.406736">
        <ele>827.2615132881328</ele>
        <time>2022-05-17T09:36:11Z</time>
      </trkpt>
      <trkpt lat="42.266663" lon="-4.406853">
        <ele>824.2125252075493</ele>
        <time>2022-05-17T09:36:20Z</time>
      </trkpt>
      <trkpt lat="42.266756" lon="-4.406887">
        <ele>821.4774276390672</ele>
        <time>2022-05-17T09:36:54Z</time>
      </trkpt>
      <trkpt lat="42.266712" lon="-4.407048">
        <ele>821.5822916533798</ele>
        <time>2022-05-17T09:37:18Z</time>
      </trkpt>
      <trkpt lat="42.266611" lon="-4.407132">
        <ele>821.5394696416333</ele>
        <time>2022-05-17T09:37:21Z</time>
      </trkpt>
      <trkpt lat="42.266721" lon="-4.407077">
        <ele>822.7154528656974</ele>
        <time>2022-05-17T09:38:08Z</time>
      </trkpt>
      <trkpt lat="42.266842" lon="-4.407282">
        <ele>823.6742843147367</ele>
        <time>2022-05-17T09:38:35Z</time>
      </trkpt>
      <trkpt lat="42.266811" lon="-4.407114">
        <ele>825.0535212447867</ele>
        <time>2022-05-17T09:38:41Z</time>
      </trkpt>
      <trkpt lat="42.266896" lon="-4.406875">
        <ele>822.8239003252238</ele>
        <time>2022-05-17T09:38:42Z</time>
      </trkpt>
      <trkpt lat="42.266942" lon="-4.406758">
        <ele>820.847699132748</ele>
        <time>2022-05-17T09:38:44Z</time>
      </trkpt>
      <trkpt lat="42.267018" lon="-4.406681">
        <ele>815.0478168465197</ele>
        <time>2022-05-17T09:38:50Z</time>
      </trkpt>
      <trkpt lat="42.266938" lon="-4.40675">
        <ele>815.2835897188634</ele>
        <time>2022-05-17T09:39:49Z</time>
      </trkpt>
      <trkpt lat="42.266903" lon="-4.406862">
        <ele>819.488486353308</ele>
        <time>2022-05-17T09:39:59Z</time>
      </trkpt>
      <trkpt lat="42.266813" lon="-4.406897">
        <ele>822.6056696875021</ele>
        <time>2022-05-17T09:40:33Z</time>
      </trkpt>
      <trkpt lat="42.266715" lon="-4.406894">
        <ele>825.0065715881065</ele>
        <time>2022-05-17T09:40:42Z</time>
      </trkpt>
      <trkpt lat="42.26681" lon="-4.40688">
        <ele>825.3936329940334</ele>
        <time>2022-05-17T09:40:52Z</time>
      </trkpt>
      <trkpt lat="42.266901" lon="-4.406956">
        <ele>826.7304667877033</ele>
        <time>2022-05-17T09:41:08Z</time>
      </trkpt>
      <trkpt lat="42.266993" lon="-4.406944">
        <ele>829.6659981608391</ele>
        <time>2022-05-17T09:41:21Z</time>
      </trkpt>
      <trkpt lat="42.26691" lon="-4.406993">
        <ele>839.9754271479324</ele>
        <time>2022-05-17T09:42:09Z</time>
      </trkpt>
      <trkpt lat="42.266868" lon="-4.407107">
        <ele>838.8530903868377</ele>
        <time>2022-05-17T09:42:16Z</time>
      </trkpt>
      <trkpt lat="42.266789" lon="-4.407183">
        <ele>838.1708395974711</ele>
        <time>2022-05-17T09:42:26Z</time>
      </trkpt>
      <trkpt lat="42.266786" lon="-4.407309">
        <ele>836.4067313224077</ele>
        <time>2022-05-17T09:42:46Z</time>
      </trkpt>
      <trkpt lat="42.266869" lon="-4.407242">
        <ele>832.3844453431666</ele>
        <time>2022-05-17T09:44:09Z</time>
      </trkpt>
      <trkpt lat="42.266779" lon="-4.407255">
        <ele>834.478127932176</ele>
        <time>2022-05-17T09:44:23Z</time>
      </trkpt>
      <trkpt lat="42.266798" lon="-4.407132">
        <ele>836.8751635970548</ele>
        <time>2022-05-17T09:44:49Z</time>
      </trkpt>
      <trkpt lat="42.266838" lon="-4.407015">
        <ele>837.7511754464358</ele>
        <time>2022-05-17T09:45:00Z</time>
      </trkpt>
      <trkpt lat="42.266795" lon="-4.406899">
        <ele>843.8044668864459</ele>
        <time>2022-05-17T09:45:09Z</time>
      </trkpt>
      <trkpt lat="42.2667" lon="-4.406941">
        <ele>839.0157673768699</ele>
        <time>2022-05-17T09:45:18Z</time>
      </trkpt>
      <trkpt lat="42.266777" lon="-4.407006">
        <ele>843.7372741056606</ele>
        <time>2022-05-17T09:45:39Z</time>
      </trkpt>
      <trkpt lat="42.266865" lon="-4.407037">
        <ele>845.1150715984404</ele>
        <time>2022-05-17T09:46:06Z</time>
      </trkpt>
      <trkpt lat="42.266906" lon="-4.406913">
        <ele>841.2064655069262</ele>
        <time>2022-05-17T09:46:20Z</time>
      </trkpt>
      <trkpt lat="42.266973" lon="-4.407018">
        <ele>836.5266013639048</ele>
        <time>2022-05-17T09:47:03Z</time>
      </trkpt>
      <trkpt lat="42.267026" lon="-4.407124">
        <ele>833.1872963756323</ele>
        <time>2022-05-17T09:47:08Z</time>
      </trkpt>
      <trkpt lat="42.266946" lon="-4.407032">
        <ele>813.8738717380911</ele>
        <time>2022-05-17T09:47:41Z</time>
      </trkpt>
      <trkpt lat="42.26685" lon="-4.406957">
        <ele>814.7764695221558</ele>
        <time>2022-05-17T09:47:58Z</time>
      </trkpt>
      <trkpt lat="42.26696" lon="-4.407009">
        <ele>817.4180827401578</ele>
        <time>2022-05-17T09:48:09Z</time>
      </trkpt>
      <trkpt lat="42.266897" lon="-4.406897">
        <ele>818.3705700831488</ele>
        <time>2022-05-17T09:48:15Z</time>
      </trkpt>
      <trkpt lat="42.266952" lon="-4.407044">
        <ele>834.5676291938871</ele>
        <time>2022-05-17T09:49:16Z</time>
      </trkpt>
      <trkpt lat="42.266953" lon="-4.407168">
        <ele>841.5245155589655</ele>
        <time>2022-05-17T09:49:27Z</time>
      </trkpt>
      <trkpt lat="42.266917" lon="-4.40704">
        <ele>833.206292080693</ele>
        <time>2022-05-17T09:49:51Z</time>
      </trkpt>
      <trkpt lat="42.266828" lon="-4.406955">
        <ele>830.9351766444743</ele>
        <time>2022-05-17T09:49:54Z</time>
      </trkpt>
      <trkpt lat="42.266842" lon="-4.40683">
        <ele>829.0937440535054</ele>
        <time>2022-05-17T09:50:10Z</time>
      </trkpt>
      <trkpt lat="42.266934" lon="-4.406801">
        <ele>833.9920349242166</ele>
        <time>2022-05-17T09:50:44Z</time>
      </trkpt>
      <trkpt lat="42.266874" lon="-4.406908">
        <ele>844.5645779669285</ele>
        <time>2022-05-17T09:53:00Z</time>
      </trkpt>
      <trkpt lat="42.266851" lon="-4.407028">
        <ele>840.7741900580004</ele>
        <time>2022-05-17T09:53:07Z</time>
      </trkpt>
      <trkpt lat="42.266808" lon="-4.406918">
        <ele>838.7339862631634</ele>
        <time>2022-05-17T09:53:30Z</time>
      </trkpt>
      <trkpt lat="42.266835" lon="-4.406801">
        <ele>837.4056073324755</ele>
        <time>2022-05-17T09:53:40Z</time>
      </trkpt>
      <trkpt lat="42.266824" lon="-4.406675">
        <ele>837.2452208716422</ele>
        <time>2022-05-17T09:53:48Z</time>
      </trkpt>
      <trkpt lat="42.266804" lon="-4.406555">
        <ele>839.0639315089211</ele>
        <time>2022-05-17T09:54:04Z</time>
      </trkpt>
      <trkpt lat="42.266705" lon="-4.406539">
        <ele>840.7400803212076</ele>
        <time>2022-05-17T09:54:16Z</time>
      </trkpt>
      <trkpt lat="42.26661" lon="-4.406514">
        <ele>843.8038479508832</ele>
        <time>2022-05-17T09:54:27Z</time>
      </trkpt>
      <trkpt lat="42.266516" lon="-4.406517">
        <ele>846.4977488517761</ele>
        <time>2022-05-17T09:54:41Z</time>
      </trkpt>
      <trkpt lat="42.266417" lon="-4.40653">
        <ele>846.6389640970156</ele>
        <time>2022-05-17T09:54:50Z</time>
      </trkpt>
      <trkpt lat="42.266327" lon="-4.406569">
        <ele>843.1947324844077</ele>
        <time>2022-05-17T09:54:57Z</time>
      </trkpt>
      <trkpt lat="42.266293" lon="-4.406684">
        <ele>839.9007929004729</ele>
        <time>2022-05-17T09:55:03Z</time>
      </trkpt>
      <trkpt lat="42.2662" lon="-4.406734">
        <ele>839.6260864138603</ele>
        <time>2022-05-17T09:55:09Z</time>
      </trkpt>
      <trkpt lat="42.266112" lon="-4.406793">
        <ele>840.1288119154051</ele>
        <time>2022-05-17T09:55:16Z</time>
      </trkpt>
      <trkpt lat="42.266032" lon="-4.40685">
        <ele>837.5780797610059</ele>
        <time>2022-05-17T09:55:25Z</time>
      </trkpt>
      <trkpt lat="42.265955" lon="-4.406937">
        <ele>834.8874802906066</ele>
        <time>2022-05-17T09:55:32Z</time>
      </trkpt>
      <trkpt lat="42.265869" lon="-4.407006">
        <ele>834.049796669744</ele>
        <time>2022-05-17T09:55:38Z</time>
      </trkpt>
      <trkpt lat="42.265782" lon="-4.40704">
        <ele>832.4065383290872</ele>
        <time>2022-05-17T09:55:44Z</time>
      </trkpt>
      <trkpt lat="42.26571" lon="-4.407133">
        <ele>829.0492003699765</ele>
        <time>2022-05-17T09:55:50Z</time>
      </trkpt>
      <trkpt lat="42.265642" lon="-4.40722">
        <ele>828.5669362330809</ele>
        <time>2022-05-17T09:55:57Z</time>
      </trkpt>
      <trkpt lat="42.265581" lon="-4.407322">
        <ele>826.4451955417171</ele>
        <time>2022-05-17T09:56:06Z</time>
      </trkpt>
      <trkpt lat="42.265527" lon="-4.407429">
        <ele>826.0574340689927</ele>
        <time>2022-05-17T09:56:14Z</time>
      </trkpt>
      <trkpt lat="42.265472" lon="-4.407542">
        <ele>825.9387088157237</ele>
        <time>2022-05-17T09:56:22Z</time>
      </trkpt>
      <trkpt lat="42.265427" lon="-4.407657">
        <ele>827.462275672704</ele>
        <time>2022-05-17T09:56:30Z</time>
      </trkpt>
      <trkpt lat="42.265392" lon="-4.407771">
        <ele>829.2820746395737</ele>
        <time>2022-05-17T09:56:39Z</time>
      </trkpt>
      <trkpt lat="42.265378" lon="-4.407906">
        <ele>829.5832468699664</ele>
        <time>2022-05-17T09:56:49Z</time>
      </trkpt>
      <trkpt lat="42.265368" lon="-4.408032">
        <ele>829.3923209197819</ele>
        <time>2022-05-17T09:56:57Z</time>
      </trkpt>
      <trkpt lat="42.265354" lon="-4.408165">
        <ele>828.857064739801</ele>
        <time>2022-05-17T09:57:10Z</time>
      </trkpt>
      <trkpt lat="42.265336" lon="-4.408287">
        <ele>828.9079346070066</ele>
        <time>2022-05-17T09:57:18Z</time>
      </trkpt>
      <trkpt lat="42.265347" lon="-4.408416">
        <ele>829.3626695619896</ele>
        <time>2022-05-17T09:57:25Z</time>
      </trkpt>
      <trkpt lat="42.26535" lon="-4.408546">
        <ele>831.9778831331059</ele>
        <time>2022-05-17T09:57:35Z</time>
      </trkpt>
      <trkpt lat="42.265346" lon="-4.408679">
        <ele>833.7696344088763</ele>
        <time>2022-05-17T09:57:43Z</time>
      </trkpt>
      <trkpt lat="42.265331" lon="-4.408811">
        <ele>834.3156381761655</ele>
        <time>2022-05-17T09:57:51Z</time>
      </trkpt>
      <trkpt lat="42.265319" lon="-4.408942">
        <ele>834.1101449970156</ele>
        <time>2022-05-17T09:57:59Z</time>
      </trkpt>
      <trkpt lat="42.265304" lon="-4.409067">
        <ele>835.0239015603438</ele>
        <time>2022-05-17T09:58:09Z</time>
      </trkpt>
      <trkpt lat="42.265307" lon="-4.409197">
        <ele>834.9458295078948</ele>
        <time>2022-05-17T09:58:19Z</time>
      </trkpt>
      <trkpt lat="42.265297" lon="-4.409317">
        <ele>832.4613254303113</ele>
        <time>2022-05-17T09:58:28Z</time>
      </trkpt>
      <trkpt lat="42.265284" lon="-4.409446">
        <ele>831.4054176174104</ele>
        <time>2022-05-17T09:58:37Z</time>
      </trkpt>
      <trkpt lat="42.265248" lon="-4.409565">
        <ele>832.4400382433087</ele>
        <time>2022-05-17T09:58:45Z</time>
      </trkpt>
      <trkpt lat="42.265254" lon="-4.409687">
        <ele>833.4093212550506</ele>
        <time>2022-05-17T09:58:53Z</time>
      </trkpt>
      <trkpt lat="42.265256" lon="-4.40982">
        <ele>834.6737524997443</ele>
        <time>2022-05-17T09:59:01Z</time>
      </trkpt>
      <trkpt lat="42.265253" lon="-4.409952">
        <ele>832.5010218638927</ele>
        <time>2022-05-17T09:59:13Z</time>
      </trkpt>
      <trkpt lat="42.265229" lon="-4.410069">
        <ele>830.7305004345253</ele>
        <time>2022-05-17T09:59:22Z</time>
      </trkpt>
      <trkpt lat="42.265232" lon="-4.410195">
        <ele>831.052002443932</ele>
        <time>2022-05-17T09:59:29Z</time>
      </trkpt>
      <trkpt lat="42.265231" lon="-4.410319">
        <ele>830.5363622102886</ele>
        <time>2022-05-17T09:59:38Z</time>
      </trkpt>
      <trkpt lat="42.265237" lon="-4.41045">
        <ele>831.5388691229746</ele>
        <time>2022-05-17T09:59:47Z</time>
      </trkpt>
      <trkpt lat="42.265218" lon="-4.410574">
        <ele>831.5067554414272</ele>
        <time>2022-05-17T09:59:55Z</time>
      </trkpt>
      <trkpt lat="42.265222" lon="-4.410707">
        <ele>830.9135986184701</ele>
        <time>2022-05-17T10:00:04Z</time>
      </trkpt>
      <trkpt lat="42.265213" lon="-4.410842">
        <ele>830.0422260984778</ele>
        <time>2022-05-17T10:00:12Z</time>
      </trkpt>
      <trkpt lat="42.265193" lon="-4.410964">
        <ele>827.7660732474178</ele>
        <time>2022-05-17T10:00:19Z</time>
      </trkpt>
      <trkpt lat="42.265172" lon="-4.411091">
        <ele>824.6058759298176</ele>
        <time>2022-05-17T10:00:26Z</time>
      </trkpt>
      <trkpt lat="42.265179" lon="-4.411224">
        <ele>824.743097929284</ele>
        <time>2022-05-17T10:00:33Z</time>
      </trkpt>
      <trkpt lat="42.265175" lon="-4.411348">
        <ele>826.4877021973953</ele>
        <time>2022-05-17T10:00:40Z</time>
      </trkpt>
      <trkpt lat="42.265175" lon="-4.411481">
        <ele>826.3104578703642</ele>
        <time>2022-05-17T10:00:48Z</time>
      </trkpt>
      <trkpt lat="42.265177" lon="-4.411602">
        <ele>827.8077205056325</ele>
        <time>2022-05-17T10:00:54Z</time>
      </trkpt>
      <trkpt lat="42.265157" lon="-4.41175">
        <ele>831.4811916630715</ele>
        <time>2022-05-17T10:01:02Z</time>
      </trkpt>
      <trkpt lat="42.265152" lon="-4.411879">
        <ele>834.4100256385282</ele>
        <time>2022-05-17T10:01:11Z</time>
      </trkpt>
      <trkpt lat="42.265151" lon="-4.412002">
        <ele>837.8060885043815</ele>
        <time>2022-05-17T10:01:19Z</time>
      </trkpt>
      <trkpt lat="42.265162" lon="-4.412127">
        <ele>836.7899363050237</ele>
        <time>2022-05-17T10:01:29Z</time>
      </trkpt>
      <trkpt lat="42.265173" lon="-4.412259">
        <ele>837.7666786471382</ele>
        <time>2022-05-17T10:01:37Z</time>
      </trkpt>
      <trkpt lat="42.26516" lon="-4.412392">
        <ele>838.0869328100234</ele>
        <time>2022-05-17T10:01:45Z</time>
      </trkpt>
      <trkpt lat="42.265149" lon="-4.41252">
        <ele>838.4135406687856</ele>
        <time>2022-05-17T10:01:53Z</time>
      </trkpt>
      <trkpt lat="42.265135" lon="-4.412652">
        <ele>838.8620304334909</ele>
        <time>2022-05-17T10:02:01Z</time>
      </trkpt>
      <trkpt lat="42.265112" lon="-4.412775">
        <ele>839.9835730884224</ele>
        <time>2022-05-17T10:02:09Z</time>
      </trkpt>
      <trkpt lat="42.265096" lon="-4.412912">
        <ele>839.4355120556429</ele>
        <time>2022-05-17T10:02:17Z</time>
      </trkpt>
      <trkpt lat="42.265088" lon="-4.413043">
        <ele>838.2859697975218</ele>
        <time>2022-05-17T10:02:24Z</time>
      </trkpt>
      <trkpt lat="42.265072" lon="-4.413164">
        <ele>837.280916611664</ele>
        <time>2022-05-17T10:02:32Z</time>
      </trkpt>
      <trkpt lat="42.265066" lon="-4.413297">
        <ele>837.5628341287374</ele>
        <time>2022-05-17T10:02:40Z</time>
      </trkpt>
      <trkpt lat="42.265051" lon="-4.413418">
        <ele>837.2383635183796</ele>
        <time>2022-05-17T10:02:48Z</time>
      </trkpt>
      <trkpt lat="42.265051" lon="-4.413554">
        <ele>836.9265538398176</ele>
        <time>2022-05-17T10:02:56Z</time>
      </trkpt>
      <trkpt lat="42.265066" lon="-4.413687">
        <ele>836.745937093161</ele>
        <time>2022-05-17T10:03:04Z</time>
      </trkpt>
      <trkpt lat="42.265106" lon="-4.413799">
        <ele>836.1625259984285</ele>
        <time>2022-05-17T10:03:11Z</time>
      </trkpt>
      <trkpt lat="42.26512" lon="-4.413923">
        <ele>836.3734523281455</ele>
        <time>2022-05-17T10:03:19Z</time>
      </trkpt>
      <trkpt lat="42.265143" lon="-4.414056">
        <ele>835.6361659038812</ele>
        <time>2022-05-17T10:03:27Z</time>
      </trkpt>
      <trkpt lat="42.2652" lon="-4.414168">
        <ele>836.1531513808295</ele>
        <time>2022-05-17T10:03:35Z</time>
      </trkpt>
      <trkpt lat="42.265257" lon="-4.414264">
        <ele>836.5258050011471</ele>
        <time>2022-05-17T10:03:43Z</time>
      </trkpt>
      <trkpt lat="42.265328" lon="-4.41438">
        <ele>838.7140960283577</ele>
        <time>2022-05-17T10:03:52Z</time>
      </trkpt>
      <trkpt lat="42.265387" lon="-4.414486">
        <ele>838.5331430416554</ele>
        <time>2022-05-17T10:03:59Z</time>
      </trkpt>
      <trkpt lat="42.265398" lon="-4.414619">
        <ele>837.1424423689023</ele>
        <time>2022-05-17T10:04:08Z</time>
      </trkpt>
      <trkpt lat="42.265367" lon="-4.414743">
        <ele>836.7577188871801</ele>
        <time>2022-05-17T10:04:16Z</time>
      </trkpt>
      <trkpt lat="42.265331" lon="-4.414867">
        <ele>839.2758639985695</ele>
        <time>2022-05-17T10:04:24Z</time>
      </trkpt>
      <trkpt lat="42.265262" lon="-4.414947">
        <ele>840.3089136099443</ele>
        <time>2022-05-17T10:04:34Z</time>
      </trkpt>
      <trkpt lat="42.265205" lon="-4.415044">
        <ele>840.542525970377</ele>
        <time>2022-05-17T10:04:41Z</time>
      </trkpt>
      <trkpt lat="42.265173" lon="-4.415173">
        <ele>843.1277880491689</ele>
        <time>2022-05-17T10:04:51Z</time>
      </trkpt>
      <trkpt lat="42.265162" lon="-4.415305">
        <ele>839.4549142252654</ele>
        <time>2022-05-17T10:04:59Z</time>
      </trkpt>
      <trkpt lat="42.265173" lon="-4.415441">
        <ele>836.1989270346239</ele>
        <time>2022-05-17T10:05:08Z</time>
      </trkpt>
      <trkpt lat="42.265183" lon="-4.415562">
        <ele>834.3561666049063</ele>
        <time>2022-05-17T10:05:15Z</time>
      </trkpt>
      <trkpt lat="42.265193" lon="-4.415692">
        <ele>833.5520557425916</ele>
        <time>2022-05-17T10:05:23Z</time>
      </trkpt>
      <trkpt lat="42.265217" lon="-4.41582">
        <ele>831.9842312103137</ele>
        <time>2022-05-17T10:05:31Z</time>
      </trkpt>
      <trkpt lat="42.265204" lon="-4.415945">
        <ele>833.3217367436737</ele>
        <time>2022-05-17T10:05:42Z</time>
      </trkpt>
      <trkpt lat="42.265221" lon="-4.41607">
        <ele>833.1444555334747</ele>
        <time>2022-05-17T10:05:50Z</time>
      </trkpt>
      <trkpt lat="42.265243" lon="-4.416198">
        <ele>833.0935860592872</ele>
        <time>2022-05-17T10:05:58Z</time>
      </trkpt>
      <trkpt lat="42.265259" lon="-4.416325">
        <ele>833.310595376417</ele>
        <time>2022-05-17T10:06:06Z</time>
      </trkpt>
      <trkpt lat="42.265274" lon="-4.416446">
        <ele>831.684545205906</ele>
        <time>2022-05-17T10:06:14Z</time>
      </trkpt>
      <trkpt lat="42.265303" lon="-4.416568">
        <ele>831.7971774740145</ele>
        <time>2022-05-17T10:06:22Z</time>
      </trkpt>
      <trkpt lat="42.26532" lon="-4.416703">
        <ele>830.9554141312838</ele>
        <time>2022-05-17T10:06:30Z</time>
      </trkpt>
      <trkpt lat="42.265323" lon="-4.416835">
        <ele>830.4894149042666</ele>
        <time>2022-05-17T10:06:38Z</time>
      </trkpt>
      <trkpt lat="42.265336" lon="-4.416962">
        <ele>830.4658158523962</ele>
        <time>2022-05-17T10:06:46Z</time>
      </trkpt>
      <trkpt lat="42.265365" lon="-4.417084">
        <ele>830.7984722461551</ele>
        <time>2022-05-17T10:06:53Z</time>
      </trkpt>
      <trkpt lat="42.265385" lon="-4.417213">
        <ele>829.5433210572228</ele>
        <time>2022-05-17T10:07:01Z</time>
      </trkpt>
      <trkpt lat="42.265385" lon="-4.417342">
        <ele>828.2355376174673</ele>
        <time>2022-05-17T10:07:09Z</time>
      </trkpt>
      <trkpt lat="42.265422" lon="-4.417466">
        <ele>825.9818811723962</ele>
        <time>2022-05-17T10:07:17Z</time>
      </trkpt>
      <trkpt lat="42.265451" lon="-4.41759">
        <ele>824.6563076358289</ele>
        <time>2022-05-17T10:07:26Z</time>
      </trkpt>
      <trkpt lat="42.265481" lon="-4.417706">
        <ele>826.1649179477245</ele>
        <time>2022-05-17T10:07:33Z</time>
      </trkpt>
      <trkpt lat="42.265531" lon="-4.417811">
        <ele>828.3766687912866</ele>
        <time>2022-05-17T10:07:41Z</time>
      </trkpt>
      <trkpt lat="42.265608" lon="-4.417892">
        <ele>830.049111074768</ele>
        <time>2022-05-17T10:07:51Z</time>
      </trkpt>
      <trkpt lat="42.265672" lon="-4.417992">
        <ele>831.1234618555754</ele>
        <time>2022-05-17T10:07:59Z</time>
      </trkpt>
      <trkpt lat="42.265716" lon="-4.418105">
        <ele>830.2073691962287</ele>
        <time>2022-05-17T10:08:09Z</time>
      </trkpt>
      <trkpt lat="42.265744" lon="-4.418231">
        <ele>830.6722558047622</ele>
        <time>2022-05-17T10:08:16Z</time>
      </trkpt>
      <trkpt lat="42.265755" lon="-4.418368">
        <ele>830.7080447925255</ele>
        <time>2022-05-17T10:08:26Z</time>
      </trkpt>
      <trkpt lat="42.265746" lon="-4.418503">
        <ele>832.109945261851</ele>
        <time>2022-05-17T10:08:34Z</time>
      </trkpt>
      <trkpt lat="42.265684" lon="-4.418615">
        <ele>830.9182594474405</ele>
        <time>2022-05-17T10:08:42Z</time>
      </trkpt>
      <trkpt lat="42.265625" lon="-4.418715">
        <ele>831.7990206955001</ele>
        <time>2022-05-17T10:08:49Z</time>
      </trkpt>
      <trkpt lat="42.265553" lon="-4.418804">
        <ele>830.7525772461668</ele>
        <time>2022-05-17T10:08:56Z</time>
      </trkpt>
      <trkpt lat="42.265521" lon="-4.418927">
        <ele>831.3339559473097</ele>
        <time>2022-05-17T10:09:04Z</time>
      </trkpt>
      <trkpt lat="42.265535" lon="-4.419049">
        <ele>830.9146693833172</ele>
        <time>2022-05-17T10:09:12Z</time>
      </trkpt>
      <trkpt lat="42.265534" lon="-4.419171">
        <ele>829.1696635009721</ele>
        <time>2022-05-17T10:09:19Z</time>
      </trkpt>
      <trkpt lat="42.265542" lon="-4.419293">
        <ele>830.0290722278878</ele>
        <time>2022-05-17T10:09:26Z</time>
      </trkpt>
      <trkpt lat="42.265559" lon="-4.419415">
        <ele>830.2716240808368</ele>
        <time>2022-05-17T10:09:34Z</time>
      </trkpt>
      <trkpt lat="42.265576" lon="-4.419538">
        <ele>831.4619349399582</ele>
        <time>2022-05-17T10:09:45Z</time>
      </trkpt>
      <trkpt lat="42.265568" lon="-4.419666">
        <ele>829.3146377494559</ele>
        <time>2022-05-17T10:09:54Z</time>
      </trkpt>
      <trkpt lat="42.265581" lon="-4.41979">
        <ele>828.1089151464403</ele>
        <time>2022-05-17T10:10:03Z</time>
      </trkpt>
      <trkpt lat="42.265589" lon="-4.419924">
        <ele>826.587728459388</ele>
        <time>2022-05-17T10:10:12Z</time>
      </trkpt>
      <trkpt lat="42.265604" lon="-4.42005">
        <ele>826.4108381224796</ele>
        <time>2022-05-17T10:10:19Z</time>
      </trkpt>
      <trkpt lat="42.265615" lon="-4.420182">
        <ele>826.4857750367373</ele>
        <time>2022-05-17T10:10:28Z</time>
      </trkpt>
      <trkpt lat="42.26563" lon="-4.420303">
        <ele>824.8839093027636</ele>
        <time>2022-05-17T10:10:35Z</time>
      </trkpt>
      <trkpt lat="42.265645" lon="-4.420428">
        <ele>823.6715832343325</ele>
        <time>2022-05-17T10:10:42Z</time>
      </trkpt>
      <trkpt lat="42.26566" lon="-4.420564">
        <ele>824.431807724759</ele>
        <time>2022-05-17T10:11:01Z</time>
      </trkpt>
      <trkpt lat="42.265687" lon="-4.420697">
        <ele>826.4793489631265</ele>
        <time>2022-05-17T10:11:09Z</time>
      </trkpt>
      <trkpt lat="42.265705" lon="-4.420818">
        <ele>825.8057110961527</ele>
        <time>2022-05-17T10:11:17Z</time>
      </trkpt>
      <trkpt lat="42.265717" lon="-4.420943">
        <ele>823.7420348962769</ele>
        <time>2022-05-17T10:11:31Z</time>
      </trkpt>
      <trkpt lat="42.265741" lon="-4.421067">
        <ele>821.9830481633544</ele>
        <time>2022-05-17T10:11:39Z</time>
      </trkpt>
      <trkpt lat="42.265768" lon="-4.421198">
        <ele>818.9698305008933</ele>
        <time>2022-05-17T10:11:49Z</time>
      </trkpt>
      <trkpt lat="42.265854" lon="-4.421238">
        <ele>817.7798186978325</ele>
        <time>2022-05-17T10:12:27Z</time>
      </trkpt>
      <trkpt lat="42.265782" lon="-4.421324">
        <ele>818.0374223412946</ele>
        <time>2022-05-17T10:13:21Z</time>
      </trkpt>
      <trkpt lat="42.265735" lon="-4.421433">
        <ele>818.7482506847009</ele>
        <time>2022-05-17T10:13:30Z</time>
      </trkpt>
      <trkpt lat="42.265747" lon="-4.421559">
        <ele>819.9747978029773</ele>
        <time>2022-05-17T10:13:40Z</time>
      </trkpt>
      <trkpt lat="42.265782" lon="-4.421672">
        <ele>822.86879274901</ele>
        <time>2022-05-17T10:13:47Z</time>
      </trkpt>
      <trkpt lat="42.265809" lon="-4.421797">
        <ele>823.3519501360133</ele>
        <time>2022-05-17T10:13:54Z</time>
      </trkpt>
      <trkpt lat="42.265822" lon="-4.42193">
        <ele>824.3232717188075</ele>
        <time>2022-05-17T10:14:03Z</time>
      </trkpt>
      <trkpt lat="42.265837" lon="-4.422064">
        <ele>824.4689635233954</ele>
        <time>2022-05-17T10:14:11Z</time>
      </trkpt>
      <trkpt lat="42.265865" lon="-4.422193">
        <ele>824.230073348619</ele>
        <time>2022-05-17T10:14:19Z</time>
      </trkpt>
      <trkpt lat="42.265857" lon="-4.422323">
        <ele>823.7747288849205</ele>
        <time>2022-05-17T10:14:28Z</time>
      </trkpt>
      <trkpt lat="42.265864" lon="-4.422447">
        <ele>822.7006458984688</ele>
        <time>2022-05-17T10:14:35Z</time>
      </trkpt>
      <trkpt lat="42.265878" lon="-4.422567">
        <ele>823.3718092637137</ele>
        <time>2022-05-17T10:14:42Z</time>
      </trkpt>
      <trkpt lat="42.265896" lon="-4.422702">
        <ele>825.6352590546012</ele>
        <time>2022-05-17T10:14:49Z</time>
      </trkpt>
      <trkpt lat="42.265911" lon="-4.422833">
        <ele>826.9424079731107</ele>
        <time>2022-05-17T10:14:57Z</time>
      </trkpt>
      <trkpt lat="42.265929" lon="-4.422957">
        <ele>826.4526316644624</ele>
        <time>2022-05-17T10:15:05Z</time>
      </trkpt>
      <trkpt lat="42.265924" lon="-4.42309">
        <ele>824.7770456885919</ele>
        <time>2022-05-17T10:15:13Z</time>
      </trkpt>
      <trkpt lat="42.265937" lon="-4.423212">
        <ele>824.5753061538562</ele>
        <time>2022-05-17T10:15:21Z</time>
      </trkpt>
      <trkpt lat="42.265938" lon="-4.423336">
        <ele>822.8565436396748</ele>
        <time>2022-05-17T10:15:29Z</time>
      </trkpt>
      <trkpt lat="42.265957" lon="-4.423469">
        <ele>822.3619156908244</ele>
        <time>2022-05-17T10:15:36Z</time>
      </trkpt>
      <trkpt lat="42.265979" lon="-4.423605">
        <ele>823.8439752180129</ele>
        <time>2022-05-17T10:15:44Z</time>
      </trkpt>
      <trkpt lat="42.265986" lon="-4.423733">
        <ele>822.3621759861708</ele>
        <time>2022-05-17T10:15:52Z</time>
      </trkpt>
      <trkpt lat="42.26599" lon="-4.423858">
        <ele>821.8518739938736</ele>
        <time>2022-05-17T10:15:59Z</time>
      </trkpt>
      <trkpt lat="42.265987" lon="-4.423987">
        <ele>821.6343806851655</ele>
        <time>2022-05-17T10:16:07Z</time>
      </trkpt>
      <trkpt lat="42.266019" lon="-4.424115">
        <ele>821.7501363130286</ele>
        <time>2022-05-17T10:16:15Z</time>
      </trkpt>
      <trkpt lat="42.266046" lon="-4.424236">
        <ele>821.1849903650582</ele>
        <time>2022-05-17T10:16:23Z</time>
      </trkpt>
      <trkpt lat="42.266046" lon="-4.424374">
        <ele>820.3668079711497</ele>
        <time>2022-05-17T10:16:31Z</time>
      </trkpt>
      <trkpt lat="42.266056" lon="-4.424495">
        <ele>820.1760788774118</ele>
        <time>2022-05-17T10:16:38Z</time>
      </trkpt>
      <trkpt lat="42.266075" lon="-4.424626">
        <ele>820.0686533823609</ele>
        <time>2022-05-17T10:16:46Z</time>
      </trkpt>
      <trkpt lat="42.266093" lon="-4.424746">
        <ele>819.5100627671927</ele>
        <time>2022-05-17T10:16:53Z</time>
      </trkpt>
      <trkpt lat="42.266117" lon="-4.42487">
        <ele>819.5695936884731</ele>
        <time>2022-05-17T10:17:00Z</time>
      </trkpt>
      <trkpt lat="42.266141" lon="-4.425">
        <ele>820.9887300664559</ele>
        <time>2022-05-17T10:17:08Z</time>
      </trkpt>
      <trkpt lat="42.266166" lon="-4.425129">
        <ele>820.9202760141343</ele>
        <time>2022-05-17T10:17:16Z</time>
      </trkpt>
      <trkpt lat="42.266194" lon="-4.425258">
        <ele>822.2797111617401</ele>
        <time>2022-05-17T10:17:23Z</time>
      </trkpt>
      <trkpt lat="42.266202" lon="-4.425393">
        <ele>823.4890026664361</ele>
        <time>2022-05-17T10:17:31Z</time>
      </trkpt>
      <trkpt lat="42.266212" lon="-4.425528">
        <ele>823.8215415561572</ele>
        <time>2022-05-17T10:17:39Z</time>
      </trkpt>
      <trkpt lat="42.266224" lon="-4.425669">
        <ele>824.9909108877182</ele>
        <time>2022-05-17T10:17:47Z</time>
      </trkpt>
      <trkpt lat="42.266243" lon="-4.425794">
        <ele>826.3608585000038</ele>
        <time>2022-05-17T10:17:55Z</time>
      </trkpt>
      <trkpt lat="42.266274" lon="-4.425923">
        <ele>827.5751896202564</ele>
        <time>2022-05-17T10:18:03Z</time>
      </trkpt>
      <trkpt lat="42.266297" lon="-4.426059">
        <ele>828.5838601328433</ele>
        <time>2022-05-17T10:18:10Z</time>
      </trkpt>
      <trkpt lat="42.266304" lon="-4.426189">
        <ele>829.7416573604569</ele>
        <time>2022-05-17T10:18:17Z</time>
      </trkpt>
      <trkpt lat="42.266309" lon="-4.426318">
        <ele>830.1333271907642</ele>
        <time>2022-05-17T10:18:24Z</time>
      </trkpt>
      <trkpt lat="42.266323" lon="-4.42644">
        <ele>830.6951321149245</ele>
        <time>2022-05-17T10:18:33Z</time>
      </trkpt>
      <trkpt lat="42.266342" lon="-4.42657">
        <ele>830.9750640559942</ele>
        <time>2022-05-17T10:18:41Z</time>
      </trkpt>
      <trkpt lat="42.266353" lon="-4.426701">
        <ele>831.5476834699512</ele>
        <time>2022-05-17T10:18:48Z</time>
      </trkpt>
      <trkpt lat="42.266355" lon="-4.426824">
        <ele>831.874700772576</ele>
        <time>2022-05-17T10:18:55Z</time>
      </trkpt>
      <trkpt lat="42.26636" lon="-4.426956">
        <ele>834.7255857530981</ele>
        <time>2022-05-17T10:19:03Z</time>
      </trkpt>
      <trkpt lat="42.266386" lon="-4.427078">
        <ele>836.0946970367804</ele>
        <time>2022-05-17T10:19:10Z</time>
      </trkpt>
      <trkpt lat="42.2664" lon="-4.427207">
        <ele>836.929077857174</ele>
        <time>2022-05-17T10:19:17Z</time>
      </trkpt>
      <trkpt lat="42.266414" lon="-4.427345">
        <ele>836.8472756017</ele>
        <time>2022-05-17T10:19:24Z</time>
      </trkpt>
      <trkpt lat="42.266431" lon="-4.427467">
        <ele>837.4679649043828</ele>
        <time>2022-05-17T10:19:30Z</time>
      </trkpt>
      <trkpt lat="42.266452" lon="-4.427587">
        <ele>837.6215453762561</ele>
        <time>2022-05-17T10:19:37Z</time>
      </trkpt>
      <trkpt lat="42.266487" lon="-4.427705">
        <ele>837.5843170527369</ele>
        <time>2022-05-17T10:19:44Z</time>
      </trkpt>
      <trkpt lat="42.266526" lon="-4.427823">
        <ele>836.6686504594982</ele>
        <time>2022-05-17T10:19:52Z</time>
      </trkpt>
      <trkpt lat="42.266553" lon="-4.427956">
        <ele>835.0615730537102</ele>
        <time>2022-05-17T10:20:00Z</time>
      </trkpt>
      <trkpt lat="42.266558" lon="-4.42809">
        <ele>833.0834772139788</ele>
        <time>2022-05-17T10:20:09Z</time>
      </trkpt>
      <trkpt lat="42.266566" lon="-4.428212">
        <ele>832.3059973558411</ele>
        <time>2022-05-17T10:20:17Z</time>
      </trkpt>
      <trkpt lat="42.266577" lon="-4.428338">
        <ele>831.6358532803133</ele>
        <time>2022-05-17T10:20:25Z</time>
      </trkpt>
      <trkpt lat="42.266581" lon="-4.428463">
        <ele>831.4302755789831</ele>
        <time>2022-05-17T10:20:32Z</time>
      </trkpt>
      <trkpt lat="42.266581" lon="-4.428592">
        <ele>831.970669735223</ele>
        <time>2022-05-17T10:20:40Z</time>
      </trkpt>
      <trkpt lat="42.266591" lon="-4.428726">
        <ele>831.9033173117787</ele>
        <time>2022-05-17T10:20:49Z</time>
      </trkpt>
      <trkpt lat="42.266599" lon="-4.428867">
        <ele>832.4870907785371</ele>
        <time>2022-05-17T10:20:57Z</time>
      </trkpt>
      <trkpt lat="42.266606" lon="-4.429004">
        <ele>834.2986270096153</ele>
        <time>2022-05-17T10:21:04Z</time>
      </trkpt>
      <trkpt lat="42.266602" lon="-4.429129">
        <ele>835.4047335740179</ele>
        <time>2022-05-17T10:21:11Z</time>
      </trkpt>
      <trkpt lat="42.266609" lon="-4.429264">
        <ele>836.6488526547328</ele>
        <time>2022-05-17T10:21:19Z</time>
      </trkpt>
      <trkpt lat="42.266619" lon="-4.429387">
        <ele>837.7525080982596</ele>
        <time>2022-05-17T10:21:28Z</time>
      </trkpt>
      <trkpt lat="42.266639" lon="-4.429506">
        <ele>838.400896829553</ele>
        <time>2022-05-17T10:21:35Z</time>
      </trkpt>
      <trkpt lat="42.266656" lon="-4.429625">
        <ele>838.1932131890208</ele>
        <time>2022-05-17T10:21:43Z</time>
      </trkpt>
      <trkpt lat="42.266678" lon="-4.429745">
        <ele>838.4889336330816</ele>
        <time>2022-05-17T10:21:50Z</time>
      </trkpt>
      <trkpt lat="42.266688" lon="-4.429867">
        <ele>838.8450942952186</ele>
        <time>2022-05-17T10:21:57Z</time>
      </trkpt>
      <trkpt lat="42.266698" lon="-4.430001">
        <ele>838.674553646706</ele>
        <time>2022-05-17T10:22:06Z</time>
      </trkpt>
      <trkpt lat="42.266711" lon="-4.430123">
        <ele>839.2139765582979</ele>
        <time>2022-05-17T10:22:13Z</time>
      </trkpt>
      <trkpt lat="42.266711" lon="-4.43025">
        <ele>840.3924338454381</ele>
        <time>2022-05-17T10:22:20Z</time>
      </trkpt>
      <trkpt lat="42.266721" lon="-4.430386">
        <ele>841.4592645457014</ele>
        <time>2022-05-17T10:22:27Z</time>
      </trkpt>
      <trkpt lat="42.266733" lon="-4.430515">
        <ele>842.0269226077944</ele>
        <time>2022-05-17T10:22:34Z</time>
      </trkpt>
      <trkpt lat="42.266748" lon="-4.430649">
        <ele>841.5548484101892</ele>
        <time>2022-05-17T10:22:42Z</time>
      </trkpt>
      <trkpt lat="42.266762" lon="-4.430774">
        <ele>841.4380030529574</ele>
        <time>2022-05-17T10:22:48Z</time>
      </trkpt>
      <trkpt lat="42.266774" lon="-4.430909">
        <ele>840.7102187033743</ele>
        <time>2022-05-17T10:22:55Z</time>
      </trkpt>
      <trkpt lat="42.266775" lon="-4.431034">
        <ele>839.3279683664441</ele>
        <time>2022-05-17T10:23:03Z</time>
      </trkpt>
      <trkpt lat="42.266778" lon="-4.431162">
        <ele>838.1789221065119</ele>
        <time>2022-05-17T10:23:11Z</time>
      </trkpt>
      <trkpt lat="42.266786" lon="-4.431287">
        <ele>837.498635455966</ele>
        <time>2022-05-17T10:23:18Z</time>
      </trkpt>
      <trkpt lat="42.266811" lon="-4.431405">
        <ele>837.6295708734542</ele>
        <time>2022-05-17T10:23:25Z</time>
      </trkpt>
      <trkpt lat="42.266815" lon="-4.431543">
        <ele>837.6829376090318</ele>
        <time>2022-05-17T10:23:32Z</time>
      </trkpt>
      <trkpt lat="42.266837" lon="-4.431672">
        <ele>837.4377015940845</ele>
        <time>2022-05-17T10:23:39Z</time>
      </trkpt>
      <trkpt lat="42.266849" lon="-4.431798">
        <ele>837.5531409876421</ele>
        <time>2022-05-17T10:23:46Z</time>
      </trkpt>
      <trkpt lat="42.266856" lon="-4.431925">
        <ele>836.9518617521971</ele>
        <time>2022-05-17T10:23:54Z</time>
      </trkpt>
      <trkpt lat="42.266854" lon="-4.432051">
        <ele>836.8789283065125</ele>
        <time>2022-05-17T10:24:02Z</time>
      </trkpt>
      <trkpt lat="42.266855" lon="-4.432189">
        <ele>836.978363905102</ele>
        <time>2022-05-17T10:24:10Z</time>
      </trkpt>
      <trkpt lat="42.266861" lon="-4.432317">
        <ele>838.1258933637291</ele>
        <time>2022-05-17T10:24:17Z</time>
      </trkpt>
      <trkpt lat="42.266871" lon="-4.432442">
        <ele>838.7708082869649</ele>
        <time>2022-05-17T10:24:24Z</time>
      </trkpt>
      <trkpt lat="42.266891" lon="-4.432568">
        <ele>839.0112994099036</ele>
        <time>2022-05-17T10:24:32Z</time>
      </trkpt>
      <trkpt lat="42.266911" lon="-4.432687">
        <ele>838.4682293860242</ele>
        <time>2022-05-17T10:24:40Z</time>
      </trkpt>
      <trkpt lat="42.266929" lon="-4.432812">
        <ele>839.0945758633316</ele>
        <time>2022-05-17T10:24:47Z</time>
      </trkpt>
      <trkpt lat="42.266936" lon="-4.432939">
        <ele>839.5728387339041</ele>
        <time>2022-05-17T10:24:54Z</time>
      </trkpt>
      <trkpt lat="42.266943" lon="-4.433076">
        <ele>839.4096988365054</ele>
        <time>2022-05-17T10:25:01Z</time>
      </trkpt>
      <trkpt lat="42.266976" lon="-4.4332">
        <ele>839.0080396840349</ele>
        <time>2022-05-17T10:25:08Z</time>
      </trkpt>
      <trkpt lat="42.266995" lon="-4.433323">
        <ele>837.7866661194712</ele>
        <time>2022-05-17T10:25:15Z</time>
      </trkpt>
      <trkpt lat="42.267011" lon="-4.43345">
        <ele>837.3961000116542</ele>
        <time>2022-05-17T10:25:23Z</time>
      </trkpt>
      <trkpt lat="42.267022" lon="-4.433583">
        <ele>837.8156082518399</ele>
        <time>2022-05-17T10:25:31Z</time>
      </trkpt>
      <trkpt lat="42.267034" lon="-4.433715">
        <ele>838.6806650711223</ele>
        <time>2022-05-17T10:25:38Z</time>
      </trkpt>
      <trkpt lat="42.267033" lon="-4.43385">
        <ele>839.0363766206428</ele>
        <time>2022-05-17T10:25:45Z</time>
      </trkpt>
      <trkpt lat="42.267023" lon="-4.433975">
        <ele>838.5107838902622</ele>
        <time>2022-05-17T10:25:54Z</time>
      </trkpt>
      <trkpt lat="42.267044" lon="-4.434102">
        <ele>838.9699080744758</ele>
        <time>2022-05-17T10:26:02Z</time>
      </trkpt>
      <trkpt lat="42.267062" lon="-4.434229">
        <ele>839.4364508325234</ele>
        <time>2022-05-17T10:26:09Z</time>
      </trkpt>
      <trkpt lat="42.26707" lon="-4.434355">
        <ele>839.7811123700812</ele>
        <time>2022-05-17T10:26:16Z</time>
      </trkpt>
      <trkpt lat="42.267082" lon="-4.434484">
        <ele>840.4690837431699</ele>
        <time>2022-05-17T10:26:23Z</time>
      </trkpt>
      <trkpt lat="42.2671" lon="-4.434615">
        <ele>839.8908162852749</ele>
        <time>2022-05-17T10:26:32Z</time>
      </trkpt>
      <trkpt lat="42.267115" lon="-4.434737">
        <ele>839.370161880739</ele>
        <time>2022-05-17T10:26:40Z</time>
      </trkpt>
      <trkpt lat="42.267125" lon="-4.434868">
        <ele>839.3362449854612</ele>
        <time>2022-05-17T10:26:47Z</time>
      </trkpt>
      <trkpt lat="42.267132" lon="-4.434996">
        <ele>839.1711361855268</ele>
        <time>2022-05-17T10:26:54Z</time>
      </trkpt>
      <trkpt lat="42.267136" lon="-4.435126">
        <ele>839.9662813255563</ele>
        <time>2022-05-17T10:27:02Z</time>
      </trkpt>
      <trkpt lat="42.267148" lon="-4.435259">
        <ele>839.6367098847404</ele>
        <time>2022-05-17T10:27:11Z</time>
      </trkpt>
      <trkpt lat="42.267154" lon="-4.435394">
        <ele>839.1519120214507</ele>
        <time>2022-05-17T10:27:19Z</time>
      </trkpt>
      <trkpt lat="42.267169" lon="-4.435525">
        <ele>837.9492913587019</ele>
        <time>2022-05-17T10:27:28Z</time>
      </trkpt>
      <trkpt lat="42.267194" lon="-4.435658">
        <ele>837.1287989998236</ele>
        <time>2022-05-17T10:27:35Z</time>
      </trkpt>
      <trkpt lat="42.26721" lon="-4.435785">
        <ele>837.9494503773749</ele>
        <time>2022-05-17T10:27:42Z</time>
      </trkpt>
      <trkpt lat="42.267223" lon="-4.435914">
        <ele>836.7655089367181</ele>
        <time>2022-05-17T10:27:52Z</time>
      </trkpt>
      <trkpt lat="42.267232" lon="-4.436053">
        <ele>837.1051558926702</ele>
        <time>2022-05-17T10:28:00Z</time>
      </trkpt>
      <trkpt lat="42.267242" lon="-4.436174">
        <ele>836.9902123678476</ele>
        <time>2022-05-17T10:28:07Z</time>
      </trkpt>
      <trkpt lat="42.267247" lon="-4.436297">
        <ele>836.839743481949</ele>
        <time>2022-05-17T10:28:14Z</time>
      </trkpt>
      <trkpt lat="42.26727" lon="-4.43642">
        <ele>836.6636617276818</ele>
        <time>2022-05-17T10:28:22Z</time>
      </trkpt>
      <trkpt lat="42.267277" lon="-4.436547">
        <ele>837.6547705521807</ele>
        <time>2022-05-17T10:28:29Z</time>
      </trkpt>
      <trkpt lat="42.267288" lon="-4.436669">
        <ele>837.9794983146712</ele>
        <time>2022-05-17T10:28:36Z</time>
      </trkpt>
      <trkpt lat="42.267295" lon="-4.436798">
        <ele>838.7222657287493</ele>
        <time>2022-05-17T10:28:45Z</time>
      </trkpt>
      <trkpt lat="42.2673" lon="-4.436934">
        <ele>838.7756010005251</ele>
        <time>2022-05-17T10:28:53Z</time>
      </trkpt>
      <trkpt lat="42.267306" lon="-4.437059">
        <ele>838.70277978573</ele>
        <time>2022-05-17T10:29:00Z</time>
      </trkpt>
      <trkpt lat="42.267321" lon="-4.437197">
        <ele>838.8557868013158</ele>
        <time>2022-05-17T10:29:07Z</time>
      </trkpt>
      <trkpt lat="42.267331" lon="-4.43732">
        <ele>837.7636962179095</ele>
        <time>2022-05-17T10:29:14Z</time>
      </trkpt>
      <trkpt lat="42.267339" lon="-4.437454">
        <ele>836.7771735470742</ele>
        <time>2022-05-17T10:29:22Z</time>
      </trkpt>
      <trkpt lat="42.267345" lon="-4.437584">
        <ele>836.7374969152734</ele>
        <time>2022-05-17T10:29:30Z</time>
      </trkpt>
      <trkpt lat="42.267362" lon="-4.437707">
        <ele>836.9453385639936</ele>
        <time>2022-05-17T10:29:37Z</time>
      </trkpt>
      <trkpt lat="42.267383" lon="-4.437827">
        <ele>836.1575332134962</ele>
        <time>2022-05-17T10:29:44Z</time>
      </trkpt>
      <trkpt lat="42.267387" lon="-4.437955">
        <ele>835.5046733273193</ele>
        <time>2022-05-17T10:29:52Z</time>
      </trkpt>
      <trkpt lat="42.267403" lon="-4.438082">
        <ele>835.5622196691111</ele>
        <time>2022-05-17T10:30:00Z</time>
      </trkpt>
      <trkpt lat="42.267422" lon="-4.438209">
        <ele>835.3123482419178</ele>
        <time>2022-05-17T10:30:07Z</time>
      </trkpt>
      <trkpt lat="42.26744" lon="-4.438347">
        <ele>835.0183420237154</ele>
        <time>2022-05-17T10:30:14Z</time>
      </trkpt>
      <trkpt lat="42.267445" lon="-4.438474">
        <ele>835.2662422396243</ele>
        <time>2022-05-17T10:30:21Z</time>
      </trkpt>
      <trkpt lat="42.267455" lon="-4.438597">
        <ele>834.7555261766538</ele>
        <time>2022-05-17T10:30:28Z</time>
      </trkpt>
      <trkpt lat="42.267463" lon="-4.438732">
        <ele>835.1016133064404</ele>
        <time>2022-05-17T10:30:38Z</time>
      </trkpt>
      <trkpt lat="42.267482" lon="-4.438851">
        <ele>833.9070363789797</ele>
        <time>2022-05-17T10:30:45Z</time>
      </trkpt>
      <trkpt lat="42.26749" lon="-4.438979">
        <ele>834.0000966126099</ele>
        <time>2022-05-17T10:30:52Z</time>
      </trkpt>
      <trkpt lat="42.267492" lon="-4.439108">
        <ele>834.0740481978282</ele>
        <time>2022-05-17T10:31:00Z</time>
      </trkpt>
      <trkpt lat="42.267493" lon="-4.439244">
        <ele>834.3512729508802</ele>
        <time>2022-05-17T10:31:09Z</time>
      </trkpt>
      <trkpt lat="42.267484" lon="-4.439377">
        <ele>832.9926276886836</ele>
        <time>2022-05-17T10:31:16Z</time>
      </trkpt>
      <trkpt lat="42.267461" lon="-4.439507">
        <ele>831.9733498971909</ele>
        <time>2022-05-17T10:31:25Z</time>
      </trkpt>
      <trkpt lat="42.267483" lon="-4.439635">
        <ele>830.3824649434537</ele>
        <time>2022-05-17T10:31:33Z</time>
      </trkpt>
      <trkpt lat="42.267512" lon="-4.439763">
        <ele>829.5334662264213</ele>
        <time>2022-05-17T10:31:41Z</time>
      </trkpt>
      <trkpt lat="42.267528" lon="-4.439895">
        <ele>829.8727064086124</ele>
        <time>2022-05-17T10:31:49Z</time>
      </trkpt>
      <trkpt lat="42.267515" lon="-4.440015">
        <ele>828.6995596857741</ele>
        <time>2022-05-17T10:31:56Z</time>
      </trkpt>
      <trkpt lat="42.267515" lon="-4.440136">
        <ele>826.2114757299423</ele>
        <time>2022-05-17T10:32:04Z</time>
      </trkpt>
      <trkpt lat="42.267523" lon="-4.440259">
        <ele>824.5462873419747</ele>
        <time>2022-05-17T10:32:11Z</time>
      </trkpt>
      <trkpt lat="42.267565" lon="-4.440382">
        <ele>822.8377509405836</ele>
        <time>2022-05-17T10:32:20Z</time>
      </trkpt>
      <trkpt lat="42.267577" lon="-4.440513">
        <ele>821.0130819501355</ele>
        <time>2022-05-17T10:32:29Z</time>
      </trkpt>
      <trkpt lat="42.267581" lon="-4.440642">
        <ele>821.1810310622677</ele>
        <time>2022-05-17T10:32:37Z</time>
      </trkpt>
      <trkpt lat="42.267603" lon="-4.440764">
        <ele>819.9057165253907</ele>
        <time>2022-05-17T10:32:44Z</time>
      </trkpt>
      <trkpt lat="42.267615" lon="-4.440897">
        <ele>819.8635463872924</ele>
        <time>2022-05-17T10:33:05Z</time>
      </trkpt>
      <trkpt lat="42.267617" lon="-4.44103">
        <ele>818.4608373986557</ele>
        <time>2022-05-17T10:33:13Z</time>
      </trkpt>
      <trkpt lat="42.267628" lon="-4.441155">
        <ele>818.029265543446</ele>
        <time>2022-05-17T10:33:21Z</time>
      </trkpt>
      <trkpt lat="42.267645" lon="-4.441283">
        <ele>817.8098197998479</ele>
        <time>2022-05-17T10:33:29Z</time>
      </trkpt>
      <trkpt lat="42.26766" lon="-4.441415">
        <ele>819.20280557964</ele>
        <time>2022-05-17T10:33:37Z</time>
      </trkpt>
      <trkpt lat="42.267662" lon="-4.441553">
        <ele>820.1436454383656</ele>
        <time>2022-05-17T10:33:46Z</time>
      </trkpt>
      <trkpt lat="42.26769" lon="-4.441675">
        <ele>820.9028921807185</ele>
        <time>2022-05-17T10:33:53Z</time>
      </trkpt>
      <trkpt lat="42.267716" lon="-4.441798">
        <ele>819.9225808130577</ele>
        <time>2022-05-17T10:34:01Z</time>
      </trkpt>
      <trkpt lat="42.267737" lon="-4.441918">
        <ele>819.9540423387662</ele>
        <time>2022-05-17T10:34:09Z</time>
      </trkpt>
      <trkpt lat="42.26774" lon="-4.442041">
        <ele>820.1429971903563</ele>
        <time>2022-05-17T10:34:16Z</time>
      </trkpt>
      <trkpt lat="42.267757" lon="-4.442169">
        <ele>820.7090105740353</ele>
        <time>2022-05-17T10:34:24Z</time>
      </trkpt>
      <trkpt lat="42.267739" lon="-4.44229">
        <ele>820.3522780835629</ele>
        <time>2022-05-17T10:34:32Z</time>
      </trkpt>
      <trkpt lat="42.267765" lon="-4.442406">
        <ele>819.7404002342373</ele>
        <time>2022-05-17T10:34:41Z</time>
      </trkpt>
      <trkpt lat="42.267817" lon="-4.442514">
        <ele>819.6746262423694</ele>
        <time>2022-05-17T10:34:49Z</time>
      </trkpt>
      <trkpt lat="42.267883" lon="-4.442617">
        <ele>822.0125638237223</ele>
        <time>2022-05-17T10:34:56Z</time>
      </trkpt>
      <trkpt lat="42.267943" lon="-4.442708">
        <ele>824.2174419891089</ele>
        <time>2022-05-17T10:35:03Z</time>
      </trkpt>
      <trkpt lat="42.267992" lon="-4.442813">
        <ele>827.444798967801</ele>
        <time>2022-05-17T10:35:10Z</time>
      </trkpt>
      <trkpt lat="42.268056" lon="-4.442908">
        <ele>828.3994583468884</ele>
        <time>2022-05-17T10:35:16Z</time>
      </trkpt>
      <trkpt lat="42.268122" lon="-4.443011">
        <ele>828.7163052521646</ele>
        <time>2022-05-17T10:35:24Z</time>
      </trkpt>
      <trkpt lat="42.268174" lon="-4.44312">
        <ele>829.2562010893598</ele>
        <time>2022-05-17T10:35:32Z</time>
      </trkpt>
      <trkpt lat="42.268233" lon="-4.443222">
        <ele>829.3232749747112</ele>
        <time>2022-05-17T10:35:41Z</time>
      </trkpt>
      <trkpt lat="42.268293" lon="-4.443314">
        <ele>829.346583510749</ele>
        <time>2022-05-17T10:35:48Z</time>
      </trkpt>
      <trkpt lat="42.268348" lon="-4.443425">
        <ele>831.1049956707284</ele>
        <time>2022-05-17T10:35:56Z</time>
      </trkpt>
      <trkpt lat="42.268415" lon="-4.443521">
        <ele>832.2771735498682</ele>
        <time>2022-05-17T10:36:04Z</time>
      </trkpt>
      <trkpt lat="42.26848" lon="-4.443616">
        <ele>832.942319503054</ele>
        <time>2022-05-17T10:36:11Z</time>
      </trkpt>
      <trkpt lat="42.268525" lon="-4.443726">
        <ele>832.5842399513349</ele>
        <time>2022-05-17T10:36:19Z</time>
      </trkpt>
      <trkpt lat="42.268577" lon="-4.443826">
        <ele>831.9832690311596</ele>
        <time>2022-05-17T10:36:26Z</time>
      </trkpt>
      <trkpt lat="42.268621" lon="-4.443938">
        <ele>831.3221043264493</ele>
        <time>2022-05-17T10:36:33Z</time>
      </trkpt>
      <trkpt lat="42.268678" lon="-4.444055">
        <ele>830.9063332621008</ele>
        <time>2022-05-17T10:36:41Z</time>
      </trkpt>
      <trkpt lat="42.268733" lon="-4.444158">
        <ele>831.0881363060325</ele>
        <time>2022-05-17T10:36:47Z</time>
      </trkpt>
      <trkpt lat="42.268786" lon="-4.444271">
        <ele>832.5995595287532</ele>
        <time>2022-05-17T10:36:56Z</time>
      </trkpt>
      <trkpt lat="42.268854" lon="-4.444361">
        <ele>833.2162019889802</ele>
        <time>2022-05-17T10:37:21Z</time>
      </trkpt>
      <trkpt lat="42.268923" lon="-4.444467">
        <ele>834.9169955458492</ele>
        <time>2022-05-17T10:37:28Z</time>
      </trkpt>
      <trkpt lat="42.26897" lon="-4.444574">
        <ele>836.1085608433932</ele>
        <time>2022-05-17T10:37:34Z</time>
      </trkpt>
      <trkpt lat="42.269019" lon="-4.444685">
        <ele>836.5802525635809</ele>
        <time>2022-05-17T10:37:41Z</time>
      </trkpt>
      <trkpt lat="42.269057" lon="-4.444805">
        <ele>834.8439979264513</ele>
        <time>2022-05-17T10:37:50Z</time>
      </trkpt>
      <trkpt lat="42.269115" lon="-4.444905">
        <ele>833.2403913978487</ele>
        <time>2022-05-17T10:37:58Z</time>
      </trkpt>
      <trkpt lat="42.269175" lon="-4.445007">
        <ele>831.8289744723588</ele>
        <time>2022-05-17T10:38:07Z</time>
      </trkpt>
      <trkpt lat="42.269219" lon="-4.445117">
        <ele>830.539736719802</ele>
        <time>2022-05-17T10:39:57Z</time>
      </trkpt>
      <trkpt lat="42.269252" lon="-4.445234">
        <ele>831.855929790996</ele>
        <time>2022-05-17T10:40:12Z</time>
      </trkpt>
      <trkpt lat="42.269306" lon="-4.445346">
        <ele>831.7152806874365</ele>
        <time>2022-05-17T10:40:25Z</time>
      </trkpt>
      <trkpt lat="42.269287" lon="-4.445468">
        <ele>829.2149014091119</ele>
        <time>2022-05-17T10:40:36Z</time>
      </trkpt>
      <trkpt lat="42.269275" lon="-4.445596">
        <ele>827.9936206396669</ele>
        <time>2022-05-17T10:40:50Z</time>
      </trkpt>
      <trkpt lat="42.269255" lon="-4.445717">
        <ele>826.9246852733195</ele>
        <time>2022-05-17T10:40:58Z</time>
      </trkpt>
      <trkpt lat="42.269264" lon="-4.44585">
        <ele>826.7599357813597</ele>
        <time>2022-05-17T10:41:06Z</time>
      </trkpt>
      <trkpt lat="42.269248" lon="-4.445982">
        <ele>826.8618819015101</ele>
        <time>2022-05-17T10:41:14Z</time>
      </trkpt>
      <trkpt lat="42.269203" lon="-4.4461">
        <ele>828.6853479864076</ele>
        <time>2022-05-17T10:41:23Z</time>
      </trkpt>
      <trkpt lat="42.269161" lon="-4.446221">
        <ele>829.7145610097796</ele>
        <time>2022-05-17T10:41:32Z</time>
      </trkpt>
      <trkpt lat="42.269138" lon="-4.446339">
        <ele>829.1055953726172</ele>
        <time>2022-05-17T10:41:40Z</time>
      </trkpt>
      <trkpt lat="42.269077" lon="-4.44643">
        <ele>829.5248623127118</ele>
        <time>2022-05-17T10:41:46Z</time>
      </trkpt>
      <trkpt lat="42.26902" lon="-4.44653">
        <ele>828.7449377374724</ele>
        <time>2022-05-17T10:41:52Z</time>
      </trkpt>
      <trkpt lat="42.269029" lon="-4.446656">
        <ele>826.6010593799874</ele>
        <time>2022-05-17T10:42:02Z</time>
      </trkpt>
      <trkpt lat="42.269007" lon="-4.446783">
        <ele>823.3796516507864</ele>
        <time>2022-05-17T10:42:10Z</time>
      </trkpt>
      <trkpt lat="42.269002" lon="-4.44691">
        <ele>822.7780633401126</ele>
        <time>2022-05-17T10:42:16Z</time>
      </trkpt>
      <trkpt lat="42.268981" lon="-4.447031">
        <ele>821.6415116917342</ele>
        <time>2022-05-17T10:42:22Z</time>
      </trkpt>
      <trkpt lat="42.268947" lon="-4.447152">
        <ele>820.0466350950301</ele>
        <time>2022-05-17T10:42:31Z</time>
      </trkpt>
      <trkpt lat="42.268918" lon="-4.447275">
        <ele>818.8755558086559</ele>
        <time>2022-05-17T10:42:39Z</time>
      </trkpt>
      <trkpt lat="42.268891" lon="-4.447391">
        <ele>820.951854147017</ele>
        <time>2022-05-17T10:42:48Z</time>
      </trkpt>
      <trkpt lat="42.268873" lon="-4.44752">
        <ele>821.3547611860558</ele>
        <time>2022-05-17T10:42:59Z</time>
      </trkpt>
      <trkpt lat="42.268963" lon="-4.447488">
        <ele>821.8681162344292</ele>
        <time>2022-05-17T10:43:22Z</time>
      </trkpt>
      <trkpt lat="42.269002" lon="-4.447627">
        <ele>821.1258475724608</ele>
        <time>2022-05-17T10:43:36Z</time>
      </trkpt>
      <trkpt lat="42.269043" lon="-4.447742">
        <ele>821.5133274756372</ele>
        <time>2022-05-17T10:43:41Z</time>
      </trkpt>
      <trkpt lat="42.269041" lon="-4.447873">
        <ele>822.6512785330415</ele>
        <time>2022-05-17T10:43:51Z</time>
      </trkpt>
      <trkpt lat="42.269044" lon="-4.448009">
        <ele>822.2483493257314</ele>
        <time>2022-05-17T10:43:59Z</time>
      </trkpt>
      <trkpt lat="42.269071" lon="-4.448143">
        <ele>823.2440459923819</ele>
        <time>2022-05-17T10:44:11Z</time>
      </trkpt>
      <trkpt lat="42.269142" lon="-4.448247">
        <ele>825.4480806523934</ele>
        <time>2022-05-17T10:44:16Z</time>
      </trkpt>
      <trkpt lat="42.269205" lon="-4.448341">
        <ele>826.748524251394</ele>
        <time>2022-05-17T10:44:22Z</time>
      </trkpt>
      <trkpt lat="42.269268" lon="-4.448434">
        <ele>829.2940535629168</ele>
        <time>2022-05-17T10:44:27Z</time>
      </trkpt>
      <trkpt lat="42.269336" lon="-4.448527">
        <ele>831.8660953091457</ele>
        <time>2022-05-17T10:44:37Z</time>
      </trkpt>
      <trkpt lat="42.269402" lon="-4.448639">
        <ele>834.2812469508499</ele>
        <time>2022-05-17T10:44:45Z</time>
      </trkpt>
      <trkpt lat="42.269482" lon="-4.448701">
        <ele>838.2107570376247</ele>
        <time>2022-05-17T10:44:52Z</time>
      </trkpt>
      <trkpt lat="42.269576" lon="-4.448721">
        <ele>839.9166778642684</ele>
        <time>2022-05-17T10:44:59Z</time>
      </trkpt>
      <trkpt lat="42.269626" lon="-4.448826">
        <ele>836.6750770006329</ele>
        <time>2022-05-17T10:45:17Z</time>
      </trkpt>
      <trkpt lat="42.269689" lon="-4.448925">
        <ele>835.9382745269686</ele>
        <time>2022-05-17T10:45:26Z</time>
      </trkpt>
      <trkpt lat="42.269636" lon="-4.449026">
        <ele>833.3380201505497</ele>
        <time>2022-05-17T10:45:37Z</time>
      </trkpt>
      <trkpt lat="42.269559" lon="-4.449091">
        <ele>832.4877746775746</ele>
        <time>2022-05-17T10:45:51Z</time>
      </trkpt>
      <trkpt lat="42.269572" lon="-4.449212">
        <ele>833.2682106923312</ele>
        <time>2022-05-17T10:46:48Z</time>
      </trkpt>
      <trkpt lat="42.269503" lon="-4.449133">
        <ele>833.5957867866382</ele>
        <time>2022-05-17T10:47:07Z</time>
      </trkpt>
      <trkpt lat="42.269469" lon="-4.449259">
        <ele>834.6758665265515</ele>
        <time>2022-05-17T10:47:39Z</time>
      </trkpt>
      <trkpt lat="42.269504" lon="-4.449086">
        <ele>832.7156321275979</ele>
        <time>2022-05-17T10:47:43Z</time>
      </trkpt>
      <trkpt lat="42.269572" lon="-4.449175">
        <ele>838.6301403259858</ele>
        <time>2022-05-17T10:49:13Z</time>
      </trkpt>
      <trkpt lat="42.269551" lon="-4.449301">
        <ele>834.8588166506961</ele>
        <time>2022-05-17T10:49:54Z</time>
      </trkpt>
      <trkpt lat="42.269549" lon="-4.449429">
        <ele>832.8208458125591</ele>
        <time>2022-05-17T10:50:02Z</time>
      </trkpt>
      <trkpt lat="42.269604" lon="-4.449535">
        <ele>831.5786216408014</ele>
        <time>2022-05-17T10:50:13Z</time>
      </trkpt>
      <trkpt lat="42.269693" lon="-4.449559">
        <ele>830.8751856591552</ele>
        <time>2022-05-17T10:50:21Z</time>
      </trkpt>
      <trkpt lat="42.269793" lon="-4.44958">
        <ele>829.6854881057516</ele>
        <time>2022-05-17T10:50:29Z</time>
      </trkpt>
      <trkpt lat="42.269894" lon="-4.449612">
        <ele>829.2438716161996</ele>
        <time>2022-05-17T10:50:37Z</time>
      </trkpt>
      <trkpt lat="42.269984" lon="-4.449603">
        <ele>830.3390919249505</ele>
        <time>2022-05-17T10:50:47Z</time>
      </trkpt>
      <trkpt lat="42.270082" lon="-4.449595">
        <ele>827.0130720036104</ele>
        <time>2022-05-17T10:50:57Z</time>
      </trkpt>
      <trkpt lat="42.270176" lon="-4.449556">
        <ele>823.5118977772072</ele>
        <time>2022-05-17T10:51:06Z</time>
      </trkpt>
      <trkpt lat="42.270262" lon="-4.449516">
        <ele>822.578557648696</ele>
        <time>2022-05-17T10:51:16Z</time>
      </trkpt>
      <trkpt lat="42.270361" lon="-4.44953">
        <ele>821.3059023553506</ele>
        <time>2022-05-17T10:51:30Z</time>
      </trkpt>
      <trkpt lat="42.270451" lon="-4.449538">
        <ele>822.8424651371315</ele>
        <time>2022-05-17T10:51:55Z</time>
      </trkpt>
      <trkpt lat="42.27054" lon="-4.44956">
        <ele>822.4664230467752</ele>
        <time>2022-05-17T10:52:01Z</time>
      </trkpt>
      <trkpt lat="42.270637" lon="-4.449578">
        <ele>821.899881426245</ele>
        <time>2022-05-17T10:52:10Z</time>
      </trkpt>
      <trkpt lat="42.270727" lon="-4.449558">
        <ele>823.1230323249474</ele>
        <time>2022-05-17T10:52:19Z</time>
      </trkpt>
      <trkpt lat="42.270818" lon="-4.449555">
        <ele>823.0108818635345</ele>
        <time>2022-05-17T10:52:28Z</time>
      </trkpt>
      <trkpt lat="42.270911" lon="-4.449556">
        <ele>822.8642482766882</ele>
        <time>2022-05-17T10:52:36Z</time>
      </trkpt>
      <trkpt lat="42.271005" lon="-4.449542">
        <ele>823.6118743317202</ele>
        <time>2022-05-17T10:52:43Z</time>
      </trkpt>
      <trkpt lat="42.271102" lon="-4.449528">
        <ele>824.7728356104344</ele>
        <time>2022-05-17T10:52:52Z</time>
      </trkpt>
      <trkpt lat="42.271196" lon="-4.449535">
        <ele>823.8588500740007</ele>
        <time>2022-05-17T10:52:59Z</time>
      </trkpt>
      <trkpt lat="42.271287" lon="-4.449537">
        <ele>822.6033840961754</ele>
        <time>2022-05-17T10:53:06Z</time>
      </trkpt>
      <trkpt lat="42.271388" lon="-4.44952">
        <ele>821.6330752754584</ele>
        <time>2022-05-17T10:53:15Z</time>
      </trkpt>
      <trkpt lat="42.271492" lon="-4.44951">
        <ele>821.4865765077993</ele>
        <time>2022-05-17T10:53:24Z</time>
      </trkpt>
      <trkpt lat="42.271587" lon="-4.449497">
        <ele>823.5296526160091</ele>
        <time>2022-05-17T10:53:32Z</time>
      </trkpt>
      <trkpt lat="42.271673" lon="-4.449569">
        <ele>823.7093226034194</ele>
        <time>2022-05-17T10:53:42Z</time>
      </trkpt>
      <trkpt lat="42.271748" lon="-4.44965">
        <ele>823.0451609678566</ele>
        <time>2022-05-17T10:53:48Z</time>
      </trkpt>
      <trkpt lat="42.271817" lon="-4.449738">
        <ele>822.2313986830413</ele>
        <time>2022-05-17T10:53:54Z</time>
      </trkpt>
      <trkpt lat="42.271879" lon="-4.449842">
        <ele>821.7457072287798</ele>
        <time>2022-05-17T10:54:01Z</time>
      </trkpt>
      <trkpt lat="42.271953" lon="-4.449925">
        <ele>822.0819015279412</ele>
        <time>2022-05-17T10:54:08Z</time>
      </trkpt>
      <trkpt lat="42.272021" lon="-4.450022">
        <ele>821.9187089148909</ele>
        <time>2022-05-17T10:54:16Z</time>
      </trkpt>
      <trkpt lat="42.272098" lon="-4.450117">
        <ele>822.8413962572813</ele>
        <time>2022-05-17T10:54:24Z</time>
      </trkpt>
      <trkpt lat="42.272156" lon="-4.450209">
        <ele>822.7615603264421</ele>
        <time>2022-05-17T10:54:30Z</time>
      </trkpt>
      <trkpt lat="42.272205" lon="-4.450313">
        <ele>824.0434663956985</ele>
        <time>2022-05-17T10:54:36Z</time>
      </trkpt>
      <trkpt lat="42.272273" lon="-4.450412">
        <ele>825.437005375512</ele>
        <time>2022-05-17T10:54:42Z</time>
      </trkpt>
      <trkpt lat="42.272344" lon="-4.450515">
        <ele>825.913595655933</ele>
        <time>2022-05-17T10:54:48Z</time>
      </trkpt>
      <trkpt lat="42.272418" lon="-4.450615">
        <ele>826.0645819092169</ele>
        <time>2022-05-17T10:54:55Z</time>
      </trkpt>
      <trkpt lat="42.272487" lon="-4.450703">
        <ele>827.7027132911608</ele>
        <time>2022-05-17T10:55:02Z</time>
      </trkpt>
      <trkpt lat="42.272547" lon="-4.450796">
        <ele>829.484682184644</ele>
        <time>2022-05-17T10:55:09Z</time>
      </trkpt>
      <trkpt lat="42.272608" lon="-4.45089">
        <ele>830.9438931653276</ele>
        <time>2022-05-17T10:55:16Z</time>
      </trkpt>
      <trkpt lat="42.27266" lon="-4.450995">
        <ele>832.4650345258415</ele>
        <time>2022-05-17T10:55:23Z</time>
      </trkpt>
      <trkpt lat="42.272726" lon="-4.451097">
        <ele>833.218508740887</ele>
        <time>2022-05-17T10:55:30Z</time>
      </trkpt>
      <trkpt lat="42.272791" lon="-4.451188">
        <ele>835.0295193195343</ele>
        <time>2022-05-17T10:55:37Z</time>
      </trkpt>
      <trkpt lat="42.272857" lon="-4.451277">
        <ele>835.4594868579879</ele>
        <time>2022-05-17T10:55:43Z</time>
      </trkpt>
      <trkpt lat="42.272916" lon="-4.451382">
        <ele>835.2224475974217</ele>
        <time>2022-05-17T10:55:50Z</time>
      </trkpt>
      <trkpt lat="42.272984" lon="-4.451471">
        <ele>835.2100109830499</ele>
        <time>2022-05-17T10:55:56Z</time>
      </trkpt>
      <trkpt lat="42.273058" lon="-4.451569">
        <ele>835.3391487123445</ele>
        <time>2022-05-17T10:56:03Z</time>
      </trkpt>
      <trkpt lat="42.273099" lon="-4.451678">
        <ele>835.2426547668874</ele>
        <time>2022-05-17T10:56:10Z</time>
      </trkpt>
      <trkpt lat="42.27316" lon="-4.451786">
        <ele>835.5440863249823</ele>
        <time>2022-05-17T10:56:17Z</time>
      </trkpt>
      <trkpt lat="42.273225" lon="-4.451877">
        <ele>836.2323932647705</ele>
        <time>2022-05-17T10:56:24Z</time>
      </trkpt>
      <trkpt lat="42.273286" lon="-4.45197">
        <ele>836.8609165856615</ele>
        <time>2022-05-17T10:56:31Z</time>
      </trkpt>
      <trkpt lat="42.273341" lon="-4.452075">
        <ele>837.4704171717167</ele>
        <time>2022-05-17T10:56:39Z</time>
      </trkpt>
      <trkpt lat="42.273406" lon="-4.452174">
        <ele>837.3939573578537</ele>
        <time>2022-05-17T10:56:47Z</time>
      </trkpt>
      <trkpt lat="42.273483" lon="-4.452258">
        <ele>836.1979755600914</ele>
        <time>2022-05-17T10:56:54Z</time>
      </trkpt>
      <trkpt lat="42.273548" lon="-4.452346">
        <ele>836.7998779416084</ele>
        <time>2022-05-17T10:57:01Z</time>
      </trkpt>
      <trkpt lat="42.273618" lon="-4.452443">
        <ele>837.3567803399637</ele>
        <time>2022-05-17T10:57:08Z</time>
      </trkpt>
      <trkpt lat="42.273678" lon="-4.45254">
        <ele>838.5599044570699</ele>
        <time>2022-05-17T10:57:15Z</time>
      </trkpt>
      <trkpt lat="42.273743" lon="-4.452633">
        <ele>838.8109377929941</ele>
        <time>2022-05-17T10:57:23Z</time>
      </trkpt>
      <trkpt lat="42.273815" lon="-4.452731">
        <ele>839.9138862434775</ele>
        <time>2022-05-17T10:57:31Z</time>
      </trkpt>
      <trkpt lat="42.273879" lon="-4.45282">
        <ele>839.9920933684334</ele>
        <time>2022-05-17T10:57:38Z</time>
      </trkpt>
      <trkpt lat="42.273933" lon="-4.452933">
        <ele>839.1365777049214</ele>
        <time>2022-05-17T10:57:45Z</time>
      </trkpt>
      <trkpt lat="42.273991" lon="-4.453042">
        <ele>838.8503684531897</ele>
        <time>2022-05-17T10:57:52Z</time>
      </trkpt>
      <trkpt lat="42.27404" lon="-4.453154">
        <ele>838.4372841734439</ele>
        <time>2022-05-17T10:58:01Z</time>
      </trkpt>
      <trkpt lat="42.274113" lon="-4.453244">
        <ele>839.2670037560165</ele>
        <time>2022-05-17T10:58:09Z</time>
      </trkpt>
      <trkpt lat="42.274184" lon="-4.453344">
        <ele>839.3847795464098</ele>
        <time>2022-05-17T10:58:17Z</time>
      </trkpt>
      <trkpt lat="42.27425" lon="-4.453436">
        <ele>839.4532632781193</ele>
        <time>2022-05-17T10:58:24Z</time>
      </trkpt>
      <trkpt lat="42.274311" lon="-4.453529">
        <ele>840.2807401902974</ele>
        <time>2022-05-17T10:58:31Z</time>
      </trkpt>
      <trkpt lat="42.274369" lon="-4.453636">
        <ele>838.6910129198804</ele>
        <time>2022-05-17T10:58:39Z</time>
      </trkpt>
      <trkpt lat="42.27441" lon="-4.453746">
        <ele>837.6809369055554</ele>
        <time>2022-05-17T10:58:47Z</time>
      </trkpt>
      <trkpt lat="42.274485" lon="-4.45382">
        <ele>839.5696364101022</ele>
        <time>2022-05-17T10:59:24Z</time>
      </trkpt>
      <trkpt lat="42.274552" lon="-4.453902">
        <ele>839.7364181540906</ele>
        <time>2022-05-17T10:59:31Z</time>
      </trkpt>
      <trkpt lat="42.27462" lon="-4.453997">
        <ele>839.2119477232918</ele>
        <time>2022-05-17T10:59:39Z</time>
      </trkpt>
      <trkpt lat="42.274682" lon="-4.454091">
        <ele>839.2687236825004</ele>
        <time>2022-05-17T10:59:46Z</time>
      </trkpt>
      <trkpt lat="42.274745" lon="-4.454194">
        <ele>838.9888796340674</ele>
        <time>2022-05-17T10:59:54Z</time>
      </trkpt>
      <trkpt lat="42.274807" lon="-4.454288">
        <ele>839.1156041156501</ele>
        <time>2022-05-17T11:00:01Z</time>
      </trkpt>
      <trkpt lat="42.274864" lon="-4.454399">
        <ele>838.8790898295119</ele>
        <time>2022-05-17T11:00:10Z</time>
      </trkpt>
      <trkpt lat="42.27494" lon="-4.454494">
        <ele>838.8108561467379</ele>
        <time>2022-05-17T11:00:18Z</time>
      </trkpt>
      <trkpt lat="42.275" lon="-4.454591">
        <ele>838.0398731911555</ele>
        <time>2022-05-17T11:00:25Z</time>
      </trkpt>
      <trkpt lat="42.275076" lon="-4.454689">
        <ele>837.5383243439719</ele>
        <time>2022-05-17T11:00:32Z</time>
      </trkpt>
      <trkpt lat="42.275137" lon="-4.4548">
        <ele>837.7951031755656</ele>
        <time>2022-05-17T11:00:39Z</time>
      </trkpt>
      <trkpt lat="42.2752" lon="-4.454894">
        <ele>838.2073391787708</ele>
        <time>2022-05-17T11:00:48Z</time>
      </trkpt>
      <trkpt lat="42.275264" lon="-4.454993">
        <ele>838.3149567786604</ele>
        <time>2022-05-17T11:00:56Z</time>
      </trkpt>
      <trkpt lat="42.275327" lon="-4.455098">
        <ele>838.955537237227</ele>
        <time>2022-05-17T11:01:03Z</time>
      </trkpt>
      <trkpt lat="42.27539" lon="-4.455207">
        <ele>839.33769383654</ele>
        <time>2022-05-17T11:01:11Z</time>
      </trkpt>
      <trkpt lat="42.275456" lon="-4.455309">
        <ele>838.8492789594457</ele>
        <time>2022-05-17T11:01:20Z</time>
      </trkpt>
      <trkpt lat="42.275517" lon="-4.455406">
        <ele>838.7191445697099</ele>
        <time>2022-05-17T11:01:28Z</time>
      </trkpt>
      <trkpt lat="42.275573" lon="-4.455502">
        <ele>839.3003929611295</ele>
        <time>2022-05-17T11:01:35Z</time>
      </trkpt>
      <trkpt lat="42.275645" lon="-4.455596">
        <ele>839.8687398023903</ele>
        <time>2022-05-17T11:01:44Z</time>
      </trkpt>
      <trkpt lat="42.275718" lon="-4.455689">
        <ele>841.2059391066432</ele>
        <time>2022-05-17T11:01:51Z</time>
      </trkpt>
      <trkpt lat="42.275782" lon="-4.455791">
        <ele>841.5220065396279</ele>
        <time>2022-05-17T11:01:59Z</time>
      </trkpt>
      <trkpt lat="42.275842" lon="-4.455885">
        <ele>840.5639837561175</ele>
        <time>2022-05-17T11:02:05Z</time>
      </trkpt>
      <trkpt lat="42.275902" lon="-4.455992">
        <ele>840.4860122399405</ele>
        <time>2022-05-17T11:02:13Z</time>
      </trkpt>
      <trkpt lat="42.275961" lon="-4.456084">
        <ele>841.7688078740612</ele>
        <time>2022-05-17T11:02:21Z</time>
      </trkpt>
      <trkpt lat="42.276024" lon="-4.456187">
        <ele>841.4177747555077</ele>
        <time>2022-05-17T11:02:29Z</time>
      </trkpt>
      <trkpt lat="42.276093" lon="-4.456271">
        <ele>841.5040210075676</ele>
        <time>2022-05-17T11:02:36Z</time>
      </trkpt>
      <trkpt lat="42.276165" lon="-4.456364">
        <ele>841.1118484148756</ele>
        <time>2022-05-17T11:02:43Z</time>
      </trkpt>
      <trkpt lat="42.27622" lon="-4.456464">
        <ele>840.3410248495638</ele>
        <time>2022-05-17T11:02:49Z</time>
      </trkpt>
      <trkpt lat="42.276286" lon="-4.45656">
        <ele>841.6128153167665</ele>
        <time>2022-05-17T11:02:57Z</time>
      </trkpt>
      <trkpt lat="42.276347" lon="-4.456667">
        <ele>842.2955866819248</ele>
        <time>2022-05-17T11:03:05Z</time>
      </trkpt>
      <trkpt lat="42.276412" lon="-4.456754">
        <ele>842.6057170694694</ele>
        <time>2022-05-17T11:03:13Z</time>
      </trkpt>
      <trkpt lat="42.27647" lon="-4.456861">
        <ele>841.9614289710298</ele>
        <time>2022-05-17T11:03:21Z</time>
      </trkpt>
      <trkpt lat="42.276526" lon="-4.456964">
        <ele>840.5033311154693</ele>
        <time>2022-05-17T11:03:30Z</time>
      </trkpt>
      <trkpt lat="42.276592" lon="-4.457053">
        <ele>840.1379259396344</ele>
        <time>2022-05-17T11:03:39Z</time>
      </trkpt>
      <trkpt lat="42.276655" lon="-4.457147">
        <ele>840.3023661738262</ele>
        <time>2022-05-17T11:03:46Z</time>
      </trkpt>
      <trkpt lat="42.27672" lon="-4.457237">
        <ele>840.1585678998381</ele>
        <time>2022-05-17T11:03:52Z</time>
      </trkpt>
      <trkpt lat="42.276778" lon="-4.457338">
        <ele>839.7438720948994</ele>
        <time>2022-05-17T11:04:00Z</time>
      </trkpt>
      <trkpt lat="42.276848" lon="-4.457438">
        <ele>839.6122943013906</ele>
        <time>2022-05-17T11:04:09Z</time>
      </trkpt>
      <trkpt lat="42.276911" lon="-4.45753">
        <ele>838.9821109063923</ele>
        <time>2022-05-17T11:04:15Z</time>
      </trkpt>
      <trkpt lat="42.276963" lon="-4.457631">
        <ele>839.0296977190301</ele>
        <time>2022-05-17T11:04:22Z</time>
      </trkpt>
      <trkpt lat="42.277035" lon="-4.457713">
        <ele>839.0150925479829</ele>
        <time>2022-05-17T11:04:30Z</time>
      </trkpt>
      <trkpt lat="42.277098" lon="-4.457811">
        <ele>837.4948614640161</ele>
        <time>2022-05-17T11:04:38Z</time>
      </trkpt>
      <trkpt lat="42.277164" lon="-4.457914">
        <ele>837.8799916915596</ele>
        <time>2022-05-17T11:04:46Z</time>
      </trkpt>
      <trkpt lat="42.277222" lon="-4.458007">
        <ele>838.2924325577915</ele>
        <time>2022-05-17T11:04:53Z</time>
      </trkpt>
      <trkpt lat="42.27729" lon="-4.458106">
        <ele>837.8193282270804</ele>
        <time>2022-05-17T11:05:01Z</time>
      </trkpt>
      <trkpt lat="42.277349" lon="-4.458215">
        <ele>837.6961372504011</ele>
        <time>2022-05-17T11:05:08Z</time>
      </trkpt>
      <trkpt lat="42.277417" lon="-4.458297">
        <ele>838.6606072774157</ele>
        <time>2022-05-17T11:05:15Z</time>
      </trkpt>
      <trkpt lat="42.277489" lon="-4.45839">
        <ele>838.7846407797188</ele>
        <time>2022-05-17T11:05:23Z</time>
      </trkpt>
      <trkpt lat="42.277548" lon="-4.458484">
        <ele>838.5891415718943</ele>
        <time>2022-05-17T11:05:30Z</time>
      </trkpt>
      <trkpt lat="42.277614" lon="-4.458572">
        <ele>837.6796582117677</ele>
        <time>2022-05-17T11:05:37Z</time>
      </trkpt>
      <trkpt lat="42.277675" lon="-4.458673">
        <ele>837.3544775927439</ele>
        <time>2022-05-17T11:05:45Z</time>
      </trkpt>
      <trkpt lat="42.277728" lon="-4.458784">
        <ele>837.592495390214</ele>
        <time>2022-05-17T11:05:54Z</time>
      </trkpt>
      <trkpt lat="42.277791" lon="-4.458876">
        <ele>837.0949664833024</ele>
        <time>2022-05-17T11:06:01Z</time>
      </trkpt>
      <trkpt lat="42.277848" lon="-4.458985">
        <ele>837.3512321263552</ele>
        <time>2022-05-17T11:06:09Z</time>
      </trkpt>
      <trkpt lat="42.277898" lon="-4.459091">
        <ele>836.6984999375418</ele>
        <time>2022-05-17T11:06:17Z</time>
      </trkpt>
      <trkpt lat="42.277964" lon="-4.459193">
        <ele>836.1532195648178</ele>
        <time>2022-05-17T11:06:25Z</time>
      </trkpt>
      <trkpt lat="42.278032" lon="-4.459294">
        <ele>835.9930658498779</ele>
        <time>2022-05-17T11:06:33Z</time>
      </trkpt>
      <trkpt lat="42.278087" lon="-4.459392">
        <ele>836.3832282889634</ele>
        <time>2022-05-17T11:06:40Z</time>
      </trkpt>
      <trkpt lat="42.278155" lon="-4.459473">
        <ele>836.3064743503928</ele>
        <time>2022-05-17T11:06:47Z</time>
      </trkpt>
      <trkpt lat="42.278222" lon="-4.459569">
        <ele>835.959889896214</ele>
        <time>2022-05-17T11:06:56Z</time>
      </trkpt>
      <trkpt lat="42.278285" lon="-4.459663">
        <ele>837.2712324429303</ele>
        <time>2022-05-17T11:07:04Z</time>
      </trkpt>
      <trkpt lat="42.278356" lon="-4.459757">
        <ele>837.6577691314742</ele>
        <time>2022-05-17T11:07:13Z</time>
      </trkpt>
      <trkpt lat="42.278422" lon="-4.459858">
        <ele>837.0045441612601</ele>
        <time>2022-05-17T11:07:20Z</time>
      </trkpt>
      <trkpt lat="42.278488" lon="-4.45996">
        <ele>836.4470171676949</ele>
        <time>2022-05-17T11:07:27Z</time>
      </trkpt>
      <trkpt lat="42.278554" lon="-4.460057">
        <ele>835.9412077711895</ele>
        <time>2022-05-17T11:07:36Z</time>
      </trkpt>
      <trkpt lat="42.278616" lon="-4.460148">
        <ele>836.077395806089</ele>
        <time>2022-05-17T11:07:43Z</time>
      </trkpt>
      <trkpt lat="42.27869" lon="-4.46022">
        <ele>836.7927486700937</ele>
        <time>2022-05-17T11:07:49Z</time>
      </trkpt>
      <trkpt lat="42.278762" lon="-4.460315">
        <ele>836.5787066556513</ele>
        <time>2022-05-17T11:07:56Z</time>
      </trkpt>
      <trkpt lat="42.278838" lon="-4.460401">
        <ele>835.9933359501883</ele>
        <time>2022-05-17T11:08:04Z</time>
      </trkpt>
      <trkpt lat="42.278899" lon="-4.460507">
        <ele>835.7392003880814</ele>
        <time>2022-05-17T11:08:12Z</time>
      </trkpt>
      <trkpt lat="42.278956" lon="-4.460617">
        <ele>835.3510951017961</ele>
        <time>2022-05-17T11:08:22Z</time>
      </trkpt>
      <trkpt lat="42.279015" lon="-4.460711">
        <ele>835.1409023385495</ele>
        <time>2022-05-17T11:08:31Z</time>
      </trkpt>
      <trkpt lat="42.279015" lon="-4.460711">
        <ele>835.1409023385495</ele>
        <time>2022-05-17T11:08:31Z</time>
      </trkpt>
      <trkpt lat="42.279073" lon="-4.460805">
        <ele>835.4143058564514</ele>
        <time>2022-05-17T11:08:38Z</time>
      </trkpt>
      <trkpt lat="42.279122" lon="-4.460914">
        <ele>835.8579420400783</ele>
        <time>2022-05-17T11:08:46Z</time>
      </trkpt>
      <trkpt lat="42.27918" lon="-4.461023">
        <ele>834.3626468488947</ele>
        <time>2022-05-17T11:08:54Z</time>
      </trkpt>
      <trkpt lat="42.279239" lon="-4.461126">
        <ele>833.0816551093012</ele>
        <time>2022-05-17T11:09:53Z</time>
      </trkpt>
      <trkpt lat="42.279307" lon="-4.461211">
        <ele>832.5117763569579</ele>
        <time>2022-05-17T11:09:59Z</time>
      </trkpt>
      <trkpt lat="42.279374" lon="-4.461298">
        <ele>833.0862746005878</ele>
        <time>2022-05-17T11:10:06Z</time>
      </trkpt>
      <trkpt lat="42.27944" lon="-4.461384">
        <ele>834.6002766508609</ele>
        <time>2022-05-17T11:10:14Z</time>
      </trkpt>
      <trkpt lat="42.279518" lon="-4.461472">
        <ele>834.9640899337828</ele>
        <time>2022-05-17T11:10:22Z</time>
      </trkpt>
      <trkpt lat="42.279579" lon="-4.461583">
        <ele>835.6613794025034</ele>
        <time>2022-05-17T11:10:29Z</time>
      </trkpt>
      <trkpt lat="42.279655" lon="-4.46166">
        <ele>836.2197572896257</ele>
        <time>2022-05-17T11:10:37Z</time>
      </trkpt>
      <trkpt lat="42.279725" lon="-4.46175">
        <ele>837.1001883009449</ele>
        <time>2022-05-17T11:10:45Z</time>
      </trkpt>
      <trkpt lat="42.279789" lon="-4.461845">
        <ele>838.4450679784641</ele>
        <time>2022-05-17T11:10:52Z</time>
      </trkpt>
      <trkpt lat="42.279843" lon="-4.461949">
        <ele>837.8724196124822</ele>
        <time>2022-05-17T11:10:59Z</time>
      </trkpt>
      <trkpt lat="42.279905" lon="-4.462042">
        <ele>838.9528775084764</ele>
        <time>2022-05-17T11:11:08Z</time>
      </trkpt>
      <trkpt lat="42.279963" lon="-4.462157">
        <ele>840.1513770502061</ele>
        <time>2022-05-17T11:11:17Z</time>
      </trkpt>
      <trkpt lat="42.280033" lon="-4.462253">
        <ele>841.1375419329852</ele>
        <time>2022-05-17T11:11:24Z</time>
      </trkpt>
      <trkpt lat="42.280081" lon="-4.462366">
        <ele>840.1253943610936</ele>
        <time>2022-05-17T11:11:33Z</time>
      </trkpt>
      <trkpt lat="42.280144" lon="-4.462456">
        <ele>839.3917089132592</ele>
        <time>2022-05-17T11:11:41Z</time>
      </trkpt>
      <trkpt lat="42.280204" lon="-4.46255">
        <ele>839.6091225463897</ele>
        <time>2022-05-17T11:11:49Z</time>
      </trkpt>
      <trkpt lat="42.28025" lon="-4.462668">
        <ele>839.7080994928256</ele>
        <time>2022-05-17T11:11:55Z</time>
      </trkpt>
      <trkpt lat="42.280327" lon="-4.462752">
        <ele>840.6746475473046</ele>
        <time>2022-05-17T11:12:03Z</time>
      </trkpt>
      <trkpt lat="42.280404" lon="-4.462823">
        <ele>840.4995087524876</ele>
        <time>2022-05-17T11:12:10Z</time>
      </trkpt>
      <trkpt lat="42.280456" lon="-4.462924">
        <ele>839.5170910665765</ele>
        <time>2022-05-17T11:12:16Z</time>
      </trkpt>
      <trkpt lat="42.280518" lon="-4.463016">
        <ele>838.3654597569257</ele>
        <time>2022-05-17T11:12:24Z</time>
      </trkpt>
      <trkpt lat="42.280584" lon="-4.463106">
        <ele>838.0877735922113</ele>
        <time>2022-05-17T11:12:32Z</time>
      </trkpt>
      <trkpt lat="42.280658" lon="-4.463186">
        <ele>838.9740340793505</ele>
        <time>2022-05-17T11:12:39Z</time>
      </trkpt>
      <trkpt lat="42.280721" lon="-4.463285">
        <ele>839.5385421812534</ele>
        <time>2022-05-17T11:12:46Z</time>
      </trkpt>
      <trkpt lat="42.280792" lon="-4.463385">
        <ele>839.4838038897142</ele>
        <time>2022-05-17T11:12:54Z</time>
      </trkpt>
      <trkpt lat="42.280864" lon="-4.46347">
        <ele>840.0527983643115</ele>
        <time>2022-05-17T11:13:01Z</time>
      </trkpt>
      <trkpt lat="42.280931" lon="-4.463566">
        <ele>839.6918176785111</ele>
        <time>2022-05-17T11:13:08Z</time>
      </trkpt>
      <trkpt lat="42.280976" lon="-4.463681">
        <ele>839.1276898635551</ele>
        <time>2022-05-17T11:13:15Z</time>
      </trkpt>
      <trkpt lat="42.281037" lon="-4.463777">
        <ele>839.7636746261269</ele>
        <time>2022-05-17T11:13:22Z</time>
      </trkpt>
      <trkpt lat="42.281105" lon="-4.463881">
        <ele>840.8836276028305</ele>
        <time>2022-05-17T11:13:29Z</time>
      </trkpt>
      <trkpt lat="42.281171" lon="-4.463981">
        <ele>842.9696495886892</ele>
        <time>2022-05-17T11:13:37Z</time>
      </trkpt>
      <trkpt lat="42.281234" lon="-4.464084">
        <ele>844.0157225653529</ele>
        <time>2022-05-17T11:13:44Z</time>
      </trkpt>
      <trkpt lat="42.281304" lon="-4.464172">
        <ele>844.1900846427307</ele>
        <time>2022-05-17T11:13:51Z</time>
      </trkpt>
      <trkpt lat="42.281371" lon="-4.464272">
        <ele>844.4577171411365</ele>
        <time>2022-05-17T11:13:58Z</time>
      </trkpt>
      <trkpt lat="42.281426" lon="-4.46438">
        <ele>843.8914083326235</ele>
        <time>2022-05-17T11:14:06Z</time>
      </trkpt>
      <trkpt lat="42.281491" lon="-4.46447">
        <ele>843.6921628443524</ele>
        <time>2022-05-17T11:14:13Z</time>
      </trkpt>
      <trkpt lat="42.281544" lon="-4.464569">
        <ele>843.7323471950367</ele>
        <time>2022-05-17T11:14:20Z</time>
      </trkpt>
      <trkpt lat="42.281613" lon="-4.464657">
        <ele>842.9369569104165</ele>
        <time>2022-05-17T11:14:27Z</time>
      </trkpt>
      <trkpt lat="42.28168" lon="-4.464757">
        <ele>843.0680043781176</ele>
        <time>2022-05-17T11:14:35Z</time>
      </trkpt>
      <trkpt lat="42.28174" lon="-4.464854">
        <ele>842.7133245719597</ele>
        <time>2022-05-17T11:14:42Z</time>
      </trkpt>
      <trkpt lat="42.2818" lon="-4.464946">
        <ele>842.8355612652376</ele>
        <time>2022-05-17T11:14:49Z</time>
      </trkpt>
      <trkpt lat="42.281856" lon="-4.465044">
        <ele>843.1593009242788</ele>
        <time>2022-05-17T11:14:55Z</time>
      </trkpt>
      <trkpt lat="42.281921" lon="-4.465143">
        <ele>843.213991609402</ele>
        <time>2022-05-17T11:15:02Z</time>
      </trkpt>
      <trkpt lat="42.281983" lon="-4.465246">
        <ele>843.0517786005512</ele>
        <time>2022-05-17T11:15:09Z</time>
      </trkpt>
      <trkpt lat="42.282048" lon="-4.465349">
        <ele>844.4628432234749</ele>
        <time>2022-05-17T11:15:17Z</time>
      </trkpt>
      <trkpt lat="42.282113" lon="-4.465453">
        <ele>845.3949128361419</ele>
        <time>2022-05-17T11:15:25Z</time>
      </trkpt>
      <trkpt lat="42.282172" lon="-4.465545">
        <ele>844.9549261750653</ele>
        <time>2022-05-17T11:15:33Z</time>
      </trkpt>
      <trkpt lat="42.282237" lon="-4.465644">
        <ele>844.4385586380959</ele>
        <time>2022-05-17T11:15:41Z</time>
      </trkpt>
      <trkpt lat="42.282301" lon="-4.465752">
        <ele>844.3952440610155</ele>
        <time>2022-05-17T11:15:49Z</time>
      </trkpt>
      <trkpt lat="42.282367" lon="-4.465854">
        <ele>844.9261341420934</ele>
        <time>2022-05-17T11:15:56Z</time>
      </trkpt>
      <trkpt lat="42.282428" lon="-4.465944">
        <ele>844.7501339064911</ele>
        <time>2022-05-17T11:16:02Z</time>
      </trkpt>
      <trkpt lat="42.282483" lon="-4.466045">
        <ele>845.1541535612196</ele>
        <time>2022-05-17T11:16:09Z</time>
      </trkpt>
      <trkpt lat="42.28255" lon="-4.466132">
        <ele>844.899406304583</ele>
        <time>2022-05-17T11:16:18Z</time>
      </trkpt>
      <trkpt lat="42.28261" lon="-4.466225">
        <ele>845.4682870730758</ele>
        <time>2022-05-17T11:16:26Z</time>
      </trkpt>
      <trkpt lat="42.282675" lon="-4.466316">
        <ele>846.1887669786811</ele>
        <time>2022-05-17T11:16:35Z</time>
      </trkpt>
      <trkpt lat="42.282741" lon="-4.466419">
        <ele>845.9727543052286</ele>
        <time>2022-05-17T11:16:43Z</time>
      </trkpt>
      <trkpt lat="42.282804" lon="-4.466516">
        <ele>845.9138929238543</ele>
        <time>2022-05-17T11:16:50Z</time>
      </trkpt>
      <trkpt lat="42.282863" lon="-4.466621">
        <ele>846.4726140964776</ele>
        <time>2022-05-17T11:16:57Z</time>
      </trkpt>
      <trkpt lat="42.282923" lon="-4.466718">
        <ele>847.3161986293271</ele>
        <time>2022-05-17T11:17:05Z</time>
      </trkpt>
      <trkpt lat="42.282995" lon="-4.466807">
        <ele>848.0417481223121</ele>
        <time>2022-05-17T11:17:14Z</time>
      </trkpt>
      <trkpt lat="42.283061" lon="-4.466897">
        <ele>847.5103399893269</ele>
        <time>2022-05-17T11:17:21Z</time>
      </trkpt>
      <trkpt lat="42.28312" lon="-4.467002">
        <ele>847.2803230537102</ele>
        <time>2022-05-17T11:17:29Z</time>
      </trkpt>
      <trkpt lat="42.283185" lon="-4.467108">
        <ele>846.8510113274679</ele>
        <time>2022-05-17T11:17:37Z</time>
      </trkpt>
      <trkpt lat="42.283248" lon="-4.467197">
        <ele>845.9853156609461</ele>
        <time>2022-05-17T11:17:44Z</time>
      </trkpt>
      <trkpt lat="42.283314" lon="-4.467301">
        <ele>844.0773058095947</ele>
        <time>2022-05-17T11:17:52Z</time>
      </trkpt>
      <trkpt lat="42.283379" lon="-4.467404">
        <ele>842.9030287638307</ele>
        <time>2022-05-17T11:18:00Z</time>
      </trkpt>
      <trkpt lat="42.283433" lon="-4.467516">
        <ele>842.8401670195162</ele>
        <time>2022-05-17T11:18:10Z</time>
      </trkpt>
      <trkpt lat="42.283496" lon="-4.467604">
        <ele>842.368000424467</ele>
        <time>2022-05-17T11:18:28Z</time>
      </trkpt>
      <trkpt lat="42.283551" lon="-4.467704">
        <ele>843.5083155222237</ele>
        <time>2022-05-17T11:18:55Z</time>
      </trkpt>
      <trkpt lat="42.283618" lon="-4.467795">
        <ele>843.1466190768406</ele>
        <time>2022-05-17T11:19:03Z</time>
      </trkpt>
      <trkpt lat="42.283682" lon="-4.467891">
        <ele>843.0506562581286</ele>
        <time>2022-05-17T11:19:13Z</time>
      </trkpt>
      <trkpt lat="42.283737" lon="-4.468002">
        <ele>843.3665548088029</ele>
        <time>2022-05-17T11:19:22Z</time>
      </trkpt>
      <trkpt lat="42.283806" lon="-4.468104">
        <ele>841.5057079764083</ele>
        <time>2022-05-17T11:19:32Z</time>
      </trkpt>
      <trkpt lat="42.283873" lon="-4.468202">
        <ele>841.3497610613704</ele>
        <time>2022-05-17T11:19:39Z</time>
      </trkpt>
      <trkpt lat="42.283921" lon="-4.468319">
        <ele>841.1420120894909</ele>
        <time>2022-05-17T11:19:46Z</time>
      </trkpt>
      <trkpt lat="42.283984" lon="-4.468423">
        <ele>840.7537832008675</ele>
        <time>2022-05-17T11:19:54Z</time>
      </trkpt>
      <trkpt lat="42.284054" lon="-4.468518">
        <ele>840.3994493754581</ele>
        <time>2022-05-17T11:20:02Z</time>
      </trkpt>
      <trkpt lat="42.284116" lon="-4.468625">
        <ele>840.7631407510489</ele>
        <time>2022-05-17T11:20:11Z</time>
      </trkpt>
      <trkpt lat="42.284165" lon="-4.468727">
        <ele>841.4813589612022</ele>
        <time>2022-05-17T11:20:19Z</time>
      </trkpt>
      <trkpt lat="42.284223" lon="-4.468831">
        <ele>841.8813098166138</ele>
        <time>2022-05-17T11:20:27Z</time>
      </trkpt>
      <trkpt lat="42.284292" lon="-4.46892">
        <ele>842.8029626822099</ele>
        <time>2022-05-17T11:20:34Z</time>
      </trkpt>
      <trkpt lat="42.284352" lon="-4.469027">
        <ele>843.0106852967292</ele>
        <time>2022-05-17T11:20:41Z</time>
      </trkpt>
      <trkpt lat="42.284412" lon="-4.469126">
        <ele>843.3579413946718</ele>
        <time>2022-05-17T11:20:48Z</time>
      </trkpt>
      <trkpt lat="42.284462" lon="-4.469237">
        <ele>844.0994600998238</ele>
        <time>2022-05-17T11:20:56Z</time>
      </trkpt>
      <trkpt lat="42.284531" lon="-4.469329">
        <ele>844.5427161622792</ele>
        <time>2022-05-17T11:21:04Z</time>
      </trkpt>
      <trkpt lat="42.284599" lon="-4.469424">
        <ele>843.882218265906</ele>
        <time>2022-05-17T11:21:11Z</time>
      </trkpt>
      <trkpt lat="42.284665" lon="-4.469514">
        <ele>843.882058066316</ele>
        <time>2022-05-17T11:21:19Z</time>
      </trkpt>
      <trkpt lat="42.284726" lon="-4.469627">
        <ele>843.1263806158677</ele>
        <time>2022-05-17T11:21:26Z</time>
      </trkpt>
      <trkpt lat="42.284799" lon="-4.469724">
        <ele>844.1403524233028</ele>
        <time>2022-05-17T11:21:35Z</time>
      </trkpt>
      <trkpt lat="42.284866" lon="-4.469818">
        <ele>845.831178332679</ele>
        <time>2022-05-17T11:21:43Z</time>
      </trkpt>
      <trkpt lat="42.28492" lon="-4.469921">
        <ele>845.2935999296606</ele>
        <time>2022-05-17T11:21:51Z</time>
      </trkpt>
      <trkpt lat="42.284984" lon="-4.470019">
        <ele>845.1279646120965</ele>
        <time>2022-05-17T11:21:59Z</time>
      </trkpt>
      <trkpt lat="42.285042" lon="-4.470127">
        <ele>845.2384741883725</ele>
        <time>2022-05-17T11:22:07Z</time>
      </trkpt>
      <trkpt lat="42.285106" lon="-4.470227">
        <ele>845.8598728803918</ele>
        <time>2022-05-17T11:22:15Z</time>
      </trkpt>
      <trkpt lat="42.28517" lon="-4.470337">
        <ele>846.0082382988185</ele>
        <time>2022-05-17T11:22:23Z</time>
      </trkpt>
      <trkpt lat="42.285232" lon="-4.470439">
        <ele>845.6695426516235</ele>
        <time>2022-05-17T11:22:31Z</time>
      </trkpt>
      <trkpt lat="42.2853" lon="-4.470524">
        <ele>844.1357349129394</ele>
        <time>2022-05-17T11:22:38Z</time>
      </trkpt>
      <trkpt lat="42.285364" lon="-4.470649">
        <ele>844.8764576381072</ele>
        <time>2022-05-17T11:22:47Z</time>
      </trkpt>
      <trkpt lat="42.285417" lon="-4.470754">
        <ele>845.0747725395486</ele>
        <time>2022-05-17T11:22:57Z</time>
      </trkpt>
      <trkpt lat="42.285495" lon="-4.470836">
        <ele>843.4733362430707</ele>
        <time>2022-05-17T11:23:09Z</time>
      </trkpt>
      <trkpt lat="42.285566" lon="-4.470926">
        <ele>843.032684750855</ele>
        <time>2022-05-17T11:23:19Z</time>
      </trkpt>
      <trkpt lat="42.285635" lon="-4.471008">
        <ele>843.1332477256656</ele>
        <time>2022-05-17T11:23:26Z</time>
      </trkpt>
      <trkpt lat="42.285698" lon="-4.471096">
        <ele>843.3224392840639</ele>
        <time>2022-05-17T11:23:32Z</time>
      </trkpt>
      <trkpt lat="42.285752" lon="-4.471204">
        <ele>842.4162784460932</ele>
        <time>2022-05-17T11:23:39Z</time>
      </trkpt>
      <trkpt lat="42.285818" lon="-4.471299">
        <ele>843.2071939809248</ele>
        <time>2022-05-17T11:23:47Z</time>
      </trkpt>
      <trkpt lat="42.28588" lon="-4.471408">
        <ele>843.9730872511864</ele>
        <time>2022-05-17T11:23:55Z</time>
      </trkpt>
      <trkpt lat="42.285933" lon="-4.471511">
        <ele>845.8105461224914</ele>
        <time>2022-05-17T11:24:03Z</time>
      </trkpt>
      <trkpt lat="42.285975" lon="-4.471621">
        <ele>846.8799204966053</ele>
        <time>2022-05-17T11:24:10Z</time>
      </trkpt>
      <trkpt lat="42.286036" lon="-4.471718">
        <ele>847.7055263081565</ele>
        <time>2022-05-17T11:24:17Z</time>
      </trkpt>
      <trkpt lat="42.286102" lon="-4.471816">
        <ele>849.1545597361401</ele>
        <time>2022-05-17T11:24:25Z</time>
      </trkpt>
      <trkpt lat="42.286158" lon="-4.471917">
        <ele>850.9825078388676</ele>
        <time>2022-05-17T11:24:33Z</time>
      </trkpt>
      <trkpt lat="42.286229" lon="-4.472009">
        <ele>850.844053728506</ele>
        <time>2022-05-17T11:24:42Z</time>
      </trkpt>
      <trkpt lat="42.2863" lon="-4.472106">
        <ele>849.0009900806472</ele>
        <time>2022-05-17T11:24:54Z</time>
      </trkpt>
      <trkpt lat="42.286349" lon="-4.472212">
        <ele>848.9740015231073</ele>
        <time>2022-05-17T11:25:02Z</time>
      </trkpt>
      <trkpt lat="42.286415" lon="-4.472296">
        <ele>848.8256865637377</ele>
        <time>2022-05-17T11:25:09Z</time>
      </trkpt>
      <trkpt lat="42.286463" lon="-4.472406">
        <ele>849.9901340855286</ele>
        <time>2022-05-17T11:25:17Z</time>
      </trkpt>
      <trkpt lat="42.286532" lon="-4.472498">
        <ele>850.317888208665</ele>
        <time>2022-05-17T11:25:25Z</time>
      </trkpt>
      <trkpt lat="42.286594" lon="-4.4726">
        <ele>849.5206038057804</ele>
        <time>2022-05-17T11:25:32Z</time>
      </trkpt>
      <trkpt lat="42.28665" lon="-4.472696">
        <ele>848.424750062637</ele>
        <time>2022-05-17T11:25:39Z</time>
      </trkpt>
      <trkpt lat="42.28671" lon="-4.472792">
        <ele>847.8470927551389</ele>
        <time>2022-05-17T11:25:47Z</time>
      </trkpt>
      <trkpt lat="42.286775" lon="-4.472891">
        <ele>847.7179007157683</ele>
        <time>2022-05-17T11:25:55Z</time>
      </trkpt>
      <trkpt lat="42.286844" lon="-4.472982">
        <ele>847.4099351353943</ele>
        <time>2022-05-17T11:26:08Z</time>
      </trkpt>
      <trkpt lat="42.286895" lon="-4.473092">
        <ele>847.1557091353461</ele>
        <time>2022-05-17T11:26:18Z</time>
      </trkpt>
      <trkpt lat="42.28697" lon="-4.473182">
        <ele>847.7939194655046</ele>
        <time>2022-05-17T11:26:25Z</time>
      </trkpt>
      <trkpt lat="42.287048" lon="-4.473255">
        <ele>847.0949372248724</ele>
        <time>2022-05-17T11:26:32Z</time>
      </trkpt>
      <trkpt lat="42.287126" lon="-4.473326">
        <ele>846.3013836052269</ele>
        <time>2022-05-17T11:26:40Z</time>
      </trkpt>
      <trkpt lat="42.287205" lon="-4.47339">
        <ele>846.5103259123862</ele>
        <time>2022-05-17T11:26:47Z</time>
      </trkpt>
      <trkpt lat="42.287286" lon="-4.473471">
        <ele>846.4054017160088</ele>
        <time>2022-05-17T11:26:53Z</time>
      </trkpt>
      <trkpt lat="42.287343" lon="-4.473566">
        <ele>846.879604510963</ele>
        <time>2022-05-17T11:26:59Z</time>
      </trkpt>
      <trkpt lat="42.287402" lon="-4.473665">
        <ele>847.9531280528754</ele>
        <time>2022-05-17T11:27:06Z</time>
      </trkpt>
      <trkpt lat="42.287469" lon="-4.473761">
        <ele>848.1331079266965</ele>
        <time>2022-05-17T11:27:14Z</time>
      </trkpt>
      <trkpt lat="42.287525" lon="-4.473856">
        <ele>847.3295936593786</ele>
        <time>2022-05-17T11:27:21Z</time>
      </trkpt>
      <trkpt lat="42.287569" lon="-4.473967">
        <ele>848.2214553970844</ele>
        <time>2022-05-17T11:27:27Z</time>
      </trkpt>
      <trkpt lat="42.287627" lon="-4.474061">
        <ele>847.6715857312083</ele>
        <time>2022-05-17T11:27:33Z</time>
      </trkpt>
      <trkpt lat="42.287682" lon="-4.474172">
        <ele>847.8699523964897</ele>
        <time>2022-05-17T11:27:41Z</time>
      </trkpt>
      <trkpt lat="42.287745" lon="-4.474276">
        <ele>848.0026874719188</ele>
        <time>2022-05-17T11:27:49Z</time>
      </trkpt>
      <trkpt lat="42.287813" lon="-4.474376">
        <ele>848.1662805238739</ele>
        <time>2022-05-17T11:27:57Z</time>
      </trkpt>
      <trkpt lat="42.287889" lon="-4.474474">
        <ele>848.5223504370078</ele>
        <time>2022-05-17T11:28:04Z</time>
      </trkpt>
      <trkpt lat="42.287947" lon="-4.47457">
        <ele>848.234745551832</ele>
        <time>2022-05-17T11:28:11Z</time>
      </trkpt>
      <trkpt lat="42.288005" lon="-4.474681">
        <ele>849.404368522577</ele>
        <time>2022-05-17T11:28:19Z</time>
      </trkpt>
      <trkpt lat="42.288074" lon="-4.474787">
        <ele>849.7442482905462</ele>
        <time>2022-05-17T11:28:27Z</time>
      </trkpt>
      <trkpt lat="42.288138" lon="-4.474893">
        <ele>849.0053991787136</ele>
        <time>2022-05-17T11:28:34Z</time>
      </trkpt>
      <trkpt lat="42.2882" lon="-4.474995">
        <ele>848.762859210372</ele>
        <time>2022-05-17T11:28:41Z</time>
      </trkpt>
      <trkpt lat="42.288257" lon="-4.475093">
        <ele>849.2019392848015</ele>
        <time>2022-05-17T11:28:49Z</time>
      </trkpt>
      <trkpt lat="42.288323" lon="-4.475195">
        <ele>849.3830102281645</ele>
        <time>2022-05-17T11:28:57Z</time>
      </trkpt>
      <trkpt lat="42.288374" lon="-4.475305">
        <ele>850.2229169784114</ele>
        <time>2022-05-17T11:29:04Z</time>
      </trkpt>
      <trkpt lat="42.288426" lon="-4.47542">
        <ele>851.0640142541379</ele>
        <time>2022-05-17T11:29:12Z</time>
      </trkpt>
      <trkpt lat="42.288486" lon="-4.475513">
        <ele>851.0995677961037</ele>
        <time>2022-05-17T11:29:20Z</time>
      </trkpt>
      <trkpt lat="42.288547" lon="-4.475605">
        <ele>850.7170179951936</ele>
        <time>2022-05-17T11:29:27Z</time>
      </trkpt>
      <trkpt lat="42.288599" lon="-4.475706">
        <ele>850.3807862447575</ele>
        <time>2022-05-17T11:29:33Z</time>
      </trkpt>
      <trkpt lat="42.288654" lon="-4.475811">
        <ele>851.548121762462</ele>
        <time>2022-05-17T11:29:40Z</time>
      </trkpt>
      <trkpt lat="42.288728" lon="-4.475894">
        <ele>851.5346663957462</ele>
        <time>2022-05-17T11:29:48Z</time>
      </trkpt>
      <trkpt lat="42.288802" lon="-4.475968">
        <ele>852.0369790839031</ele>
        <time>2022-05-17T11:29:56Z</time>
      </trkpt>
      <trkpt lat="42.288866" lon="-4.476063">
        <ele>852.1260381853208</ele>
        <time>2022-05-17T11:30:03Z</time>
      </trkpt>
      <trkpt lat="42.288922" lon="-4.476164">
        <ele>852.3618892515078</ele>
        <time>2022-05-17T11:30:10Z</time>
      </trkpt>
      <trkpt lat="42.288987" lon="-4.476256">
        <ele>852.8711881386116</ele>
        <time>2022-05-17T11:30:18Z</time>
      </trkpt>
      <trkpt lat="42.289058" lon="-4.476344">
        <ele>852.9727931562811</ele>
        <time>2022-05-17T11:30:25Z</time>
      </trkpt>
      <trkpt lat="42.289132" lon="-4.476436">
        <ele>853.1575947459787</ele>
        <time>2022-05-17T11:30:38Z</time>
      </trkpt>
      <trkpt lat="42.289207" lon="-4.476514">
        <ele>852.4125305721536</ele>
        <time>2022-05-17T11:30:45Z</time>
      </trkpt>
      <trkpt lat="42.289284" lon="-4.476598">
        <ele>852.2624652143568</ele>
        <time>2022-05-17T11:30:55Z</time>
      </trkpt>
      <trkpt lat="42.28935" lon="-4.476696">
        <ele>853.2148253563792</ele>
        <time>2022-05-17T11:31:03Z</time>
      </trkpt>
      <trkpt lat="42.289426" lon="-4.476785">
        <ele>852.9606338134035</ele>
        <time>2022-05-17T11:31:10Z</time>
      </trkpt>
      <trkpt lat="42.289494" lon="-4.476866">
        <ele>851.5721518499777</ele>
        <time>2022-05-17T11:31:17Z</time>
      </trkpt>
      <trkpt lat="42.289564" lon="-4.476948">
        <ele>852.1981236329302</ele>
        <time>2022-05-17T11:31:26Z</time>
      </trkpt>
      <trkpt lat="42.289634" lon="-4.477037">
        <ele>852.6937696924433</ele>
        <time>2022-05-17T11:31:34Z</time>
      </trkpt>
      <trkpt lat="42.289704" lon="-4.477122">
        <ele>852.8325990252197</ele>
        <time>2022-05-17T11:31:42Z</time>
      </trkpt>
      <trkpt lat="42.289773" lon="-4.477219">
        <ele>852.7149298572913</ele>
        <time>2022-05-17T11:31:50Z</time>
      </trkpt>
      <trkpt lat="42.289845" lon="-4.47731">
        <ele>851.7137271389365</ele>
        <time>2022-05-17T11:31:57Z</time>
      </trkpt>
      <trkpt lat="42.289926" lon="-4.477396">
        <ele>851.0457442626357</ele>
        <time>2022-05-17T11:32:05Z</time>
      </trkpt>
      <trkpt lat="42.289995" lon="-4.477475">
        <ele>852.3139892565086</ele>
        <time>2022-05-17T11:32:12Z</time>
      </trkpt>
      <trkpt lat="42.290074" lon="-4.477559">
        <ele>853.3053663736209</ele>
        <time>2022-05-17T11:32:20Z</time>
      </trkpt>
      <trkpt lat="42.29015" lon="-4.47765">
        <ele>853.9152320390567</ele>
        <time>2022-05-17T11:32:27Z</time>
      </trkpt>
      <trkpt lat="42.290227" lon="-4.477729">
        <ele>853.8362318845466</ele>
        <time>2022-05-17T11:33:02Z</time>
      </trkpt>
      <trkpt lat="42.290298" lon="-4.477812">
        <ele>853.3610627856106</ele>
        <time>2022-05-17T11:33:09Z</time>
      </trkpt>
      <trkpt lat="42.290376" lon="-4.477896">
        <ele>854.0366329811513</ele>
        <time>2022-05-17T11:33:17Z</time>
      </trkpt>
      <trkpt lat="42.29045" lon="-4.477973">
        <ele>855.0254971012473</ele>
        <time>2022-05-17T11:33:26Z</time>
      </trkpt>
      <trkpt lat="42.290521" lon="-4.478061">
        <ele>855.14243310038</ele>
        <time>2022-05-17T11:33:33Z</time>
      </trkpt>
      <trkpt lat="42.290597" lon="-4.478137">
        <ele>855.2734684552997</ele>
        <time>2022-05-17T11:33:41Z</time>
      </trkpt>
      <trkpt lat="42.290674" lon="-4.478208">
        <ele>855.052911227569</ele>
        <time>2022-05-17T11:33:49Z</time>
      </trkpt>
      <trkpt lat="42.290749" lon="-4.478277">
        <ele>854.6209656139836</ele>
        <time>2022-05-17T11:33:56Z</time>
      </trkpt>
      <trkpt lat="42.29083" lon="-4.47835">
        <ele>854.0837566964328</ele>
        <time>2022-05-17T11:34:20Z</time>
      </trkpt>
      <trkpt lat="42.290897" lon="-4.478436">
        <ele>853.5558295063674</ele>
        <time>2022-05-17T11:34:38Z</time>
      </trkpt>
      <trkpt lat="42.290972" lon="-4.478525">
        <ele>853.2512964149937</ele>
        <time>2022-05-17T11:34:46Z</time>
      </trkpt>
      <trkpt lat="42.291059" lon="-4.478589">
        <ele>853.0391709543765</ele>
        <time>2022-05-17T11:34:56Z</time>
      </trkpt>
      <trkpt lat="42.291143" lon="-4.478647">
        <ele>853.1015763534233</ele>
        <time>2022-05-17T11:35:04Z</time>
      </trkpt>
      <trkpt lat="42.291228" lon="-4.478715">
        <ele>851.9250148553401</ele>
        <time>2022-05-17T11:35:14Z</time>
      </trkpt>
      <trkpt lat="42.291289" lon="-4.478808">
        <ele>852.2530900221318</ele>
        <time>2022-05-17T11:35:21Z</time>
      </trkpt>
      <trkpt lat="42.291371" lon="-4.47889">
        <ele>852.9411503057927</ele>
        <time>2022-05-17T11:35:29Z</time>
      </trkpt>
      <trkpt lat="42.291448" lon="-4.478965">
        <ele>854.0182515215129</ele>
        <time>2022-05-17T11:35:36Z</time>
      </trkpt>
      <trkpt lat="42.291525" lon="-4.479049">
        <ele>853.92165426258</ele>
        <time>2022-05-17T11:35:46Z</time>
      </trkpt>
      <trkpt lat="42.291594" lon="-4.479132">
        <ele>854.2382024107501</ele>
        <time>2022-05-17T11:35:54Z</time>
      </trkpt>
      <trkpt lat="42.291688" lon="-4.479183">
        <ele>854.10431484133</ele>
        <time>2022-05-17T11:36:03Z</time>
      </trkpt>
      <trkpt lat="42.291762" lon="-4.479258">
        <ele>854.0087729385123</ele>
        <time>2022-05-17T11:36:10Z</time>
      </trkpt>
      <trkpt lat="42.291847" lon="-4.479319">
        <ele>853.8660708665848</ele>
        <time>2022-05-17T11:36:18Z</time>
      </trkpt>
      <trkpt lat="42.291932" lon="-4.479377">
        <ele>853.2235046587884</ele>
        <time>2022-05-17T11:36:27Z</time>
      </trkpt>
      <trkpt lat="42.292012" lon="-4.47945">
        <ele>852.9211233658716</ele>
        <time>2022-05-17T11:36:36Z</time>
      </trkpt>
      <trkpt lat="42.292091" lon="-4.479523">
        <ele>851.9704320635647</ele>
        <time>2022-05-17T11:36:44Z</time>
      </trkpt>
      <trkpt lat="42.292174" lon="-4.479583">
        <ele>851.2639870624989</ele>
        <time>2022-05-17T11:36:52Z</time>
      </trkpt>
      <trkpt lat="42.292252" lon="-4.479666">
        <ele>851.3146356977522</ele>
        <time>2022-05-17T11:37:00Z</time>
      </trkpt>
      <trkpt lat="42.292322" lon="-4.479747">
        <ele>851.7250856934115</ele>
        <time>2022-05-17T11:37:09Z</time>
      </trkpt>
      <trkpt lat="42.292418" lon="-4.479773">
        <ele>851.9893291592598</ele>
        <time>2022-05-17T11:37:22Z</time>
      </trkpt>
      <trkpt lat="42.292486" lon="-4.479855">
        <ele>851.5558469742537</ele>
        <time>2022-05-17T11:37:30Z</time>
      </trkpt>
      <trkpt lat="42.29257" lon="-4.479912">
        <ele>850.3365689180791</ele>
        <time>2022-05-17T11:37:39Z</time>
      </trkpt>
      <trkpt lat="42.292652" lon="-4.479987">
        <ele>848.7501541692764</ele>
        <time>2022-05-17T11:37:48Z</time>
      </trkpt>
      <trkpt lat="42.29273" lon="-4.480055">
        <ele>848.3706040922552</ele>
        <time>2022-05-17T11:37:55Z</time>
      </trkpt>
      <trkpt lat="42.292805" lon="-4.480127">
        <ele>848.5484139239416</ele>
        <time>2022-05-17T11:38:01Z</time>
      </trkpt>
      <trkpt lat="42.292892" lon="-4.48019">
        <ele>849.7247286709026</ele>
        <time>2022-05-17T11:38:09Z</time>
      </trkpt>
      <trkpt lat="42.292976" lon="-4.480263">
        <ele>849.4042722191662</ele>
        <time>2022-05-17T11:38:18Z</time>
      </trkpt>
      <trkpt lat="42.293054" lon="-4.480351">
        <ele>849.5846333745867</ele>
        <time>2022-05-17T11:38:25Z</time>
      </trkpt>
      <trkpt lat="42.293114" lon="-4.480443">
        <ele>849.503618625924</ele>
        <time>2022-05-17T11:38:32Z</time>
      </trkpt>
      <trkpt lat="42.293204" lon="-4.480514">
        <ele>852.6834561554715</ele>
        <time>2022-05-17T11:38:38Z</time>
      </trkpt>
      <trkpt lat="42.293278" lon="-4.480594">
        <ele>853.6566589735448</ele>
        <time>2022-05-17T11:38:44Z</time>
      </trkpt>
      <trkpt lat="42.293351" lon="-4.480678">
        <ele>853.2106448058039</ele>
        <time>2022-05-17T11:39:06Z</time>
      </trkpt>
      <trkpt lat="42.293422" lon="-4.480773">
        <ele>851.8139952067286</ele>
        <time>2022-05-17T11:39:14Z</time>
      </trkpt>
      <trkpt lat="42.293451" lon="-4.480892">
        <ele>850.6814551260322</ele>
        <time>2022-05-17T11:39:34Z</time>
      </trkpt>
      <trkpt lat="42.293505" lon="-4.481">
        <ele>852.3750195624307</ele>
        <time>2022-05-17T11:39:43Z</time>
      </trkpt>
      <trkpt lat="42.29359" lon="-4.481074">
        <ele>851.1755943261087</ele>
        <time>2022-05-17T11:39:53Z</time>
      </trkpt>
      <trkpt lat="42.293637" lon="-4.481185">
        <ele>848.6932369843125</ele>
        <time>2022-05-17T11:40:01Z</time>
      </trkpt>
      <trkpt lat="42.293695" lon="-4.48129">
        <ele>848.6444854736328</ele>
        <time>2022-05-17T11:40:08Z</time>
      </trkpt>
      <trkpt lat="42.293771" lon="-4.48137">
        <ele>849.2564145587385</ele>
        <time>2022-05-17T11:40:16Z</time>
      </trkpt>
      <trkpt lat="42.293801" lon="-4.481487">
        <ele>851.2007793858647</ele>
        <time>2022-05-17T11:40:26Z</time>
      </trkpt>
      <trkpt lat="42.293813" lon="-4.481614">
        <ele>852.1929899286479</ele>
        <time>2022-05-17T11:40:48Z</time>
      </trkpt>
      <trkpt lat="42.293761" lon="-4.481736">
        <ele>857.3956732871011</ele>
        <time>2022-05-17T11:44:02Z</time>
      </trkpt>
      <trkpt lat="42.293756" lon="-4.481867">
        <ele>854.49811029993</ele>
        <time>2022-05-17T11:50:05Z</time>
      </trkpt>
      <trkpt lat="42.293742" lon="-4.48199">
        <ele>855.3680048575625</ele>
        <time>2022-05-17T11:50:19Z</time>
      </trkpt>
      <trkpt lat="42.293734" lon="-4.482122">
        <ele>856.3018876379356</ele>
        <time>2022-05-17T11:50:29Z</time>
      </trkpt>
      <trkpt lat="42.293733" lon="-4.482251">
        <ele>855.4764021420851</ele>
        <time>2022-05-17T11:50:34Z</time>
      </trkpt>
      <trkpt lat="42.293738" lon="-4.482386">
        <ele>854.5925253499299</ele>
        <time>2022-05-17T11:50:43Z</time>
      </trkpt>
      <trkpt lat="42.293748" lon="-4.482513">
        <ele>853.1042895605788</ele>
        <time>2022-05-17T11:50:49Z</time>
      </trkpt>
      <trkpt lat="42.293757" lon="-4.482635">
        <ele>852.0565072987229</ele>
        <time>2022-05-17T11:50:56Z</time>
      </trkpt>
      <trkpt lat="42.293817" lon="-4.482731">
        <ele>851.4031512541696</ele>
        <time>2022-05-17T11:51:05Z</time>
      </trkpt>
      <trkpt lat="42.293844" lon="-4.482853">
        <ele>850.1595499413088</ele>
        <time>2022-05-17T11:51:15Z</time>
      </trkpt>
      <trkpt lat="42.29387" lon="-4.482974">
        <ele>851.3182280110195</ele>
        <time>2022-05-17T11:51:22Z</time>
      </trkpt>
      <trkpt lat="42.293916" lon="-4.483096">
        <ele>852.585204558447</ele>
        <time>2022-05-17T11:51:30Z</time>
      </trkpt>
      <trkpt lat="42.293942" lon="-4.483216">
        <ele>853.3764114771038</ele>
        <time>2022-05-17T11:51:37Z</time>
      </trkpt>
      <trkpt lat="42.293935" lon="-4.483354">
        <ele>852.601498211734</ele>
        <time>2022-05-17T11:51:47Z</time>
      </trkpt>
      <trkpt lat="42.293842" lon="-4.483406">
        <ele>851.588788899593</ele>
        <time>2022-05-17T11:51:56Z</time>
      </trkpt>
      <trkpt lat="42.293769" lon="-4.483482">
        <ele>849.7612247141078</ele>
        <time>2022-05-17T11:52:04Z</time>
      </trkpt>
      <trkpt lat="42.293711" lon="-4.483583">
        <ele>847.8492703149095</ele>
        <time>2022-05-17T11:52:12Z</time>
      </trkpt>
      <trkpt lat="42.293734" lon="-4.483707">
        <ele>847.6474229404703</ele>
        <time>2022-05-17T11:52:21Z</time>
      </trkpt>
      <trkpt lat="42.293792" lon="-4.483818">
        <ele>846.8196472106501</ele>
        <time>2022-05-17T11:52:32Z</time>
      </trkpt>
      <trkpt lat="42.293805" lon="-4.483946">
        <ele>849.052032190375</ele>
        <time>2022-05-17T11:52:42Z</time>
      </trkpt>
      <trkpt lat="42.293821" lon="-4.484068">
        <ele>850.218498531729</ele>
        <time>2022-05-17T11:52:51Z</time>
      </trkpt>
      <trkpt lat="42.293852" lon="-4.48419">
        <ele>849.4381170552224</ele>
        <time>2022-05-17T11:53:02Z</time>
      </trkpt>
      <trkpt lat="42.293892" lon="-4.484301">
        <ele>850.8107087388635</ele>
        <time>2022-05-17T11:53:11Z</time>
      </trkpt>
      <trkpt lat="42.293913" lon="-4.484433">
        <ele>851.356799537316</ele>
        <time>2022-05-17T11:53:19Z</time>
      </trkpt>
      <trkpt lat="42.293931" lon="-4.484554">
        <ele>850.8359121736139</ele>
        <time>2022-05-17T11:53:28Z</time>
      </trkpt>
      <trkpt lat="42.293957" lon="-4.48467">
        <ele>850.6714538503438</ele>
        <time>2022-05-17T11:53:37Z</time>
      </trkpt>
      <trkpt lat="42.293959" lon="-4.484798">
        <ele>851.7870370121673</ele>
        <time>2022-05-17T11:53:46Z</time>
      </trkpt>
      <trkpt lat="42.293994" lon="-4.484923">
        <ele>852.1697994358838</ele>
        <time>2022-05-17T11:53:55Z</time>
      </trkpt>
      <trkpt lat="42.294026" lon="-4.485042">
        <ele>853.3056501885876</ele>
        <time>2022-05-17T11:54:07Z</time>
      </trkpt>
      <trkpt lat="42.294052" lon="-4.485163">
        <ele>854.6373567515984</ele>
        <time>2022-05-17T11:54:13Z</time>
      </trkpt>
      <trkpt lat="42.294067" lon="-4.485295">
        <ele>856.9379700897262</ele>
        <time>2022-05-17T11:54:23Z</time>
      </trkpt>
      <trkpt lat="42.294081" lon="-4.485422">
        <ele>857.9914101473987</ele>
        <time>2022-05-17T11:54:33Z</time>
      </trkpt>
      <trkpt lat="42.294096" lon="-4.485548">
        <ele>855.860592123121</ele>
        <time>2022-05-17T11:54:55Z</time>
      </trkpt>
      <trkpt lat="42.294098" lon="-4.485677">
        <ele>855.9496444677934</ele>
        <time>2022-05-17T11:55:02Z</time>
      </trkpt>
      <trkpt lat="42.294113" lon="-4.4858">
        <ele>855.2489119283855</ele>
        <time>2022-05-17T11:55:10Z</time>
      </trkpt>
      <trkpt lat="42.294136" lon="-4.485935">
        <ele>854.6644033258781</ele>
        <time>2022-05-17T11:55:17Z</time>
      </trkpt>
      <trkpt lat="42.294158" lon="-4.486071">
        <ele>854.8576729279011</ele>
        <time>2022-05-17T11:55:24Z</time>
      </trkpt>
      <trkpt lat="42.294183" lon="-4.486201">
        <ele>853.7029505455866</ele>
        <time>2022-05-17T11:55:31Z</time>
      </trkpt>
      <trkpt lat="42.294214" lon="-4.48633">
        <ele>852.8146712295711</ele>
        <time>2022-05-17T11:55:41Z</time>
      </trkpt>
      <trkpt lat="42.294249" lon="-4.486443">
        <ele>854.2756106806919</ele>
        <time>2022-05-17T11:55:47Z</time>
      </trkpt>
      <trkpt lat="42.29429" lon="-4.486553">
        <ele>854.7467868039384</ele>
        <time>2022-05-17T11:55:53Z</time>
      </trkpt>
      <trkpt lat="42.294334" lon="-4.48667">
        <ele>855.6166861755773</ele>
        <time>2022-05-17T11:56:00Z</time>
      </trkpt>
      <trkpt lat="42.29438" lon="-4.486793">
        <ele>856.1138848681003</ele>
        <time>2022-05-17T11:56:08Z</time>
      </trkpt>
      <trkpt lat="42.294405" lon="-4.486911">
        <ele>855.4434805000201</ele>
        <time>2022-05-17T11:56:16Z</time>
      </trkpt>
      <trkpt lat="42.294438" lon="-4.48703">
        <ele>855.4327778564766</ele>
        <time>2022-05-17T11:56:22Z</time>
      </trkpt>
      <trkpt lat="42.29449" lon="-4.487146">
        <ele>854.6951660262421</ele>
        <time>2022-05-17T11:56:30Z</time>
      </trkpt>
      <trkpt lat="42.294545" lon="-4.487244">
        <ele>854.5387275423855</ele>
        <time>2022-05-17T11:56:36Z</time>
      </trkpt>
      <trkpt lat="42.294566" lon="-4.487372">
        <ele>854.1516691092402</ele>
        <time>2022-05-17T11:56:46Z</time>
      </trkpt>
      <trkpt lat="42.294607" lon="-4.487494">
        <ele>853.1077181482688</ele>
        <time>2022-05-17T11:56:53Z</time>
      </trkpt>
      <trkpt lat="42.294677" lon="-4.487594">
        <ele>852.4060478918254</ele>
        <time>2022-05-17T11:57:00Z</time>
      </trkpt>
      <trkpt lat="42.294733" lon="-4.487705">
        <ele>852.5082379588857</ele>
        <time>2022-05-17T11:57:06Z</time>
      </trkpt>
      <trkpt lat="42.294772" lon="-4.487823">
        <ele>852.7136052036658</ele>
        <time>2022-05-17T11:57:12Z</time>
      </trkpt>
      <trkpt lat="42.294831" lon="-4.487933">
        <ele>852.6387493005022</ele>
        <time>2022-05-17T11:57:19Z</time>
      </trkpt>
      <trkpt lat="42.294876" lon="-4.488055">
        <ele>851.413559217006</ele>
        <time>2022-05-17T11:57:28Z</time>
      </trkpt>
      <trkpt lat="42.294931" lon="-4.488164">
        <ele>850.1958017721772</ele>
        <time>2022-05-17T11:57:36Z</time>
      </trkpt>
      <trkpt lat="42.294992" lon="-4.48828">
        <ele>849.9380956143141</ele>
        <time>2022-05-17T11:57:43Z</time>
      </trkpt>
      <trkpt lat="42.295043" lon="-4.488388">
        <ele>849.6198617164046</ele>
        <time>2022-05-17T11:57:49Z</time>
      </trkpt>
      <trkpt lat="42.29509" lon="-4.488501">
        <ele>848.4035947229713</ele>
        <time>2022-05-17T11:57:56Z</time>
      </trkpt>
      <trkpt lat="42.295141" lon="-4.488615">
        <ele>847.8627769434825</ele>
        <time>2022-05-17T11:58:03Z</time>
      </trkpt>
      <trkpt lat="42.29519" lon="-4.488733">
        <ele>847.8437941726297</ele>
        <time>2022-05-17T11:58:12Z</time>
      </trkpt>
      <trkpt lat="42.295233" lon="-4.488841">
        <ele>847.9660365758464</ele>
        <time>2022-05-17T11:58:20Z</time>
      </trkpt>
      <trkpt lat="42.295294" lon="-4.488953">
        <ele>849.0339426267892</ele>
        <time>2022-05-17T11:58:28Z</time>
      </trkpt>
      <trkpt lat="42.295363" lon="-4.489044">
        <ele>848.6385643305257</ele>
        <time>2022-05-17T11:58:35Z</time>
      </trkpt>
      <trkpt lat="42.295424" lon="-4.489143">
        <ele>846.8370489338413</ele>
        <time>2022-05-17T11:58:43Z</time>
      </trkpt>
      <trkpt lat="42.295479" lon="-4.489241">
        <ele>844.6847970848903</ele>
        <time>2022-05-17T11:58:51Z</time>
      </trkpt>
      <trkpt lat="42.295545" lon="-4.489336">
        <ele>844.7114164922386</ele>
        <time>2022-05-17T11:58:58Z</time>
      </trkpt>
      <trkpt lat="42.295616" lon="-4.489434">
        <ele>845.2787680504844</ele>
        <time>2022-05-17T11:59:05Z</time>
      </trkpt>
      <trkpt lat="42.295678" lon="-4.489531">
        <ele>844.2417983356863</ele>
        <time>2022-05-17T11:59:14Z</time>
      </trkpt>
      <trkpt lat="42.295738" lon="-4.489633">
        <ele>843.0586304189637</ele>
        <time>2022-05-17T11:59:26Z</time>
      </trkpt>
      <trkpt lat="42.295788" lon="-4.489743">
        <ele>842.6485798964277</ele>
        <time>2022-05-17T11:59:34Z</time>
      </trkpt>
      <trkpt lat="42.29585" lon="-4.489842">
        <ele>843.2262440063059</ele>
        <time>2022-05-17T11:59:42Z</time>
      </trkpt>
      <trkpt lat="42.295917" lon="-4.489935">
        <ele>844.3728033425286</ele>
        <time>2022-05-17T11:59:50Z</time>
      </trkpt>
      <trkpt lat="42.295986" lon="-4.490031">
        <ele>843.4773198459297</ele>
        <time>2022-05-17T11:59:58Z</time>
      </trkpt>
      <trkpt lat="42.296051" lon="-4.490131">
        <ele>840.9099970599636</ele>
        <time>2022-05-17T12:00:07Z</time>
      </trkpt>
      <trkpt lat="42.296114" lon="-4.490226">
        <ele>839.3431988488883</ele>
        <time>2022-05-17T12:00:14Z</time>
      </trkpt>
      <trkpt lat="42.296167" lon="-4.490335">
        <ele>838.6684553083032</ele>
        <time>2022-05-17T12:00:23Z</time>
      </trkpt>
      <trkpt lat="42.296228" lon="-4.490434">
        <ele>837.6379715707153</ele>
        <time>2022-05-17T12:00:33Z</time>
      </trkpt>
      <trkpt lat="42.296285" lon="-4.490545">
        <ele>838.4658170575276</ele>
        <time>2022-05-17T12:00:41Z</time>
      </trkpt>
      <trkpt lat="42.296346" lon="-4.490641">
        <ele>837.6698792856187</ele>
        <time>2022-05-17T12:00:49Z</time>
      </trkpt>
      <trkpt lat="42.296404" lon="-4.490743">
        <ele>837.6096999868751</ele>
        <time>2022-05-17T12:00:58Z</time>
      </trkpt>
      <trkpt lat="42.296463" lon="-4.490848">
        <ele>838.2355419397354</ele>
        <time>2022-05-17T12:01:07Z</time>
      </trkpt>
      <trkpt lat="42.296539" lon="-4.490958">
        <ele>837.520261483267</ele>
        <time>2022-05-17T12:01:17Z</time>
      </trkpt>
      <trkpt lat="42.2966" lon="-4.491074">
        <ele>838.6003200691193</ele>
        <time>2022-05-17T12:01:27Z</time>
      </trkpt>
      <trkpt lat="42.296673" lon="-4.491187">
        <ele>837.9985692156479</ele>
        <time>2022-05-17T12:01:37Z</time>
      </trkpt>
      <trkpt lat="42.296733" lon="-4.491293">
        <ele>837.515880966559</ele>
        <time>2022-05-17T12:01:45Z</time>
      </trkpt>
      <trkpt lat="42.296795" lon="-4.491402">
        <ele>838.0038084145635</ele>
        <time>2022-05-17T12:01:54Z</time>
      </trkpt>
      <trkpt lat="42.29685" lon="-4.4915">
        <ele>838.6388815538958</ele>
        <time>2022-05-17T12:02:01Z</time>
      </trkpt>
      <trkpt lat="42.296907" lon="-4.491613">
        <ele>839.0425309464335</ele>
        <time>2022-05-17T12:02:08Z</time>
      </trkpt>
      <trkpt lat="42.296968" lon="-4.491714">
        <ele>839.0983542054892</ele>
        <time>2022-05-17T12:02:14Z</time>
      </trkpt>
      <trkpt lat="42.297027" lon="-4.491822">
        <ele>839.3977233879268</ele>
        <time>2022-05-17T12:02:21Z</time>
      </trkpt>
      <trkpt lat="42.29709" lon="-4.491916">
        <ele>840.4712611055002</ele>
        <time>2022-05-17T12:03:35Z</time>
      </trkpt>
      <trkpt lat="42.297138" lon="-4.492037">
        <ele>840.1379207754508</ele>
        <time>2022-05-17T12:03:44Z</time>
      </trkpt>
      <trkpt lat="42.297186" lon="-4.492145">
        <ele>839.9905838752165</ele>
        <time>2022-05-17T12:03:52Z</time>
      </trkpt>
      <trkpt lat="42.297227" lon="-4.492257">
        <ele>840.970362925902</ele>
        <time>2022-05-17T12:04:14Z</time>
      </trkpt>
      <trkpt lat="42.297275" lon="-4.492363">
        <ele>841.9582434240729</ele>
        <time>2022-05-17T12:04:21Z</time>
      </trkpt>
      <trkpt lat="42.297336" lon="-4.492473">
        <ele>842.6042001033202</ele>
        <time>2022-05-17T12:04:29Z</time>
      </trkpt>
      <trkpt lat="42.297385" lon="-4.492596">
        <ele>842.9232634156942</ele>
        <time>2022-05-17T12:04:36Z</time>
      </trkpt>
      <trkpt lat="42.29745" lon="-4.492704">
        <ele>844.2120051961392</ele>
        <time>2022-05-17T12:04:42Z</time>
      </trkpt>
      <trkpt lat="42.297524" lon="-4.492792">
        <ele>843.7178565617651</ele>
        <time>2022-05-17T12:04:50Z</time>
      </trkpt>
      <trkpt lat="42.297593" lon="-4.492882">
        <ele>842.797661758028</ele>
        <time>2022-05-17T12:05:00Z</time>
      </trkpt>
      <trkpt lat="42.297664" lon="-4.492964">
        <ele>840.8088046731427</ele>
        <time>2022-05-17T12:05:12Z</time>
      </trkpt>
      <trkpt lat="42.29773" lon="-4.493048">
        <ele>839.9338615173474</ele>
        <time>2022-05-17T12:05:20Z</time>
      </trkpt>
      <trkpt lat="42.297793" lon="-4.493156">
        <ele>840.144227752462</ele>
        <time>2022-05-17T12:05:28Z</time>
      </trkpt>
      <trkpt lat="42.297862" lon="-4.493251">
        <ele>840.5043862527236</ele>
        <time>2022-05-17T12:05:35Z</time>
      </trkpt>
      <trkpt lat="42.297919" lon="-4.493362">
        <ele>842.064709128812</ele>
        <time>2022-05-17T12:05:42Z</time>
      </trkpt>
      <trkpt lat="42.297966" lon="-4.493468">
        <ele>842.282165328972</ele>
        <time>2022-05-17T12:05:49Z</time>
      </trkpt>
      <trkpt lat="42.298035" lon="-4.493568">
        <ele>843.1746279159561</ele>
        <time>2022-05-17T12:05:57Z</time>
      </trkpt>
      <trkpt lat="42.298083" lon="-4.493689">
        <ele>843.880181979388</ele>
        <time>2022-05-17T12:06:05Z</time>
      </trkpt>
      <trkpt lat="42.298153" lon="-4.493791">
        <ele>843.4230192694813</ele>
        <time>2022-05-17T12:06:12Z</time>
      </trkpt>
      <trkpt lat="42.298216" lon="-4.493882">
        <ele>843.1746751302853</ele>
        <time>2022-05-17T12:06:17Z</time>
      </trkpt>
      <trkpt lat="42.29829" lon="-4.493977">
        <ele>843.3657934749499</ele>
        <time>2022-05-17T12:06:25Z</time>
      </trkpt>
      <trkpt lat="42.298348" lon="-4.49408">
        <ele>843.512789612636</ele>
        <time>2022-05-17T12:06:32Z</time>
      </trkpt>
      <trkpt lat="42.298407" lon="-4.494183">
        <ele>843.7648304626346</ele>
        <time>2022-05-17T12:06:40Z</time>
      </trkpt>
      <trkpt lat="42.298458" lon="-4.494285">
        <ele>843.9606954939663</ele>
        <time>2022-05-17T12:06:46Z</time>
      </trkpt>
      <trkpt lat="42.298511" lon="-4.494386">
        <ele>844.5129216313362</ele>
        <time>2022-05-17T12:06:52Z</time>
      </trkpt>
      <trkpt lat="42.298561" lon="-4.494499">
        <ele>843.497987870127</ele>
        <time>2022-05-17T12:06:59Z</time>
      </trkpt>
      <trkpt lat="42.298614" lon="-4.49461">
        <ele>842.4008121723309</ele>
        <time>2022-05-17T12:07:06Z</time>
      </trkpt>
      <trkpt lat="42.298669" lon="-4.49471">
        <ele>841.5055650221184</ele>
        <time>2022-05-17T12:08:47Z</time>
      </trkpt>
      <trkpt lat="42.298738" lon="-4.494792">
        <ele>841.4555645771325</ele>
        <time>2022-05-17T12:08:54Z</time>
      </trkpt>
      <trkpt lat="42.298811" lon="-4.494886">
        <ele>841.5263686059043</ele>
        <time>2022-05-17T12:09:05Z</time>
      </trkpt>
      <trkpt lat="42.298879" lon="-4.494994">
        <ele>841.6077875634655</ele>
        <time>2022-05-17T12:09:12Z</time>
      </trkpt>
      <trkpt lat="42.298941" lon="-4.495096">
        <ele>842.4098256397992</ele>
        <time>2022-05-17T12:09:20Z</time>
      </trkpt>
      <trkpt lat="42.299002" lon="-4.495186">
        <ele>841.6028917729855</ele>
        <time>2022-05-17T12:09:27Z</time>
      </trkpt>
      <trkpt lat="42.299062" lon="-4.495295">
        <ele>841.3430277481675</ele>
        <time>2022-05-17T12:09:34Z</time>
      </trkpt>
      <trkpt lat="42.299105" lon="-4.495406">
        <ele>841.10721879825</ele>
        <time>2022-05-17T12:09:42Z</time>
      </trkpt>
      <trkpt lat="42.299159" lon="-4.495514">
        <ele>840.4370088493451</ele>
        <time>2022-05-17T12:09:50Z</time>
      </trkpt>
      <trkpt lat="42.299218" lon="-4.495625">
        <ele>839.4359244313091</ele>
        <time>2022-05-17T12:09:58Z</time>
      </trkpt>
      <trkpt lat="42.299271" lon="-4.495743">
        <ele>840.0677073905244</ele>
        <time>2022-05-17T12:10:06Z</time>
      </trkpt>
      <trkpt lat="42.299334" lon="-4.495841">
        <ele>839.3332124492154</ele>
        <time>2022-05-17T12:10:13Z</time>
      </trkpt>
      <trkpt lat="42.299394" lon="-4.495945">
        <ele>838.8537657484412</ele>
        <time>2022-05-17T12:10:21Z</time>
      </trkpt>
      <trkpt lat="42.29946" lon="-4.496055">
        <ele>838.6249337764457</ele>
        <time>2022-05-17T12:10:28Z</time>
      </trkpt>
      <trkpt lat="42.299515" lon="-4.496163">
        <ele>839.5393978394568</ele>
        <time>2022-05-17T12:10:35Z</time>
      </trkpt>
      <trkpt lat="42.299559" lon="-4.496284">
        <ele>839.2036629701033</ele>
        <time>2022-05-17T12:10:43Z</time>
      </trkpt>
      <trkpt lat="42.29962" lon="-4.496379">
        <ele>838.8298973795027</ele>
        <time>2022-05-17T12:10:52Z</time>
      </trkpt>
      <trkpt lat="42.299681" lon="-4.496487">
        <ele>839.7887973356992</ele>
        <time>2022-05-17T12:11:00Z</time>
      </trkpt>
      <trkpt lat="42.29974" lon="-4.496594">
        <ele>841.2523196153343</ele>
        <time>2022-05-17T12:11:08Z</time>
      </trkpt>
      <trkpt lat="42.29981" lon="-4.496687">
        <ele>842.8029947802424</ele>
        <time>2022-05-17T12:11:16Z</time>
      </trkpt>
      <trkpt lat="42.299827" lon="-4.496822">
        <ele>842.208329340443</ele>
        <time>2022-05-17T12:11:25Z</time>
      </trkpt>
      <trkpt lat="42.29983" lon="-4.49695">
        <ele>841.5417560879141</ele>
        <time>2022-05-17T12:11:42Z</time>
      </trkpt>
      <trkpt lat="42.299807" lon="-4.497072">
        <ele>841.7382312063128</ele>
        <time>2022-05-17T12:11:50Z</time>
      </trkpt>
      <trkpt lat="42.299778" lon="-4.4972">
        <ele>843.4795140363276</ele>
        <time>2022-05-17T12:11:56Z</time>
      </trkpt>
      <trkpt lat="42.299745" lon="-4.497325">
        <ele>844.2248788662255</ele>
        <time>2022-05-17T12:12:04Z</time>
      </trkpt>
      <trkpt lat="42.299712" lon="-4.497442">
        <ele>844.8252325262874</ele>
        <time>2022-05-17T12:12:12Z</time>
      </trkpt>
      <trkpt lat="42.299665" lon="-4.497561">
        <ele>843.5923097152263</ele>
        <time>2022-05-17T12:12:21Z</time>
      </trkpt>
      <trkpt lat="42.299622" lon="-4.497669">
        <ele>842.3717395532876</ele>
        <time>2022-05-17T12:12:27Z</time>
      </trkpt>
      <trkpt lat="42.299571" lon="-4.497771">
        <ele>841.0569355878979</ele>
        <time>2022-05-17T12:12:34Z</time>
      </trkpt>
      <trkpt lat="42.299515" lon="-4.497875">
        <ele>839.7801304515451</ele>
        <time>2022-05-17T12:12:43Z</time>
      </trkpt>
      <trkpt lat="42.299474" lon="-4.497985">
        <ele>839.1984327333048</ele>
        <time>2022-05-17T12:12:53Z</time>
      </trkpt>
      <trkpt lat="42.299437" lon="-4.498099">
        <ele>839.3119760304689</ele>
        <time>2022-05-17T12:13:01Z</time>
      </trkpt>
      <trkpt lat="42.299385" lon="-4.498216">
        <ele>838.8464832268655</ele>
        <time>2022-05-17T12:13:08Z</time>
      </trkpt>
      <trkpt lat="42.299332" lon="-4.498316">
        <ele>838.0802550306544</ele>
        <time>2022-05-17T12:13:17Z</time>
      </trkpt>
      <trkpt lat="42.299277" lon="-4.498419">
        <ele>837.9824185594916</ele>
        <time>2022-05-17T12:13:25Z</time>
      </trkpt>
      <trkpt lat="42.299206" lon="-4.49851">
        <ele>837.2613073298708</ele>
        <time>2022-05-17T12:13:32Z</time>
      </trkpt>
      <trkpt lat="42.299139" lon="-4.498601">
        <ele>838.145499642007</ele>
        <time>2022-05-17T12:13:40Z</time>
      </trkpt>
      <trkpt lat="42.299068" lon="-4.498685">
        <ele>837.3619179045781</ele>
        <time>2022-05-17T12:13:51Z</time>
      </trkpt>
      <trkpt lat="42.298986" lon="-4.498745">
        <ele>834.7625333638862</ele>
        <time>2022-05-17T12:14:00Z</time>
      </trkpt>
      <trkpt lat="42.298902" lon="-4.498818">
        <ele>833.7441402114928</ele>
        <time>2022-05-17T12:14:08Z</time>
      </trkpt>
      <trkpt lat="42.298814" lon="-4.49889">
        <ele>832.467004773207</ele>
        <time>2022-05-17T12:14:18Z</time>
      </trkpt>
      <trkpt lat="42.298736" lon="-4.498962">
        <ele>832.3254926446825</ele>
        <time>2022-05-17T12:14:25Z</time>
      </trkpt>
      <trkpt lat="42.298667" lon="-4.499044">
        <ele>833.8833870328963</ele>
        <time>2022-05-17T12:14:34Z</time>
      </trkpt>
      <trkpt lat="42.298579" lon="-4.499103">
        <ele>835.4752435246482</ele>
        <time>2022-05-17T12:14:45Z</time>
      </trkpt>
      <trkpt lat="42.298501" lon="-4.499185">
        <ele>835.7289296453819</ele>
        <time>2022-05-17T12:14:52Z</time>
      </trkpt>
      <trkpt lat="42.298439" lon="-4.499285">
        <ele>834.7832598015666</ele>
        <time>2022-05-17T12:14:59Z</time>
      </trkpt>
      <trkpt lat="42.298353" lon="-4.499351">
        <ele>834.0630985694006</ele>
        <time>2022-05-17T12:15:05Z</time>
      </trkpt>
      <trkpt lat="42.29827" lon="-4.499409">
        <ele>833.9731124667451</ele>
        <time>2022-05-17T12:15:13Z</time>
      </trkpt>
      <trkpt lat="42.298186" lon="-4.499467">
        <ele>833.4475151253864</ele>
        <time>2022-05-17T12:15:23Z</time>
      </trkpt>
      <trkpt lat="42.298097" lon="-4.499494">
        <ele>835.0190033083782</ele>
        <time>2022-05-17T12:15:44Z</time>
      </trkpt>
      <trkpt lat="42.298021" lon="-4.499564">
        <ele>835.3356002550572</ele>
        <time>2022-05-17T12:15:54Z</time>
      </trkpt>
      <trkpt lat="42.297949" lon="-4.499644">
        <ele>836.5019066529348</ele>
        <time>2022-05-17T12:16:06Z</time>
      </trkpt>
      <trkpt lat="42.297856" lon="-4.499607">
        <ele>837.9220084743574</ele>
        <time>2022-05-17T12:16:17Z</time>
      </trkpt>
      <trkpt lat="42.29778" lon="-4.499671">
        <ele>834.5582871194929</ele>
        <time>2022-05-17T12:16:23Z</time>
      </trkpt>
      <trkpt lat="42.297704" lon="-4.499755">
        <ele>833.4775858717039</ele>
        <time>2022-05-17T12:16:31Z</time>
      </trkpt>
      <trkpt lat="42.29765" lon="-4.49986">
        <ele>831.850641163066</ele>
        <time>2022-05-17T12:16:41Z</time>
      </trkpt>
      <trkpt lat="42.297581" lon="-4.499946">
        <ele>830.221002664417</ele>
        <time>2022-05-17T12:16:51Z</time>
      </trkpt>
      <trkpt lat="42.297494" lon="-4.499978">
        <ele>828.8185129631311</ele>
        <time>2022-05-17T12:16:58Z</time>
      </trkpt>
      <trkpt lat="42.297412" lon="-4.500048">
        <ele>829.4911913955584</ele>
        <time>2022-05-17T12:17:06Z</time>
      </trkpt>
      <trkpt lat="42.297326" lon="-4.50011">
        <ele>831.271278379485</ele>
        <time>2022-05-17T12:17:13Z</time>
      </trkpt>
      <trkpt lat="42.297238" lon="-4.500152">
        <ele>832.6315611945465</ele>
        <time>2022-05-17T12:17:19Z</time>
      </trkpt>
      <trkpt lat="42.29716" lon="-4.500229">
        <ele>834.4995301542804</ele>
        <time>2022-05-17T12:17:26Z</time>
      </trkpt>
      <trkpt lat="42.297077" lon="-4.500173">
        <ele>834.9683552756906</ele>
        <time>2022-05-17T12:17:39Z</time>
      </trkpt>
      <trkpt lat="42.297057" lon="-4.500041">
        <ele>838.1189444186166</ele>
        <time>2022-05-17T12:17:48Z</time>
      </trkpt>
      <trkpt lat="42.297114" lon="-4.499935">
        <ele>838.9628075882792</ele>
        <time>2022-05-17T12:17:56Z</time>
      </trkpt>
      <trkpt lat="42.29717" lon="-4.499833">
        <ele>835.6107010478154</ele>
        <time>2022-05-17T12:18:05Z</time>
      </trkpt>
      <trkpt lat="42.297236" lon="-4.499735">
        <ele>833.9526275834069</ele>
        <time>2022-05-17T12:21:10Z</time>
      </trkpt>
      <trkpt lat="42.29732" lon="-4.499686">
        <ele>833.3960052561015</ele>
        <time>2022-05-17T12:21:20Z</time>
      </trkpt>
      <trkpt lat="42.297416" lon="-4.499726">
        <ele>832.3304799003527</ele>
        <time>2022-05-17T12:21:28Z</time>
      </trkpt>
      <trkpt lat="42.297513" lon="-4.49975">
        <ele>833.7887846929953</ele>
        <time>2022-05-17T12:21:35Z</time>
      </trkpt>
      <trkpt lat="42.297604" lon="-4.499789">
        <ele>834.6776005402207</ele>
        <time>2022-05-17T12:21:42Z</time>
      </trkpt>
      <trkpt lat="42.2977" lon="-4.499752">
        <ele>831.6609944505617</ele>
        <time>2022-05-17T12:22:03Z</time>
      </trkpt>
      <trkpt lat="42.297783" lon="-4.499662">
        <ele>828.251502697356</ele>
        <time>2022-05-17T12:22:11Z</time>
      </trkpt>
      <trkpt lat="42.297879" lon="-4.499607">
        <ele>824.8492851760238</ele>
        <time>2022-05-17T12:22:19Z</time>
      </trkpt>
      <trkpt lat="42.297962" lon="-4.499551">
        <ele>823.3787356605753</ele>
        <time>2022-05-17T12:22:27Z</time>
      </trkpt>
      <trkpt lat="42.298061" lon="-4.499575">
        <ele>824.1996876364574</ele>
        <time>2022-05-17T12:22:46Z</time>
      </trkpt>
      <trkpt lat="42.29815" lon="-4.499518">
        <ele>826.1126278126612</ele>
        <time>2022-05-17T12:22:54Z</time>
      </trkpt>
      <trkpt lat="42.298234" lon="-4.499475">
        <ele>827.6786589464173</ele>
        <time>2022-05-17T12:23:01Z</time>
      </trkpt>
      <trkpt lat="42.298321" lon="-4.499398">
        <ele>828.9686480499804</ele>
        <time>2022-05-17T12:23:08Z</time>
      </trkpt>
      <trkpt lat="42.298396" lon="-4.499327">
        <ele>829.1419524950907</ele>
        <time>2022-05-17T12:23:14Z</time>
      </trkpt>
      <trkpt lat="42.298477" lon="-4.499261">
        <ele>830.2681733714417</ele>
        <time>2022-05-17T12:23:23Z</time>
      </trkpt>
      <trkpt lat="42.298576" lon="-4.499227">
        <ele>830.5177930304781</ele>
        <time>2022-05-17T12:23:31Z</time>
      </trkpt>
      <trkpt lat="42.298667" lon="-4.499186">
        <ele>830.4407455790788</ele>
        <time>2022-05-17T12:23:37Z</time>
      </trkpt>
      <trkpt lat="42.298745" lon="-4.499098">
        <ele>832.3901766575873</ele>
        <time>2022-05-17T12:24:01Z</time>
      </trkpt>
      <trkpt lat="42.29882" lon="-4.499014">
        <ele>833.0994895454496</ele>
        <time>2022-05-17T12:24:08Z</time>
      </trkpt>
      <trkpt lat="42.298899" lon="-4.498949">
        <ele>831.1245748903602</ele>
        <time>2022-05-17T12:24:18Z</time>
      </trkpt>
      <trkpt lat="42.298984" lon="-4.498892">
        <ele>830.6938686147332</ele>
        <time>2022-05-17T12:24:26Z</time>
      </trkpt>
      <trkpt lat="42.29906" lon="-4.498821">
        <ele>829.4837097236887</ele>
        <time>2022-05-17T12:24:33Z</time>
      </trkpt>
      <trkpt lat="42.299144" lon="-4.49876">
        <ele>827.5374608989805</ele>
        <time>2022-05-17T12:24:41Z</time>
      </trkpt>
      <trkpt lat="42.299229" lon="-4.498702">
        <ele>826.7729296898469</ele>
        <time>2022-05-17T12:24:48Z</time>
      </trkpt>
      <trkpt lat="42.299295" lon="-4.49861">
        <ele>827.1483769705519</ele>
        <time>2022-05-17T12:24:56Z</time>
      </trkpt>
      <trkpt lat="42.29937" lon="-4.498524">
        <ele>827.2202971326187</ele>
        <time>2022-05-17T12:25:04Z</time>
      </trkpt>
      <trkpt lat="42.299416" lon="-4.498408">
        <ele>827.7562455311418</ele>
        <time>2022-05-17T12:25:11Z</time>
      </trkpt>
      <trkpt lat="42.299452" lon="-4.498289">
        <ele>828.0737280556932</ele>
        <time>2022-05-17T12:25:19Z</time>
      </trkpt>
      <trkpt lat="42.299498" lon="-4.498167">
        <ele>828.2800002479926</ele>
        <time>2022-05-17T12:25:27Z</time>
      </trkpt>
      <trkpt lat="42.299542" lon="-4.498054">
        <ele>828.7800781074911</ele>
        <time>2022-05-17T12:25:34Z</time>
      </trkpt>
      <trkpt lat="42.299587" lon="-4.49794">
        <ele>828.5919811939821</ele>
        <time>2022-05-17T12:25:42Z</time>
      </trkpt>
      <trkpt lat="42.299619" lon="-4.49782">
        <ele>827.4719386650249</ele>
        <time>2022-05-17T12:25:51Z</time>
      </trkpt>
      <trkpt lat="42.299668" lon="-4.497711">
        <ele>827.6192864486948</ele>
        <time>2022-05-17T12:25:58Z</time>
      </trkpt>
      <trkpt lat="42.299728" lon="-4.497613">
        <ele>827.3033200325444</ele>
        <time>2022-05-17T12:26:05Z</time>
      </trkpt>
      <trkpt lat="42.299774" lon="-4.497497">
        <ele>826.9171284995973</ele>
        <time>2022-05-17T12:26:12Z</time>
      </trkpt>
      <trkpt lat="42.299822" lon="-4.497383">
        <ele>826.7724736472592</ele>
        <time>2022-05-17T12:26:20Z</time>
      </trkpt>
      <trkpt lat="42.299876" lon="-4.497284">
        <ele>828.1120513575152</ele>
        <time>2022-05-17T12:26:27Z</time>
      </trkpt>
      <trkpt lat="42.299928" lon="-4.497183">
        <ele>828.58637015149</ele>
        <time>2022-05-17T12:26:34Z</time>
      </trkpt>
      <trkpt lat="42.3" lon="-4.497088">
        <ele>826.9285893868655</ele>
        <time>2022-05-17T12:26:42Z</time>
      </trkpt>
      <trkpt lat="42.300092" lon="-4.497096">
        <ele>829.0460025016218</ele>
        <time>2022-05-17T12:26:52Z</time>
      </trkpt>
      <trkpt lat="42.300172" lon="-4.497165">
        <ele>831.0645098648965</ele>
        <time>2022-05-17T12:27:01Z</time>
      </trkpt>
      <trkpt lat="42.300239" lon="-4.497252">
        <ele>832.6587328407913</ele>
        <time>2022-05-17T12:27:09Z</time>
      </trkpt>
      <trkpt lat="42.300292" lon="-4.497355">
        <ele>833.3262091660872</ele>
        <time>2022-05-17T12:27:17Z</time>
      </trkpt>
      <trkpt lat="42.300344" lon="-4.497469">
        <ele>833.4277438018471</ele>
        <time>2022-05-17T12:27:26Z</time>
      </trkpt>
      <trkpt lat="42.300405" lon="-4.497568">
        <ele>833.7073966590688</ele>
        <time>2022-05-17T12:27:33Z</time>
      </trkpt>
      <trkpt lat="42.300472" lon="-4.497665">
        <ele>833.3316738950089</ele>
        <time>2022-05-17T12:27:41Z</time>
      </trkpt>
      <trkpt lat="42.300534" lon="-4.497761">
        <ele>833.7529113590717</ele>
        <time>2022-05-17T12:27:50Z</time>
      </trkpt>
      <trkpt lat="42.300595" lon="-4.497862">
        <ele>832.952672614716</ele>
        <time>2022-05-17T12:27:58Z</time>
      </trkpt>
      <trkpt lat="42.30065" lon="-4.497959">
        <ele>831.8132159728557</ele>
        <time>2022-05-17T12:28:19Z</time>
      </trkpt>
      <trkpt lat="42.30073" lon="-4.49804">
        <ele>832.5734495464712</ele>
        <time>2022-05-17T12:28:28Z</time>
      </trkpt>
      <trkpt lat="42.300797" lon="-4.498131">
        <ele>833.3624468343332</ele>
        <time>2022-05-17T12:28:35Z</time>
      </trkpt>
      <trkpt lat="42.300869" lon="-4.498221">
        <ele>834.3877730937675</ele>
        <time>2022-05-17T12:28:45Z</time>
      </trkpt>
      <trkpt lat="42.300924" lon="-4.498321">
        <ele>836.6710509173572</ele>
        <time>2022-05-17T12:28:51Z</time>
      </trkpt>
      <trkpt lat="42.300988" lon="-4.498412">
        <ele>837.1500380709767</ele>
        <time>2022-05-17T12:28:58Z</time>
      </trkpt>
      <trkpt lat="42.301051" lon="-4.498503">
        <ele>836.4343876959756</ele>
        <time>2022-05-17T12:29:05Z</time>
      </trkpt>
      <trkpt lat="42.301115" lon="-4.498592">
        <ele>836.9648063993081</ele>
        <time>2022-05-17T12:29:12Z</time>
      </trkpt>
      <trkpt lat="42.301185" lon="-4.498674">
        <ele>837.3127714451402</ele>
        <time>2022-05-17T12:29:19Z</time>
      </trkpt>
      <trkpt lat="42.301258" lon="-4.49876">
        <ele>837.5573168238625</ele>
        <time>2022-05-17T12:29:28Z</time>
      </trkpt>
      <trkpt lat="42.301331" lon="-4.498837">
        <ele>837.6342842755839</ele>
        <time>2022-05-17T12:29:35Z</time>
      </trkpt>
      <trkpt lat="42.301393" lon="-4.49894">
        <ele>838.4456954095513</ele>
        <time>2022-05-17T12:29:43Z</time>
      </trkpt>
      <trkpt lat="42.301464" lon="-4.499019">
        <ele>838.8454645061865</ele>
        <time>2022-05-17T12:29:50Z</time>
      </trkpt>
      <trkpt lat="42.30154" lon="-4.499096">
        <ele>838.7394805783406</ele>
        <time>2022-05-17T12:29:57Z</time>
      </trkpt>
      <trkpt lat="42.30162" lon="-4.499172">
        <ele>839.6834524357691</ele>
        <time>2022-05-17T12:30:05Z</time>
      </trkpt>
      <trkpt lat="42.30169" lon="-4.499254">
        <ele>839.8935373947024</ele>
        <time>2022-05-17T12:30:12Z</time>
      </trkpt>
      <trkpt lat="42.301766" lon="-4.499336">
        <ele>839.7390728564933</ele>
        <time>2022-05-17T12:30:20Z</time>
      </trkpt>
      <trkpt lat="42.301839" lon="-4.499428">
        <ele>840.3311022119597</ele>
        <time>2022-05-17T12:30:29Z</time>
      </trkpt>
      <trkpt lat="42.301894" lon="-4.499545">
        <ele>840.5365383066237</ele>
        <time>2022-05-17T12:30:37Z</time>
      </trkpt>
      <trkpt lat="42.301969" lon="-4.49962">
        <ele>841.5748040284961</ele>
        <time>2022-05-17T12:30:44Z</time>
      </trkpt>
      <trkpt lat="42.302036" lon="-4.499719">
        <ele>841.2818511165679</ele>
        <time>2022-05-17T12:30:52Z</time>
      </trkpt>
      <trkpt lat="42.302107" lon="-4.499814">
        <ele>840.915225927718</ele>
        <time>2022-05-17T12:30:59Z</time>
      </trkpt>
      <trkpt lat="42.302176" lon="-4.499911">
        <ele>840.076943622902</ele>
        <time>2022-05-17T12:31:08Z</time>
      </trkpt>
      <trkpt lat="42.302245" lon="-4.499998">
        <ele>839.8676032545045</ele>
        <time>2022-05-17T12:31:17Z</time>
      </trkpt>
      <trkpt lat="42.302312" lon="-4.50009">
        <ele>840.9633274534717</ele>
        <time>2022-05-17T12:31:25Z</time>
      </trkpt>
      <trkpt lat="42.302373" lon="-4.500184">
        <ele>841.2951681725681</ele>
        <time>2022-05-17T12:31:31Z</time>
      </trkpt>
      <trkpt lat="42.302443" lon="-4.500278">
        <ele>841.0226274132729</ele>
        <time>2022-05-17T12:31:39Z</time>
      </trkpt>
      <trkpt lat="42.302521" lon="-4.500362">
        <ele>842.1673994939774</ele>
        <time>2022-05-17T12:31:46Z</time>
      </trkpt>
      <trkpt lat="42.302592" lon="-4.500458">
        <ele>842.9686055779457</ele>
        <time>2022-05-17T12:31:53Z</time>
      </trkpt>
      <trkpt lat="42.302657" lon="-4.500554">
        <ele>843.5492955511436</ele>
        <time>2022-05-17T12:32:00Z</time>
      </trkpt>
      <trkpt lat="42.302717" lon="-4.500654">
        <ele>844.4724831571802</ele>
        <time>2022-05-17T12:32:07Z</time>
      </trkpt>
      <trkpt lat="42.302792" lon="-4.500747">
        <ele>844.0969620142132</ele>
        <time>2022-05-17T12:32:15Z</time>
      </trkpt>
      <trkpt lat="42.302862" lon="-4.50084">
        <ele>844.2863991884515</ele>
        <time>2022-05-17T12:32:22Z</time>
      </trkpt>
      <trkpt lat="42.302935" lon="-4.500917">
        <ele>844.6544810933992</ele>
        <time>2022-05-17T12:32:29Z</time>
      </trkpt>
      <trkpt lat="42.303" lon="-4.501004">
        <ele>844.8706688443199</ele>
        <time>2022-05-17T12:32:37Z</time>
      </trkpt>
      <trkpt lat="42.303071" lon="-4.501079">
        <ele>844.1747709866613</ele>
        <time>2022-05-17T12:32:44Z</time>
      </trkpt>
      <trkpt lat="42.303146" lon="-4.50117">
        <ele>844.2803869480267</ele>
        <time>2022-05-17T12:32:52Z</time>
      </trkpt>
      <trkpt lat="42.303227" lon="-4.501241">
        <ele>844.3107130927965</ele>
        <time>2022-05-17T12:33:00Z</time>
      </trkpt>
      <trkpt lat="42.303287" lon="-4.501335">
        <ele>844.8830640371889</ele>
        <time>2022-05-17T12:33:08Z</time>
      </trkpt>
      <trkpt lat="42.303368" lon="-4.501416">
        <ele>844.9423116687685</ele>
        <time>2022-05-17T12:33:15Z</time>
      </trkpt>
      <trkpt lat="42.30344" lon="-4.501511">
        <ele>844.2787819150835</ele>
        <time>2022-05-17T12:33:23Z</time>
      </trkpt>
      <trkpt lat="42.303507" lon="-4.501608">
        <ele>842.910538977012</ele>
        <time>2022-05-17T12:33:31Z</time>
      </trkpt>
      <trkpt lat="42.303577" lon="-4.501701">
        <ele>841.8070661677048</ele>
        <time>2022-05-17T12:33:39Z</time>
      </trkpt>
      <trkpt lat="42.30365" lon="-4.501773">
        <ele>840.955770672299</ele>
        <time>2022-05-17T12:33:46Z</time>
      </trkpt>
      <trkpt lat="42.303722" lon="-4.501857">
        <ele>840.8799959532917</ele>
        <time>2022-05-17T12:33:54Z</time>
      </trkpt>
      <trkpt lat="42.30379" lon="-4.501947">
        <ele>841.4826319217682</ele>
        <time>2022-05-17T12:34:01Z</time>
      </trkpt>
      <trkpt lat="42.30386" lon="-4.502041">
        <ele>841.8492191536352</ele>
        <time>2022-05-17T12:34:10Z</time>
      </trkpt>
      <trkpt lat="42.303925" lon="-4.502125">
        <ele>841.4204786354676</ele>
        <time>2022-05-17T12:34:17Z</time>
      </trkpt>
      <trkpt lat="42.303991" lon="-4.502216">
        <ele>841.353802070953</ele>
        <time>2022-05-17T12:34:25Z</time>
      </trkpt>
      <trkpt lat="42.304051" lon="-4.502314">
        <ele>841.8793141478673</ele>
        <time>2022-05-17T12:34:32Z</time>
      </trkpt>
      <trkpt lat="42.30412" lon="-4.502405">
        <ele>844.3051030375063</ele>
        <time>2022-05-17T12:34:39Z</time>
      </trkpt>
      <trkpt lat="42.304183" lon="-4.502497">
        <ele>846.5970014315099</ele>
        <time>2022-05-17T12:34:47Z</time>
      </trkpt>
      <trkpt lat="42.304248" lon="-4.502603">
        <ele>847.2512722164392</ele>
        <time>2022-05-17T12:34:55Z</time>
      </trkpt>
      <trkpt lat="42.304311" lon="-4.502691">
        <ele>847.8159293755889</ele>
        <time>2022-05-17T12:35:02Z</time>
      </trkpt>
      <trkpt lat="42.304379" lon="-4.50279">
        <ele>847.7331241834909</ele>
        <time>2022-05-17T12:35:10Z</time>
      </trkpt>
      <trkpt lat="42.304452" lon="-4.502866">
        <ele>847.5886410400271</ele>
        <time>2022-05-17T12:35:17Z</time>
      </trkpt>
      <trkpt lat="42.304512" lon="-4.502958">
        <ele>847.4576548142359</ele>
        <time>2022-05-17T12:35:25Z</time>
      </trkpt>
      <trkpt lat="42.304577" lon="-4.503045">
        <ele>845.7598492763937</ele>
        <time>2022-05-17T12:35:33Z</time>
      </trkpt>
      <trkpt lat="42.304648" lon="-4.503135">
        <ele>843.787913871929</ele>
        <time>2022-05-17T12:35:42Z</time>
      </trkpt>
      <trkpt lat="42.304716" lon="-4.503215">
        <ele>842.930380855687</ele>
        <time>2022-05-17T12:35:50Z</time>
      </trkpt>
      <trkpt lat="42.30478" lon="-4.503309">
        <ele>842.3505985159427</ele>
        <time>2022-05-17T12:35:57Z</time>
      </trkpt>
      <trkpt lat="42.304842" lon="-4.503399">
        <ele>841.3097643516958</ele>
        <time>2022-05-17T12:36:04Z</time>
      </trkpt>
      <trkpt lat="42.304909" lon="-4.503499">
        <ele>840.677751339972</ele>
        <time>2022-05-17T12:36:12Z</time>
      </trkpt>
      <trkpt lat="42.304975" lon="-4.5036">
        <ele>839.2745222188532</ele>
        <time>2022-05-17T12:36:19Z</time>
      </trkpt>
      <trkpt lat="42.305033" lon="-4.503694">
        <ele>837.6416351208463</ele>
        <time>2022-05-17T12:36:25Z</time>
      </trkpt>
      <trkpt lat="42.305086" lon="-4.503807">
        <ele>837.1407217951491</ele>
        <time>2022-05-17T12:36:32Z</time>
      </trkpt>
      <trkpt lat="42.305145" lon="-4.503901">
        <ele>836.98087894544</ele>
        <time>2022-05-17T12:36:39Z</time>
      </trkpt>
      <trkpt lat="42.305228" lon="-4.503957">
        <ele>836.0742069128901</ele>
        <time>2022-05-17T12:36:47Z</time>
      </trkpt>
      <trkpt lat="42.30531" lon="-4.504028">
        <ele>838.0986523423344</ele>
        <time>2022-05-17T12:36:57Z</time>
      </trkpt>
      <trkpt lat="42.305387" lon="-4.504092">
        <ele>839.1143966196105</ele>
        <time>2022-05-17T12:37:04Z</time>
      </trkpt>
      <trkpt lat="42.305464" lon="-4.50416">
        <ele>839.3075897460803</ele>
        <time>2022-05-17T12:37:11Z</time>
      </trkpt>
      <trkpt lat="42.305536" lon="-4.504251">
        <ele>841.5037304721773</ele>
        <time>2022-05-17T12:37:18Z</time>
      </trkpt>
      <trkpt lat="42.305604" lon="-4.504333">
        <ele>841.4631365602836</ele>
        <time>2022-05-17T12:37:25Z</time>
      </trkpt>
      <trkpt lat="42.305672" lon="-4.504425">
        <ele>841.1972259897739</ele>
        <time>2022-05-17T12:37:34Z</time>
      </trkpt>
      <trkpt lat="42.305748" lon="-4.504501">
        <ele>840.2879409585148</ele>
        <time>2022-05-17T12:37:42Z</time>
      </trkpt>
      <trkpt lat="42.305814" lon="-4.504601">
        <ele>840.5460749017075</ele>
        <time>2022-05-17T12:37:51Z</time>
      </trkpt>
      <trkpt lat="42.305883" lon="-4.504689">
        <ele>840.8270287057385</ele>
        <time>2022-05-17T12:37:59Z</time>
      </trkpt>
      <trkpt lat="42.305953" lon="-4.504788">
        <ele>840.7032586615533</ele>
        <time>2022-05-17T12:38:07Z</time>
      </trkpt>
      <trkpt lat="42.306025" lon="-4.504873">
        <ele>841.758491255343</ele>
        <time>2022-05-17T12:38:15Z</time>
      </trkpt>
      <trkpt lat="42.306095" lon="-4.504978">
        <ele>842.0289668738842</ele>
        <time>2022-05-17T12:38:23Z</time>
      </trkpt>
      <trkpt lat="42.306157" lon="-4.505068">
        <ele>841.7459153216332</ele>
        <time>2022-05-17T12:38:29Z</time>
      </trkpt>
      <trkpt lat="42.306238" lon="-4.505159">
        <ele>841.5758820259944</ele>
        <time>2022-05-17T12:38:37Z</time>
      </trkpt>
      <trkpt lat="42.306302" lon="-4.505254">
        <ele>841.0095539782196</ele>
        <time>2022-05-17T12:38:44Z</time>
      </trkpt>
      <trkpt lat="42.306373" lon="-4.505343">
        <ele>842.401673797518</ele>
        <time>2022-05-17T12:38:51Z</time>
      </trkpt>
      <trkpt lat="42.30645" lon="-4.505417">
        <ele>842.9404898015782</ele>
        <time>2022-05-17T12:38:58Z</time>
      </trkpt>
      <trkpt lat="42.306527" lon="-4.505494">
        <ele>841.460079873912</ele>
        <time>2022-05-17T12:39:12Z</time>
      </trkpt>
      <trkpt lat="42.306588" lon="-4.505588">
        <ele>841.7065756423399</ele>
        <time>2022-05-17T12:39:21Z</time>
      </trkpt>
      <trkpt lat="42.306641" lon="-4.505687">
        <ele>841.6767706722021</ele>
        <time>2022-05-17T12:39:27Z</time>
      </trkpt>
      <trkpt lat="42.3067" lon="-4.505788">
        <ele>841.5707607446238</ele>
        <time>2022-05-17T12:39:34Z</time>
      </trkpt>
      <trkpt lat="42.306765" lon="-4.505873">
        <ele>842.4290836332366</ele>
        <time>2022-05-17T12:39:41Z</time>
      </trkpt>
      <trkpt lat="42.306824" lon="-4.505973">
        <ele>844.3004943029955</ele>
        <time>2022-05-17T12:39:48Z</time>
      </trkpt>
      <trkpt lat="42.306885" lon="-4.506071">
        <ele>845.7910136254504</ele>
        <time>2022-05-17T12:39:55Z</time>
      </trkpt>
      <trkpt lat="42.30695" lon="-4.506167">
        <ele>845.7786441016942</ele>
        <time>2022-05-17T12:40:03Z</time>
      </trkpt>
      <trkpt lat="42.307017" lon="-4.506266">
        <ele>847.6977671096101</ele>
        <time>2022-05-17T12:40:11Z</time>
      </trkpt>
      <trkpt lat="42.307077" lon="-4.506379">
        <ele>848.7658228641376</ele>
        <time>2022-05-17T12:40:18Z</time>
      </trkpt>
      <trkpt lat="42.307148" lon="-4.506461">
        <ele>849.6623013429344</ele>
        <time>2022-05-17T12:40:24Z</time>
      </trkpt>
      <trkpt lat="42.307211" lon="-4.506557">
        <ele>851.5390767930076</ele>
        <time>2022-05-17T12:40:31Z</time>
      </trkpt>
      <trkpt lat="42.307278" lon="-4.506646">
        <ele>852.131333053112</ele>
        <time>2022-05-17T12:40:38Z</time>
      </trkpt>
      <trkpt lat="42.307342" lon="-4.506743">
        <ele>852.2548238644376</ele>
        <time>2022-05-17T12:40:45Z</time>
      </trkpt>
      <trkpt lat="42.307401" lon="-4.506846">
        <ele>853.2592260483652</ele>
        <time>2022-05-17T12:40:52Z</time>
      </trkpt>
      <trkpt lat="42.307454" lon="-4.506951">
        <ele>851.3813265543431</ele>
        <time>2022-05-17T12:41:00Z</time>
      </trkpt>
      <trkpt lat="42.30749" lon="-4.507067">
        <ele>849.7244614213705</ele>
        <time>2022-05-17T12:41:07Z</time>
      </trkpt>
      <trkpt lat="42.307527" lon="-4.507188">
        <ele>849.2173509290442</ele>
        <time>2022-05-17T12:41:13Z</time>
      </trkpt>
      <trkpt lat="42.307543" lon="-4.507316">
        <ele>848.3467754395679</ele>
        <time>2022-05-17T12:41:21Z</time>
      </trkpt>
      <trkpt lat="42.307575" lon="-4.507436">
        <ele>846.1472888188437</ele>
        <time>2022-05-17T12:41:29Z</time>
      </trkpt>
      <trkpt lat="42.307666" lon="-4.507492">
        <ele>843.9587627062574</ele>
        <time>2022-05-17T12:41:38Z</time>
      </trkpt>
      <trkpt lat="42.307754" lon="-4.507522">
        <ele>843.4667000435293</ele>
        <time>2022-05-17T12:41:45Z</time>
      </trkpt>
      <trkpt lat="42.307829" lon="-4.507595">
        <ele>844.7541566826403</ele>
        <time>2022-05-17T12:41:53Z</time>
      </trkpt>
      <trkpt lat="42.307876" lon="-4.507707">
        <ele>847.9657585714012</ele>
        <time>2022-05-17T12:42:01Z</time>
      </trkpt>
      <trkpt lat="42.307914" lon="-4.507832">
        <ele>849.6615031780675</ele>
        <time>2022-05-17T12:42:09Z</time>
      </trkpt>
      <trkpt lat="42.30796" lon="-4.507953">
        <ele>849.9859431562945</ele>
        <time>2022-05-17T12:42:17Z</time>
      </trkpt>
      <trkpt lat="42.30801" lon="-4.508076">
        <ele>850.3114774497226</ele>
        <time>2022-05-17T12:42:25Z</time>
      </trkpt>
      <trkpt lat="42.308062" lon="-4.508189">
        <ele>851.7150275511667</ele>
        <time>2022-05-17T12:42:33Z</time>
      </trkpt>
      <trkpt lat="42.30811" lon="-4.508303">
        <ele>851.324718776159</ele>
        <time>2022-05-17T12:42:40Z</time>
      </trkpt>
      <trkpt lat="42.308163" lon="-4.50842">
        <ele>851.9976408248767</ele>
        <time>2022-05-17T12:42:48Z</time>
      </trkpt>
      <trkpt lat="42.308212" lon="-4.508542">
        <ele>852.2607315229252</ele>
        <time>2022-05-17T12:42:56Z</time>
      </trkpt>
      <trkpt lat="42.308267" lon="-4.508653">
        <ele>852.1775903953239</ele>
        <time>2022-05-17T12:43:03Z</time>
      </trkpt>
      <trkpt lat="42.30833" lon="-4.508755">
        <ele>853.0214904760942</ele>
        <time>2022-05-17T12:43:10Z</time>
      </trkpt>
      <trkpt lat="42.30839" lon="-4.508855">
        <ele>853.5726577406749</ele>
        <time>2022-05-17T12:43:17Z</time>
      </trkpt>
      <trkpt lat="42.308444" lon="-4.508963">
        <ele>854.2893433617428</ele>
        <time>2022-05-17T12:43:23Z</time>
      </trkpt>
      <trkpt lat="42.308497" lon="-4.509078">
        <ele>854.5235045710579</ele>
        <time>2022-05-17T12:43:31Z</time>
      </trkpt>
      <trkpt lat="42.308549" lon="-4.509196">
        <ele>854.5244996510446</ele>
        <time>2022-05-17T12:43:39Z</time>
      </trkpt>
      <trkpt lat="42.308593" lon="-4.509316">
        <ele>853.8371122237295</ele>
        <time>2022-05-17T12:43:48Z</time>
      </trkpt>
      <trkpt lat="42.308636" lon="-4.509427">
        <ele>853.3939377274364</ele>
        <time>2022-05-17T12:43:56Z</time>
      </trkpt>
      <trkpt lat="42.308683" lon="-4.509532">
        <ele>853.2264045886695</ele>
        <time>2022-05-17T12:44:03Z</time>
      </trkpt>
      <trkpt lat="42.308742" lon="-4.509634">
        <ele>852.0241995221004</ele>
        <time>2022-05-17T12:44:11Z</time>
      </trkpt>
      <trkpt lat="42.308791" lon="-4.509738">
        <ele>851.0850888229907</ele>
        <time>2022-05-17T12:44:18Z</time>
      </trkpt>
      <trkpt lat="42.308847" lon="-4.509855">
        <ele>849.9694073470309</ele>
        <time>2022-05-17T12:44:25Z</time>
      </trkpt>
      <trkpt lat="42.308899" lon="-4.509971">
        <ele>850.2638338776305</ele>
        <time>2022-05-17T12:44:33Z</time>
      </trkpt>
      <trkpt lat="42.308957" lon="-4.510082">
        <ele>853.0595201263204</ele>
        <time>2022-05-17T12:44:40Z</time>
      </trkpt>
      <trkpt lat="42.309023" lon="-4.510168">
        <ele>854.4059617882594</ele>
        <time>2022-05-17T12:44:48Z</time>
      </trkpt>
      <trkpt lat="42.309087" lon="-4.51027">
        <ele>856.0120217977092</ele>
        <time>2022-05-17T12:44:55Z</time>
      </trkpt>
      <trkpt lat="42.309138" lon="-4.510379">
        <ele>856.4715993665159</ele>
        <time>2022-05-17T12:45:02Z</time>
      </trkpt>
      <trkpt lat="42.309208" lon="-4.510476">
        <ele>856.6298450054601</ele>
        <time>2022-05-17T12:45:10Z</time>
      </trkpt>
      <trkpt lat="42.309266" lon="-4.510581">
        <ele>857.4455245351419</ele>
        <time>2022-05-17T12:45:17Z</time>
      </trkpt>
      <trkpt lat="42.309323" lon="-4.51068">
        <ele>856.9119208231568</ele>
        <time>2022-05-17T12:45:25Z</time>
      </trkpt>
      <trkpt lat="42.309374" lon="-4.510794">
        <ele>856.3464336264879</ele>
        <time>2022-05-17T12:45:33Z</time>
      </trkpt>
      <trkpt lat="42.309427" lon="-4.510904">
        <ele>855.4297076789662</ele>
        <time>2022-05-17T12:45:42Z</time>
      </trkpt>
      <trkpt lat="42.309482" lon="-4.511011">
        <ele>855.0150541132316</ele>
        <time>2022-05-17T12:45:50Z</time>
      </trkpt>
      <trkpt lat="42.30953" lon="-4.511121">
        <ele>854.2249414203689</ele>
        <time>2022-05-17T12:45:58Z</time>
      </trkpt>
      <trkpt lat="42.309584" lon="-4.511235">
        <ele>852.4724749624729</ele>
        <time>2022-05-17T12:46:09Z</time>
      </trkpt>
      <trkpt lat="42.309648" lon="-4.511339">
        <ele>852.8651852477342</ele>
        <time>2022-05-17T12:46:19Z</time>
      </trkpt>
      <trkpt lat="42.309702" lon="-4.511441">
        <ele>852.3404006259516</ele>
        <time>2022-05-17T12:46:26Z</time>
      </trkpt>
      <trkpt lat="42.309765" lon="-4.511543">
        <ele>852.8010408133268</ele>
        <time>2022-05-17T12:46:34Z</time>
      </trkpt>
      <trkpt lat="42.309827" lon="-4.511648">
        <ele>853.1148463599384</ele>
        <time>2022-05-17T12:46:43Z</time>
      </trkpt>
      <trkpt lat="42.309904" lon="-4.511737">
        <ele>853.3840191569179</ele>
        <time>2022-05-17T12:46:51Z</time>
      </trkpt>
      <trkpt lat="42.309969" lon="-4.511821">
        <ele>853.941452681087</ele>
        <time>2022-05-17T12:46:59Z</time>
      </trkpt>
      <trkpt lat="42.310039" lon="-4.511908">
        <ele>854.6639430010691</ele>
        <time>2022-05-17T12:47:06Z</time>
      </trkpt>
      <trkpt lat="42.310117" lon="-4.511982">
        <ele>855.0028199655935</ele>
        <time>2022-05-17T12:47:14Z</time>
      </trkpt>
      <trkpt lat="42.310192" lon="-4.512064">
        <ele>855.166150351055</ele>
        <time>2022-05-17T12:47:21Z</time>
      </trkpt>
      <trkpt lat="42.310265" lon="-4.512144">
        <ele>855.4376667048782</ele>
        <time>2022-05-17T12:47:28Z</time>
      </trkpt>
      <trkpt lat="42.310341" lon="-4.512229">
        <ele>856.0853088861331</ele>
        <time>2022-05-17T12:47:35Z</time>
      </trkpt>
      <trkpt lat="42.310419" lon="-4.512314">
        <ele>856.1467516198754</ele>
        <time>2022-05-17T12:47:43Z</time>
      </trkpt>
      <trkpt lat="42.310487" lon="-4.512407">
        <ele>855.4426274243742</ele>
        <time>2022-05-17T12:47:51Z</time>
      </trkpt>
      <trkpt lat="42.310554" lon="-4.512491">
        <ele>853.6820173542947</ele>
        <time>2022-05-17T12:47:59Z</time>
      </trkpt>
      <trkpt lat="42.310624" lon="-4.512569">
        <ele>851.8686739988625</ele>
        <time>2022-05-17T12:48:06Z</time>
      </trkpt>
      <trkpt lat="42.310696" lon="-4.512667">
        <ele>851.9734403816983</ele>
        <time>2022-05-17T12:48:13Z</time>
      </trkpt>
      <trkpt lat="42.310763" lon="-4.51275">
        <ele>850.6224439619109</ele>
        <time>2022-05-17T12:48:24Z</time>
      </trkpt>
      <trkpt lat="42.310855" lon="-4.512785">
        <ele>847.6924205375835</ele>
        <time>2022-05-17T12:48:39Z</time>
      </trkpt>
      <trkpt lat="42.310939" lon="-4.512851">
        <ele>848.674458745867</ele>
        <time>2022-05-17T12:48:46Z</time>
      </trkpt>
      <trkpt lat="42.311025" lon="-4.512913">
        <ele>851.114723071456</ele>
        <time>2022-05-17T12:48:53Z</time>
      </trkpt>
      <trkpt lat="42.311112" lon="-4.512979">
        <ele>852.258332407102</ele>
        <time>2022-05-17T12:49:00Z</time>
      </trkpt>
      <trkpt lat="42.311193" lon="-4.513045">
        <ele>853.8417242914438</ele>
        <time>2022-05-17T12:49:07Z</time>
      </trkpt>
      <trkpt lat="42.311263" lon="-4.513128">
        <ele>854.7076189192012</ele>
        <time>2022-05-17T12:49:15Z</time>
      </trkpt>
      <trkpt lat="42.311333" lon="-4.513215">
        <ele>855.6461953604594</ele>
        <time>2022-05-17T12:49:24Z</time>
      </trkpt>
      <trkpt lat="42.311413" lon="-4.5133">
        <ele>854.922141556628</ele>
        <time>2022-05-17T12:49:33Z</time>
      </trkpt>
      <trkpt lat="42.311488" lon="-4.513384">
        <ele>854.4330354649574</ele>
        <time>2022-05-17T12:49:41Z</time>
      </trkpt>
      <trkpt lat="42.311573" lon="-4.513448">
        <ele>855.1356454221532</ele>
        <time>2022-05-17T12:49:50Z</time>
      </trkpt>
      <trkpt lat="42.311651" lon="-4.513537">
        <ele>855.6024805000052</ele>
        <time>2022-05-17T12:49:59Z</time>
      </trkpt>
      <trkpt lat="42.311725" lon="-4.513631">
        <ele>856.4178601643071</ele>
        <time>2022-05-17T12:50:07Z</time>
      </trkpt>
      <trkpt lat="42.311805" lon="-4.513696">
        <ele>857.8496384182945</ele>
        <time>2022-05-17T12:50:14Z</time>
      </trkpt>
      <trkpt lat="42.311887" lon="-4.51376">
        <ele>857.7366783376783</ele>
        <time>2022-05-17T12:50:23Z</time>
      </trkpt>
      <trkpt lat="42.311966" lon="-4.513846">
        <ele>857.0016478942707</ele>
        <time>2022-05-17T12:50:31Z</time>
      </trkpt>
      <trkpt lat="42.312029" lon="-4.513935">
        <ele>855.4235350145027</ele>
        <time>2022-05-17T12:50:49Z</time>
      </trkpt>
      <trkpt lat="42.31209" lon="-4.514029">
        <ele>850.7625239472836</ele>
        <time>2022-05-17T12:51:17Z</time>
      </trkpt>
      <trkpt lat="42.312161" lon="-4.514105">
        <ele>849.3333523869514</ele>
        <time>2022-05-17T12:51:33Z</time>
      </trkpt>
      <trkpt lat="42.312238" lon="-4.514179">
        <ele>849.4888731697574</ele>
        <time>2022-05-17T12:51:42Z</time>
      </trkpt>
      <trkpt lat="42.312324" lon="-4.514235">
        <ele>850.9762283340096</ele>
        <time>2022-05-17T12:51:50Z</time>
      </trkpt>
      <trkpt lat="42.312412" lon="-4.514281">
        <ele>852.531241892837</ele>
        <time>2022-05-17T12:51:58Z</time>
      </trkpt>
      <trkpt lat="42.312494" lon="-4.514341">
        <ele>853.7993739983067</ele>
        <time>2022-05-17T12:52:05Z</time>
      </trkpt>
      <trkpt lat="42.312583" lon="-4.514402">
        <ele>854.6077805254608</ele>
        <time>2022-05-17T12:52:14Z</time>
      </trkpt>
      <trkpt lat="42.312669" lon="-4.514448">
        <ele>855.4568605618551</ele>
        <time>2022-05-17T12:52:21Z</time>
      </trkpt>
      <trkpt lat="42.312762" lon="-4.51449">
        <ele>855.5221085408702</ele>
        <time>2022-05-17T12:52:28Z</time>
      </trkpt>
      <trkpt lat="42.312843" lon="-4.514552">
        <ele>854.3514412967488</ele>
        <time>2022-05-17T12:52:35Z</time>
      </trkpt>
      <trkpt lat="42.312936" lon="-4.514591">
        <ele>854.8443402172998</ele>
        <time>2022-05-17T12:52:41Z</time>
      </trkpt>
      <trkpt lat="42.313025" lon="-4.514653">
        <ele>853.7623951453716</ele>
        <time>2022-05-17T12:52:48Z</time>
      </trkpt>
      <trkpt lat="42.313121" lon="-4.514686">
        <ele>852.4197769649327</ele>
        <time>2022-05-17T12:52:56Z</time>
      </trkpt>
      <trkpt lat="42.313215" lon="-4.514713">
        <ele>853.1755764503032</ele>
        <time>2022-05-17T12:53:02Z</time>
      </trkpt>
      <trkpt lat="42.313307" lon="-4.514746">
        <ele>852.4455977808684</ele>
        <time>2022-05-17T12:53:12Z</time>
      </trkpt>
      <trkpt lat="42.313395" lon="-4.51479">
        <ele>851.479750206694</ele>
        <time>2022-05-17T12:53:20Z</time>
      </trkpt>
      <trkpt lat="42.313479" lon="-4.514854">
        <ele>850.6167022194713</ele>
        <time>2022-05-17T12:53:29Z</time>
      </trkpt>
      <trkpt lat="42.313563" lon="-4.514918">
        <ele>850.0199889503419</ele>
        <time>2022-05-17T12:53:37Z</time>
      </trkpt>
      <trkpt lat="42.31365" lon="-4.514969">
        <ele>849.6520444042981</ele>
        <time>2022-05-17T12:53:43Z</time>
      </trkpt>
      <trkpt lat="42.313724" lon="-4.515038">
        <ele>849.6113677965477</ele>
        <time>2022-05-17T12:53:50Z</time>
      </trkpt>
      <trkpt lat="42.313808" lon="-4.515083">
        <ele>849.8410897022113</ele>
        <time>2022-05-17T12:53:59Z</time>
      </trkpt>
      <trkpt lat="42.313893" lon="-4.515134">
        <ele>849.0208270261064</ele>
        <time>2022-05-17T12:54:08Z</time>
      </trkpt>
      <trkpt lat="42.313974" lon="-4.515204">
        <ele>848.2878444651142</ele>
        <time>2022-05-17T12:54:20Z</time>
      </trkpt>
      <trkpt lat="42.314056" lon="-4.515264">
        <ele>847.8604099778458</ele>
        <time>2022-05-17T12:54:27Z</time>
      </trkpt>
      <trkpt lat="42.314144" lon="-4.515321">
        <ele>847.4527931427583</ele>
        <time>2022-05-17T12:54:35Z</time>
      </trkpt>
      <trkpt lat="42.31422" lon="-4.515399">
        <ele>847.4155612234026</ele>
        <time>2022-05-17T12:54:43Z</time>
      </trkpt>
      <trkpt lat="42.314292" lon="-4.51548">
        <ele>847.0126086259261</ele>
        <time>2022-05-17T12:54:50Z</time>
      </trkpt>
      <trkpt lat="42.314373" lon="-4.515537">
        <ele>846.1655023535714</ele>
        <time>2022-05-17T12:54:56Z</time>
      </trkpt>
      <trkpt lat="42.314449" lon="-4.515612">
        <ele>847.0464095035568</ele>
        <time>2022-05-17T12:55:04Z</time>
      </trkpt>
      <trkpt lat="42.314527" lon="-4.515672">
        <ele>845.8402925692499</ele>
        <time>2022-05-17T12:55:11Z</time>
      </trkpt>
      <trkpt lat="42.31461" lon="-4.515723">
        <ele>845.671818238683</ele>
        <time>2022-05-17T12:55:17Z</time>
      </trkpt>
      <trkpt lat="42.314685" lon="-4.515811">
        <ele>845.7652648510411</ele>
        <time>2022-05-17T12:55:26Z</time>
      </trkpt>
      <trkpt lat="42.314756" lon="-4.515903">
        <ele>846.255482419394</ele>
        <time>2022-05-17T12:55:33Z</time>
      </trkpt>
      <trkpt lat="42.31482" lon="-4.515999">
        <ele>846.6681011049077</ele>
        <time>2022-05-17T12:55:41Z</time>
      </trkpt>
      <trkpt lat="42.314899" lon="-4.516087">
        <ele>847.4618318555877</ele>
        <time>2022-05-17T12:55:49Z</time>
      </trkpt>
      <trkpt lat="42.31498" lon="-4.516146">
        <ele>847.7268801415339</ele>
        <time>2022-05-17T12:55:55Z</time>
      </trkpt>
      <trkpt lat="42.315069" lon="-4.5162">
        <ele>847.4667755756527</ele>
        <time>2022-05-17T12:56:01Z</time>
      </trkpt>
      <trkpt lat="42.315157" lon="-4.516237">
        <ele>848.330348120071</ele>
        <time>2022-05-17T12:56:08Z</time>
      </trkpt>
      <trkpt lat="42.315255" lon="-4.516268">
        <ele>849.4281602092087</ele>
        <time>2022-05-17T12:56:15Z</time>
      </trkpt>
      <trkpt lat="42.315344" lon="-4.51631">
        <ele>849.4685830296949</ele>
        <time>2022-05-17T12:56:21Z</time>
      </trkpt>
      <trkpt lat="42.315424" lon="-4.516382">
        <ele>847.7651890804991</ele>
        <time>2022-05-17T12:56:28Z</time>
      </trkpt>
      <trkpt lat="42.315496" lon="-4.516459">
        <ele>846.4370800768957</ele>
        <time>2022-05-17T12:56:34Z</time>
      </trkpt>
      <trkpt lat="42.315571" lon="-4.516537">
        <ele>845.3212157385424</ele>
        <time>2022-05-17T12:56:43Z</time>
      </trkpt>
      <trkpt lat="42.315651" lon="-4.516613">
        <ele>843.3875010227785</ele>
        <time>2022-05-17T12:56:50Z</time>
      </trkpt>
      <trkpt lat="42.315726" lon="-4.516694">
        <ele>840.39824157767</ele>
        <time>2022-05-17T12:56:59Z</time>
      </trkpt>
      <trkpt lat="42.315815" lon="-4.516769">
        <ele>840.6201962316409</ele>
        <time>2022-05-17T12:57:07Z</time>
      </trkpt>
      <trkpt lat="42.315899" lon="-4.516834">
        <ele>839.1993685234338</ele>
        <time>2022-05-17T12:57:14Z</time>
      </trkpt>
      <trkpt lat="42.315987" lon="-4.516875">
        <ele>837.4492544448003</ele>
        <time>2022-05-17T12:57:20Z</time>
      </trkpt>
      <trkpt lat="42.316072" lon="-4.516945">
        <ele>834.642966311425</ele>
        <time>2022-05-17T12:57:26Z</time>
      </trkpt>
      <trkpt lat="42.316148" lon="-4.517019">
        <ele>832.1452975794673</ele>
        <time>2022-05-17T12:57:34Z</time>
      </trkpt>
      <trkpt lat="42.316227" lon="-4.517093">
        <ele>831.2707391241565</ele>
        <time>2022-05-17T12:57:43Z</time>
      </trkpt>
      <trkpt lat="42.316306" lon="-4.517168">
        <ele>829.5703877313063</ele>
        <time>2022-05-17T12:57:50Z</time>
      </trkpt>
      <trkpt lat="42.31639" lon="-4.517239">
        <ele>829.0787145830691</ele>
        <time>2022-05-17T12:57:57Z</time>
      </trkpt>
      <trkpt lat="42.316465" lon="-4.517327">
        <ele>828.9738593827933</ele>
        <time>2022-05-17T12:58:05Z</time>
      </trkpt>
      <trkpt lat="42.316543" lon="-4.517412">
        <ele>828.8947678413242</ele>
        <time>2022-05-17T12:58:13Z</time>
      </trkpt>
      <trkpt lat="42.316627" lon="-4.517483">
        <ele>830.0645465720445</ele>
        <time>2022-05-17T12:58:20Z</time>
      </trkpt>
      <trkpt lat="42.31671" lon="-4.517546">
        <ele>831.548258561641</ele>
        <time>2022-05-17T12:58:28Z</time>
      </trkpt>
      <trkpt lat="42.316811" lon="-4.51756">
        <ele>833.472885157913</ele>
        <time>2022-05-17T12:58:41Z</time>
      </trkpt>
      <trkpt lat="42.316887" lon="-4.517635">
        <ele>834.8174281073734</ele>
        <time>2022-05-17T12:58:50Z</time>
      </trkpt>
      <trkpt lat="42.316981" lon="-4.517681">
        <ele>840.1552094966173</ele>
        <time>2022-05-17T12:58:59Z</time>
      </trkpt>
      <trkpt lat="42.317069" lon="-4.51775">
        <ele>841.8231407804415</ele>
        <time>2022-05-17T12:59:06Z</time>
      </trkpt>
      <trkpt lat="42.31715" lon="-4.51781">
        <ele>842.8567755706608</ele>
        <time>2022-05-17T12:59:13Z</time>
      </trkpt>
      <trkpt lat="42.317231" lon="-4.517887">
        <ele>844.4977282546461</ele>
        <time>2022-05-17T12:59:22Z</time>
      </trkpt>
      <trkpt lat="42.317312" lon="-4.517961">
        <ele>845.5696641951799</ele>
        <time>2022-05-17T12:59:31Z</time>
      </trkpt>
      <trkpt lat="42.317396" lon="-4.518019">
        <ele>844.4913364052773</ele>
        <time>2022-05-17T12:59:42Z</time>
      </trkpt>
      <trkpt lat="42.317465" lon="-4.518097">
        <ele>843.9867629092187</ele>
        <time>2022-05-17T12:59:50Z</time>
      </trkpt>
      <trkpt lat="42.31755" lon="-4.518158">
        <ele>844.8856113199145</ele>
        <time>2022-05-17T12:59:58Z</time>
      </trkpt>
      <trkpt lat="42.317627" lon="-4.518242">
        <ele>845.6456051757559</ele>
        <time>2022-05-17T13:00:07Z</time>
      </trkpt>
      <trkpt lat="42.317701" lon="-4.518327">
        <ele>845.7421238198876</ele>
        <time>2022-05-17T13:00:15Z</time>
      </trkpt>
      <trkpt lat="42.317794" lon="-4.518384">
        <ele>846.642614766024</ele>
        <time>2022-05-17T13:00:22Z</time>
      </trkpt>
      <trkpt lat="42.317862" lon="-4.518469">
        <ele>848.6108821565285</ele>
        <time>2022-05-17T13:00:29Z</time>
      </trkpt>
      <trkpt lat="42.317936" lon="-4.51855">
        <ele>850.1626331610605</ele>
        <time>2022-05-17T13:00:37Z</time>
      </trkpt>
      <trkpt lat="42.31802" lon="-4.518605">
        <ele>850.534726231359</ele>
        <time>2022-05-17T13:00:45Z</time>
      </trkpt>
      <trkpt lat="42.318104" lon="-4.518666">
        <ele>853.0069423140958</ele>
        <time>2022-05-17T13:00:51Z</time>
      </trkpt>
      <trkpt lat="42.318184" lon="-4.518732">
        <ele>854.18940598052</ele>
        <time>2022-05-17T13:00:57Z</time>
      </trkpt>
      <trkpt lat="42.318267" lon="-4.518807">
        <ele>854.221657011658</ele>
        <time>2022-05-17T13:01:04Z</time>
      </trkpt>
      <trkpt lat="42.318352" lon="-4.518883">
        <ele>853.8855958422646</ele>
        <time>2022-05-17T13:01:11Z</time>
      </trkpt>
      <trkpt lat="42.318424" lon="-4.518965">
        <ele>853.533137075603</ele>
        <time>2022-05-17T13:01:19Z</time>
      </trkpt>
      <trkpt lat="42.318492" lon="-4.519047">
        <ele>852.1688541248441</ele>
        <time>2022-05-17T13:01:28Z</time>
      </trkpt>
      <trkpt lat="42.31857" lon="-4.519143">
        <ele>853.0903390012681</ele>
        <time>2022-05-17T13:01:36Z</time>
      </trkpt>
      <trkpt lat="42.318623" lon="-4.519243">
        <ele>852.3278098599985</ele>
        <time>2022-05-17T13:01:46Z</time>
      </trkpt>
      <trkpt lat="42.318683" lon="-4.519349">
        <ele>852.562942716293</ele>
        <time>2022-05-17T13:01:55Z</time>
      </trkpt>
      <trkpt lat="42.318757" lon="-4.51943">
        <ele>854.3013123972341</ele>
        <time>2022-05-17T13:02:02Z</time>
      </trkpt>
      <trkpt lat="42.318824" lon="-4.519516">
        <ele>854.8929995168</ele>
        <time>2022-05-17T13:02:08Z</time>
      </trkpt>
      <trkpt lat="42.318891" lon="-4.519605">
        <ele>854.5534220151603</ele>
        <time>2022-05-17T13:02:14Z</time>
      </trkpt>
      <trkpt lat="42.318943" lon="-4.519716">
        <ele>851.9079279555008</ele>
        <time>2022-05-17T13:02:23Z</time>
      </trkpt>
      <trkpt lat="42.319004" lon="-4.519813">
        <ele>852.3750355560333</ele>
        <time>2022-05-17T13:02:30Z</time>
      </trkpt>
      <trkpt lat="42.319064" lon="-4.519906">
        <ele>852.1971841165796</ele>
        <time>2022-05-17T13:02:38Z</time>
      </trkpt>
      <trkpt lat="42.319119" lon="-4.520019">
        <ele>852.7764986502007</ele>
        <time>2022-05-17T13:02:45Z</time>
      </trkpt>
      <trkpt lat="42.319167" lon="-4.520129">
        <ele>851.8615265311673</ele>
        <time>2022-05-17T13:02:52Z</time>
      </trkpt>
      <trkpt lat="42.319203" lon="-4.520252">
        <ele>853.7645625518635</ele>
        <time>2022-05-17T13:03:00Z</time>
      </trkpt>
      <trkpt lat="42.319253" lon="-4.520364">
        <ele>853.1958160335198</ele>
        <time>2022-05-17T13:03:09Z</time>
      </trkpt>
      <trkpt lat="42.319275" lon="-4.520486">
        <ele>852.7529789358377</ele>
        <time>2022-05-17T13:03:17Z</time>
      </trkpt>
      <trkpt lat="42.319316" lon="-4.520601">
        <ele>851.6216068575159</ele>
        <time>2022-05-17T13:03:26Z</time>
      </trkpt>
      <trkpt lat="42.319357" lon="-4.520722">
        <ele>850.3253707848489</ele>
        <time>2022-05-17T13:03:33Z</time>
      </trkpt>
      <trkpt lat="42.319398" lon="-4.520835">
        <ele>849.8126728534698</ele>
        <time>2022-05-17T13:03:39Z</time>
      </trkpt>
      <trkpt lat="42.319445" lon="-4.520943">
        <ele>848.0817480571568</ele>
        <time>2022-05-17T13:03:46Z</time>
      </trkpt>
      <trkpt lat="42.319488" lon="-4.521062">
        <ele>844.6406364161521</ele>
        <time>2022-05-17T13:03:53Z</time>
      </trkpt>
      <trkpt lat="42.319525" lon="-4.521176">
        <ele>841.1737311100587</ele>
        <time>2022-05-17T13:04:01Z</time>
      </trkpt>
      <trkpt lat="42.319572" lon="-4.521301">
        <ele>839.323459258303</ele>
        <time>2022-05-17T13:04:09Z</time>
      </trkpt>
      <trkpt lat="42.31961" lon="-4.521418">
        <ele>837.5392105830833</ele>
        <time>2022-05-17T13:04:17Z</time>
      </trkpt>
      <trkpt lat="42.319636" lon="-4.521541">
        <ele>837.7312611863017</ele>
        <time>2022-05-17T13:04:29Z</time>
      </trkpt>
      <trkpt lat="42.319668" lon="-4.521663">
        <ele>836.085019338876</ele>
        <time>2022-05-17T13:04:37Z</time>
      </trkpt>
      <trkpt lat="42.319712" lon="-4.521784">
        <ele>837.8035341622308</ele>
        <time>2022-05-17T13:04:44Z</time>
      </trkpt>
      <trkpt lat="42.31976" lon="-4.521893">
        <ele>836.9607971198857</ele>
        <time>2022-05-17T13:04:50Z</time>
      </trkpt>
      <trkpt lat="42.319813" lon="-4.522">
        <ele>837.6901967851445</ele>
        <time>2022-05-17T13:04:55Z</time>
      </trkpt>
      <trkpt lat="42.319849" lon="-4.522119">
        <ele>837.8494905391708</ele>
        <time>2022-05-17T13:05:03Z</time>
      </trkpt>
      <trkpt lat="42.319896" lon="-4.522237">
        <ele>837.3734760163352</ele>
        <time>2022-05-17T13:05:10Z</time>
      </trkpt>
      <trkpt lat="42.319949" lon="-4.522345">
        <ele>838.0845758831128</ele>
        <time>2022-05-17T13:05:16Z</time>
      </trkpt>
      <trkpt lat="42.320003" lon="-4.522451">
        <ele>838.5560236927122</ele>
        <time>2022-05-17T13:05:23Z</time>
      </trkpt>
      <trkpt lat="42.320061" lon="-4.522551">
        <ele>840.5035893106833</ele>
        <time>2022-05-17T13:05:48Z</time>
      </trkpt>
      <trkpt lat="42.320094" lon="-4.522665">
        <ele>841.8409694805741</ele>
        <time>2022-05-17T13:05:58Z</time>
      </trkpt>
      <trkpt lat="42.320158" lon="-4.522751">
        <ele>843.3606142289937</ele>
        <time>2022-05-17T13:06:06Z</time>
      </trkpt>
      <trkpt lat="42.320201" lon="-4.522867">
        <ele>844.5996729070321</ele>
        <time>2022-05-17T13:06:15Z</time>
      </trkpt>
      <trkpt lat="42.320253" lon="-4.522972">
        <ele>845.7564053833485</ele>
        <time>2022-05-17T13:06:24Z</time>
      </trkpt>
      <trkpt lat="42.320326" lon="-4.523071">
        <ele>846.2092736912891</ele>
        <time>2022-05-17T13:06:32Z</time>
      </trkpt>
      <trkpt lat="42.320395" lon="-4.523173">
        <ele>845.2348869638517</ele>
        <time>2022-05-17T13:06:40Z</time>
      </trkpt>
      <trkpt lat="42.320448" lon="-4.523278">
        <ele>844.7707746447995</ele>
        <time>2022-05-17T13:06:47Z</time>
      </trkpt>
      <trkpt lat="42.32051" lon="-4.523372">
        <ele>844.8839385109022</ele>
        <time>2022-05-17T13:06:54Z</time>
      </trkpt>
      <trkpt lat="42.320571" lon="-4.523461">
        <ele>846.7552619259804</ele>
        <time>2022-05-17T13:07:02Z</time>
      </trkpt>
      <trkpt lat="42.320653" lon="-4.523534">
        <ele>847.1908567054197</ele>
        <time>2022-05-17T13:07:10Z</time>
      </trkpt>
      <trkpt lat="42.320733" lon="-4.523597">
        <ele>845.0621685227379</ele>
        <time>2022-05-17T13:07:17Z</time>
      </trkpt>
      <trkpt lat="42.320798" lon="-4.523686">
        <ele>844.3291288772598</ele>
        <time>2022-05-17T13:07:26Z</time>
      </trkpt>
      <trkpt lat="42.32088" lon="-4.523755">
        <ele>843.427619270049</ele>
        <time>2022-05-17T13:07:35Z</time>
      </trkpt>
      <trkpt lat="42.320954" lon="-4.523823">
        <ele>843.004463005811</ele>
        <time>2022-05-17T13:07:44Z</time>
      </trkpt>
      <trkpt lat="42.321029" lon="-4.523896">
        <ele>843.2151545826346</ele>
        <time>2022-05-17T13:07:52Z</time>
      </trkpt>
      <trkpt lat="42.32113" lon="-4.523918">
        <ele>841.021564877592</ele>
        <time>2022-05-17T13:07:59Z</time>
      </trkpt>
      <trkpt lat="42.321233" lon="-4.523928">
        <ele>837.8625493338332</ele>
        <time>2022-05-17T13:08:05Z</time>
      </trkpt>
      <trkpt lat="42.321332" lon="-4.523968">
        <ele>835.4383236337453</ele>
        <time>2022-05-17T13:08:16Z</time>
      </trkpt>
      <trkpt lat="42.321417" lon="-4.524015">
        <ele>834.8472317513078</ele>
        <time>2022-05-17T13:08:23Z</time>
      </trkpt>
      <trkpt lat="42.321505" lon="-4.524066">
        <ele>834.7772245462984</ele>
        <time>2022-05-17T13:08:40Z</time>
      </trkpt>
      <trkpt lat="42.321601" lon="-4.524095">
        <ele>836.1786445640028</ele>
        <time>2022-05-17T13:08:48Z</time>
      </trkpt>
      <trkpt lat="42.321706" lon="-4.524122">
        <ele>837.1244629453868</ele>
        <time>2022-05-17T13:08:54Z</time>
      </trkpt>
      <trkpt lat="42.321803" lon="-4.524133">
        <ele>836.784693768248</ele>
        <time>2022-05-17T13:08:59Z</time>
      </trkpt>
      <trkpt lat="42.321892" lon="-4.524159">
        <ele>836.1945916488767</ele>
        <time>2022-05-17T13:09:05Z</time>
      </trkpt>
      <trkpt lat="42.321992" lon="-4.52416">
        <ele>836.57325465139</ele>
        <time>2022-05-17T13:09:12Z</time>
      </trkpt>
      <trkpt lat="42.322095" lon="-4.524207">
        <ele>834.7115255827084</ele>
        <time>2022-05-17T13:09:19Z</time>
      </trkpt>
      <trkpt lat="42.32218" lon="-4.524271">
        <ele>835.7581836646423</ele>
        <time>2022-05-17T13:09:26Z</time>
      </trkpt>
      <trkpt lat="42.322225" lon="-4.524384">
        <ele>838.6802816893905</ele>
        <time>2022-05-17T13:09:33Z</time>
      </trkpt>
      <trkpt lat="42.322256" lon="-4.524508">
        <ele>840.6536314990371</ele>
        <time>2022-05-17T13:09:38Z</time>
      </trkpt>
      <trkpt lat="42.322258" lon="-4.524636">
        <ele>841.8983257589862</ele>
        <time>2022-05-17T13:09:45Z</time>
      </trkpt>
      <trkpt lat="42.322265" lon="-4.524761">
        <ele>841.3825458288193</ele>
        <time>2022-05-17T13:09:50Z</time>
      </trkpt>
      <trkpt lat="42.322266" lon="-4.524882">
        <ele>839.6615966521204</ele>
        <time>2022-05-17T13:09:55Z</time>
      </trkpt>
      <trkpt lat="42.322289" lon="-4.525007">
        <ele>837.1068365890533</ele>
        <time>2022-05-17T13:10:02Z</time>
      </trkpt>
      <trkpt lat="42.322301" lon="-4.525142">
        <ele>833.1700901547447</ele>
        <time>2022-05-17T13:10:09Z</time>
      </trkpt>
      <trkpt lat="42.32233" lon="-4.525259">
        <ele>829.2980004185811</ele>
        <time>2022-05-17T13:10:15Z</time>
      </trkpt>
      <trkpt lat="42.322347" lon="-4.525383">
        <ele>823.8420363171026</ele>
        <time>2022-05-17T13:10:23Z</time>
      </trkpt>
      <trkpt lat="42.322335" lon="-4.525508">
        <ele>820.235910911113</ele>
        <time>2022-05-17T13:10:30Z</time>
      </trkpt>
      <trkpt lat="42.322302" lon="-4.525623">
        <ele>818.7219417421147</ele>
        <time>2022-05-17T13:10:36Z</time>
      </trkpt>
      <trkpt lat="42.322305" lon="-4.52575">
        <ele>816.0142533127218</ele>
        <time>2022-05-17T13:10:43Z</time>
      </trkpt>
      <trkpt lat="42.322293" lon="-4.525888">
        <ele>814.2225868133828</ele>
        <time>2022-05-17T13:10:51Z</time>
      </trkpt>
      <trkpt lat="42.32228" lon="-4.526015">
        <ele>813.2338232025504</ele>
        <time>2022-05-17T13:11:00Z</time>
      </trkpt>
      <trkpt lat="42.322275" lon="-4.526145">
        <ele>812.1830939734355</ele>
        <time>2022-05-17T13:11:13Z</time>
      </trkpt>
      <trkpt lat="42.32228" lon="-4.526277">
        <ele>812.5847570924088</ele>
        <time>2022-05-17T13:11:20Z</time>
      </trkpt>
      <trkpt lat="42.322265" lon="-4.526406">
        <ele>811.8809536602348</ele>
        <time>2022-05-17T13:11:29Z</time>
      </trkpt>
      <trkpt lat="42.322238" lon="-4.526538">
        <ele>811.6859862599522</ele>
        <time>2022-05-17T13:11:37Z</time>
      </trkpt>
      <trkpt lat="42.322245" lon="-4.526677">
        <ele>812.4669566862285</ele>
        <time>2022-05-17T13:11:45Z</time>
      </trkpt>
      <trkpt lat="42.322234" lon="-4.526816">
        <ele>812.9470666917041</ele>
        <time>2022-05-17T13:11:54Z</time>
      </trkpt>
      <trkpt lat="42.322223" lon="-4.526943">
        <ele>815.3244748357683</ele>
        <time>2022-05-17T13:12:01Z</time>
      </trkpt>
      <trkpt lat="42.322219" lon="-4.527067">
        <ele>815.0955596072599</ele>
        <time>2022-05-17T13:12:10Z</time>
      </trkpt>
      <trkpt lat="42.322199" lon="-4.527185">
        <ele>813.2894790535793</ele>
        <time>2022-05-17T13:12:18Z</time>
      </trkpt>
      <trkpt lat="42.322188" lon="-4.52732">
        <ele>814.4261601306498</ele>
        <time>2022-05-17T13:12:28Z</time>
      </trkpt>
      <trkpt lat="42.322159" lon="-4.527441">
        <ele>813.942535566166</ele>
        <time>2022-05-17T13:12:35Z</time>
      </trkpt>
      <trkpt lat="42.322131" lon="-4.527559">
        <ele>817.2563252905384</ele>
        <time>2022-05-17T13:12:43Z</time>
      </trkpt>
      <trkpt lat="42.322094" lon="-4.527674">
        <ele>819.8790614167228</ele>
        <time>2022-05-17T13:13:02Z</time>
      </trkpt>
      <trkpt lat="42.322059" lon="-4.527794">
        <ele>823.5462814979255</ele>
        <time>2022-05-17T13:13:11Z</time>
      </trkpt>
      <trkpt lat="42.322025" lon="-4.527907">
        <ele>824.709758400917</ele>
        <time>2022-05-17T13:13:18Z</time>
      </trkpt>
      <trkpt lat="42.322" lon="-4.528031">
        <ele>826.1368585368618</ele>
        <time>2022-05-17T13:13:26Z</time>
      </trkpt>
      <trkpt lat="42.321981" lon="-4.528167">
        <ele>828.5418535592034</ele>
        <time>2022-05-17T13:13:35Z</time>
      </trkpt>
      <trkpt lat="42.321954" lon="-4.528286">
        <ele>830.4769617831334</ele>
        <time>2022-05-17T13:13:44Z</time>
      </trkpt>
      <trkpt lat="42.32193" lon="-4.528405">
        <ele>832.5411862684414</ele>
        <time>2022-05-17T13:13:55Z</time>
      </trkpt>
      <trkpt lat="42.32189" lon="-4.528529">
        <ele>835.1237656557932</ele>
        <time>2022-05-17T13:14:03Z</time>
      </trkpt>
      <trkpt lat="42.321855" lon="-4.528648">
        <ele>837.3130818046629</ele>
        <time>2022-05-17T13:14:11Z</time>
      </trkpt>
      <trkpt lat="42.32181" lon="-4.528753">
        <ele>838.6935905432329</ele>
        <time>2022-05-17T13:14:17Z</time>
      </trkpt>
      <trkpt lat="42.321779" lon="-4.528876">
        <ele>840.5900723710656</ele>
        <time>2022-05-17T13:14:25Z</time>
      </trkpt>
      <trkpt lat="42.321727" lon="-4.528987">
        <ele>840.8957626400515</ele>
        <time>2022-05-17T13:14:32Z</time>
      </trkpt>
      <trkpt lat="42.321684" lon="-4.529101">
        <ele>842.0902818376198</ele>
        <time>2022-05-17T13:14:38Z</time>
      </trkpt>
      <trkpt lat="42.321674" lon="-4.529237">
        <ele>845.0765667669475</ele>
        <time>2022-05-17T13:14:45Z</time>
      </trkpt>
      <trkpt lat="42.321658" lon="-4.529363">
        <ele>847.1118034003302</ele>
        <time>2022-05-17T13:14:52Z</time>
      </trkpt>
      <trkpt lat="42.32163" lon="-4.529488">
        <ele>849.9523803694174</ele>
        <time>2022-05-17T13:15:00Z</time>
      </trkpt>
      <trkpt lat="42.321593" lon="-4.529611">
        <ele>852.7841336810961</ele>
        <time>2022-05-17T13:15:08Z</time>
      </trkpt>
      <trkpt lat="42.321551" lon="-4.529722">
        <ele>854.9016289738938</ele>
        <time>2022-05-17T13:15:15Z</time>
      </trkpt>
      <trkpt lat="42.321528" lon="-4.529852">
        <ele>856.984185426496</ele>
        <time>2022-05-17T13:15:22Z</time>
      </trkpt>
      <trkpt lat="42.321509" lon="-4.529975">
        <ele>857.3311081780121</ele>
        <time>2022-05-17T13:15:28Z</time>
      </trkpt>
      <trkpt lat="42.321481" lon="-4.530096">
        <ele>858.259649018757</ele>
        <time>2022-05-17T13:15:35Z</time>
      </trkpt>
      <trkpt lat="42.321443" lon="-4.530216">
        <ele>860.0306871859357</ele>
        <time>2022-05-17T13:15:42Z</time>
      </trkpt>
      <trkpt lat="42.321396" lon="-4.530326">
        <ele>860.4349117036909</ele>
        <time>2022-05-17T13:15:49Z</time>
      </trkpt>
      <trkpt lat="42.321363" lon="-4.530443">
        <ele>862.3155394699425</ele>
        <time>2022-05-17T13:15:57Z</time>
      </trkpt>
      <trkpt lat="42.321327" lon="-4.530569">
        <ele>867.7417101776227</ele>
        <time>2022-05-17T13:16:08Z</time>
      </trkpt>
      <trkpt lat="42.321306" lon="-4.530698">
        <ele>868.6545066330582</ele>
        <time>2022-05-17T13:16:14Z</time>
      </trkpt>
      <trkpt lat="42.32129" lon="-4.530826">
        <ele>867.527161123231</ele>
        <time>2022-05-17T13:16:20Z</time>
      </trkpt>
      <trkpt lat="42.32127" lon="-4.530957">
        <ele>867.2275346433744</ele>
        <time>2022-05-17T13:16:28Z</time>
      </trkpt>
      <trkpt lat="42.32126" lon="-4.531079">
        <ele>865.1129369698465</ele>
        <time>2022-05-17T13:16:35Z</time>
      </trkpt>
      <trkpt lat="42.32126" lon="-4.531219">
        <ele>859.6731014670804</ele>
        <time>2022-05-17T13:16:42Z</time>
      </trkpt>
      <trkpt lat="42.321215" lon="-4.531339">
        <ele>857.2541131740436</ele>
        <time>2022-05-17T13:16:49Z</time>
      </trkpt>
      <trkpt lat="42.321153" lon="-4.531448">
        <ele>856.0994226951152</ele>
        <time>2022-05-17T13:16:56Z</time>
      </trkpt>
      <trkpt lat="42.321108" lon="-4.53156">
        <ele>853.2112962370738</ele>
        <time>2022-05-17T13:17:02Z</time>
      </trkpt>
      <trkpt lat="42.321064" lon="-4.531666">
        <ele>850.1892383340746</ele>
        <time>2022-05-17T13:17:08Z</time>
      </trkpt>
      <trkpt lat="42.321018" lon="-4.531781">
        <ele>845.6898745447397</ele>
        <time>2022-05-17T13:17:15Z</time>
      </trkpt>
      <trkpt lat="42.320943" lon="-4.531877">
        <ele>844.2460489580408</ele>
        <time>2022-05-17T13:17:23Z</time>
      </trkpt>
      <trkpt lat="42.320891" lon="-4.531979">
        <ele>841.2323787212372</ele>
        <time>2022-05-17T13:17:30Z</time>
      </trkpt>
      <trkpt lat="42.320847" lon="-4.53209">
        <ele>838.068769195117</ele>
        <time>2022-05-17T13:17:36Z</time>
      </trkpt>
      <trkpt lat="42.320792" lon="-4.532188">
        <ele>837.3683403497562</ele>
        <time>2022-05-17T13:17:44Z</time>
      </trkpt>
      <trkpt lat="42.320749" lon="-4.532304">
        <ele>835.2521982947364</ele>
        <time>2022-05-17T13:17:53Z</time>
      </trkpt>
      <trkpt lat="42.320696" lon="-4.532411">
        <ele>834.9071243414655</ele>
        <time>2022-05-17T13:18:00Z</time>
      </trkpt>
      <trkpt lat="42.320654" lon="-4.532521">
        <ele>833.0428522787988</ele>
        <time>2022-05-17T13:18:06Z</time>
      </trkpt>
      <trkpt lat="42.320604" lon="-4.532636">
        <ele>831.6159032750875</ele>
        <time>2022-05-17T13:18:14Z</time>
      </trkpt>
      <trkpt lat="42.320562" lon="-4.532751">
        <ele>829.7322065783665</ele>
        <time>2022-05-17T13:18:21Z</time>
      </trkpt>
      <trkpt lat="42.320509" lon="-4.532852">
        <ele>829.0313440104946</ele>
        <time>2022-05-17T13:18:27Z</time>
      </trkpt>
      <trkpt lat="42.320454" lon="-4.532959">
        <ele>827.8141430607066</ele>
        <time>2022-05-17T13:18:33Z</time>
      </trkpt>
      <trkpt lat="42.320403" lon="-4.53308">
        <ele>828.0248132059351</ele>
        <time>2022-05-17T13:18:41Z</time>
      </trkpt>
      <trkpt lat="42.320351" lon="-4.533194">
        <ele>828.7217418635264</ele>
        <time>2022-05-17T13:18:48Z</time>
      </trkpt>
      <trkpt lat="42.320303" lon="-4.533303">
        <ele>828.2928804084659</ele>
        <time>2022-05-17T13:18:55Z</time>
      </trkpt>
      <trkpt lat="42.320258" lon="-4.533417">
        <ele>827.5101668862626</ele>
        <time>2022-05-17T13:19:04Z</time>
      </trkpt>
      <trkpt lat="42.320197" lon="-4.533523">
        <ele>826.879624533467</ele>
        <time>2022-05-17T13:19:11Z</time>
      </trkpt>
      <trkpt lat="42.320142" lon="-4.533631">
        <ele>827.7364446902648</ele>
        <time>2022-05-17T13:19:17Z</time>
      </trkpt>
      <trkpt lat="42.3201" lon="-4.533755">
        <ele>828.7892019832507</ele>
        <time>2022-05-17T13:19:23Z</time>
      </trkpt>
      <trkpt lat="42.320055" lon="-4.533874">
        <ele>830.5822351537645</ele>
        <time>2022-05-17T13:19:31Z</time>
      </trkpt>
      <trkpt lat="42.320001" lon="-4.533982">
        <ele>833.3053991738707</ele>
        <time>2022-05-17T13:19:39Z</time>
      </trkpt>
      <trkpt lat="42.319968" lon="-4.534106">
        <ele>834.2733215475455</ele>
        <time>2022-05-17T13:19:46Z</time>
      </trkpt>
      <trkpt lat="42.319951" lon="-4.534231">
        <ele>832.5918550910428</ele>
        <time>2022-05-17T13:19:52Z</time>
      </trkpt>
      <trkpt lat="42.319895" lon="-4.534331">
        <ele>832.149963311851</ele>
        <time>2022-05-17T13:20:01Z</time>
      </trkpt>
      <trkpt lat="42.319853" lon="-4.534449">
        <ele>830.9580278461799</ele>
        <time>2022-05-17T13:20:09Z</time>
      </trkpt>
      <trkpt lat="42.319847" lon="-4.534579">
        <ele>829.1897009834647</ele>
        <time>2022-05-17T13:20:15Z</time>
      </trkpt>
      <trkpt lat="42.319813" lon="-4.534695">
        <ele>830.7135820798576</ele>
        <time>2022-05-17T13:20:24Z</time>
      </trkpt>
      <trkpt lat="42.319767" lon="-4.534799">
        <ele>830.2812358653173</ele>
        <time>2022-05-17T13:20:31Z</time>
      </trkpt>
      <trkpt lat="42.319751" lon="-4.534919">
        <ele>829.7214843546972</ele>
        <time>2022-05-17T13:20:38Z</time>
      </trkpt>
      <trkpt lat="42.319697" lon="-4.535024">
        <ele>829.3553032279015</ele>
        <time>2022-05-17T13:20:46Z</time>
      </trkpt>
      <trkpt lat="42.319647" lon="-4.535124">
        <ele>829.0485162204131</ele>
        <time>2022-05-17T13:20:53Z</time>
      </trkpt>
      <trkpt lat="42.3196" lon="-4.535238">
        <ele>829.7842932082713</ele>
        <time>2022-05-17T13:21:02Z</time>
      </trkpt>
      <trkpt lat="42.319572" lon="-4.535356">
        <ele>830.3209455842152</ele>
        <time>2022-05-17T13:21:09Z</time>
      </trkpt>
      <trkpt lat="42.319515" lon="-4.535457">
        <ele>831.8290141951293</ele>
        <time>2022-05-17T13:21:17Z</time>
      </trkpt>
      <trkpt lat="42.319461" lon="-4.535567">
        <ele>832.9817420104519</ele>
        <time>2022-05-17T13:21:26Z</time>
      </trkpt>
      <trkpt lat="42.319424" lon="-4.535678">
        <ele>832.7996775582433</ele>
        <time>2022-05-17T13:21:33Z</time>
      </trkpt>
      <trkpt lat="42.319415" lon="-4.535805">
        <ele>832.1146814264357</ele>
        <time>2022-05-17T13:21:57Z</time>
      </trkpt>
      <trkpt lat="42.319381" lon="-4.535927">
        <ele>829.500999931246</ele>
        <time>2022-05-17T13:22:33Z</time>
      </trkpt>
      <trkpt lat="42.319339" lon="-4.536042">
        <ele>828.4100127676502</ele>
        <time>2022-05-17T13:22:40Z</time>
      </trkpt>
      <trkpt lat="42.319286" lon="-4.536152">
        <ele>826.3129695514217</ele>
        <time>2022-05-17T13:22:46Z</time>
      </trkpt>
      <trkpt lat="42.319247" lon="-4.536262">
        <ele>823.9860235806555</ele>
        <time>2022-05-17T13:22:52Z</time>
      </trkpt>
      <trkpt lat="42.319205" lon="-4.536378">
        <ele>824.1144824326038</ele>
        <time>2022-05-17T13:23:00Z</time>
      </trkpt>
      <trkpt lat="42.319145" lon="-4.536487">
        <ele>819.7586070690304</ele>
        <time>2022-05-17T13:23:11Z</time>
      </trkpt>
      <trkpt lat="42.319092" lon="-4.536605">
        <ele>818.3460486428812</ele>
        <time>2022-05-17T13:23:17Z</time>
      </trkpt>
      <trkpt lat="42.319069" lon="-4.536724">
        <ele>815.5914871990681</ele>
        <time>2022-05-17T13:23:24Z</time>
      </trkpt>
      <trkpt lat="42.319046" lon="-4.536847">
        <ele>819.226037831977</ele>
        <time>2022-05-17T13:23:41Z</time>
      </trkpt>
      <trkpt lat="42.319014" lon="-4.536979">
        <ele>821.8736307723448</ele>
        <time>2022-05-17T13:23:48Z</time>
      </trkpt>
      <trkpt lat="42.318971" lon="-4.537102">
        <ele>822.5095321536064</ele>
        <time>2022-05-17T13:23:54Z</time>
      </trkpt>
      <trkpt lat="42.318912" lon="-4.537198">
        <ele>824.5280200857669</ele>
        <time>2022-05-17T13:24:02Z</time>
      </trkpt>
      <trkpt lat="42.318856" lon="-4.537305">
        <ele>823.3074532123283</ele>
        <time>2022-05-17T13:24:09Z</time>
      </trkpt>
      <trkpt lat="42.318802" lon="-4.537417">
        <ele>824.130384738557</ele>
        <time>2022-05-17T13:24:15Z</time>
      </trkpt>
      <trkpt lat="42.318743" lon="-4.537518">
        <ele>822.4208948109299</ele>
        <time>2022-05-17T13:24:22Z</time>
      </trkpt>
      <trkpt lat="42.31867" lon="-4.537611">
        <ele>821.8050675811246</ele>
        <time>2022-05-17T13:24:29Z</time>
      </trkpt>
      <trkpt lat="42.318612" lon="-4.537714">
        <ele>820.8493292145431</ele>
        <time>2022-05-17T13:24:37Z</time>
      </trkpt>
      <trkpt lat="42.318533" lon="-4.537805">
        <ele>819.5952990548685</ele>
        <time>2022-05-17T13:24:45Z</time>
      </trkpt>
      <trkpt lat="42.318463" lon="-4.537903">
        <ele>818.8062012828887</ele>
        <time>2022-05-17T13:24:52Z</time>
      </trkpt>
      <trkpt lat="42.318436" lon="-4.538032">
        <ele>812.2550819097087</ele>
        <time>2022-05-17T13:25:02Z</time>
      </trkpt>
      <trkpt lat="42.318364" lon="-4.538117">
        <ele>813.1319192266092</ele>
        <time>2022-05-17T13:25:09Z</time>
      </trkpt>
      <trkpt lat="42.318321" lon="-4.538227">
        <ele>810.0552832148969</ele>
        <time>2022-05-17T13:25:16Z</time>
      </trkpt>
      <trkpt lat="42.31827" lon="-4.538327">
        <ele>808.318294073455</ele>
        <time>2022-05-17T13:25:22Z</time>
      </trkpt>
      <trkpt lat="42.318223" lon="-4.538441">
        <ele>806.3973145112395</ele>
        <time>2022-05-17T13:25:29Z</time>
      </trkpt>
      <trkpt lat="42.318192" lon="-4.538556">
        <ele>805.2446334818378</ele>
        <time>2022-05-17T13:25:39Z</time>
      </trkpt>
      <trkpt lat="42.318141" lon="-4.53867">
        <ele>804.8073134310544</ele>
        <time>2022-05-17T13:25:47Z</time>
      </trkpt>
      <trkpt lat="42.318095" lon="-4.538783">
        <ele>803.378488897346</ele>
        <time>2022-05-17T13:25:56Z</time>
      </trkpt>
      <trkpt lat="42.318035" lon="-4.5389">
        <ele>800.8158001126722</ele>
        <time>2022-05-17T13:26:03Z</time>
      </trkpt>
      <trkpt lat="42.317979" lon="-4.539011">
        <ele>798.2101313499734</ele>
        <time>2022-05-17T13:26:10Z</time>
      </trkpt>
      <trkpt lat="42.317941" lon="-4.539135">
        <ele>795.986529299058</ele>
        <time>2022-05-17T13:26:16Z</time>
      </trkpt>
      <trkpt lat="42.317882" lon="-4.539252">
        <ele>793.2927372399718</ele>
        <time>2022-05-17T13:26:24Z</time>
      </trkpt>
      <trkpt lat="42.317831" lon="-4.539359">
        <ele>790.7495883181691</ele>
        <time>2022-05-17T13:26:31Z</time>
      </trkpt>
      <trkpt lat="42.317783" lon="-4.539467">
        <ele>790.7761110691354</ele>
        <time>2022-05-17T13:26:39Z</time>
      </trkpt>
      <trkpt lat="42.317731" lon="-4.539567">
        <ele>788.665921847336</ele>
        <time>2022-05-17T13:26:48Z</time>
      </trkpt>
      <trkpt lat="42.317671" lon="-4.539658">
        <ele>787.6518030287698</ele>
        <time>2022-05-17T13:26:59Z</time>
      </trkpt>
      <trkpt lat="42.317618" lon="-4.539758">
        <ele>784.835898260586</ele>
        <time>2022-05-17T13:27:08Z</time>
      </trkpt>
      <trkpt lat="42.317538" lon="-4.53983">
        <ele>784.5950446594507</ele>
        <time>2022-05-17T13:27:16Z</time>
      </trkpt>
      <trkpt lat="42.3175" lon="-4.539954">
        <ele>784.5769772296771</ele>
        <time>2022-05-17T13:27:23Z</time>
      </trkpt>
      <trkpt lat="42.317494" lon="-4.540076">
        <ele>782.5419850572944</ele>
        <time>2022-05-17T13:27:30Z</time>
      </trkpt>
      <trkpt lat="42.317512" lon="-4.540215">
        <ele>780.6920095765963</ele>
        <time>2022-05-17T13:27:38Z</time>
      </trkpt>
      <trkpt lat="42.317525" lon="-4.540344">
        <ele>777.2654916290194</ele>
        <time>2022-05-17T13:27:45Z</time>
      </trkpt>
      <trkpt lat="42.317519" lon="-4.540472">
        <ele>774.8931565266103</ele>
        <time>2022-05-17T13:27:53Z</time>
      </trkpt>
      <trkpt lat="42.317545" lon="-4.540602">
        <ele>770.8978583915159</ele>
        <time>2022-05-17T13:28:00Z</time>
      </trkpt>
      <trkpt lat="42.317571" lon="-4.540739">
        <ele>768.4574657548219</ele>
        <time>2022-05-17T13:28:06Z</time>
      </trkpt>
      <trkpt lat="42.317539" lon="-4.540854">
        <ele>770.5099490480497</ele>
        <time>2022-05-17T13:28:12Z</time>
      </trkpt>
      <trkpt lat="42.317511" lon="-4.540985">
        <ele>771.9802569374442</ele>
        <time>2022-05-17T13:28:20Z</time>
      </trkpt>
      <trkpt lat="42.317484" lon="-4.541105">
        <ele>771.7064177794382</ele>
        <time>2022-05-17T13:28:28Z</time>
      </trkpt>
      <trkpt lat="42.317455" lon="-4.54124">
        <ele>774.0653190612793</ele>
        <time>2022-05-17T13:28:36Z</time>
      </trkpt>
      <trkpt lat="42.317422" lon="-4.541361">
        <ele>775.5104517517611</ele>
        <time>2022-05-17T13:28:45Z</time>
      </trkpt>
      <trkpt lat="42.317361" lon="-4.541471">
        <ele>780.3338578231633</ele>
        <time>2022-05-17T13:28:56Z</time>
      </trkpt>
      <trkpt lat="42.317311" lon="-4.541577">
        <ele>783.7797663602978</ele>
        <time>2022-05-17T13:29:01Z</time>
      </trkpt>
      <trkpt lat="42.3173" lon="-4.541703">
        <ele>784.6739824069664</ele>
        <time>2022-05-17T13:29:07Z</time>
      </trkpt>
      <trkpt lat="42.317283" lon="-4.541824">
        <ele>789.6755930148065</ele>
        <time>2022-05-17T13:29:14Z</time>
      </trkpt>
      <trkpt lat="42.317268" lon="-4.541943">
        <ele>791.4644041564316</ele>
        <time>2022-05-17T13:29:20Z</time>
      </trkpt>
      <trkpt lat="42.317263" lon="-4.542068">
        <ele>792.149612643756</ele>
        <time>2022-05-17T13:29:27Z</time>
      </trkpt>
      <trkpt lat="42.317234" lon="-4.542196">
        <ele>792.3952454961836</ele>
        <time>2022-05-17T13:29:37Z</time>
      </trkpt>
      <trkpt lat="42.317221" lon="-4.542323">
        <ele>792.6847497085109</ele>
        <time>2022-05-17T13:29:46Z</time>
      </trkpt>
      <trkpt lat="42.317203" lon="-4.542447">
        <ele>794.951343363151</ele>
        <time>2022-05-17T13:29:54Z</time>
      </trkpt>
      <trkpt lat="42.317124" lon="-4.542515">
        <ele>793.9941836260259</ele>
        <time>2022-05-17T13:30:06Z</time>
      </trkpt>
      <trkpt lat="42.317068" lon="-4.542611">
        <ele>793.5736349932849</ele>
        <time>2022-05-17T13:30:12Z</time>
      </trkpt>
      <trkpt lat="42.317018" lon="-4.542731">
        <ele>793.2423409586772</ele>
        <time>2022-05-17T13:30:19Z</time>
      </trkpt>
      <trkpt lat="42.316951" lon="-4.542813">
        <ele>793.5049700206146</ele>
        <time>2022-05-17T13:30:24Z</time>
      </trkpt>
      <trkpt lat="42.316897" lon="-4.542921">
        <ele>794.2986865891144</ele>
        <time>2022-05-17T13:30:29Z</time>
      </trkpt>
      <trkpt lat="42.316873" lon="-4.543042">
        <ele>794.5012788884342</ele>
        <time>2022-05-17T13:30:37Z</time>
      </trkpt>
      <trkpt lat="42.316876" lon="-4.543173">
        <ele>794.9852671287954</ele>
        <time>2022-05-17T13:31:11Z</time>
      </trkpt>
      <trkpt lat="42.316855" lon="-4.543294">
        <ele>793.619401678443</ele>
        <time>2022-05-17T13:31:22Z</time>
      </trkpt>
      <trkpt lat="42.316807" lon="-4.543413">
        <ele>796.4146927632391</ele>
        <time>2022-05-17T13:31:31Z</time>
      </trkpt>
      <trkpt lat="42.316817" lon="-4.543535">
        <ele>799.8458654647693</ele>
        <time>2022-05-17T13:31:45Z</time>
      </trkpt>
      <trkpt lat="42.316763" lon="-4.543637">
        <ele>807.0578075191006</ele>
        <time>2022-05-17T13:34:05Z</time>
      </trkpt>
      <trkpt lat="42.316841" lon="-4.543701">
        <ele>811.4317897362635</ele>
        <time>2022-05-17T13:34:50Z</time>
      </trkpt>
      <trkpt lat="42.316928" lon="-4.54373">
        <ele>811.9434825535864</ele>
        <time>2022-05-17T13:35:17Z</time>
      </trkpt>
      <trkpt lat="42.316922" lon="-4.543852">
        <ele>811.1804346181452</ele>
        <time>2022-05-17T13:35:26Z</time>
      </trkpt>
      <trkpt lat="42.316828" lon="-4.543812">
        <ele>813.0963377738371</ele>
        <time>2022-05-17T13:35:52Z</time>
      </trkpt>
      <trkpt lat="42.316862" lon="-4.543931">
        <ele>813.1581740146503</ele>
        <time>2022-05-17T13:36:15Z</time>
      </trkpt>
      <trkpt lat="42.316788" lon="-4.54385">
        <ele>817.2878257296979</ele>
        <time>2022-05-17T13:37:41Z</time>
      </trkpt>
      <trkpt lat="42.316696" lon="-4.543746">
        <ele>818.27629285492</ele>
        <time>2022-05-17T13:37:44Z</time>
      </trkpt>
      <trkpt lat="42.316754" lon="-4.543642">
        <ele>818.4264223147184</ele>
        <time>2022-05-17T13:41:10Z</time>
      </trkpt>
      <trkpt lat="42.316687" lon="-4.543551">
        <ele>821.1210429817438</ele>
        <time>2022-05-17T13:42:58Z</time>
      </trkpt>
      <trkpt lat="42.316634" lon="-4.543452">
        <ele>831.1243205498904</ele>
        <time>2022-05-17T13:43:12Z</time>
      </trkpt>
      <trkpt lat="42.316684" lon="-4.543564">
        <ele>836.9697531750426</ele>
        <time>2022-05-17T13:51:45Z</time>
      </trkpt>
      <trkpt lat="42.316781" lon="-4.543577">
        <ele>835.8702020542696</ele>
        <time>2022-05-17T14:01:43Z</time>
      </trkpt>
      <trkpt lat="42.316799" lon="-4.543442">
        <ele>853.3854760229588</ele>
        <time>2022-05-17T14:48:19Z</time>
      </trkpt>
      <trkpt lat="42.316711" lon="-4.543546">
        <ele>855.3477229885757</ele>
        <time>2022-05-17T14:48:55Z</time>
      </trkpt>
      <trkpt lat="42.316618" lon="-4.54357">
        <ele>856.501507062465</ele>
        <time>2022-05-17T14:51:46Z</time>
      </trkpt>
      <trkpt lat="42.316698" lon="-4.54351">
        <ele>867.1428904673085</ele>
        <time>2022-05-17T14:57:10Z</time>
      </trkpt>
      <trkpt lat="42.316663" lon="-4.543632">
        <ele>874.9382764268667</ele>
        <time>2022-05-17T14:57:33Z</time>
      </trkpt>
      <trkpt lat="42.316647" lon="-4.543756">
        <ele>876.0560618918389</ele>
        <time>2022-05-17T14:57:52Z</time>
      </trkpt>
      <trkpt lat="42.316708" lon="-4.543646">
        <ele>875.0704193515703</ele>
        <time>2022-05-17T14:58:28Z</time>
      </trkpt>
      <trkpt lat="42.31663" lon="-4.543745">
        <ele>876.7153175398707</ele>
        <time>2022-05-17T14:58:54Z</time>
      </trkpt>
      <trkpt lat="42.316686" lon="-4.543608">
        <ele>876.314782910049</ele>
        <time>2022-05-17T14:58:59Z</time>
      </trkpt>
      <trkpt lat="42.316615" lon="-4.543699">
        <ele>877.8118337597698</ele>
        <time>2022-05-17T14:59:15Z</time>
      </trkpt>
      <trkpt lat="42.316647" lon="-4.543576">
        <ele>876.8480669092387</ele>
        <time>2022-05-17T14:59:29Z</time>
      </trkpt>
      <trkpt lat="42.316623" lon="-4.543456">
        <ele>875.3494218997657</ele>
        <time>2022-05-17T15:00:21Z</time>
      </trkpt>
      <trkpt lat="42.316675" lon="-4.543337">
        <ele>873.5774066196755</ele>
        <time>2022-05-17T15:01:02Z</time>
      </trkpt>
      <trkpt lat="42.316724" lon="-4.543234">
        <ele>873.5580555256456</ele>
        <time>2022-05-17T15:32:52Z</time>
      </trkpt>
      <trkpt lat="42.316637" lon="-4.543287">
        <ele>873.5785283483565</ele>
        <time>2022-05-17T15:33:29Z</time>
      </trkpt>
      <trkpt lat="42.316552" lon="-4.543335">
        <ele>872.5180345950648</ele>
        <time>2022-05-17T15:36:47Z</time>
      </trkpt>
      <trkpt lat="42.316483" lon="-4.543415">
        <ele>871.9540712526068</ele>
        <time>2022-05-17T15:37:01Z</time>
      </trkpt>
      <trkpt lat="42.316394" lon="-4.54348">
        <ele>879.8856853796169</ele>
        <time>2022-05-17T15:37:42Z</time>
      </trkpt>
      <trkpt lat="42.316414" lon="-4.54335">
        <ele>885.0259392000735</ele>
        <time>2022-05-17T15:37:51Z</time>
      </trkpt>
      <trkpt lat="42.316503" lon="-4.543333">
        <ele>883.0771424397826</ele>
        <time>2022-05-17T15:39:53Z</time>
      </trkpt>
      <trkpt lat="42.316588" lon="-4.543381">
        <ele>877.642510695383</ele>
        <time>2022-05-17T15:44:44Z</time>
      </trkpt>
      <trkpt lat="42.316483" lon="-4.543436">
        <ele>875.2635195693001</ele>
        <time>2022-05-17T15:46:55Z</time>
      </trkpt>
      <trkpt lat="42.316564" lon="-4.543363">
        <ele>873.1712715495378</ele>
        <time>2022-05-17T15:47:44Z</time>
      </trkpt>
      <trkpt lat="42.316639" lon="-4.543448">
        <ele>871.6303686788306</ele>
        <time>2022-05-17T15:49:26Z</time>
      </trkpt>
      <trkpt lat="42.316639" lon="-4.543325">
        <ele>869.6870724549517</ele>
        <time>2022-05-17T15:51:22Z</time>
      </trkpt>
      <trkpt lat="42.316597" lon="-4.543211">
        <ele>866.1183723639697</ele>
        <time>2022-05-17T15:52:07Z</time>
      </trkpt>
      <trkpt lat="42.31668" lon="-4.543139">
        <ele>866.268325262703</ele>
        <time>2022-05-17T15:52:33Z</time>
      </trkpt>
      <trkpt lat="42.316588" lon="-4.543109">
        <ele>867.337647613138</ele>
        <time>2022-05-17T15:53:18Z</time>
      </trkpt>
      <trkpt lat="42.316494" lon="-4.54314">
        <ele>870.3569720573723</ele>
        <time>2022-05-17T15:53:31Z</time>
      </trkpt>
      <trkpt lat="42.31644" lon="-4.543031">
        <ele>873.9523525116965</ele>
        <time>2022-05-17T15:55:03Z</time>
      </trkpt>
      <trkpt lat="42.316467" lon="-4.54291">
        <ele>873.8833660427481</ele>
        <time>2022-05-17T15:55:28Z</time>
      </trkpt>
      <trkpt lat="42.316471" lon="-4.542789">
        <ele>872.4054658869281</ele>
        <time>2022-05-17T15:55:41Z</time>
      </trkpt>
      <trkpt lat="42.316466" lon="-4.54266">
        <ele>868.9885563561693</ele>
        <time>2022-05-17T15:55:56Z</time>
      </trkpt>
      <trkpt lat="42.316467" lon="-4.542538">
        <ele>867.6446593655273</ele>
        <time>2022-05-17T15:56:09Z</time>
      </trkpt>
      <trkpt lat="42.316513" lon="-4.542427">
        <ele>865.7842967454344</ele>
        <time>2022-05-17T15:56:22Z</time>
      </trkpt>
      <trkpt lat="42.31655" lon="-4.54231">
        <ele>865.5671978080645</ele>
        <time>2022-05-17T15:56:37Z</time>
      </trkpt>
      <trkpt lat="42.316592" lon="-4.542187">
        <ele>864.0173767814413</ele>
        <time>2022-05-17T15:56:43Z</time>
      </trkpt>
      <trkpt lat="42.316687" lon="-4.542139">
        <ele>862.7657730830833</ele>
        <time>2022-05-17T15:56:49Z</time>
      </trkpt>
      <trkpt lat="42.316761" lon="-4.542049">
        <ele>859.9364819936454</ele>
        <time>2022-05-17T15:56:57Z</time>
      </trkpt>
      <trkpt lat="42.316848" lon="-4.542001">
        <ele>859.1640005521476</ele>
        <time>2022-05-17T15:57:09Z</time>
      </trkpt>
      <trkpt lat="42.316802" lon="-4.542106">
        <ele>859.9913262473419</ele>
        <time>2022-05-17T15:57:54Z</time>
      </trkpt>
      <trkpt lat="42.316729" lon="-4.542179">
        <ele>856.7103048972785</ele>
        <time>2022-05-17T15:58:06Z</time>
      </trkpt>
      <trkpt lat="42.31667" lon="-4.542275">
        <ele>854.1821748800576</ele>
        <time>2022-05-17T15:58:13Z</time>
      </trkpt>
      <trkpt lat="42.316587" lon="-4.542346">
        <ele>853.9431637208909</ele>
        <time>2022-05-17T15:58:26Z</time>
      </trkpt>
      <trkpt lat="42.316604" lon="-4.542479">
        <ele>855.5605938406661</ele>
        <time>2022-05-17T15:58:34Z</time>
      </trkpt>
      <trkpt lat="42.316591" lon="-4.542605">
        <ele>858.6306350538507</ele>
        <time>2022-05-17T15:58:45Z</time>
      </trkpt>
      <trkpt lat="42.316575" lon="-4.542737">
        <ele>857.0604632720351</ele>
        <time>2022-05-17T15:59:01Z</time>
      </trkpt>
      <trkpt lat="42.31657" lon="-4.542865">
        <ele>860.9602485159412</ele>
        <time>2022-05-17T15:59:08Z</time>
      </trkpt>
      <trkpt lat="42.316536" lon="-4.542985">
        <ele>866.188018030487</ele>
        <time>2022-05-17T15:59:18Z</time>
      </trkpt>
      <trkpt lat="42.316451" lon="-4.543047">
        <ele>866.6814328534529</ele>
        <time>2022-05-17T15:59:23Z</time>
      </trkpt>
      <trkpt lat="42.316365" lon="-4.543093">
        <ele>866.6340883048251</ele>
        <time>2022-05-17T15:59:29Z</time>
      </trkpt>
      <trkpt lat="42.316264" lon="-4.543107">
        <ele>867.1507668811828</ele>
        <time>2022-05-17T15:59:43Z</time>
      </trkpt>
      <trkpt lat="42.316172" lon="-4.543103">
        <ele>865.3907363042235</ele>
        <time>2022-05-17T15:59:52Z</time>
      </trkpt>
      <trkpt lat="42.316082" lon="-4.543151">
        <ele>860.9921962385997</ele>
        <time>2022-05-17T16:00:03Z</time>
      </trkpt>
      <trkpt lat="42.315991" lon="-4.543147">
        <ele>859.6687270989642</ele>
        <time>2022-05-17T16:00:10Z</time>
      </trkpt>
      <trkpt lat="42.315904" lon="-4.543209">
        <ele>859.1334071401507</ele>
        <time>2022-05-17T16:00:19Z</time>
      </trkpt>
      <trkpt lat="42.315808" lon="-4.543246">
        <ele>854.2361181238666</ele>
        <time>2022-05-17T16:00:24Z</time>
      </trkpt>
      <trkpt lat="42.31571" lon="-4.543248">
        <ele>862.3107731640339</ele>
        <time>2022-05-17T16:00:30Z</time>
      </trkpt>
      <trkpt lat="42.315611" lon="-4.543265">
        <ele>863.3958740634844</ele>
        <time>2022-05-17T16:00:35Z</time>
      </trkpt>
      <trkpt lat="42.31552" lon="-4.543322">
        <ele>860.7219593627378</ele>
        <time>2022-05-17T16:00:48Z</time>
      </trkpt>
      <trkpt lat="42.31542" lon="-4.543354">
        <ele>861.1850002305582</ele>
        <time>2022-05-17T16:00:57Z</time>
      </trkpt>
      <trkpt lat="42.315379" lon="-4.543468">
        <ele>861.1640854841098</ele>
        <time>2022-05-17T16:01:28Z</time>
      </trkpt>
      <trkpt lat="42.315439" lon="-4.543563">
        <ele>862.417143930681</ele>
        <time>2022-05-17T16:01:35Z</time>
      </trkpt>
      <trkpt lat="42.315473" lon="-4.543684">
        <ele>862.8246997017413</ele>
        <time>2022-05-17T16:01:43Z</time>
      </trkpt>
      <trkpt lat="42.315514" lon="-4.543809">
        <ele>864.7983739189804</ele>
        <time>2022-05-17T16:01:52Z</time>
      </trkpt>
      <trkpt lat="42.315556" lon="-4.543923">
        <ele>866.1340353721753</ele>
        <time>2022-05-17T16:01:59Z</time>
      </trkpt>
      <trkpt lat="42.315596" lon="-4.544034">
        <ele>866.8012914704159</ele>
        <time>2022-05-17T16:02:07Z</time>
      </trkpt>
      <trkpt lat="42.315637" lon="-4.544143">
        <ele>867.051874124445</ele>
        <time>2022-05-17T16:02:18Z</time>
      </trkpt>
      <trkpt lat="42.315674" lon="-4.544263">
        <ele>867.945758680813</ele>
        <time>2022-05-17T16:02:26Z</time>
      </trkpt>
      <trkpt lat="42.315702" lon="-4.544387">
        <ele>868.4335259348154</ele>
        <time>2022-05-17T16:02:35Z</time>
      </trkpt>
      <trkpt lat="42.315724" lon="-4.544507">
        <ele>869.4342290060595</ele>
        <time>2022-05-17T16:02:42Z</time>
      </trkpt>
      <trkpt lat="42.315749" lon="-4.544629">
        <ele>868.8811781415716</ele>
        <time>2022-05-17T16:02:51Z</time>
      </trkpt>
      <trkpt lat="42.315772" lon="-4.544746">
        <ele>869.4929934777319</ele>
        <time>2022-05-17T16:02:59Z</time>
      </trkpt>
      <trkpt lat="42.315793" lon="-4.544868">
        <ele>869.6227907333523</ele>
        <time>2022-05-17T16:03:08Z</time>
      </trkpt>
      <trkpt lat="42.315812" lon="-4.544987">
        <ele>868.8949504382908</ele>
        <time>2022-05-17T16:03:16Z</time>
      </trkpt>
      <trkpt lat="42.315851" lon="-4.545107">
        <ele>867.3278028164059</ele>
        <time>2022-05-17T16:03:23Z</time>
      </trkpt>
      <trkpt lat="42.31588" lon="-4.545223">
        <ele>866.0969846891239</ele>
        <time>2022-05-17T16:03:32Z</time>
      </trkpt>
      <trkpt lat="42.315892" lon="-4.545355">
        <ele>865.2095305630937</ele>
        <time>2022-05-17T16:03:41Z</time>
      </trkpt>
      <trkpt lat="42.3159" lon="-4.545478">
        <ele>864.5247720545158</ele>
        <time>2022-05-17T16:03:50Z</time>
      </trkpt>
      <trkpt lat="42.315914" lon="-4.545609">
        <ele>864.9836554033682</ele>
        <time>2022-05-17T16:03:57Z</time>
      </trkpt>
      <trkpt lat="42.315952" lon="-4.545726">
        <ele>866.598532971926</ele>
        <time>2022-05-17T16:04:05Z</time>
      </trkpt>
      <trkpt lat="42.316037" lon="-4.545785">
        <ele>865.8650256553665</ele>
        <time>2022-05-17T16:04:13Z</time>
      </trkpt>
      <trkpt lat="42.316125" lon="-4.545813">
        <ele>862.3192574363202</ele>
        <time>2022-05-17T16:04:17Z</time>
      </trkpt>
      <trkpt lat="42.316198" lon="-4.545889">
        <ele>862.8505022795871</ele>
        <time>2022-05-17T16:04:22Z</time>
      </trkpt>
      <trkpt lat="42.316246" lon="-4.546008">
        <ele>866.2537730103359</ele>
        <time>2022-05-17T16:04:31Z</time>
      </trkpt>
      <trkpt lat="42.316294" lon="-4.546112">
        <ele>870.5958900758997</ele>
        <time>2022-05-17T16:04:39Z</time>
      </trkpt>
      <trkpt lat="42.316345" lon="-4.546213">
        <ele>873.4839216992259</ele>
        <time>2022-05-17T16:04:57Z</time>
      </trkpt>
      <trkpt lat="42.316393" lon="-4.546322">
        <ele>873.977024929598</ele>
        <time>2022-05-17T16:05:06Z</time>
      </trkpt>
      <trkpt lat="42.316459" lon="-4.546411">
        <ele>874.0916492585093</ele>
        <time>2022-05-17T16:05:12Z</time>
      </trkpt>
      <trkpt lat="42.316499" lon="-4.546524">
        <ele>876.4844791805372</ele>
        <time>2022-05-17T16:05:21Z</time>
      </trkpt>
      <trkpt lat="42.316534" lon="-4.546644">
        <ele>877.3741190740839</ele>
        <time>2022-05-17T16:05:30Z</time>
      </trkpt>
      <trkpt lat="42.316547" lon="-4.546777">
        <ele>878.291533138603</ele>
        <time>2022-05-17T16:05:38Z</time>
      </trkpt>
      <trkpt lat="42.316583" lon="-4.546898">
        <ele>878.4338848441839</ele>
        <time>2022-05-17T16:05:48Z</time>
      </trkpt>
      <trkpt lat="42.316613" lon="-4.547016">
        <ele>878.9157508946955</ele>
        <time>2022-05-17T16:05:57Z</time>
      </trkpt>
      <trkpt lat="42.316643" lon="-4.547144">
        <ele>879.3791281282902</ele>
        <time>2022-05-17T16:06:08Z</time>
      </trkpt>
      <trkpt lat="42.316692" lon="-4.547262">
        <ele>879.7403279049322</ele>
        <time>2022-05-17T16:06:15Z</time>
      </trkpt>
      <trkpt lat="42.316738" lon="-4.547381">
        <ele>878.8671351633966</ele>
        <time>2022-05-17T16:06:25Z</time>
      </trkpt>
      <trkpt lat="42.31677" lon="-4.547501">
        <ele>878.400694578886</ele>
        <time>2022-05-17T16:06:33Z</time>
      </trkpt>
      <trkpt lat="42.316808" lon="-4.547616">
        <ele>879.7076296648011</ele>
        <time>2022-05-17T16:06:42Z</time>
      </trkpt>
      <trkpt lat="42.316845" lon="-4.547737">
        <ele>880.9819865077734</ele>
        <time>2022-05-17T16:06:50Z</time>
      </trkpt>
      <trkpt lat="42.316879" lon="-4.547859">
        <ele>881.4081636928022</ele>
        <time>2022-05-17T16:06:58Z</time>
      </trkpt>
      <trkpt lat="42.316916" lon="-4.547974">
        <ele>880.9503709720448</ele>
        <time>2022-05-17T16:07:05Z</time>
      </trkpt>
      <trkpt lat="42.316961" lon="-4.548092">
        <ele>880.3790145460516</ele>
        <time>2022-05-17T16:07:15Z</time>
      </trkpt>
      <trkpt lat="42.316995" lon="-4.548222">
        <ele>880.3324602497742</ele>
        <time>2022-05-17T16:07:23Z</time>
      </trkpt>
      <trkpt lat="42.317005" lon="-4.548344">
        <ele>881.158623852767</ele>
        <time>2022-05-17T16:07:32Z</time>
      </trkpt>
      <trkpt lat="42.317051" lon="-4.548465">
        <ele>880.8032415332273</ele>
        <time>2022-05-17T16:07:40Z</time>
      </trkpt>
      <trkpt lat="42.317096" lon="-4.548596">
        <ele>878.2634922033176</ele>
        <time>2022-05-17T16:07:48Z</time>
      </trkpt>
      <trkpt lat="42.317139" lon="-4.548709">
        <ele>878.7271670708433</ele>
        <time>2022-05-17T16:07:55Z</time>
      </trkpt>
      <trkpt lat="42.317187" lon="-4.548817">
        <ele>879.0365091245621</ele>
        <time>2022-05-17T16:08:03Z</time>
      </trkpt>
      <trkpt lat="42.317231" lon="-4.548929">
        <ele>880.0492547573522</ele>
        <time>2022-05-17T16:08:12Z</time>
      </trkpt>
      <trkpt lat="42.317255" lon="-4.549046">
        <ele>879.871828888543</ele>
        <time>2022-05-17T16:08:21Z</time>
      </trkpt>
      <trkpt lat="42.317295" lon="-4.549168">
        <ele>881.3654653141275</ele>
        <time>2022-05-17T16:08:28Z</time>
      </trkpt>
      <trkpt lat="42.317346" lon="-4.549276">
        <ele>882.6343860644847</ele>
        <time>2022-05-17T16:08:36Z</time>
      </trkpt>
      <trkpt lat="42.317376" lon="-4.549403">
        <ele>882.5431875139475</ele>
        <time>2022-05-17T16:08:45Z</time>
      </trkpt>
      <trkpt lat="42.317416" lon="-4.549523">
        <ele>882.8623320711777</ele>
        <time>2022-05-17T16:08:53Z</time>
      </trkpt>
      <trkpt lat="42.317424" lon="-4.549646">
        <ele>881.030736906454</ele>
        <time>2022-05-17T16:09:03Z</time>
      </trkpt>
      <trkpt lat="42.317465" lon="-4.549761">
        <ele>880.4811183242127</ele>
        <time>2022-05-17T16:09:11Z</time>
      </trkpt>
      <trkpt lat="42.3175" lon="-4.549891">
        <ele>880.423928508535</ele>
        <time>2022-05-17T16:09:20Z</time>
      </trkpt>
      <trkpt lat="42.317551" lon="-4.550013">
        <ele>880.8422258114442</ele>
        <time>2022-05-17T16:09:28Z</time>
      </trkpt>
      <trkpt lat="42.317594" lon="-4.55012">
        <ele>880.865222344175</ele>
        <time>2022-05-17T16:09:35Z</time>
      </trkpt>
      <trkpt lat="42.317628" lon="-4.550239">
        <ele>880.9528477275744</ele>
        <time>2022-05-17T16:09:43Z</time>
      </trkpt>
      <trkpt lat="42.317638" lon="-4.550363">
        <ele>881.2412712816149</ele>
        <time>2022-05-17T16:09:53Z</time>
      </trkpt>
      <trkpt lat="42.317678" lon="-4.550484">
        <ele>880.8128697592765</ele>
        <time>2022-05-17T16:10:02Z</time>
      </trkpt>
      <trkpt lat="42.317715" lon="-4.550612">
        <ele>879.934158702381</ele>
        <time>2022-05-17T16:10:11Z</time>
      </trkpt>
      <trkpt lat="42.31776" lon="-4.550727">
        <ele>879.9169652527198</ele>
        <time>2022-05-17T16:10:18Z</time>
      </trkpt>
      <trkpt lat="42.3178" lon="-4.550843">
        <ele>880.0592291681096</ele>
        <time>2022-05-17T16:10:26Z</time>
      </trkpt>
      <trkpt lat="42.31784" lon="-4.550952">
        <ele>879.6756262797862</ele>
        <time>2022-05-17T16:10:34Z</time>
      </trkpt>
      <trkpt lat="42.317875" lon="-4.551068">
        <ele>881.7167964801192</ele>
        <time>2022-05-17T16:10:42Z</time>
      </trkpt>
      <trkpt lat="42.317903" lon="-4.551188">
        <ele>882.3920610966161</ele>
        <time>2022-05-17T16:10:51Z</time>
      </trkpt>
      <trkpt lat="42.317946" lon="-4.551299">
        <ele>883.033535644412</ele>
        <time>2022-05-17T16:10:58Z</time>
      </trkpt>
      <trkpt lat="42.317985" lon="-4.551427">
        <ele>881.9317518025637</ele>
        <time>2022-05-17T16:11:06Z</time>
      </trkpt>
      <trkpt lat="42.318019" lon="-4.551547">
        <ele>882.3428707672283</ele>
        <time>2022-05-17T16:11:13Z</time>
      </trkpt>
      <trkpt lat="42.318057" lon="-4.55166">
        <ele>882.1559997983277</ele>
        <time>2022-05-17T16:11:22Z</time>
      </trkpt>
      <trkpt lat="42.31809" lon="-4.551775">
        <ele>883.1451984932646</ele>
        <time>2022-05-17T16:11:30Z</time>
      </trkpt>
      <trkpt lat="42.31812" lon="-4.551892">
        <ele>881.2766700135544</ele>
        <time>2022-05-17T16:11:38Z</time>
      </trkpt>
      <trkpt lat="42.318153" lon="-4.552021">
        <ele>879.2066803202033</ele>
        <time>2022-05-17T16:11:47Z</time>
      </trkpt>
      <trkpt lat="42.318193" lon="-4.552137">
        <ele>877.0299067050219</ele>
        <time>2022-05-17T16:11:55Z</time>
      </trkpt>
      <trkpt lat="42.318225" lon="-4.552252">
        <ele>877.530616552569</ele>
        <time>2022-05-17T16:12:02Z</time>
      </trkpt>
      <trkpt lat="42.318237" lon="-4.552383">
        <ele>878.1147765107453</ele>
        <time>2022-05-17T16:12:11Z</time>
      </trkpt>
      <trkpt lat="42.318268" lon="-4.552508">
        <ele>877.2304378887638</ele>
        <time>2022-05-17T16:12:21Z</time>
      </trkpt>
      <trkpt lat="42.318305" lon="-4.552619">
        <ele>876.6099312212318</ele>
        <time>2022-05-17T16:12:28Z</time>
      </trkpt>
      <trkpt lat="42.318349" lon="-4.552729">
        <ele>876.4922363543883</ele>
        <time>2022-05-17T16:12:36Z</time>
      </trkpt>
      <trkpt lat="42.318358" lon="-4.552857">
        <ele>875.1091439882293</ele>
        <time>2022-05-17T16:12:44Z</time>
      </trkpt>
      <trkpt lat="42.318389" lon="-4.552987">
        <ele>874.1798961274326</ele>
        <time>2022-05-17T16:12:52Z</time>
      </trkpt>
      <trkpt lat="42.318425" lon="-4.5531">
        <ele>874.2838809750974</ele>
        <time>2022-05-17T16:12:59Z</time>
      </trkpt>
      <trkpt lat="42.318467" lon="-4.553213">
        <ele>876.6835821447894</ele>
        <time>2022-05-17T16:13:07Z</time>
      </trkpt>
      <trkpt lat="42.318502" lon="-4.553336">
        <ele>876.7088028583676</ele>
        <time>2022-05-17T16:13:16Z</time>
      </trkpt>
      <trkpt lat="42.318551" lon="-4.553456">
        <ele>877.4502576990053</ele>
        <time>2022-05-17T16:13:23Z</time>
      </trkpt>
      <trkpt lat="42.318583" lon="-4.553588">
        <ele>877.44028004352</ele>
        <time>2022-05-17T16:13:32Z</time>
      </trkpt>
      <trkpt lat="42.318635" lon="-4.553703">
        <ele>878.5293317008764</ele>
        <time>2022-05-17T16:13:39Z</time>
      </trkpt>
      <trkpt lat="42.31867" lon="-4.553814">
        <ele>877.7395109627396</ele>
        <time>2022-05-17T16:13:47Z</time>
      </trkpt>
      <trkpt lat="42.318712" lon="-4.553939">
        <ele>877.0249556135386</ele>
        <time>2022-05-17T16:13:55Z</time>
      </trkpt>
      <trkpt lat="42.318743" lon="-4.55406">
        <ele>877.0995800113305</ele>
        <time>2022-05-17T16:14:05Z</time>
      </trkpt>
      <trkpt lat="42.318784" lon="-4.554176">
        <ele>877.5754755306989</ele>
        <time>2022-05-17T16:14:13Z</time>
      </trkpt>
      <trkpt lat="42.318811" lon="-4.554295">
        <ele>877.1104311002418</ele>
        <time>2022-05-17T16:14:22Z</time>
      </trkpt>
      <trkpt lat="42.318846" lon="-4.554408">
        <ele>878.5997568732128</ele>
        <time>2022-05-17T16:14:28Z</time>
      </trkpt>
      <trkpt lat="42.318871" lon="-4.554527">
        <ele>878.1036059278995</ele>
        <time>2022-05-17T16:14:37Z</time>
      </trkpt>
      <trkpt lat="42.318929" lon="-4.554641">
        <ele>880.7874109623954</ele>
        <time>2022-05-17T16:14:44Z</time>
      </trkpt>
      <trkpt lat="42.318967" lon="-4.554769">
        <ele>881.3039264753461</ele>
        <time>2022-05-17T16:14:55Z</time>
      </trkpt>
      <trkpt lat="42.319009" lon="-4.554879">
        <ele>882.2305545369163</ele>
        <time>2022-05-17T16:15:01Z</time>
      </trkpt>
      <trkpt lat="42.319048" lon="-4.555">
        <ele>882.6890899157152</ele>
        <time>2022-05-17T16:15:10Z</time>
      </trkpt>
      <trkpt lat="42.319092" lon="-4.555115">
        <ele>883.3864356493577</ele>
        <time>2022-05-17T16:15:16Z</time>
      </trkpt>
      <trkpt lat="42.319114" lon="-4.555243">
        <ele>881.0658901445568</ele>
        <time>2022-05-17T16:15:26Z</time>
      </trkpt>
      <trkpt lat="42.319157" lon="-4.555357">
        <ele>881.422807498835</ele>
        <time>2022-05-17T16:15:33Z</time>
      </trkpt>
      <trkpt lat="42.319198" lon="-4.555473">
        <ele>879.7263661045581</ele>
        <time>2022-05-17T16:15:42Z</time>
      </trkpt>
      <trkpt lat="42.319225" lon="-4.555594">
        <ele>878.5273714698851</ele>
        <time>2022-05-17T16:15:50Z</time>
      </trkpt>
      <trkpt lat="42.31924" lon="-4.55573">
        <ele>878.7450717259198</ele>
        <time>2022-05-17T16:15:57Z</time>
      </trkpt>
      <trkpt lat="42.319275" lon="-4.555845">
        <ele>880.1657649604604</ele>
        <time>2022-05-17T16:16:03Z</time>
      </trkpt>
      <trkpt lat="42.319299" lon="-4.55597">
        <ele>877.8446141583845</ele>
        <time>2022-05-17T16:16:12Z</time>
      </trkpt>
      <trkpt lat="42.319326" lon="-4.556088">
        <ele>876.3270315835252</ele>
        <time>2022-05-17T16:16:20Z</time>
      </trkpt>
      <trkpt lat="42.319359" lon="-4.556203">
        <ele>877.605405039154</ele>
        <time>2022-05-17T16:16:28Z</time>
      </trkpt>
      <trkpt lat="42.319381" lon="-4.556321">
        <ele>878.0135407494381</ele>
        <time>2022-05-17T16:16:37Z</time>
      </trkpt>
      <trkpt lat="42.319413" lon="-4.556442">
        <ele>878.6078353310004</ele>
        <time>2022-05-17T16:16:45Z</time>
      </trkpt>
      <trkpt lat="42.319438" lon="-4.556571">
        <ele>878.3715770309791</ele>
        <time>2022-05-17T16:16:53Z</time>
      </trkpt>
      <trkpt lat="42.319472" lon="-4.556697">
        <ele>878.9790362548083</ele>
        <time>2022-05-17T16:17:01Z</time>
      </trkpt>
      <trkpt lat="42.319512" lon="-4.556815">
        <ele>878.6755078043789</ele>
        <time>2022-05-17T16:17:09Z</time>
      </trkpt>
      <trkpt lat="42.319553" lon="-4.556937">
        <ele>877.078097101301</ele>
        <time>2022-05-17T16:17:18Z</time>
      </trkpt>
      <trkpt lat="42.319611" lon="-4.557036">
        <ele>878.7309826333076</ele>
        <time>2022-05-17T16:17:24Z</time>
      </trkpt>
      <trkpt lat="42.319653" lon="-4.557154">
        <ele>879.479029931128</ele>
        <time>2022-05-17T16:17:32Z</time>
      </trkpt>
      <trkpt lat="42.319682" lon="-4.557276">
        <ele>877.0793184144422</ele>
        <time>2022-05-17T16:17:40Z</time>
      </trkpt>
      <trkpt lat="42.31971" lon="-4.557395">
        <ele>877.1628451123834</ele>
        <time>2022-05-17T16:17:46Z</time>
      </trkpt>
      <trkpt lat="42.319744" lon="-4.557516">
        <ele>876.9713903395459</ele>
        <time>2022-05-17T16:17:53Z</time>
      </trkpt>
      <trkpt lat="42.31978" lon="-4.557634">
        <ele>876.7274227570742</ele>
        <time>2022-05-17T16:18:01Z</time>
      </trkpt>
      <trkpt lat="42.319796" lon="-4.557754">
        <ele>875.1140316585079</ele>
        <time>2022-05-17T16:18:11Z</time>
      </trkpt>
      <trkpt lat="42.319836" lon="-4.557867">
        <ele>874.1886472525075</ele>
        <time>2022-05-17T16:18:17Z</time>
      </trkpt>
      <trkpt lat="42.319886" lon="-4.557986">
        <ele>874.8286680029705</ele>
        <time>2022-05-17T16:18:23Z</time>
      </trkpt>
      <trkpt lat="42.319903" lon="-4.558111">
        <ele>873.8190523404628</ele>
        <time>2022-05-17T16:18:32Z</time>
      </trkpt>
      <trkpt lat="42.319948" lon="-4.558221">
        <ele>873.9946948550642</ele>
        <time>2022-05-17T16:18:38Z</time>
      </trkpt>
      <trkpt lat="42.319981" lon="-4.558347">
        <ele>874.952115743421</ele>
        <time>2022-05-17T16:18:46Z</time>
      </trkpt>
      <trkpt lat="42.320003" lon="-4.558473">
        <ele>873.0444347783923</ele>
        <time>2022-05-17T16:18:57Z</time>
      </trkpt>
      <trkpt lat="42.320029" lon="-4.558597">
        <ele>872.7024044971913</ele>
        <time>2022-05-17T16:19:03Z</time>
      </trkpt>
      <trkpt lat="42.320068" lon="-4.558707">
        <ele>873.206406568177</ele>
        <time>2022-05-17T16:19:11Z</time>
      </trkpt>
      <trkpt lat="42.320111" lon="-4.558816">
        <ele>873.7540716566145</ele>
        <time>2022-05-17T16:19:18Z</time>
      </trkpt>
      <trkpt lat="42.320147" lon="-4.558936">
        <ele>875.8166836202145</ele>
        <time>2022-05-17T16:19:25Z</time>
      </trkpt>
      <trkpt lat="42.320181" lon="-4.559062">
        <ele>877.5808960786089</ele>
        <time>2022-05-17T16:19:33Z</time>
      </trkpt>
      <trkpt lat="42.320222" lon="-4.559182">
        <ele>878.0602453099564</ele>
        <time>2022-05-17T16:19:41Z</time>
      </trkpt>
      <trkpt lat="42.32028" lon="-4.559285">
        <ele>879.866357177496</ele>
        <time>2022-05-17T16:19:48Z</time>
      </trkpt>
      <trkpt lat="42.320299" lon="-4.559414">
        <ele>880.343575055711</ele>
        <time>2022-05-17T16:19:58Z</time>
      </trkpt>
      <trkpt lat="42.320338" lon="-4.559529">
        <ele>880.0007542241365</ele>
        <time>2022-05-17T16:20:05Z</time>
      </trkpt>
      <trkpt lat="42.320377" lon="-4.559654">
        <ele>877.9543566145003</ele>
        <time>2022-05-17T16:20:14Z</time>
      </trkpt>
      <trkpt lat="42.320416" lon="-4.559778">
        <ele>879.179567319341</ele>
        <time>2022-05-17T16:20:22Z</time>
      </trkpt>
      <trkpt lat="42.320449" lon="-4.559891">
        <ele>877.9946142677218</ele>
        <time>2022-05-17T16:20:30Z</time>
      </trkpt>
      <trkpt lat="42.320485" lon="-4.560006">
        <ele>877.291289309971</ele>
        <time>2022-05-17T16:20:36Z</time>
      </trkpt>
      <trkpt lat="42.320519" lon="-4.560124">
        <ele>877.1353498287499</ele>
        <time>2022-05-17T16:20:45Z</time>
      </trkpt>
      <trkpt lat="42.32055" lon="-4.560253">
        <ele>875.3033260563388</ele>
        <time>2022-05-17T16:20:56Z</time>
      </trkpt>
      <trkpt lat="42.320582" lon="-4.560367">
        <ele>875.2968583079055</ele>
        <time>2022-05-17T16:21:02Z</time>
      </trkpt>
      <trkpt lat="42.320624" lon="-4.560482">
        <ele>876.8008388932794</ele>
        <time>2022-05-17T16:21:08Z</time>
      </trkpt>
      <trkpt lat="42.32065" lon="-4.560602">
        <ele>878.6666476754472</ele>
        <time>2022-05-17T16:21:16Z</time>
      </trkpt>
      <trkpt lat="42.320676" lon="-4.560724">
        <ele>876.0764368381351</ele>
        <time>2022-05-17T16:21:25Z</time>
      </trkpt>
      <trkpt lat="42.32073" lon="-4.560827">
        <ele>876.2825957201421</ele>
        <time>2022-05-17T16:21:30Z</time>
      </trkpt>
      <trkpt lat="42.320769" lon="-4.560944">
        <ele>877.9006470767781</ele>
        <time>2022-05-17T16:21:37Z</time>
      </trkpt>
      <trkpt lat="42.320821" lon="-4.561047">
        <ele>879.5304807228968</ele>
        <time>2022-05-17T16:21:43Z</time>
      </trkpt>
      <trkpt lat="42.320843" lon="-4.561183">
        <ele>879.3346747923642</ele>
        <time>2022-05-17T16:21:52Z</time>
      </trkpt>
      <trkpt lat="42.320843" lon="-4.561183">
        <ele>879.3346747923642</ele>
        <time>2022-05-17T16:21:52Z</time>
      </trkpt>
      <trkpt lat="42.320869" lon="-4.561304">
        <ele>879.3886422887444</ele>
        <time>2022-05-17T16:21:59Z</time>
      </trkpt>
      <trkpt lat="42.320912" lon="-4.561427">
        <ele>879.6690224129707</ele>
        <time>2022-05-17T16:22:06Z</time>
      </trkpt>
      <trkpt lat="42.320948" lon="-4.561542">
        <ele>879.9296949869022</ele>
        <time>2022-05-17T16:22:13Z</time>
      </trkpt>
      <trkpt lat="42.32098" lon="-4.561656">
        <ele>879.6152056669816</ele>
        <time>2022-05-17T16:22:21Z</time>
      </trkpt>
      <trkpt lat="42.321005" lon="-4.561788">
        <ele>877.6236662603915</ele>
        <time>2022-05-17T16:22:30Z</time>
      </trkpt>
      <trkpt lat="42.321052" lon="-4.561894">
        <ele>877.1134896064177</ele>
        <time>2022-05-17T16:22:36Z</time>
      </trkpt>
      <trkpt lat="42.321084" lon="-4.562025">
        <ele>877.2896763095632</ele>
        <time>2022-05-17T16:22:42Z</time>
      </trkpt>
      <trkpt lat="42.321129" lon="-4.562136">
        <ele>878.2007312774658</ele>
        <time>2022-05-17T16:22:49Z</time>
      </trkpt>
      <trkpt lat="42.321149" lon="-4.562269">
        <ele>876.8886099243537</ele>
        <time>2022-05-17T16:23:00Z</time>
      </trkpt>
      <trkpt lat="42.321175" lon="-4.562389">
        <ele>877.4399316105992</ele>
        <time>2022-05-17T16:23:07Z</time>
      </trkpt>
      <trkpt lat="42.321223" lon="-4.562511">
        <ele>879.6308535085991</ele>
        <time>2022-05-17T16:23:14Z</time>
      </trkpt>
      <trkpt lat="42.321239" lon="-4.562633">
        <ele>877.5638774270192</ele>
        <time>2022-05-17T16:23:25Z</time>
      </trkpt>
      <trkpt lat="42.321287" lon="-4.562746">
        <ele>878.0924270302057</ele>
        <time>2022-05-17T16:23:32Z</time>
      </trkpt>
      <trkpt lat="42.321314" lon="-4.562863">
        <ele>878.8382834140211</ele>
        <time>2022-05-17T16:23:40Z</time>
      </trkpt>
      <trkpt lat="42.321354" lon="-4.562984">
        <ele>880.7184182340279</ele>
        <time>2022-05-17T16:23:47Z</time>
      </trkpt>
      <trkpt lat="42.321396" lon="-4.563101">
        <ele>880.1063295714557</ele>
        <time>2022-05-17T16:23:56Z</time>
      </trkpt>
      <trkpt lat="42.321434" lon="-4.56322">
        <ele>881.348684634082</ele>
        <time>2022-05-17T16:24:03Z</time>
      </trkpt>
      <trkpt lat="42.32148" lon="-4.563324">
        <ele>881.7814769940451</ele>
        <time>2022-05-17T16:24:11Z</time>
      </trkpt>
      <trkpt lat="42.321509" lon="-4.563456">
        <ele>879.7867173273116</ele>
        <time>2022-05-17T16:24:21Z</time>
      </trkpt>
      <trkpt lat="42.321551" lon="-4.563578">
        <ele>880.8955111484975</ele>
        <time>2022-05-17T16:24:27Z</time>
      </trkpt>
      <trkpt lat="42.32157" lon="-4.563698">
        <ele>881.5481634335592</ele>
        <time>2022-05-17T16:24:36Z</time>
      </trkpt>
      <trkpt lat="42.321619" lon="-4.563819">
        <ele>880.3728972161189</ele>
        <time>2022-05-17T16:24:44Z</time>
      </trkpt>
      <trkpt lat="42.321664" lon="-4.56394">
        <ele>881.643747347407</ele>
        <time>2022-05-17T16:24:52Z</time>
      </trkpt>
      <trkpt lat="42.321711" lon="-4.564055">
        <ele>881.339389199391</ele>
        <time>2022-05-17T16:25:01Z</time>
      </trkpt>
      <trkpt lat="42.321746" lon="-4.564171">
        <ele>881.6761205811054</ele>
        <time>2022-05-17T16:25:08Z</time>
      </trkpt>
      <trkpt lat="42.321782" lon="-4.564292">
        <ele>882.6167962662876</ele>
        <time>2022-05-17T16:25:16Z</time>
      </trkpt>
      <trkpt lat="42.321817" lon="-4.564406">
        <ele>883.7509821886197</ele>
        <time>2022-05-17T16:25:22Z</time>
      </trkpt>
      <trkpt lat="42.321854" lon="-4.564525">
        <ele>884.5301482863724</ele>
        <time>2022-05-17T16:25:30Z</time>
      </trkpt>
      <trkpt lat="42.321886" lon="-4.56464">
        <ele>884.339906681329</ele>
        <time>2022-05-17T16:25:38Z</time>
      </trkpt>
      <trkpt lat="42.321926" lon="-4.564752">
        <ele>884.971807369031</ele>
        <time>2022-05-17T16:25:45Z</time>
      </trkpt>
      <trkpt lat="42.321933" lon="-4.564874">
        <ele>883.9912323998287</ele>
        <time>2022-05-17T16:25:53Z</time>
      </trkpt>
      <trkpt lat="42.321981" lon="-4.564995">
        <ele>883.7961761513725</ele>
        <time>2022-05-17T16:26:02Z</time>
      </trkpt>
      <trkpt lat="42.322024" lon="-4.565118">
        <ele>884.1868199761957</ele>
        <time>2022-05-17T16:26:08Z</time>
      </trkpt>
      <trkpt lat="42.322063" lon="-4.565231">
        <ele>884.9620836200193</ele>
        <time>2022-05-17T16:26:15Z</time>
      </trkpt>
      <trkpt lat="42.322077" lon="-4.565362">
        <ele>884.9444000860676</ele>
        <time>2022-05-17T16:26:24Z</time>
      </trkpt>
      <trkpt lat="42.322121" lon="-4.565471">
        <ele>887.7216668734327</ele>
        <time>2022-05-17T16:26:30Z</time>
      </trkpt>
      <trkpt lat="42.322164" lon="-4.565595">
        <ele>888.2707402296364</ele>
        <time>2022-05-17T16:26:37Z</time>
      </trkpt>
      <trkpt lat="42.322211" lon="-4.565707">
        <ele>888.3611841415986</ele>
        <time>2022-05-17T16:26:46Z</time>
      </trkpt>
      <trkpt lat="42.32225" lon="-4.565836">
        <ele>890.1204645074904</ele>
        <time>2022-05-17T16:26:52Z</time>
      </trkpt>
      <trkpt lat="42.322285" lon="-4.56595">
        <ele>890.5351176019758</ele>
        <time>2022-05-17T16:27:00Z</time>
      </trkpt>
      <trkpt lat="42.322331" lon="-4.566064">
        <ele>891.2298767063767</ele>
        <time>2022-05-17T16:27:07Z</time>
      </trkpt>
      <trkpt lat="42.322368" lon="-4.566177">
        <ele>891.8720054905862</ele>
        <time>2022-05-17T16:27:15Z</time>
      </trkpt>
      <trkpt lat="42.322407" lon="-4.566299">
        <ele>893.1507333973423</ele>
        <time>2022-05-17T16:27:23Z</time>
      </trkpt>
      <trkpt lat="42.322447" lon="-4.566415">
        <ele>893.4516692468897</ele>
        <time>2022-05-17T16:27:32Z</time>
      </trkpt>
      <trkpt lat="42.322497" lon="-4.566529">
        <ele>893.3117675278336</ele>
        <time>2022-05-17T16:27:41Z</time>
      </trkpt>
      <trkpt lat="42.322534" lon="-4.566654">
        <ele>893.867937900126</ele>
        <time>2022-05-17T16:27:48Z</time>
      </trkpt>
      <trkpt lat="42.322582" lon="-4.566775">
        <ele>894.1321701416746</ele>
        <time>2022-05-17T16:27:56Z</time>
      </trkpt>
      <trkpt lat="42.32263" lon="-4.566895">
        <ele>895.1148578217253</ele>
        <time>2022-05-17T16:28:04Z</time>
      </trkpt>
      <trkpt lat="42.322677" lon="-4.567001">
        <ele>896.0797124644741</ele>
        <time>2022-05-17T16:28:12Z</time>
      </trkpt>
      <trkpt lat="42.322716" lon="-4.567129">
        <ele>896.4776688311249</ele>
        <time>2022-05-17T16:28:20Z</time>
      </trkpt>
      <trkpt lat="42.322776" lon="-4.567234">
        <ele>898.0999189969152</ele>
        <time>2022-05-17T16:28:28Z</time>
      </trkpt>
      <trkpt lat="42.322832" lon="-4.567334">
        <ele>899.1031523942947</ele>
        <time>2022-05-17T16:28:34Z</time>
      </trkpt>
      <trkpt lat="42.32288" lon="-4.567437">
        <ele>900.295182460919</ele>
        <time>2022-05-17T16:28:41Z</time>
      </trkpt>
      <trkpt lat="42.322925" lon="-4.567552">
        <ele>898.6575207915157</ele>
        <time>2022-05-17T16:28:50Z</time>
      </trkpt>
      <trkpt lat="42.322969" lon="-4.567668">
        <ele>899.4288677368313</ele>
        <time>2022-05-17T16:28:58Z</time>
      </trkpt>
      <trkpt lat="42.323022" lon="-4.567774">
        <ele>900.2368543967605</ele>
        <time>2022-05-17T16:29:06Z</time>
      </trkpt>
      <trkpt lat="42.323075" lon="-4.567877">
        <ele>899.5474551515654</ele>
        <time>2022-05-17T16:29:13Z</time>
      </trkpt>
      <trkpt lat="42.323122" lon="-4.567984">
        <ele>899.7118686260656</ele>
        <time>2022-05-17T16:29:20Z</time>
      </trkpt>
      <trkpt lat="42.323178" lon="-4.56808">
        <ele>900.1202951446176</ele>
        <time>2022-05-17T16:29:26Z</time>
      </trkpt>
      <trkpt lat="42.323212" lon="-4.568204">
        <ele>901.4856663644314</ele>
        <time>2022-05-17T16:29:33Z</time>
      </trkpt>
      <trkpt lat="42.32326" lon="-4.568309">
        <ele>901.0916986633092</ele>
        <time>2022-05-17T16:29:41Z</time>
      </trkpt>
      <trkpt lat="42.3233" lon="-4.568433">
        <ele>902.193465674296</ele>
        <time>2022-05-17T16:29:48Z</time>
      </trkpt>
      <trkpt lat="42.323341" lon="-4.568543">
        <ele>903.4913950581104</ele>
        <time>2022-05-17T16:29:57Z</time>
      </trkpt>
      <trkpt lat="42.323391" lon="-4.568659">
        <ele>904.5044778678566</ele>
        <time>2022-05-17T16:30:05Z</time>
      </trkpt>
      <trkpt lat="42.32345" lon="-4.568766">
        <ele>904.3820653259754</ele>
        <time>2022-05-17T16:30:12Z</time>
      </trkpt>
      <trkpt lat="42.323509" lon="-4.568867">
        <ele>905.5486252382398</ele>
        <time>2022-05-17T16:30:19Z</time>
      </trkpt>
      <trkpt lat="42.323572" lon="-4.568974">
        <ele>906.5702534737065</ele>
        <time>2022-05-17T16:30:28Z</time>
      </trkpt>
      <trkpt lat="42.323621" lon="-4.569086">
        <ele>907.8257388556376</ele>
        <time>2022-05-17T16:30:36Z</time>
      </trkpt>
      <trkpt lat="42.323679" lon="-4.569199">
        <ele>908.6841865936294</ele>
        <time>2022-05-17T16:30:45Z</time>
      </trkpt>
      <trkpt lat="42.323733" lon="-4.569321">
        <ele>909.0843581771478</ele>
        <time>2022-05-17T16:30:52Z</time>
      </trkpt>
      <trkpt lat="42.323784" lon="-4.569436">
        <ele>910.2758149439469</ele>
        <time>2022-05-17T16:31:01Z</time>
      </trkpt>
      <trkpt lat="42.323814" lon="-4.569553">
        <ele>911.1047963080928</ele>
        <time>2022-05-17T16:31:09Z</time>
      </trkpt>
      <trkpt lat="42.323824" lon="-4.569682">
        <ele>910.3621077742428</ele>
        <time>2022-05-17T16:33:53Z</time>
      </trkpt>
      <trkpt lat="42.323881" lon="-4.569779">
        <ele>910.2595286043361</ele>
        <time>2022-05-17T16:34:01Z</time>
      </trkpt>
      <trkpt lat="42.323899" lon="-4.569899">
        <ele>909.0506126191467</ele>
        <time>2022-05-17T16:34:12Z</time>
      </trkpt>
      <trkpt lat="42.323949" lon="-4.570016">
        <ele>907.8392294226214</ele>
        <time>2022-05-17T16:34:19Z</time>
      </trkpt>
      <trkpt lat="42.323994" lon="-4.570124">
        <ele>905.302317368798</ele>
        <time>2022-05-17T16:34:27Z</time>
      </trkpt>
      <trkpt lat="42.324033" lon="-4.570239">
        <ele>903.5697679398581</ele>
        <time>2022-05-17T16:34:36Z</time>
      </trkpt>
      <trkpt lat="42.324086" lon="-4.570338">
        <ele>902.5745658110827</ele>
        <time>2022-05-17T16:34:44Z</time>
      </trkpt>
      <trkpt lat="42.324148" lon="-4.57045">
        <ele>902.443501541391</ele>
        <time>2022-05-17T16:34:50Z</time>
      </trkpt>
      <trkpt lat="42.3242" lon="-4.57055">
        <ele>903.4263322157785</ele>
        <time>2022-05-17T16:34:56Z</time>
      </trkpt>
      <trkpt lat="42.324243" lon="-4.570666">
        <ele>905.2067300640047</ele>
        <time>2022-05-17T16:35:05Z</time>
      </trkpt>
      <trkpt lat="42.324299" lon="-4.570772">
        <ele>905.1151345279068</ele>
        <time>2022-05-17T16:35:13Z</time>
      </trkpt>
      <trkpt lat="42.324353" lon="-4.570888">
        <ele>905.6638174438849</ele>
        <time>2022-05-17T16:35:20Z</time>
      </trkpt>
      <trkpt lat="42.324408" lon="-4.570995">
        <ele>905.1504696561024</ele>
        <time>2022-05-17T16:35:27Z</time>
      </trkpt>
      <trkpt lat="42.324458" lon="-4.571112">
        <ele>907.9142929790542</ele>
        <time>2022-05-17T16:35:35Z</time>
      </trkpt>
      <trkpt lat="42.324511" lon="-4.571222">
        <ele>908.6357177710161</ele>
        <time>2022-05-17T16:35:43Z</time>
      </trkpt>
      <trkpt lat="42.32457" lon="-4.571331">
        <ele>906.2598093487322</ele>
        <time>2022-05-17T16:35:53Z</time>
      </trkpt>
      <trkpt lat="42.324626" lon="-4.571446">
        <ele>906.788212519139</ele>
        <time>2022-05-17T16:36:01Z</time>
      </trkpt>
      <trkpt lat="42.324697" lon="-4.57154">
        <ele>907.5367603059858</ele>
        <time>2022-05-17T16:36:09Z</time>
      </trkpt>
      <trkpt lat="42.32478" lon="-4.571617">
        <ele>906.6024049436674</ele>
        <time>2022-05-17T16:36:15Z</time>
      </trkpt>
      <trkpt lat="42.324838" lon="-4.571713">
        <ele>908.3662371719256</ele>
        <time>2022-05-17T16:36:23Z</time>
      </trkpt>
      <trkpt lat="42.324884" lon="-4.571829">
        <ele>908.2058984208852</ele>
        <time>2022-05-17T16:36:31Z</time>
      </trkpt>
      <trkpt lat="42.324921" lon="-4.571945">
        <ele>907.6153248986229</ele>
        <time>2022-05-17T16:36:40Z</time>
      </trkpt>
      <trkpt lat="42.324943" lon="-4.572063">
        <ele>905.1926466543227</ele>
        <time>2022-05-17T16:36:48Z</time>
      </trkpt>
      <trkpt lat="42.325005" lon="-4.572174">
        <ele>903.5292058615014</ele>
        <time>2022-05-17T16:36:56Z</time>
      </trkpt>
      <trkpt lat="42.325058" lon="-4.572282">
        <ele>903.1248718658462</ele>
        <time>2022-05-17T16:37:02Z</time>
      </trkpt>
      <trkpt lat="42.325099" lon="-4.572401">
        <ele>902.2868782766163</ele>
        <time>2022-05-17T16:37:10Z</time>
      </trkpt>
      <trkpt lat="42.325158" lon="-4.572506">
        <ele>903.4043447095901</ele>
        <time>2022-05-17T16:37:18Z</time>
      </trkpt>
      <trkpt lat="42.325215" lon="-4.572608">
        <ele>902.5676300507039</ele>
        <time>2022-05-17T16:37:27Z</time>
      </trkpt>
      <trkpt lat="42.325282" lon="-4.572711">
        <ele>902.1208736058325</ele>
        <time>2022-05-17T16:37:34Z</time>
      </trkpt>
      <trkpt lat="42.325349" lon="-4.572808">
        <ele>903.1461853580549</ele>
        <time>2022-05-17T16:37:39Z</time>
      </trkpt>
      <trkpt lat="42.325419" lon="-4.572906">
        <ele>904.6306273313239</ele>
        <time>2022-05-17T16:37:45Z</time>
      </trkpt>
      <trkpt lat="42.32547" lon="-4.573011">
        <ele>907.0874095754698</ele>
        <time>2022-05-17T16:37:52Z</time>
      </trkpt>
      <trkpt lat="42.325531" lon="-4.573119">
        <ele>907.7528818771243</ele>
        <time>2022-05-17T16:37:59Z</time>
      </trkpt>
      <trkpt lat="42.325586" lon="-4.573226">
        <ele>908.5666237454861</ele>
        <time>2022-05-17T16:38:06Z</time>
      </trkpt>
      <trkpt lat="42.325636" lon="-4.573346">
        <ele>909.5722536137328</ele>
        <time>2022-05-17T16:38:13Z</time>
      </trkpt>
      <trkpt lat="42.325704" lon="-4.57345">
        <ele>908.1525827916339</ele>
        <time>2022-05-17T16:38:20Z</time>
      </trkpt>
      <trkpt lat="42.325752" lon="-4.573557">
        <ele>907.9932710817084</ele>
        <time>2022-05-17T16:38:27Z</time>
      </trkpt>
      <trkpt lat="42.325817" lon="-4.573656">
        <ele>908.6070038313046</ele>
        <time>2022-05-17T16:38:33Z</time>
      </trkpt>
      <trkpt lat="42.325871" lon="-4.573756">
        <ele>907.9198910193518</ele>
        <time>2022-05-17T16:38:40Z</time>
      </trkpt>
      <trkpt lat="42.32593" lon="-4.57386">
        <ele>906.135072411038</ele>
        <time>2022-05-17T16:38:48Z</time>
      </trkpt>
      <trkpt lat="42.325976" lon="-4.573974">
        <ele>906.223809835501</ele>
        <time>2022-05-17T16:38:55Z</time>
      </trkpt>
      <trkpt lat="42.326016" lon="-4.574084">
        <ele>905.3197767818347</ele>
        <time>2022-05-17T16:39:01Z</time>
      </trkpt>
      <trkpt lat="42.326059" lon="-4.57421">
        <ele>904.8101156493649</ele>
        <time>2022-05-17T16:39:10Z</time>
      </trkpt>
      <trkpt lat="42.326098" lon="-4.57432">
        <ele>904.3698376286775</ele>
        <time>2022-05-17T16:39:17Z</time>
      </trkpt>
      <trkpt lat="42.326159" lon="-4.57442">
        <ele>905.3271418735385</ele>
        <time>2022-05-17T16:39:24Z</time>
      </trkpt>
      <trkpt lat="42.326229" lon="-4.574517">
        <ele>905.165873453021</ele>
        <time>2022-05-17T16:39:31Z</time>
      </trkpt>
      <trkpt lat="42.326281" lon="-4.574627">
        <ele>904.8546166820452</ele>
        <time>2022-05-17T16:39:38Z</time>
      </trkpt>
      <trkpt lat="42.326329" lon="-4.574745">
        <ele>905.9047023318708</ele>
        <time>2022-05-17T16:39:47Z</time>
      </trkpt>
      <trkpt lat="42.326388" lon="-4.574848">
        <ele>905.1951580103487</ele>
        <time>2022-05-17T16:39:53Z</time>
      </trkpt>
      <trkpt lat="42.326431" lon="-4.574966">
        <ele>904.2778431512415</ele>
        <time>2022-05-17T16:40:01Z</time>
      </trkpt>
      <trkpt lat="42.326481" lon="-4.575073">
        <ele>904.5313790887594</ele>
        <time>2022-05-17T16:40:07Z</time>
      </trkpt>
      <trkpt lat="42.326538" lon="-4.575174">
        <ele>905.3399596540257</ele>
        <time>2022-05-17T16:40:14Z</time>
      </trkpt>
      <trkpt lat="42.326575" lon="-4.575301">
        <ele>902.7765658693388</ele>
        <time>2022-05-17T16:40:24Z</time>
      </trkpt>
      <trkpt lat="42.326619" lon="-4.575411">
        <ele>903.6150422422215</ele>
        <time>2022-05-17T16:40:31Z</time>
      </trkpt>
      <trkpt lat="42.326682" lon="-4.575514">
        <ele>904.014906690456</ele>
        <time>2022-05-17T16:40:38Z</time>
      </trkpt>
      <trkpt lat="42.326722" lon="-4.575626">
        <ele>900.9023686619475</ele>
        <time>2022-05-17T16:40:48Z</time>
      </trkpt>
      <trkpt lat="42.326779" lon="-4.575741">
        <ele>900.1111577590927</ele>
        <time>2022-05-17T16:40:55Z</time>
      </trkpt>
      <trkpt lat="42.326835" lon="-4.57585">
        <ele>900.2390525201336</ele>
        <time>2022-05-17T16:41:01Z</time>
      </trkpt>
      <trkpt lat="42.326888" lon="-4.57595">
        <ele>901.0449949353933</ele>
        <time>2022-05-17T16:41:06Z</time>
      </trkpt>
      <trkpt lat="42.326951" lon="-4.576056">
        <ele>901.9269056916237</ele>
        <time>2022-05-17T16:41:14Z</time>
      </trkpt>
      <trkpt lat="42.327005" lon="-4.576163">
        <ele>900.7584436163306</ele>
        <time>2022-05-17T16:41:22Z</time>
      </trkpt>
      <trkpt lat="42.327065" lon="-4.576274">
        <ele>900.8594390554354</ele>
        <time>2022-05-17T16:41:32Z</time>
      </trkpt>
      <trkpt lat="42.327121" lon="-4.576382">
        <ele>901.0294661941007</ele>
        <time>2022-05-17T16:41:38Z</time>
      </trkpt>
      <trkpt lat="42.327181" lon="-4.576497">
        <ele>900.9670815775171</ele>
        <time>2022-05-17T16:41:45Z</time>
      </trkpt>
      <trkpt lat="42.327242" lon="-4.576605">
        <ele>902.5061621395871</ele>
        <time>2022-05-17T16:41:52Z</time>
      </trkpt>
      <trkpt lat="42.327315" lon="-4.576699">
        <ele>903.666053513065</ele>
        <time>2022-05-17T16:41:59Z</time>
      </trkpt>
      <trkpt lat="42.327342" lon="-4.576815">
        <ele>904.3399139661342</ele>
        <time>2022-05-17T16:42:10Z</time>
      </trkpt>
      <trkpt lat="42.327391" lon="-4.576922">
        <ele>904.2333169002086</ele>
        <time>2022-05-17T16:42:17Z</time>
      </trkpt>
      <trkpt lat="42.327458" lon="-4.577028">
        <ele>904.6761418217793</ele>
        <time>2022-05-17T16:42:25Z</time>
      </trkpt>
      <trkpt lat="42.327511" lon="-4.577145">
        <ele>904.2106099557132</ele>
        <time>2022-05-17T16:42:32Z</time>
      </trkpt>
      <trkpt lat="42.327572" lon="-4.577237">
        <ele>905.0195195404813</ele>
        <time>2022-05-17T16:42:38Z</time>
      </trkpt>
      <trkpt lat="42.327637" lon="-4.577337">
        <ele>905.1606463864446</ele>
        <time>2022-05-17T16:42:44Z</time>
      </trkpt>
      <trkpt lat="42.327698" lon="-4.577435">
        <ele>905.5914712669328</ele>
        <time>2022-05-17T16:42:51Z</time>
      </trkpt>
      <trkpt lat="42.327759" lon="-4.577529">
        <ele>905.2642274294049</ele>
        <time>2022-05-17T16:42:58Z</time>
      </trkpt>
      <trkpt lat="42.327823" lon="-4.577637">
        <ele>904.4917749185115</ele>
        <time>2022-05-17T16:43:05Z</time>
      </trkpt>
      <trkpt lat="42.32785" lon="-4.577754">
        <ele>904.565281778574</ele>
        <time>2022-05-17T16:43:13Z</time>
      </trkpt>
      <trkpt lat="42.327895" lon="-4.577865">
        <ele>902.6811047354713</ele>
        <time>2022-05-17T16:43:23Z</time>
      </trkpt>
      <trkpt lat="42.327951" lon="-4.577968">
        <ele>901.5097584435716</ele>
        <time>2022-05-17T16:43:30Z</time>
      </trkpt>
      <trkpt lat="42.328016" lon="-4.57808">
        <ele>901.7420883271843</ele>
        <time>2022-05-17T16:43:37Z</time>
      </trkpt>
      <trkpt lat="42.32808" lon="-4.578184">
        <ele>902.5418287273496</ele>
        <time>2022-05-17T16:43:43Z</time>
      </trkpt>
      <trkpt lat="42.328143" lon="-4.57828">
        <ele>902.9369534114376</ele>
        <time>2022-05-17T16:43:49Z</time>
      </trkpt>
      <trkpt lat="42.328213" lon="-4.578385">
        <ele>904.7327795121819</ele>
        <time>2022-05-17T16:44:01Z</time>
      </trkpt>
      <trkpt lat="42.328265" lon="-4.578498">
        <ele>904.487442612648</ele>
        <time>2022-05-17T16:44:15Z</time>
      </trkpt>
      <trkpt lat="42.328304" lon="-4.578614">
        <ele>904.6661067279056</ele>
        <time>2022-05-17T16:44:22Z</time>
      </trkpt>
      <trkpt lat="42.328362" lon="-4.57871">
        <ele>905.5980938663706</ele>
        <time>2022-05-17T16:44:27Z</time>
      </trkpt>
      <trkpt lat="42.328438" lon="-4.578807">
        <ele>905.9864037074149</ele>
        <time>2022-05-17T16:44:33Z</time>
      </trkpt>
      <trkpt lat="42.328494" lon="-4.578905">
        <ele>905.6297871386632</ele>
        <time>2022-05-17T16:44:40Z</time>
      </trkpt>
      <trkpt lat="42.328548" lon="-4.57901">
        <ele>905.3542053559795</ele>
        <time>2022-05-17T16:44:46Z</time>
      </trkpt>
      <trkpt lat="42.328588" lon="-4.579122">
        <ele>903.3672757651657</ele>
        <time>2022-05-17T16:44:54Z</time>
      </trkpt>
      <trkpt lat="42.32864" lon="-4.579229">
        <ele>902.8583980714902</ele>
        <time>2022-05-17T16:45:01Z</time>
      </trkpt>
      <trkpt lat="42.328701" lon="-4.579337">
        <ele>902.8143396815285</ele>
        <time>2022-05-17T16:45:10Z</time>
      </trkpt>
      <trkpt lat="42.328753" lon="-4.579436">
        <ele>904.2202970879152</ele>
        <time>2022-05-17T16:45:17Z</time>
      </trkpt>
      <trkpt lat="42.328817" lon="-4.579541">
        <ele>903.6697780760005</ele>
        <time>2022-05-17T16:45:23Z</time>
      </trkpt>
      <trkpt lat="42.328874" lon="-4.579642">
        <ele>902.2357648769394</ele>
        <time>2022-05-17T16:45:28Z</time>
      </trkpt>
      <trkpt lat="42.328929" lon="-4.579759">
        <ele>901.6520252376795</ele>
        <time>2022-05-17T16:45:35Z</time>
      </trkpt>
      <trkpt lat="42.32898" lon="-4.579862">
        <ele>902.4152100561187</ele>
        <time>2022-05-17T16:45:43Z</time>
      </trkpt>
      <trkpt lat="42.329052" lon="-4.579957">
        <ele>902.4055200153962</ele>
        <time>2022-05-17T16:45:50Z</time>
      </trkpt>
      <trkpt lat="42.329093" lon="-4.580067">
        <ele>900.3401961112395</ele>
        <time>2022-05-17T16:45:58Z</time>
      </trkpt>
      <trkpt lat="42.329139" lon="-4.580176">
        <ele>899.2047139313072</ele>
        <time>2022-05-17T16:46:05Z</time>
      </trkpt>
      <trkpt lat="42.329181" lon="-4.580301">
        <ele>898.4088723361492</ele>
        <time>2022-05-17T16:46:12Z</time>
      </trkpt>
      <trkpt lat="42.329245" lon="-4.580414">
        <ele>898.0476045943797</ele>
        <time>2022-05-17T16:46:20Z</time>
      </trkpt>
      <trkpt lat="42.329287" lon="-4.580533">
        <ele>897.4564744234085</ele>
        <time>2022-05-17T16:46:28Z</time>
      </trkpt>
      <trkpt lat="42.329346" lon="-4.580641">
        <ele>898.0877076126635</ele>
        <time>2022-05-17T16:46:35Z</time>
      </trkpt>
      <trkpt lat="42.329416" lon="-4.580735">
        <ele>898.6505534872413</ele>
        <time>2022-05-17T16:46:41Z</time>
      </trkpt>
      <trkpt lat="42.329478" lon="-4.580835">
        <ele>898.0984558751807</ele>
        <time>2022-05-17T16:46:48Z</time>
      </trkpt>
      <trkpt lat="42.329533" lon="-4.580941">
        <ele>897.9109728811309</ele>
        <time>2022-05-17T16:46:55Z</time>
      </trkpt>
      <trkpt lat="42.329592" lon="-4.581039">
        <ele>898.8985475972295</ele>
        <time>2022-05-17T16:47:02Z</time>
      </trkpt>
      <trkpt lat="42.329651" lon="-4.581142">
        <ele>899.2058824999258</ele>
        <time>2022-05-17T16:47:08Z</time>
      </trkpt>
      <trkpt lat="42.3297" lon="-4.581256">
        <ele>899.2054989570752</ele>
        <time>2022-05-17T16:47:14Z</time>
      </trkpt>
      <trkpt lat="42.329751" lon="-4.581367">
        <ele>900.7188498601317</ele>
        <time>2022-05-17T16:47:21Z</time>
      </trkpt>
      <trkpt lat="42.329812" lon="-4.581477">
        <ele>898.9225340262055</ele>
        <time>2022-05-17T16:47:30Z</time>
      </trkpt>
      <trkpt lat="42.329853" lon="-4.581593">
        <ele>898.4455932499841</ele>
        <time>2022-05-17T16:47:38Z</time>
      </trkpt>
      <trkpt lat="42.329909" lon="-4.581703">
        <ele>897.1183443553746</ele>
        <time>2022-05-17T16:47:46Z</time>
      </trkpt>
      <trkpt lat="42.32995" lon="-4.581814">
        <ele>895.9923588531092</ele>
        <time>2022-05-17T16:47:52Z</time>
      </trkpt>
      <trkpt lat="42.33001" lon="-4.581936">
        <ele>896.1061747604981</ele>
        <time>2022-05-17T16:47:59Z</time>
      </trkpt>
      <trkpt lat="42.330077" lon="-4.582037">
        <ele>896.1533968467265</ele>
        <time>2022-05-17T16:48:08Z</time>
      </trkpt>
      <trkpt lat="42.330127" lon="-4.582139">
        <ele>895.3719615256414</ele>
        <time>2022-05-17T16:48:16Z</time>
      </trkpt>
      <trkpt lat="42.330184" lon="-4.58224">
        <ele>894.211378662847</ele>
        <time>2022-05-17T16:48:23Z</time>
      </trkpt>
      <trkpt lat="42.33024" lon="-4.582356">
        <ele>893.9895894881338</ele>
        <time>2022-05-17T16:48:30Z</time>
      </trkpt>
      <trkpt lat="42.330292" lon="-4.582457">
        <ele>893.2383615802974</ele>
        <time>2022-05-17T16:48:35Z</time>
      </trkpt>
      <trkpt lat="42.330331" lon="-4.582581">
        <ele>892.3136905319989</ele>
        <time>2022-05-17T16:48:42Z</time>
      </trkpt>
      <trkpt lat="42.330403" lon="-4.582673">
        <ele>893.2432457208633</ele>
        <time>2022-05-17T16:48:49Z</time>
      </trkpt>
      <trkpt lat="42.33045" lon="-4.58278">
        <ele>892.6895816605538</ele>
        <time>2022-05-17T16:48:57Z</time>
      </trkpt>
      <trkpt lat="42.330512" lon="-4.582886">
        <ele>891.8662773575634</ele>
        <time>2022-05-17T16:49:06Z</time>
      </trkpt>
      <trkpt lat="42.330567" lon="-4.583007">
        <ele>891.4318624921143</ele>
        <time>2022-05-17T16:49:13Z</time>
      </trkpt>
      <trkpt lat="42.33063" lon="-4.583113">
        <ele>892.3328718710691</ele>
        <time>2022-05-17T16:49:18Z</time>
      </trkpt>
      <trkpt lat="42.330705" lon="-4.583191">
        <ele>893.6463060509413</ele>
        <time>2022-05-17T16:49:24Z</time>
      </trkpt>
      <trkpt lat="42.330752" lon="-4.583299">
        <ele>894.3760768715292</ele>
        <time>2022-05-17T16:49:33Z</time>
      </trkpt>
      <trkpt lat="42.330812" lon="-4.583406">
        <ele>894.7628523744643</ele>
        <time>2022-05-17T16:49:40Z</time>
      </trkpt>
      <trkpt lat="42.330861" lon="-4.583511">
        <ele>894.1585535742342</ele>
        <time>2022-05-17T16:49:46Z</time>
      </trkpt>
      <trkpt lat="42.330913" lon="-4.583632">
        <ele>894.781446124427</ele>
        <time>2022-05-17T16:49:53Z</time>
      </trkpt>
      <trkpt lat="42.330989" lon="-4.58372">
        <ele>894.7828425848857</ele>
        <time>2022-05-17T16:50:01Z</time>
      </trkpt>
      <trkpt lat="42.331046" lon="-4.583826">
        <ele>892.9914822652936</ele>
        <time>2022-05-17T16:50:09Z</time>
      </trkpt>
      <trkpt lat="42.3311" lon="-4.583932">
        <ele>892.9764106916264</ele>
        <time>2022-05-17T16:50:16Z</time>
      </trkpt>
      <trkpt lat="42.331162" lon="-4.58403">
        <ele>893.7437137598172</ele>
        <time>2022-05-17T16:50:22Z</time>
      </trkpt>
      <trkpt lat="42.331203" lon="-4.584148">
        <ele>894.9462899472564</ele>
        <time>2022-05-17T16:50:28Z</time>
      </trkpt>
      <trkpt lat="42.331255" lon="-4.584261">
        <ele>894.5552156809717</ele>
        <time>2022-05-17T16:50:37Z</time>
      </trkpt>
      <trkpt lat="42.331315" lon="-4.584365">
        <ele>894.2553105577826</ele>
        <time>2022-05-17T16:50:45Z</time>
      </trkpt>
      <trkpt lat="42.331379" lon="-4.584477">
        <ele>893.1858924133703</ele>
        <time>2022-05-17T16:50:52Z</time>
      </trkpt>
      <trkpt lat="42.331433" lon="-4.584593">
        <ele>894.2273263856769</ele>
        <time>2022-05-17T16:50:58Z</time>
      </trkpt>
      <trkpt lat="42.331488" lon="-4.584694">
        <ele>893.4656012691557</ele>
        <time>2022-05-17T16:51:05Z</time>
      </trkpt>
      <trkpt lat="42.331535" lon="-4.584818">
        <ele>892.0035884007812</ele>
        <time>2022-05-17T16:51:15Z</time>
      </trkpt>
      <trkpt lat="42.331601" lon="-4.584922">
        <ele>891.5421849321574</ele>
        <time>2022-05-17T16:51:21Z</time>
      </trkpt>
      <trkpt lat="42.331658" lon="-4.585025">
        <ele>894.7157265497372</ele>
        <time>2022-05-17T16:51:28Z</time>
      </trkpt>
      <trkpt lat="42.331726" lon="-4.585117">
        <ele>894.9116378976032</ele>
        <time>2022-05-17T16:51:35Z</time>
      </trkpt>
      <trkpt lat="42.331764" lon="-4.585237">
        <ele>892.2171167097986</ele>
        <time>2022-05-17T16:51:43Z</time>
      </trkpt>
      <trkpt lat="42.331826" lon="-4.585334">
        <ele>891.247650872916</ele>
        <time>2022-05-17T16:51:51Z</time>
      </trkpt>
      <trkpt lat="42.331872" lon="-4.585439">
        <ele>890.6360365916044</ele>
        <time>2022-05-17T16:51:56Z</time>
      </trkpt>
      <trkpt lat="42.331916" lon="-4.58555">
        <ele>891.0368129024282</ele>
        <time>2022-05-17T16:52:03Z</time>
      </trkpt>
      <trkpt lat="42.331971" lon="-4.58566">
        <ele>888.9338869741186</ele>
        <time>2022-05-17T16:52:11Z</time>
      </trkpt>
      <trkpt lat="42.332016" lon="-4.585781">
        <ele>887.2319643041119</ele>
        <time>2022-05-17T16:52:21Z</time>
      </trkpt>
      <trkpt lat="42.332074" lon="-4.585883">
        <ele>887.7855126280338</ele>
        <time>2022-05-17T16:52:27Z</time>
      </trkpt>
      <trkpt lat="42.332117" lon="-4.586004">
        <ele>888.220628852956</ele>
        <time>2022-05-17T16:52:33Z</time>
      </trkpt>
      <trkpt lat="42.332184" lon="-4.586094">
        <ele>889.8071606019512</ele>
        <time>2022-05-17T16:52:40Z</time>
      </trkpt>
      <trkpt lat="42.332253" lon="-4.586192">
        <ele>890.1082676053047</ele>
        <time>2022-05-17T16:52:46Z</time>
      </trkpt>
      <trkpt lat="42.332307" lon="-4.5863">
        <ele>890.6073331404477</ele>
        <time>2022-05-17T16:52:54Z</time>
      </trkpt>
      <trkpt lat="42.332358" lon="-4.586404">
        <ele>890.7985572470352</ele>
        <time>2022-05-17T16:53:01Z</time>
      </trkpt>
      <trkpt lat="42.332424" lon="-4.586497">
        <ele>892.4111318811774</ele>
        <time>2022-05-17T16:53:07Z</time>
      </trkpt>
      <trkpt lat="42.332497" lon="-4.586595">
        <ele>894.4645006861538</ele>
        <time>2022-05-17T16:53:15Z</time>
      </trkpt>
      <trkpt lat="42.332549" lon="-4.58671">
        <ele>893.6540581164882</ele>
        <time>2022-05-17T16:53:23Z</time>
      </trkpt>
      <trkpt lat="42.332613" lon="-4.586807">
        <ele>893.5162125593051</ele>
        <time>2022-05-17T16:53:30Z</time>
      </trkpt>
      <trkpt lat="42.33266" lon="-4.58692">
        <ele>893.6029610773548</ele>
        <time>2022-05-17T16:53:35Z</time>
      </trkpt>
      <trkpt lat="42.332736" lon="-4.586997">
        <ele>896.195646809414</ele>
        <time>2022-05-17T16:53:40Z</time>
      </trkpt>
      <trkpt lat="42.332799" lon="-4.587097">
        <ele>897.8749721888453</ele>
        <time>2022-05-17T16:53:47Z</time>
      </trkpt>
      <trkpt lat="42.332859" lon="-4.5872">
        <ele>899.5464004026726</ele>
        <time>2022-05-17T16:53:54Z</time>
      </trkpt>
      <trkpt lat="42.332923" lon="-4.587302">
        <ele>900.9749642144889</ele>
        <time>2022-05-17T16:54:00Z</time>
      </trkpt>
      <trkpt lat="42.332969" lon="-4.587416">
        <ele>901.2830066382885</ele>
        <time>2022-05-17T16:54:10Z</time>
      </trkpt>
      <trkpt lat="42.333034" lon="-4.58751">
        <ele>900.4756301790476</ele>
        <time>2022-05-17T16:54:16Z</time>
      </trkpt>
      <trkpt lat="42.333088" lon="-4.587612">
        <ele>900.4237852683291</ele>
        <time>2022-05-17T16:54:22Z</time>
      </trkpt>
      <trkpt lat="42.333132" lon="-4.587727">
        <ele>898.9163168836385</ele>
        <time>2022-05-17T16:54:31Z</time>
      </trkpt>
      <trkpt lat="42.333183" lon="-4.587843">
        <ele>897.2507747933269</ele>
        <time>2022-05-17T16:54:39Z</time>
      </trkpt>
      <trkpt lat="42.333226" lon="-4.587955">
        <ele>897.5718675646931</ele>
        <time>2022-05-17T16:54:45Z</time>
      </trkpt>
      <trkpt lat="42.333288" lon="-4.588053">
        <ele>897.2953428663313</ele>
        <time>2022-05-17T16:54:51Z</time>
      </trkpt>
      <trkpt lat="42.333337" lon="-4.588166">
        <ele>895.9636702993885</ele>
        <time>2022-05-17T16:55:00Z</time>
      </trkpt>
      <trkpt lat="42.33339" lon="-4.58828">
        <ele>895.8583131097257</ele>
        <time>2022-05-17T16:55:07Z</time>
      </trkpt>
      <trkpt lat="42.333441" lon="-4.588387">
        <ele>896.2579389382154</ele>
        <time>2022-05-17T16:55:12Z</time>
      </trkpt>
      <trkpt lat="42.333506" lon="-4.588484">
        <ele>896.801572099328</ele>
        <time>2022-05-17T16:55:19Z</time>
      </trkpt>
      <trkpt lat="42.33356" lon="-4.588595">
        <ele>895.9267015559599</ele>
        <time>2022-05-17T16:55:27Z</time>
      </trkpt>
      <trkpt lat="42.333626" lon="-4.5887">
        <ele>896.0738615300506</ele>
        <time>2022-05-17T16:55:33Z</time>
      </trkpt>
      <trkpt lat="42.333681" lon="-4.588803">
        <ele>895.6819878835231</ele>
        <time>2022-05-17T16:55:41Z</time>
      </trkpt>
      <trkpt lat="42.333725" lon="-4.588912">
        <ele>894.0900373449549</ele>
        <time>2022-05-17T16:55:50Z</time>
      </trkpt>
      <trkpt lat="42.333766" lon="-4.589028">
        <ele>892.4552589440718</ele>
        <time>2022-05-17T16:55:58Z</time>
      </trkpt>
      <trkpt lat="42.333819" lon="-4.589137">
        <ele>892.3900539390743</ele>
        <time>2022-05-17T16:56:06Z</time>
      </trkpt>
      <trkpt lat="42.333858" lon="-4.589255">
        <ele>890.014936122112</ele>
        <time>2022-05-17T16:56:15Z</time>
      </trkpt>
      <trkpt lat="42.333902" lon="-4.589367">
        <ele>888.1958191236481</ele>
        <time>2022-05-17T16:56:22Z</time>
      </trkpt>
      <trkpt lat="42.33395" lon="-4.589475">
        <ele>888.4395730532706</ele>
        <time>2022-05-17T16:56:30Z</time>
      </trkpt>
      <trkpt lat="42.333999" lon="-4.58959">
        <ele>886.2935080006719</ele>
        <time>2022-05-17T16:56:39Z</time>
      </trkpt>
      <trkpt lat="42.334066" lon="-4.589693">
        <ele>886.568103804253</ele>
        <time>2022-05-17T16:56:45Z</time>
      </trkpt>
      <trkpt lat="42.334112" lon="-4.589801">
        <ele>886.9939685054123</ele>
        <time>2022-05-17T16:56:52Z</time>
      </trkpt>
      <trkpt lat="42.334162" lon="-4.589911">
        <ele>885.2398410718888</ele>
        <time>2022-05-17T16:56:59Z</time>
      </trkpt>
      <trkpt lat="42.334224" lon="-4.590028">
        <ele>884.5407223906368</ele>
        <time>2022-05-17T16:57:07Z</time>
      </trkpt>
      <trkpt lat="42.33427" lon="-4.590134">
        <ele>883.6201646737754</ele>
        <time>2022-05-17T16:57:12Z</time>
      </trkpt>
      <trkpt lat="42.33434" lon="-4.590233">
        <ele>885.304645108059</ele>
        <time>2022-05-17T16:57:20Z</time>
      </trkpt>
      <trkpt lat="42.334394" lon="-4.590348">
        <ele>885.8052005348727</ele>
        <time>2022-05-17T16:57:28Z</time>
      </trkpt>
      <trkpt lat="42.334447" lon="-4.590457">
        <ele>885.6926558846608</ele>
        <time>2022-05-17T16:57:36Z</time>
      </trkpt>
      <trkpt lat="42.334494" lon="-4.590561">
        <ele>885.5104573136196</ele>
        <time>2022-05-17T16:57:42Z</time>
      </trkpt>
      <trkpt lat="42.334565" lon="-4.590656">
        <ele>886.3029216136783</ele>
        <time>2022-05-17T16:57:49Z</time>
      </trkpt>
      <trkpt lat="42.334618" lon="-4.590773">
        <ele>886.4147897353396</ele>
        <time>2022-05-17T16:57:58Z</time>
      </trkpt>
      <trkpt lat="42.334669" lon="-4.590876">
        <ele>886.3428893554956</ele>
        <time>2022-05-17T16:58:04Z</time>
      </trkpt>
      <trkpt lat="42.334713" lon="-4.590985">
        <ele>886.6858613286167</ele>
        <time>2022-05-17T16:58:12Z</time>
      </trkpt>
      <trkpt lat="42.334774" lon="-4.591094">
        <ele>886.4338791659102</ele>
        <time>2022-05-17T16:58:21Z</time>
      </trkpt>
      <trkpt lat="42.334824" lon="-4.591214">
        <ele>886.807680404745</ele>
        <time>2022-05-17T16:58:28Z</time>
      </trkpt>
      <trkpt lat="42.334882" lon="-4.591314">
        <ele>885.9830140806735</ele>
        <time>2022-05-17T16:58:36Z</time>
      </trkpt>
      <trkpt lat="42.334937" lon="-4.591423">
        <ele>886.666853399016</ele>
        <time>2022-05-17T16:58:43Z</time>
      </trkpt>
      <trkpt lat="42.335007" lon="-4.591502">
        <ele>887.4096670886502</ele>
        <time>2022-05-17T16:58:50Z</time>
      </trkpt>
      <trkpt lat="42.335046" lon="-4.591613">
        <ele>885.3826130833477</ele>
        <time>2022-05-17T16:58:58Z</time>
      </trkpt>
      <trkpt lat="42.335108" lon="-4.591704">
        <ele>885.8223414681852</ele>
        <time>2022-05-17T16:59:06Z</time>
      </trkpt>
      <trkpt lat="42.335168" lon="-4.591817">
        <ele>885.8544674701989</ele>
        <time>2022-05-17T16:59:15Z</time>
      </trkpt>
      <trkpt lat="42.335226" lon="-4.591935">
        <ele>887.3600388886407</ele>
        <time>2022-05-17T16:59:22Z</time>
      </trkpt>
      <trkpt lat="42.335288" lon="-4.592029">
        <ele>887.7934591881931</ele>
        <time>2022-05-17T16:59:29Z</time>
      </trkpt>
      <trkpt lat="42.33533" lon="-4.592151">
        <ele>886.607567884028</ele>
        <time>2022-05-17T16:59:36Z</time>
      </trkpt>
      <trkpt lat="42.335386" lon="-4.592265">
        <ele>884.5201918883249</ele>
        <time>2022-05-17T16:59:45Z</time>
      </trkpt>
      <trkpt lat="42.335452" lon="-4.592375">
        <ele>883.2656655078754</ele>
        <time>2022-05-17T16:59:52Z</time>
      </trkpt>
      <trkpt lat="42.335512" lon="-4.592485">
        <ele>883.0242520114407</ele>
        <time>2022-05-17T16:59:58Z</time>
      </trkpt>
      <trkpt lat="42.33556" lon="-4.592589">
        <ele>883.9306787513196</ele>
        <time>2022-05-17T17:00:05Z</time>
      </trkpt>
      <trkpt lat="42.335615" lon="-4.592704">
        <ele>882.6586771802977</ele>
        <time>2022-05-17T17:00:12Z</time>
      </trkpt>
      <trkpt lat="42.335659" lon="-4.592812">
        <ele>881.3265555882826</ele>
        <time>2022-05-17T17:00:20Z</time>
      </trkpt>
      <trkpt lat="42.335715" lon="-4.592909">
        <ele>880.849680127576</ele>
        <time>2022-05-17T17:00:26Z</time>
      </trkpt>
      <trkpt lat="42.335761" lon="-4.593017">
        <ele>881.135650918819</ele>
        <time>2022-05-17T17:00:32Z</time>
      </trkpt>
      <trkpt lat="42.335826" lon="-4.593123">
        <ele>882.5485289683565</ele>
        <time>2022-05-17T17:00:40Z</time>
      </trkpt>
      <trkpt lat="42.335875" lon="-4.593241">
        <ele>880.8563835462555</ele>
        <time>2022-05-17T17:00:48Z</time>
      </trkpt>
      <trkpt lat="42.335925" lon="-4.59335">
        <ele>880.1267251865938</ele>
        <time>2022-05-17T17:00:56Z</time>
      </trkpt>
      <trkpt lat="42.335984" lon="-4.593446">
        <ele>881.4289502156898</ele>
        <time>2022-05-17T17:01:02Z</time>
      </trkpt>
      <trkpt lat="42.336024" lon="-4.593557">
        <ele>880.6779261045158</ele>
        <time>2022-05-17T17:01:09Z</time>
      </trkpt>
      <trkpt lat="42.336087" lon="-4.593658">
        <ele>880.210268621333</ele>
        <time>2022-05-17T17:01:17Z</time>
      </trkpt>
      <trkpt lat="42.336131" lon="-4.593774">
        <ele>880.1987712504342</ele>
        <time>2022-05-17T17:01:23Z</time>
      </trkpt>
      <trkpt lat="42.336198" lon="-4.593867">
        <ele>880.9019400347024</ele>
        <time>2022-05-17T17:01:31Z</time>
      </trkpt>
      <trkpt lat="42.336244" lon="-4.593977">
        <ele>879.8867448363453</ele>
        <time>2022-05-17T17:01:38Z</time>
      </trkpt>
      <trkpt lat="42.336302" lon="-4.594089">
        <ele>879.7626837491989</ele>
        <time>2022-05-17T17:01:46Z</time>
      </trkpt>
      <trkpt lat="42.336362" lon="-4.594188">
        <ele>881.3409450966865</ele>
        <time>2022-05-17T17:01:52Z</time>
      </trkpt>
      <trkpt lat="42.336417" lon="-4.594298">
        <ele>881.2892470890656</ele>
        <time>2022-05-17T17:02:01Z</time>
      </trkpt>
      <trkpt lat="42.336474" lon="-4.594417">
        <ele>881.3680443335325</ele>
        <time>2022-05-17T17:02:08Z</time>
      </trkpt>
      <trkpt lat="42.336539" lon="-4.594518">
        <ele>882.0717163020745</ele>
        <time>2022-05-17T17:02:15Z</time>
      </trkpt>
      <trkpt lat="42.336594" lon="-4.594633">
        <ele>881.3451329376549</ele>
        <time>2022-05-17T17:02:25Z</time>
      </trkpt>
      <trkpt lat="42.336654" lon="-4.594732">
        <ele>881.597618416883</ele>
        <time>2022-05-17T17:02:31Z</time>
      </trkpt>
      <trkpt lat="42.336717" lon="-4.594832">
        <ele>882.2216104064137</ele>
        <time>2022-05-17T17:02:38Z</time>
      </trkpt>
      <trkpt lat="42.336763" lon="-4.594944">
        <ele>881.2791194543242</ele>
        <time>2022-05-17T17:02:46Z</time>
      </trkpt>
      <trkpt lat="42.336812" lon="-4.595047">
        <ele>881.02624033764</ele>
        <time>2022-05-17T17:02:52Z</time>
      </trkpt>
      <trkpt lat="42.336872" lon="-4.595149">
        <ele>882.229218182154</ele>
        <time>2022-05-17T17:02:59Z</time>
      </trkpt>
      <trkpt lat="42.336928" lon="-4.595266">
        <ele>881.5210837414488</ele>
        <time>2022-05-17T17:03:10Z</time>
      </trkpt>
      <trkpt lat="42.336987" lon="-4.595361">
        <ele>882.0840534940362</ele>
        <time>2022-05-17T17:03:16Z</time>
      </trkpt>
      <trkpt lat="42.337054" lon="-4.595464">
        <ele>883.2642808044329</ele>
        <time>2022-05-17T17:03:23Z</time>
      </trkpt>
      <trkpt lat="42.337102" lon="-4.595571">
        <ele>881.7146494332701</ele>
        <time>2022-05-17T17:03:32Z</time>
      </trkpt>
      <trkpt lat="42.337156" lon="-4.595673">
        <ele>880.423810467124</ele>
        <time>2022-05-17T17:03:38Z</time>
      </trkpt>
      <trkpt lat="42.337215" lon="-4.595777">
        <ele>880.6675629233941</ele>
        <time>2022-05-17T17:03:45Z</time>
      </trkpt>
      <trkpt lat="42.337263" lon="-4.595886">
        <ele>878.3312571542338</ele>
        <time>2022-05-17T17:03:53Z</time>
      </trkpt>
      <trkpt lat="42.337327" lon="-4.595986">
        <ele>876.6562504665926</ele>
        <time>2022-05-17T17:04:00Z</time>
      </trkpt>
      <trkpt lat="42.337353" lon="-4.596104">
        <ele>875.5729429405183</ele>
        <time>2022-05-17T17:04:08Z</time>
      </trkpt>
      <trkpt lat="42.337377" lon="-4.596236">
        <ele>874.4581644237041</ele>
        <time>2022-05-17T17:04:20Z</time>
      </trkpt>
      <trkpt lat="42.337412" lon="-4.596354">
        <ele>871.9749739086255</ele>
        <time>2022-05-17T17:04:26Z</time>
      </trkpt>
      <trkpt lat="42.337465" lon="-4.596458">
        <ele>871.0599921764806</ele>
        <time>2022-05-17T17:04:34Z</time>
      </trkpt>
      <trkpt lat="42.337493" lon="-4.596608">
        <ele>869.8615281376988</ele>
        <time>2022-05-17T17:04:42Z</time>
      </trkpt>
      <trkpt lat="42.3375" lon="-4.596743">
        <ele>867.0173151195049</ele>
        <time>2022-05-17T17:04:52Z</time>
      </trkpt>
      <trkpt lat="42.337473" lon="-4.596887">
        <ele>865.6985242376104</ele>
        <time>2022-05-17T17:05:02Z</time>
      </trkpt>
      <trkpt lat="42.337435" lon="-4.597017">
        <ele>866.0839517684653</ele>
        <time>2022-05-17T17:05:12Z</time>
      </trkpt>
      <trkpt lat="42.337413" lon="-4.597141">
        <ele>866.8958421628922</ele>
        <time>2022-05-17T17:05:20Z</time>
      </trkpt>
      <trkpt lat="42.337418" lon="-4.597267">
        <ele>867.4282610276714</ele>
        <time>2022-05-17T17:05:27Z</time>
      </trkpt>
      <trkpt lat="42.337419" lon="-4.59739">
        <ele>868.9706911211833</ele>
        <time>2022-05-17T17:05:38Z</time>
      </trkpt>
      <trkpt lat="42.337437" lon="-4.597516">
        <ele>869.716591659002</ele>
        <time>2022-05-17T17:06:02Z</time>
      </trkpt>
      <trkpt lat="42.337482" lon="-4.597637">
        <ele>871.8883541906253</ele>
        <time>2022-05-17T17:06:09Z</time>
      </trkpt>
      <trkpt lat="42.337503" lon="-4.597775">
        <ele>873.4173817206174</ele>
        <time>2022-05-17T17:06:16Z</time>
      </trkpt>
      <trkpt lat="42.337488" lon="-4.597896">
        <ele>873.6852542450652</ele>
        <time>2022-05-17T17:06:23Z</time>
      </trkpt>
      <trkpt lat="42.337481" lon="-4.598034">
        <ele>874.7984526213259</ele>
        <time>2022-05-17T17:06:31Z</time>
      </trkpt>
      <trkpt lat="42.337503" lon="-4.598155">
        <ele>874.5751982070506</ele>
        <time>2022-05-17T17:06:38Z</time>
      </trkpt>
      <trkpt lat="42.33753" lon="-4.598293">
        <ele>876.9411951610819</ele>
        <time>2022-05-17T17:06:47Z</time>
      </trkpt>
      <trkpt lat="42.337547" lon="-4.598414">
        <ele>877.7057911353186</ele>
        <time>2022-05-17T17:06:53Z</time>
      </trkpt>
      <trkpt lat="42.337486" lon="-4.598509">
        <ele>876.494314391166</ele>
        <time>2022-05-17T17:07:04Z</time>
      </trkpt>
      <trkpt lat="42.337395" lon="-4.598549">
        <ele>878.8761135125533</ele>
        <time>2022-05-17T17:07:10Z</time>
      </trkpt>
      <trkpt lat="42.337294" lon="-4.598502">
        <ele>887.6387986717746</ele>
        <time>2022-05-17T17:07:45Z</time>
      </trkpt>
      <trkpt lat="42.337271" lon="-4.59862">
        <ele>887.9016456399113</ele>
        <time>2022-05-17T17:08:12Z</time>
      </trkpt>
      <trkpt lat="42.337278" lon="-4.598498">
        <ele>894.2220875117928</ele>
        <time>2022-05-17T17:08:40Z</time>
      </trkpt>
      <trkpt lat="42.337189" lon="-4.59846">
        <ele>892.5482350131497</ele>
        <time>2022-05-17T17:09:05Z</time>
      </trkpt>
      <trkpt lat="42.337221" lon="-4.598585">
        <ele>885.1070980140939</ele>
        <time>2022-05-17T17:09:26Z</time>
      </trkpt>
      <trkpt lat="42.33713" lon="-4.598571">
        <ele>877.8322149207816</ele>
        <time>2022-05-17T17:09:36Z</time>
      </trkpt>
      <trkpt lat="42.337071" lon="-4.598667">
        <ele>866.0104293562472</ele>
        <time>2022-05-17T17:09:48Z</time>
      </trkpt>
      <trkpt lat="42.337034" lon="-4.598783">
        <ele>864.0713962092996</ele>
        <time>2022-05-17T17:10:13Z</time>
      </trkpt>
      <trkpt lat="42.336983" lon="-4.598894">
        <ele>863.4433405771852</ele>
        <time>2022-05-17T17:10:34Z</time>
      </trkpt>
      <trkpt lat="42.336962" lon="-4.599014">
        <ele>863.1026624692604</ele>
        <time>2022-05-17T17:10:42Z</time>
      </trkpt>
      <trkpt lat="42.336959" lon="-4.59915">
        <ele>861.4608646500856</ele>
        <time>2022-05-17T17:10:50Z</time>
      </trkpt>
      <trkpt lat="42.336958" lon="-4.59928">
        <ele>860.9922902183607</ele>
        <time>2022-05-17T17:10:57Z</time>
      </trkpt>
      <trkpt lat="42.336961" lon="-4.599409">
        <ele>860.081490826793</ele>
        <time>2022-05-17T17:11:05Z</time>
      </trkpt>
      <trkpt lat="42.336911" lon="-4.599522">
        <ele>861.0340369520709</ele>
        <time>2022-05-17T17:11:12Z</time>
      </trkpt>
      <trkpt lat="42.336893" lon="-4.599644">
        <ele>861.0232326053083</ele>
        <time>2022-05-17T17:11:22Z</time>
      </trkpt>
      <trkpt lat="42.336831" lon="-4.59974">
        <ele>862.4852256812155</ele>
        <time>2022-05-17T17:11:32Z</time>
      </trkpt>
      <trkpt lat="42.336801" lon="-4.599857">
        <ele>866.9257771354169</ele>
        <time>2022-05-17T17:11:42Z</time>
      </trkpt>
      <trkpt lat="42.33676" lon="-4.599966">
        <ele>874.1089758062735</ele>
        <time>2022-05-17T17:11:52Z</time>
      </trkpt>
      <trkpt lat="42.33668" lon="-4.600033">
        <ele>886.7620904026553</ele>
        <time>2022-05-17T17:12:03Z</time>
      </trkpt>
      <trkpt lat="42.336599" lon="-4.600113">
        <ele>897.7798469690606</ele>
        <time>2022-05-17T17:13:25Z</time>
      </trkpt>
      <trkpt lat="42.336518" lon="-4.600187">
        <ele>900.5195297943428</ele>
        <time>2022-05-17T17:13:31Z</time>
      </trkpt>
      <trkpt lat="42.336467" lon="-4.60029">
        <ele>907.2371303811669</ele>
        <time>2022-05-17T17:13:37Z</time>
      </trkpt>
      <trkpt lat="42.336446" lon="-4.600424">
        <ele>914.7926418120041</ele>
        <time>2022-05-17T17:13:45Z</time>
      </trkpt>
      <trkpt lat="42.336524" lon="-4.600511">
        <ele>914.2591550331563</ele>
        <time>2022-05-17T17:13:52Z</time>
      </trkpt>
      <trkpt lat="42.336609" lon="-4.600554">
        <ele>914.3691732073203</ele>
        <time>2022-05-17T17:14:05Z</time>
      </trkpt>
      <trkpt lat="42.336702" lon="-4.600603">
        <ele>916.8455406790599</ele>
        <time>2022-05-17T17:14:12Z</time>
      </trkpt>
      <trkpt lat="42.336799" lon="-4.60063">
        <ele>918.0349754681811</ele>
        <time>2022-05-17T17:14:18Z</time>
      </trkpt>
      <trkpt lat="42.336889" lon="-4.600648">
        <ele>920.1988652851433</ele>
        <time>2022-05-17T17:14:24Z</time>
      </trkpt>
      <trkpt lat="42.336915" lon="-4.600779">
        <ele>917.5424887100235</ele>
        <time>2022-05-17T17:14:33Z</time>
      </trkpt>
      <trkpt lat="42.337012" lon="-4.600808">
        <ele>915.9505347171798</ele>
        <time>2022-05-17T17:14:42Z</time>
      </trkpt>
      <trkpt lat="42.337041" lon="-4.600926">
        <ele>914.2257690038532</ele>
        <time>2022-05-17T17:14:50Z</time>
      </trkpt>
      <trkpt lat="42.33708" lon="-4.601052">
        <ele>913.4996382491663</ele>
        <time>2022-05-17T17:14:58Z</time>
      </trkpt>
      <trkpt lat="42.337104" lon="-4.601183">
        <ele>912.487748362124</ele>
        <time>2022-05-17T17:15:06Z</time>
      </trkpt>
      <trkpt lat="42.337127" lon="-4.601315">
        <ele>914.766127157025</ele>
        <time>2022-05-17T17:15:15Z</time>
      </trkpt>
      <trkpt lat="42.337155" lon="-4.601437">
        <ele>915.9151816060767</ele>
        <time>2022-05-17T17:15:23Z</time>
      </trkpt>
      <trkpt lat="42.337175" lon="-4.60157">
        <ele>917.475293382071</ele>
        <time>2022-05-17T17:15:30Z</time>
      </trkpt>
      <trkpt lat="42.337201" lon="-4.601704">
        <ele>917.465340860188</ele>
        <time>2022-05-17T17:15:42Z</time>
      </trkpt>
      <trkpt lat="42.337286" lon="-4.601769">
        <ele>913.520718626678</ele>
        <time>2022-05-17T17:15:47Z</time>
      </trkpt>
      <trkpt lat="42.337366" lon="-4.60185">
        <ele>911.8326840084046</ele>
        <time>2022-05-17T17:15:56Z</time>
      </trkpt>
      <trkpt lat="42.337425" lon="-4.601948">
        <ele>910.5895267073065</ele>
        <time>2022-05-17T17:16:03Z</time>
      </trkpt>
      <trkpt lat="42.337513" lon="-4.601994">
        <ele>908.6312687741593</ele>
        <time>2022-05-17T17:16:09Z</time>
      </trkpt>
      <trkpt lat="42.337586" lon="-4.602068">
        <ele>909.2969422433525</ele>
        <time>2022-05-17T17:16:18Z</time>
      </trkpt>
      <trkpt lat="42.337646" lon="-4.602163">
        <ele>910.5238811224699</ele>
        <time>2022-05-17T17:16:25Z</time>
      </trkpt>
      <trkpt lat="42.337698" lon="-4.602302">
        <ele>913.6292091421783</ele>
        <time>2022-05-17T17:16:32Z</time>
      </trkpt>
      <trkpt lat="42.337675" lon="-4.602427">
        <ele>915.4709061188623</ele>
        <time>2022-05-17T17:16:42Z</time>
      </trkpt>
      <trkpt lat="42.337595" lon="-4.602494">
        <ele>919.3002919508144</ele>
        <time>2022-05-17T17:16:50Z</time>
      </trkpt>
      <trkpt lat="42.337511" lon="-4.602547">
        <ele>921.5506170783192</ele>
        <time>2022-05-17T17:16:58Z</time>
      </trkpt>
      <trkpt lat="42.337416" lon="-4.602559">
        <ele>924.151954726316</ele>
        <time>2022-05-17T17:17:06Z</time>
      </trkpt>
      <trkpt lat="42.337318" lon="-4.60258">
        <ele>924.7878629611805</ele>
        <time>2022-05-17T17:17:13Z</time>
      </trkpt>
      <trkpt lat="42.337297" lon="-4.602705">
        <ele>921.3816903699189</ele>
        <time>2022-05-17T17:17:44Z</time>
      </trkpt>
      <trkpt lat="42.337339" lon="-4.602826">
        <ele>918.1744266785681</ele>
        <time>2022-05-17T17:17:51Z</time>
      </trkpt>
      <trkpt lat="42.337363" lon="-4.602969">
        <ele>914.5881439503282</ele>
        <time>2022-05-17T17:17:57Z</time>
      </trkpt>
      <trkpt lat="42.337392" lon="-4.603095">
        <ele>913.4855546830222</ele>
        <time>2022-05-17T17:18:05Z</time>
      </trkpt>
      <trkpt lat="42.337417" lon="-4.603219">
        <ele>914.5443962970749</ele>
        <time>2022-05-17T17:18:16Z</time>
      </trkpt>
      <trkpt lat="42.337484" lon="-4.603317">
        <ele>914.3688209233806</ele>
        <time>2022-05-17T17:18:26Z</time>
      </trkpt>
      <trkpt lat="42.337475" lon="-4.603443">
        <ele>917.9912105249241</ele>
        <time>2022-05-17T17:18:42Z</time>
      </trkpt>
      <trkpt lat="42.337488" lon="-4.603572">
        <ele>919.951523235999</ele>
        <time>2022-05-17T17:19:22Z</time>
      </trkpt>
      <trkpt lat="42.337577" lon="-4.603628">
        <ele>922.0230642426759</ele>
        <time>2022-05-17T17:19:32Z</time>
      </trkpt>
      <trkpt lat="42.337651" lon="-4.603716">
        <ele>921.4033626653254</ele>
        <time>2022-05-17T17:19:41Z</time>
      </trkpt>
      <trkpt lat="42.337741" lon="-4.603765">
        <ele>921.71455716528</ele>
        <time>2022-05-17T17:19:47Z</time>
      </trkpt>
      <trkpt lat="42.337835" lon="-4.60377">
        <ele>921.9256497416645</ele>
        <time>2022-05-17T17:19:56Z</time>
      </trkpt>
      <trkpt lat="42.337917" lon="-4.603712">
        <ele>929.0442552538589</ele>
        <time>2022-05-17T17:20:12Z</time>
      </trkpt>
      <trkpt lat="42.338016" lon="-4.603688">
        <ele>931.5384159171954</ele>
        <time>2022-05-17T17:20:18Z</time>
      </trkpt>
      <trkpt lat="42.338115" lon="-4.603711">
        <ele>931.0472022984177</ele>
        <time>2022-05-17T17:20:24Z</time>
      </trkpt>
      <trkpt lat="42.33821" lon="-4.603701">
        <ele>929.6825731713325</ele>
        <time>2022-05-17T17:20:30Z</time>
      </trkpt>
      <trkpt lat="42.3383" lon="-4.60375">
        <ele>929.8127704700455</ele>
        <time>2022-05-17T17:20:38Z</time>
      </trkpt>
      <trkpt lat="42.338394" lon="-4.603797">
        <ele>927.6669134087861</ele>
        <time>2022-05-17T17:20:45Z</time>
      </trkpt>
      <trkpt lat="42.338485" lon="-4.603783">
        <ele>927.3127369564027</ele>
        <time>2022-05-17T17:20:53Z</time>
      </trkpt>
      <trkpt lat="42.338568" lon="-4.603839">
        <ele>927.2499240133911</ele>
        <time>2022-05-17T17:21:00Z</time>
      </trkpt>
      <trkpt lat="42.338654" lon="-4.603793">
        <ele>925.7694642581046</ele>
        <time>2022-05-17T17:21:10Z</time>
      </trkpt>
      <trkpt lat="42.338745" lon="-4.603811">
        <ele>922.6747159510851</ele>
        <time>2022-05-17T17:21:19Z</time>
      </trkpt>
      <trkpt lat="42.338837" lon="-4.603827">
        <ele>921.2658765949309</ele>
        <time>2022-05-17T17:21:27Z</time>
      </trkpt>
      <trkpt lat="42.338934" lon="-4.603858">
        <ele>920.2531294533983</ele>
        <time>2022-05-17T17:21:32Z</time>
      </trkpt>
      <trkpt lat="42.339043" lon="-4.603898">
        <ele>920.3129880120978</ele>
        <time>2022-05-17T17:21:36Z</time>
      </trkpt>
      <trkpt lat="42.339161" lon="-4.603931">
        <ele>920.0957191269845</ele>
        <time>2022-05-17T17:21:38Z</time>
      </trkpt>
      <trkpt lat="42.339254" lon="-4.60393">
        <ele>918.9196288278326</ele>
        <time>2022-05-17T17:21:43Z</time>
      </trkpt>
      <trkpt lat="42.339362" lon="-4.603959">
        <ele>916.5278660561889</ele>
        <time>2022-05-17T17:21:48Z</time>
      </trkpt>
      <trkpt lat="42.339462" lon="-4.603981">
        <ele>912.1147889243439</ele>
        <time>2022-05-17T17:21:55Z</time>
      </trkpt>
      <trkpt lat="42.339553" lon="-4.603992">
        <ele>911.4783579641953</ele>
        <time>2022-05-17T17:22:03Z</time>
      </trkpt>
      <trkpt lat="42.339644" lon="-4.603993">
        <ele>914.5594463273883</ele>
        <time>2022-05-17T17:22:15Z</time>
      </trkpt>
      <trkpt lat="42.339749" lon="-4.603996">
        <ele>913.7756511326879</ele>
        <time>2022-05-17T17:22:24Z</time>
      </trkpt>
      <trkpt lat="42.339839" lon="-4.604003">
        <ele>912.4627487985417</ele>
        <time>2022-05-17T17:22:35Z</time>
      </trkpt>
      <trkpt lat="42.339914" lon="-4.604079">
        <ele>909.9906945023686</ele>
        <time>2022-05-17T17:22:51Z</time>
      </trkpt>
      <trkpt lat="42.340001" lon="-4.604127">
        <ele>911.071617975831</ele>
        <time>2022-05-17T17:23:00Z</time>
      </trkpt>
      <trkpt lat="42.340075" lon="-4.604203">
        <ele>913.1240673847497</ele>
        <time>2022-05-17T17:23:10Z</time>
      </trkpt>
      <trkpt lat="42.340137" lon="-4.604301">
        <ele>912.7364012524486</ele>
        <time>2022-05-17T17:23:23Z</time>
      </trkpt>
      <trkpt lat="42.340226" lon="-4.604334">
        <ele>911.2739061014727</ele>
        <time>2022-05-17T17:23:30Z</time>
      </trkpt>
      <trkpt lat="42.340313" lon="-4.604378">
        <ele>911.7864718837664</ele>
        <time>2022-05-17T17:23:37Z</time>
      </trkpt>
      <trkpt lat="42.340389" lon="-4.60446">
        <ele>915.1725046560168</ele>
        <time>2022-05-17T17:23:46Z</time>
      </trkpt>
      <trkpt lat="42.340464" lon="-4.604545">
        <ele>910.690641774796</ele>
        <time>2022-05-17T17:23:55Z</time>
      </trkpt>
      <trkpt lat="42.340551" lon="-4.604605">
        <ele>908.1186015401036</ele>
        <time>2022-05-17T17:24:03Z</time>
      </trkpt>
      <trkpt lat="42.340626" lon="-4.604695">
        <ele>905.0231992993504</ele>
        <time>2022-05-17T17:24:13Z</time>
      </trkpt>
      <trkpt lat="42.340705" lon="-4.60476">
        <ele>905.5642749341205</ele>
        <time>2022-05-17T17:24:20Z</time>
      </trkpt>
      <trkpt lat="42.340794" lon="-4.60481">
        <ele>905.8410413144156</ele>
        <time>2022-05-17T17:24:26Z</time>
      </trkpt>
      <trkpt lat="42.340893" lon="-4.604856">
        <ele>906.0841166721657</ele>
        <time>2022-05-17T17:24:32Z</time>
      </trkpt>
      <trkpt lat="42.340982" lon="-4.604881">
        <ele>906.5730096278712</ele>
        <time>2022-05-17T17:24:39Z</time>
      </trkpt>
      <trkpt lat="42.341067" lon="-4.60495">
        <ele>904.1221128329635</ele>
        <time>2022-05-17T17:24:45Z</time>
      </trkpt>
      <trkpt lat="42.341123" lon="-4.605054">
        <ele>901.5086706308648</ele>
        <time>2022-05-17T17:24:53Z</time>
      </trkpt>
      <trkpt lat="42.341187" lon="-4.605152">
        <ele>900.7344803186134</ele>
        <time>2022-05-17T17:25:00Z</time>
      </trkpt>
      <trkpt lat="42.341255" lon="-4.605258">
        <ele>897.962364140898</ele>
        <time>2022-05-17T17:25:10Z</time>
      </trkpt>
      <trkpt lat="42.341313" lon="-4.605371">
        <ele>899.5550997368991</ele>
        <time>2022-05-17T17:25:16Z</time>
      </trkpt>
      <trkpt lat="42.341366" lon="-4.605474">
        <ele>898.0370824793354</ele>
        <time>2022-05-17T17:25:24Z</time>
      </trkpt>
      <trkpt lat="42.341437" lon="-4.60557">
        <ele>896.2638010829687</ele>
        <time>2022-05-17T17:25:34Z</time>
      </trkpt>
      <trkpt lat="42.341494" lon="-4.605668">
        <ele>894.2175123514608</ele>
        <time>2022-05-17T17:25:42Z</time>
      </trkpt>
      <trkpt lat="42.34153" lon="-4.605783">
        <ele>893.4355594906956</ele>
        <time>2022-05-17T17:25:49Z</time>
      </trkpt>
      <trkpt lat="42.340964" lon="-4.605333">
        <ele>862.7177716232836</ele>
        <time>2022-05-18T07:22:50Z</time>
      </trkpt>
      <trkpt lat="42.341141" lon="-4.605447">
        <ele>866.1671172576025</ele>
        <time>2022-05-18T07:22:51Z</time>
      </trkpt>
      <trkpt lat="42.341036" lon="-4.605591">
        <ele>846.1242992943153</ele>
        <time>2022-05-18T07:22:52Z</time>
      </trkpt>
      <trkpt lat="42.341082" lon="-4.605477">
        <ele>862.7241392629221</ele>
        <time>2022-05-18T07:24:47Z</time>
      </trkpt>
      <trkpt lat="42.340987" lon="-4.605425">
        <ele>864.5701794885099</ele>
        <time>2022-05-18T07:24:52Z</time>
      </trkpt>
      <trkpt lat="42.340889" lon="-4.605428">
        <ele>871.4101656032726</ele>
        <time>2022-05-18T07:25:18Z</time>
      </trkpt>
      <trkpt lat="42.340784" lon="-4.60547">
        <ele>871.7081000646576</ele>
        <time>2022-05-18T07:25:22Z</time>
      </trkpt>
      <trkpt lat="42.340688" lon="-4.605466">
        <ele>865.924915926531</ele>
        <time>2022-05-18T07:25:27Z</time>
      </trkpt>
      <trkpt lat="42.340694" lon="-4.605341">
        <ele>856.5380032323301</ele>
        <time>2022-05-18T07:25:43Z</time>
      </trkpt>
      <trkpt lat="42.340657" lon="-4.605222">
        <ele>856.6985047813505</ele>
        <time>2022-05-18T07:25:54Z</time>
      </trkpt>
      <trkpt lat="42.340568" lon="-4.605134">
        <ele>857.8991350326687</ele>
        <time>2022-05-18T07:26:07Z</time>
      </trkpt>
      <trkpt lat="42.340473" lon="-4.605105">
        <ele>857.3115920554847</ele>
        <time>2022-05-18T07:26:17Z</time>
      </trkpt>
      <trkpt lat="42.340393" lon="-4.605048">
        <ele>855.8680704785511</ele>
        <time>2022-05-18T07:26:25Z</time>
      </trkpt>
      <trkpt lat="42.340389" lon="-4.604923">
        <ele>857.2444383837283</ele>
        <time>2022-05-18T07:26:29Z</time>
      </trkpt>
      <trkpt lat="42.340285" lon="-4.604898">
        <ele>860.5243783546612</ele>
        <time>2022-05-18T07:26:34Z</time>
      </trkpt>
      <trkpt lat="42.340179" lon="-4.604891">
        <ele>862.4939244883135</ele>
        <time>2022-05-18T07:26:39Z</time>
      </trkpt>
      <trkpt lat="42.340095" lon="-4.604837">
        <ele>865.4423609171063</ele>
        <time>2022-05-18T07:26:54Z</time>
      </trkpt>
      <trkpt lat="42.340055" lon="-4.604717">
        <ele>867.113990006037</ele>
        <time>2022-05-18T07:27:09Z</time>
      </trkpt>
      <trkpt lat="42.340007" lon="-4.604599">
        <ele>870.0976696936414</ele>
        <time>2022-05-18T07:27:19Z</time>
      </trkpt>
      <trkpt lat="42.340051" lon="-4.604462">
        <ele>873.2994332397357</ele>
        <time>2022-05-18T07:27:25Z</time>
      </trkpt>
      <trkpt lat="42.34003" lon="-4.604343">
        <ele>879.2317037153989</ele>
        <time>2022-05-18T07:27:37Z</time>
      </trkpt>
      <trkpt lat="42.339969" lon="-4.604244">
        <ele>884.450521719642</ele>
        <time>2022-05-18T07:27:47Z</time>
      </trkpt>
      <trkpt lat="42.339886" lon="-4.604194">
        <ele>889.8426315011457</ele>
        <time>2022-05-18T07:27:53Z</time>
      </trkpt>
      <trkpt lat="42.339795" lon="-4.60425">
        <ele>906.5522397486493</ele>
        <time>2022-05-18T07:28:08Z</time>
      </trkpt>
      <trkpt lat="42.339742" lon="-4.604354">
        <ele>912.657892738469</ele>
        <time>2022-05-18T07:28:17Z</time>
      </trkpt>
      <trkpt lat="42.339696" lon="-4.604465">
        <ele>913.1996302222833</ele>
        <time>2022-05-18T07:28:24Z</time>
      </trkpt>
      <trkpt lat="42.339644" lon="-4.604593">
        <ele>913.6085220519453</ele>
        <time>2022-05-18T07:28:32Z</time>
      </trkpt>
      <trkpt lat="42.339619" lon="-4.604715">
        <ele>911.6094551337883</ele>
        <time>2022-05-18T07:28:38Z</time>
      </trkpt>
      <trkpt lat="42.339549" lon="-4.604797">
        <ele>907.435182671994</ele>
        <time>2022-05-18T07:28:48Z</time>
      </trkpt>
      <trkpt lat="42.339528" lon="-4.604929">
        <ele>900.0854297270998</ele>
        <time>2022-05-18T07:29:00Z</time>
      </trkpt>
      <trkpt lat="42.339472" lon="-4.605027">
        <ele>899.7664165571332</ele>
        <time>2022-05-18T07:29:06Z</time>
      </trkpt>
      <trkpt lat="42.3394" lon="-4.605129">
        <ele>894.2724295798689</ele>
        <time>2022-05-18T07:29:15Z</time>
      </trkpt>
      <trkpt lat="42.339316" lon="-4.60521">
        <ele>889.5439420174807</ele>
        <time>2022-05-18T07:29:20Z</time>
      </trkpt>
      <trkpt lat="42.339253" lon="-4.605301">
        <ele>880.47139379289</ele>
        <time>2022-05-18T07:29:28Z</time>
      </trkpt>
      <trkpt lat="42.339201" lon="-4.605422">
        <ele>871.9038258092478</ele>
        <time>2022-05-18T07:29:37Z</time>
      </trkpt>
      <trkpt lat="42.339132" lon="-4.605523">
        <ele>862.0365667697042</ele>
        <time>2022-05-18T07:29:44Z</time>
      </trkpt>
      <trkpt lat="42.339099" lon="-4.605637">
        <ele>853.4959935741499</ele>
        <time>2022-05-18T07:29:57Z</time>
      </trkpt>
      <trkpt lat="42.339163" lon="-4.605725">
        <ele>845.8819908499718</ele>
        <time>2022-05-18T07:30:04Z</time>
      </trkpt>
      <trkpt lat="42.339225" lon="-4.605834">
        <ele>845.838002756238</ele>
        <time>2022-05-18T07:30:09Z</time>
      </trkpt>
      <trkpt lat="42.339246" lon="-4.605966">
        <ele>837.7701002499089</ele>
        <time>2022-05-18T07:30:16Z</time>
      </trkpt>
      <trkpt lat="42.339323" lon="-4.606032">
        <ele>830.4924607062712</ele>
        <time>2022-05-18T07:30:23Z</time>
      </trkpt>
      <trkpt lat="42.339404" lon="-4.60612">
        <ele>830.4288225090131</ele>
        <time>2022-05-18T07:30:31Z</time>
      </trkpt>
      <trkpt lat="42.33949" lon="-4.606189">
        <ele>829.5096196588129</ele>
        <time>2022-05-18T07:30:38Z</time>
      </trkpt>
      <trkpt lat="42.339527" lon="-4.606311">
        <ele>834.1939695868641</ele>
        <time>2022-05-18T07:30:44Z</time>
      </trkpt>
      <trkpt lat="42.339548" lon="-4.606446">
        <ele>830.3650093693286</ele>
        <time>2022-05-18T07:30:53Z</time>
      </trkpt>
      <trkpt lat="42.33956" lon="-4.606579">
        <ele>830.2286380389705</ele>
        <time>2022-05-18T07:30:58Z</time>
      </trkpt>
      <trkpt lat="42.339584" lon="-4.606699">
        <ele>836.1969550540671</ele>
        <time>2022-05-18T07:31:09Z</time>
      </trkpt>
      <trkpt lat="42.339576" lon="-4.606834">
        <ele>848.0199651550502</ele>
        <time>2022-05-18T07:31:45Z</time>
      </trkpt>
      <trkpt lat="42.339595" lon="-4.606973">
        <ele>854.0550983464345</ele>
        <time>2022-05-18T07:31:53Z</time>
      </trkpt>
      <trkpt lat="42.339589" lon="-4.607102">
        <ele>859.4132849387825</ele>
        <time>2022-05-18T07:32:01Z</time>
      </trkpt>
      <trkpt lat="42.339649" lon="-4.607211">
        <ele>864.2513934699818</ele>
        <time>2022-05-18T07:32:19Z</time>
      </trkpt>
      <trkpt lat="42.33968" lon="-4.607325">
        <ele>863.5470180269331</ele>
        <time>2022-05-18T07:32:33Z</time>
      </trkpt>
      <trkpt lat="42.339611" lon="-4.607419">
        <ele>863.527688854374</ele>
        <time>2022-05-18T07:33:09Z</time>
      </trkpt>
      <trkpt lat="42.339602" lon="-4.607541">
        <ele>863.6014387784526</ele>
        <time>2022-05-18T07:33:16Z</time>
      </trkpt>
      <trkpt lat="42.339591" lon="-4.607671">
        <ele>865.393155339174</ele>
        <time>2022-05-18T07:33:23Z</time>
      </trkpt>
      <trkpt lat="42.339579" lon="-4.607798">
        <ele>864.5420938935131</ele>
        <time>2022-05-18T07:33:31Z</time>
      </trkpt>
      <trkpt lat="42.339566" lon="-4.607932">
        <ele>867.6004671817645</ele>
        <time>2022-05-18T07:33:40Z</time>
      </trkpt>
      <trkpt lat="42.339554" lon="-4.60806">
        <ele>868.9489303035662</ele>
        <time>2022-05-18T07:33:49Z</time>
      </trkpt>
      <trkpt lat="42.339558" lon="-4.608193">
        <ele>870.271062720567</ele>
        <time>2022-05-18T07:33:54Z</time>
      </trkpt>
      <trkpt lat="42.339562" lon="-4.608321">
        <ele>873.2341843368486</ele>
        <time>2022-05-18T07:34:01Z</time>
      </trkpt>
      <trkpt lat="42.339605" lon="-4.608433">
        <ele>873.4727784339339</ele>
        <time>2022-05-18T07:34:08Z</time>
      </trkpt>
      <trkpt lat="42.339704" lon="-4.608452">
        <ele>874.2036522887647</ele>
        <time>2022-05-18T07:34:13Z</time>
      </trkpt>
      <trkpt lat="42.339779" lon="-4.608528">
        <ele>872.0831961752847</ele>
        <time>2022-05-18T07:34:20Z</time>
      </trkpt>
      <trkpt lat="42.33983" lon="-4.608635">
        <ele>869.1921529108658</ele>
        <time>2022-05-18T07:34:26Z</time>
      </trkpt>
      <trkpt lat="42.339869" lon="-4.608759">
        <ele>866.4411826292053</ele>
        <time>2022-05-18T07:34:33Z</time>
      </trkpt>
      <trkpt lat="42.33992" lon="-4.608878">
        <ele>865.1428972175345</ele>
        <time>2022-05-18T07:34:39Z</time>
      </trkpt>
      <trkpt lat="42.339979" lon="-4.608983">
        <ele>864.2977556139231</ele>
        <time>2022-05-18T07:34:46Z</time>
      </trkpt>
      <trkpt lat="42.340036" lon="-4.609087">
        <ele>862.1101304795593</ele>
        <time>2022-05-18T07:34:56Z</time>
      </trkpt>
      <trkpt lat="42.340098" lon="-4.609185">
        <ele>864.7063011005521</ele>
        <time>2022-05-18T07:35:08Z</time>
      </trkpt>
      <trkpt lat="42.340151" lon="-4.609293">
        <ele>868.1705580856651</ele>
        <time>2022-05-18T07:35:16Z</time>
      </trkpt>
      <trkpt lat="42.340214" lon="-4.609397">
        <ele>867.9309888258576</ele>
        <time>2022-05-18T07:35:23Z</time>
      </trkpt>
      <trkpt lat="42.340279" lon="-4.609487">
        <ele>868.7780425846577</ele>
        <time>2022-05-18T07:35:30Z</time>
      </trkpt>
      <trkpt lat="42.340348" lon="-4.609579">
        <ele>868.4770661480725</ele>
        <time>2022-05-18T07:35:37Z</time>
      </trkpt>
      <trkpt lat="42.340406" lon="-4.609692">
        <ele>869.1887179035693</ele>
        <time>2022-05-18T07:35:44Z</time>
      </trkpt>
      <trkpt lat="42.34046" lon="-4.609791">
        <ele>869.510326298885</ele>
        <time>2022-05-18T07:35:50Z</time>
      </trkpt>
      <trkpt lat="42.340517" lon="-4.609901">
        <ele>869.3590443739668</ele>
        <time>2022-05-18T07:35:57Z</time>
      </trkpt>
      <trkpt lat="42.340578" lon="-4.61">
        <ele>867.3684300882742</ele>
        <time>2022-05-18T07:36:06Z</time>
      </trkpt>
      <trkpt lat="42.340629" lon="-4.610101">
        <ele>866.8892800705507</ele>
        <time>2022-05-18T07:36:13Z</time>
      </trkpt>
      <trkpt lat="42.340666" lon="-4.610215">
        <ele>864.4270164314657</ele>
        <time>2022-05-18T07:36:25Z</time>
      </trkpt>
      <trkpt lat="42.340694" lon="-4.610335">
        <ele>864.4424039255828</ele>
        <time>2022-05-18T07:36:31Z</time>
      </trkpt>
      <trkpt lat="42.340729" lon="-4.610461">
        <ele>863.1473945640028</ele>
        <time>2022-05-18T07:36:38Z</time>
      </trkpt>
      <trkpt lat="42.340768" lon="-4.610578">
        <ele>861.9952447004616</ele>
        <time>2022-05-18T07:36:45Z</time>
      </trkpt>
      <trkpt lat="42.340782" lon="-4.610706">
        <ele>860.2011866681278</ele>
        <time>2022-05-18T07:36:53Z</time>
      </trkpt>
      <trkpt lat="42.340811" lon="-4.610831">
        <ele>860.8676402969286</ele>
        <time>2022-05-18T07:37:00Z</time>
      </trkpt>
      <trkpt lat="42.340877" lon="-4.610935">
        <ele>861.3416029717773</ele>
        <time>2022-05-18T07:37:06Z</time>
      </trkpt>
      <trkpt lat="42.34098" lon="-4.611047">
        <ele>864.9303457718343</ele>
        <time>2022-05-18T07:37:32Z</time>
      </trkpt>
      <trkpt lat="42.340897" lon="-4.611106">
        <ele>858.9832510706037</ele>
        <time>2022-05-18T07:38:01Z</time>
      </trkpt>
      <trkpt lat="42.340952" lon="-4.611222">
        <ele>864.0558557026088</ele>
        <time>2022-05-18T07:38:48Z</time>
      </trkpt>
      <trkpt lat="42.340973" lon="-4.611353">
        <ele>867.7098735598847</ele>
        <time>2022-05-18T07:38:56Z</time>
      </trkpt>
      <trkpt lat="42.340901" lon="-4.611451">
        <ele>863.4098283546045</ele>
        <time>2022-05-18T07:39:06Z</time>
      </trkpt>
      <trkpt lat="42.340846" lon="-4.61155">
        <ele>865.7124311896041</ele>
        <time>2022-05-18T07:39:13Z</time>
      </trkpt>
      <trkpt lat="42.340763" lon="-4.611621">
        <ele>859.1609047753736</ele>
        <time>2022-05-18T07:39:21Z</time>
      </trkpt>
      <trkpt lat="42.340755" lon="-4.611743">
        <ele>858.6537772109732</ele>
        <time>2022-05-18T07:39:26Z</time>
      </trkpt>
      <trkpt lat="42.340752" lon="-4.611865">
        <ele>857.9022882822901</ele>
        <time>2022-05-18T07:39:32Z</time>
      </trkpt>
      <trkpt lat="42.340736" lon="-4.611991">
        <ele>858.2835420435295</ele>
        <time>2022-05-18T07:39:44Z</time>
      </trkpt>
      <trkpt lat="42.34076" lon="-4.612109">
        <ele>863.3324512783438</ele>
        <time>2022-05-18T07:39:52Z</time>
      </trkpt>
      <trkpt lat="42.340734" lon="-4.612241">
        <ele>860.348269790411</ele>
        <time>2022-05-18T07:40:01Z</time>
      </trkpt>
      <trkpt lat="42.340719" lon="-4.61237">
        <ele>859.3744379412383</ele>
        <time>2022-05-18T07:40:09Z</time>
      </trkpt>
      <trkpt lat="42.340731" lon="-4.612494">
        <ele>852.8504956029356</ele>
        <time>2022-05-18T07:40:16Z</time>
      </trkpt>
      <trkpt lat="42.34075" lon="-4.612616">
        <ele>854.2274702601135</ele>
        <time>2022-05-18T07:40:22Z</time>
      </trkpt>
      <trkpt lat="42.340797" lon="-4.61273">
        <ele>855.1494926633313</ele>
        <time>2022-05-18T07:40:30Z</time>
      </trkpt>
      <trkpt lat="42.340789" lon="-4.612871">
        <ele>854.5527117103338</ele>
        <time>2022-05-18T07:40:38Z</time>
      </trkpt>
      <trkpt lat="42.340824" lon="-4.613001">
        <ele>853.0076169595122</ele>
        <time>2022-05-18T07:40:45Z</time>
      </trkpt>
      <trkpt lat="42.340872" lon="-4.613117">
        <ele>851.7466449346393</ele>
        <time>2022-05-18T07:40:52Z</time>
      </trkpt>
      <trkpt lat="42.340943" lon="-4.613198">
        <ele>850.8529429044574</ele>
        <time>2022-05-18T07:40:58Z</time>
      </trkpt>
      <trkpt lat="42.341014" lon="-4.613296">
        <ele>852.2072680694982</ele>
        <time>2022-05-18T07:41:04Z</time>
      </trkpt>
      <trkpt lat="42.341063" lon="-4.613416">
        <ele>852.9745661718771</ele>
        <time>2022-05-18T07:41:11Z</time>
      </trkpt>
      <trkpt lat="42.341069" lon="-4.613549">
        <ele>850.1595953535289</ele>
        <time>2022-05-18T07:41:18Z</time>
      </trkpt>
      <trkpt lat="42.341067" lon="-4.613672">
        <ele>848.7948317648843</ele>
        <time>2022-05-18T07:41:26Z</time>
      </trkpt>
      <trkpt lat="42.341047" lon="-4.613795">
        <ele>843.2904120963067</ele>
        <time>2022-05-18T07:41:40Z</time>
      </trkpt>
      <trkpt lat="42.340988" lon="-4.613903">
        <ele>838.3653056342155</ele>
        <time>2022-05-18T07:41:47Z</time>
      </trkpt>
      <trkpt lat="42.340964" lon="-4.614032">
        <ele>838.3176831211895</ele>
        <time>2022-05-18T07:41:54Z</time>
      </trkpt>
      <trkpt lat="42.340963" lon="-4.614171">
        <ele>839.8218136886135</ele>
        <time>2022-05-18T07:42:01Z</time>
      </trkpt>
      <trkpt lat="42.340962" lon="-4.614306">
        <ele>840.6184036005288</ele>
        <time>2022-05-18T07:42:08Z</time>
      </trkpt>
      <trkpt lat="42.340973" lon="-4.61443">
        <ele>840.1980685144663</ele>
        <time>2022-05-18T07:42:14Z</time>
      </trkpt>
      <trkpt lat="42.340966" lon="-4.61456">
        <ele>844.1056869579479</ele>
        <time>2022-05-18T07:42:20Z</time>
      </trkpt>
      <trkpt lat="42.34097" lon="-4.61469">
        <ele>845.2203878024593</ele>
        <time>2022-05-18T07:42:27Z</time>
      </trkpt>
      <trkpt lat="42.340964" lon="-4.614814">
        <ele>846.5835735686123</ele>
        <time>2022-05-18T07:42:35Z</time>
      </trkpt>
      <trkpt lat="42.340997" lon="-4.614927">
        <ele>849.8060915414244</ele>
        <time>2022-05-18T07:42:43Z</time>
      </trkpt>
      <trkpt lat="42.341" lon="-4.615058">
        <ele>856.2805869979784</ele>
        <time>2022-05-18T07:42:51Z</time>
      </trkpt>
      <trkpt lat="42.341024" lon="-4.615176">
        <ele>861.4756079567596</ele>
        <time>2022-05-18T07:43:00Z</time>
      </trkpt>
      <trkpt lat="42.341038" lon="-4.615298">
        <ele>859.5872285161167</ele>
        <time>2022-05-18T07:43:09Z</time>
      </trkpt>
      <trkpt lat="42.341046" lon="-4.615425">
        <ele>857.035384574905</ele>
        <time>2022-05-18T07:43:19Z</time>
      </trkpt>
      <trkpt lat="42.341064" lon="-4.615548">
        <ele>857.0673815663904</ele>
        <time>2022-05-18T07:43:26Z</time>
      </trkpt>
      <trkpt lat="42.341061" lon="-4.615671">
        <ele>857.777924861759</ele>
        <time>2022-05-18T07:43:33Z</time>
      </trkpt>
      <trkpt lat="42.341065" lon="-4.6158">
        <ele>854.6504227612168</ele>
        <time>2022-05-18T07:43:42Z</time>
      </trkpt>
      <trkpt lat="42.341079" lon="-4.615923">
        <ele>853.1184409372509</ele>
        <time>2022-05-18T07:43:49Z</time>
      </trkpt>
      <trkpt lat="42.341091" lon="-4.61605">
        <ele>854.5033263368532</ele>
        <time>2022-05-18T07:43:57Z</time>
      </trkpt>
      <trkpt lat="42.341074" lon="-4.616172">
        <ele>853.5674050701782</ele>
        <time>2022-05-18T07:44:06Z</time>
      </trkpt>
      <trkpt lat="42.341074" lon="-4.61631">
        <ele>859.2175202071667</ele>
        <time>2022-05-18T07:44:14Z</time>
      </trkpt>
      <trkpt lat="42.341063" lon="-4.616439">
        <ele>862.2261150870472</ele>
        <time>2022-05-18T07:44:23Z</time>
      </trkpt>
      <trkpt lat="42.341052" lon="-4.616564">
        <ele>864.7778377244249</ele>
        <time>2022-05-18T07:44:31Z</time>
      </trkpt>
      <trkpt lat="42.341065" lon="-4.616686">
        <ele>865.294430365786</ele>
        <time>2022-05-18T07:44:38Z</time>
      </trkpt>
      <trkpt lat="42.341076" lon="-4.616813">
        <ele>866.6884523518384</ele>
        <time>2022-05-18T07:44:47Z</time>
      </trkpt>
      <trkpt lat="42.341104" lon="-4.616934">
        <ele>866.7991093033925</ele>
        <time>2022-05-18T07:44:55Z</time>
      </trkpt>
      <trkpt lat="42.341132" lon="-4.617059">
        <ele>866.440116899088</ele>
        <time>2022-05-18T07:45:02Z</time>
      </trkpt>
      <trkpt lat="42.341133" lon="-4.61719">
        <ele>866.1324235899374</ele>
        <time>2022-05-18T07:45:09Z</time>
      </trkpt>
      <trkpt lat="42.34113" lon="-4.617326">
        <ele>867.5061253942549</ele>
        <time>2022-05-18T07:45:17Z</time>
      </trkpt>
      <trkpt lat="42.341122" lon="-4.617454">
        <ele>863.3448652038351</ele>
        <time>2022-05-18T07:45:27Z</time>
      </trkpt>
      <trkpt lat="42.341125" lon="-4.617589">
        <ele>863.1562505112961</ele>
        <time>2022-05-18T07:45:38Z</time>
      </trkpt>
      <trkpt lat="42.341162" lon="-4.617717">
        <ele>863.8377164015546</ele>
        <time>2022-05-18T07:45:44Z</time>
      </trkpt>
      <trkpt lat="42.341162" lon="-4.617847">
        <ele>863.3241767426953</ele>
        <time>2022-05-18T07:45:53Z</time>
      </trkpt>
      <trkpt lat="42.341163" lon="-4.617975">
        <ele>864.0568998800591</ele>
        <time>2022-05-18T07:46:01Z</time>
      </trkpt>
      <trkpt lat="42.341155" lon="-4.618102">
        <ele>864.1490504797548</ele>
        <time>2022-05-18T07:46:10Z</time>
      </trkpt>
      <trkpt lat="42.341145" lon="-4.618225">
        <ele>862.646230016835</ele>
        <time>2022-05-18T07:46:20Z</time>
      </trkpt>
      <trkpt lat="42.341144" lon="-4.618347">
        <ele>863.5496718296781</ele>
        <time>2022-05-18T07:46:28Z</time>
      </trkpt>
      <trkpt lat="42.341146" lon="-4.618479">
        <ele>863.4888929184526</ele>
        <time>2022-05-18T07:46:38Z</time>
      </trkpt>
      <trkpt lat="42.341135" lon="-4.618609">
        <ele>862.6210435088724</ele>
        <time>2022-05-18T07:46:50Z</time>
      </trkpt>
      <trkpt lat="42.341151" lon="-4.618732">
        <ele>861.9097852157429</ele>
        <time>2022-05-18T07:46:57Z</time>
      </trkpt>
      <trkpt lat="42.341162" lon="-4.618852">
        <ele>863.5696579078212</ele>
        <time>2022-05-18T07:47:04Z</time>
      </trkpt>
      <trkpt lat="42.341166" lon="-4.618974">
        <ele>863.6669501168653</ele>
        <time>2022-05-18T07:47:13Z</time>
      </trkpt>
      <trkpt lat="42.341172" lon="-4.619108">
        <ele>864.0846432931721</ele>
        <time>2022-05-18T07:47:21Z</time>
      </trkpt>
      <trkpt lat="42.341143" lon="-4.619234">
        <ele>865.5412955014035</ele>
        <time>2022-05-18T07:47:29Z</time>
      </trkpt>
      <trkpt lat="42.341162" lon="-4.619365">
        <ele>865.7713511250913</ele>
        <time>2022-05-18T07:47:36Z</time>
      </trkpt>
      <trkpt lat="42.341185" lon="-4.619496">
        <ele>862.9705635337159</ele>
        <time>2022-05-18T07:47:45Z</time>
      </trkpt>
      <trkpt lat="42.341212" lon="-4.619626">
        <ele>859.2155728721991</ele>
        <time>2022-05-18T07:47:54Z</time>
      </trkpt>
      <trkpt lat="42.341226" lon="-4.619766">
        <ele>858.6616578418761</ele>
        <time>2022-05-18T07:48:03Z</time>
      </trkpt>
      <trkpt lat="42.341246" lon="-4.619888">
        <ele>857.1469504935667</ele>
        <time>2022-05-18T07:48:11Z</time>
      </trkpt>
      <trkpt lat="42.341259" lon="-4.620016">
        <ele>856.6669939849526</ele>
        <time>2022-05-18T07:48:18Z</time>
      </trkpt>
      <trkpt lat="42.341287" lon="-4.620131">
        <ele>854.6036578128114</ele>
        <time>2022-05-18T07:48:25Z</time>
      </trkpt>
      <trkpt lat="42.341293" lon="-4.620268">
        <ele>856.7578501822427</ele>
        <time>2022-05-18T07:48:33Z</time>
      </trkpt>
      <trkpt lat="42.3413" lon="-4.62041">
        <ele>857.3716429434717</ele>
        <time>2022-05-18T07:48:41Z</time>
      </trkpt>
      <trkpt lat="42.341318" lon="-4.620543">
        <ele>856.0118916993961</ele>
        <time>2022-05-18T07:48:49Z</time>
      </trkpt>
      <trkpt lat="42.341323" lon="-4.620675">
        <ele>858.5528809158131</ele>
        <time>2022-05-18T07:48:54Z</time>
      </trkpt>
      <trkpt lat="42.341348" lon="-4.620805">
        <ele>858.8436672072858</ele>
        <time>2022-05-18T07:49:03Z</time>
      </trkpt>
      <trkpt lat="42.341361" lon="-4.620925">
        <ele>859.9378739017993</ele>
        <time>2022-05-18T07:49:09Z</time>
      </trkpt>
      <trkpt lat="42.341365" lon="-4.621056">
        <ele>855.3912585359067</ele>
        <time>2022-05-18T07:49:16Z</time>
      </trkpt>
      <trkpt lat="42.341373" lon="-4.621183">
        <ele>854.7136282706633</ele>
        <time>2022-05-18T07:49:22Z</time>
      </trkpt>
      <trkpt lat="42.341388" lon="-4.621314">
        <ele>854.7947864923626</ele>
        <time>2022-05-18T07:49:29Z</time>
      </trkpt>
      <trkpt lat="42.341385" lon="-4.62145">
        <ele>853.814604934305</ele>
        <time>2022-05-18T07:49:34Z</time>
      </trkpt>
      <trkpt lat="42.341364" lon="-4.621571">
        <ele>851.0286490153521</ele>
        <time>2022-05-18T07:49:41Z</time>
      </trkpt>
      <trkpt lat="42.341345" lon="-4.621703">
        <ele>847.4438558081165</ele>
        <time>2022-05-18T07:49:48Z</time>
      </trkpt>
      <trkpt lat="42.341359" lon="-4.621828">
        <ele>845.3031179038808</ele>
        <time>2022-05-18T07:49:56Z</time>
      </trkpt>
      <trkpt lat="42.341421" lon="-4.621932">
        <ele>844.2526364801452</ele>
        <time>2022-05-18T07:50:03Z</time>
      </trkpt>
      <trkpt lat="42.341452" lon="-4.622046">
        <ele>847.3881267188117</ele>
        <time>2022-05-18T07:50:09Z</time>
      </trkpt>
      <trkpt lat="42.341496" lon="-4.622163">
        <ele>850.3754076398909</ele>
        <time>2022-05-18T07:50:16Z</time>
      </trkpt>
      <trkpt lat="42.341494" lon="-4.622295">
        <ele>855.4937044959515</ele>
        <time>2022-05-18T07:50:23Z</time>
      </trkpt>
      <trkpt lat="42.341513" lon="-4.622416">
        <ele>856.510809071362</ele>
        <time>2022-05-18T07:50:29Z</time>
      </trkpt>
      <trkpt lat="42.341504" lon="-4.622539">
        <ele>854.0452490923926</ele>
        <time>2022-05-18T07:50:37Z</time>
      </trkpt>
      <trkpt lat="42.34149" lon="-4.622662">
        <ele>850.1865607975051</ele>
        <time>2022-05-18T07:50:45Z</time>
      </trkpt>
      <trkpt lat="42.34149" lon="-4.622799">
        <ele>849.295655965805</ele>
        <time>2022-05-18T07:50:53Z</time>
      </trkpt>
      <trkpt lat="42.341478" lon="-4.622933">
        <ele>847.3357610413805</ele>
        <time>2022-05-18T07:51:02Z</time>
      </trkpt>
      <trkpt lat="42.34148" lon="-4.623061">
        <ele>846.549466913566</ele>
        <time>2022-05-18T07:51:09Z</time>
      </trkpt>
      <trkpt lat="42.341503" lon="-4.623193">
        <ele>848.4211560878903</ele>
        <time>2022-05-18T07:51:17Z</time>
      </trkpt>
      <trkpt lat="42.341506" lon="-4.623325">
        <ele>853.2683161264285</ele>
        <time>2022-05-18T07:51:24Z</time>
      </trkpt>
      <trkpt lat="42.341506" lon="-4.623452">
        <ele>858.4215620681643</ele>
        <time>2022-05-18T07:51:32Z</time>
      </trkpt>
      <trkpt lat="42.341514" lon="-4.623581">
        <ele>858.4288464905694</ele>
        <time>2022-05-18T07:51:41Z</time>
      </trkpt>
      <trkpt lat="42.341531" lon="-4.623705">
        <ele>862.2358044013381</ele>
        <time>2022-05-18T07:51:49Z</time>
      </trkpt>
      <trkpt lat="42.34154" lon="-4.623843">
        <ele>859.555770359002</ele>
        <time>2022-05-18T07:51:58Z</time>
      </trkpt>
      <trkpt lat="42.34154" lon="-4.623979">
        <ele>858.3686113534495</ele>
        <time>2022-05-18T07:52:06Z</time>
      </trkpt>
      <trkpt lat="42.341536" lon="-4.62411">
        <ele>859.5029986370355</ele>
        <time>2022-05-18T07:52:14Z</time>
      </trkpt>
      <trkpt lat="42.341543" lon="-4.624242">
        <ele>859.6004617083818</ele>
        <time>2022-05-18T07:52:22Z</time>
      </trkpt>
      <trkpt lat="42.341572" lon="-4.624381">
        <ele>861.881944543682</ele>
        <time>2022-05-18T07:52:32Z</time>
      </trkpt>
      <trkpt lat="42.341592" lon="-4.624506">
        <ele>861.5068954350427</ele>
        <time>2022-05-18T07:52:39Z</time>
      </trkpt>
      <trkpt lat="42.341601" lon="-4.624639">
        <ele>857.9614481600001</ele>
        <time>2022-05-18T07:52:47Z</time>
      </trkpt>
      <trkpt lat="42.341603" lon="-4.624762">
        <ele>856.3706217156723</ele>
        <time>2022-05-18T07:52:54Z</time>
      </trkpt>
      <trkpt lat="42.341599" lon="-4.624886">
        <ele>855.7041033133864</ele>
        <time>2022-05-18T07:53:02Z</time>
      </trkpt>
      <trkpt lat="42.341602" lon="-4.625023">
        <ele>855.5066498620436</ele>
        <time>2022-05-18T07:53:10Z</time>
      </trkpt>
      <trkpt lat="42.341618" lon="-4.625157">
        <ele>857.102180602029</ele>
        <time>2022-05-18T07:53:18Z</time>
      </trkpt>
      <trkpt lat="42.341635" lon="-4.625288">
        <ele>856.0147038046271</ele>
        <time>2022-05-18T07:53:25Z</time>
      </trkpt>
      <trkpt lat="42.341647" lon="-4.625426">
        <ele>856.150526303798</ele>
        <time>2022-05-18T07:53:32Z</time>
      </trkpt>
      <trkpt lat="42.341665" lon="-4.625557">
        <ele>854.8506554262713</ele>
        <time>2022-05-18T07:53:39Z</time>
      </trkpt>
      <trkpt lat="42.341672" lon="-4.625689">
        <ele>853.7589825764298</ele>
        <time>2022-05-18T07:53:47Z</time>
      </trkpt>
      <trkpt lat="42.341692" lon="-4.625813">
        <ele>854.4971219152212</ele>
        <time>2022-05-18T07:53:54Z</time>
      </trkpt>
      <trkpt lat="42.341715" lon="-4.625945">
        <ele>855.4842507755384</ele>
        <time>2022-05-18T07:54:01Z</time>
      </trkpt>
      <trkpt lat="42.341741" lon="-4.626083">
        <ele>856.2935644173995</ele>
        <time>2022-05-18T07:54:08Z</time>
      </trkpt>
      <trkpt lat="42.341753" lon="-4.626211">
        <ele>855.2471602372825</ele>
        <time>2022-05-18T07:54:15Z</time>
      </trkpt>
      <trkpt lat="42.341781" lon="-4.62634">
        <ele>856.1037666676566</ele>
        <time>2022-05-18T07:54:22Z</time>
      </trkpt>
      <trkpt lat="42.341804" lon="-4.626474">
        <ele>858.3325038664043</ele>
        <time>2022-05-18T07:54:30Z</time>
      </trkpt>
      <trkpt lat="42.34181" lon="-4.626609">
        <ele>859.3210468124598</ele>
        <time>2022-05-18T07:54:38Z</time>
      </trkpt>
      <trkpt lat="42.341827" lon="-4.626732">
        <ele>859.4371936665848</ele>
        <time>2022-05-18T07:54:45Z</time>
      </trkpt>
      <trkpt lat="42.341838" lon="-4.62687">
        <ele>862.4818379571661</ele>
        <time>2022-05-18T07:54:52Z</time>
      </trkpt>
      <trkpt lat="42.341834" lon="-4.626995">
        <ele>860.5665742000565</ele>
        <time>2022-05-18T07:55:00Z</time>
      </trkpt>
      <trkpt lat="42.341849" lon="-4.627115">
        <ele>860.0960892159492</ele>
        <time>2022-05-18T07:55:08Z</time>
      </trkpt>
      <trkpt lat="42.341866" lon="-4.627239">
        <ele>860.0501709189266</ele>
        <time>2022-05-18T07:55:16Z</time>
      </trkpt>
      <trkpt lat="42.34187" lon="-4.62737">
        <ele>858.8973135119304</ele>
        <time>2022-05-18T07:55:23Z</time>
      </trkpt>
      <trkpt lat="42.341889" lon="-4.627497">
        <ele>858.411517300643</ele>
        <time>2022-05-18T07:55:29Z</time>
      </trkpt>
      <trkpt lat="42.341892" lon="-4.62762">
        <ele>859.6725844051689</ele>
        <time>2022-05-18T07:55:39Z</time>
      </trkpt>
      <trkpt lat="42.34189" lon="-4.627754">
        <ele>861.8555623451248</ele>
        <time>2022-05-18T07:55:47Z</time>
      </trkpt>
      <trkpt lat="42.341909" lon="-4.627883">
        <ele>863.4995932094753</ele>
        <time>2022-05-18T07:55:54Z</time>
      </trkpt>
      <trkpt lat="42.341931" lon="-4.628005">
        <ele>864.8201443776488</ele>
        <time>2022-05-18T07:56:01Z</time>
      </trkpt>
      <trkpt lat="42.341937" lon="-4.628128">
        <ele>865.7560086036101</ele>
        <time>2022-05-18T07:56:08Z</time>
      </trkpt>
      <trkpt lat="42.341959" lon="-4.628254">
        <ele>865.3465465139598</ele>
        <time>2022-05-18T07:56:16Z</time>
      </trkpt>
      <trkpt lat="42.341968" lon="-4.628384">
        <ele>865.2238743966445</ele>
        <time>2022-05-18T07:56:24Z</time>
      </trkpt>
      <trkpt lat="42.341984" lon="-4.628522">
        <ele>864.0284677930176</ele>
        <time>2022-05-18T07:56:31Z</time>
      </trkpt>
      <trkpt lat="42.342007" lon="-4.628656">
        <ele>863.4097862951458</ele>
        <time>2022-05-18T07:56:38Z</time>
      </trkpt>
      <trkpt lat="42.342035" lon="-4.628774">
        <ele>862.7535364339128</ele>
        <time>2022-05-18T07:56:44Z</time>
      </trkpt>
      <trkpt lat="42.342054" lon="-4.628896">
        <ele>862.8777247099206</ele>
        <time>2022-05-18T07:56:52Z</time>
      </trkpt>
      <trkpt lat="42.342048" lon="-4.629019">
        <ele>862.8697716062889</ele>
        <time>2022-05-18T07:57:00Z</time>
      </trkpt>
      <trkpt lat="42.342059" lon="-4.629141">
        <ele>861.1473974511027</ele>
        <time>2022-05-18T07:57:07Z</time>
      </trkpt>
      <trkpt lat="42.342064" lon="-4.629268">
        <ele>861.3223120495677</ele>
        <time>2022-05-18T07:57:14Z</time>
      </trkpt>
      <trkpt lat="42.342071" lon="-4.629397">
        <ele>862.421556327492</ele>
        <time>2022-05-18T07:57:21Z</time>
      </trkpt>
      <trkpt lat="42.342087" lon="-4.629524">
        <ele>861.6446157488972</ele>
        <time>2022-05-18T07:57:28Z</time>
      </trkpt>
      <trkpt lat="42.342094" lon="-4.629656">
        <ele>861.2095302343369</ele>
        <time>2022-05-18T07:57:37Z</time>
      </trkpt>
      <trkpt lat="42.342096" lon="-4.629782">
        <ele>861.1940297521651</ele>
        <time>2022-05-18T07:57:45Z</time>
      </trkpt>
      <trkpt lat="42.342121" lon="-4.629909">
        <ele>862.6150117563084</ele>
        <time>2022-05-18T07:57:52Z</time>
      </trkpt>
      <trkpt lat="42.342149" lon="-4.630043">
        <ele>864.267652139999</ele>
        <time>2022-05-18T07:57:59Z</time>
      </trkpt>
      <trkpt lat="42.34219" lon="-4.630155">
        <ele>864.2455854527652</ele>
        <time>2022-05-18T07:58:05Z</time>
      </trkpt>
      <trkpt lat="42.342172" lon="-4.630283">
        <ele>864.7853673519567</ele>
        <time>2022-05-18T07:58:14Z</time>
      </trkpt>
      <trkpt lat="42.342134" lon="-4.630409">
        <ele>864.899780976586</ele>
        <time>2022-05-18T07:58:22Z</time>
      </trkpt>
      <trkpt lat="42.342152" lon="-4.630534">
        <ele>865.4850958045572</ele>
        <time>2022-05-18T07:58:29Z</time>
      </trkpt>
      <trkpt lat="42.342169" lon="-4.630667">
        <ele>864.2231977833435</ele>
        <time>2022-05-18T07:58:36Z</time>
      </trkpt>
      <trkpt lat="42.34218" lon="-4.630802">
        <ele>865.462668761611</ele>
        <time>2022-05-18T07:58:43Z</time>
      </trkpt>
      <trkpt lat="42.34219" lon="-4.630927">
        <ele>865.8346530012786</ele>
        <time>2022-05-18T07:58:51Z</time>
      </trkpt>
      <trkpt lat="42.342175" lon="-4.63105">
        <ele>864.8329332387075</ele>
        <time>2022-05-18T07:58:59Z</time>
      </trkpt>
      <trkpt lat="42.342201" lon="-4.631182">
        <ele>865.242148659192</ele>
        <time>2022-05-18T07:59:06Z</time>
      </trkpt>
      <trkpt lat="42.342237" lon="-4.631296">
        <ele>865.3928247373551</ele>
        <time>2022-05-18T07:59:15Z</time>
      </trkpt>
      <trkpt lat="42.342243" lon="-4.631418">
        <ele>866.9697653325275</ele>
        <time>2022-05-18T07:59:21Z</time>
      </trkpt>
      <trkpt lat="42.342254" lon="-4.631539">
        <ele>864.9355251416564</ele>
        <time>2022-05-18T07:59:29Z</time>
      </trkpt>
      <trkpt lat="42.342258" lon="-4.631666">
        <ele>862.5742250680923</ele>
        <time>2022-05-18T07:59:36Z</time>
      </trkpt>
      <trkpt lat="42.342266" lon="-4.631803">
        <ele>860.1691479953006</ele>
        <time>2022-05-18T07:59:43Z</time>
      </trkpt>
      <trkpt lat="42.342256" lon="-4.631929">
        <ele>860.0179613493383</ele>
        <time>2022-05-18T07:59:50Z</time>
      </trkpt>
      <trkpt lat="42.342239" lon="-4.632057">
        <ele>861.983828118071</ele>
        <time>2022-05-18T07:59:59Z</time>
      </trkpt>
      <trkpt lat="42.342235" lon="-4.632184">
        <ele>863.0034980392084</ele>
        <time>2022-05-18T08:00:07Z</time>
      </trkpt>
      <trkpt lat="42.342245" lon="-4.632315">
        <ele>864.9794079195708</ele>
        <time>2022-05-18T08:00:13Z</time>
      </trkpt>
      <trkpt lat="42.342265" lon="-4.632452">
        <ele>867.9131078887731</ele>
        <time>2022-05-18T08:00:20Z</time>
      </trkpt>
      <trkpt lat="42.34231" lon="-4.632572">
        <ele>867.9188207862899</ele>
        <time>2022-05-18T08:00:26Z</time>
      </trkpt>
      <trkpt lat="42.342338" lon="-4.632699">
        <ele>869.065509473905</ele>
        <time>2022-05-18T08:00:32Z</time>
      </trkpt>
      <trkpt lat="42.342346" lon="-4.632827">
        <ele>867.8210659176111</ele>
        <time>2022-05-18T08:00:39Z</time>
      </trkpt>
      <trkpt lat="42.342352" lon="-4.632965">
        <ele>866.9121118355542</ele>
        <time>2022-05-18T08:00:48Z</time>
      </trkpt>
      <trkpt lat="42.342376" lon="-4.633099">
        <ele>864.2995564043522</ele>
        <time>2022-05-18T08:00:55Z</time>
      </trkpt>
      <trkpt lat="42.342399" lon="-4.63323">
        <ele>861.3230721326545</ele>
        <time>2022-05-18T08:01:03Z</time>
      </trkpt>
      <trkpt lat="42.342414" lon="-4.633355">
        <ele>862.3891192264855</ele>
        <time>2022-05-18T08:01:09Z</time>
      </trkpt>
      <trkpt lat="42.342419" lon="-4.633491">
        <ele>862.0367908477783</ele>
        <time>2022-05-18T08:01:16Z</time>
      </trkpt>
      <trkpt lat="42.342444" lon="-4.63363">
        <ele>861.6690775090829</ele>
        <time>2022-05-18T08:01:22Z</time>
      </trkpt>
      <trkpt lat="42.342475" lon="-4.633744">
        <ele>860.1312406072393</ele>
        <time>2022-05-18T08:01:27Z</time>
      </trkpt>
      <trkpt lat="42.342507" lon="-4.633868">
        <ele>859.0049000419676</ele>
        <time>2022-05-18T08:01:34Z</time>
      </trkpt>
      <trkpt lat="42.342524" lon="-4.633995">
        <ele>858.9932253910229</ele>
        <time>2022-05-18T08:01:41Z</time>
      </trkpt>
      <trkpt lat="42.342536" lon="-4.634124">
        <ele>860.679221149534</ele>
        <time>2022-05-18T08:01:48Z</time>
      </trkpt>
      <trkpt lat="42.342528" lon="-4.634257">
        <ele>858.2339757578447</ele>
        <time>2022-05-18T08:01:57Z</time>
      </trkpt>
      <trkpt lat="42.342528" lon="-4.63439">
        <ele>858.4683005008847</ele>
        <time>2022-05-18T08:02:06Z</time>
      </trkpt>
      <trkpt lat="42.342545" lon="-4.634517">
        <ele>859.5469134962186</ele>
        <time>2022-05-18T08:02:13Z</time>
      </trkpt>
      <trkpt lat="42.342549" lon="-4.634641">
        <ele>862.5696594621986</ele>
        <time>2022-05-18T08:02:20Z</time>
      </trkpt>
      <trkpt lat="42.342545" lon="-4.634768">
        <ele>862.1553189456463</ele>
        <time>2022-05-18T08:02:28Z</time>
      </trkpt>
      <trkpt lat="42.342561" lon="-4.634891">
        <ele>860.6998030850664</ele>
        <time>2022-05-18T08:02:35Z</time>
      </trkpt>
      <trkpt lat="42.342559" lon="-4.635026">
        <ele>859.3398923622444</ele>
        <time>2022-05-18T08:02:45Z</time>
      </trkpt>
      <trkpt lat="42.342561" lon="-4.635149">
        <ele>857.094933851622</ele>
        <time>2022-05-18T08:02:52Z</time>
      </trkpt>
      <trkpt lat="42.342564" lon="-4.635288">
        <ele>854.4087243899703</ele>
        <time>2022-05-18T08:03:00Z</time>
      </trkpt>
      <trkpt lat="42.342583" lon="-4.635421">
        <ele>853.2086482420564</ele>
        <time>2022-05-18T08:03:07Z</time>
      </trkpt>
      <trkpt lat="42.342598" lon="-4.635555">
        <ele>853.5219784807414</ele>
        <time>2022-05-18T08:03:14Z</time>
      </trkpt>
      <trkpt lat="42.342599" lon="-4.635679">
        <ele>853.3648138642311</ele>
        <time>2022-05-18T08:03:21Z</time>
      </trkpt>
      <trkpt lat="42.342602" lon="-4.635811">
        <ele>852.5830616755411</ele>
        <time>2022-05-18T08:03:31Z</time>
      </trkpt>
      <trkpt lat="42.342607" lon="-4.635945">
        <ele>853.4682258609682</ele>
        <time>2022-05-18T08:03:39Z</time>
      </trkpt>
      <trkpt lat="42.342607" lon="-4.636072">
        <ele>855.1036647167057</ele>
        <time>2022-05-18T08:03:47Z</time>
      </trkpt>
      <trkpt lat="42.342618" lon="-4.636201">
        <ele>855.4623335879296</ele>
        <time>2022-05-18T08:03:55Z</time>
      </trkpt>
      <trkpt lat="42.342627" lon="-4.636332">
        <ele>858.0976871103048</ele>
        <time>2022-05-18T08:04:04Z</time>
      </trkpt>
      <trkpt lat="42.342638" lon="-4.636461">
        <ele>860.7235163347796</ele>
        <time>2022-05-18T08:04:12Z</time>
      </trkpt>
      <trkpt lat="42.342652" lon="-4.636585">
        <ele>861.818848984316</ele>
        <time>2022-05-18T08:04:18Z</time>
      </trkpt>
      <trkpt lat="42.342678" lon="-4.636708">
        <ele>859.8805333236232</ele>
        <time>2022-05-18T08:04:24Z</time>
      </trkpt>
      <trkpt lat="42.342687" lon="-4.636843">
        <ele>854.7268201746047</ele>
        <time>2022-05-18T08:04:31Z</time>
      </trkpt>
      <trkpt lat="42.342696" lon="-4.636971">
        <ele>851.0996211105958</ele>
        <time>2022-05-18T08:04:39Z</time>
      </trkpt>
      <trkpt lat="42.342732" lon="-4.637102">
        <ele>851.7344907438383</ele>
        <time>2022-05-18T08:04:47Z</time>
      </trkpt>
      <trkpt lat="42.342745" lon="-4.637237">
        <ele>850.7511480981484</ele>
        <time>2022-05-18T08:04:54Z</time>
      </trkpt>
      <trkpt lat="42.342754" lon="-4.637361">
        <ele>852.0811336478218</ele>
        <time>2022-05-18T08:05:00Z</time>
      </trkpt>
      <trkpt lat="42.342771" lon="-4.637495">
        <ele>851.8751991987228</ele>
        <time>2022-05-18T08:05:07Z</time>
      </trkpt>
      <trkpt lat="42.342779" lon="-4.637617">
        <ele>853.8339130887762</ele>
        <time>2022-05-18T08:05:15Z</time>
      </trkpt>
      <trkpt lat="42.3428" lon="-4.637753">
        <ele>859.0138034876436</ele>
        <time>2022-05-18T08:05:23Z</time>
      </trkpt>
      <trkpt lat="42.342797" lon="-4.637886">
        <ele>858.8105419194326</ele>
        <time>2022-05-18T08:05:31Z</time>
      </trkpt>
      <trkpt lat="42.342803" lon="-4.638015">
        <ele>857.5359443249181</ele>
        <time>2022-05-18T08:05:38Z</time>
      </trkpt>
      <trkpt lat="42.342813" lon="-4.638145">
        <ele>859.2265423433855</ele>
        <time>2022-05-18T08:05:46Z</time>
      </trkpt>
      <trkpt lat="42.342821" lon="-4.638284">
        <ele>859.8655540635809</ele>
        <time>2022-05-18T08:05:55Z</time>
      </trkpt>
      <trkpt lat="42.342839" lon="-4.638412">
        <ele>860.7044605882838</ele>
        <time>2022-05-18T08:06:01Z</time>
      </trkpt>
      <trkpt lat="42.342843" lon="-4.638539">
        <ele>859.6401617750525</ele>
        <time>2022-05-18T08:06:09Z</time>
      </trkpt>
      <trkpt lat="42.342861" lon="-4.638667">
        <ele>862.2939842380583</ele>
        <time>2022-05-18T08:06:17Z</time>
      </trkpt>
      <trkpt lat="42.342867" lon="-4.63879">
        <ele>861.4089512722567</ele>
        <time>2022-05-18T08:06:24Z</time>
      </trkpt>
      <trkpt lat="42.342888" lon="-4.638909">
        <ele>859.4341423483565</ele>
        <time>2022-05-18T08:06:31Z</time>
      </trkpt>
      <trkpt lat="42.342895" lon="-4.639044">
        <ele>857.695225304924</ele>
        <time>2022-05-18T08:06:38Z</time>
      </trkpt>
      <trkpt lat="42.342893" lon="-4.63917">
        <ele>856.8874888103455</ele>
        <time>2022-05-18T08:06:47Z</time>
      </trkpt>
      <trkpt lat="42.342911" lon="-4.639303">
        <ele>859.3728029467165</ele>
        <time>2022-05-18T08:06:54Z</time>
      </trkpt>
      <trkpt lat="42.342924" lon="-4.639426">
        <ele>859.071063616313</ele>
        <time>2022-05-18T08:07:01Z</time>
      </trkpt>
      <trkpt lat="42.34294" lon="-4.639564">
        <ele>860.7503992756829</ele>
        <time>2022-05-18T08:07:10Z</time>
      </trkpt>
      <trkpt lat="42.342959" lon="-4.639691">
        <ele>860.1700990926474</ele>
        <time>2022-05-18T08:07:17Z</time>
      </trkpt>
      <trkpt lat="42.342964" lon="-4.639829">
        <ele>858.5145029257983</ele>
        <time>2022-05-18T08:07:25Z</time>
      </trkpt>
      <trkpt lat="42.342984" lon="-4.63995">
        <ele>854.3806914072484</ele>
        <time>2022-05-18T08:07:32Z</time>
      </trkpt>
      <trkpt lat="42.342998" lon="-4.640076">
        <ele>857.0462475614622</ele>
        <time>2022-05-18T08:07:40Z</time>
      </trkpt>
      <trkpt lat="42.343002" lon="-4.640215">
        <ele>857.5420591561124</ele>
        <time>2022-05-18T08:07:48Z</time>
      </trkpt>
      <trkpt lat="42.343015" lon="-4.640335">
        <ele>854.9083856716752</ele>
        <time>2022-05-18T08:07:54Z</time>
      </trkpt>
      <trkpt lat="42.343015" lon="-4.640459">
        <ele>849.541692936793</ele>
        <time>2022-05-18T08:08:03Z</time>
      </trkpt>
      <trkpt lat="42.34301" lon="-4.64059">
        <ele>853.1698112105951</ele>
        <time>2022-05-18T08:08:12Z</time>
      </trkpt>
      <trkpt lat="42.343019" lon="-4.640716">
        <ele>850.6170452348888</ele>
        <time>2022-05-18T08:08:20Z</time>
      </trkpt>
      <trkpt lat="42.343034" lon="-4.640844">
        <ele>847.2750999266282</ele>
        <time>2022-05-18T08:08:27Z</time>
      </trkpt>
      <trkpt lat="42.343045" lon="-4.640975">
        <ele>848.3386153774336</ele>
        <time>2022-05-18T08:08:36Z</time>
      </trkpt>
      <trkpt lat="42.343054" lon="-4.641112">
        <ele>848.7397528281435</ele>
        <time>2022-05-18T08:08:43Z</time>
      </trkpt>
      <trkpt lat="42.343072" lon="-4.641247">
        <ele>845.0948562948033</ele>
        <time>2022-05-18T08:08:50Z</time>
      </trkpt>
      <trkpt lat="42.343092" lon="-4.641367">
        <ele>842.0286836829036</ele>
        <time>2022-05-18T08:08:58Z</time>
      </trkpt>
      <trkpt lat="42.343087" lon="-4.641494">
        <ele>842.9946748893708</ele>
        <time>2022-05-18T08:09:06Z</time>
      </trkpt>
      <trkpt lat="42.343091" lon="-4.641633">
        <ele>844.7645422685891</ele>
        <time>2022-05-18T08:09:13Z</time>
      </trkpt>
      <trkpt lat="42.343104" lon="-4.641754">
        <ele>843.6572951041162</ele>
        <time>2022-05-18T08:09:20Z</time>
      </trkpt>
      <trkpt lat="42.343103" lon="-4.641881">
        <ele>848.2386646512896</ele>
        <time>2022-05-18T08:09:28Z</time>
      </trkpt>
      <trkpt lat="42.343106" lon="-4.642015">
        <ele>851.4365910338238</ele>
        <time>2022-05-18T08:09:35Z</time>
      </trkpt>
      <trkpt lat="42.343104" lon="-4.642143">
        <ele>851.3176441378891</ele>
        <time>2022-05-18T08:09:43Z</time>
      </trkpt>
      <trkpt lat="42.343127" lon="-4.642275">
        <ele>852.5360399493948</ele>
        <time>2022-05-18T08:09:52Z</time>
      </trkpt>
      <trkpt lat="42.343145" lon="-4.642398">
        <ele>854.1383587801829</ele>
        <time>2022-05-18T08:10:00Z</time>
      </trkpt>
      <trkpt lat="42.343165" lon="-4.642519">
        <ele>855.7339187068865</ele>
        <time>2022-05-18T08:10:07Z</time>
      </trkpt>
      <trkpt lat="42.343176" lon="-4.642648">
        <ele>855.1035257093608</ele>
        <time>2022-05-18T08:10:15Z</time>
      </trkpt>
      <trkpt lat="42.343193" lon="-4.642777">
        <ele>853.4136400818825</ele>
        <time>2022-05-18T08:10:23Z</time>
      </trkpt>
      <trkpt lat="42.343189" lon="-4.6429">
        <ele>855.2950299484655</ele>
        <time>2022-05-18T08:10:31Z</time>
      </trkpt>
      <trkpt lat="42.343198" lon="-4.643024">
        <ele>852.6907556448132</ele>
        <time>2022-05-18T08:10:40Z</time>
      </trkpt>
      <trkpt lat="42.343186" lon="-4.643146">
        <ele>851.8076735977083</ele>
        <time>2022-05-18T08:10:49Z</time>
      </trkpt>
      <trkpt lat="42.343207" lon="-4.64327">
        <ele>851.0659507792443</ele>
        <time>2022-05-18T08:10:56Z</time>
      </trkpt>
      <trkpt lat="42.34322" lon="-4.64341">
        <ele>847.3712835991755</ele>
        <time>2022-05-18T08:11:03Z</time>
      </trkpt>
      <trkpt lat="42.343232" lon="-4.64354">
        <ele>848.7388246590272</ele>
        <time>2022-05-18T08:11:11Z</time>
      </trkpt>
      <trkpt lat="42.343241" lon="-4.64368">
        <ele>851.5564276939258</ele>
        <time>2022-05-18T08:11:19Z</time>
      </trkpt>
      <trkpt lat="42.343249" lon="-4.643807">
        <ele>853.3555369582027</ele>
        <time>2022-05-18T08:11:26Z</time>
      </trkpt>
      <trkpt lat="42.343262" lon="-4.643932">
        <ele>855.7073219167069</ele>
        <time>2022-05-18T08:11:33Z</time>
      </trkpt>
      <trkpt lat="42.343288" lon="-4.644068">
        <ele>852.2837491082028</ele>
        <time>2022-05-18T08:11:40Z</time>
      </trkpt>
      <trkpt lat="42.343278" lon="-4.644201">
        <ele>848.5292253410444</ele>
        <time>2022-05-18T08:11:48Z</time>
      </trkpt>
      <trkpt lat="42.343284" lon="-4.644328">
        <ele>850.9027848038822</ele>
        <time>2022-05-18T08:11:56Z</time>
      </trkpt>
      <trkpt lat="42.343283" lon="-4.64446">
        <ele>851.1062510227785</ele>
        <time>2022-05-18T08:12:03Z</time>
      </trkpt>
      <trkpt lat="42.34329" lon="-4.644587">
        <ele>849.3202527360991</ele>
        <time>2022-05-18T08:12:11Z</time>
      </trkpt>
      <trkpt lat="42.343302" lon="-4.644714">
        <ele>844.6879420764744</ele>
        <time>2022-05-18T08:12:18Z</time>
      </trkpt>
      <trkpt lat="42.34331" lon="-4.644845">
        <ele>842.2396315988153</ele>
        <time>2022-05-18T08:12:27Z</time>
      </trkpt>
      <trkpt lat="42.343326" lon="-4.644977">
        <ele>844.610249793157</ele>
        <time>2022-05-18T08:12:34Z</time>
      </trkpt>
      <trkpt lat="42.343331" lon="-4.645111">
        <ele>844.2398496596143</ele>
        <time>2022-05-18T08:12:42Z</time>
      </trkpt>
      <trkpt lat="42.343351" lon="-4.645238">
        <ele>844.9180606305599</ele>
        <time>2022-05-18T08:12:49Z</time>
      </trkpt>
      <trkpt lat="42.343363" lon="-4.645365">
        <ele>844.9316700911149</ele>
        <time>2022-05-18T08:12:54Z</time>
      </trkpt>
      <trkpt lat="42.343385" lon="-4.645492">
        <ele>845.2677521090955</ele>
        <time>2022-05-18T08:13:02Z</time>
      </trkpt>
      <trkpt lat="42.34338" lon="-4.645629">
        <ele>852.2006881572306</ele>
        <time>2022-05-18T08:13:11Z</time>
      </trkpt>
      <trkpt lat="42.343397" lon="-4.645757">
        <ele>849.1312917694449</ele>
        <time>2022-05-18T08:13:19Z</time>
      </trkpt>
      <trkpt lat="42.343407" lon="-4.645881">
        <ele>849.9796819528565</ele>
        <time>2022-05-18T08:13:27Z</time>
      </trkpt>
      <trkpt lat="42.343414" lon="-4.646012">
        <ele>852.5323710944504</ele>
        <time>2022-05-18T08:13:34Z</time>
      </trkpt>
      <trkpt lat="42.34343" lon="-4.646141">
        <ele>853.5034511899576</ele>
        <time>2022-05-18T08:13:43Z</time>
      </trkpt>
      <trkpt lat="42.34343" lon="-4.646275">
        <ele>853.7271761773154</ele>
        <time>2022-05-18T08:13:51Z</time>
      </trkpt>
      <trkpt lat="42.343437" lon="-4.646405">
        <ele>854.718944080174</ele>
        <time>2022-05-18T08:13:59Z</time>
      </trkpt>
      <trkpt lat="42.343443" lon="-4.646532">
        <ele>856.8522508209571</ele>
        <time>2022-05-18T08:14:07Z</time>
      </trkpt>
      <trkpt lat="42.343463" lon="-4.646655">
        <ele>858.7080029370263</ele>
        <time>2022-05-18T08:14:14Z</time>
      </trkpt>
      <trkpt lat="42.34347" lon="-4.646778">
        <ele>855.4875752702355</ele>
        <time>2022-05-18T08:14:21Z</time>
      </trkpt>
      <trkpt lat="42.343466" lon="-4.646905">
        <ele>853.6004752488807</ele>
        <time>2022-05-18T08:14:29Z</time>
      </trkpt>
      <trkpt lat="42.343477" lon="-4.647028">
        <ele>851.4748062696308</ele>
        <time>2022-05-18T08:14:34Z</time>
      </trkpt>
      <trkpt lat="42.343487" lon="-4.647157">
        <ele>848.6848681047559</ele>
        <time>2022-05-18T08:14:42Z</time>
      </trkpt>
      <trkpt lat="42.343501" lon="-4.647294">
        <ele>850.6509719574824</ele>
        <time>2022-05-18T08:14:50Z</time>
      </trkpt>
      <trkpt lat="42.343513" lon="-4.647427">
        <ele>854.2383835176006</ele>
        <time>2022-05-18T08:14:58Z</time>
      </trkpt>
      <trkpt lat="42.343512" lon="-4.64756">
        <ele>857.4756082687527</ele>
        <time>2022-05-18T08:15:06Z</time>
      </trkpt>
      <trkpt lat="42.343525" lon="-4.647686">
        <ele>857.4923464655876</ele>
        <time>2022-05-18T08:15:13Z</time>
      </trkpt>
      <trkpt lat="42.343539" lon="-4.647814">
        <ele>859.290044343099</ele>
        <time>2022-05-18T08:15:20Z</time>
      </trkpt>
      <trkpt lat="42.34354" lon="-4.647937">
        <ele>857.238152185455</ele>
        <time>2022-05-18T08:15:28Z</time>
      </trkpt>
      <trkpt lat="42.343539" lon="-4.648061">
        <ele>860.0984037220478</ele>
        <time>2022-05-18T08:15:36Z</time>
      </trkpt>
      <trkpt lat="42.343547" lon="-4.648186">
        <ele>858.4347736025229</ele>
        <time>2022-05-18T08:15:43Z</time>
      </trkpt>
      <trkpt lat="42.343559" lon="-4.648306">
        <ele>855.8750805463642</ele>
        <time>2022-05-18T08:15:49Z</time>
      </trkpt>
      <trkpt lat="42.343574" lon="-4.648437">
        <ele>856.0210012160242</ele>
        <time>2022-05-18T08:15:56Z</time>
      </trkpt>
      <trkpt lat="42.343596" lon="-4.648555">
        <ele>852.9447357608005</ele>
        <time>2022-05-18T08:16:02Z</time>
      </trkpt>
      <trkpt lat="42.343613" lon="-4.648675">
        <ele>851.7210850166157</ele>
        <time>2022-05-18T08:16:09Z</time>
      </trkpt>
      <trkpt lat="42.343614" lon="-4.6488">
        <ele>849.5868720570579</ele>
        <time>2022-05-18T08:16:17Z</time>
      </trkpt>
      <trkpt lat="42.343628" lon="-4.648932">
        <ele>851.6364336572587</ele>
        <time>2022-05-18T08:16:24Z</time>
      </trkpt>
      <trkpt lat="42.343633" lon="-4.649067">
        <ele>852.9830636177212</ele>
        <time>2022-05-18T08:16:31Z</time>
      </trkpt>
      <trkpt lat="42.343623" lon="-4.649193">
        <ele>849.0355164892972</ele>
        <time>2022-05-18T08:16:38Z</time>
      </trkpt>
      <trkpt lat="42.343625" lon="-4.649318">
        <ele>843.6942573413253</ele>
        <time>2022-05-18T08:16:46Z</time>
      </trkpt>
      <trkpt lat="42.343624" lon="-4.64945">
        <ele>842.1631545815617</ele>
        <time>2022-05-18T08:16:54Z</time>
      </trkpt>
      <trkpt lat="42.343642" lon="-4.649584">
        <ele>839.1288142167032</ele>
        <time>2022-05-18T08:17:01Z</time>
      </trkpt>
      <trkpt lat="42.343658" lon="-4.649711">
        <ele>840.2819257974625</ele>
        <time>2022-05-18T08:17:08Z</time>
      </trkpt>
      <trkpt lat="42.343666" lon="-4.649841">
        <ele>839.6430343855172</ele>
        <time>2022-05-18T08:17:16Z</time>
      </trkpt>
      <trkpt lat="42.343684" lon="-4.649972">
        <ele>844.1390754487365</ele>
        <time>2022-05-18T08:17:24Z</time>
      </trkpt>
      <trkpt lat="42.343676" lon="-4.650098">
        <ele>845.8110624235123</ele>
        <time>2022-05-18T08:17:31Z</time>
      </trkpt>
      <trkpt lat="42.343698" lon="-4.650223">
        <ele>847.314581990242</ele>
        <time>2022-05-18T08:17:38Z</time>
      </trkpt>
      <trkpt lat="42.34372" lon="-4.650354">
        <ele>846.9671669546515</ele>
        <time>2022-05-18T08:17:45Z</time>
      </trkpt>
      <trkpt lat="42.343734" lon="-4.650486">
        <ele>851.1475671129301</ele>
        <time>2022-05-18T08:17:53Z</time>
      </trkpt>
      <trkpt lat="42.343747" lon="-4.650616">
        <ele>852.2049599140882</ele>
        <time>2022-05-18T08:18:01Z</time>
      </trkpt>
      <trkpt lat="42.343773" lon="-4.650734">
        <ele>853.6578496349975</ele>
        <time>2022-05-18T08:18:08Z</time>
      </trkpt>
      <trkpt lat="42.343784" lon="-4.650866">
        <ele>856.3521124441177</ele>
        <time>2022-05-18T08:18:15Z</time>
      </trkpt>
      <trkpt lat="42.343801" lon="-4.650994">
        <ele>857.6783149950206</ele>
        <time>2022-05-18T08:18:21Z</time>
      </trkpt>
      <trkpt lat="42.343812" lon="-4.65112">
        <ele>856.8213943382725</ele>
        <time>2022-05-18T08:18:28Z</time>
      </trkpt>
      <trkpt lat="42.343813" lon="-4.651253">
        <ele>855.2046696841717</ele>
        <time>2022-05-18T08:18:36Z</time>
      </trkpt>
      <trkpt lat="42.343818" lon="-4.651387">
        <ele>858.7896155593917</ele>
        <time>2022-05-18T08:18:43Z</time>
      </trkpt>
      <trkpt lat="42.343816" lon="-4.651511">
        <ele>858.4304631613195</ele>
        <time>2022-05-18T08:18:51Z</time>
      </trkpt>
      <trkpt lat="42.343797" lon="-4.65163">
        <ele>857.9825327852741</ele>
        <time>2022-05-18T08:18:58Z</time>
      </trkpt>
      <trkpt lat="42.3438" lon="-4.651767">
        <ele>855.3576847268268</ele>
        <time>2022-05-18T08:19:07Z</time>
      </trkpt>
      <trkpt lat="42.343838" lon="-4.651884">
        <ele>854.7995900828391</ele>
        <time>2022-05-18T08:19:14Z</time>
      </trkpt>
      <trkpt lat="42.343867" lon="-4.652003">
        <ele>855.9927565809339</ele>
        <time>2022-05-18T08:19:21Z</time>
      </trkpt>
      <trkpt lat="42.343887" lon="-4.652138">
        <ele>853.5392654007301</ele>
        <time>2022-05-18T08:19:29Z</time>
      </trkpt>
      <trkpt lat="42.343876" lon="-4.652266">
        <ele>850.001343594864</ele>
        <time>2022-05-18T08:19:37Z</time>
      </trkpt>
      <trkpt lat="42.343871" lon="-4.652391">
        <ele>848.2242051837966</ele>
        <time>2022-05-18T08:19:44Z</time>
      </trkpt>
      <trkpt lat="42.343877" lon="-4.652526">
        <ele>848.7010575076565</ele>
        <time>2022-05-18T08:19:53Z</time>
      </trkpt>
      <trkpt lat="42.343902" lon="-4.652651">
        <ele>852.0510186199099</ele>
        <time>2022-05-18T08:20:00Z</time>
      </trkpt>
      <trkpt lat="42.343939" lon="-4.652775">
        <ele>853.5400359816849</ele>
        <time>2022-05-18T08:20:07Z</time>
      </trkpt>
      <trkpt lat="42.343961" lon="-4.652908">
        <ele>853.4595794985071</ele>
        <time>2022-05-18T08:20:14Z</time>
      </trkpt>
      <trkpt lat="42.343987" lon="-4.653038">
        <ele>856.0467850407586</ele>
        <time>2022-05-18T08:20:20Z</time>
      </trkpt>
      <trkpt lat="42.34402" lon="-4.653165">
        <ele>853.0541462935507</ele>
        <time>2022-05-18T08:20:27Z</time>
      </trkpt>
      <trkpt lat="42.344049" lon="-4.653283">
        <ele>851.8984374981374</ele>
        <time>2022-05-18T08:20:34Z</time>
      </trkpt>
      <trkpt lat="42.344083" lon="-4.653414">
        <ele>852.6823676954955</ele>
        <time>2022-05-18T08:20:42Z</time>
      </trkpt>
      <trkpt lat="42.344116" lon="-4.653535">
        <ele>854.3800274869427</ele>
        <time>2022-05-18T08:20:49Z</time>
      </trkpt>
      <trkpt lat="42.344146" lon="-4.653655">
        <ele>852.5362805696204</ele>
        <time>2022-05-18T08:20:57Z</time>
      </trkpt>
      <trkpt lat="42.344176" lon="-4.653778">
        <ele>849.8629640350118</ele>
        <time>2022-05-18T08:21:05Z</time>
      </trkpt>
      <trkpt lat="42.344209" lon="-4.653896">
        <ele>850.1559987533838</ele>
        <time>2022-05-18T08:21:12Z</time>
      </trkpt>
      <trkpt lat="42.344257" lon="-4.654024">
        <ele>852.7771899439394</ele>
        <time>2022-05-18T08:21:19Z</time>
      </trkpt>
      <trkpt lat="42.344285" lon="-4.654156">
        <ele>851.7323064655066</ele>
        <time>2022-05-18T08:21:27Z</time>
      </trkpt>
      <trkpt lat="42.344312" lon="-4.654273">
        <ele>852.9293596437201</ele>
        <time>2022-05-18T08:21:34Z</time>
      </trkpt>
      <trkpt lat="42.344348" lon="-4.654389">
        <ele>855.5677224481478</ele>
        <time>2022-05-18T08:21:41Z</time>
      </trkpt>
      <trkpt lat="42.344379" lon="-4.654509">
        <ele>854.0691554611549</ele>
        <time>2022-05-18T08:21:49Z</time>
      </trkpt>
      <trkpt lat="42.344417" lon="-4.654626">
        <ele>855.765210150741</ele>
        <time>2022-05-18T08:21:56Z</time>
      </trkpt>
      <trkpt lat="42.344446" lon="-4.654745">
        <ele>856.7147483406588</ele>
        <time>2022-05-18T08:22:03Z</time>
      </trkpt>
      <trkpt lat="42.344482" lon="-4.654874">
        <ele>855.5149258701131</ele>
        <time>2022-05-18T08:22:13Z</time>
      </trkpt>
      <trkpt lat="42.34453" lon="-4.654992">
        <ele>856.9805218977854</ele>
        <time>2022-05-18T08:22:20Z</time>
      </trkpt>
      <trkpt lat="42.344564" lon="-4.655123">
        <ele>854.385470350273</ele>
        <time>2022-05-18T08:22:27Z</time>
      </trkpt>
      <trkpt lat="42.34458" lon="-4.655251">
        <ele>852.1916825324297</ele>
        <time>2022-05-18T08:22:34Z</time>
      </trkpt>
      <trkpt lat="42.344608" lon="-4.655369">
        <ele>852.7169142188504</ele>
        <time>2022-05-18T08:22:41Z</time>
      </trkpt>
      <trkpt lat="42.344652" lon="-4.655492">
        <ele>856.6764711849391</ele>
        <time>2022-05-18T08:22:49Z</time>
      </trkpt>
      <trkpt lat="42.344675" lon="-4.655623">
        <ele>856.17785747163</ele>
        <time>2022-05-18T08:22:56Z</time>
      </trkpt>
      <trkpt lat="42.344706" lon="-4.655746">
        <ele>854.2459607049823</ele>
        <time>2022-05-18T08:23:03Z</time>
      </trkpt>
      <trkpt lat="42.344728" lon="-4.65587">
        <ele>849.9111870946363</ele>
        <time>2022-05-18T08:23:10Z</time>
      </trkpt>
      <trkpt lat="42.344772" lon="-4.655994">
        <ele>849.1743087964132</ele>
        <time>2022-05-18T08:23:19Z</time>
      </trkpt>
      <trkpt lat="42.344798" lon="-4.656113">
        <ele>845.9802294122055</ele>
        <time>2022-05-18T08:23:26Z</time>
      </trkpt>
      <trkpt lat="42.344826" lon="-4.656232">
        <ele>843.2377359969541</ele>
        <time>2022-05-18T08:23:33Z</time>
      </trkpt>
      <trkpt lat="42.344853" lon="-4.656357">
        <ele>843.2431495264173</ele>
        <time>2022-05-18T08:23:40Z</time>
      </trkpt>
      <trkpt lat="42.34489" lon="-4.656484">
        <ele>843.1814511716366</ele>
        <time>2022-05-18T08:23:47Z</time>
      </trkpt>
      <trkpt lat="42.34492" lon="-4.656602">
        <ele>843.8752164496109</ele>
        <time>2022-05-18T08:23:54Z</time>
      </trkpt>
      <trkpt lat="42.344947" lon="-4.656725">
        <ele>841.9817199427634</ele>
        <time>2022-05-18T08:24:00Z</time>
      </trkpt>
      <trkpt lat="42.344986" lon="-4.656854">
        <ele>839.5396336764097</ele>
        <time>2022-05-18T08:24:08Z</time>
      </trkpt>
      <trkpt lat="42.345006" lon="-4.656976">
        <ele>838.3271448556334</ele>
        <time>2022-05-18T08:24:15Z</time>
      </trkpt>
      <trkpt lat="42.345036" lon="-4.657103">
        <ele>837.8288990501314</ele>
        <time>2022-05-18T08:24:24Z</time>
      </trkpt>
      <trkpt lat="42.34506" lon="-4.657224">
        <ele>839.0226899925619</ele>
        <time>2022-05-18T08:24:32Z</time>
      </trkpt>
      <trkpt lat="42.345071" lon="-4.657346">
        <ele>841.2310170661658</ele>
        <time>2022-05-18T08:24:41Z</time>
      </trkpt>
      <trkpt lat="42.345051" lon="-4.657473">
        <ele>838.552827142179</ele>
        <time>2022-05-18T08:24:49Z</time>
      </trkpt>
      <trkpt lat="42.345035" lon="-4.657607">
        <ele>837.9371695369482</ele>
        <time>2022-05-18T08:24:57Z</time>
      </trkpt>
      <trkpt lat="42.345047" lon="-4.657744">
        <ele>840.544509191066</ele>
        <time>2022-05-18T08:25:04Z</time>
      </trkpt>
      <trkpt lat="42.345052" lon="-4.65788">
        <ele>840.486718563363</ele>
        <time>2022-05-18T08:25:11Z</time>
      </trkpt>
      <trkpt lat="42.345042" lon="-4.658009">
        <ele>845.1399266179651</ele>
        <time>2022-05-18T08:25:19Z</time>
      </trkpt>
      <trkpt lat="42.345036" lon="-4.658131">
        <ele>850.2614878723398</ele>
        <time>2022-05-18T08:25:26Z</time>
      </trkpt>
      <trkpt lat="42.345017" lon="-4.658253">
        <ele>850.9491272596642</ele>
        <time>2022-05-18T08:25:33Z</time>
      </trkpt>
      <trkpt lat="42.344964" lon="-4.658364">
        <ele>853.77728107851</ele>
        <time>2022-05-18T08:25:41Z</time>
      </trkpt>
      <trkpt lat="42.344926" lon="-4.658492">
        <ele>856.5144134201109</ele>
        <time>2022-05-18T08:25:49Z</time>
      </trkpt>
      <trkpt lat="42.344885" lon="-4.658604">
        <ele>857.7528666052967</ele>
        <time>2022-05-18T08:25:56Z</time>
      </trkpt>
      <trkpt lat="42.344846" lon="-4.658733">
        <ele>856.1516253668815</ele>
        <time>2022-05-18T08:26:03Z</time>
      </trkpt>
      <trkpt lat="42.344801" lon="-4.658844">
        <ele>858.2296534162015</ele>
        <time>2022-05-18T08:26:11Z</time>
      </trkpt>
      <trkpt lat="42.344817" lon="-4.658977">
        <ele>857.3065591137856</ele>
        <time>2022-05-18T08:26:19Z</time>
      </trkpt>
      <trkpt lat="42.344805" lon="-4.659104">
        <ele>859.8695751633495</ele>
        <time>2022-05-18T08:26:27Z</time>
      </trkpt>
      <trkpt lat="42.344771" lon="-4.659222">
        <ele>855.9222059147432</ele>
        <time>2022-05-18T08:27:02Z</time>
      </trkpt>
      <trkpt lat="42.344708" lon="-4.659323">
        <ele>855.1940003512427</ele>
        <time>2022-05-18T08:27:10Z</time>
      </trkpt>
      <trkpt lat="42.344633" lon="-4.659402">
        <ele>856.3511575637385</ele>
        <time>2022-05-18T08:27:18Z</time>
      </trkpt>
      <trkpt lat="42.344561" lon="-4.659492">
        <ele>854.418534219265</ele>
        <time>2022-05-18T08:27:24Z</time>
      </trkpt>
      <trkpt lat="42.344484" lon="-4.659581">
        <ele>852.909206145443</ele>
        <time>2022-05-18T08:27:31Z</time>
      </trkpt>
      <trkpt lat="42.344453" lon="-4.659704">
        <ele>854.0154601074755</ele>
        <time>2022-05-18T08:27:39Z</time>
      </trkpt>
      <trkpt lat="42.344414" lon="-4.659826">
        <ele>852.1717580370605</ele>
        <time>2022-05-18T08:27:48Z</time>
      </trkpt>
      <trkpt lat="42.344378" lon="-4.659948">
        <ele>851.901850358583</ele>
        <time>2022-05-18T08:27:55Z</time>
      </trkpt>
      <trkpt lat="42.344359" lon="-4.660072">
        <ele>853.0031715650111</ele>
        <time>2022-05-18T08:28:02Z</time>
      </trkpt>
      <trkpt lat="42.34435" lon="-4.660196">
        <ele>848.8607066404074</ele>
        <time>2022-05-18T08:28:10Z</time>
      </trkpt>
      <trkpt lat="42.344353" lon="-4.660332">
        <ele>851.5390437804163</ele>
        <time>2022-05-18T08:28:19Z</time>
      </trkpt>
      <trkpt lat="42.344334" lon="-4.66047">
        <ele>856.2382550826296</ele>
        <time>2022-05-18T08:28:29Z</time>
      </trkpt>
      <trkpt lat="42.344332" lon="-4.660597">
        <ele>856.3167510386556</ele>
        <time>2022-05-18T08:28:38Z</time>
      </trkpt>
      <trkpt lat="42.344331" lon="-4.660728">
        <ele>857.7888888614252</ele>
        <time>2022-05-18T08:28:47Z</time>
      </trkpt>
      <trkpt lat="42.344314" lon="-4.660863">
        <ele>853.8773360708728</ele>
        <time>2022-05-18T08:28:54Z</time>
      </trkpt>
      <trkpt lat="42.344313" lon="-4.660994">
        <ele>854.2896252116188</ele>
        <time>2022-05-18T08:29:02Z</time>
      </trkpt>
      <trkpt lat="42.344293" lon="-4.661116">
        <ele>851.4415579102933</ele>
        <time>2022-05-18T08:29:10Z</time>
      </trkpt>
      <trkpt lat="42.344284" lon="-4.661238">
        <ele>851.1828833995387</ele>
        <time>2022-05-18T08:29:17Z</time>
      </trkpt>
      <trkpt lat="42.344281" lon="-4.661372">
        <ele>853.9325403627008</ele>
        <time>2022-05-18T08:29:24Z</time>
      </trkpt>
      <trkpt lat="42.344262" lon="-4.661502">
        <ele>851.3585507562384</ele>
        <time>2022-05-18T08:29:31Z</time>
      </trkpt>
      <trkpt lat="42.344244" lon="-4.661638">
        <ele>851.8842416359112</ele>
        <time>2022-05-18T08:29:40Z</time>
      </trkpt>
      <trkpt lat="42.344242" lon="-4.661766">
        <ele>853.2915740292519</ele>
        <time>2022-05-18T08:29:47Z</time>
      </trkpt>
      <trkpt lat="42.344234" lon="-4.661897">
        <ele>852.2090364368632</ele>
        <time>2022-05-18T08:29:55Z</time>
      </trkpt>
      <trkpt lat="42.344238" lon="-4.662025">
        <ele>860.1101491283625</ele>
        <time>2022-05-18T08:30:04Z</time>
      </trkpt>
      <trkpt lat="42.344231" lon="-4.662153">
        <ele>858.8630583016202</ele>
        <time>2022-05-18T08:30:11Z</time>
      </trkpt>
      <trkpt lat="42.344219" lon="-4.66228">
        <ele>859.2964629894122</ele>
        <time>2022-05-18T08:30:18Z</time>
      </trkpt>
      <trkpt lat="42.344205" lon="-4.662417">
        <ele>856.9980907589197</ele>
        <time>2022-05-18T08:30:25Z</time>
      </trkpt>
      <trkpt lat="42.3442" lon="-4.66255">
        <ele>854.0593889812008</ele>
        <time>2022-05-18T08:30:32Z</time>
      </trkpt>
      <trkpt lat="42.344193" lon="-4.662677">
        <ele>855.5567214880139</ele>
        <time>2022-05-18T08:30:41Z</time>
      </trkpt>
      <trkpt lat="42.344182" lon="-4.6628">
        <ele>856.6004857132211</ele>
        <time>2022-05-18T08:30:48Z</time>
      </trkpt>
      <trkpt lat="42.344177" lon="-4.66293">
        <ele>858.6069493182003</ele>
        <time>2022-05-18T08:30:55Z</time>
      </trkpt>
      <trkpt lat="42.344184" lon="-4.663066">
        <ele>856.7096988204867</ele>
        <time>2022-05-18T08:31:02Z</time>
      </trkpt>
      <trkpt lat="42.344189" lon="-4.663189">
        <ele>854.862936379388</ele>
        <time>2022-05-18T08:31:09Z</time>
      </trkpt>
      <trkpt lat="42.344194" lon="-4.663317">
        <ele>858.0218667816371</ele>
        <time>2022-05-18T08:31:17Z</time>
      </trkpt>
      <trkpt lat="42.344188" lon="-4.663449">
        <ele>857.2022973261774</ele>
        <time>2022-05-18T08:31:24Z</time>
      </trkpt>
      <trkpt lat="42.344187" lon="-4.663573">
        <ele>858.2977573852986</ele>
        <time>2022-05-18T08:31:31Z</time>
      </trkpt>
      <trkpt lat="42.344169" lon="-4.6637">
        <ele>864.998274593614</ele>
        <time>2022-05-18T08:31:40Z</time>
      </trkpt>
      <trkpt lat="42.344139" lon="-4.663815">
        <ele>872.1801035506651</ele>
        <time>2022-05-18T08:31:47Z</time>
      </trkpt>
      <trkpt lat="42.344132" lon="-4.663953">
        <ele>871.2808156711981</ele>
        <time>2022-05-18T08:31:54Z</time>
      </trkpt>
      <trkpt lat="42.344126" lon="-4.664074">
        <ele>872.8819964192808</ele>
        <time>2022-05-18T08:32:01Z</time>
      </trkpt>
      <trkpt lat="42.344114" lon="-4.664196">
        <ele>874.1338594201952</ele>
        <time>2022-05-18T08:32:09Z</time>
      </trkpt>
      <trkpt lat="42.344105" lon="-4.664332">
        <ele>872.896303601563</ele>
        <time>2022-05-18T08:32:16Z</time>
      </trkpt>
      <trkpt lat="42.344109" lon="-4.664463">
        <ele>871.0014048591256</ele>
        <time>2022-05-18T08:32:23Z</time>
      </trkpt>
      <trkpt lat="42.344108" lon="-4.664601">
        <ele>873.5567443110049</ele>
        <time>2022-05-18T08:32:32Z</time>
      </trkpt>
      <trkpt lat="42.344092" lon="-4.664742">
        <ele>871.8386530019343</ele>
        <time>2022-05-18T08:32:39Z</time>
      </trkpt>
      <trkpt lat="42.344085" lon="-4.664863">
        <ele>873.2128966916353</ele>
        <time>2022-05-18T08:32:46Z</time>
      </trkpt>
      <trkpt lat="42.344072" lon="-4.664987">
        <ele>867.0501767303795</ele>
        <time>2022-05-18T08:32:53Z</time>
      </trkpt>
      <trkpt lat="42.344073" lon="-4.665117">
        <ele>867.408355823718</ele>
        <time>2022-05-18T08:33:02Z</time>
      </trkpt>
      <trkpt lat="42.344085" lon="-4.665246">
        <ele>863.0300357518718</ele>
        <time>2022-05-18T08:33:09Z</time>
      </trkpt>
      <trkpt lat="42.344101" lon="-4.665378">
        <ele>860.9726264216006</ele>
        <time>2022-05-18T08:33:17Z</time>
      </trkpt>
      <trkpt lat="42.344125" lon="-4.665504">
        <ele>862.274110420607</ele>
        <time>2022-05-18T08:33:24Z</time>
      </trkpt>
      <trkpt lat="42.344134" lon="-4.665634">
        <ele>863.1045219069347</ele>
        <time>2022-05-18T08:33:32Z</time>
      </trkpt>
      <trkpt lat="42.344141" lon="-4.665758">
        <ele>866.0773801319301</ele>
        <time>2022-05-18T08:33:39Z</time>
      </trkpt>
      <trkpt lat="42.344151" lon="-4.665894">
        <ele>865.2682122886181</ele>
        <time>2022-05-18T08:33:47Z</time>
      </trkpt>
      <trkpt lat="42.344164" lon="-4.666029">
        <ele>869.3945612870157</ele>
        <time>2022-05-18T08:33:56Z</time>
      </trkpt>
      <trkpt lat="42.344153" lon="-4.66615">
        <ele>866.8415862796828</ele>
        <time>2022-05-18T08:34:03Z</time>
      </trkpt>
      <trkpt lat="42.344129" lon="-4.666277">
        <ele>866.9298266815022</ele>
        <time>2022-05-18T08:34:18Z</time>
      </trkpt>
      <trkpt lat="42.344115" lon="-4.666412">
        <ele>864.3566675055772</ele>
        <time>2022-05-18T08:34:25Z</time>
      </trkpt>
      <trkpt lat="42.344104" lon="-4.666547">
        <ele>863.3703063381836</ele>
        <time>2022-05-18T08:34:33Z</time>
      </trkpt>
      <trkpt lat="42.344109" lon="-4.666681">
        <ele>860.2306340709329</ele>
        <time>2022-05-18T08:35:06Z</time>
      </trkpt>
      <trkpt lat="42.344111" lon="-4.666806">
        <ele>856.4062289418653</ele>
        <time>2022-05-18T08:35:15Z</time>
      </trkpt>
      <trkpt lat="42.344108" lon="-4.666934">
        <ele>855.1833519833162</ele>
        <time>2022-05-18T08:35:22Z</time>
      </trkpt>
      <trkpt lat="42.344086" lon="-4.667054">
        <ele>858.3748819539323</ele>
        <time>2022-05-18T08:35:29Z</time>
      </trkpt>
      <trkpt lat="42.344076" lon="-4.667187">
        <ele>862.6715605612844</ele>
        <time>2022-05-18T08:35:38Z</time>
      </trkpt>
      <trkpt lat="42.344077" lon="-4.667317">
        <ele>868.4589405590668</ele>
        <time>2022-05-18T08:35:45Z</time>
      </trkpt>
      <trkpt lat="42.344062" lon="-4.667449">
        <ele>871.658975421451</ele>
        <time>2022-05-18T08:35:53Z</time>
      </trkpt>
      <trkpt lat="42.344034" lon="-4.667586">
        <ele>874.086515259929</ele>
        <time>2022-05-18T08:36:01Z</time>
      </trkpt>
      <trkpt lat="42.344023" lon="-4.66771">
        <ele>873.6847046911716</ele>
        <time>2022-05-18T08:36:07Z</time>
      </trkpt>
      <trkpt lat="42.344028" lon="-4.667843">
        <ele>875.6952746929601</ele>
        <time>2022-05-18T08:36:13Z</time>
      </trkpt>
      <trkpt lat="42.344027" lon="-4.667971">
        <ele>874.0361069198698</ele>
        <time>2022-05-18T08:36:22Z</time>
      </trkpt>
      <trkpt lat="42.343975" lon="-4.66809">
        <ele>873.754983862862</ele>
        <time>2022-05-18T08:36:30Z</time>
      </trkpt>
      <trkpt lat="42.34396" lon="-4.668232">
        <ele>871.1634460967034</ele>
        <time>2022-05-18T08:36:36Z</time>
      </trkpt>
      <trkpt lat="42.343959" lon="-4.668363">
        <ele>867.2259938707575</ele>
        <time>2022-05-18T08:36:43Z</time>
      </trkpt>
      <trkpt lat="42.343968" lon="-4.668489">
        <ele>865.4790783869103</ele>
        <time>2022-05-18T08:36:51Z</time>
      </trkpt>
      <trkpt lat="42.343974" lon="-4.668624">
        <ele>865.6205314751714</ele>
        <time>2022-05-18T08:36:59Z</time>
      </trkpt>
      <trkpt lat="42.343964" lon="-4.668751">
        <ele>864.2675509471446</ele>
        <time>2022-05-18T08:37:05Z</time>
      </trkpt>
      <trkpt lat="42.343979" lon="-4.668874">
        <ele>863.4160842373967</ele>
        <time>2022-05-18T08:37:11Z</time>
      </trkpt>
      <trkpt lat="42.343973" lon="-4.668996">
        <ele>861.5054797856137</ele>
        <time>2022-05-18T08:37:19Z</time>
      </trkpt>
      <trkpt lat="42.343951" lon="-4.669117">
        <ele>864.5199064938352</ele>
        <time>2022-05-18T08:37:27Z</time>
      </trkpt>
      <trkpt lat="42.343934" lon="-4.669242">
        <ele>864.4614850403741</ele>
        <time>2022-05-18T08:37:34Z</time>
      </trkpt>
      <trkpt lat="42.343908" lon="-4.669358">
        <ele>866.201705288142</ele>
        <time>2022-05-18T08:37:42Z</time>
      </trkpt>
      <trkpt lat="42.343878" lon="-4.669478">
        <ele>866.7239630501717</ele>
        <time>2022-05-18T08:37:50Z</time>
      </trkpt>
      <trkpt lat="42.34387" lon="-4.669602">
        <ele>862.5316705396399</ele>
        <time>2022-05-18T08:37:57Z</time>
      </trkpt>
      <trkpt lat="42.343873" lon="-4.669732">
        <ele>866.8643857436255</ele>
        <time>2022-05-18T08:38:04Z</time>
      </trkpt>
      <trkpt lat="42.343883" lon="-4.669853">
        <ele>866.0311210369691</ele>
        <time>2022-05-18T08:38:11Z</time>
      </trkpt>
      <trkpt lat="42.343883" lon="-4.669981">
        <ele>871.0782955288887</ele>
        <time>2022-05-18T08:38:19Z</time>
      </trkpt>
      <trkpt lat="42.343861" lon="-4.670102">
        <ele>870.5901651168242</ele>
        <time>2022-05-18T08:38:26Z</time>
      </trkpt>
      <trkpt lat="42.343875" lon="-4.670229">
        <ele>872.7872836990282</ele>
        <time>2022-05-18T08:38:34Z</time>
      </trkpt>
      <trkpt lat="42.343869" lon="-4.670357">
        <ele>874.1454029893503</ele>
        <time>2022-05-18T08:38:41Z</time>
      </trkpt>
      <trkpt lat="42.343864" lon="-4.670494">
        <ele>870.7353545557708</ele>
        <time>2022-05-18T08:38:48Z</time>
      </trkpt>
      <trkpt lat="42.343847" lon="-4.670627">
        <ele>872.2676076497883</ele>
        <time>2022-05-18T08:38:56Z</time>
      </trkpt>
      <trkpt lat="42.343841" lon="-4.670757">
        <ele>872.0395595440641</ele>
        <time>2022-05-18T08:39:03Z</time>
      </trkpt>
      <trkpt lat="42.343853" lon="-4.670893">
        <ele>874.0418493775651</ele>
        <time>2022-05-18T08:39:11Z</time>
      </trkpt>
      <trkpt lat="42.343857" lon="-4.671022">
        <ele>876.2193702412769</ele>
        <time>2022-05-18T08:39:18Z</time>
      </trkpt>
      <trkpt lat="42.34385" lon="-4.671154">
        <ele>877.3566453866661</ele>
        <time>2022-05-18T08:39:25Z</time>
      </trkpt>
      <trkpt lat="42.343835" lon="-4.671279">
        <ele>877.033570936881</ele>
        <time>2022-05-18T08:39:32Z</time>
      </trkpt>
      <trkpt lat="42.343826" lon="-4.671423">
        <ele>873.6869367612526</ele>
        <time>2022-05-18T08:39:39Z</time>
      </trkpt>
      <trkpt lat="42.343802" lon="-4.671557">
        <ele>869.0540690384805</ele>
        <time>2022-05-18T08:39:46Z</time>
      </trkpt>
      <trkpt lat="42.343784" lon="-4.671688">
        <ele>863.9066309565678</ele>
        <time>2022-05-18T08:39:54Z</time>
      </trkpt>
      <trkpt lat="42.343777" lon="-4.67181">
        <ele>860.3293119622394</ele>
        <time>2022-05-18T08:40:00Z</time>
      </trkpt>
      <trkpt lat="42.343777" lon="-4.671946">
        <ele>855.984114702791</ele>
        <time>2022-05-18T08:40:07Z</time>
      </trkpt>
      <trkpt lat="42.343791" lon="-4.672067">
        <ele>854.9639202645048</ele>
        <time>2022-05-18T08:40:15Z</time>
      </trkpt>
      <trkpt lat="42.3438" lon="-4.672207">
        <ele>852.9952573599294</ele>
        <time>2022-05-18T08:40:23Z</time>
      </trkpt>
      <trkpt lat="42.343801" lon="-4.67233">
        <ele>852.1498417966068</ele>
        <time>2022-05-18T08:40:29Z</time>
      </trkpt>
      <trkpt lat="42.343809" lon="-4.672453">
        <ele>850.4088772935793</ele>
        <time>2022-05-18T08:40:37Z</time>
      </trkpt>
      <trkpt lat="42.343809" lon="-4.672595">
        <ele>851.779246323742</ele>
        <time>2022-05-18T08:40:44Z</time>
      </trkpt>
      <trkpt lat="42.343794" lon="-4.672731">
        <ele>848.9206786248833</ele>
        <time>2022-05-18T08:40:51Z</time>
      </trkpt>
      <trkpt lat="42.343777" lon="-4.672859">
        <ele>850.9449316132814</ele>
        <time>2022-05-18T08:40:59Z</time>
      </trkpt>
      <trkpt lat="42.343764" lon="-4.672984">
        <ele>850.778696407564</ele>
        <time>2022-05-18T08:41:08Z</time>
      </trkpt>
      <trkpt lat="42.343735" lon="-4.673114">
        <ele>847.5099050886929</ele>
        <time>2022-05-18T08:41:14Z</time>
      </trkpt>
      <trkpt lat="42.343736" lon="-4.673241">
        <ele>844.9774106601253</ele>
        <time>2022-05-18T08:41:21Z</time>
      </trkpt>
      <trkpt lat="42.343742" lon="-4.673373">
        <ele>841.4902053484693</ele>
        <time>2022-05-18T08:41:28Z</time>
      </trkpt>
      <trkpt lat="42.343746" lon="-4.673499">
        <ele>842.8211187645793</ele>
        <time>2022-05-18T08:41:36Z</time>
      </trkpt>
      <trkpt lat="42.343731" lon="-4.673629">
        <ele>841.6412384500727</ele>
        <time>2022-05-18T08:41:44Z</time>
      </trkpt>
      <trkpt lat="42.343716" lon="-4.673757">
        <ele>841.8959063272923</ele>
        <time>2022-05-18T08:41:51Z</time>
      </trkpt>
      <trkpt lat="42.343707" lon="-4.673891">
        <ele>842.5466935066506</ele>
        <time>2022-05-18T08:42:01Z</time>
      </trkpt>
      <trkpt lat="42.343725" lon="-4.674017">
        <ele>841.244201939553</ele>
        <time>2022-05-18T08:42:12Z</time>
      </trkpt>
      <trkpt lat="42.343715" lon="-4.67414">
        <ele>839.8408654695377</ele>
        <time>2022-05-18T08:42:20Z</time>
      </trkpt>
      <trkpt lat="42.343724" lon="-4.674269">
        <ele>842.9741849182174</ele>
        <time>2022-05-18T08:42:27Z</time>
      </trkpt>
      <trkpt lat="42.343722" lon="-4.674401">
        <ele>844.6922502666712</ele>
        <time>2022-05-18T08:42:35Z</time>
      </trkpt>
      <trkpt lat="42.343688" lon="-4.674531">
        <ele>846.6230059228837</ele>
        <time>2022-05-18T08:42:44Z</time>
      </trkpt>
      <trkpt lat="42.343662" lon="-4.674653">
        <ele>848.7465063380077</ele>
        <time>2022-05-18T08:42:51Z</time>
      </trkpt>
      <trkpt lat="42.343659" lon="-4.674776">
        <ele>851.924332588911</ele>
        <time>2022-05-18T08:42:58Z</time>
      </trkpt>
      <trkpt lat="42.343649" lon="-4.674911">
        <ele>849.4361846251413</ele>
        <time>2022-05-18T08:43:04Z</time>
      </trkpt>
      <trkpt lat="42.343628" lon="-4.675036">
        <ele>849.3792879348621</ele>
        <time>2022-05-18T08:43:11Z</time>
      </trkpt>
      <trkpt lat="42.343616" lon="-4.675171">
        <ele>852.2222726792097</ele>
        <time>2022-05-18T08:43:19Z</time>
      </trkpt>
      <trkpt lat="42.343609" lon="-4.675305">
        <ele>854.4067341312766</ele>
        <time>2022-05-18T08:43:26Z</time>
      </trkpt>
      <trkpt lat="42.34361" lon="-4.675441">
        <ele>856.3435320910066</ele>
        <time>2022-05-18T08:43:33Z</time>
      </trkpt>
      <trkpt lat="42.343602" lon="-4.675564">
        <ele>856.9297063257545</ele>
        <time>2022-05-18T08:43:39Z</time>
      </trkpt>
      <trkpt lat="42.343584" lon="-4.675693">
        <ele>853.8940995987505</ele>
        <time>2022-05-18T08:43:44Z</time>
      </trkpt>
      <trkpt lat="42.343557" lon="-4.675829">
        <ele>851.4469794603065</ele>
        <time>2022-05-18T08:43:52Z</time>
      </trkpt>
      <trkpt lat="42.343557" lon="-4.675955">
        <ele>853.1751108244061</ele>
        <time>2022-05-18T08:44:01Z</time>
      </trkpt>
      <trkpt lat="42.343526" lon="-4.676079">
        <ele>852.7473578192294</ele>
        <time>2022-05-18T08:44:09Z</time>
      </trkpt>
      <trkpt lat="42.343501" lon="-4.676208">
        <ele>851.5480528920889</ele>
        <time>2022-05-18T08:44:16Z</time>
      </trkpt>
      <trkpt lat="42.343505" lon="-4.676336">
        <ele>854.453387892805</ele>
        <time>2022-05-18T08:44:24Z</time>
      </trkpt>
      <trkpt lat="42.343506" lon="-4.676464">
        <ele>856.8427243614569</ele>
        <time>2022-05-18T08:44:31Z</time>
      </trkpt>
      <trkpt lat="42.343475" lon="-4.676601">
        <ele>856.5611326228827</ele>
        <time>2022-05-18T08:44:38Z</time>
      </trkpt>
      <trkpt lat="42.343451" lon="-4.676721">
        <ele>856.9176567271352</ele>
        <time>2022-05-18T08:44:44Z</time>
      </trkpt>
      <trkpt lat="42.343423" lon="-4.676843">
        <ele>855.0441191401333</ele>
        <time>2022-05-18T08:44:51Z</time>
      </trkpt>
      <trkpt lat="42.343399" lon="-4.676974">
        <ele>853.047087341547</ele>
        <time>2022-05-18T08:44:59Z</time>
      </trkpt>
      <trkpt lat="42.343395" lon="-4.677096">
        <ele>854.0565453637391</ele>
        <time>2022-05-18T08:45:07Z</time>
      </trkpt>
      <trkpt lat="42.343366" lon="-4.677223">
        <ele>850.7429297100753</ele>
        <time>2022-05-18T08:45:16Z</time>
      </trkpt>
      <trkpt lat="42.34337" lon="-4.677364">
        <ele>851.6980956764892</ele>
        <time>2022-05-18T08:45:23Z</time>
      </trkpt>
      <trkpt lat="42.343357" lon="-4.677494">
        <ele>850.5719351079315</ele>
        <time>2022-05-18T08:45:31Z</time>
      </trkpt>
      <trkpt lat="42.343338" lon="-4.677614">
        <ele>850.0603695902973</ele>
        <time>2022-05-18T08:45:38Z</time>
      </trkpt>
      <trkpt lat="42.343315" lon="-4.677746">
        <ele>853.4874027706683</ele>
        <time>2022-05-18T08:45:45Z</time>
      </trkpt>
      <trkpt lat="42.343314" lon="-4.677869">
        <ele>855.3638635631651</ele>
        <time>2022-05-18T08:45:53Z</time>
      </trkpt>
      <trkpt lat="42.343317" lon="-4.677994">
        <ele>855.1148768058047</ele>
        <time>2022-05-18T08:46:00Z</time>
      </trkpt>
      <trkpt lat="42.343289" lon="-4.678113">
        <ele>853.4542717402801</ele>
        <time>2022-05-18T08:46:06Z</time>
      </trkpt>
      <trkpt lat="42.343286" lon="-4.678253">
        <ele>853.8701002094895</ele>
        <time>2022-05-18T08:46:13Z</time>
      </trkpt>
      <trkpt lat="42.343285" lon="-4.678383">
        <ele>854.3539564805105</ele>
        <time>2022-05-18T08:46:21Z</time>
      </trkpt>
      <trkpt lat="42.343295" lon="-4.678505">
        <ele>855.6146570201963</ele>
        <time>2022-05-18T08:46:28Z</time>
      </trkpt>
      <trkpt lat="42.343289" lon="-4.678635">
        <ele>856.6739416280761</ele>
        <time>2022-05-18T08:46:35Z</time>
      </trkpt>
      <trkpt lat="42.343283" lon="-4.678763">
        <ele>857.0558575410396</ele>
        <time>2022-05-18T08:46:41Z</time>
      </trkpt>
      <trkpt lat="42.343275" lon="-4.678887">
        <ele>857.4665759503841</ele>
        <time>2022-05-18T08:46:48Z</time>
      </trkpt>
      <trkpt lat="42.343235" lon="-4.678998">
        <ele>858.7472702041268</ele>
        <time>2022-05-18T08:46:55Z</time>
      </trkpt>
      <trkpt lat="42.343207" lon="-4.679124">
        <ele>856.6596122728661</ele>
        <time>2022-05-18T08:47:03Z</time>
      </trkpt>
      <trkpt lat="42.343179" lon="-4.679244">
        <ele>854.236683588475</ele>
        <time>2022-05-18T08:47:10Z</time>
      </trkpt>
      <trkpt lat="42.343163" lon="-4.679369">
        <ele>853.6695575211197</ele>
        <time>2022-05-18T08:47:17Z</time>
      </trkpt>
      <trkpt lat="42.343187" lon="-4.679492">
        <ele>853.839029067196</ele>
        <time>2022-05-18T08:47:24Z</time>
      </trkpt>
      <trkpt lat="42.343153" lon="-4.679612">
        <ele>853.8210677057505</ele>
        <time>2022-05-18T08:47:33Z</time>
      </trkpt>
      <trkpt lat="42.343149" lon="-4.679747">
        <ele>850.8844558801502</ele>
        <time>2022-05-18T08:47:40Z</time>
      </trkpt>
      <trkpt lat="42.343129" lon="-4.679881">
        <ele>850.5172157157212</ele>
        <time>2022-05-18T08:47:46Z</time>
      </trkpt>
      <trkpt lat="42.343121" lon="-4.680012">
        <ele>850.6098637226969</ele>
        <time>2022-05-18T08:47:56Z</time>
      </trkpt>
      <trkpt lat="42.343124" lon="-4.680145">
        <ele>849.2116625355557</ele>
        <time>2022-05-18T08:48:05Z</time>
      </trkpt>
      <trkpt lat="42.343103" lon="-4.680266">
        <ele>847.7477784156799</ele>
        <time>2022-05-18T08:48:12Z</time>
      </trkpt>
      <trkpt lat="42.343089" lon="-4.680386">
        <ele>849.3536322722211</ele>
        <time>2022-05-18T08:48:20Z</time>
      </trkpt>
      <trkpt lat="42.343104" lon="-4.680508">
        <ele>849.0260265916586</ele>
        <time>2022-05-18T08:48:27Z</time>
      </trkpt>
      <trkpt lat="42.343076" lon="-4.680635">
        <ele>847.6180526372045</ele>
        <time>2022-05-18T08:48:34Z</time>
      </trkpt>
      <trkpt lat="42.343074" lon="-4.680757">
        <ele>847.6560017960146</ele>
        <time>2022-05-18T08:48:41Z</time>
      </trkpt>
      <trkpt lat="42.343057" lon="-4.680893">
        <ele>850.4189220229164</ele>
        <time>2022-05-18T08:48:50Z</time>
      </trkpt>
      <trkpt lat="42.343044" lon="-4.681025">
        <ele>849.2378863627091</ele>
        <time>2022-05-18T08:48:56Z</time>
      </trkpt>
      <trkpt lat="42.343017" lon="-4.681151">
        <ele>847.6170452022925</ele>
        <time>2022-05-18T08:49:03Z</time>
      </trkpt>
      <trkpt lat="42.343021" lon="-4.681279">
        <ele>845.8462317548692</ele>
        <time>2022-05-18T08:49:11Z</time>
      </trkpt>
      <trkpt lat="42.343007" lon="-4.681413">
        <ele>845.4728486398235</ele>
        <time>2022-05-18T08:49:19Z</time>
      </trkpt>
      <trkpt lat="42.343006" lon="-4.681548">
        <ele>847.3875930281356</ele>
        <time>2022-05-18T08:49:28Z</time>
      </trkpt>
      <trkpt lat="42.34299" lon="-4.68167">
        <ele>847.0006806226447</ele>
        <time>2022-05-18T08:49:36Z</time>
      </trkpt>
      <trkpt lat="42.342969" lon="-4.681799">
        <ele>844.8801877656952</ele>
        <time>2022-05-18T08:49:43Z</time>
      </trkpt>
      <trkpt lat="42.342976" lon="-4.681932">
        <ele>847.336551615037</ele>
        <time>2022-05-18T08:49:54Z</time>
      </trkpt>
      <trkpt lat="42.342977" lon="-4.68206">
        <ele>849.826884124428</ele>
        <time>2022-05-18T08:50:02Z</time>
      </trkpt>
      <trkpt lat="42.342936" lon="-4.682176">
        <ele>848.8008279781789</ele>
        <time>2022-05-18T08:50:10Z</time>
      </trkpt>
      <trkpt lat="42.342898" lon="-4.682296">
        <ele>847.2059492999688</ele>
        <time>2022-05-18T08:50:17Z</time>
      </trkpt>
      <trkpt lat="42.342863" lon="-4.68242">
        <ele>845.2288129301742</ele>
        <time>2022-05-18T08:50:23Z</time>
      </trkpt>
      <trkpt lat="42.342854" lon="-4.682551">
        <ele>845.4090999187902</ele>
        <time>2022-05-18T08:50:31Z</time>
      </trkpt>
      <trkpt lat="42.342861" lon="-4.682678">
        <ele>845.7498006457463</ele>
        <time>2022-05-18T08:50:39Z</time>
      </trkpt>
      <trkpt lat="42.342897" lon="-4.682801">
        <ele>849.524984350428</ele>
        <time>2022-05-18T08:50:46Z</time>
      </trkpt>
      <trkpt lat="42.342888" lon="-4.682933">
        <ele>850.5687504317611</ele>
        <time>2022-05-18T08:50:53Z</time>
      </trkpt>
      <trkpt lat="42.342873" lon="-4.683069">
        <ele>853.7174530187622</ele>
        <time>2022-05-18T08:51:01Z</time>
      </trkpt>
      <trkpt lat="42.342842" lon="-4.683192">
        <ele>853.4103894392028</ele>
        <time>2022-05-18T08:51:07Z</time>
      </trkpt>
      <trkpt lat="42.342804" lon="-4.683311">
        <ele>853.6693843891844</ele>
        <time>2022-05-18T08:51:15Z</time>
      </trkpt>
      <trkpt lat="42.34278" lon="-4.683444">
        <ele>851.2813489036635</ele>
        <time>2022-05-18T08:51:21Z</time>
      </trkpt>
      <trkpt lat="42.34277" lon="-4.683577">
        <ele>850.7031816700473</ele>
        <time>2022-05-18T08:51:27Z</time>
      </trkpt>
      <trkpt lat="42.342735" lon="-4.683692">
        <ele>853.5727398851886</ele>
        <time>2022-05-18T08:51:34Z</time>
      </trkpt>
      <trkpt lat="42.342723" lon="-4.683826">
        <ele>855.773938161321</ele>
        <time>2022-05-18T08:51:42Z</time>
      </trkpt>
      <trkpt lat="42.342716" lon="-4.683949">
        <ele>858.3176837302744</ele>
        <time>2022-05-18T08:51:49Z</time>
      </trkpt>
      <trkpt lat="42.342695" lon="-4.684075">
        <ele>860.7491519916803</ele>
        <time>2022-05-18T08:51:58Z</time>
      </trkpt>
      <trkpt lat="42.342667" lon="-4.684203">
        <ele>861.2772580739111</ele>
        <time>2022-05-18T08:52:04Z</time>
      </trkpt>
      <trkpt lat="42.342657" lon="-4.684327">
        <ele>861.747021461837</ele>
        <time>2022-05-18T08:52:13Z</time>
      </trkpt>
      <trkpt lat="42.342632" lon="-4.684463">
        <ele>861.2818382252008</ele>
        <time>2022-05-18T08:52:21Z</time>
      </trkpt>
      <trkpt lat="42.342631" lon="-4.684586">
        <ele>862.9748007524759</ele>
        <time>2022-05-18T08:52:28Z</time>
      </trkpt>
      <trkpt lat="42.342602" lon="-4.684711">
        <ele>863.1893495032564</ele>
        <time>2022-05-18T08:52:37Z</time>
      </trkpt>
      <trkpt lat="42.342592" lon="-4.684848">
        <ele>862.3496839823201</ele>
        <time>2022-05-18T08:52:45Z</time>
      </trkpt>
      <trkpt lat="42.342555" lon="-4.684967">
        <ele>859.7078321110457</ele>
        <time>2022-05-18T08:52:51Z</time>
      </trkpt>
      <trkpt lat="42.342544" lon="-4.685101">
        <ele>858.1801090836525</ele>
        <time>2022-05-18T08:52:59Z</time>
      </trkpt>
      <trkpt lat="42.342537" lon="-4.685232">
        <ele>861.0589214684442</ele>
        <time>2022-05-18T08:53:08Z</time>
      </trkpt>
      <trkpt lat="42.342541" lon="-4.685354">
        <ele>861.9578735707328</ele>
        <time>2022-05-18T08:53:15Z</time>
      </trkpt>
      <trkpt lat="42.34253" lon="-4.68548">
        <ele>860.5320432111621</ele>
        <time>2022-05-18T08:53:22Z</time>
      </trkpt>
      <trkpt lat="42.342511" lon="-4.685616">
        <ele>863.5872365664691</ele>
        <time>2022-05-18T08:53:30Z</time>
      </trkpt>
      <trkpt lat="42.342505" lon="-4.685747">
        <ele>862.4737119199708</ele>
        <time>2022-05-18T08:53:37Z</time>
      </trkpt>
      <trkpt lat="42.342513" lon="-4.685874">
        <ele>861.6025665970519</ele>
        <time>2022-05-18T08:53:43Z</time>
      </trkpt>
      <trkpt lat="42.342524" lon="-4.685996">
        <ele>863.2778492374346</ele>
        <time>2022-05-18T08:53:48Z</time>
      </trkpt>
      <trkpt lat="42.342511" lon="-4.686135">
        <ele>863.5531988907605</ele>
        <time>2022-05-18T08:53:56Z</time>
      </trkpt>
      <trkpt lat="42.342486" lon="-4.686275">
        <ele>862.2657312983647</ele>
        <time>2022-05-18T08:54:02Z</time>
      </trkpt>
      <trkpt lat="42.342478" lon="-4.686406">
        <ele>861.7471612980589</ele>
        <time>2022-05-18T08:54:09Z</time>
      </trkpt>
      <trkpt lat="42.342453" lon="-4.686529">
        <ele>861.9715559193864</ele>
        <time>2022-05-18T08:54:17Z</time>
      </trkpt>
      <trkpt lat="42.34246" lon="-4.686661">
        <ele>863.5157163161784</ele>
        <time>2022-05-18T08:54:25Z</time>
      </trkpt>
      <trkpt lat="42.342444" lon="-4.68678">
        <ele>862.1056762244552</ele>
        <time>2022-05-18T08:54:33Z</time>
      </trkpt>
      <trkpt lat="42.342434" lon="-4.686916">
        <ele>861.0730492640287</ele>
        <time>2022-05-18T08:54:41Z</time>
      </trkpt>
      <trkpt lat="42.342424" lon="-4.687044">
        <ele>863.2039374727756</ele>
        <time>2022-05-18T08:54:50Z</time>
      </trkpt>
      <trkpt lat="42.342407" lon="-4.687166">
        <ele>867.9022439820692</ele>
        <time>2022-05-18T08:54:58Z</time>
      </trkpt>
      <trkpt lat="42.342377" lon="-4.687288">
        <ele>868.9210386341438</ele>
        <time>2022-05-18T08:55:09Z</time>
      </trkpt>
      <trkpt lat="42.342357" lon="-4.687415">
        <ele>868.5030511394143</ele>
        <time>2022-05-18T08:55:19Z</time>
      </trkpt>
      <trkpt lat="42.34229" lon="-4.687519">
        <ele>868.0035155275837</ele>
        <time>2022-05-18T08:55:27Z</time>
      </trkpt>
      <trkpt lat="42.342287" lon="-4.687653">
        <ele>870.7851472785696</ele>
        <time>2022-05-18T08:55:37Z</time>
      </trkpt>
      <trkpt lat="42.342295" lon="-4.687792">
        <ele>869.3794021783397</ele>
        <time>2022-05-18T08:55:59Z</time>
      </trkpt>
      <trkpt lat="42.342375" lon="-4.687851">
        <ele>865.2522090552375</ele>
        <time>2022-05-18T08:56:36Z</time>
      </trkpt>
      <trkpt lat="42.342415" lon="-4.687967">
        <ele>854.2950546815991</ele>
        <time>2022-05-18T08:57:52Z</time>
      </trkpt>
      <trkpt lat="42.342498" lon="-4.688025">
        <ele>851.7378187496215</ele>
        <time>2022-05-18T08:57:58Z</time>
      </trkpt>
      <trkpt lat="42.342584" lon="-4.688094">
        <ele>845.9649618249387</ele>
        <time>2022-05-18T08:58:06Z</time>
      </trkpt>
      <trkpt lat="42.342678" lon="-4.688087">
        <ele>843.2057871129364</ele>
        <time>2022-05-18T08:58:14Z</time>
      </trkpt>
      <trkpt lat="42.342587" lon="-4.688066">
        <ele>846.152307305485</ele>
        <time>2022-05-18T08:59:09Z</time>
      </trkpt>
      <trkpt lat="42.342496" lon="-4.688027">
        <ele>845.7465631393716</ele>
        <time>2022-05-18T08:59:18Z</time>
      </trkpt>
      <trkpt lat="42.342409" lon="-4.687971">
        <ele>844.4213894940913</ele>
        <time>2022-05-18T08:59:28Z</time>
      </trkpt>
      <trkpt lat="42.342343" lon="-4.688058">
        <ele>846.0244665239006</ele>
        <time>2022-05-18T09:02:48Z</time>
      </trkpt>
      <trkpt lat="42.34232" lon="-4.688185">
        <ele>846.060956293717</ele>
        <time>2022-05-18T09:02:56Z</time>
      </trkpt>
      <trkpt lat="42.342312" lon="-4.688314">
        <ele>847.19710300304</ele>
        <time>2022-05-18T09:03:05Z</time>
      </trkpt>
      <trkpt lat="42.342301" lon="-4.688447">
        <ele>846.2247838936746</ele>
        <time>2022-05-18T09:03:12Z</time>
      </trkpt>
      <trkpt lat="42.342262" lon="-4.688558">
        <ele>847.5852408111095</ele>
        <time>2022-05-18T09:03:20Z</time>
      </trkpt>
      <trkpt lat="42.342255" lon="-4.688695">
        <ele>850.7508996436372</ele>
        <time>2022-05-18T09:05:23Z</time>
      </trkpt>
      <trkpt lat="42.342241" lon="-4.68882">
        <ele>850.9009838681668</ele>
        <time>2022-05-18T09:05:31Z</time>
      </trkpt>
      <trkpt lat="42.342212" lon="-4.688949">
        <ele>854.377780421637</ele>
        <time>2022-05-18T09:05:38Z</time>
      </trkpt>
      <trkpt lat="42.342181" lon="-4.689078">
        <ele>860.5569813810289</ele>
        <time>2022-05-18T09:05:47Z</time>
      </trkpt>
      <trkpt lat="42.342153" lon="-4.689198">
        <ele>861.488454178907</ele>
        <time>2022-05-18T09:06:00Z</time>
      </trkpt>
      <trkpt lat="42.342147" lon="-4.689323">
        <ele>861.0795178292319</ele>
        <time>2022-05-18T09:06:08Z</time>
      </trkpt>
      <trkpt lat="42.342139" lon="-4.689455">
        <ele>861.1254590097815</ele>
        <time>2022-05-18T09:06:17Z</time>
      </trkpt>
      <trkpt lat="42.342096" lon="-4.68958">
        <ele>860.2842451538891</ele>
        <time>2022-05-18T09:06:23Z</time>
      </trkpt>
      <trkpt lat="42.342061" lon="-4.689693">
        <ele>862.8738608043641</ele>
        <time>2022-05-18T09:06:31Z</time>
      </trkpt>
      <trkpt lat="42.342034" lon="-4.689817">
        <ele>863.2152129299939</ele>
        <time>2022-05-18T09:06:38Z</time>
      </trkpt>
      <trkpt lat="42.342016" lon="-4.689941">
        <ele>866.5390566764399</ele>
        <time>2022-05-18T09:06:46Z</time>
      </trkpt>
      <trkpt lat="42.342008" lon="-4.690063">
        <ele>867.7110542068258</ele>
        <time>2022-05-18T09:06:53Z</time>
      </trkpt>
      <trkpt lat="42.341999" lon="-4.690196">
        <ele>866.6188543764874</ele>
        <time>2022-05-18T09:07:01Z</time>
      </trkpt>
      <trkpt lat="42.342002" lon="-4.69032">
        <ele>868.9944479139522</ele>
        <time>2022-05-18T09:07:11Z</time>
      </trkpt>
      <trkpt lat="42.341996" lon="-4.690451">
        <ele>873.2424764716998</ele>
        <time>2022-05-18T09:07:21Z</time>
      </trkpt>
      <trkpt lat="42.341983" lon="-4.690585">
        <ele>879.1271769357845</ele>
        <time>2022-05-18T09:07:29Z</time>
      </trkpt>
      <trkpt lat="42.341978" lon="-4.690717">
        <ele>881.9472235832363</ele>
        <time>2022-05-18T09:07:36Z</time>
      </trkpt>
      <trkpt lat="42.34196" lon="-4.690846">
        <ele>880.9121503224596</ele>
        <time>2022-05-18T09:07:44Z</time>
      </trkpt>
      <trkpt lat="42.341951" lon="-4.690984">
        <ele>880.4066223772243</ele>
        <time>2022-05-18T09:07:51Z</time>
      </trkpt>
      <trkpt lat="42.341942" lon="-4.69112">
        <ele>876.511648312211</ele>
        <time>2022-05-18T09:07:58Z</time>
      </trkpt>
      <trkpt lat="42.341925" lon="-4.691241">
        <ele>873.8775667147711</ele>
        <time>2022-05-18T09:08:07Z</time>
      </trkpt>
      <trkpt lat="42.341912" lon="-4.691375">
        <ele>871.9372961269692</ele>
        <time>2022-05-18T09:08:17Z</time>
      </trkpt>
      <trkpt lat="42.341888" lon="-4.6915">
        <ele>870.3227734677494</ele>
        <time>2022-05-18T09:08:25Z</time>
      </trkpt>
      <trkpt lat="42.341877" lon="-4.691624">
        <ele>868.9944895021617</ele>
        <time>2022-05-18T09:08:31Z</time>
      </trkpt>
      <trkpt lat="42.34186" lon="-4.691756">
        <ele>871.2039060145617</ele>
        <time>2022-05-18T09:08:39Z</time>
      </trkpt>
      <trkpt lat="42.341847" lon="-4.691885">
        <ele>870.9076826712117</ele>
        <time>2022-05-18T09:08:46Z</time>
      </trkpt>
      <trkpt lat="42.341823" lon="-4.692008">
        <ele>871.0057630166411</ele>
        <time>2022-05-18T09:08:54Z</time>
      </trkpt>
      <trkpt lat="42.341803" lon="-4.69213">
        <ele>867.5510142995045</ele>
        <time>2022-05-18T09:09:02Z</time>
      </trkpt>
      <trkpt lat="42.341786" lon="-4.692267">
        <ele>865.3421265054494</ele>
        <time>2022-05-18T09:09:12Z</time>
      </trkpt>
      <trkpt lat="42.34176" lon="-4.692393">
        <ele>863.4865391477942</ele>
        <time>2022-05-18T09:09:19Z</time>
      </trkpt>
      <trkpt lat="42.34173" lon="-4.692518">
        <ele>860.8202914185822</ele>
        <time>2022-05-18T09:09:27Z</time>
      </trkpt>
      <trkpt lat="42.34171" lon="-4.692638">
        <ele>860.4573466181755</ele>
        <time>2022-05-18T09:09:33Z</time>
      </trkpt>
      <trkpt lat="42.341702" lon="-4.692774">
        <ele>862.0885289441794</ele>
        <time>2022-05-18T09:09:48Z</time>
      </trkpt>
      <trkpt lat="42.341689" lon="-4.692905">
        <ele>863.7284623980522</ele>
        <time>2022-05-18T09:09:56Z</time>
      </trkpt>
      <trkpt lat="42.341682" lon="-4.693041">
        <ele>867.6519158566371</ele>
        <time>2022-05-18T09:10:04Z</time>
      </trkpt>
      <trkpt lat="42.341683" lon="-4.693169">
        <ele>870.8753195479512</ele>
        <time>2022-05-18T09:10:12Z</time>
      </trkpt>
      <trkpt lat="42.341654" lon="-4.693293">
        <ele>869.6446363171563</ele>
        <time>2022-05-18T09:10:21Z</time>
      </trkpt>
      <trkpt lat="42.34167" lon="-4.693423">
        <ele>871.3120123483241</ele>
        <time>2022-05-18T09:10:29Z</time>
      </trkpt>
      <trkpt lat="42.341641" lon="-4.693557">
        <ele>868.2094275029376</ele>
        <time>2022-05-18T09:10:36Z</time>
      </trkpt>
      <trkpt lat="42.341631" lon="-4.69369">
        <ele>871.4595981109887</ele>
        <time>2022-05-18T09:10:46Z</time>
      </trkpt>
      <trkpt lat="42.341616" lon="-4.693821">
        <ele>869.2048857035115</ele>
        <time>2022-05-18T09:10:53Z</time>
      </trkpt>
      <trkpt lat="42.341596" lon="-4.693954">
        <ele>865.6676163878292</ele>
        <time>2022-05-18T09:11:01Z</time>
      </trkpt>
      <trkpt lat="42.341589" lon="-4.694093">
        <ele>866.6273083761334</ele>
        <time>2022-05-18T09:11:09Z</time>
      </trkpt>
      <trkpt lat="42.341578" lon="-4.694231">
        <ele>866.1542627243325</ele>
        <time>2022-05-18T09:11:16Z</time>
      </trkpt>
      <trkpt lat="42.341562" lon="-4.694355">
        <ele>867.3907390236855</ele>
        <time>2022-05-18T09:11:23Z</time>
      </trkpt>
      <trkpt lat="42.341544" lon="-4.694483">
        <ele>869.350247557275</ele>
        <time>2022-05-18T09:11:31Z</time>
      </trkpt>
      <trkpt lat="42.341534" lon="-4.694612">
        <ele>869.1655473737046</ele>
        <time>2022-05-18T09:11:39Z</time>
      </trkpt>
      <trkpt lat="42.341509" lon="-4.694733">
        <ele>867.7308092238382</ele>
        <time>2022-05-18T09:11:47Z</time>
      </trkpt>
      <trkpt lat="42.341492" lon="-4.694865">
        <ele>865.6560760857537</ele>
        <time>2022-05-18T09:11:55Z</time>
      </trkpt>
      <trkpt lat="42.341449" lon="-4.694978">
        <ele>864.6488451957703</ele>
        <time>2022-05-18T09:12:03Z</time>
      </trkpt>
      <trkpt lat="42.341394" lon="-4.695081">
        <ele>863.0129721295089</ele>
        <time>2022-05-18T09:12:12Z</time>
      </trkpt>
      <trkpt lat="42.341402" lon="-4.695205">
        <ele>864.4853276498616</ele>
        <time>2022-05-18T09:12:20Z</time>
      </trkpt>
      <trkpt lat="42.341384" lon="-4.695337">
        <ele>862.6914100684226</ele>
        <time>2022-05-18T09:12:27Z</time>
      </trkpt>
      <trkpt lat="42.341364" lon="-4.695474">
        <ele>862.7297181421891</ele>
        <time>2022-05-18T09:12:36Z</time>
      </trkpt>
      <trkpt lat="42.34136" lon="-4.695599">
        <ele>869.3202774105594</ele>
        <time>2022-05-18T09:12:45Z</time>
      </trkpt>
      <trkpt lat="42.341354" lon="-4.695734">
        <ele>871.887113652192</ele>
        <time>2022-05-18T09:12:53Z</time>
      </trkpt>
      <trkpt lat="42.341329" lon="-4.695868">
        <ele>872.0018959827721</ele>
        <time>2022-05-18T09:13:02Z</time>
      </trkpt>
      <trkpt lat="42.341308" lon="-4.696007">
        <ele>869.928530851379</ele>
        <time>2022-05-18T09:13:11Z</time>
      </trkpt>
      <trkpt lat="42.341286" lon="-4.696139">
        <ele>866.7704719444737</ele>
        <time>2022-05-18T09:13:18Z</time>
      </trkpt>
      <trkpt lat="42.341272" lon="-4.696267">
        <ele>870.7595275584608</ele>
        <time>2022-05-18T09:13:27Z</time>
      </trkpt>
      <trkpt lat="42.341264" lon="-4.696402">
        <ele>872.778897090815</ele>
        <time>2022-05-18T09:13:35Z</time>
      </trkpt>
      <trkpt lat="42.341253" lon="-4.696531">
        <ele>876.3339855624363</ele>
        <time>2022-05-18T09:13:43Z</time>
      </trkpt>
      <trkpt lat="42.34123" lon="-4.696651">
        <ele>874.0515495482832</ele>
        <time>2022-05-18T09:13:50Z</time>
      </trkpt>
      <trkpt lat="42.341221" lon="-4.696781">
        <ele>873.961347666569</ele>
        <time>2022-05-18T09:13:57Z</time>
      </trkpt>
      <trkpt lat="42.341203" lon="-4.696905">
        <ele>872.7253455901518</ele>
        <time>2022-05-18T09:14:05Z</time>
      </trkpt>
      <trkpt lat="42.341185" lon="-4.697027">
        <ele>869.8877936182544</ele>
        <time>2022-05-18T09:14:12Z</time>
      </trkpt>
      <trkpt lat="42.341154" lon="-4.697147">
        <ele>868.7092419937253</ele>
        <time>2022-05-18T09:14:22Z</time>
      </trkpt>
      <trkpt lat="42.341126" lon="-4.697263">
        <ele>865.8103267131373</ele>
        <time>2022-05-18T09:14:29Z</time>
      </trkpt>
      <trkpt lat="42.341109" lon="-4.697392">
        <ele>864.7845952641219</ele>
        <time>2022-05-18T09:14:38Z</time>
      </trkpt>
      <trkpt lat="42.341087" lon="-4.697515">
        <ele>862.3457752112299</ele>
        <time>2022-05-18T09:14:46Z</time>
      </trkpt>
      <trkpt lat="42.34107" lon="-4.697645">
        <ele>861.1559498179704</ele>
        <time>2022-05-18T09:14:54Z</time>
      </trkpt>
      <trkpt lat="42.341051" lon="-4.697765">
        <ele>861.3944706348702</ele>
        <time>2022-05-18T09:15:02Z</time>
      </trkpt>
      <trkpt lat="42.341052" lon="-4.69789">
        <ele>864.0843274937943</ele>
        <time>2022-05-18T09:15:10Z</time>
      </trkpt>
      <trkpt lat="42.341037" lon="-4.698011">
        <ele>863.8926950106397</ele>
        <time>2022-05-18T09:15:18Z</time>
      </trkpt>
      <trkpt lat="42.341013" lon="-4.698143">
        <ele>863.1099475035444</ele>
        <time>2022-05-18T09:15:26Z</time>
      </trkpt>
      <trkpt lat="42.340989" lon="-4.69827">
        <ele>860.0201890226454</ele>
        <time>2022-05-18T09:15:33Z</time>
      </trkpt>
      <trkpt lat="42.340954" lon="-4.698383">
        <ele>863.8380751842633</ele>
        <time>2022-05-18T09:15:43Z</time>
      </trkpt>
      <trkpt lat="42.340937" lon="-4.698516">
        <ele>862.1404547374696</ele>
        <time>2022-05-18T09:15:51Z</time>
      </trkpt>
      <trkpt lat="42.340912" lon="-4.698645">
        <ele>858.7630911767483</ele>
        <time>2022-05-18T09:15:59Z</time>
      </trkpt>
      <trkpt lat="42.340907" lon="-4.698776">
        <ele>859.0572189632803</ele>
        <time>2022-05-18T09:16:07Z</time>
      </trkpt>
      <trkpt lat="42.340886" lon="-4.698901">
        <ele>860.751916654408</ele>
        <time>2022-05-18T09:16:14Z</time>
      </trkpt>
      <trkpt lat="42.340873" lon="-4.699028">
        <ele>856.4804131677374</ele>
        <time>2022-05-18T09:16:22Z</time>
      </trkpt>
      <trkpt lat="42.340847" lon="-4.699153">
        <ele>851.3393352450803</ele>
        <time>2022-05-18T09:16:31Z</time>
      </trkpt>
      <trkpt lat="42.340839" lon="-4.699286">
        <ele>851.6235519945621</ele>
        <time>2022-05-18T09:16:40Z</time>
      </trkpt>
      <trkpt lat="42.340832" lon="-4.699417">
        <ele>849.7945076432079</ele>
        <time>2022-05-18T09:16:48Z</time>
      </trkpt>
      <trkpt lat="42.340811" lon="-4.699539">
        <ele>848.7893313597888</ele>
        <time>2022-05-18T09:16:55Z</time>
      </trkpt>
      <trkpt lat="42.340815" lon="-4.69967">
        <ele>853.1780635230243</ele>
        <time>2022-05-18T09:17:04Z</time>
      </trkpt>
      <trkpt lat="42.340787" lon="-4.699797">
        <ele>854.3694165572524</ele>
        <time>2022-05-18T09:17:13Z</time>
      </trkpt>
      <trkpt lat="42.340787" lon="-4.699927">
        <ele>858.8263789117336</ele>
        <time>2022-05-18T09:17:20Z</time>
      </trkpt>
      <trkpt lat="42.340774" lon="-4.700047">
        <ele>857.3289203485474</ele>
        <time>2022-05-18T09:17:26Z</time>
      </trkpt>
      <trkpt lat="42.340755" lon="-4.700173">
        <ele>856.3474215930328</ele>
        <time>2022-05-18T09:17:33Z</time>
      </trkpt>
      <trkpt lat="42.340733" lon="-4.700306">
        <ele>854.9761572955176</ele>
        <time>2022-05-18T09:17:40Z</time>
      </trkpt>
      <trkpt lat="42.340709" lon="-4.700428">
        <ele>855.9991150749847</ele>
        <time>2022-05-18T09:17:47Z</time>
      </trkpt>
      <trkpt lat="42.340702" lon="-4.700555">
        <ele>854.7135668229312</ele>
        <time>2022-05-18T09:17:53Z</time>
      </trkpt>
      <trkpt lat="42.340701" lon="-4.700683">
        <ele>857.1724092205986</ele>
        <time>2022-05-18T09:18:03Z</time>
      </trkpt>
      <trkpt lat="42.340663" lon="-4.70081">
        <ele>858.3653810061514</ele>
        <time>2022-05-18T09:18:11Z</time>
      </trkpt>
      <trkpt lat="42.340644" lon="-4.700947">
        <ele>858.6541016912088</ele>
        <time>2022-05-18T09:18:20Z</time>
      </trkpt>
      <trkpt lat="42.340625" lon="-4.701072">
        <ele>859.8226473750547</ele>
        <time>2022-05-18T09:18:26Z</time>
      </trkpt>
      <trkpt lat="42.340615" lon="-4.701193">
        <ele>858.9823588617146</ele>
        <time>2022-05-18T09:18:32Z</time>
      </trkpt>
      <trkpt lat="42.340617" lon="-4.701318">
        <ele>861.4473310820758</ele>
        <time>2022-05-18T09:18:41Z</time>
      </trkpt>
      <trkpt lat="42.340619" lon="-4.701445">
        <ele>865.4518029587343</ele>
        <time>2022-05-18T09:18:52Z</time>
      </trkpt>
      <trkpt lat="42.34061" lon="-4.701566">
        <ele>868.8656699266285</ele>
        <time>2022-05-18T09:18:59Z</time>
      </trkpt>
      <trkpt lat="42.340604" lon="-4.701706">
        <ele>868.8003667630255</ele>
        <time>2022-05-18T09:19:07Z</time>
      </trkpt>
      <trkpt lat="42.340581" lon="-4.701838">
        <ele>865.3498280430213</ele>
        <time>2022-05-18T09:19:15Z</time>
      </trkpt>
      <trkpt lat="42.340555" lon="-4.701979">
        <ele>866.723933766596</ele>
        <time>2022-05-18T09:19:25Z</time>
      </trkpt>
      <trkpt lat="42.340534" lon="-4.702122">
        <ele>871.2811416322365</ele>
        <time>2022-05-18T09:19:36Z</time>
      </trkpt>
      <trkpt lat="42.340521" lon="-4.702258">
        <ele>873.3223454132676</ele>
        <time>2022-05-18T09:19:44Z</time>
      </trkpt>
      <trkpt lat="42.340496" lon="-4.702395">
        <ele>870.324761396274</ele>
        <time>2022-05-18T09:19:51Z</time>
      </trkpt>
      <trkpt lat="42.34047" lon="-4.702523">
        <ele>865.8971931431442</ele>
        <time>2022-05-18T09:19:58Z</time>
      </trkpt>
      <trkpt lat="42.340448" lon="-4.702658">
        <ele>863.9668303681538</ele>
        <time>2022-05-18T09:20:06Z</time>
      </trkpt>
      <trkpt lat="42.340429" lon="-4.702801">
        <ele>863.3314815945923</ele>
        <time>2022-05-18T09:20:16Z</time>
      </trkpt>
      <trkpt lat="42.340412" lon="-4.702938">
        <ele>861.9648503689095</ele>
        <time>2022-05-18T09:20:23Z</time>
      </trkpt>
      <trkpt lat="42.340411" lon="-4.703064">
        <ele>863.3214255953208</ele>
        <time>2022-05-18T09:20:34Z</time>
      </trkpt>
      <trkpt lat="42.340389" lon="-4.703194">
        <ele>867.1001317128539</ele>
        <time>2022-05-18T09:21:14Z</time>
      </trkpt>
      <trkpt lat="42.340389" lon="-4.70333">
        <ele>866.5114990854636</ele>
        <time>2022-05-18T09:21:21Z</time>
      </trkpt>
      <trkpt lat="42.340366" lon="-4.703458">
        <ele>869.3457067469135</ele>
        <time>2022-05-18T09:21:28Z</time>
      </trkpt>
      <trkpt lat="42.340362" lon="-4.703581">
        <ele>868.5958843557164</ele>
        <time>2022-05-18T09:21:34Z</time>
      </trkpt>
      <trkpt lat="42.340336" lon="-4.703703">
        <ele>866.1711203530431</ele>
        <time>2022-05-18T09:21:41Z</time>
      </trkpt>
      <trkpt lat="42.340315" lon="-4.703832">
        <ele>867.2360672634095</ele>
        <time>2022-05-18T09:21:48Z</time>
      </trkpt>
      <trkpt lat="42.340317" lon="-4.703956">
        <ele>869.2151864385232</ele>
        <time>2022-05-18T09:21:55Z</time>
      </trkpt>
      <trkpt lat="42.340303" lon="-4.704079">
        <ele>868.1052295649424</ele>
        <time>2022-05-18T09:22:01Z</time>
      </trkpt>
      <trkpt lat="42.340299" lon="-4.704205">
        <ele>869.5312724383548</ele>
        <time>2022-05-18T09:22:08Z</time>
      </trkpt>
      <trkpt lat="42.340291" lon="-4.70434">
        <ele>872.34472500626</ele>
        <time>2022-05-18T09:22:16Z</time>
      </trkpt>
      <trkpt lat="42.34027" lon="-4.704465">
        <ele>872.6886294335127</ele>
        <time>2022-05-18T09:22:25Z</time>
      </trkpt>
      <trkpt lat="42.340251" lon="-4.704594">
        <ele>873.0716036884114</ele>
        <time>2022-05-18T09:22:34Z</time>
      </trkpt>
      <trkpt lat="42.340234" lon="-4.704718">
        <ele>870.412507770583</ele>
        <time>2022-05-18T09:22:41Z</time>
      </trkpt>
      <trkpt lat="42.340195" lon="-4.704835">
        <ele>867.4145796773955</ele>
        <time>2022-05-18T09:22:48Z</time>
      </trkpt>
      <trkpt lat="42.340163" lon="-4.704958">
        <ele>863.6964322021231</ele>
        <time>2022-05-18T09:22:56Z</time>
      </trkpt>
      <trkpt lat="42.340125" lon="-4.705086">
        <ele>861.9143299432471</ele>
        <time>2022-05-18T09:23:05Z</time>
      </trkpt>
      <trkpt lat="42.340114" lon="-4.705212">
        <ele>864.1051312657073</ele>
        <time>2022-05-18T09:23:13Z</time>
      </trkpt>
      <trkpt lat="42.340094" lon="-4.705334">
        <ele>865.6719806306064</ele>
        <time>2022-05-18T09:23:20Z</time>
      </trkpt>
      <trkpt lat="42.340077" lon="-4.705467">
        <ele>863.0100497500971</ele>
        <time>2022-05-18T09:23:26Z</time>
      </trkpt>
      <trkpt lat="42.340048" lon="-4.705588">
        <ele>862.8458602922037</ele>
        <time>2022-05-18T09:23:33Z</time>
      </trkpt>
      <trkpt lat="42.340019" lon="-4.705703">
        <ele>861.4927766444162</ele>
        <time>2022-05-18T09:23:39Z</time>
      </trkpt>
      <trkpt lat="42.340004" lon="-4.705825">
        <ele>864.0471387784928</ele>
        <time>2022-05-18T09:23:48Z</time>
      </trkpt>
      <trkpt lat="42.339971" lon="-4.705958">
        <ele>860.6672376804054</ele>
        <time>2022-05-18T09:23:55Z</time>
      </trkpt>
      <trkpt lat="42.339949" lon="-4.706081">
        <ele>860.2015870735049</ele>
        <time>2022-05-18T09:24:01Z</time>
      </trkpt>
      <trkpt lat="42.339947" lon="-4.706215">
        <ele>860.6841319594532</ele>
        <time>2022-05-18T09:24:08Z</time>
      </trkpt>
      <trkpt lat="42.33996" lon="-4.706335">
        <ele>863.48552342318</ele>
        <time>2022-05-18T09:24:16Z</time>
      </trkpt>
      <trkpt lat="42.339942" lon="-4.706456">
        <ele>867.0142193594947</ele>
        <time>2022-05-18T09:24:24Z</time>
      </trkpt>
      <trkpt lat="42.339919" lon="-4.706573">
        <ele>869.2956054210663</ele>
        <time>2022-05-18T09:24:31Z</time>
      </trkpt>
      <trkpt lat="42.339918" lon="-4.706694">
        <ele>872.8500346280634</ele>
        <time>2022-05-18T09:24:38Z</time>
      </trkpt>
      <trkpt lat="42.339908" lon="-4.706832">
        <ele>872.6282977191731</ele>
        <time>2022-05-18T09:24:45Z</time>
      </trkpt>
      <trkpt lat="42.339897" lon="-4.706965">
        <ele>876.2295705107972</ele>
        <time>2022-05-18T09:24:52Z</time>
      </trkpt>
      <trkpt lat="42.339893" lon="-4.707095">
        <ele>878.6145369168371</ele>
        <time>2022-05-18T09:24:59Z</time>
      </trkpt>
      <trkpt lat="42.339874" lon="-4.707214">
        <ele>878.3992040678859</ele>
        <time>2022-05-18T09:25:06Z</time>
      </trkpt>
      <trkpt lat="42.339831" lon="-4.707325">
        <ele>878.5915850009769</ele>
        <time>2022-05-18T09:25:14Z</time>
      </trkpt>
      <trkpt lat="42.339801" lon="-4.707453">
        <ele>881.7891015829518</ele>
        <time>2022-05-18T09:25:22Z</time>
      </trkpt>
      <trkpt lat="42.339772" lon="-4.707591">
        <ele>879.7587980842218</ele>
        <time>2022-05-18T09:25:28Z</time>
      </trkpt>
      <trkpt lat="42.339753" lon="-4.707729">
        <ele>881.3489013221115</ele>
        <time>2022-05-18T09:25:35Z</time>
      </trkpt>
      <trkpt lat="42.339726" lon="-4.707854">
        <ele>877.2848562793806</ele>
        <time>2022-05-18T09:25:42Z</time>
      </trkpt>
      <trkpt lat="42.339686" lon="-4.707974">
        <ele>873.1176329469308</ele>
        <time>2022-05-18T09:25:50Z</time>
      </trkpt>
      <trkpt lat="42.339645" lon="-4.708083">
        <ele>870.3410829175264</ele>
        <time>2022-05-18T09:25:57Z</time>
      </trkpt>
      <trkpt lat="42.339625" lon="-4.708214">
        <ele>871.8846304519102</ele>
        <time>2022-05-18T09:26:04Z</time>
      </trkpt>
      <trkpt lat="42.339606" lon="-4.708335">
        <ele>872.5301193641499</ele>
        <time>2022-05-18T09:26:11Z</time>
      </trkpt>
      <trkpt lat="42.3396" lon="-4.708469">
        <ele>874.6846515489742</ele>
        <time>2022-05-18T09:26:19Z</time>
      </trkpt>
      <trkpt lat="42.339549" lon="-4.708587">
        <ele>872.6780275497586</ele>
        <time>2022-05-18T09:26:28Z</time>
      </trkpt>
      <trkpt lat="42.339506" lon="-4.708698">
        <ele>875.9438631311059</ele>
        <time>2022-05-18T09:26:36Z</time>
      </trkpt>
      <trkpt lat="42.339505" lon="-4.708827">
        <ele>885.1571569005027</ele>
        <time>2022-05-18T09:26:47Z</time>
      </trkpt>
      <trkpt lat="42.339475" lon="-4.708949">
        <ele>883.7250794051215</ele>
        <time>2022-05-18T09:26:55Z</time>
      </trkpt>
      <trkpt lat="42.339447" lon="-4.709068">
        <ele>881.830300655216</ele>
        <time>2022-05-18T09:27:01Z</time>
      </trkpt>
      <trkpt lat="42.339431" lon="-4.709197">
        <ele>882.668474977836</ele>
        <time>2022-05-18T09:27:07Z</time>
      </trkpt>
      <trkpt lat="42.339407" lon="-4.709329">
        <ele>884.175881549716</ele>
        <time>2022-05-18T09:27:14Z</time>
      </trkpt>
      <trkpt lat="42.339395" lon="-4.709458">
        <ele>884.62488048058</ele>
        <time>2022-05-18T09:27:21Z</time>
      </trkpt>
      <trkpt lat="42.339362" lon="-4.709581">
        <ele>883.7026040554047</ele>
        <time>2022-05-18T09:27:28Z</time>
      </trkpt>
      <trkpt lat="42.339343" lon="-4.709706">
        <ele>883.2338896989822</ele>
        <time>2022-05-18T09:27:36Z</time>
      </trkpt>
      <trkpt lat="42.339311" lon="-4.709834">
        <ele>881.6590818213299</ele>
        <time>2022-05-18T09:27:43Z</time>
      </trkpt>
      <trkpt lat="42.339287" lon="-4.70996">
        <ele>881.9204677864909</ele>
        <time>2022-05-18T09:27:49Z</time>
      </trkpt>
      <trkpt lat="42.339277" lon="-4.710084">
        <ele>878.9957176055759</ele>
        <time>2022-05-18T09:27:54Z</time>
      </trkpt>
      <trkpt lat="42.339265" lon="-4.710207">
        <ele>878.239909151569</ele>
        <time>2022-05-18T09:28:02Z</time>
      </trkpt>
      <trkpt lat="42.339256" lon="-4.710335">
        <ele>879.8138494016603</ele>
        <time>2022-05-18T09:28:10Z</time>
      </trkpt>
      <trkpt lat="42.339256" lon="-4.710459">
        <ele>880.7128594303504</ele>
        <time>2022-05-18T09:28:17Z</time>
      </trkpt>
      <trkpt lat="42.339237" lon="-4.710596">
        <ele>875.0760050136596</ele>
        <time>2022-05-18T09:28:24Z</time>
      </trkpt>
      <trkpt lat="42.339239" lon="-4.710721">
        <ele>874.9095471445471</ele>
        <time>2022-05-18T09:28:32Z</time>
      </trkpt>
      <trkpt lat="42.339232" lon="-4.710852">
        <ele>870.2744469475001</ele>
        <time>2022-05-18T09:28:38Z</time>
      </trkpt>
      <trkpt lat="42.339233" lon="-4.710987">
        <ele>870.587265538983</ele>
        <time>2022-05-18T09:28:47Z</time>
      </trkpt>
      <trkpt lat="42.339208" lon="-4.71111">
        <ele>867.8110724464059</ele>
        <time>2022-05-18T09:29:01Z</time>
      </trkpt>
      <trkpt lat="42.339175" lon="-4.711227">
        <ele>871.0033032223582</ele>
        <time>2022-05-18T09:29:10Z</time>
      </trkpt>
      <trkpt lat="42.339152" lon="-4.711347">
        <ele>871.0350833218545</ele>
        <time>2022-05-18T09:29:17Z</time>
      </trkpt>
      <trkpt lat="42.339128" lon="-4.71147">
        <ele>877.1140016401187</ele>
        <time>2022-05-18T09:29:28Z</time>
      </trkpt>
      <trkpt lat="42.339105" lon="-4.711592">
        <ele>879.9885865869</ele>
        <time>2022-05-18T09:29:37Z</time>
      </trkpt>
      <trkpt lat="42.339094" lon="-4.711729">
        <ele>879.2241201605648</ele>
        <time>2022-05-18T09:29:44Z</time>
      </trkpt>
      <trkpt lat="42.339075" lon="-4.711861">
        <ele>877.1009727567434</ele>
        <time>2022-05-18T09:29:55Z</time>
      </trkpt>
      <trkpt lat="42.339052" lon="-4.711979">
        <ele>878.9821283482015</ele>
        <time>2022-05-18T09:30:02Z</time>
      </trkpt>
      <trkpt lat="42.339034" lon="-4.712102">
        <ele>881.2782818246633</ele>
        <time>2022-05-18T09:30:09Z</time>
      </trkpt>
      <trkpt lat="42.339025" lon="-4.712232">
        <ele>881.3744131708518</ele>
        <time>2022-05-18T09:30:16Z</time>
      </trkpt>
      <trkpt lat="42.339002" lon="-4.712356">
        <ele>881.0110241286457</ele>
        <time>2022-05-18T09:30:23Z</time>
      </trkpt>
      <trkpt lat="42.338983" lon="-4.712493">
        <ele>881.9595411736518</ele>
        <time>2022-05-18T09:30:29Z</time>
      </trkpt>
      <trkpt lat="42.338963" lon="-4.712612">
        <ele>883.1973717240617</ele>
        <time>2022-05-18T09:30:37Z</time>
      </trkpt>
      <trkpt lat="42.338941" lon="-4.712732">
        <ele>884.3922698320821</ele>
        <time>2022-05-18T09:30:43Z</time>
      </trkpt>
      <trkpt lat="42.338919" lon="-4.712857">
        <ele>882.8705869438127</ele>
        <time>2022-05-18T09:30:50Z</time>
      </trkpt>
      <trkpt lat="42.338897" lon="-4.712992">
        <ele>885.035632442683</ele>
        <time>2022-05-18T09:30:58Z</time>
      </trkpt>
      <trkpt lat="42.33887" lon="-4.713118">
        <ele>884.7131814723834</ele>
        <time>2022-05-18T09:31:04Z</time>
      </trkpt>
      <trkpt lat="42.338863" lon="-4.713255">
        <ele>887.0712347785011</ele>
        <time>2022-05-18T09:31:12Z</time>
      </trkpt>
      <trkpt lat="42.338848" lon="-4.713375">
        <ele>886.2717459155247</ele>
        <time>2022-05-18T09:31:18Z</time>
      </trkpt>
      <trkpt lat="42.338837" lon="-4.713497">
        <ele>886.2840067511424</ele>
        <time>2022-05-18T09:31:25Z</time>
      </trkpt>
      <trkpt lat="42.338838" lon="-4.713618">
        <ele>886.2368281856179</ele>
        <time>2022-05-18T09:31:32Z</time>
      </trkpt>
      <trkpt lat="42.338819" lon="-4.713747">
        <ele>885.5824580313638</ele>
        <time>2022-05-18T09:31:40Z</time>
      </trkpt>
      <trkpt lat="42.338822" lon="-4.713873">
        <ele>886.8901829952374</ele>
        <time>2022-05-18T09:31:57Z</time>
      </trkpt>
      <trkpt lat="42.338792" lon="-4.714003">
        <ele>890.2584855407476</ele>
        <time>2022-05-18T09:32:06Z</time>
      </trkpt>
      <trkpt lat="42.338767" lon="-4.714125">
        <ele>888.0430100923404</ele>
        <time>2022-05-18T09:32:12Z</time>
      </trkpt>
      <trkpt lat="42.338748" lon="-4.71426">
        <ele>887.4201680133119</ele>
        <time>2022-05-18T09:32:19Z</time>
      </trkpt>
      <trkpt lat="42.33874" lon="-4.714397">
        <ele>889.4856861829758</ele>
        <time>2022-05-18T09:32:27Z</time>
      </trkpt>
      <trkpt lat="42.338712" lon="-4.714521">
        <ele>890.1496900003403</ele>
        <time>2022-05-18T09:32:35Z</time>
      </trkpt>
      <trkpt lat="42.338687" lon="-4.714648">
        <ele>887.3878113487735</ele>
        <time>2022-05-18T09:32:42Z</time>
      </trkpt>
      <trkpt lat="42.338674" lon="-4.714777">
        <ele>887.207353903912</ele>
        <time>2022-05-18T09:32:49Z</time>
      </trkpt>
      <trkpt lat="42.338663" lon="-4.714915">
        <ele>887.7819550875574</ele>
        <time>2022-05-18T09:32:56Z</time>
      </trkpt>
      <trkpt lat="42.338627" lon="-4.715046">
        <ele>885.4569132598117</ele>
        <time>2022-05-18T09:33:02Z</time>
      </trkpt>
      <trkpt lat="42.338624" lon="-4.715187">
        <ele>883.7421962581575</ele>
        <time>2022-05-18T09:33:09Z</time>
      </trkpt>
      <trkpt lat="42.33861" lon="-4.715313">
        <ele>883.7781046312302</ele>
        <time>2022-05-18T09:33:16Z</time>
      </trkpt>
      <trkpt lat="42.3386" lon="-4.715445">
        <ele>881.5236946726218</ele>
        <time>2022-05-18T09:33:22Z</time>
      </trkpt>
      <trkpt lat="42.338584" lon="-4.715571">
        <ele>884.1196702132002</ele>
        <time>2022-05-18T09:33:30Z</time>
      </trkpt>
      <trkpt lat="42.338558" lon="-4.71569">
        <ele>883.2088876618072</ele>
        <time>2022-05-18T09:33:39Z</time>
      </trkpt>
      <trkpt lat="42.338533" lon="-4.715817">
        <ele>883.3955831835046</ele>
        <time>2022-05-18T09:33:46Z</time>
      </trkpt>
      <trkpt lat="42.338539" lon="-4.715941">
        <ele>885.4832229232416</ele>
        <time>2022-05-18T09:33:54Z</time>
      </trkpt>
      <trkpt lat="42.338503" lon="-4.716068">
        <ele>885.7370108757168</ele>
        <time>2022-05-18T09:34:01Z</time>
      </trkpt>
      <trkpt lat="42.338483" lon="-4.716198">
        <ele>890.1579619497061</ele>
        <time>2022-05-18T09:34:10Z</time>
      </trkpt>
      <trkpt lat="42.33848" lon="-4.716323">
        <ele>888.0268237432465</ele>
        <time>2022-05-18T09:34:17Z</time>
      </trkpt>
      <trkpt lat="42.338468" lon="-4.716452">
        <ele>887.6062206095085</ele>
        <time>2022-05-18T09:34:24Z</time>
      </trkpt>
      <trkpt lat="42.338442" lon="-4.716573">
        <ele>888.6305871391669</ele>
        <time>2022-05-18T09:34:30Z</time>
      </trkpt>
      <trkpt lat="42.33845" lon="-4.716704">
        <ele>890.3820422627032</ele>
        <time>2022-05-18T09:34:38Z</time>
      </trkpt>
      <trkpt lat="42.338419" lon="-4.716826">
        <ele>895.2081646956503</ele>
        <time>2022-05-18T09:34:48Z</time>
      </trkpt>
      <trkpt lat="42.338403" lon="-4.716956">
        <ele>893.7158833835274</ele>
        <time>2022-05-18T09:34:55Z</time>
      </trkpt>
      <trkpt lat="42.338391" lon="-4.717078">
        <ele>894.2404297944158</ele>
        <time>2022-05-18T09:35:01Z</time>
      </trkpt>
      <trkpt lat="42.338382" lon="-4.717206">
        <ele>892.0031947530806</ele>
        <time>2022-05-18T09:35:07Z</time>
      </trkpt>
      <trkpt lat="42.338365" lon="-4.717329">
        <ele>892.3431429388002</ele>
        <time>2022-05-18T09:35:14Z</time>
      </trkpt>
      <trkpt lat="42.338326" lon="-4.717446">
        <ele>890.7310614995658</ele>
        <time>2022-05-18T09:35:21Z</time>
      </trkpt>
      <trkpt lat="42.338291" lon="-4.717563">
        <ele>890.365830396302</ele>
        <time>2022-05-18T09:35:29Z</time>
      </trkpt>
      <trkpt lat="42.338278" lon="-4.7177">
        <ele>890.3408287093043</ele>
        <time>2022-05-18T09:35:36Z</time>
      </trkpt>
      <trkpt lat="42.338273" lon="-4.717836">
        <ele>891.2707280395553</ele>
        <time>2022-05-18T09:35:42Z</time>
      </trkpt>
      <trkpt lat="42.338262" lon="-4.717974">
        <ele>897.6210257261992</ele>
        <time>2022-05-18T09:35:50Z</time>
      </trkpt>
      <trkpt lat="42.338246" lon="-4.718113">
        <ele>899.5361021962017</ele>
        <time>2022-05-18T09:35:58Z</time>
      </trkpt>
      <trkpt lat="42.338212" lon="-4.718228">
        <ele>899.6885334271938</ele>
        <time>2022-05-18T09:36:05Z</time>
      </trkpt>
      <trkpt lat="42.33818" lon="-4.71835">
        <ele>900.7704310752451</ele>
        <time>2022-05-18T09:36:12Z</time>
      </trkpt>
      <trkpt lat="42.338157" lon="-4.718483">
        <ele>899.9386396920308</ele>
        <time>2022-05-18T09:36:18Z</time>
      </trkpt>
      <trkpt lat="42.338174" lon="-4.718605">
        <ele>905.4601732576266</ele>
        <time>2022-05-18T09:36:25Z</time>
      </trkpt>
      <trkpt lat="42.33817" lon="-4.718736">
        <ele>911.3171294257045</ele>
        <time>2022-05-18T09:36:34Z</time>
      </trkpt>
      <trkpt lat="42.33817" lon="-4.71886">
        <ele>916.9564688224345</ele>
        <time>2022-05-18T09:36:42Z</time>
      </trkpt>
      <trkpt lat="42.338161" lon="-4.718996">
        <ele>917.9015899822116</ele>
        <time>2022-05-18T09:36:49Z</time>
      </trkpt>
      <trkpt lat="42.338171" lon="-4.719131">
        <ele>919.580819260329</ele>
        <time>2022-05-18T09:36:57Z</time>
      </trkpt>
      <trkpt lat="42.338154" lon="-4.719252">
        <ele>919.6552179381251</ele>
        <time>2022-05-18T09:37:04Z</time>
      </trkpt>
      <trkpt lat="42.338153" lon="-4.719387">
        <ele>917.3024159222841</ele>
        <time>2022-05-18T09:37:09Z</time>
      </trkpt>
      <trkpt lat="42.338156" lon="-4.719525">
        <ele>920.933847730048</ele>
        <time>2022-05-18T09:37:16Z</time>
      </trkpt>
      <trkpt lat="42.338143" lon="-4.719653">
        <ele>924.539264713414</ele>
        <time>2022-05-18T09:37:23Z</time>
      </trkpt>
      <trkpt lat="42.338126" lon="-4.719773">
        <ele>927.1465797554702</ele>
        <time>2022-05-18T09:37:30Z</time>
      </trkpt>
      <trkpt lat="42.338125" lon="-4.71991">
        <ele>932.7726636938751</ele>
        <time>2022-05-18T09:37:39Z</time>
      </trkpt>
      <trkpt lat="42.338105" lon="-4.720037">
        <ele>936.309505478479</ele>
        <time>2022-05-18T09:37:47Z</time>
      </trkpt>
      <trkpt lat="42.338087" lon="-4.720159">
        <ele>936.3900424744934</ele>
        <time>2022-05-18T09:37:53Z</time>
      </trkpt>
      <trkpt lat="42.338078" lon="-4.720293">
        <ele>937.2824965827167</ele>
        <time>2022-05-18T09:38:00Z</time>
      </trkpt>
      <trkpt lat="42.338044" lon="-4.720419">
        <ele>936.337090334855</ele>
        <time>2022-05-18T09:38:08Z</time>
      </trkpt>
      <trkpt lat="42.33803" lon="-4.720545">
        <ele>936.2515630507842</ele>
        <time>2022-05-18T09:38:14Z</time>
      </trkpt>
      <trkpt lat="42.338004" lon="-4.720667">
        <ele>936.8322265557945</ele>
        <time>2022-05-18T09:38:22Z</time>
      </trkpt>
      <trkpt lat="42.337987" lon="-4.720793">
        <ele>942.8449903661385</ele>
        <time>2022-05-18T09:38:30Z</time>
      </trkpt>
      <trkpt lat="42.337973" lon="-4.720926">
        <ele>943.0225300379097</ele>
        <time>2022-05-18T09:38:39Z</time>
      </trkpt>
      <trkpt lat="42.337957" lon="-4.72106">
        <ele>942.8845666376874</ele>
        <time>2022-05-18T09:38:47Z</time>
      </trkpt>
      <trkpt lat="42.337938" lon="-4.721195">
        <ele>943.0861919475719</ele>
        <time>2022-05-18T09:38:55Z</time>
      </trkpt>
      <trkpt lat="42.337907" lon="-4.721324">
        <ele>942.6950698234141</ele>
        <time>2022-05-18T09:39:03Z</time>
      </trkpt>
      <trkpt lat="42.337899" lon="-4.721463">
        <ele>944.545394865796</ele>
        <time>2022-05-18T09:39:11Z</time>
      </trkpt>
      <trkpt lat="42.337878" lon="-4.721586">
        <ele>945.6250933427364</ele>
        <time>2022-05-18T09:39:19Z</time>
      </trkpt>
      <trkpt lat="42.337867" lon="-4.721725">
        <ele>946.492192205973</ele>
        <time>2022-05-18T09:39:26Z</time>
      </trkpt>
      <trkpt lat="42.33786" lon="-4.721849">
        <ele>949.4505007211119</ele>
        <time>2022-05-18T09:39:33Z</time>
      </trkpt>
      <trkpt lat="42.337855" lon="-4.721973">
        <ele>948.7141561303288</ele>
        <time>2022-05-18T09:39:52Z</time>
      </trkpt>
      <trkpt lat="42.337822" lon="-4.722095">
        <ele>948.3288382170722</ele>
        <time>2022-05-18T09:39:59Z</time>
      </trkpt>
      <trkpt lat="42.337808" lon="-4.722225">
        <ele>949.343028916046</ele>
        <time>2022-05-18T09:40:07Z</time>
      </trkpt>
      <trkpt lat="42.337773" lon="-4.722337">
        <ele>946.4194807782769</ele>
        <time>2022-05-18T09:40:14Z</time>
      </trkpt>
      <trkpt lat="42.337756" lon="-4.722457">
        <ele>946.0910485656932</ele>
        <time>2022-05-18T09:40:21Z</time>
      </trkpt>
      <trkpt lat="42.337762" lon="-4.722578">
        <ele>948.0963200805709</ele>
        <time>2022-05-18T09:40:28Z</time>
      </trkpt>
      <trkpt lat="42.337743" lon="-4.722702">
        <ele>948.3539869217202</ele>
        <time>2022-05-18T09:40:36Z</time>
      </trkpt>
      <trkpt lat="42.337734" lon="-4.722826">
        <ele>948.9150866279379</ele>
        <time>2022-05-18T09:40:44Z</time>
      </trkpt>
      <trkpt lat="42.337723" lon="-4.722955">
        <ele>951.0240253694355</ele>
        <time>2022-05-18T09:40:53Z</time>
      </trkpt>
      <trkpt lat="42.337702" lon="-4.723082">
        <ele>950.1385019766167</ele>
        <time>2022-05-18T09:41:00Z</time>
      </trkpt>
      <trkpt lat="42.337693" lon="-4.723211">
        <ele>949.5009708674625</ele>
        <time>2022-05-18T09:41:08Z</time>
      </trkpt>
      <trkpt lat="42.337694" lon="-4.723338">
        <ele>954.1760554928333</ele>
        <time>2022-05-18T09:41:19Z</time>
      </trkpt>
      <trkpt lat="42.337679" lon="-4.72346">
        <ele>955.4828423624858</ele>
        <time>2022-05-18T09:41:27Z</time>
      </trkpt>
      <trkpt lat="42.337663" lon="-4.72358">
        <ele>955.6376295993105</ele>
        <time>2022-05-18T09:41:35Z</time>
      </trkpt>
      <trkpt lat="42.337653" lon="-4.723704">
        <ele>956.9980214098468</ele>
        <time>2022-05-18T09:41:45Z</time>
      </trkpt>
      <trkpt lat="42.337629" lon="-4.723824">
        <ele>955.4397318707779</ele>
        <time>2022-05-18T09:41:53Z</time>
      </trkpt>
      <trkpt lat="42.337603" lon="-4.723957">
        <ele>952.9304205207154</ele>
        <time>2022-05-18T09:42:00Z</time>
      </trkpt>
      <trkpt lat="42.337589" lon="-4.724081">
        <ele>951.4926736000925</ele>
        <time>2022-05-18T09:42:07Z</time>
      </trkpt>
      <trkpt lat="42.337547" lon="-4.724195">
        <ele>949.9105165302753</ele>
        <time>2022-05-18T09:42:15Z</time>
      </trkpt>
      <trkpt lat="42.337518" lon="-4.724325">
        <ele>945.1702938685194</ele>
        <time>2022-05-18T09:42:22Z</time>
      </trkpt>
      <trkpt lat="42.337511" lon="-4.724446">
        <ele>947.0826295372099</ele>
        <time>2022-05-18T09:42:29Z</time>
      </trkpt>
      <trkpt lat="42.337498" lon="-4.724577">
        <ele>948.4881424568594</ele>
        <time>2022-05-18T09:42:38Z</time>
      </trkpt>
      <trkpt lat="42.337484" lon="-4.724699">
        <ele>948.8623864538968</ele>
        <time>2022-05-18T09:42:45Z</time>
      </trkpt>
      <trkpt lat="42.337473" lon="-4.724831">
        <ele>948.0757514666766</ele>
        <time>2022-05-18T09:42:52Z</time>
      </trkpt>
      <trkpt lat="42.337446" lon="-4.724955">
        <ele>948.098481814377</ele>
        <time>2022-05-18T09:43:01Z</time>
      </trkpt>
      <trkpt lat="42.337431" lon="-4.725085">
        <ele>951.6349888807163</ele>
        <time>2022-05-18T09:43:09Z</time>
      </trkpt>
      <trkpt lat="42.337413" lon="-4.725218">
        <ele>954.332874789834</ele>
        <time>2022-05-18T09:43:19Z</time>
      </trkpt>
      <trkpt lat="42.337399" lon="-4.725348">
        <ele>953.3018273795024</ele>
        <time>2022-05-18T09:43:26Z</time>
      </trkpt>
      <trkpt lat="42.337386" lon="-4.725477">
        <ele>950.360715188086</ele>
        <time>2022-05-18T09:43:33Z</time>
      </trkpt>
      <trkpt lat="42.337374" lon="-4.725615">
        <ele>950.8862202661112</ele>
        <time>2022-05-18T09:43:42Z</time>
      </trkpt>
      <trkpt lat="42.33736" lon="-4.725736">
        <ele>949.4387287972495</ele>
        <time>2022-05-18T09:43:48Z</time>
      </trkpt>
      <trkpt lat="42.337365" lon="-4.725867">
        <ele>951.7578781247139</ele>
        <time>2022-05-18T09:43:56Z</time>
      </trkpt>
      <trkpt lat="42.337376" lon="-4.726001">
        <ele>953.6239806115627</ele>
        <time>2022-05-18T09:44:04Z</time>
      </trkpt>
      <trkpt lat="42.337349" lon="-4.726134">
        <ele>955.3255159296095</ele>
        <time>2022-05-18T09:44:13Z</time>
      </trkpt>
      <trkpt lat="42.337315" lon="-4.726266">
        <ele>954.8928921399638</ele>
        <time>2022-05-18T09:44:20Z</time>
      </trkpt>
      <trkpt lat="42.337294" lon="-4.726392">
        <ele>952.3514689179137</ele>
        <time>2022-05-18T09:44:27Z</time>
      </trkpt>
      <trkpt lat="42.337267" lon="-4.726519">
        <ele>951.4200492305681</ele>
        <time>2022-05-18T09:44:34Z</time>
      </trkpt>
      <trkpt lat="42.337242" lon="-4.726643">
        <ele>951.523407603614</ele>
        <time>2022-05-18T09:44:42Z</time>
      </trkpt>
      <trkpt lat="42.337232" lon="-4.726774">
        <ele>948.6191717321053</ele>
        <time>2022-05-18T09:44:50Z</time>
      </trkpt>
      <trkpt lat="42.337215" lon="-4.726901">
        <ele>947.8252903120592</ele>
        <time>2022-05-18T09:44:58Z</time>
      </trkpt>
      <trkpt lat="42.337189" lon="-4.727019">
        <ele>947.0108551485464</ele>
        <time>2022-05-18T09:45:05Z</time>
      </trkpt>
      <trkpt lat="42.337172" lon="-4.727139">
        <ele>945.7494913870469</ele>
        <time>2022-05-18T09:45:12Z</time>
      </trkpt>
      <trkpt lat="42.337144" lon="-4.727271">
        <ele>944.1714378679171</ele>
        <time>2022-05-18T09:45:20Z</time>
      </trkpt>
      <trkpt lat="42.337121" lon="-4.7274">
        <ele>945.3950014915317</ele>
        <time>2022-05-18T09:45:27Z</time>
      </trkpt>
      <trkpt lat="42.337089" lon="-4.727514">
        <ele>945.3003189247102</ele>
        <time>2022-05-18T09:45:34Z</time>
      </trkpt>
      <trkpt lat="42.337065" lon="-4.727644">
        <ele>943.9953249106184</ele>
        <time>2022-05-18T09:45:42Z</time>
      </trkpt>
      <trkpt lat="42.337047" lon="-4.727764">
        <ele>943.5183693030849</ele>
        <time>2022-05-18T09:45:48Z</time>
      </trkpt>
      <trkpt lat="42.337025" lon="-4.727882">
        <ele>941.9864994548261</ele>
        <time>2022-05-18T09:45:55Z</time>
      </trkpt>
      <trkpt lat="42.337004" lon="-4.72801">
        <ele>941.2497091032565</ele>
        <time>2022-05-18T09:46:03Z</time>
      </trkpt>
      <trkpt lat="42.336984" lon="-4.728133">
        <ele>942.5759258102626</ele>
        <time>2022-05-18T09:46:11Z</time>
      </trkpt>
      <trkpt lat="42.336967" lon="-4.728258">
        <ele>942.2496834238991</ele>
        <time>2022-05-18T09:46:19Z</time>
      </trkpt>
      <trkpt lat="42.33696" lon="-4.728384">
        <ele>943.2703128065914</ele>
        <time>2022-05-18T09:46:26Z</time>
      </trkpt>
      <trkpt lat="42.336943" lon="-4.728512">
        <ele>943.7002980615944</ele>
        <time>2022-05-18T09:46:34Z</time>
      </trkpt>
      <trkpt lat="42.336938" lon="-4.728641">
        <ele>944.9690520204604</ele>
        <time>2022-05-18T09:46:42Z</time>
      </trkpt>
      <trkpt lat="42.336913" lon="-4.728761">
        <ele>946.5218663383275</ele>
        <time>2022-05-18T09:46:50Z</time>
      </trkpt>
      <trkpt lat="42.336906" lon="-4.728888">
        <ele>942.7063731094822</ele>
        <time>2022-05-18T09:46:59Z</time>
      </trkpt>
      <trkpt lat="42.336883" lon="-4.72901">
        <ele>940.9120062179863</ele>
        <time>2022-05-18T09:47:07Z</time>
      </trkpt>
      <trkpt lat="42.336849" lon="-4.729125">
        <ele>940.9366384288296</ele>
        <time>2022-05-18T09:47:16Z</time>
      </trkpt>
      <trkpt lat="42.336817" lon="-4.729251">
        <ele>938.1807352416217</ele>
        <time>2022-05-18T09:47:23Z</time>
      </trkpt>
      <trkpt lat="42.336795" lon="-4.729383">
        <ele>939.8644990669563</ele>
        <time>2022-05-18T09:47:33Z</time>
      </trkpt>
      <trkpt lat="42.336775" lon="-4.729504">
        <ele>938.2848086599261</ele>
        <time>2022-05-18T09:47:39Z</time>
      </trkpt>
      <trkpt lat="42.336755" lon="-4.729631">
        <ele>937.9836835535243</ele>
        <time>2022-05-18T09:47:47Z</time>
      </trkpt>
      <trkpt lat="42.336739" lon="-4.729761">
        <ele>939.1039328556508</ele>
        <time>2022-05-18T09:47:53Z</time>
      </trkpt>
      <trkpt lat="42.336717" lon="-4.729884">
        <ele>936.9335092753172</ele>
        <time>2022-05-18T09:48:02Z</time>
      </trkpt>
      <trkpt lat="42.336704" lon="-4.730013">
        <ele>933.4682823680341</ele>
        <time>2022-05-18T09:48:09Z</time>
      </trkpt>
      <trkpt lat="42.336692" lon="-4.730143">
        <ele>935.2435238044709</ele>
        <time>2022-05-18T09:48:18Z</time>
      </trkpt>
      <trkpt lat="42.336673" lon="-4.730275">
        <ele>937.4392948439345</ele>
        <time>2022-05-18T09:48:26Z</time>
      </trkpt>
      <trkpt lat="42.336657" lon="-4.730398">
        <ele>936.0942821837962</ele>
        <time>2022-05-18T09:48:34Z</time>
      </trkpt>
      <trkpt lat="42.336632" lon="-4.730522">
        <ele>936.3304216954857</ele>
        <time>2022-05-18T09:48:43Z</time>
      </trkpt>
      <trkpt lat="42.336618" lon="-4.730647">
        <ele>936.780489939265</ele>
        <time>2022-05-18T09:48:51Z</time>
      </trkpt>
      <trkpt lat="42.336612" lon="-4.730771">
        <ele>936.0109071964398</ele>
        <time>2022-05-18T09:48:58Z</time>
      </trkpt>
      <trkpt lat="42.336587" lon="-4.730895">
        <ele>934.2058292077854</ele>
        <time>2022-05-18T09:49:05Z</time>
      </trkpt>
      <trkpt lat="42.336569" lon="-4.731025">
        <ele>931.4934836933389</ele>
        <time>2022-05-18T09:49:13Z</time>
      </trkpt>
      <trkpt lat="42.336551" lon="-4.731148">
        <ele>931.322264842689</ele>
        <time>2022-05-18T09:49:24Z</time>
      </trkpt>
      <trkpt lat="42.336536" lon="-4.731271">
        <ele>934.4543464491144</ele>
        <time>2022-05-18T09:49:33Z</time>
      </trkpt>
      <trkpt lat="42.336509" lon="-4.731397">
        <ele>934.9839171683416</ele>
        <time>2022-05-18T09:49:41Z</time>
      </trkpt>
      <trkpt lat="42.336488" lon="-4.731532">
        <ele>932.2933110557497</ele>
        <time>2022-05-18T09:49:48Z</time>
      </trkpt>
      <trkpt lat="42.336448" lon="-4.731643">
        <ele>931.5819254620001</ele>
        <time>2022-05-18T09:49:55Z</time>
      </trkpt>
      <trkpt lat="42.336431" lon="-4.731764">
        <ele>929.7724242415279</ele>
        <time>2022-05-18T09:50:01Z</time>
      </trkpt>
      <trkpt lat="42.336403" lon="-4.731887">
        <ele>928.4049869067967</ele>
        <time>2022-05-18T09:50:08Z</time>
      </trkpt>
      <trkpt lat="42.336371" lon="-4.732006">
        <ele>927.8287853570655</ele>
        <time>2022-05-18T09:50:14Z</time>
      </trkpt>
      <trkpt lat="42.336349" lon="-4.732137">
        <ele>926.6317223701626</ele>
        <time>2022-05-18T09:50:21Z</time>
      </trkpt>
      <trkpt lat="42.336312" lon="-4.732248">
        <ele>928.807541469112</ele>
        <time>2022-05-18T09:50:29Z</time>
      </trkpt>
      <trkpt lat="42.336298" lon="-4.732373">
        <ele>929.5127049172297</ele>
        <time>2022-05-18T09:50:37Z</time>
      </trkpt>
      <trkpt lat="42.336286" lon="-4.732499">
        <ele>928.5389064280316</ele>
        <time>2022-05-18T09:50:46Z</time>
      </trkpt>
      <trkpt lat="42.336264" lon="-4.732623">
        <ele>928.4727020775899</ele>
        <time>2022-05-18T09:50:53Z</time>
      </trkpt>
      <trkpt lat="42.336261" lon="-4.732745">
        <ele>929.3128333389759</ele>
        <time>2022-05-18T09:50:59Z</time>
      </trkpt>
      <trkpt lat="42.336252" lon="-4.732879">
        <ele>931.152280705981</ele>
        <time>2022-05-18T09:51:08Z</time>
      </trkpt>
      <trkpt lat="42.336244" lon="-4.733009">
        <ele>931.2512121545151</ele>
        <time>2022-05-18T09:51:16Z</time>
      </trkpt>
      <trkpt lat="42.336223" lon="-4.733138">
        <ele>932.5059206718579</ele>
        <time>2022-05-18T09:51:25Z</time>
      </trkpt>
      <trkpt lat="42.3362" lon="-4.73326">
        <ele>932.7448181593791</ele>
        <time>2022-05-18T09:51:33Z</time>
      </trkpt>
      <trkpt lat="42.336167" lon="-4.733375">
        <ele>930.7432728502899</ele>
        <time>2022-05-18T09:51:41Z</time>
      </trkpt>
      <trkpt lat="42.336159" lon="-4.733501">
        <ele>929.2680089687929</ele>
        <time>2022-05-18T09:51:50Z</time>
      </trkpt>
      <trkpt lat="42.336135" lon="-4.733629">
        <ele>929.7456480171531</ele>
        <time>2022-05-18T09:51:58Z</time>
      </trkpt>
      <trkpt lat="42.336098" lon="-4.733748">
        <ele>927.9208085127175</ele>
        <time>2022-05-18T09:52:07Z</time>
      </trkpt>
      <trkpt lat="42.336062" lon="-4.733862">
        <ele>927.2209607390687</ele>
        <time>2022-05-18T09:52:16Z</time>
      </trkpt>
      <trkpt lat="42.33604" lon="-4.733985">
        <ele>925.816870498471</ele>
        <time>2022-05-18T09:52:23Z</time>
      </trkpt>
      <trkpt lat="42.336009" lon="-4.734113">
        <ele>926.2199585875496</ele>
        <time>2022-05-18T09:52:32Z</time>
      </trkpt>
      <trkpt lat="42.335984" lon="-4.734239">
        <ele>926.0900431592017</ele>
        <time>2022-05-18T09:52:40Z</time>
      </trkpt>
      <trkpt lat="42.335953" lon="-4.734366">
        <ele>924.9929489986971</ele>
        <time>2022-05-18T09:52:48Z</time>
      </trkpt>
      <trkpt lat="42.335922" lon="-4.734491">
        <ele>924.2643418647349</ele>
        <time>2022-05-18T09:52:57Z</time>
      </trkpt>
      <trkpt lat="42.3359" lon="-4.734617">
        <ele>924.9041899507865</ele>
        <time>2022-05-18T09:53:07Z</time>
      </trkpt>
      <trkpt lat="42.33589" lon="-4.734739">
        <ele>922.9361544214189</ele>
        <time>2022-05-18T09:53:14Z</time>
      </trkpt>
      <trkpt lat="42.335872" lon="-4.734872">
        <ele>922.4794944506139</ele>
        <time>2022-05-18T09:53:22Z</time>
      </trkpt>
      <trkpt lat="42.335827" lon="-4.734998">
        <ele>915.767829541117</ele>
        <time>2022-05-18T09:53:30Z</time>
      </trkpt>
      <trkpt lat="42.335767" lon="-4.735106">
        <ele>911.3133682012558</ele>
        <time>2022-05-18T09:53:38Z</time>
      </trkpt>
      <trkpt lat="42.335736" lon="-4.735224">
        <ele>909.2337932521477</ele>
        <time>2022-05-18T09:53:47Z</time>
      </trkpt>
      <trkpt lat="42.335709" lon="-4.735348">
        <ele>905.5152217913419</ele>
        <time>2022-05-18T09:53:54Z</time>
      </trkpt>
      <trkpt lat="42.335695" lon="-4.735481">
        <ele>904.9338049087673</ele>
        <time>2022-05-18T09:54:02Z</time>
      </trkpt>
      <trkpt lat="42.335667" lon="-4.735608">
        <ele>904.5271732006222</ele>
        <time>2022-05-18T09:54:11Z</time>
      </trkpt>
      <trkpt lat="42.335643" lon="-4.735728">
        <ele>905.4600984677672</ele>
        <time>2022-05-18T09:54:19Z</time>
      </trkpt>
      <trkpt lat="42.335614" lon="-4.735857">
        <ele>905.2056278400123</ele>
        <time>2022-05-18T09:54:27Z</time>
      </trkpt>
      <trkpt lat="42.335598" lon="-4.735983">
        <ele>903.0407530348748</ele>
        <time>2022-05-18T09:54:35Z</time>
      </trkpt>
      <trkpt lat="42.335566" lon="-4.736113">
        <ele>901.5672343960032</ele>
        <time>2022-05-18T09:54:44Z</time>
      </trkpt>
      <trkpt lat="42.335549" lon="-4.736235">
        <ele>901.6079852487892</ele>
        <time>2022-05-18T09:54:52Z</time>
      </trkpt>
      <trkpt lat="42.335526" lon="-4.736361">
        <ele>900.5559611311182</ele>
        <time>2022-05-18T09:54:59Z</time>
      </trkpt>
      <trkpt lat="42.3355" lon="-4.736494">
        <ele>900.9419914577156</ele>
        <time>2022-05-18T09:55:08Z</time>
      </trkpt>
      <trkpt lat="42.335481" lon="-4.736628">
        <ele>899.8896662788466</ele>
        <time>2022-05-18T09:55:15Z</time>
      </trkpt>
      <trkpt lat="42.335481" lon="-4.736761">
        <ele>900.6469812756404</ele>
        <time>2022-05-18T09:55:23Z</time>
      </trkpt>
      <trkpt lat="42.33546" lon="-4.736884">
        <ele>901.1301079522818</ele>
        <time>2022-05-18T09:55:31Z</time>
      </trkpt>
      <trkpt lat="42.335442" lon="-4.737006">
        <ele>900.0292868549004</ele>
        <time>2022-05-18T09:55:39Z</time>
      </trkpt>
      <trkpt lat="42.335418" lon="-4.737132">
        <ele>901.4122379394248</ele>
        <time>2022-05-18T09:55:47Z</time>
      </trkpt>
      <trkpt lat="42.335402" lon="-4.737255">
        <ele>903.0909892478958</ele>
        <time>2022-05-18T09:55:55Z</time>
      </trkpt>
      <trkpt lat="42.335369" lon="-4.737378">
        <ele>903.5348364170641</ele>
        <time>2022-05-18T09:56:02Z</time>
      </trkpt>
      <trkpt lat="42.335339" lon="-4.737494">
        <ele>902.7267554868013</ele>
        <time>2022-05-18T09:56:09Z</time>
      </trkpt>
      <trkpt lat="42.335305" lon="-4.737616">
        <ele>904.7295092586428</ele>
        <time>2022-05-18T09:56:18Z</time>
      </trkpt>
      <trkpt lat="42.33528" lon="-4.737749">
        <ele>903.8624204881489</ele>
        <time>2022-05-18T09:56:25Z</time>
      </trkpt>
      <trkpt lat="42.335259" lon="-4.737872">
        <ele>902.164202420041</ele>
        <time>2022-05-18T09:56:33Z</time>
      </trkpt>
      <trkpt lat="42.335243" lon="-4.738003">
        <ele>902.278578158468</ele>
        <time>2022-05-18T09:56:41Z</time>
      </trkpt>
      <trkpt lat="42.335228" lon="-4.738123">
        <ele>901.5510843219236</ele>
        <time>2022-05-18T09:56:48Z</time>
      </trkpt>
      <trkpt lat="42.335216" lon="-4.738247">
        <ele>902.6134103266522</ele>
        <time>2022-05-18T09:56:56Z</time>
      </trkpt>
      <trkpt lat="42.335198" lon="-4.738375">
        <ele>902.1502400375903</ele>
        <time>2022-05-18T09:57:02Z</time>
      </trkpt>
      <trkpt lat="42.335179" lon="-4.738502">
        <ele>901.9071559235454</ele>
        <time>2022-05-18T09:57:10Z</time>
      </trkpt>
      <trkpt lat="42.335172" lon="-4.738626">
        <ele>901.7619223678485</ele>
        <time>2022-05-18T09:57:17Z</time>
      </trkpt>
      <trkpt lat="42.335148" lon="-4.738756">
        <ele>900.3803755575791</ele>
        <time>2022-05-18T09:57:24Z</time>
      </trkpt>
      <trkpt lat="42.33513" lon="-4.738878">
        <ele>901.3831162424758</ele>
        <time>2022-05-18T09:57:33Z</time>
      </trkpt>
      <trkpt lat="42.335114" lon="-4.739012">
        <ele>902.831158997491</ele>
        <time>2022-05-18T09:57:41Z</time>
      </trkpt>
      <trkpt lat="42.335089" lon="-4.739137">
        <ele>902.1545548960567</ele>
        <time>2022-05-18T09:57:49Z</time>
      </trkpt>
      <trkpt lat="42.335066" lon="-4.739254">
        <ele>903.3109220098704</ele>
        <time>2022-05-18T09:57:57Z</time>
      </trkpt>
      <trkpt lat="42.33505" lon="-4.73938">
        <ele>903.2443840997294</ele>
        <time>2022-05-18T09:58:03Z</time>
      </trkpt>
      <trkpt lat="42.335038" lon="-4.739503">
        <ele>901.1489060753956</ele>
        <time>2022-05-18T09:58:10Z</time>
      </trkpt>
      <trkpt lat="42.335031" lon="-4.73964">
        <ele>902.4037543945014</ele>
        <time>2022-05-18T09:58:18Z</time>
      </trkpt>
      <trkpt lat="42.33501" lon="-4.739778">
        <ele>900.5741689698771</ele>
        <time>2022-05-18T09:58:25Z</time>
      </trkpt>
      <trkpt lat="42.335005" lon="-4.739902">
        <ele>899.7501070834696</ele>
        <time>2022-05-18T09:58:33Z</time>
      </trkpt>
      <trkpt lat="42.334993" lon="-4.74003">
        <ele>899.7214883416891</ele>
        <time>2022-05-18T09:58:40Z</time>
      </trkpt>
      <trkpt lat="42.334975" lon="-4.740152">
        <ele>900.2933194534853</ele>
        <time>2022-05-18T09:58:46Z</time>
      </trkpt>
      <trkpt lat="42.334979" lon="-4.740276">
        <ele>899.6305961841717</ele>
        <time>2022-05-18T09:58:53Z</time>
      </trkpt>
      <trkpt lat="42.334976" lon="-4.740402">
        <ele>900.4199572587386</ele>
        <time>2022-05-18T09:59:01Z</time>
      </trkpt>
      <trkpt lat="42.334939" lon="-4.740513">
        <ele>898.7478614971042</ele>
        <time>2022-05-18T09:59:08Z</time>
      </trkpt>
      <trkpt lat="42.33491" lon="-4.740643">
        <ele>899.811814029701</ele>
        <time>2022-05-18T09:59:18Z</time>
      </trkpt>
      <trkpt lat="42.33488" lon="-4.740771">
        <ele>900.8683706531301</ele>
        <time>2022-05-18T09:59:25Z</time>
      </trkpt>
      <trkpt lat="42.334859" lon="-4.740889">
        <ele>900.5241134529933</ele>
        <time>2022-05-18T09:59:33Z</time>
      </trkpt>
      <trkpt lat="42.334827" lon="-4.741008">
        <ele>899.7843006681651</ele>
        <time>2022-05-18T09:59:40Z</time>
      </trkpt>
      <trkpt lat="42.334824" lon="-4.741134">
        <ele>900.9510488640517</ele>
        <time>2022-05-18T09:59:47Z</time>
      </trkpt>
      <trkpt lat="42.334779" lon="-4.741253">
        <ele>901.554598197341</ele>
        <time>2022-05-18T09:59:56Z</time>
      </trkpt>
      <trkpt lat="42.334755" lon="-4.74138">
        <ele>902.6703450186178</ele>
        <time>2022-05-18T10:00:03Z</time>
      </trkpt>
      <trkpt lat="42.334741" lon="-4.741501">
        <ele>903.365403697826</ele>
        <time>2022-05-18T10:00:11Z</time>
      </trkpt>
      <trkpt lat="42.334727" lon="-4.741627">
        <ele>906.6413336452097</ele>
        <time>2022-05-18T10:00:20Z</time>
      </trkpt>
      <trkpt lat="42.334707" lon="-4.741758">
        <ele>906.4230271028355</ele>
        <time>2022-05-18T10:00:28Z</time>
      </trkpt>
      <trkpt lat="42.334684" lon="-4.741887">
        <ele>906.9973766542971</ele>
        <time>2022-05-18T10:00:37Z</time>
      </trkpt>
      <trkpt lat="42.334657" lon="-4.742016">
        <ele>906.2998978123069</ele>
        <time>2022-05-18T10:00:45Z</time>
      </trkpt>
      <trkpt lat="42.334638" lon="-4.74214">
        <ele>905.176421825774</ele>
        <time>2022-05-18T10:00:54Z</time>
      </trkpt>
      <trkpt lat="42.334615" lon="-4.742261">
        <ele>905.0542103825137</ele>
        <time>2022-05-18T10:01:01Z</time>
      </trkpt>
      <trkpt lat="42.334612" lon="-4.742384">
        <ele>905.6568043325096</ele>
        <time>2022-05-18T10:01:25Z</time>
      </trkpt>
      <trkpt lat="42.334592" lon="-4.742504">
        <ele>907.814551660791</ele>
        <time>2022-05-18T10:01:33Z</time>
      </trkpt>
      <trkpt lat="42.334586" lon="-4.742635">
        <ele>908.0588927706704</ele>
        <time>2022-05-18T10:01:41Z</time>
      </trkpt>
      <trkpt lat="42.334583" lon="-4.742767">
        <ele>907.6351326722652</ele>
        <time>2022-05-18T10:01:49Z</time>
      </trkpt>
      <trkpt lat="42.334567" lon="-4.742893">
        <ele>907.2099337857217</ele>
        <time>2022-05-18T10:01:56Z</time>
      </trkpt>
      <trkpt lat="42.334574" lon="-4.743016">
        <ele>907.7509443918243</ele>
        <time>2022-05-18T10:02:06Z</time>
      </trkpt>
      <trkpt lat="42.334564" lon="-4.743142">
        <ele>907.9675103211775</ele>
        <time>2022-05-18T10:02:19Z</time>
      </trkpt>
      <trkpt lat="42.33455" lon="-4.743263">
        <ele>909.794296358712</ele>
        <time>2022-05-18T10:02:26Z</time>
      </trkpt>
      <trkpt lat="42.334528" lon="-4.743386">
        <ele>911.6915265442804</ele>
        <time>2022-05-18T10:02:35Z</time>
      </trkpt>
      <trkpt lat="42.334517" lon="-4.743525">
        <ele>915.0443767933175</ele>
        <time>2022-05-18T10:02:44Z</time>
      </trkpt>
      <trkpt lat="42.334501" lon="-4.743648">
        <ele>914.4662616895512</ele>
        <time>2022-05-18T10:02:51Z</time>
      </trkpt>
      <trkpt lat="42.33449" lon="-4.743771">
        <ele>912.3459467822686</ele>
        <time>2022-05-18T10:02:57Z</time>
      </trkpt>
      <trkpt lat="42.334471" lon="-4.74389">
        <ele>911.6923724962398</ele>
        <time>2022-05-18T10:03:04Z</time>
      </trkpt>
      <trkpt lat="42.334454" lon="-4.744016">
        <ele>911.9939295891672</ele>
        <time>2022-05-18T10:03:10Z</time>
      </trkpt>
      <trkpt lat="42.334425" lon="-4.744144">
        <ele>912.355338065885</ele>
        <time>2022-05-18T10:03:20Z</time>
      </trkpt>
      <trkpt lat="42.334409" lon="-4.744269">
        <ele>911.7497688038275</ele>
        <time>2022-05-18T10:03:27Z</time>
      </trkpt>
      <trkpt lat="42.334389" lon="-4.744392">
        <ele>912.8133222404867</ele>
        <time>2022-05-18T10:03:35Z</time>
      </trkpt>
      <trkpt lat="42.334374" lon="-4.74453">
        <ele>911.6282628467306</ele>
        <time>2022-05-18T10:03:43Z</time>
      </trkpt>
      <trkpt lat="42.334356" lon="-4.744657">
        <ele>911.335913868621</ele>
        <time>2022-05-18T10:03:51Z</time>
      </trkpt>
      <trkpt lat="42.334332" lon="-4.744793">
        <ele>911.2625445108861</ele>
        <time>2022-05-18T10:04:00Z</time>
      </trkpt>
      <trkpt lat="42.334299" lon="-4.744909">
        <ele>911.0417686896399</ele>
        <time>2022-05-18T10:04:07Z</time>
      </trkpt>
      <trkpt lat="42.334277" lon="-4.745036">
        <ele>911.8044120529667</ele>
        <time>2022-05-18T10:04:15Z</time>
      </trkpt>
      <trkpt lat="42.334258" lon="-4.745171">
        <ele>913.2357743792236</ele>
        <time>2022-05-18T10:04:24Z</time>
      </trkpt>
      <trkpt lat="42.334247" lon="-4.745301">
        <ele>913.8055688356981</ele>
        <time>2022-05-18T10:04:31Z</time>
      </trkpt>
      <trkpt lat="42.334227" lon="-4.745426">
        <ele>913.104687535204</ele>
        <time>2022-05-18T10:04:39Z</time>
      </trkpt>
      <trkpt lat="42.334191" lon="-4.745544">
        <ele>914.0167414713651</ele>
        <time>2022-05-18T10:04:46Z</time>
      </trkpt>
      <trkpt lat="42.334149" lon="-4.745652">
        <ele>914.0822801422328</ele>
        <time>2022-05-18T10:04:52Z</time>
      </trkpt>
      <trkpt lat="42.334137" lon="-4.745778">
        <ele>915.8149617183954</ele>
        <time>2022-05-18T10:05:00Z</time>
      </trkpt>
      <trkpt lat="42.334129" lon="-4.74591">
        <ele>915.8427901929244</ele>
        <time>2022-05-18T10:05:08Z</time>
      </trkpt>
      <trkpt lat="42.33412" lon="-4.746032">
        <ele>915.9971402063966</ele>
        <time>2022-05-18T10:05:14Z</time>
      </trkpt>
      <trkpt lat="42.334105" lon="-4.746154">
        <ele>916.494486393407</ele>
        <time>2022-05-18T10:05:21Z</time>
      </trkpt>
      <trkpt lat="42.334084" lon="-4.746274">
        <ele>915.6858685612679</ele>
        <time>2022-05-18T10:05:28Z</time>
      </trkpt>
      <trkpt lat="42.334045" lon="-4.746404">
        <ele>915.1704538846388</ele>
        <time>2022-05-18T10:05:36Z</time>
      </trkpt>
      <trkpt lat="42.33402" lon="-4.746537">
        <ele>915.1787184523419</ele>
        <time>2022-05-18T10:05:43Z</time>
      </trkpt>
      <trkpt lat="42.334009" lon="-4.746667">
        <ele>915.1122846640646</ele>
        <time>2022-05-18T10:05:50Z</time>
      </trkpt>
      <trkpt lat="42.333986" lon="-4.746795">
        <ele>915.1921467222273</ele>
        <time>2022-05-18T10:05:59Z</time>
      </trkpt>
      <trkpt lat="42.333957" lon="-4.746924">
        <ele>916.4116262858734</ele>
        <time>2022-05-18T10:06:09Z</time>
      </trkpt>
      <trkpt lat="42.333946" lon="-4.747061">
        <ele>918.2760655758902</ele>
        <time>2022-05-18T10:06:16Z</time>
      </trkpt>
      <trkpt lat="42.333945" lon="-4.747184">
        <ele>920.2578852856532</ele>
        <time>2022-05-18T10:06:23Z</time>
      </trkpt>
      <trkpt lat="42.333921" lon="-4.747322">
        <ele>919.5940618496388</ele>
        <time>2022-05-18T10:06:32Z</time>
      </trkpt>
      <trkpt lat="42.333904" lon="-4.747444">
        <ele>918.6336924983189</ele>
        <time>2022-05-18T10:06:38Z</time>
      </trkpt>
      <trkpt lat="42.333894" lon="-4.747575">
        <ele>919.6961118718609</ele>
        <time>2022-05-18T10:06:45Z</time>
      </trkpt>
      <trkpt lat="42.33387" lon="-4.747701">
        <ele>918.8256681375206</ele>
        <time>2022-05-18T10:06:52Z</time>
      </trkpt>
      <trkpt lat="42.333852" lon="-4.74783">
        <ele>918.647046180442</ele>
        <time>2022-05-18T10:07:00Z</time>
      </trkpt>
      <trkpt lat="42.333842" lon="-4.747954">
        <ele>917.3669688338414</ele>
        <time>2022-05-18T10:07:07Z</time>
      </trkpt>
      <trkpt lat="42.333835" lon="-4.74808">
        <ele>916.2909071985632</ele>
        <time>2022-05-18T10:07:13Z</time>
      </trkpt>
      <trkpt lat="42.333804" lon="-4.748208">
        <ele>916.892745135352</ele>
        <time>2022-05-18T10:07:20Z</time>
      </trkpt>
      <trkpt lat="42.333773" lon="-4.748337">
        <ele>917.7976728407666</ele>
        <time>2022-05-18T10:07:28Z</time>
      </trkpt>
      <trkpt lat="42.333736" lon="-4.748454">
        <ele>917.2421530289575</ele>
        <time>2022-05-18T10:07:36Z</time>
      </trkpt>
      <trkpt lat="42.333712" lon="-4.748586">
        <ele>918.2473756829277</ele>
        <time>2022-05-18T10:07:45Z</time>
      </trkpt>
      <trkpt lat="42.333694" lon="-4.748718">
        <ele>917.9733598986641</ele>
        <time>2022-05-18T10:07:53Z</time>
      </trkpt>
      <trkpt lat="42.333665" lon="-4.748847">
        <ele>919.0803740313277</ele>
        <time>2022-05-18T10:08:02Z</time>
      </trkpt>
      <trkpt lat="42.333658" lon="-4.748968">
        <ele>922.0713366726413</ele>
        <time>2022-05-18T10:08:11Z</time>
      </trkpt>
      <trkpt lat="42.333708" lon="-4.749074">
        <ele>920.8845365503803</ele>
        <time>2022-05-18T10:08:18Z</time>
      </trkpt>
      <trkpt lat="42.333698" lon="-4.749197">
        <ele>921.2198874400929</ele>
        <time>2022-05-18T10:08:26Z</time>
      </trkpt>
      <trkpt lat="42.333688" lon="-4.749319">
        <ele>921.4537156904116</ele>
        <time>2022-05-18T10:08:34Z</time>
      </trkpt>
      <trkpt lat="42.333699" lon="-4.749451">
        <ele>920.2362437285483</ele>
        <time>2022-05-18T10:09:19Z</time>
      </trkpt>
      <trkpt lat="42.33366" lon="-4.749572">
        <ele>919.7502442775294</ele>
        <time>2022-05-18T10:09:29Z</time>
      </trkpt>
      <trkpt lat="42.333647" lon="-4.749706">
        <ele>918.4538847496733</ele>
        <time>2022-05-18T10:09:37Z</time>
      </trkpt>
      <trkpt lat="42.333637" lon="-4.749828">
        <ele>919.060921899043</ele>
        <time>2022-05-18T10:09:45Z</time>
      </trkpt>
      <trkpt lat="42.333649" lon="-4.749954">
        <ele>920.6948027228937</ele>
        <time>2022-05-18T10:09:54Z</time>
      </trkpt>
      <trkpt lat="42.333645" lon="-4.750077">
        <ele>921.74565492291</ele>
        <time>2022-05-18T10:10:06Z</time>
      </trkpt>
      <trkpt lat="42.333705" lon="-4.750171">
        <ele>917.220118155703</ele>
        <time>2022-05-18T10:12:00Z</time>
      </trkpt>
      <trkpt lat="42.33362" lon="-4.75027">
        <ele>919.1282202685252</ele>
        <time>2022-05-18T10:12:19Z</time>
      </trkpt>
      <trkpt lat="42.333697" lon="-4.750332">
        <ele>920.4970788899809</ele>
        <time>2022-05-18T10:12:53Z</time>
      </trkpt>
      <trkpt lat="42.333703" lon="-4.75021">
        <ele>928.8052919441834</ele>
        <time>2022-05-18T10:13:41Z</time>
      </trkpt>
      <trkpt lat="42.333798" lon="-4.750179">
        <ele>929.7320050830022</ele>
        <time>2022-05-18T10:14:55Z</time>
      </trkpt>
      <trkpt lat="42.333903" lon="-4.75016">
        <ele>929.553928126581</ele>
        <time>2022-05-18T10:14:58Z</time>
      </trkpt>
      <trkpt lat="42.333789" lon="-4.750169">
        <ele>930.1091036833823</ele>
        <time>2022-05-18T10:15:02Z</time>
      </trkpt>
      <trkpt lat="42.333677" lon="-4.750156">
        <ele>929.4553054571152</ele>
        <time>2022-05-18T10:15:11Z</time>
      </trkpt>
      <trkpt lat="42.333586" lon="-4.75011">
        <ele>926.3782282788306</ele>
        <time>2022-05-18T10:15:34Z</time>
      </trkpt>
      <trkpt lat="42.333484" lon="-4.750067">
        <ele>922.9576419861987</ele>
        <time>2022-05-18T10:16:20Z</time>
      </trkpt>
      <trkpt lat="42.333396" lon="-4.750017">
        <ele>920.3150474736467</ele>
        <time>2022-05-18T10:16:54Z</time>
      </trkpt>
      <trkpt lat="42.333347" lon="-4.749897">
        <ele>915.1615451881662</ele>
        <time>2022-05-18T10:18:53Z</time>
      </trkpt>
      <trkpt lat="42.33325" lon="-4.749904">
        <ele>915.4072778541595</ele>
        <time>2022-05-18T10:19:56Z</time>
      </trkpt>
      <trkpt lat="42.333316" lon="-4.749807">
        <ele>915.5550173101947</ele>
        <time>2022-05-18T10:21:42Z</time>
      </trkpt>
      <trkpt lat="42.333365" lon="-4.74991">
        <ele>912.1218347800896</ele>
        <time>2022-05-18T10:22:21Z</time>
      </trkpt>
      <trkpt lat="42.333466" lon="-4.749944">
        <ele>908.81158870738</ele>
        <time>2022-05-18T10:23:51Z</time>
      </trkpt>
      <trkpt lat="42.333551" lon="-4.749997">
        <ele>908.8902139989659</ele>
        <time>2022-05-18T10:24:34Z</time>
      </trkpt>
      <trkpt lat="42.333531" lon="-4.750121">
        <ele>923.0823631305248</ele>
        <time>2022-05-18T10:28:39Z</time>
      </trkpt>
      <trkpt lat="42.333493" lon="-4.750233">
        <ele>920.953945895657</ele>
        <time>2022-05-18T10:28:48Z</time>
      </trkpt>
      <trkpt lat="42.333548" lon="-4.750126">
        <ele>922.6782174455002</ele>
        <time>2022-05-18T10:29:01Z</time>
      </trkpt>
      <trkpt lat="42.333502" lon="-4.750245">
        <ele>925.4616793487221</ele>
        <time>2022-05-18T10:29:32Z</time>
      </trkpt>
      <trkpt lat="42.333492" lon="-4.750377">
        <ele>926.222931843251</ele>
        <time>2022-05-18T10:29:41Z</time>
      </trkpt>
      <trkpt lat="42.333471" lon="-4.750504">
        <ele>925.7889502979815</ele>
        <time>2022-05-18T10:29:47Z</time>
      </trkpt>
      <trkpt lat="42.333431" lon="-4.75062">
        <ele>928.6725790193304</ele>
        <time>2022-05-18T10:29:56Z</time>
      </trkpt>
      <trkpt lat="42.333405" lon="-4.750747">
        <ele>928.7448909301311</ele>
        <time>2022-05-18T10:30:04Z</time>
      </trkpt>
      <trkpt lat="42.333367" lon="-4.750858">
        <ele>930.7014854745939</ele>
        <time>2022-05-18T10:30:12Z</time>
      </trkpt>
      <trkpt lat="42.33336" lon="-4.750995">
        <ele>930.8992656152695</ele>
        <time>2022-05-18T10:30:19Z</time>
      </trkpt>
      <trkpt lat="42.333337" lon="-4.751115">
        <ele>930.8279852280393</ele>
        <time>2022-05-18T10:30:25Z</time>
      </trkpt>
      <trkpt lat="42.333311" lon="-4.751254">
        <ele>930.1778410933912</ele>
        <time>2022-05-18T10:30:32Z</time>
      </trkpt>
      <trkpt lat="42.333295" lon="-4.751376">
        <ele>930.6166571769863</ele>
        <time>2022-05-18T10:30:37Z</time>
      </trkpt>
      <trkpt lat="42.333274" lon="-4.751497">
        <ele>931.4627845603973</ele>
        <time>2022-05-18T10:30:44Z</time>
      </trkpt>
      <trkpt lat="42.333254" lon="-4.75162">
        <ele>932.5401772484183</ele>
        <time>2022-05-18T10:30:51Z</time>
      </trkpt>
      <trkpt lat="42.333221" lon="-4.751738">
        <ele>934.8115629870445</ele>
        <time>2022-05-18T10:30:59Z</time>
      </trkpt>
      <trkpt lat="42.333206" lon="-4.751877">
        <ele>934.5531478049234</ele>
        <time>2022-05-18T10:31:06Z</time>
      </trkpt>
      <trkpt lat="42.333192" lon="-4.752005">
        <ele>934.5431792773306</ele>
        <time>2022-05-18T10:31:12Z</time>
      </trkpt>
      <trkpt lat="42.333174" lon="-4.752134">
        <ele>934.8242883384228</ele>
        <time>2022-05-18T10:31:18Z</time>
      </trkpt>
      <trkpt lat="42.333144" lon="-4.752267">
        <ele>936.358410875313</ele>
        <time>2022-05-18T10:31:24Z</time>
      </trkpt>
      <trkpt lat="42.333111" lon="-4.752391">
        <ele>937.5051608290523</ele>
        <time>2022-05-18T10:31:29Z</time>
      </trkpt>
      <trkpt lat="42.333085" lon="-4.75252">
        <ele>939.5834141010419</ele>
        <time>2022-05-18T10:31:35Z</time>
      </trkpt>
      <trkpt lat="42.333074" lon="-4.752654">
        <ele>940.8141361689195</ele>
        <time>2022-05-18T10:31:42Z</time>
      </trkpt>
      <trkpt lat="42.333058" lon="-4.752776">
        <ele>940.4642593590543</ele>
        <time>2022-05-18T10:31:48Z</time>
      </trkpt>
      <trkpt lat="42.333048" lon="-4.752899">
        <ele>940.6689981287345</ele>
        <time>2022-05-18T10:31:54Z</time>
      </trkpt>
      <trkpt lat="42.333019" lon="-4.753036">
        <ele>941.3014921061695</ele>
        <time>2022-05-18T10:32:01Z</time>
      </trkpt>
      <trkpt lat="42.332987" lon="-4.753161">
        <ele>941.3428162457421</ele>
        <time>2022-05-18T10:32:07Z</time>
      </trkpt>
      <trkpt lat="42.33299" lon="-4.753286">
        <ele>940.6413090266287</ele>
        <time>2022-05-18T10:32:13Z</time>
      </trkpt>
      <trkpt lat="42.332966" lon="-4.753415">
        <ele>941.4027958055958</ele>
        <time>2022-05-18T10:32:21Z</time>
      </trkpt>
      <trkpt lat="42.332951" lon="-4.753541">
        <ele>940.5580761991441</ele>
        <time>2022-05-18T10:32:28Z</time>
      </trkpt>
      <trkpt lat="42.33294" lon="-4.753674">
        <ele>938.9770340044051</ele>
        <time>2022-05-18T10:32:35Z</time>
      </trkpt>
      <trkpt lat="42.332919" lon="-4.753805">
        <ele>939.6239543715492</ele>
        <time>2022-05-18T10:32:43Z</time>
      </trkpt>
      <trkpt lat="42.332909" lon="-4.753926">
        <ele>937.8737890115008</ele>
        <time>2022-05-18T10:32:50Z</time>
      </trkpt>
      <trkpt lat="42.332887" lon="-4.754055">
        <ele>936.7026158366352</ele>
        <time>2022-05-18T10:32:57Z</time>
      </trkpt>
      <trkpt lat="42.332869" lon="-4.754184">
        <ele>936.859250979498</ele>
        <time>2022-05-18T10:33:06Z</time>
      </trkpt>
      <trkpt lat="42.332856" lon="-4.754309">
        <ele>937.4286652980372</ele>
        <time>2022-05-18T10:33:15Z</time>
      </trkpt>
      <trkpt lat="42.332849" lon="-4.754445">
        <ele>936.5684712398797</ele>
        <time>2022-05-18T10:33:23Z</time>
      </trkpt>
      <trkpt lat="42.332843" lon="-4.754578">
        <ele>935.6097627105191</ele>
        <time>2022-05-18T10:33:31Z</time>
      </trkpt>
      <trkpt lat="42.332826" lon="-4.754711">
        <ele>936.0549494307488</ele>
        <time>2022-05-18T10:33:39Z</time>
      </trkpt>
      <trkpt lat="42.33281" lon="-4.754834">
        <ele>935.4980100244284</ele>
        <time>2022-05-18T10:33:47Z</time>
      </trkpt>
      <trkpt lat="42.332802" lon="-4.754963">
        <ele>935.3339441614226</ele>
        <time>2022-05-18T10:33:54Z</time>
      </trkpt>
      <trkpt lat="42.332772" lon="-4.755092">
        <ele>934.602684089914</ele>
        <time>2022-05-18T10:34:02Z</time>
      </trkpt>
      <trkpt lat="42.33273" lon="-4.755209">
        <ele>936.2673133155331</ele>
        <time>2022-05-18T10:34:09Z</time>
      </trkpt>
      <trkpt lat="42.332679" lon="-4.755323">
        <ele>938.5571873243898</ele>
        <time>2022-05-18T10:34:16Z</time>
      </trkpt>
      <trkpt lat="42.332662" lon="-4.755444">
        <ele>941.6846047509462</ele>
        <time>2022-05-18T10:34:25Z</time>
      </trkpt>
      <trkpt lat="42.33263" lon="-4.755566">
        <ele>942.9741962365806</ele>
        <time>2022-05-18T10:34:32Z</time>
      </trkpt>
      <trkpt lat="42.332582" lon="-4.755682">
        <ele>943.2317224713042</ele>
        <time>2022-05-18T10:34:41Z</time>
      </trkpt>
      <trkpt lat="42.332569" lon="-4.755812">
        <ele>943.993089937605</ele>
        <time>2022-05-18T10:34:47Z</time>
      </trkpt>
      <trkpt lat="42.332525" lon="-4.755923">
        <ele>942.7152836984023</ele>
        <time>2022-05-18T10:34:55Z</time>
      </trkpt>
      <trkpt lat="42.332498" lon="-4.756048">
        <ele>941.778962736018</ele>
        <time>2022-05-18T10:35:03Z</time>
      </trkpt>
      <trkpt lat="42.332451" lon="-4.756166">
        <ele>942.3900583228096</ele>
        <time>2022-05-18T10:35:11Z</time>
      </trkpt>
      <trkpt lat="42.332461" lon="-4.756299">
        <ele>942.2588311433792</ele>
        <time>2022-05-18T10:35:19Z</time>
      </trkpt>
      <trkpt lat="42.332451" lon="-4.756433">
        <ele>940.9182958714664</ele>
        <time>2022-05-18T10:35:26Z</time>
      </trkpt>
      <trkpt lat="42.332415" lon="-4.756551">
        <ele>940.5244882944971</ele>
        <time>2022-05-18T10:35:34Z</time>
      </trkpt>
      <trkpt lat="42.332395" lon="-4.756683">
        <ele>939.4843443073332</ele>
        <time>2022-05-18T10:35:42Z</time>
      </trkpt>
      <trkpt lat="42.332379" lon="-4.756803">
        <ele>939.3332950845361</ele>
        <time>2022-05-18T10:35:48Z</time>
      </trkpt>
      <trkpt lat="42.332365" lon="-4.756924">
        <ele>939.5474784132093</ele>
        <time>2022-05-18T10:35:55Z</time>
      </trkpt>
      <trkpt lat="42.332345" lon="-4.757049">
        <ele>938.7031434038654</ele>
        <time>2022-05-18T10:36:07Z</time>
      </trkpt>
      <trkpt lat="42.332346" lon="-4.75718">
        <ele>937.833393056877</ele>
        <time>2022-05-18T10:36:13Z</time>
      </trkpt>
      <trkpt lat="42.332311" lon="-4.757302">
        <ele>936.1543019842356</ele>
        <time>2022-05-18T10:36:21Z</time>
      </trkpt>
      <trkpt lat="42.332292" lon="-4.757432">
        <ele>935.718829552643</ele>
        <time>2022-05-18T10:36:28Z</time>
      </trkpt>
      <trkpt lat="42.332296" lon="-4.757562">
        <ele>935.9504968002439</ele>
        <time>2022-05-18T10:36:37Z</time>
      </trkpt>
      <trkpt lat="42.332256" lon="-4.757691">
        <ele>935.7206181688234</ele>
        <time>2022-05-18T10:36:44Z</time>
      </trkpt>
      <trkpt lat="42.332226" lon="-4.757808">
        <ele>936.2330837901682</ele>
        <time>2022-05-18T10:36:56Z</time>
      </trkpt>
      <trkpt lat="42.332215" lon="-4.757942">
        <ele>937.2974858768284</ele>
        <time>2022-05-18T10:37:03Z</time>
      </trkpt>
      <trkpt lat="42.332185" lon="-4.758068">
        <ele>938.6049886010587</ele>
        <time>2022-05-18T10:37:14Z</time>
      </trkpt>
      <trkpt lat="42.33214" lon="-4.758182">
        <ele>939.9648053031415</ele>
        <time>2022-05-18T10:37:22Z</time>
      </trkpt>
      <trkpt lat="42.332143" lon="-4.758305">
        <ele>942.2598486309871</ele>
        <time>2022-05-18T10:37:30Z</time>
      </trkpt>
      <trkpt lat="42.332148" lon="-4.75843">
        <ele>942.5190837951377</ele>
        <time>2022-05-18T10:37:40Z</time>
      </trkpt>
      <trkpt lat="42.332148" lon="-4.758554">
        <ele>943.7639922462404</ele>
        <time>2022-05-18T10:37:49Z</time>
      </trkpt>
      <trkpt lat="42.332103" lon="-4.75867">
        <ele>945.6790344137698</ele>
        <time>2022-05-18T10:37:58Z</time>
      </trkpt>
      <trkpt lat="42.332066" lon="-4.758792">
        <ele>946.1357275657356</ele>
        <time>2022-05-18T10:38:07Z</time>
      </trkpt>
      <trkpt lat="42.332046" lon="-4.758913">
        <ele>946.5720258858055</ele>
        <time>2022-05-18T10:38:15Z</time>
      </trkpt>
      <trkpt lat="42.332017" lon="-4.759035">
        <ele>947.1894348673522</ele>
        <time>2022-05-18T10:38:23Z</time>
      </trkpt>
      <trkpt lat="42.332008" lon="-4.759186">
        <ele>945.5135371387005</ele>
        <time>2022-05-18T10:38:30Z</time>
      </trkpt>
      <trkpt lat="42.331979" lon="-4.759305">
        <ele>945.7887562904507</ele>
        <time>2022-05-18T10:38:38Z</time>
      </trkpt>
      <trkpt lat="42.331957" lon="-4.759435">
        <ele>947.0959121882915</ele>
        <time>2022-05-18T10:38:46Z</time>
      </trkpt>
      <trkpt lat="42.33193" lon="-4.759563">
        <ele>948.3881733929738</ele>
        <time>2022-05-18T10:38:53Z</time>
      </trkpt>
      <trkpt lat="42.331924" lon="-4.7597">
        <ele>949.6675401329994</ele>
        <time>2022-05-18T10:39:01Z</time>
      </trkpt>
      <trkpt lat="42.331908" lon="-4.75983">
        <ele>949.9958186969161</ele>
        <time>2022-05-18T10:39:08Z</time>
      </trkpt>
      <trkpt lat="42.331869" lon="-4.75995">
        <ele>949.5508245211095</ele>
        <time>2022-05-18T10:39:16Z</time>
      </trkpt>
      <trkpt lat="42.331844" lon="-4.760087">
        <ele>948.5753621151671</ele>
        <time>2022-05-18T10:39:25Z</time>
      </trkpt>
      <trkpt lat="42.331804" lon="-4.760202">
        <ele>949.549807052128</ele>
        <time>2022-05-18T10:39:32Z</time>
      </trkpt>
      <trkpt lat="42.331764" lon="-4.760322">
        <ele>950.1611320124939</ele>
        <time>2022-05-18T10:39:39Z</time>
      </trkpt>
      <trkpt lat="42.331761" lon="-4.760452">
        <ele>950.5914528435096</ele>
        <time>2022-05-18T10:39:48Z</time>
      </trkpt>
      <trkpt lat="42.331731" lon="-4.76058">
        <ele>951.2486341921613</ele>
        <time>2022-05-18T10:39:55Z</time>
      </trkpt>
      <trkpt lat="42.331707" lon="-4.760701">
        <ele>951.3848327239975</ele>
        <time>2022-05-18T10:40:04Z</time>
      </trkpt>
      <trkpt lat="42.331674" lon="-4.760817">
        <ele>949.0276111876592</ele>
        <time>2022-05-18T10:40:11Z</time>
      </trkpt>
      <trkpt lat="42.331636" lon="-4.76093">
        <ele>947.8346349196509</ele>
        <time>2022-05-18T10:40:18Z</time>
      </trkpt>
      <trkpt lat="42.331641" lon="-4.761054">
        <ele>945.5238886922598</ele>
        <time>2022-05-18T10:40:24Z</time>
      </trkpt>
      <trkpt lat="42.331629" lon="-4.761182">
        <ele>944.716644170694</ele>
        <time>2022-05-18T10:40:33Z</time>
      </trkpt>
      <trkpt lat="42.331579" lon="-4.761297">
        <ele>944.622506454587</ele>
        <time>2022-05-18T10:40:41Z</time>
      </trkpt>
      <trkpt lat="42.331534" lon="-4.761409">
        <ele>944.8273368366063</ele>
        <time>2022-05-18T10:40:48Z</time>
      </trkpt>
      <trkpt lat="42.331502" lon="-4.761523">
        <ele>945.1364693380892</ele>
        <time>2022-05-18T10:40:56Z</time>
      </trkpt>
      <trkpt lat="42.331492" lon="-4.761648">
        <ele>944.3301407452673</ele>
        <time>2022-05-18T10:41:03Z</time>
      </trkpt>
      <trkpt lat="42.33147" lon="-4.761777">
        <ele>943.9939589267597</ele>
        <time>2022-05-18T10:41:10Z</time>
      </trkpt>
      <trkpt lat="42.331448" lon="-4.761896">
        <ele>943.6295224949718</ele>
        <time>2022-05-18T10:41:17Z</time>
      </trkpt>
      <trkpt lat="42.331438" lon="-4.762022">
        <ele>943.0912715634331</ele>
        <time>2022-05-18T10:41:24Z</time>
      </trkpt>
      <trkpt lat="42.331426" lon="-4.762145">
        <ele>943.0796179128811</ele>
        <time>2022-05-18T10:41:30Z</time>
      </trkpt>
      <trkpt lat="42.331404" lon="-4.762265">
        <ele>942.980710898526</ele>
        <time>2022-05-18T10:41:37Z</time>
      </trkpt>
      <trkpt lat="42.33137" lon="-4.762387">
        <ele>943.3099431861192</ele>
        <time>2022-05-18T10:41:44Z</time>
      </trkpt>
      <trkpt lat="42.331354" lon="-4.762511">
        <ele>944.0703756771982</ele>
        <time>2022-05-18T10:41:50Z</time>
      </trkpt>
      <trkpt lat="42.331339" lon="-4.762649">
        <ele>942.694856791757</ele>
        <time>2022-05-18T10:42:00Z</time>
      </trkpt>
      <trkpt lat="42.331334" lon="-4.762781">
        <ele>942.7750257104635</ele>
        <time>2022-05-18T10:42:06Z</time>
      </trkpt>
      <trkpt lat="42.331302" lon="-4.762897">
        <ele>943.3033242616802</ele>
        <time>2022-05-18T10:42:12Z</time>
      </trkpt>
      <trkpt lat="42.331281" lon="-4.763019">
        <ele>942.8415565583855</ele>
        <time>2022-05-18T10:42:21Z</time>
      </trkpt>
      <trkpt lat="42.331262" lon="-4.763138">
        <ele>943.9243780747056</ele>
        <time>2022-05-18T10:42:28Z</time>
      </trkpt>
      <trkpt lat="42.331209" lon="-4.763249">
        <ele>943.2312324065715</ele>
        <time>2022-05-18T10:42:37Z</time>
      </trkpt>
      <trkpt lat="42.331197" lon="-4.763386">
        <ele>943.9219541326165</ele>
        <time>2022-05-18T10:42:45Z</time>
      </trkpt>
      <trkpt lat="42.331178" lon="-4.763526">
        <ele>943.3464406440035</ele>
        <time>2022-05-18T10:42:52Z</time>
      </trkpt>
      <trkpt lat="42.331135" lon="-4.763642">
        <ele>944.1615541940555</ele>
        <time>2022-05-18T10:43:01Z</time>
      </trkpt>
      <trkpt lat="42.331104" lon="-4.763765">
        <ele>944.0215279329568</ele>
        <time>2022-05-18T10:43:09Z</time>
      </trkpt>
      <trkpt lat="42.331079" lon="-4.763882">
        <ele>945.129570866935</ele>
        <time>2022-05-18T10:43:15Z</time>
      </trkpt>
      <trkpt lat="42.331043" lon="-4.763996">
        <ele>946.5641919840127</ele>
        <time>2022-05-18T10:43:24Z</time>
      </trkpt>
      <trkpt lat="42.331012" lon="-4.764115">
        <ele>947.2557188421488</ele>
        <time>2022-05-18T10:43:32Z</time>
      </trkpt>
      <trkpt lat="42.330984" lon="-4.764237">
        <ele>947.431538425386</ele>
        <time>2022-05-18T10:43:39Z</time>
      </trkpt>
      <trkpt lat="42.33096" lon="-4.764357">
        <ele>947.7218466158956</ele>
        <time>2022-05-18T10:43:46Z</time>
      </trkpt>
      <trkpt lat="42.330942" lon="-4.764477">
        <ele>947.5022523934022</ele>
        <time>2022-05-18T10:43:54Z</time>
      </trkpt>
      <trkpt lat="42.330918" lon="-4.764595">
        <ele>946.299133092165</ele>
        <time>2022-05-18T10:44:01Z</time>
      </trkpt>
      <trkpt lat="42.330875" lon="-4.764705">
        <ele>944.7872903300449</ele>
        <time>2022-05-18T10:44:08Z</time>
      </trkpt>
      <trkpt lat="42.330855" lon="-4.76483">
        <ele>943.3168856268749</ele>
        <time>2022-05-18T10:44:16Z</time>
      </trkpt>
      <trkpt lat="42.330837" lon="-4.764953">
        <ele>941.6829412905499</ele>
        <time>2022-05-18T10:44:23Z</time>
      </trkpt>
      <trkpt lat="42.33082" lon="-4.765081">
        <ele>941.9924660045654</ele>
        <time>2022-05-18T10:44:29Z</time>
      </trkpt>
      <trkpt lat="42.330801" lon="-4.765205">
        <ele>942.6654122602195</ele>
        <time>2022-05-18T10:44:36Z</time>
      </trkpt>
      <trkpt lat="42.33078" lon="-4.765333">
        <ele>942.7923610452563</ele>
        <time>2022-05-18T10:44:44Z</time>
      </trkpt>
      <trkpt lat="42.330763" lon="-4.765458">
        <ele>942.0271421018988</ele>
        <time>2022-05-18T10:44:51Z</time>
      </trkpt>
      <trkpt lat="42.330746" lon="-4.76558">
        <ele>941.4709667200223</ele>
        <time>2022-05-18T10:44:57Z</time>
      </trkpt>
      <trkpt lat="42.33072" lon="-4.765697">
        <ele>941.723768000491</ele>
        <time>2022-05-18T10:45:04Z</time>
      </trkpt>
      <trkpt lat="42.330692" lon="-4.765816">
        <ele>943.4956015432253</ele>
        <time>2022-05-18T10:45:12Z</time>
      </trkpt>
      <trkpt lat="42.330666" lon="-4.765934">
        <ele>944.158361309208</ele>
        <time>2022-05-18T10:45:19Z</time>
      </trkpt>
      <trkpt lat="42.330633" lon="-4.766064">
        <ele>943.4450253974646</ele>
        <time>2022-05-18T10:45:27Z</time>
      </trkpt>
      <trkpt lat="42.330605" lon="-4.766186">
        <ele>943.9481321619824</ele>
        <time>2022-05-18T10:45:34Z</time>
      </trkpt>
      <trkpt lat="42.330584" lon="-4.766321">
        <ele>944.0385774327442</ele>
        <time>2022-05-18T10:45:43Z</time>
      </trkpt>
      <trkpt lat="42.330574" lon="-4.766445">
        <ele>944.6230795755982</ele>
        <time>2022-05-18T10:45:50Z</time>
      </trkpt>
      <trkpt lat="42.330548" lon="-4.766567">
        <ele>944.7465163869783</ele>
        <time>2022-05-18T10:45:57Z</time>
      </trkpt>
      <trkpt lat="42.330498" lon="-4.766677">
        <ele>942.2696943273768</ele>
        <time>2022-05-18T10:46:03Z</time>
      </trkpt>
      <trkpt lat="42.330463" lon="-4.76679">
        <ele>941.2872233428061</ele>
        <time>2022-05-18T10:46:10Z</time>
      </trkpt>
      <trkpt lat="42.330446" lon="-4.766917">
        <ele>941.1150732496753</ele>
        <time>2022-05-18T10:46:17Z</time>
      </trkpt>
      <trkpt lat="42.330439" lon="-4.767048">
        <ele>940.8743394911289</ele>
        <time>2022-05-18T10:46:24Z</time>
      </trkpt>
      <trkpt lat="42.330402" lon="-4.767164">
        <ele>940.6717798691243</ele>
        <time>2022-05-18T10:46:32Z</time>
      </trkpt>
      <trkpt lat="42.330397" lon="-4.767307">
        <ele>943.2851587571204</ele>
        <time>2022-05-18T10:46:40Z</time>
      </trkpt>
      <trkpt lat="42.330358" lon="-4.767434">
        <ele>942.489480596967</ele>
        <time>2022-05-18T10:46:47Z</time>
      </trkpt>
      <trkpt lat="42.330329" lon="-4.767556">
        <ele>940.1693374915048</ele>
        <time>2022-05-18T10:46:55Z</time>
      </trkpt>
      <trkpt lat="42.330304" lon="-4.767683">
        <ele>940.2081099422649</ele>
        <time>2022-05-18T10:47:03Z</time>
      </trkpt>
      <trkpt lat="42.330274" lon="-4.767799">
        <ele>941.0751295192167</ele>
        <time>2022-05-18T10:47:09Z</time>
      </trkpt>
      <trkpt lat="42.330243" lon="-4.767919">
        <ele>940.2457229420543</ele>
        <time>2022-05-18T10:47:17Z</time>
      </trkpt>
      <trkpt lat="42.330239" lon="-4.768056">
        <ele>942.9333516294137</ele>
        <time>2022-05-18T10:47:25Z</time>
      </trkpt>
      <trkpt lat="42.33021" lon="-4.768187">
        <ele>942.6173295909539</ele>
        <time>2022-05-18T10:47:32Z</time>
      </trkpt>
      <trkpt lat="42.330163" lon="-4.768303">
        <ele>943.7579907393083</ele>
        <time>2022-05-18T10:47:39Z</time>
      </trkpt>
      <trkpt lat="42.330125" lon="-4.76842">
        <ele>944.1043378859758</ele>
        <time>2022-05-18T10:47:48Z</time>
      </trkpt>
      <trkpt lat="42.330116" lon="-4.768554">
        <ele>944.2955209864303</ele>
        <time>2022-05-18T10:47:56Z</time>
      </trkpt>
      <trkpt lat="42.330105" lon="-4.768677">
        <ele>944.9309751605615</ele>
        <time>2022-05-18T10:48:03Z</time>
      </trkpt>
      <trkpt lat="42.330065" lon="-4.768789">
        <ele>943.4648440238088</ele>
        <time>2022-05-18T10:48:10Z</time>
      </trkpt>
      <trkpt lat="42.330035" lon="-4.768915">
        <ele>941.4610215891153</ele>
        <time>2022-05-18T10:48:17Z</time>
      </trkpt>
      <trkpt lat="42.330016" lon="-4.769047">
        <ele>941.2561735305935</ele>
        <time>2022-05-18T10:48:28Z</time>
      </trkpt>
      <trkpt lat="42.330008" lon="-4.769179">
        <ele>942.1610082918778</ele>
        <time>2022-05-18T10:48:34Z</time>
      </trkpt>
      <trkpt lat="42.329964" lon="-4.7693">
        <ele>940.3782392293215</ele>
        <time>2022-05-18T10:48:42Z</time>
      </trkpt>
      <trkpt lat="42.329957" lon="-4.769424">
        <ele>942.6501731630415</ele>
        <time>2022-05-18T10:48:50Z</time>
      </trkpt>
      <trkpt lat="42.32994" lon="-4.769559">
        <ele>944.2946530180052</ele>
        <time>2022-05-18T10:48:58Z</time>
      </trkpt>
      <trkpt lat="42.329901" lon="-4.769673">
        <ele>942.1653853682801</ele>
        <time>2022-05-18T10:49:05Z</time>
      </trkpt>
      <trkpt lat="42.329872" lon="-4.769797">
        <ele>942.1750270072371</ele>
        <time>2022-05-18T10:49:13Z</time>
      </trkpt>
      <trkpt lat="42.329844" lon="-4.769919">
        <ele>943.8077682582662</ele>
        <time>2022-05-18T10:49:20Z</time>
      </trkpt>
      <trkpt lat="42.329812" lon="-4.77004">
        <ele>945.1453411020339</ele>
        <time>2022-05-18T10:49:28Z</time>
      </trkpt>
      <trkpt lat="42.329809" lon="-4.770165">
        <ele>944.5802292488515</ele>
        <time>2022-05-18T10:49:35Z</time>
      </trkpt>
      <trkpt lat="42.329779" lon="-4.770282">
        <ele>946.5841899830848</ele>
        <time>2022-05-18T10:49:43Z</time>
      </trkpt>
      <trkpt lat="42.329761" lon="-4.770409">
        <ele>946.6587017523125</ele>
        <time>2022-05-18T10:49:51Z</time>
      </trkpt>
      <trkpt lat="42.329738" lon="-4.770534">
        <ele>945.6710324194282</ele>
        <time>2022-05-18T10:49:58Z</time>
      </trkpt>
      <trkpt lat="42.329706" lon="-4.770654">
        <ele>949.4756915839389</ele>
        <time>2022-05-18T10:50:06Z</time>
      </trkpt>
      <trkpt lat="42.329682" lon="-4.770785">
        <ele>948.6879252493382</ele>
        <time>2022-05-18T10:50:13Z</time>
      </trkpt>
      <trkpt lat="42.329675" lon="-4.770913">
        <ele>950.6442567622289</ele>
        <time>2022-05-18T10:50:21Z</time>
      </trkpt>
      <trkpt lat="42.329643" lon="-4.771042">
        <ele>949.0672333054245</ele>
        <time>2022-05-18T10:50:28Z</time>
      </trkpt>
      <trkpt lat="42.329628" lon="-4.771177">
        <ele>946.6017228998244</ele>
        <time>2022-05-18T10:50:35Z</time>
      </trkpt>
      <trkpt lat="42.329627" lon="-4.771307">
        <ele>945.8624299056828</ele>
        <time>2022-05-18T10:50:43Z</time>
      </trkpt>
      <trkpt lat="42.329614" lon="-4.771437">
        <ele>945.9938629223034</ele>
        <time>2022-05-18T10:50:50Z</time>
      </trkpt>
      <trkpt lat="42.329595" lon="-4.771564">
        <ele>946.873502984643</ele>
        <time>2022-05-18T10:50:58Z</time>
      </trkpt>
      <trkpt lat="42.329557" lon="-4.771693">
        <ele>944.7770144687966</ele>
        <time>2022-05-18T10:51:06Z</time>
      </trkpt>
      <trkpt lat="42.329537" lon="-4.771818">
        <ele>944.1460471786559</ele>
        <time>2022-05-18T10:51:13Z</time>
      </trkpt>
      <trkpt lat="42.329557" lon="-4.771939">
        <ele>946.1269422760233</ele>
        <time>2022-05-18T10:51:19Z</time>
      </trkpt>
      <trkpt lat="42.329549" lon="-4.772063">
        <ele>945.6796176591888</ele>
        <time>2022-05-18T10:51:27Z</time>
      </trkpt>
      <trkpt lat="42.329537" lon="-4.772202">
        <ele>943.7883199267089</ele>
        <time>2022-05-18T10:51:34Z</time>
      </trkpt>
      <trkpt lat="42.329521" lon="-4.772327">
        <ele>945.0838864194229</ele>
        <time>2022-05-18T10:51:41Z</time>
      </trkpt>
      <trkpt lat="42.329498" lon="-4.772456">
        <ele>944.4972205488011</ele>
        <time>2022-05-18T10:51:49Z</time>
      </trkpt>
      <trkpt lat="42.329484" lon="-4.772584">
        <ele>946.045766748488</ele>
        <time>2022-05-18T10:51:57Z</time>
      </trkpt>
      <trkpt lat="42.329484" lon="-4.772716">
        <ele>947.0264666881412</ele>
        <time>2022-05-18T10:52:03Z</time>
      </trkpt>
      <trkpt lat="42.329468" lon="-4.772843">
        <ele>946.274724798277</ele>
        <time>2022-05-18T10:52:12Z</time>
      </trkpt>
      <trkpt lat="42.329477" lon="-4.772972">
        <ele>945.5601353878155</ele>
        <time>2022-05-18T10:52:19Z</time>
      </trkpt>
      <trkpt lat="42.329473" lon="-4.773102">
        <ele>945.2772949934006</ele>
        <time>2022-05-18T10:52:26Z</time>
      </trkpt>
      <trkpt lat="42.329464" lon="-4.773232">
        <ele>944.1006450327113</ele>
        <time>2022-05-18T10:52:34Z</time>
      </trkpt>
      <trkpt lat="42.32945" lon="-4.773359">
        <ele>944.4191521955654</ele>
        <time>2022-05-18T10:52:42Z</time>
      </trkpt>
      <trkpt lat="42.329437" lon="-4.773494">
        <ele>945.45556444861</ele>
        <time>2022-05-18T10:52:51Z</time>
      </trkpt>
      <trkpt lat="42.329423" lon="-4.773627">
        <ele>948.0736226215959</ele>
        <time>2022-05-18T10:53:00Z</time>
      </trkpt>
      <trkpt lat="42.329391" lon="-4.773745">
        <ele>946.5906470436603</ele>
        <time>2022-05-18T10:53:10Z</time>
      </trkpt>
      <trkpt lat="42.329381" lon="-4.773876">
        <ele>944.7963618338108</ele>
        <time>2022-05-18T10:53:20Z</time>
      </trkpt>
      <trkpt lat="42.329378" lon="-4.774007">
        <ele>944.1974989874288</ele>
        <time>2022-05-18T10:53:29Z</time>
      </trkpt>
      <trkpt lat="42.329364" lon="-4.774129">
        <ele>944.5411732476205</ele>
        <time>2022-05-18T10:53:38Z</time>
      </trkpt>
      <trkpt lat="42.32935" lon="-4.774266">
        <ele>944.1594478180632</ele>
        <time>2022-05-18T10:53:46Z</time>
      </trkpt>
      <trkpt lat="42.329336" lon="-4.774394">
        <ele>943.2254735771567</ele>
        <time>2022-05-18T10:53:54Z</time>
      </trkpt>
      <trkpt lat="42.329346" lon="-4.774515">
        <ele>941.1241474598646</ele>
        <time>2022-05-18T10:54:02Z</time>
      </trkpt>
      <trkpt lat="42.329327" lon="-4.774655">
        <ele>941.0479445261881</ele>
        <time>2022-05-18T10:54:09Z</time>
      </trkpt>
      <trkpt lat="42.329303" lon="-4.774781">
        <ele>939.6439472818747</ele>
        <time>2022-05-18T10:54:15Z</time>
      </trkpt>
      <trkpt lat="42.329277" lon="-4.774898">
        <ele>936.1472079856321</ele>
        <time>2022-05-18T10:54:23Z</time>
      </trkpt>
      <trkpt lat="42.32926" lon="-4.775022">
        <ele>933.7829598449171</ele>
        <time>2022-05-18T10:54:30Z</time>
      </trkpt>
      <trkpt lat="42.329258" lon="-4.77516">
        <ele>934.01735057123</ele>
        <time>2022-05-18T10:54:37Z</time>
      </trkpt>
      <trkpt lat="42.329239" lon="-4.775287">
        <ele>933.5652040531859</ele>
        <time>2022-05-18T10:54:44Z</time>
      </trkpt>
      <trkpt lat="42.329227" lon="-4.775424">
        <ele>933.528322590515</ele>
        <time>2022-05-18T10:54:53Z</time>
      </trkpt>
      <trkpt lat="42.329214" lon="-4.775555">
        <ele>934.2150826025754</ele>
        <time>2022-05-18T10:55:02Z</time>
      </trkpt>
      <trkpt lat="42.329205" lon="-4.775685">
        <ele>933.0143170664087</ele>
        <time>2022-05-18T10:55:11Z</time>
      </trkpt>
      <trkpt lat="42.329204" lon="-4.775823">
        <ele>935.233769104816</ele>
        <time>2022-05-18T10:55:19Z</time>
      </trkpt>
      <trkpt lat="42.329186" lon="-4.775959">
        <ele>934.928875441663</ele>
        <time>2022-05-18T10:55:26Z</time>
      </trkpt>
      <trkpt lat="42.329203" lon="-4.776093">
        <ele>936.8329578284174</ele>
        <time>2022-05-18T10:55:34Z</time>
      </trkpt>
      <trkpt lat="42.329205" lon="-4.776215">
        <ele>938.0956530291587</ele>
        <time>2022-05-18T10:55:40Z</time>
      </trkpt>
      <trkpt lat="42.329176" lon="-4.776338">
        <ele>937.7529850462452</ele>
        <time>2022-05-18T10:55:49Z</time>
      </trkpt>
      <trkpt lat="42.32917" lon="-4.776475">
        <ele>937.7399514922872</ele>
        <time>2022-05-18T10:55:57Z</time>
      </trkpt>
      <trkpt lat="42.329153" lon="-4.77661">
        <ele>937.5928776841611</ele>
        <time>2022-05-18T10:56:04Z</time>
      </trkpt>
      <trkpt lat="42.329144" lon="-4.776738">
        <ele>937.1146272802725</ele>
        <time>2022-05-18T10:56:12Z</time>
      </trkpt>
      <trkpt lat="42.329129" lon="-4.776871">
        <ele>939.356662160717</ele>
        <time>2022-05-18T10:56:21Z</time>
      </trkpt>
      <trkpt lat="42.329114" lon="-4.776993">
        <ele>939.2946738479659</ele>
        <time>2022-05-18T10:56:27Z</time>
      </trkpt>
      <trkpt lat="42.329113" lon="-4.77712">
        <ele>935.3823483893648</ele>
        <time>2022-05-18T10:56:34Z</time>
      </trkpt>
      <trkpt lat="42.329125" lon="-4.777256">
        <ele>934.6342164203525</ele>
        <time>2022-05-18T10:56:42Z</time>
      </trkpt>
      <trkpt lat="42.32912" lon="-4.777389">
        <ele>934.2584075042978</ele>
        <time>2022-05-18T10:56:48Z</time>
      </trkpt>
      <trkpt lat="42.329101" lon="-4.77752">
        <ele>933.7848211480305</ele>
        <time>2022-05-18T10:56:57Z</time>
      </trkpt>
      <trkpt lat="42.329094" lon="-4.777651">
        <ele>934.5431044278666</ele>
        <time>2022-05-18T10:57:03Z</time>
      </trkpt>
      <trkpt lat="42.329072" lon="-4.777784">
        <ele>934.403856324032</ele>
        <time>2022-05-18T10:57:12Z</time>
      </trkpt>
      <trkpt lat="42.329055" lon="-4.777906">
        <ele>935.9213033383712</ele>
        <time>2022-05-18T10:57:21Z</time>
      </trkpt>
      <trkpt lat="42.329066" lon="-4.778035">
        <ele>935.7520739845932</ele>
        <time>2022-05-18T10:57:27Z</time>
      </trkpt>
      <trkpt lat="42.32906" lon="-4.778169">
        <ele>935.2595299044624</ele>
        <time>2022-05-18T10:57:34Z</time>
      </trkpt>
      <trkpt lat="42.329063" lon="-4.778307">
        <ele>937.6788343824446</ele>
        <time>2022-05-18T10:57:42Z</time>
      </trkpt>
      <trkpt lat="42.329059" lon="-4.778442">
        <ele>937.4074947694317</ele>
        <time>2022-05-18T10:57:50Z</time>
      </trkpt>
      <trkpt lat="42.329045" lon="-4.778564">
        <ele>937.0958740813658</ele>
        <time>2022-05-18T10:57:57Z</time>
      </trkpt>
      <trkpt lat="42.329034" lon="-4.7787">
        <ele>936.8377160262316</ele>
        <time>2022-05-18T10:58:05Z</time>
      </trkpt>
      <trkpt lat="42.329028" lon="-4.778821">
        <ele>936.2694523809478</ele>
        <time>2022-05-18T10:58:12Z</time>
      </trkpt>
      <trkpt lat="42.329024" lon="-4.778954">
        <ele>937.3074662974104</ele>
        <time>2022-05-18T10:58:20Z</time>
      </trkpt>
      <trkpt lat="42.329036" lon="-4.779085">
        <ele>937.7158797513694</ele>
        <time>2022-05-18T10:58:27Z</time>
      </trkpt>
      <trkpt lat="42.329045" lon="-4.779208">
        <ele>938.8233664035797</ele>
        <time>2022-05-18T10:58:33Z</time>
      </trkpt>
      <trkpt lat="42.329036" lon="-4.779335">
        <ele>938.6405121451244</ele>
        <time>2022-05-18T10:58:41Z</time>
      </trkpt>
      <trkpt lat="42.329038" lon="-4.779457">
        <ele>938.5255990661681</ele>
        <time>2022-05-18T10:58:48Z</time>
      </trkpt>
      <trkpt lat="42.329039" lon="-4.779585">
        <ele>938.2546923952177</ele>
        <time>2022-05-18T10:58:55Z</time>
      </trkpt>
      <trkpt lat="42.329038" lon="-4.779716">
        <ele>938.5651332847774</ele>
        <time>2022-05-18T10:59:03Z</time>
      </trkpt>
      <trkpt lat="42.329034" lon="-4.779841">
        <ele>938.6525948382914</ele>
        <time>2022-05-18T10:59:09Z</time>
      </trkpt>
      <trkpt lat="42.329036" lon="-4.779968">
        <ele>938.9943234594539</ele>
        <time>2022-05-18T10:59:15Z</time>
      </trkpt>
      <trkpt lat="42.329033" lon="-4.78009">
        <ele>938.8454224048182</ele>
        <time>2022-05-18T10:59:22Z</time>
      </trkpt>
      <trkpt lat="42.329029" lon="-4.780225">
        <ele>939.0055840741843</ele>
        <time>2022-05-18T10:59:29Z</time>
      </trkpt>
      <trkpt lat="42.32904" lon="-4.780364">
        <ele>938.665079456754</ele>
        <time>2022-05-18T10:59:36Z</time>
      </trkpt>
      <trkpt lat="42.329012" lon="-4.780488">
        <ele>937.5754885720089</ele>
        <time>2022-05-18T10:59:44Z</time>
      </trkpt>
      <trkpt lat="42.329011" lon="-4.780618">
        <ele>937.1004844363779</ele>
        <time>2022-05-18T10:59:52Z</time>
      </trkpt>
      <trkpt lat="42.329016" lon="-4.780749">
        <ele>936.9690420869738</ele>
        <time>2022-05-18T11:00:00Z</time>
      </trkpt>
      <trkpt lat="42.329012" lon="-4.780882">
        <ele>935.8419902576134</ele>
        <time>2022-05-18T11:00:07Z</time>
      </trkpt>
      <trkpt lat="42.329013" lon="-4.781004">
        <ele>936.1020322293043</ele>
        <time>2022-05-18T11:00:13Z</time>
      </trkpt>
      <trkpt lat="42.328997" lon="-4.781127">
        <ele>936.2991791544482</ele>
        <time>2022-05-18T11:00:21Z</time>
      </trkpt>
      <trkpt lat="42.329001" lon="-4.781254">
        <ele>936.4151327498257</ele>
        <time>2022-05-18T11:00:28Z</time>
      </trkpt>
      <trkpt lat="42.329002" lon="-4.781385">
        <ele>935.6899064751342</ele>
        <time>2022-05-18T11:00:35Z</time>
      </trkpt>
      <trkpt lat="42.328993" lon="-4.781509">
        <ele>936.3029622882605</ele>
        <time>2022-05-18T11:00:41Z</time>
      </trkpt>
      <trkpt lat="42.328991" lon="-4.78164">
        <ele>936.9020571159199</ele>
        <time>2022-05-18T11:00:48Z</time>
      </trkpt>
      <trkpt lat="42.329005" lon="-4.781767">
        <ele>938.0808062395081</ele>
        <time>2022-05-18T11:00:55Z</time>
      </trkpt>
      <trkpt lat="42.32901" lon="-4.781897">
        <ele>937.7671908894554</ele>
        <time>2022-05-18T11:01:02Z</time>
      </trkpt>
      <trkpt lat="42.329006" lon="-4.782035">
        <ele>938.3074378436431</ele>
        <time>2022-05-18T11:01:10Z</time>
      </trkpt>
      <trkpt lat="42.329005" lon="-4.782158">
        <ele>937.657534994185</ele>
        <time>2022-05-18T11:01:16Z</time>
      </trkpt>
      <trkpt lat="42.329" lon="-4.782289">
        <ele>938.7340349378064</ele>
        <time>2022-05-18T11:01:25Z</time>
      </trkpt>
      <trkpt lat="42.329004" lon="-4.782431">
        <ele>939.9442557580769</ele>
        <time>2022-05-18T11:01:33Z</time>
      </trkpt>
      <trkpt lat="42.328997" lon="-4.782561">
        <ele>941.0328924981877</ele>
        <time>2022-05-18T11:01:40Z</time>
      </trkpt>
      <trkpt lat="42.329002" lon="-4.782694">
        <ele>940.3747577192262</ele>
        <time>2022-05-18T11:01:47Z</time>
      </trkpt>
      <trkpt lat="42.328989" lon="-4.782815">
        <ele>939.7098986897618</ele>
        <time>2022-05-18T11:01:54Z</time>
      </trkpt>
      <trkpt lat="42.328982" lon="-4.782936">
        <ele>939.6186346458271</ele>
        <time>2022-05-18T11:02:01Z</time>
      </trkpt>
      <trkpt lat="42.328997" lon="-4.783067">
        <ele>939.3854708466679</ele>
        <time>2022-05-18T11:02:07Z</time>
      </trkpt>
      <trkpt lat="42.329005" lon="-4.78319">
        <ele>939.3395143728703</ele>
        <time>2022-05-18T11:02:14Z</time>
      </trkpt>
      <trkpt lat="42.329006" lon="-4.783325">
        <ele>939.4562353370711</ele>
        <time>2022-05-18T11:02:21Z</time>
      </trkpt>
      <trkpt lat="42.328993" lon="-4.783446">
        <ele>939.1939909895882</ele>
        <time>2022-05-18T11:02:27Z</time>
      </trkpt>
      <trkpt lat="42.328987" lon="-4.78358">
        <ele>937.6859701313078</ele>
        <time>2022-05-18T11:02:34Z</time>
      </trkpt>
      <trkpt lat="42.328984" lon="-4.783715">
        <ele>938.0700020780787</ele>
        <time>2022-05-18T11:02:42Z</time>
      </trkpt>
      <trkpt lat="42.328993" lon="-4.783845">
        <ele>938.5976859740913</ele>
        <time>2022-05-18T11:02:49Z</time>
      </trkpt>
      <trkpt lat="42.32899" lon="-4.783967">
        <ele>939.2846886245534</ele>
        <time>2022-05-18T11:02:57Z</time>
      </trkpt>
      <trkpt lat="42.328986" lon="-4.78409">
        <ele>939.6805135821924</ele>
        <time>2022-05-18T11:03:03Z</time>
      </trkpt>
      <trkpt lat="42.328978" lon="-4.784223">
        <ele>938.8529829001054</ele>
        <time>2022-05-18T11:03:12Z</time>
      </trkpt>
      <trkpt lat="42.328989" lon="-4.784348">
        <ele>940.2417053095996</ele>
        <time>2022-05-18T11:03:19Z</time>
      </trkpt>
      <trkpt lat="42.328987" lon="-4.784479">
        <ele>942.7316671265289</ele>
        <time>2022-05-18T11:03:26Z</time>
      </trkpt>
      <trkpt lat="42.329005" lon="-4.784609">
        <ele>942.1008788924664</ele>
        <time>2022-05-18T11:03:32Z</time>
      </trkpt>
      <trkpt lat="42.329004" lon="-4.784746">
        <ele>943.5406365366653</ele>
        <time>2022-05-18T11:03:40Z</time>
      </trkpt>
      <trkpt lat="42.329" lon="-4.784872">
        <ele>944.2542492318898</ele>
        <time>2022-05-18T11:03:46Z</time>
      </trkpt>
      <trkpt lat="42.328989" lon="-4.785003">
        <ele>942.5168323367834</ele>
        <time>2022-05-18T11:03:54Z</time>
      </trkpt>
      <trkpt lat="42.328985" lon="-4.78513">
        <ele>944.4571342151612</ele>
        <time>2022-05-18T11:04:02Z</time>
      </trkpt>
      <trkpt lat="42.32899" lon="-4.785258">
        <ele>944.8789317915216</ele>
        <time>2022-05-18T11:04:09Z</time>
      </trkpt>
      <trkpt lat="42.328988" lon="-4.785392">
        <ele>943.1583899259567</ele>
        <time>2022-05-18T11:04:17Z</time>
      </trkpt>
      <trkpt lat="42.32899" lon="-4.785528">
        <ele>944.7739167623222</ele>
        <time>2022-05-18T11:04:26Z</time>
      </trkpt>
      <trkpt lat="42.328971" lon="-4.785656">
        <ele>943.7656526910141</ele>
        <time>2022-05-18T11:04:33Z</time>
      </trkpt>
      <trkpt lat="42.328973" lon="-4.785791">
        <ele>943.0766659583896</ele>
        <time>2022-05-18T11:04:41Z</time>
      </trkpt>
      <trkpt lat="42.328996" lon="-4.785926">
        <ele>941.9941771579906</ele>
        <time>2022-05-18T11:04:49Z</time>
      </trkpt>
      <trkpt lat="42.328998" lon="-4.786061">
        <ele>940.8125515189022</ele>
        <time>2022-05-18T11:04:56Z</time>
      </trkpt>
      <trkpt lat="42.328996" lon="-4.786204">
        <ele>941.2491507846862</ele>
        <time>2022-05-18T11:05:03Z</time>
      </trkpt>
      <trkpt lat="42.328998" lon="-4.786336">
        <ele>939.7710066223517</ele>
        <time>2022-05-18T11:05:11Z</time>
      </trkpt>
      <trkpt lat="42.32899" lon="-4.786471">
        <ele>940.4803830776364</ele>
        <time>2022-05-18T11:05:19Z</time>
      </trkpt>
      <trkpt lat="42.328994" lon="-4.786604">
        <ele>943.0329927317798</ele>
        <time>2022-05-18T11:05:24Z</time>
      </trkpt>
      <trkpt lat="42.328993" lon="-4.78674">
        <ele>943.1371161164716</ele>
        <time>2022-05-18T11:05:31Z</time>
      </trkpt>
      <trkpt lat="42.329002" lon="-4.786867">
        <ele>945.6194439381361</ele>
        <time>2022-05-18T11:05:39Z</time>
      </trkpt>
      <trkpt lat="42.329019" lon="-4.787002">
        <ele>948.6087942710146</ele>
        <time>2022-05-18T11:05:46Z</time>
      </trkpt>
      <trkpt lat="42.329027" lon="-4.787124">
        <ele>949.8736014179885</ele>
        <time>2022-05-18T11:05:54Z</time>
      </trkpt>
      <trkpt lat="42.329035" lon="-4.787256">
        <ele>950.8022885769606</ele>
        <time>2022-05-18T11:06:01Z</time>
      </trkpt>
      <trkpt lat="42.329004" lon="-4.787382">
        <ele>948.8089619195089</ele>
        <time>2022-05-18T11:06:08Z</time>
      </trkpt>
      <trkpt lat="42.329017" lon="-4.787514">
        <ele>947.809587485157</ele>
        <time>2022-05-18T11:06:15Z</time>
      </trkpt>
      <trkpt lat="42.329023" lon="-4.787637">
        <ele>948.0151272471994</ele>
        <time>2022-05-18T11:06:22Z</time>
      </trkpt>
      <trkpt lat="42.329028" lon="-4.787762">
        <ele>950.1227250909433</ele>
        <time>2022-05-18T11:06:28Z</time>
      </trkpt>
      <trkpt lat="42.329033" lon="-4.787889">
        <ele>950.3107140175998</ele>
        <time>2022-05-18T11:06:36Z</time>
      </trkpt>
      <trkpt lat="42.32904" lon="-4.788013">
        <ele>950.3760431250557</ele>
        <time>2022-05-18T11:06:44Z</time>
      </trkpt>
      <trkpt lat="42.329044" lon="-4.788152">
        <ele>950.4601897671819</ele>
        <time>2022-05-18T11:06:53Z</time>
      </trkpt>
      <trkpt lat="42.329055" lon="-4.788279">
        <ele>949.8039567312226</ele>
        <time>2022-05-18T11:07:00Z</time>
      </trkpt>
      <trkpt lat="42.329077" lon="-4.788416">
        <ele>949.5999223766848</ele>
        <time>2022-05-18T11:07:08Z</time>
      </trkpt>
      <trkpt lat="42.32907" lon="-4.788545">
        <ele>951.12491742149</ele>
        <time>2022-05-18T11:07:16Z</time>
      </trkpt>
      <trkpt lat="42.329086" lon="-4.788679">
        <ele>952.342650577426</ele>
        <time>2022-05-18T11:07:24Z</time>
      </trkpt>
      <trkpt lat="42.329076" lon="-4.788812">
        <ele>951.3125716075301</ele>
        <time>2022-05-18T11:07:33Z</time>
      </trkpt>
      <trkpt lat="42.329087" lon="-4.788933">
        <ele>951.7849624985829</ele>
        <time>2022-05-18T11:07:39Z</time>
      </trkpt>
      <trkpt lat="42.329103" lon="-4.789058">
        <ele>951.9939117673784</ele>
        <time>2022-05-18T11:07:45Z</time>
      </trkpt>
      <trkpt lat="42.329124" lon="-4.789193">
        <ele>953.2584492163733</ele>
        <time>2022-05-18T11:07:51Z</time>
      </trkpt>
      <trkpt lat="42.329129" lon="-4.789316">
        <ele>955.1850124290213</ele>
        <time>2022-05-18T11:07:58Z</time>
      </trkpt>
      <trkpt lat="42.329123" lon="-4.789447">
        <ele>956.3069594847038</ele>
        <time>2022-05-18T11:08:04Z</time>
      </trkpt>
      <trkpt lat="42.329125" lon="-4.789576">
        <ele>957.4193338342011</ele>
        <time>2022-05-18T11:08:12Z</time>
      </trkpt>
      <trkpt lat="42.329138" lon="-4.789705">
        <ele>958.6597834881395</ele>
        <time>2022-05-18T11:08:19Z</time>
      </trkpt>
      <trkpt lat="42.329155" lon="-4.789845">
        <ele>960.2253814069554</ele>
        <time>2022-05-18T11:08:27Z</time>
      </trkpt>
      <trkpt lat="42.329157" lon="-4.789969">
        <ele>962.4046522388235</ele>
        <time>2022-05-18T11:08:34Z</time>
      </trkpt>
      <trkpt lat="42.329158" lon="-4.790105">
        <ele>964.5858305143192</ele>
        <time>2022-05-18T11:08:41Z</time>
      </trkpt>
      <trkpt lat="42.32916" lon="-4.790229">
        <ele>966.8293498009443</ele>
        <time>2022-05-18T11:08:50Z</time>
      </trkpt>
      <trkpt lat="42.329167" lon="-4.790361">
        <ele>966.7146605299786</ele>
        <time>2022-05-18T11:08:57Z</time>
      </trkpt>
      <trkpt lat="42.329178" lon="-4.790483">
        <ele>965.2082928912714</ele>
        <time>2022-05-18T11:09:02Z</time>
      </trkpt>
      <trkpt lat="42.329184" lon="-4.79061">
        <ele>964.3419292662293</ele>
        <time>2022-05-18T11:09:10Z</time>
      </trkpt>
      <trkpt lat="42.329189" lon="-4.790738">
        <ele>963.5927818957716</ele>
        <time>2022-05-18T11:09:18Z</time>
      </trkpt>
      <trkpt lat="42.329176" lon="-4.790874">
        <ele>964.3717090720311</ele>
        <time>2022-05-18T11:09:26Z</time>
      </trkpt>
      <trkpt lat="42.329164" lon="-4.790995">
        <ele>964.7237341767177</ele>
        <time>2022-05-18T11:09:33Z</time>
      </trkpt>
      <trkpt lat="42.329168" lon="-4.79112">
        <ele>965.2524993782863</ele>
        <time>2022-05-18T11:09:39Z</time>
      </trkpt>
      <trkpt lat="42.329188" lon="-4.791254">
        <ele>964.9386377222836</ele>
        <time>2022-05-18T11:09:47Z</time>
      </trkpt>
      <trkpt lat="42.32921" lon="-4.791376">
        <ele>963.806000626646</ele>
        <time>2022-05-18T11:09:54Z</time>
      </trkpt>
      <trkpt lat="42.329223" lon="-4.791498">
        <ele>964.8410409511998</ele>
        <time>2022-05-18T11:10:01Z</time>
      </trkpt>
      <trkpt lat="42.329235" lon="-4.791631">
        <ele>963.3594188680872</ele>
        <time>2022-05-18T11:10:07Z</time>
      </trkpt>
      <trkpt lat="42.329228" lon="-4.791766">
        <ele>962.8919731760398</ele>
        <time>2022-05-18T11:10:16Z</time>
      </trkpt>
      <trkpt lat="42.32922" lon="-4.791896">
        <ele>961.7773931715637</ele>
        <time>2022-05-18T11:10:23Z</time>
      </trkpt>
      <trkpt lat="42.329215" lon="-4.792023">
        <ele>961.8962685065344</ele>
        <time>2022-05-18T11:10:31Z</time>
      </trkpt>
      <trkpt lat="42.329201" lon="-4.792145">
        <ele>962.5755055528134</ele>
        <time>2022-05-18T11:10:38Z</time>
      </trkpt>
      <trkpt lat="42.329196" lon="-4.79227">
        <ele>963.3351971022785</ele>
        <time>2022-05-18T11:10:46Z</time>
      </trkpt>
      <trkpt lat="42.329191" lon="-4.792397">
        <ele>964.301785252057</ele>
        <time>2022-05-18T11:10:54Z</time>
      </trkpt>
      <trkpt lat="42.329186" lon="-4.792538">
        <ele>965.1479025240988</ele>
        <time>2022-05-18T11:11:01Z</time>
      </trkpt>
      <trkpt lat="42.329183" lon="-4.79267">
        <ele>963.9171666791663</ele>
        <time>2022-05-18T11:11:10Z</time>
      </trkpt>
      <trkpt lat="42.329177" lon="-4.792792">
        <ele>962.6628507561982</ele>
        <time>2022-05-18T11:11:16Z</time>
      </trkpt>
      <trkpt lat="42.329177" lon="-4.792921">
        <ele>962.3101539816707</ele>
        <time>2022-05-18T11:11:22Z</time>
      </trkpt>
      <trkpt lat="42.329167" lon="-4.793048">
        <ele>960.3258615611121</ele>
        <time>2022-05-18T11:11:30Z</time>
      </trkpt>
      <trkpt lat="42.329152" lon="-4.793181">
        <ele>958.8803575783968</ele>
        <time>2022-05-18T11:11:38Z</time>
      </trkpt>
      <trkpt lat="42.32914" lon="-4.793305">
        <ele>957.8075442742556</ele>
        <time>2022-05-18T11:11:45Z</time>
      </trkpt>
      <trkpt lat="42.329124" lon="-4.79343">
        <ele>957.3103510597721</ele>
        <time>2022-05-18T11:11:52Z</time>
      </trkpt>
      <trkpt lat="42.329122" lon="-4.793553">
        <ele>957.0991752445698</ele>
        <time>2022-05-18T11:11:58Z</time>
      </trkpt>
      <trkpt lat="42.329124" lon="-4.793687">
        <ele>956.6075470345095</ele>
        <time>2022-05-18T11:12:04Z</time>
      </trkpt>
      <trkpt lat="42.329108" lon="-4.793814">
        <ele>956.8954431116581</ele>
        <time>2022-05-18T11:12:15Z</time>
      </trkpt>
      <trkpt lat="42.329105" lon="-4.793936">
        <ele>957.9729252038524</ele>
        <time>2022-05-18T11:12:22Z</time>
      </trkpt>
      <trkpt lat="42.329097" lon="-4.794064">
        <ele>957.8378834091127</ele>
        <time>2022-05-18T11:12:30Z</time>
      </trkpt>
      <trkpt lat="42.329108" lon="-4.794194">
        <ele>957.225491440855</ele>
        <time>2022-05-18T11:12:37Z</time>
      </trkpt>
      <trkpt lat="42.329093" lon="-4.794318">
        <ele>958.3093492714688</ele>
        <time>2022-05-18T11:12:44Z</time>
      </trkpt>
      <trkpt lat="42.329095" lon="-4.794454">
        <ele>957.9994016168639</ele>
        <time>2022-05-18T11:12:50Z</time>
      </trkpt>
      <trkpt lat="42.329099" lon="-4.794578">
        <ele>957.1243244456127</ele>
        <time>2022-05-18T11:12:57Z</time>
      </trkpt>
      <trkpt lat="42.329092" lon="-4.794708">
        <ele>957.1749968845397</ele>
        <time>2022-05-18T11:13:05Z</time>
      </trkpt>
      <trkpt lat="42.329086" lon="-4.794832">
        <ele>957.054797613062</ele>
        <time>2022-05-18T11:13:11Z</time>
      </trkpt>
      <trkpt lat="42.329084" lon="-4.794968">
        <ele>957.2138393651694</ele>
        <time>2022-05-18T11:13:19Z</time>
      </trkpt>
      <trkpt lat="42.329078" lon="-4.795093">
        <ele>956.1862275190651</ele>
        <time>2022-05-18T11:13:27Z</time>
      </trkpt>
      <trkpt lat="42.329057" lon="-4.795212">
        <ele>957.0294195227325</ele>
        <time>2022-05-18T11:13:35Z</time>
      </trkpt>
      <trkpt lat="42.329051" lon="-4.795347">
        <ele>957.8782411720604</ele>
        <time>2022-05-18T11:13:42Z</time>
      </trkpt>
      <trkpt lat="42.329054" lon="-4.795485">
        <ele>957.9406674308702</ele>
        <time>2022-05-18T11:13:49Z</time>
      </trkpt>
      <trkpt lat="42.32905" lon="-4.795613">
        <ele>958.010713249445</ele>
        <time>2022-05-18T11:13:57Z</time>
      </trkpt>
      <trkpt lat="42.329034" lon="-4.795739">
        <ele>959.1651055868715</ele>
        <time>2022-05-18T11:14:05Z</time>
      </trkpt>
      <trkpt lat="42.32904" lon="-4.795867">
        <ele>960.1558234877884</ele>
        <time>2022-05-18T11:14:11Z</time>
      </trkpt>
      <trkpt lat="42.32905" lon="-4.796001">
        <ele>959.7718347739428</ele>
        <time>2022-05-18T11:14:17Z</time>
      </trkpt>
      <trkpt lat="42.329057" lon="-4.796123">
        <ele>958.3498726151884</ele>
        <time>2022-05-18T11:14:25Z</time>
      </trkpt>
      <trkpt lat="42.329039" lon="-4.796247">
        <ele>959.9771358184516</ele>
        <time>2022-05-18T11:14:33Z</time>
      </trkpt>
      <trkpt lat="42.329035" lon="-4.79639">
        <ele>959.3046416798607</ele>
        <time>2022-05-18T11:14:41Z</time>
      </trkpt>
      <trkpt lat="42.329036" lon="-4.796525">
        <ele>957.953117265366</ele>
        <time>2022-05-18T11:14:48Z</time>
      </trkpt>
      <trkpt lat="42.329039" lon="-4.796653">
        <ele>956.7555206241086</ele>
        <time>2022-05-18T11:14:55Z</time>
      </trkpt>
      <trkpt lat="42.329036" lon="-4.79678">
        <ele>955.8047450110316</ele>
        <time>2022-05-18T11:15:02Z</time>
      </trkpt>
      <trkpt lat="42.329037" lon="-4.796905">
        <ele>955.2062352225184</ele>
        <time>2022-05-18T11:15:08Z</time>
      </trkpt>
      <trkpt lat="42.329048" lon="-4.797033">
        <ele>954.2392930425704</ele>
        <time>2022-05-18T11:15:15Z</time>
      </trkpt>
      <trkpt lat="42.329034" lon="-4.79716">
        <ele>954.7403384083882</ele>
        <time>2022-05-18T11:15:22Z</time>
      </trkpt>
      <trkpt lat="42.32903" lon="-4.797283">
        <ele>956.06168121472</ele>
        <time>2022-05-18T11:15:30Z</time>
      </trkpt>
      <trkpt lat="42.32902" lon="-4.797409">
        <ele>957.4741836041212</ele>
        <time>2022-05-18T11:15:37Z</time>
      </trkpt>
      <trkpt lat="42.329023" lon="-4.797539">
        <ele>957.9912853995338</ele>
        <time>2022-05-18T11:15:45Z</time>
      </trkpt>
      <trkpt lat="42.329025" lon="-4.797662">
        <ele>956.8686932213604</ele>
        <time>2022-05-18T11:15:51Z</time>
      </trkpt>
      <trkpt lat="42.329027" lon="-4.797785">
        <ele>957.0743394671008</ele>
        <time>2022-05-18T11:15:57Z</time>
      </trkpt>
      <trkpt lat="42.329005" lon="-4.797903">
        <ele>953.6861431198195</ele>
        <time>2022-05-18T11:16:05Z</time>
      </trkpt>
      <trkpt lat="42.329013" lon="-4.798036">
        <ele>953.1894088573754</ele>
        <time>2022-05-18T11:16:13Z</time>
      </trkpt>
      <trkpt lat="42.329003" lon="-4.798159">
        <ele>953.3363895164803</ele>
        <time>2022-05-18T11:16:23Z</time>
      </trkpt>
      <trkpt lat="42.328985" lon="-4.798289">
        <ele>953.2635685624555</ele>
        <time>2022-05-18T11:16:30Z</time>
      </trkpt>
      <trkpt lat="42.328978" lon="-4.798418">
        <ele>952.3507825713605</ele>
        <time>2022-05-18T11:16:37Z</time>
      </trkpt>
      <trkpt lat="42.328977" lon="-4.798553">
        <ele>950.3020376609638</ele>
        <time>2022-05-18T11:16:45Z</time>
      </trkpt>
      <trkpt lat="42.328961" lon="-4.798695">
        <ele>951.3842201922089</ele>
        <time>2022-05-18T11:16:54Z</time>
      </trkpt>
      <trkpt lat="42.328965" lon="-4.798818">
        <ele>950.2355370558798</ele>
        <time>2022-05-18T11:17:00Z</time>
      </trkpt>
      <trkpt lat="42.328974" lon="-4.798945">
        <ele>949.1659875307232</ele>
        <time>2022-05-18T11:17:06Z</time>
      </trkpt>
      <trkpt lat="42.328977" lon="-4.799075">
        <ele>948.8274759789929</ele>
        <time>2022-05-18T11:17:14Z</time>
      </trkpt>
      <trkpt lat="42.328969" lon="-4.799203">
        <ele>948.1870308956131</ele>
        <time>2022-05-18T11:17:22Z</time>
      </trkpt>
      <trkpt lat="42.328967" lon="-4.799329">
        <ele>947.7056706938893</ele>
        <time>2022-05-18T11:17:29Z</time>
      </trkpt>
      <trkpt lat="42.328975" lon="-4.799453">
        <ele>946.7102774260566</ele>
        <time>2022-05-18T11:17:37Z</time>
      </trkpt>
      <trkpt lat="42.328992" lon="-4.799575">
        <ele>946.1101619293913</ele>
        <time>2022-05-18T11:17:43Z</time>
      </trkpt>
      <trkpt lat="42.32899" lon="-4.799713">
        <ele>946.884777312167</ele>
        <time>2022-05-18T11:17:50Z</time>
      </trkpt>
      <trkpt lat="42.328986" lon="-4.799836">
        <ele>947.0227812444791</ele>
        <time>2022-05-18T11:17:58Z</time>
      </trkpt>
      <trkpt lat="42.328993" lon="-4.799966">
        <ele>945.572060097009</ele>
        <time>2022-05-18T11:18:06Z</time>
      </trkpt>
      <trkpt lat="42.329" lon="-4.800088">
        <ele>945.4074211772531</ele>
        <time>2022-05-18T11:18:16Z</time>
      </trkpt>
      <trkpt lat="42.329014" lon="-4.800214">
        <ele>945.1753646386787</ele>
        <time>2022-05-18T11:19:01Z</time>
      </trkpt>
      <trkpt lat="42.329032" lon="-4.80034">
        <ele>945.3409490231425</ele>
        <time>2022-05-18T11:19:08Z</time>
      </trkpt>
      <trkpt lat="42.329028" lon="-4.800463">
        <ele>946.4927578652278</ele>
        <time>2022-05-18T11:19:15Z</time>
      </trkpt>
      <trkpt lat="42.32904" lon="-4.800591">
        <ele>946.9030515365303</ele>
        <time>2022-05-18T11:19:21Z</time>
      </trkpt>
      <trkpt lat="42.329059" lon="-4.800725">
        <ele>947.4198489682749</ele>
        <time>2022-05-18T11:19:28Z</time>
      </trkpt>
      <trkpt lat="42.329072" lon="-4.800851">
        <ele>947.9874572316185</ele>
        <time>2022-05-18T11:19:33Z</time>
      </trkpt>
      <trkpt lat="42.329085" lon="-4.800983">
        <ele>948.4956273715943</ele>
        <time>2022-05-18T11:19:39Z</time>
      </trkpt>
      <trkpt lat="42.329094" lon="-4.801106">
        <ele>949.7527942173183</ele>
        <time>2022-05-18T11:19:46Z</time>
      </trkpt>
      <trkpt lat="42.329106" lon="-4.801228">
        <ele>950.9190007839352</ele>
        <time>2022-05-18T11:19:53Z</time>
      </trkpt>
      <trkpt lat="42.329112" lon="-4.801356">
        <ele>950.4892246499658</ele>
        <time>2022-05-18T11:20:03Z</time>
      </trkpt>
      <trkpt lat="42.329112" lon="-4.801356">
        <ele>950.4892246499658</ele>
        <time>2022-05-18T11:20:03Z</time>
      </trkpt>
      <trkpt lat="42.329101" lon="-4.80148">
        <ele>950.633218832314</ele>
        <time>2022-05-18T11:20:10Z</time>
      </trkpt>
      <trkpt lat="42.329117" lon="-4.801614">
        <ele>947.6805832115933</ele>
        <time>2022-05-18T11:20:20Z</time>
      </trkpt>
      <trkpt lat="42.329171" lon="-4.801715">
        <ele>945.5264291809872</ele>
        <time>2022-05-18T11:20:28Z</time>
      </trkpt>
      <trkpt lat="42.329191" lon="-4.801842">
        <ele>944.6444738339633</ele>
        <time>2022-05-18T11:22:08Z</time>
      </trkpt>
      <trkpt lat="42.329208" lon="-4.801968">
        <ele>943.6199608845636</ele>
        <time>2022-05-18T11:23:53Z</time>
      </trkpt>
      <trkpt lat="42.329225" lon="-4.802094">
        <ele>940.8629007572308</ele>
        <time>2022-05-18T11:24:07Z</time>
      </trkpt>
      <trkpt lat="42.329226" lon="-4.802235">
        <ele>940.6555192396045</ele>
        <time>2022-05-18T11:24:17Z</time>
      </trkpt>
      <trkpt lat="42.329176" lon="-4.802367">
        <ele>941.4147411826998</ele>
        <time>2022-05-18T11:24:28Z</time>
      </trkpt>
      <trkpt lat="42.329096" lon="-4.802432">
        <ele>941.6448323018849</ele>
        <time>2022-05-18T11:24:37Z</time>
      </trkpt>
      <trkpt lat="42.32915" lon="-4.802538">
        <ele>934.7908880338073</ele>
        <time>2022-05-18T11:25:41Z</time>
      </trkpt>
      <trkpt lat="42.329072" lon="-4.802436">
        <ele>935.4405329357833</ele>
        <time>2022-05-18T11:29:28Z</time>
      </trkpt>
      <trkpt lat="42.328989" lon="-4.802368">
        <ele>932.6404838589951</ele>
        <time>2022-05-18T11:30:55Z</time>
      </trkpt>
      <trkpt lat="42.328913" lon="-4.802438">
        <ele>925.0666831964627</ele>
        <time>2022-05-18T11:31:37Z</time>
      </trkpt>
      <trkpt lat="42.328983" lon="-4.802531">
        <ele>929.0294632855803</ele>
        <time>2022-05-18T11:35:21Z</time>
      </trkpt>
      <trkpt lat="42.328932" lon="-4.802423">
        <ele>932.0900717992336</ele>
        <time>2022-05-18T11:36:42Z</time>
      </trkpt>
      <trkpt lat="42.328838" lon="-4.802423">
        <ele>934.9418526254594</ele>
        <time>2022-05-18T11:38:21Z</time>
      </trkpt>
      <trkpt lat="42.328817" lon="-4.802542">
        <ele>938.9496701294556</ele>
        <time>2022-05-18T11:38:32Z</time>
      </trkpt>
      <trkpt lat="42.328873" lon="-4.802436">
        <ele>941.5885107722133</ele>
        <time>2022-05-18T11:43:19Z</time>
      </trkpt>
      <trkpt lat="42.328918" lon="-4.802331">
        <ele>932.1545904902741</ele>
        <time>2022-05-18T11:46:06Z</time>
      </trkpt>
      <trkpt lat="42.329008" lon="-4.802287">
        <ele>912.243195543997</ele>
        <time>2022-05-18T11:59:49Z</time>
      </trkpt>
      <trkpt lat="42.329097" lon="-4.802258">
        <ele>914.1582010481507</ele>
        <time>2022-05-18T12:00:07Z</time>
      </trkpt>
      <trkpt lat="42.329194" lon="-4.802244">
        <ele>917.960843315348</ele>
        <time>2022-05-18T12:00:18Z</time>
      </trkpt>
      <trkpt lat="42.32929" lon="-4.802253">
        <ele>920.7923657558858</ele>
        <time>2022-05-18T12:00:30Z</time>
      </trkpt>
      <trkpt lat="42.329387" lon="-4.80222">
        <ele>918.5604679090902</ele>
        <time>2022-05-18T12:00:37Z</time>
      </trkpt>
      <trkpt lat="42.329478" lon="-4.802273">
        <ele>922.480321877636</ele>
        <time>2022-05-18T12:00:56Z</time>
      </trkpt>
      <trkpt lat="42.329569" lon="-4.802249">
        <ele>918.7927864156663</ele>
        <time>2022-05-18T12:01:02Z</time>
      </trkpt>
      <trkpt lat="42.329669" lon="-4.802241">
        <ele>916.2837153878063</ele>
        <time>2022-05-18T12:01:08Z</time>
      </trkpt>
      <trkpt lat="42.329721" lon="-4.802362">
        <ele>911.527376900427</ele>
        <time>2022-05-18T12:01:19Z</time>
      </trkpt>
      <trkpt lat="42.329738" lon="-4.802486">
        <ele>907.6426830394194</ele>
        <time>2022-05-18T12:01:26Z</time>
      </trkpt>
      <trkpt lat="42.329699" lon="-4.802609">
        <ele>905.4097030321136</ele>
        <time>2022-05-18T12:01:32Z</time>
      </trkpt>
      <trkpt lat="42.329639" lon="-4.802712">
        <ele>905.1324982056394</ele>
        <time>2022-05-18T12:01:46Z</time>
      </trkpt>
      <trkpt lat="42.329613" lon="-4.802839">
        <ele>908.8829203126952</ele>
        <time>2022-05-18T12:01:59Z</time>
      </trkpt>
      <trkpt lat="42.329645" lon="-4.802961">
        <ele>909.9555265903473</ele>
        <time>2022-05-18T12:03:53Z</time>
      </trkpt>
      <trkpt lat="42.329597" lon="-4.803081">
        <ele>905.8557234164327</ele>
        <time>2022-05-18T12:03:58Z</time>
      </trkpt>
      <trkpt lat="42.329581" lon="-4.803204">
        <ele>906.371795929037</ele>
        <time>2022-05-18T12:04:06Z</time>
      </trkpt>
      <trkpt lat="42.329479" lon="-4.803222">
        <ele>907.0592689216137</ele>
        <time>2022-05-18T12:04:14Z</time>
      </trkpt>
      <trkpt lat="42.329379" lon="-4.803226">
        <ele>907.0845894422382</ele>
        <time>2022-05-18T12:04:20Z</time>
      </trkpt>
      <trkpt lat="42.329286" lon="-4.803214">
        <ele>907.0371812013909</ele>
        <time>2022-05-18T12:04:26Z</time>
      </trkpt>
      <trkpt lat="42.32919" lon="-4.80323">
        <ele>907.7456392012537</ele>
        <time>2022-05-18T12:04:34Z</time>
      </trkpt>
      <trkpt lat="42.329193" lon="-4.803369">
        <ele>910.3368151504546</ele>
        <time>2022-05-18T12:04:47Z</time>
      </trkpt>
      <trkpt lat="42.329177" lon="-4.803495">
        <ele>907.3416615156457</ele>
        <time>2022-05-18T12:04:54Z</time>
      </trkpt>
      <trkpt lat="42.329191" lon="-4.803623">
        <ele>908.2601534863934</ele>
        <time>2022-05-18T12:05:01Z</time>
      </trkpt>
      <trkpt lat="42.329202" lon="-4.803753">
        <ele>907.5151955606416</ele>
        <time>2022-05-18T12:05:11Z</time>
      </trkpt>
      <trkpt lat="42.329187" lon="-4.803873">
        <ele>906.615236886777</ele>
        <time>2022-05-18T12:05:19Z</time>
      </trkpt>
      <trkpt lat="42.32919" lon="-4.804004">
        <ele>907.716783516109</ele>
        <time>2022-05-18T12:05:27Z</time>
      </trkpt>
      <trkpt lat="42.329182" lon="-4.804133">
        <ele>907.554573670961</ele>
        <time>2022-05-18T12:05:37Z</time>
      </trkpt>
      <trkpt lat="42.329179" lon="-4.804262">
        <ele>906.7978731188923</ele>
        <time>2022-05-18T12:05:46Z</time>
      </trkpt>
      <trkpt lat="42.329154" lon="-4.804381">
        <ele>913.7626479407772</ele>
        <time>2022-05-18T12:06:09Z</time>
      </trkpt>
      <trkpt lat="42.329061" lon="-4.804381">
        <ele>916.1572542740032</ele>
        <time>2022-05-18T12:06:14Z</time>
      </trkpt>
      <trkpt lat="42.328972" lon="-4.804351">
        <ele>918.164509803988</ele>
        <time>2022-05-18T12:06:21Z</time>
      </trkpt>
      <trkpt lat="42.32888" lon="-4.804362">
        <ele>919.9336964441463</ele>
        <time>2022-05-18T12:06:28Z</time>
      </trkpt>
      <trkpt lat="42.328783" lon="-4.804378">
        <ele>921.1892801281065</ele>
        <time>2022-05-18T12:06:36Z</time>
      </trkpt>
      <trkpt lat="42.328693" lon="-4.804402">
        <ele>921.4455014849082</ele>
        <time>2022-05-18T12:06:48Z</time>
      </trkpt>
      <trkpt lat="42.328605" lon="-4.804446">
        <ele>924.2401209026575</ele>
        <time>2022-05-18T12:06:57Z</time>
      </trkpt>
      <trkpt lat="42.328511" lon="-4.804488">
        <ele>918.8006086861715</ele>
        <time>2022-05-18T12:07:03Z</time>
      </trkpt>
      <trkpt lat="42.328461" lon="-4.804595">
        <ele>916.1002138080075</ele>
        <time>2022-05-18T12:07:13Z</time>
      </trkpt>
      <trkpt lat="42.328465" lon="-4.804719">
        <ele>914.6233328636736</ele>
        <time>2022-05-18T12:07:22Z</time>
      </trkpt>
      <trkpt lat="42.328511" lon="-4.804835">
        <ele>912.642097148113</ele>
        <time>2022-05-18T12:07:28Z</time>
      </trkpt>
      <trkpt lat="42.328573" lon="-4.80494">
        <ele>910.4164473172277</ele>
        <time>2022-05-18T12:07:35Z</time>
      </trkpt>
      <trkpt lat="42.328633" lon="-4.805045">
        <ele>911.2367708524689</ele>
        <time>2022-05-18T12:07:43Z</time>
      </trkpt>
      <trkpt lat="42.328687" lon="-4.805147">
        <ele>914.6202642833814</ele>
        <time>2022-05-18T12:07:54Z</time>
      </trkpt>
      <trkpt lat="42.328719" lon="-4.805271">
        <ele>917.920592430979</ele>
        <time>2022-05-18T12:08:04Z</time>
      </trkpt>
      <trkpt lat="42.328743" lon="-4.805396">
        <ele>918.7880459111184</ele>
        <time>2022-05-18T12:08:13Z</time>
      </trkpt>
      <trkpt lat="42.328726" lon="-4.805527">
        <ele>918.2695315815508</ele>
        <time>2022-05-18T12:08:21Z</time>
      </trkpt>
      <trkpt lat="42.328771" lon="-4.805644">
        <ele>917.3063090089709</ele>
        <time>2022-05-18T12:08:29Z</time>
      </trkpt>
      <trkpt lat="42.328843" lon="-4.805739">
        <ele>916.9151280922815</ele>
        <time>2022-05-18T12:08:37Z</time>
      </trkpt>
      <trkpt lat="42.328878" lon="-4.805864">
        <ele>914.9061307851225</ele>
        <time>2022-05-18T12:08:45Z</time>
      </trkpt>
      <trkpt lat="42.328894" lon="-4.805997">
        <ele>909.2250409163535</ele>
        <time>2022-05-18T12:08:56Z</time>
      </trkpt>
      <trkpt lat="42.328908" lon="-4.806122">
        <ele>906.8737011700869</ele>
        <time>2022-05-18T12:09:06Z</time>
      </trkpt>
      <trkpt lat="42.328981" lon="-4.806194">
        <ele>904.427307203412</ele>
        <time>2022-05-18T12:09:14Z</time>
      </trkpt>
      <trkpt lat="42.329057" lon="-4.806284">
        <ele>903.0027669724077</ele>
        <time>2022-05-18T12:09:22Z</time>
      </trkpt>
      <trkpt lat="42.329129" lon="-4.806357">
        <ele>901.5078272195533</ele>
        <time>2022-05-18T12:09:31Z</time>
      </trkpt>
      <trkpt lat="42.329204" lon="-4.806444">
        <ele>905.2416592603549</ele>
        <time>2022-05-18T12:09:43Z</time>
      </trkpt>
      <trkpt lat="42.329258" lon="-4.806546">
        <ele>904.0406951643527</ele>
        <time>2022-05-18T12:09:53Z</time>
      </trkpt>
      <trkpt lat="42.329311" lon="-4.806653">
        <ele>905.9564605467021</ele>
        <time>2022-05-18T12:10:02Z</time>
      </trkpt>
      <trkpt lat="42.32935" lon="-4.80678">
        <ele>908.250988134183</ele>
        <time>2022-05-18T12:10:13Z</time>
      </trkpt>
      <trkpt lat="42.329342" lon="-4.806917">
        <ele>907.4179261662066</ele>
        <time>2022-05-18T12:10:23Z</time>
      </trkpt>
      <trkpt lat="42.32934" lon="-4.807051">
        <ele>909.1804769365117</ele>
        <time>2022-05-18T12:10:34Z</time>
      </trkpt>
      <trkpt lat="42.329355" lon="-4.80718">
        <ele>910.8884759014472</ele>
        <time>2022-05-18T12:10:43Z</time>
      </trkpt>
      <trkpt lat="42.329341" lon="-4.807305">
        <ele>913.2922953823581</ele>
        <time>2022-05-18T12:10:53Z</time>
      </trkpt>
      <trkpt lat="42.329339" lon="-4.807445">
        <ele>913.9490450927988</ele>
        <time>2022-05-18T12:11:01Z</time>
      </trkpt>
      <trkpt lat="42.329361" lon="-4.807581">
        <ele>913.554477927275</ele>
        <time>2022-05-18T12:11:09Z</time>
      </trkpt>
      <trkpt lat="42.329387" lon="-4.807706">
        <ele>913.9669222030789</ele>
        <time>2022-05-18T12:11:16Z</time>
      </trkpt>
      <trkpt lat="42.329438" lon="-4.807813">
        <ele>913.6123876590282</ele>
        <time>2022-05-18T12:11:25Z</time>
      </trkpt>
      <trkpt lat="42.329425" lon="-4.807937">
        <ele>913.0107560064644</ele>
        <time>2022-05-18T12:11:34Z</time>
      </trkpt>
      <trkpt lat="42.329406" lon="-4.80806">
        <ele>910.7989327199757</ele>
        <time>2022-05-18T12:11:42Z</time>
      </trkpt>
      <trkpt lat="42.329363" lon="-4.808168">
        <ele>906.0746479509398</ele>
        <time>2022-05-18T12:11:51Z</time>
      </trkpt>
      <trkpt lat="42.329345" lon="-4.808296">
        <ele>903.1286271158606</ele>
        <time>2022-05-18T12:12:01Z</time>
      </trkpt>
      <trkpt lat="42.329364" lon="-4.808417">
        <ele>902.0184704726562</ele>
        <time>2022-05-18T12:12:11Z</time>
      </trkpt>
      <trkpt lat="42.32937" lon="-4.808552">
        <ele>904.7034493274987</ele>
        <time>2022-05-18T12:12:20Z</time>
      </trkpt>
      <trkpt lat="42.32939" lon="-4.808672">
        <ele>904.5875154547393</ele>
        <time>2022-05-18T12:12:28Z</time>
      </trkpt>
      <trkpt lat="42.329388" lon="-4.808798">
        <ele>905.3929183362052</ele>
        <time>2022-05-18T12:12:38Z</time>
      </trkpt>
      <trkpt lat="42.329387" lon="-4.808927">
        <ele>906.3815468130633</ele>
        <time>2022-05-18T12:12:47Z</time>
      </trkpt>
      <trkpt lat="42.329368" lon="-4.809057">
        <ele>908.6481934618205</ele>
        <time>2022-05-18T12:12:56Z</time>
      </trkpt>
      <trkpt lat="42.329346" lon="-4.809182">
        <ele>909.4175510704517</ele>
        <time>2022-05-18T12:13:04Z</time>
      </trkpt>
      <trkpt lat="42.329316" lon="-4.809305">
        <ele>907.8087421953678</ele>
        <time>2022-05-18T12:13:14Z</time>
      </trkpt>
      <trkpt lat="42.329348" lon="-4.809421">
        <ele>907.704181403853</ele>
        <time>2022-05-18T12:13:23Z</time>
      </trkpt>
      <trkpt lat="42.32939" lon="-4.809532">
        <ele>906.8719945084304</ele>
        <time>2022-05-18T12:13:32Z</time>
      </trkpt>
      <trkpt lat="42.329422" lon="-4.809659">
        <ele>908.7341260313988</ele>
        <time>2022-05-18T12:13:41Z</time>
      </trkpt>
      <trkpt lat="42.329448" lon="-4.809793">
        <ele>909.4061013534665</ele>
        <time>2022-05-18T12:13:50Z</time>
      </trkpt>
      <trkpt lat="42.32946" lon="-4.809926">
        <ele>909.1447969535366</ele>
        <time>2022-05-18T12:14:00Z</time>
      </trkpt>
      <trkpt lat="42.329484" lon="-4.810048">
        <ele>909.42875710316</ele>
        <time>2022-05-18T12:14:09Z</time>
      </trkpt>
      <trkpt lat="42.329487" lon="-4.810183">
        <ele>910.3259972594678</ele>
        <time>2022-05-18T12:14:18Z</time>
      </trkpt>
      <trkpt lat="42.329484" lon="-4.810313">
        <ele>911.465423678048</ele>
        <time>2022-05-18T12:14:27Z</time>
      </trkpt>
      <trkpt lat="42.329489" lon="-4.810441">
        <ele>911.8847435880452</ele>
        <time>2022-05-18T12:14:34Z</time>
      </trkpt>
      <trkpt lat="42.329486" lon="-4.810577">
        <ele>913.339966638945</ele>
        <time>2022-05-18T12:14:44Z</time>
      </trkpt>
      <trkpt lat="42.329452" lon="-4.810698">
        <ele>911.8749867975712</ele>
        <time>2022-05-18T12:14:53Z</time>
      </trkpt>
      <trkpt lat="42.329432" lon="-4.810816">
        <ele>910.8357589021325</ele>
        <time>2022-05-18T12:15:02Z</time>
      </trkpt>
      <trkpt lat="42.329432" lon="-4.810938">
        <ele>908.9864027285948</ele>
        <time>2022-05-18T12:15:11Z</time>
      </trkpt>
      <trkpt lat="42.329439" lon="-4.811064">
        <ele>906.2524596685544</ele>
        <time>2022-05-18T12:15:27Z</time>
      </trkpt>
      <trkpt lat="42.329443" lon="-4.8112">
        <ele>903.5049099214375</ele>
        <time>2022-05-18T12:15:36Z</time>
      </trkpt>
      <trkpt lat="42.329457" lon="-4.811331">
        <ele>901.4811755660921</ele>
        <time>2022-05-18T12:15:46Z</time>
      </trkpt>
      <trkpt lat="42.329458" lon="-4.811465">
        <ele>900.6444188514724</ele>
        <time>2022-05-18T12:15:55Z</time>
      </trkpt>
      <trkpt lat="42.329458" lon="-4.811597">
        <ele>900.5973209086806</ele>
        <time>2022-05-18T12:16:04Z</time>
      </trkpt>
      <trkpt lat="42.329468" lon="-4.811723">
        <ele>901.3771621538326</ele>
        <time>2022-05-18T12:16:13Z</time>
      </trkpt>
      <trkpt lat="42.329478" lon="-4.811859">
        <ele>900.9113560132682</ele>
        <time>2022-05-18T12:16:22Z</time>
      </trkpt>
      <trkpt lat="42.329487" lon="-4.811985">
        <ele>900.355256264098</ele>
        <time>2022-05-18T12:16:30Z</time>
      </trkpt>
      <trkpt lat="42.3295" lon="-4.812113">
        <ele>900.1767787626013</ele>
        <time>2022-05-18T12:16:39Z</time>
      </trkpt>
      <trkpt lat="42.329504" lon="-4.81224">
        <ele>900.0026499507949</ele>
        <time>2022-05-18T12:16:48Z</time>
      </trkpt>
      <trkpt lat="42.32953" lon="-4.812365">
        <ele>901.1883648494259</ele>
        <time>2022-05-18T12:16:57Z</time>
      </trkpt>
      <trkpt lat="42.329556" lon="-4.81249">
        <ele>901.5582849588245</ele>
        <time>2022-05-18T12:17:06Z</time>
      </trkpt>
      <trkpt lat="42.329591" lon="-4.812602">
        <ele>902.0223211087286</ele>
        <time>2022-05-18T12:17:14Z</time>
      </trkpt>
      <trkpt lat="42.329635" lon="-4.812715">
        <ele>905.2644913950935</ele>
        <time>2022-05-18T12:17:24Z</time>
      </trkpt>
      <trkpt lat="42.329694" lon="-4.812809">
        <ele>911.5414935704321</ele>
        <time>2022-05-18T12:17:45Z</time>
      </trkpt>
      <trkpt lat="42.329741" lon="-4.812914">
        <ele>917.1519078062847</ele>
        <time>2022-05-18T12:17:59Z</time>
      </trkpt>
      <trkpt lat="42.329791" lon="-4.813027">
        <ele>920.5649776542559</ele>
        <time>2022-05-18T12:18:12Z</time>
      </trkpt>
      <trkpt lat="42.329847" lon="-4.813123">
        <ele>923.2259685667232</ele>
        <time>2022-05-18T12:18:25Z</time>
      </trkpt>
      <trkpt lat="42.329902" lon="-4.813225">
        <ele>923.7275438476354</ele>
        <time>2022-05-18T12:18:32Z</time>
      </trkpt>
      <trkpt lat="42.329982" lon="-4.813311">
        <ele>924.2100537987426</ele>
        <time>2022-05-18T12:18:43Z</time>
      </trkpt>
      <trkpt lat="42.330034" lon="-4.813424">
        <ele>922.7008045576513</ele>
        <time>2022-05-18T12:18:52Z</time>
      </trkpt>
      <trkpt lat="42.330076" lon="-4.813534">
        <ele>921.3288985518739</ele>
        <time>2022-05-18T12:19:02Z</time>
      </trkpt>
      <trkpt lat="42.330129" lon="-4.813643">
        <ele>922.3611437873915</ele>
        <time>2022-05-18T12:19:12Z</time>
      </trkpt>
      <trkpt lat="42.330189" lon="-4.813741">
        <ele>922.5073105329648</ele>
        <time>2022-05-18T12:19:20Z</time>
      </trkpt>
      <trkpt lat="42.33025" lon="-4.813843">
        <ele>924.0664649242535</ele>
        <time>2022-05-18T12:19:30Z</time>
      </trkpt>
      <trkpt lat="42.33031" lon="-4.813947">
        <ele>924.754260821268</ele>
        <time>2022-05-18T12:19:39Z</time>
      </trkpt>
      <trkpt lat="42.330378" lon="-4.814047">
        <ele>927.3035427741706</ele>
        <time>2022-05-18T12:19:48Z</time>
      </trkpt>
      <trkpt lat="42.330443" lon="-4.814148">
        <ele>927.5080787958577</ele>
        <time>2022-05-18T12:19:57Z</time>
      </trkpt>
      <trkpt lat="42.330505" lon="-4.814244">
        <ele>927.8506601694971</ele>
        <time>2022-05-18T12:20:06Z</time>
      </trkpt>
      <trkpt lat="42.330564" lon="-4.81435">
        <ele>925.7189331678674</ele>
        <time>2022-05-18T12:20:16Z</time>
      </trkpt>
      <trkpt lat="42.330627" lon="-4.814438">
        <ele>923.3610115507618</ele>
        <time>2022-05-18T12:20:23Z</time>
      </trkpt>
      <trkpt lat="42.330691" lon="-4.814529">
        <ele>922.4413405377418</ele>
        <time>2022-05-18T12:20:34Z</time>
      </trkpt>
      <trkpt lat="42.330754" lon="-4.814628">
        <ele>920.8992368467152</ele>
        <time>2022-05-18T12:20:41Z</time>
      </trkpt>
      <trkpt lat="42.330816" lon="-4.814738">
        <ele>922.8215722385794</ele>
        <time>2022-05-18T12:20:51Z</time>
      </trkpt>
      <trkpt lat="42.330874" lon="-4.814834">
        <ele>923.0989316664636</ele>
        <time>2022-05-18T12:20:59Z</time>
      </trkpt>
      <trkpt lat="42.330934" lon="-4.814933">
        <ele>922.9791964283213</ele>
        <time>2022-05-18T12:21:08Z</time>
      </trkpt>
      <trkpt lat="42.330998" lon="-4.815037">
        <ele>923.4197785239667</ele>
        <time>2022-05-18T12:21:17Z</time>
      </trkpt>
      <trkpt lat="42.331063" lon="-4.815137">
        <ele>924.0024023884907</ele>
        <time>2022-05-18T12:21:24Z</time>
      </trkpt>
      <trkpt lat="42.331121" lon="-4.815231">
        <ele>924.7248434638605</ele>
        <time>2022-05-18T12:21:31Z</time>
      </trkpt>
      <trkpt lat="42.331194" lon="-4.815323">
        <ele>924.770799446851</ele>
        <time>2022-05-18T12:21:38Z</time>
      </trkpt>
      <trkpt lat="42.331273" lon="-4.815404">
        <ele>925.8823763523251</ele>
        <time>2022-05-18T12:21:45Z</time>
      </trkpt>
      <trkpt lat="42.331328" lon="-4.815506">
        <ele>926.2791766282171</ele>
        <time>2022-05-18T12:21:53Z</time>
      </trkpt>
      <trkpt lat="42.331369" lon="-4.815615">
        <ele>924.1918149972335</ele>
        <time>2022-05-18T12:22:03Z</time>
      </trkpt>
      <trkpt lat="42.33141" lon="-4.815733">
        <ele>923.3812669739127</ele>
        <time>2022-05-18T12:22:13Z</time>
      </trkpt>
      <trkpt lat="42.331459" lon="-4.815846">
        <ele>921.9733892614022</ele>
        <time>2022-05-18T12:22:23Z</time>
      </trkpt>
      <trkpt lat="42.331518" lon="-4.815949">
        <ele>920.2463014330715</ele>
        <time>2022-05-18T12:22:32Z</time>
      </trkpt>
      <trkpt lat="42.331568" lon="-4.816065">
        <ele>919.2487825937569</ele>
        <time>2022-05-18T12:22:41Z</time>
      </trkpt>
      <trkpt lat="42.331632" lon="-4.816162">
        <ele>919.1400574389845</ele>
        <time>2022-05-18T12:22:48Z</time>
      </trkpt>
      <trkpt lat="42.331678" lon="-4.816267">
        <ele>919.9351217178628</ele>
        <time>2022-05-18T12:22:58Z</time>
      </trkpt>
      <trkpt lat="42.331739" lon="-4.816367">
        <ele>918.8670680709183</ele>
        <time>2022-05-18T12:23:07Z</time>
      </trkpt>
      <trkpt lat="42.331816" lon="-4.816458">
        <ele>918.1874307384714</ele>
        <time>2022-05-18T12:23:16Z</time>
      </trkpt>
      <trkpt lat="42.331886" lon="-4.816542">
        <ele>917.0375417405739</ele>
        <time>2022-05-18T12:23:26Z</time>
      </trkpt>
      <trkpt lat="42.331939" lon="-4.816645">
        <ele>915.8378672180697</ele>
        <time>2022-05-18T12:23:34Z</time>
      </trkpt>
      <trkpt lat="42.332003" lon="-4.816733">
        <ele>913.7476311288774</ele>
        <time>2022-05-18T12:23:42Z</time>
      </trkpt>
      <trkpt lat="42.332053" lon="-4.816835">
        <ele>911.9863583995029</ele>
        <time>2022-05-18T12:23:50Z</time>
      </trkpt>
      <trkpt lat="42.332098" lon="-4.816942">
        <ele>910.7865472733974</ele>
        <time>2022-05-18T12:23:59Z</time>
      </trkpt>
      <trkpt lat="42.332167" lon="-4.817043">
        <ele>911.9002199256793</ele>
        <time>2022-05-18T12:24:08Z</time>
      </trkpt>
      <trkpt lat="42.332221" lon="-4.817142">
        <ele>912.7035385491326</ele>
        <time>2022-05-18T12:24:16Z</time>
      </trkpt>
      <trkpt lat="42.33228" lon="-4.81725">
        <ele>912.5718980068341</ele>
        <time>2022-05-18T12:24:25Z</time>
      </trkpt>
      <trkpt lat="42.332337" lon="-4.817354">
        <ele>912.0892483023927</ele>
        <time>2022-05-18T12:24:33Z</time>
      </trkpt>
      <trkpt lat="42.332389" lon="-4.817456">
        <ele>912.9099482214078</ele>
        <time>2022-05-18T12:24:39Z</time>
      </trkpt>
      <trkpt lat="42.332447" lon="-4.817558">
        <ele>912.5226883953437</ele>
        <time>2022-05-18T12:24:48Z</time>
      </trkpt>
      <trkpt lat="42.332498" lon="-4.817665">
        <ele>912.9301614705473</ele>
        <time>2022-05-18T12:24:56Z</time>
      </trkpt>
      <trkpt lat="42.33256" lon="-4.817753">
        <ele>912.6317978482693</ele>
        <time>2022-05-18T12:25:02Z</time>
      </trkpt>
      <trkpt lat="42.332618" lon="-4.817849">
        <ele>912.9211019203067</ele>
        <time>2022-05-18T12:25:11Z</time>
      </trkpt>
      <trkpt lat="42.332674" lon="-4.817947">
        <ele>911.4920208984986</ele>
        <time>2022-05-18T12:25:17Z</time>
      </trkpt>
      <trkpt lat="42.332743" lon="-4.818026">
        <ele>910.3257465763018</ele>
        <time>2022-05-18T12:25:23Z</time>
      </trkpt>
      <trkpt lat="42.332807" lon="-4.818139">
        <ele>908.7917668800801</ele>
        <time>2022-05-18T12:25:31Z</time>
      </trkpt>
      <trkpt lat="42.332859" lon="-4.818249">
        <ele>907.987215038389</ele>
        <time>2022-05-18T12:25:37Z</time>
      </trkpt>
      <trkpt lat="42.332911" lon="-4.81835">
        <ele>908.4786233529449</ele>
        <time>2022-05-18T12:25:45Z</time>
      </trkpt>
      <trkpt lat="42.332972" lon="-4.818464">
        <ele>907.6860300339758</ele>
        <time>2022-05-18T12:25:52Z</time>
      </trkpt>
      <trkpt lat="42.333034" lon="-4.818573">
        <ele>906.8789164191112</ele>
        <time>2022-05-18T12:25:59Z</time>
      </trkpt>
      <trkpt lat="42.333085" lon="-4.818679">
        <ele>905.7207424640656</ele>
        <time>2022-05-18T12:26:06Z</time>
      </trkpt>
      <trkpt lat="42.333145" lon="-4.818789">
        <ele>906.2732401788235</ele>
        <time>2022-05-18T12:26:13Z</time>
      </trkpt>
      <trkpt lat="42.333199" lon="-4.818902">
        <ele>904.6147369984537</ele>
        <time>2022-05-18T12:26:22Z</time>
      </trkpt>
      <trkpt lat="42.333253" lon="-4.819004">
        <ele>904.4208906367421</ele>
        <time>2022-05-18T12:26:28Z</time>
      </trkpt>
      <trkpt lat="42.333304" lon="-4.819109">
        <ele>903.4762847032398</ele>
        <time>2022-05-18T12:26:35Z</time>
      </trkpt>
      <trkpt lat="42.333366" lon="-4.819213">
        <ele>902.9322562739253</ele>
        <time>2022-05-18T12:26:43Z</time>
      </trkpt>
      <trkpt lat="42.33342" lon="-4.81932">
        <ele>902.6720824614167</ele>
        <time>2022-05-18T12:26:50Z</time>
      </trkpt>
      <trkpt lat="42.333476" lon="-4.819427">
        <ele>902.7442578487098</ele>
        <time>2022-05-18T12:26:59Z</time>
      </trkpt>
      <trkpt lat="42.333526" lon="-4.819531">
        <ele>903.1527801416814</ele>
        <time>2022-05-18T12:27:06Z</time>
      </trkpt>
      <trkpt lat="42.333596" lon="-4.819629">
        <ele>903.4637663606554</ele>
        <time>2022-05-18T12:27:15Z</time>
      </trkpt>
      <trkpt lat="42.333649" lon="-4.819739">
        <ele>902.5147250909358</ele>
        <time>2022-05-18T12:27:23Z</time>
      </trkpt>
      <trkpt lat="42.333714" lon="-4.819835">
        <ele>901.3018674729392</ele>
        <time>2022-05-18T12:27:32Z</time>
      </trkpt>
      <trkpt lat="42.333755" lon="-4.819947">
        <ele>899.3806074671447</ele>
        <time>2022-05-18T12:27:39Z</time>
      </trkpt>
      <trkpt lat="42.333815" lon="-4.82006">
        <ele>899.807219851762</ele>
        <time>2022-05-18T12:27:48Z</time>
      </trkpt>
      <trkpt lat="42.33387" lon="-4.820163">
        <ele>900.351833190769</ele>
        <time>2022-05-18T12:27:55Z</time>
      </trkpt>
      <trkpt lat="42.333924" lon="-4.820266">
        <ele>900.2165752556175</ele>
        <time>2022-05-18T12:28:05Z</time>
      </trkpt>
      <trkpt lat="42.333981" lon="-4.82037">
        <ele>901.9714052183554</ele>
        <time>2022-05-18T12:28:13Z</time>
      </trkpt>
      <trkpt lat="42.334036" lon="-4.820478">
        <ele>902.0044185929</ele>
        <time>2022-05-18T12:28:23Z</time>
      </trkpt>
      <trkpt lat="42.334087" lon="-4.820592">
        <ele>903.0514124762267</ele>
        <time>2022-05-18T12:28:31Z</time>
      </trkpt>
      <trkpt lat="42.33414" lon="-4.820706">
        <ele>902.462245807983</ele>
        <time>2022-05-18T12:28:39Z</time>
      </trkpt>
      <trkpt lat="42.334187" lon="-4.820816">
        <ele>904.110939476639</ele>
        <time>2022-05-18T12:28:48Z</time>
      </trkpt>
      <trkpt lat="42.334242" lon="-4.820933">
        <ele>903.9217445300892</ele>
        <time>2022-05-18T12:28:57Z</time>
      </trkpt>
      <trkpt lat="42.334291" lon="-4.82104">
        <ele>903.7833730578423</ele>
        <time>2022-05-18T12:29:04Z</time>
      </trkpt>
      <trkpt lat="42.33434" lon="-4.821148">
        <ele>905.4831856247038</ele>
        <time>2022-05-18T12:29:11Z</time>
      </trkpt>
      <trkpt lat="42.334408" lon="-4.821248">
        <ele>906.5795426107943</ele>
        <time>2022-05-18T12:29:19Z</time>
      </trkpt>
      <trkpt lat="42.334458" lon="-4.821348">
        <ele>906.803002467379</ele>
        <time>2022-05-18T12:29:25Z</time>
      </trkpt>
      <trkpt lat="42.334525" lon="-4.821435">
        <ele>906.3599582565948</ele>
        <time>2022-05-18T12:29:32Z</time>
      </trkpt>
      <trkpt lat="42.334581" lon="-4.821533">
        <ele>905.8222396196797</ele>
        <time>2022-05-18T12:29:42Z</time>
      </trkpt>
      <trkpt lat="42.334633" lon="-4.821644">
        <ele>904.9577367864549</ele>
        <time>2022-05-18T12:29:49Z</time>
      </trkpt>
      <trkpt lat="42.334687" lon="-4.821751">
        <ele>903.3971206527203</ele>
        <time>2022-05-18T12:29:56Z</time>
      </trkpt>
      <trkpt lat="42.334752" lon="-4.821854">
        <ele>904.7643071077764</ele>
        <time>2022-05-18T12:30:06Z</time>
      </trkpt>
      <trkpt lat="42.334802" lon="-4.821967">
        <ele>902.9845195710659</ele>
        <time>2022-05-18T12:30:16Z</time>
      </trkpt>
      <trkpt lat="42.334805" lon="-4.822099">
        <ele>898.499263651669</ele>
        <time>2022-05-18T12:32:15Z</time>
      </trkpt>
      <trkpt lat="42.334865" lon="-4.82221">
        <ele>898.3863324215636</ele>
        <time>2022-05-18T12:32:23Z</time>
      </trkpt>
      <trkpt lat="42.334907" lon="-4.822319">
        <ele>898.3980410778895</ele>
        <time>2022-05-18T12:32:30Z</time>
      </trkpt>
      <trkpt lat="42.334966" lon="-4.822431">
        <ele>899.0358494212851</ele>
        <time>2022-05-18T12:32:36Z</time>
      </trkpt>
      <trkpt lat="42.335024" lon="-4.822545">
        <ele>898.8409748189151</ele>
        <time>2022-05-18T12:32:43Z</time>
      </trkpt>
      <trkpt lat="42.335092" lon="-4.822652">
        <ele>899.289055839181</ele>
        <time>2022-05-18T12:32:50Z</time>
      </trkpt>
      <trkpt lat="42.335149" lon="-4.82275">
        <ele>899.688079723157</ele>
        <time>2022-05-18T12:32:57Z</time>
      </trkpt>
      <trkpt lat="42.33521" lon="-4.822863">
        <ele>898.827812760137</ele>
        <time>2022-05-18T12:33:06Z</time>
      </trkpt>
      <trkpt lat="42.33527" lon="-4.822961">
        <ele>896.8874166663736</ele>
        <time>2022-05-18T12:33:13Z</time>
      </trkpt>
      <trkpt lat="42.335321" lon="-4.823074">
        <ele>895.3456892194226</ele>
        <time>2022-05-18T12:33:22Z</time>
      </trkpt>
      <trkpt lat="42.335374" lon="-4.823192">
        <ele>895.0599471963942</ele>
        <time>2022-05-18T12:33:31Z</time>
      </trkpt>
      <trkpt lat="42.335432" lon="-4.823298">
        <ele>894.7874259622768</ele>
        <time>2022-05-18T12:33:39Z</time>
      </trkpt>
      <trkpt lat="42.335491" lon="-4.823396">
        <ele>895.2587738111615</ele>
        <time>2022-05-18T12:33:48Z</time>
      </trkpt>
      <trkpt lat="42.335548" lon="-4.823495">
        <ele>896.4438124625012</ele>
        <time>2022-05-18T12:33:57Z</time>
      </trkpt>
      <trkpt lat="42.33562" lon="-4.823603">
        <ele>898.1376048093662</ele>
        <time>2022-05-18T12:34:04Z</time>
      </trkpt>
      <trkpt lat="42.335679" lon="-4.823707">
        <ele>898.9961171094328</ele>
        <time>2022-05-18T12:34:12Z</time>
      </trkpt>
      <trkpt lat="42.335734" lon="-4.823808">
        <ele>898.9141798419878</ele>
        <time>2022-05-18T12:34:19Z</time>
      </trkpt>
      <trkpt lat="42.335801" lon="-4.823894">
        <ele>901.0656422963366</ele>
        <time>2022-05-18T12:34:27Z</time>
      </trkpt>
      <trkpt lat="42.335854" lon="-4.823994">
        <ele>900.0213995622471</ele>
        <time>2022-05-18T12:34:33Z</time>
      </trkpt>
      <trkpt lat="42.335893" lon="-4.824104">
        <ele>899.7755079437047</ele>
        <time>2022-05-18T12:34:41Z</time>
      </trkpt>
      <trkpt lat="42.335936" lon="-4.824221">
        <ele>899.2039332594723</ele>
        <time>2022-05-18T12:34:50Z</time>
      </trkpt>
      <trkpt lat="42.335975" lon="-4.824332">
        <ele>898.5805962057784</ele>
        <time>2022-05-18T12:34:57Z</time>
      </trkpt>
      <trkpt lat="42.336021" lon="-4.824446">
        <ele>896.9924607351422</ele>
        <time>2022-05-18T12:35:05Z</time>
      </trkpt>
      <trkpt lat="42.336079" lon="-4.824549">
        <ele>896.4561521671712</ele>
        <time>2022-05-18T12:35:11Z</time>
      </trkpt>
      <trkpt lat="42.336146" lon="-4.824633">
        <ele>894.9009631583467</ele>
        <time>2022-05-18T12:35:17Z</time>
      </trkpt>
      <trkpt lat="42.336212" lon="-4.824735">
        <ele>894.9863579049706</ele>
        <time>2022-05-18T12:35:23Z</time>
      </trkpt>
      <trkpt lat="42.336267" lon="-4.824843">
        <ele>894.6211179308593</ele>
        <time>2022-05-18T12:35:32Z</time>
      </trkpt>
      <trkpt lat="42.336304" lon="-4.82496">
        <ele>894.7658645547926</ele>
        <time>2022-05-18T12:35:40Z</time>
      </trkpt>
      <trkpt lat="42.336339" lon="-4.825074">
        <ele>894.0913174338639</ele>
        <time>2022-05-18T12:35:47Z</time>
      </trkpt>
      <trkpt lat="42.336392" lon="-4.825181">
        <ele>893.0249856635928</ele>
        <time>2022-05-18T12:35:54Z</time>
      </trkpt>
      <trkpt lat="42.336447" lon="-4.825296">
        <ele>893.7990007922053</ele>
        <time>2022-05-18T12:36:03Z</time>
      </trkpt>
      <trkpt lat="42.336511" lon="-4.825397">
        <ele>895.6262505566701</ele>
        <time>2022-05-18T12:36:11Z</time>
      </trkpt>
      <trkpt lat="42.336567" lon="-4.825494">
        <ele>896.5783015890047</ele>
        <time>2022-05-18T12:36:19Z</time>
      </trkpt>
      <trkpt lat="42.336612" lon="-4.825602">
        <ele>897.0795544032007</ele>
        <time>2022-05-18T12:36:28Z</time>
      </trkpt>
      <trkpt lat="42.336669" lon="-4.825704">
        <ele>896.2766430731863</ele>
        <time>2022-05-18T12:36:35Z</time>
      </trkpt>
      <trkpt lat="42.33673" lon="-4.825807">
        <ele>896.1651286659762</ele>
        <time>2022-05-18T12:36:43Z</time>
      </trkpt>
      <trkpt lat="42.336794" lon="-4.825904">
        <ele>895.7896162578836</ele>
        <time>2022-05-18T12:36:53Z</time>
      </trkpt>
      <trkpt lat="42.336831" lon="-4.826019">
        <ele>894.4982787091285</ele>
        <time>2022-05-18T12:37:00Z</time>
      </trkpt>
      <trkpt lat="42.336894" lon="-4.826121">
        <ele>895.320039216429</ele>
        <time>2022-05-18T12:37:08Z</time>
      </trkpt>
      <trkpt lat="42.336939" lon="-4.826232">
        <ele>895.3100679563358</ele>
        <time>2022-05-18T12:37:16Z</time>
      </trkpt>
      <trkpt lat="42.336996" lon="-4.826328">
        <ele>895.6120768431574</ele>
        <time>2022-05-18T12:37:25Z</time>
      </trkpt>
      <trkpt lat="42.337042" lon="-4.826433">
        <ele>896.2855771360919</ele>
        <time>2022-05-18T12:37:33Z</time>
      </trkpt>
      <trkpt lat="42.337082" lon="-4.826549">
        <ele>895.9575094785541</ele>
        <time>2022-05-18T12:37:41Z</time>
      </trkpt>
      <trkpt lat="42.337133" lon="-4.826662">
        <ele>895.4568320764229</ele>
        <time>2022-05-18T12:37:49Z</time>
      </trkpt>
      <trkpt lat="42.337182" lon="-4.82678">
        <ele>894.9443774819374</ele>
        <time>2022-05-18T12:37:57Z</time>
      </trkpt>
      <trkpt lat="42.337234" lon="-4.826879">
        <ele>894.0258686449379</ele>
        <time>2022-05-18T12:38:04Z</time>
      </trkpt>
      <trkpt lat="42.337285" lon="-4.826986">
        <ele>894.1992138084024</ele>
        <time>2022-05-18T12:38:13Z</time>
      </trkpt>
      <trkpt lat="42.337338" lon="-4.827085">
        <ele>894.431554001756</ele>
        <time>2022-05-18T12:38:21Z</time>
      </trkpt>
      <trkpt lat="42.337388" lon="-4.82719">
        <ele>894.5048571182415</ele>
        <time>2022-05-18T12:38:29Z</time>
      </trkpt>
      <trkpt lat="42.337442" lon="-4.827294">
        <ele>894.4775414420292</ele>
        <time>2022-05-18T12:38:36Z</time>
      </trkpt>
      <trkpt lat="42.337495" lon="-4.827393">
        <ele>895.7443630695343</ele>
        <time>2022-05-18T12:38:44Z</time>
      </trkpt>
      <trkpt lat="42.337546" lon="-4.827496">
        <ele>897.3966145738959</ele>
        <time>2022-05-18T12:38:53Z</time>
      </trkpt>
      <trkpt lat="42.337614" lon="-4.827604">
        <ele>898.2953501800075</ele>
        <time>2022-05-18T12:39:02Z</time>
      </trkpt>
      <trkpt lat="42.33766" lon="-4.827712">
        <ele>898.9191167289391</ele>
        <time>2022-05-18T12:39:10Z</time>
      </trkpt>
      <trkpt lat="42.337697" lon="-4.82783">
        <ele>898.8968370258808</ele>
        <time>2022-05-18T12:39:20Z</time>
      </trkpt>
      <trkpt lat="42.337757" lon="-4.827934">
        <ele>899.9011072786525</ele>
        <time>2022-05-18T12:39:29Z</time>
      </trkpt>
      <trkpt lat="42.337813" lon="-4.828041">
        <ele>898.0048538083211</ele>
        <time>2022-05-18T12:39:37Z</time>
      </trkpt>
      <trkpt lat="42.337884" lon="-4.828139">
        <ele>897.9115615617484</ele>
        <time>2022-05-18T12:39:44Z</time>
      </trkpt>
      <trkpt lat="42.337943" lon="-4.828247">
        <ele>897.6771318269894</ele>
        <time>2022-05-18T12:39:55Z</time>
      </trkpt>
      <trkpt lat="42.338006" lon="-4.828352">
        <ele>897.4871940426528</ele>
        <time>2022-05-18T12:40:01Z</time>
      </trkpt>
      <trkpt lat="42.338055" lon="-4.828454">
        <ele>898.5808463189751</ele>
        <time>2022-05-18T12:40:09Z</time>
      </trkpt>
      <trkpt lat="42.338111" lon="-4.828564">
        <ele>897.953905383125</ele>
        <time>2022-05-18T12:40:17Z</time>
      </trkpt>
      <trkpt lat="42.338175" lon="-4.828665">
        <ele>898.8587016202509</ele>
        <time>2022-05-18T12:40:29Z</time>
      </trkpt>
      <trkpt lat="42.338221" lon="-4.82877">
        <ele>900.6588348606601</ele>
        <time>2022-05-18T12:40:36Z</time>
      </trkpt>
      <trkpt lat="42.338268" lon="-4.82889">
        <ele>901.7732746656984</ele>
        <time>2022-05-18T12:40:45Z</time>
      </trkpt>
      <trkpt lat="42.338314" lon="-4.829002">
        <ele>902.2183390660211</ele>
        <time>2022-05-18T12:40:52Z</time>
      </trkpt>
      <trkpt lat="42.338344" lon="-4.82912">
        <ele>902.4005897268653</ele>
        <time>2022-05-18T12:40:59Z</time>
      </trkpt>
      <trkpt lat="42.338391" lon="-4.829233">
        <ele>903.115523907356</ele>
        <time>2022-05-18T12:41:06Z</time>
      </trkpt>
      <trkpt lat="42.338433" lon="-4.829353">
        <ele>902.979740078561</ele>
        <time>2022-05-18T12:41:13Z</time>
      </trkpt>
      <trkpt lat="42.338485" lon="-4.829472">
        <ele>901.5500255730003</ele>
        <time>2022-05-18T12:41:21Z</time>
      </trkpt>
      <trkpt lat="42.338552" lon="-4.829559">
        <ele>902.1378976888955</ele>
        <time>2022-05-18T12:41:27Z</time>
      </trkpt>
      <trkpt lat="42.338607" lon="-4.82967">
        <ele>901.3458782415837</ele>
        <time>2022-05-18T12:41:34Z</time>
      </trkpt>
      <trkpt lat="42.338665" lon="-4.829776">
        <ele>899.4620510768145</ele>
        <time>2022-05-18T12:41:43Z</time>
      </trkpt>
      <trkpt lat="42.338719" lon="-4.829883">
        <ele>898.6180704561993</ele>
        <time>2022-05-18T12:41:50Z</time>
      </trkpt>
      <trkpt lat="42.338757" lon="-4.830005">
        <ele>898.2941602012143</ele>
        <time>2022-05-18T12:41:59Z</time>
      </trkpt>
      <trkpt lat="42.338798" lon="-4.830119">
        <ele>896.9957417845726</ele>
        <time>2022-05-18T12:42:06Z</time>
      </trkpt>
      <trkpt lat="42.338845" lon="-4.830233">
        <ele>897.8289426369593</ele>
        <time>2022-05-18T12:42:14Z</time>
      </trkpt>
      <trkpt lat="42.338888" lon="-4.830353">
        <ele>898.3179641822353</ele>
        <time>2022-05-18T12:42:22Z</time>
      </trkpt>
      <trkpt lat="42.338945" lon="-4.830466">
        <ele>898.4473962187767</ele>
        <time>2022-05-18T12:42:30Z</time>
      </trkpt>
      <trkpt lat="42.339" lon="-4.830583">
        <ele>899.0504279863089</ele>
        <time>2022-05-18T12:42:37Z</time>
      </trkpt>
      <trkpt lat="42.339055" lon="-4.830704">
        <ele>898.8372208504006</ele>
        <time>2022-05-18T12:42:44Z</time>
      </trkpt>
      <trkpt lat="42.339101" lon="-4.830814">
        <ele>898.9235528921708</ele>
        <time>2022-05-18T12:42:51Z</time>
      </trkpt>
      <trkpt lat="42.339148" lon="-4.830919">
        <ele>898.8097844840959</ele>
        <time>2022-05-18T12:42:59Z</time>
      </trkpt>
      <trkpt lat="42.339194" lon="-4.831036">
        <ele>898.6198739428073</ele>
        <time>2022-05-18T12:43:06Z</time>
      </trkpt>
      <trkpt lat="42.339221" lon="-4.831167">
        <ele>899.4632557472214</ele>
        <time>2022-05-18T12:43:15Z</time>
      </trkpt>
      <trkpt lat="42.339288" lon="-4.831263">
        <ele>898.9695078730583</ele>
        <time>2022-05-18T12:43:23Z</time>
      </trkpt>
      <trkpt lat="42.33934" lon="-4.831366">
        <ele>898.8725692778826</ele>
        <time>2022-05-18T12:43:32Z</time>
      </trkpt>
      <trkpt lat="42.339385" lon="-4.83148">
        <ele>898.0972493551672</ele>
        <time>2022-05-18T12:43:40Z</time>
      </trkpt>
      <trkpt lat="42.339428" lon="-4.831587">
        <ele>897.4554493324831</ele>
        <time>2022-05-18T12:43:46Z</time>
      </trkpt>
      <trkpt lat="42.339477" lon="-4.831691">
        <ele>897.1012375690043</ele>
        <time>2022-05-18T12:43:53Z</time>
      </trkpt>
      <trkpt lat="42.339522" lon="-4.831803">
        <ele>896.6209275322035</ele>
        <time>2022-05-18T12:44:02Z</time>
      </trkpt>
      <trkpt lat="42.339579" lon="-4.831902">
        <ele>899.544723847881</ele>
        <time>2022-05-18T12:44:13Z</time>
      </trkpt>
      <trkpt lat="42.339627" lon="-4.83202">
        <ele>900.428878499195</ele>
        <time>2022-05-18T12:44:21Z</time>
      </trkpt>
      <trkpt lat="42.339675" lon="-4.832135">
        <ele>899.62844642438</ele>
        <time>2022-05-18T12:44:29Z</time>
      </trkpt>
      <trkpt lat="42.339718" lon="-4.832257">
        <ele>899.6136797284707</ele>
        <time>2022-05-18T12:44:37Z</time>
      </trkpt>
      <trkpt lat="42.339769" lon="-4.832371">
        <ele>900.0682953065261</ele>
        <time>2022-05-18T12:44:46Z</time>
      </trkpt>
      <trkpt lat="42.339805" lon="-4.832497">
        <ele>900.0447200145572</ele>
        <time>2022-05-18T12:44:56Z</time>
      </trkpt>
      <trkpt lat="42.339852" lon="-4.8326">
        <ele>900.9983435804024</ele>
        <time>2022-05-18T12:45:05Z</time>
      </trkpt>
      <trkpt lat="42.339901" lon="-4.832721">
        <ele>902.0752561762929</ele>
        <time>2022-05-18T12:45:13Z</time>
      </trkpt>
      <trkpt lat="42.339947" lon="-4.832833">
        <ele>902.6777142286301</ele>
        <time>2022-05-18T12:45:21Z</time>
      </trkpt>
      <trkpt lat="42.339994" lon="-4.832952">
        <ele>904.0383945917711</ele>
        <time>2022-05-18T12:45:31Z</time>
      </trkpt>
      <trkpt lat="42.340048" lon="-4.833053">
        <ele>903.5191862462088</ele>
        <time>2022-05-18T12:45:37Z</time>
      </trkpt>
      <trkpt lat="42.340099" lon="-4.833157">
        <ele>903.0094355354086</ele>
        <time>2022-05-18T12:45:45Z</time>
      </trkpt>
      <trkpt lat="42.340143" lon="-4.833267">
        <ele>900.8687089011073</ele>
        <time>2022-05-18T12:45:50Z</time>
      </trkpt>
      <trkpt lat="42.34018" lon="-4.833383">
        <ele>898.0835532285273</ele>
        <time>2022-05-18T12:45:56Z</time>
      </trkpt>
      <trkpt lat="42.340225" lon="-4.833495">
        <ele>898.0454933298752</ele>
        <time>2022-05-18T12:46:04Z</time>
      </trkpt>
      <trkpt lat="42.340285" lon="-4.833602">
        <ele>897.31141338218</ele>
        <time>2022-05-18T12:46:11Z</time>
      </trkpt>
      <trkpt lat="42.340319" lon="-4.833716">
        <ele>896.9397131223232</ele>
        <time>2022-05-18T12:46:19Z</time>
      </trkpt>
      <trkpt lat="42.340363" lon="-4.833837">
        <ele>897.4872256079689</ele>
        <time>2022-05-18T12:46:26Z</time>
      </trkpt>
      <trkpt lat="42.340393" lon="-4.833957">
        <ele>899.0750941419974</ele>
        <time>2022-05-18T12:46:34Z</time>
      </trkpt>
      <trkpt lat="42.340404" lon="-4.834088">
        <ele>898.5525313615799</ele>
        <time>2022-05-18T12:46:42Z</time>
      </trkpt>
      <trkpt lat="42.340372" lon="-4.834218">
        <ele>897.804320929572</ele>
        <time>2022-05-18T12:46:51Z</time>
      </trkpt>
      <trkpt lat="42.340342" lon="-4.834333">
        <ele>897.2612221837044</ele>
        <time>2022-05-18T12:46:59Z</time>
      </trkpt>
      <trkpt lat="42.340373" lon="-4.834454">
        <ele>896.5530897695571</ele>
        <time>2022-05-18T12:47:08Z</time>
      </trkpt>
      <trkpt lat="42.340405" lon="-4.83457">
        <ele>895.3892230680212</ele>
        <time>2022-05-18T12:47:14Z</time>
      </trkpt>
      <trkpt lat="42.340434" lon="-4.834688">
        <ele>895.0745510421693</ele>
        <time>2022-05-18T12:47:22Z</time>
      </trkpt>
      <trkpt lat="42.340476" lon="-4.834799">
        <ele>895.9815892260522</ele>
        <time>2022-05-18T12:47:29Z</time>
      </trkpt>
      <trkpt lat="42.340529" lon="-4.834913">
        <ele>896.0866758320481</ele>
        <time>2022-05-18T12:47:37Z</time>
      </trkpt>
      <trkpt lat="42.340575" lon="-4.83503">
        <ele>895.8232916677371</ele>
        <time>2022-05-18T12:47:45Z</time>
      </trkpt>
      <trkpt lat="42.340616" lon="-4.835148">
        <ele>896.1303940145299</ele>
        <time>2022-05-18T12:47:53Z</time>
      </trkpt>
      <trkpt lat="42.340666" lon="-4.835249">
        <ele>896.7705940501764</ele>
        <time>2022-05-18T12:48:01Z</time>
      </trkpt>
      <trkpt lat="42.340706" lon="-4.835362">
        <ele>896.9844326442108</ele>
        <time>2022-05-18T12:48:09Z</time>
      </trkpt>
      <trkpt lat="42.340745" lon="-4.835489">
        <ele>897.0494911400601</ele>
        <time>2022-05-18T12:48:17Z</time>
      </trkpt>
      <trkpt lat="42.340779" lon="-4.835606">
        <ele>896.0275231013075</ele>
        <time>2022-05-18T12:48:25Z</time>
      </trkpt>
      <trkpt lat="42.340832" lon="-4.835724">
        <ele>895.6549042193219</ele>
        <time>2022-05-18T12:48:32Z</time>
      </trkpt>
      <trkpt lat="42.340884" lon="-4.835835">
        <ele>895.1424973355606</ele>
        <time>2022-05-18T12:48:41Z</time>
      </trkpt>
      <trkpt lat="42.340933" lon="-4.835949">
        <ele>895.0762054547668</ele>
        <time>2022-05-18T12:48:49Z</time>
      </trkpt>
      <trkpt lat="42.340977" lon="-4.836068">
        <ele>895.3570890817791</ele>
        <time>2022-05-18T12:48:58Z</time>
      </trkpt>
      <trkpt lat="42.341009" lon="-4.836188">
        <ele>895.8555381111801</ele>
        <time>2022-05-18T12:49:07Z</time>
      </trkpt>
      <trkpt lat="42.341056" lon="-4.83631">
        <ele>895.1573648704216</ele>
        <time>2022-05-18T12:49:15Z</time>
      </trkpt>
      <trkpt lat="42.341097" lon="-4.836424">
        <ele>895.6322144465521</ele>
        <time>2022-05-18T12:49:23Z</time>
      </trkpt>
      <trkpt lat="42.341146" lon="-4.83655">
        <ele>895.5817670067772</ele>
        <time>2022-05-18T12:49:30Z</time>
      </trkpt>
      <trkpt lat="42.34117" lon="-4.836672">
        <ele>894.6147099221125</ele>
        <time>2022-05-18T12:49:38Z</time>
      </trkpt>
      <trkpt lat="42.34122" lon="-4.836781">
        <ele>895.2415382526815</ele>
        <time>2022-05-18T12:49:45Z</time>
      </trkpt>
      <trkpt lat="42.341262" lon="-4.836903">
        <ele>894.7545039998367</ele>
        <time>2022-05-18T12:49:54Z</time>
      </trkpt>
      <trkpt lat="42.341305" lon="-4.837016">
        <ele>894.8676347453147</ele>
        <time>2022-05-18T12:50:01Z</time>
      </trkpt>
      <trkpt lat="42.341355" lon="-4.837136">
        <ele>894.2521360386163</ele>
        <time>2022-05-18T12:50:10Z</time>
      </trkpt>
      <trkpt lat="42.341399" lon="-4.837259">
        <ele>894.8211673460901</ele>
        <time>2022-05-18T12:50:18Z</time>
      </trkpt>
      <trkpt lat="42.341453" lon="-4.837369">
        <ele>895.260379104875</ele>
        <time>2022-05-18T12:50:24Z</time>
      </trkpt>
      <trkpt lat="42.341497" lon="-4.837489">
        <ele>896.1693551102653</ele>
        <time>2022-05-18T12:50:33Z</time>
      </trkpt>
      <trkpt lat="42.341547" lon="-4.837595">
        <ele>896.6160463243723</ele>
        <time>2022-05-18T12:50:40Z</time>
      </trkpt>
      <trkpt lat="42.341582" lon="-4.83771">
        <ele>896.8374261185527</ele>
        <time>2022-05-18T12:50:48Z</time>
      </trkpt>
      <trkpt lat="42.341636" lon="-4.837823">
        <ele>896.4749551936984</ele>
        <time>2022-05-18T12:50:57Z</time>
      </trkpt>
      <trkpt lat="42.341675" lon="-4.837946">
        <ele>896.6131939608604</ele>
        <time>2022-05-18T12:51:06Z</time>
      </trkpt>
      <trkpt lat="42.341722" lon="-4.838054">
        <ele>897.4853564472869</ele>
        <time>2022-05-18T12:51:17Z</time>
      </trkpt>
      <trkpt lat="42.34177" lon="-4.838171">
        <ele>898.5281339557841</ele>
        <time>2022-05-18T12:51:25Z</time>
      </trkpt>
      <trkpt lat="42.341812" lon="-4.838281">
        <ele>898.5593646876514</ele>
        <time>2022-05-18T12:51:33Z</time>
      </trkpt>
      <trkpt lat="42.341867" lon="-4.838391">
        <ele>897.8430364839733</ele>
        <time>2022-05-18T12:51:41Z</time>
      </trkpt>
      <trkpt lat="42.34191" lon="-4.838507">
        <ele>896.3822169313207</ele>
        <time>2022-05-18T12:51:50Z</time>
      </trkpt>
      <trkpt lat="42.341964" lon="-4.838605">
        <ele>896.4396310392767</ele>
        <time>2022-05-18T12:51:57Z</time>
      </trkpt>
      <trkpt lat="42.342015" lon="-4.838707">
        <ele>895.6878749188036</ele>
        <time>2022-05-18T12:52:04Z</time>
      </trkpt>
      <trkpt lat="42.342061" lon="-4.838827">
        <ele>895.2511386498809</ele>
        <time>2022-05-18T12:52:13Z</time>
      </trkpt>
      <trkpt lat="42.342115" lon="-4.83894">
        <ele>894.439193982631</ele>
        <time>2022-05-18T12:52:22Z</time>
      </trkpt>
      <trkpt lat="42.342167" lon="-4.83904">
        <ele>896.1150776501745</ele>
        <time>2022-05-18T12:52:30Z</time>
      </trkpt>
      <trkpt lat="42.342218" lon="-4.839151">
        <ele>895.925194167532</ele>
        <time>2022-05-18T12:52:37Z</time>
      </trkpt>
      <trkpt lat="42.342263" lon="-4.83926">
        <ele>896.6943028727546</ele>
        <time>2022-05-18T12:52:46Z</time>
      </trkpt>
      <trkpt lat="42.34231" lon="-4.839378">
        <ele>896.4787490824237</ele>
        <time>2022-05-18T12:52:53Z</time>
      </trkpt>
      <trkpt lat="42.342358" lon="-4.839484">
        <ele>897.8572005154565</ele>
        <time>2022-05-18T12:53:01Z</time>
      </trkpt>
      <trkpt lat="42.342401" lon="-4.8396">
        <ele>898.2003079112619</ele>
        <time>2022-05-18T12:53:08Z</time>
      </trkpt>
      <trkpt lat="42.342444" lon="-4.839708">
        <ele>898.2423114813864</ele>
        <time>2022-05-18T12:53:16Z</time>
      </trkpt>
      <trkpt lat="42.342482" lon="-4.839832">
        <ele>897.7727025514469</ele>
        <time>2022-05-18T12:53:23Z</time>
      </trkpt>
      <trkpt lat="42.342518" lon="-4.839957">
        <ele>899.97861170955</ele>
        <time>2022-05-18T12:53:33Z</time>
      </trkpt>
      <trkpt lat="42.34255" lon="-4.840079">
        <ele>900.1865235418081</ele>
        <time>2022-05-18T12:53:40Z</time>
      </trkpt>
      <trkpt lat="42.342592" lon="-4.840189">
        <ele>902.6238237563521</ele>
        <time>2022-05-18T12:53:48Z</time>
      </trkpt>
      <trkpt lat="42.342642" lon="-4.840307">
        <ele>903.3952240794897</ele>
        <time>2022-05-18T12:53:55Z</time>
      </trkpt>
      <trkpt lat="42.342696" lon="-4.840418">
        <ele>904.724135864526</ele>
        <time>2022-05-18T12:54:04Z</time>
      </trkpt>
      <trkpt lat="42.342725" lon="-4.840545">
        <ele>903.9933471251279</ele>
        <time>2022-05-18T12:54:11Z</time>
      </trkpt>
      <trkpt lat="42.342742" lon="-4.840674">
        <ele>903.1610149014741</ele>
        <time>2022-05-18T12:54:19Z</time>
      </trkpt>
      <trkpt lat="42.342771" lon="-4.840802">
        <ele>904.2283608587459</ele>
        <time>2022-05-18T12:54:27Z</time>
      </trkpt>
      <trkpt lat="42.342796" lon="-4.840923">
        <ele>904.7385500185192</ele>
        <time>2022-05-18T12:54:34Z</time>
      </trkpt>
      <trkpt lat="42.342829" lon="-4.841043">
        <ele>905.9308908330277</ele>
        <time>2022-05-18T12:54:42Z</time>
      </trkpt>
      <trkpt lat="42.342866" lon="-4.841158">
        <ele>906.9280374888331</ele>
        <time>2022-05-18T12:54:51Z</time>
      </trkpt>
      <trkpt lat="42.342882" lon="-4.841286">
        <ele>908.9007400721312</ele>
        <time>2022-05-18T12:54:59Z</time>
      </trkpt>
      <trkpt lat="42.342914" lon="-4.841425">
        <ele>909.6929163914174</ele>
        <time>2022-05-18T12:55:07Z</time>
      </trkpt>
      <trkpt lat="42.342942" lon="-4.841554">
        <ele>910.5632047578692</ele>
        <time>2022-05-18T12:55:15Z</time>
      </trkpt>
      <trkpt lat="42.342959" lon="-4.841674">
        <ele>911.4258971121162</ele>
        <time>2022-05-18T12:55:22Z</time>
      </trkpt>
      <trkpt lat="42.342963" lon="-4.841799">
        <ele>911.3322179280221</ele>
        <time>2022-05-18T12:55:30Z</time>
      </trkpt>
      <trkpt lat="42.342972" lon="-4.841932">
        <ele>910.7646685289219</ele>
        <time>2022-05-18T12:55:38Z</time>
      </trkpt>
      <trkpt lat="42.342993" lon="-4.842053">
        <ele>909.3950764397159</ele>
        <time>2022-05-18T12:55:45Z</time>
      </trkpt>
      <trkpt lat="42.343021" lon="-4.842176">
        <ele>909.6405985020101</ele>
        <time>2022-05-18T12:55:53Z</time>
      </trkpt>
      <trkpt lat="42.343039" lon="-4.842304">
        <ele>909.7202981710434</ele>
        <time>2022-05-18T12:56:01Z</time>
      </trkpt>
      <trkpt lat="42.343058" lon="-4.842433">
        <ele>909.5022285059094</ele>
        <time>2022-05-18T12:56:08Z</time>
      </trkpt>
      <trkpt lat="42.343085" lon="-4.842556">
        <ele>909.5048771472648</ele>
        <time>2022-05-18T12:56:16Z</time>
      </trkpt>
      <trkpt lat="42.34311" lon="-4.842679">
        <ele>907.6124643571675</ele>
        <time>2022-05-18T12:56:23Z</time>
      </trkpt>
      <trkpt lat="42.343107" lon="-4.842815">
        <ele>906.81908207573</ele>
        <time>2022-05-18T12:56:32Z</time>
      </trkpt>
      <trkpt lat="42.343126" lon="-4.842936">
        <ele>905.6725721573457</ele>
        <time>2022-05-18T12:56:40Z</time>
      </trkpt>
      <trkpt lat="42.34317" lon="-4.843047">
        <ele>905.101623958908</ele>
        <time>2022-05-18T12:56:47Z</time>
      </trkpt>
      <trkpt lat="42.343207" lon="-4.843177">
        <ele>905.0934773702174</ele>
        <time>2022-05-18T12:56:56Z</time>
      </trkpt>
      <trkpt lat="42.343232" lon="-4.843298">
        <ele>903.679672001861</ele>
        <time>2022-05-18T12:57:03Z</time>
      </trkpt>
      <trkpt lat="42.343258" lon="-4.843421">
        <ele>905.1148009272292</ele>
        <time>2022-05-18T12:57:12Z</time>
      </trkpt>
      <trkpt lat="42.343282" lon="-4.843551">
        <ele>907.8390780575573</ele>
        <time>2022-05-18T12:57:21Z</time>
      </trkpt>
      <trkpt lat="42.343295" lon="-4.843672">
        <ele>907.0795885939151</ele>
        <time>2022-05-18T12:57:28Z</time>
      </trkpt>
      <trkpt lat="42.343328" lon="-4.843807">
        <ele>908.6492649912834</ele>
        <time>2022-05-18T12:57:38Z</time>
      </trkpt>
      <trkpt lat="42.343363" lon="-4.843924">
        <ele>908.4153143921867</ele>
        <time>2022-05-18T12:57:46Z</time>
      </trkpt>
      <trkpt lat="42.343395" lon="-4.844047">
        <ele>909.664314522408</ele>
        <time>2022-05-18T12:57:54Z</time>
      </trkpt>
      <trkpt lat="42.343413" lon="-4.844168">
        <ele>911.1663805153221</ele>
        <time>2022-05-18T12:58:03Z</time>
      </trkpt>
      <trkpt lat="42.34345" lon="-4.844287">
        <ele>913.1508808825165</ele>
        <time>2022-05-18T12:58:11Z</time>
      </trkpt>
      <trkpt lat="42.343476" lon="-4.844405">
        <ele>913.9103421056643</ele>
        <time>2022-05-18T12:58:19Z</time>
      </trkpt>
      <trkpt lat="42.343503" lon="-4.844526">
        <ele>916.6521367225796</ele>
        <time>2022-05-18T12:58:28Z</time>
      </trkpt>
      <trkpt lat="42.343519" lon="-4.844653">
        <ele>918.1265863692388</ele>
        <time>2022-05-18T12:58:37Z</time>
      </trkpt>
      <trkpt lat="42.343549" lon="-4.84478">
        <ele>919.8484206739813</ele>
        <time>2022-05-18T12:58:47Z</time>
      </trkpt>
      <trkpt lat="42.343608" lon="-4.844892">
        <ele>919.6649319939315</ele>
        <time>2022-05-18T12:58:56Z</time>
      </trkpt>
      <trkpt lat="42.343669" lon="-4.844997">
        <ele>919.6767004141584</ele>
        <time>2022-05-18T12:59:04Z</time>
      </trkpt>
      <trkpt lat="42.343716" lon="-4.845104">
        <ele>922.6885605780408</ele>
        <time>2022-05-18T12:59:39Z</time>
      </trkpt>
      <trkpt lat="42.343745" lon="-4.845231">
        <ele>923.3422022340819</ele>
        <time>2022-05-18T12:59:48Z</time>
      </trkpt>
      <trkpt lat="42.343793" lon="-4.845344">
        <ele>924.7921304125339</ele>
        <time>2022-05-18T12:59:57Z</time>
      </trkpt>
      <trkpt lat="42.34382" lon="-4.845464">
        <ele>924.7045391639695</ele>
        <time>2022-05-18T13:00:05Z</time>
      </trkpt>
      <trkpt lat="42.343862" lon="-4.845588">
        <ele>924.9472158150747</ele>
        <time>2022-05-18T13:00:13Z</time>
      </trkpt>
      <trkpt lat="42.343913" lon="-4.84571">
        <ele>922.6078909607604</ele>
        <time>2022-05-18T13:00:20Z</time>
      </trkpt>
      <trkpt lat="42.343958" lon="-4.845829">
        <ele>923.1359286447987</ele>
        <time>2022-05-18T13:00:29Z</time>
      </trkpt>
      <trkpt lat="42.343982" lon="-4.845948">
        <ele>922.8796966895461</ele>
        <time>2022-05-18T13:00:37Z</time>
      </trkpt>
      <trkpt lat="42.344027" lon="-4.846076">
        <ele>924.2391805704683</ele>
        <time>2022-05-18T13:00:44Z</time>
      </trkpt>
      <trkpt lat="42.344056" lon="-4.846196">
        <ele>924.6939942250028</ele>
        <time>2022-05-18T13:00:52Z</time>
      </trkpt>
      <trkpt lat="42.344102" lon="-4.846311">
        <ele>925.7263061599806</ele>
        <time>2022-05-18T13:01:01Z</time>
      </trkpt>
      <trkpt lat="42.344124" lon="-4.84643">
        <ele>925.6378389913589</ele>
        <time>2022-05-18T13:01:09Z</time>
      </trkpt>
      <trkpt lat="42.344152" lon="-4.846562">
        <ele>924.6415961841121</ele>
        <time>2022-05-18T13:01:18Z</time>
      </trkpt>
      <trkpt lat="42.344205" lon="-4.846683">
        <ele>925.436858812347</ele>
        <time>2022-05-18T13:01:27Z</time>
      </trkpt>
      <trkpt lat="42.344248" lon="-4.846798">
        <ele>923.9101296961308</ele>
        <time>2022-05-18T13:01:34Z</time>
      </trkpt>
      <trkpt lat="42.344296" lon="-4.846906">
        <ele>925.5157285118476</ele>
        <time>2022-05-18T13:01:42Z</time>
      </trkpt>
      <trkpt lat="42.344332" lon="-4.847036">
        <ele>924.8175357114524</ele>
        <time>2022-05-18T13:01:49Z</time>
      </trkpt>
      <trkpt lat="42.344376" lon="-4.847143">
        <ele>926.5255044950172</ele>
        <time>2022-05-18T13:01:57Z</time>
      </trkpt>
      <trkpt lat="42.344412" lon="-4.847263">
        <ele>925.2376459697261</ele>
        <time>2022-05-18T13:02:04Z</time>
      </trkpt>
      <trkpt lat="42.344439" lon="-4.847381">
        <ele>926.8286759695038</ele>
        <time>2022-05-18T13:02:12Z</time>
      </trkpt>
      <trkpt lat="42.344477" lon="-4.847524">
        <ele>925.2891711723059</ele>
        <time>2022-05-18T13:02:21Z</time>
      </trkpt>
      <trkpt lat="42.344514" lon="-4.847642">
        <ele>926.120079328306</ele>
        <time>2022-05-18T13:02:29Z</time>
      </trkpt>
      <trkpt lat="42.344563" lon="-4.847759">
        <ele>926.6365628903732</ele>
        <time>2022-05-18T13:02:36Z</time>
      </trkpt>
      <trkpt lat="42.344625" lon="-4.847859">
        <ele>927.7195714190602</ele>
        <time>2022-05-18T13:02:46Z</time>
      </trkpt>
      <trkpt lat="42.344672" lon="-4.847969">
        <ele>930.0009750239551</ele>
        <time>2022-05-18T13:03:08Z</time>
      </trkpt>
      <trkpt lat="42.344694" lon="-4.84809">
        <ele>930.7688500350341</ele>
        <time>2022-05-18T13:03:29Z</time>
      </trkpt>
      <trkpt lat="42.344722" lon="-4.848219">
        <ele>931.488389249891</ele>
        <time>2022-05-18T13:03:37Z</time>
      </trkpt>
      <trkpt lat="42.344756" lon="-4.848339">
        <ele>932.9511327035725</ele>
        <time>2022-05-18T13:03:46Z</time>
      </trkpt>
      <trkpt lat="42.344793" lon="-4.848463">
        <ele>933.7433315496892</ele>
        <time>2022-05-18T13:03:56Z</time>
      </trkpt>
      <trkpt lat="42.344833" lon="-4.848588">
        <ele>934.3931805575266</ele>
        <time>2022-05-18T13:04:06Z</time>
      </trkpt>
      <trkpt lat="42.344874" lon="-4.848715">
        <ele>934.8507746206596</ele>
        <time>2022-05-18T13:04:14Z</time>
      </trkpt>
      <trkpt lat="42.34492" lon="-4.848826">
        <ele>935.6496988795698</ele>
        <time>2022-05-18T13:04:21Z</time>
      </trkpt>
      <trkpt lat="42.344959" lon="-4.848953">
        <ele>935.1374633861706</ele>
        <time>2022-05-18T13:04:29Z</time>
      </trkpt>
      <trkpt lat="42.344996" lon="-4.849073">
        <ele>935.6985547607765</ele>
        <time>2022-05-18T13:04:38Z</time>
      </trkpt>
      <trkpt lat="42.345036" lon="-4.849188">
        <ele>934.3059349618852</ele>
        <time>2022-05-18T13:04:45Z</time>
      </trkpt>
      <trkpt lat="42.345079" lon="-4.84931">
        <ele>934.1953034820035</ele>
        <time>2022-05-18T13:04:54Z</time>
      </trkpt>
      <trkpt lat="42.345131" lon="-4.849429">
        <ele>934.4966197796166</ele>
        <time>2022-05-18T13:05:01Z</time>
      </trkpt>
      <trkpt lat="42.345165" lon="-4.849542">
        <ele>934.8920568190515</ele>
        <time>2022-05-18T13:05:08Z</time>
      </trkpt>
      <trkpt lat="42.345211" lon="-4.849665">
        <ele>934.9483076967299</ele>
        <time>2022-05-18T13:05:16Z</time>
      </trkpt>
      <trkpt lat="42.345277" lon="-4.849768">
        <ele>935.9292565891519</ele>
        <time>2022-05-18T13:05:23Z</time>
      </trkpt>
      <trkpt lat="42.345333" lon="-4.849873">
        <ele>935.8928447552025</ele>
        <time>2022-05-18T13:05:31Z</time>
      </trkpt>
      <trkpt lat="42.345374" lon="-4.84999">
        <ele>936.554811283946</ele>
        <time>2022-05-18T13:05:39Z</time>
      </trkpt>
      <trkpt lat="42.345426" lon="-4.850107">
        <ele>937.495744924061</ele>
        <time>2022-05-18T13:05:47Z</time>
      </trkpt>
      <trkpt lat="42.345467" lon="-4.850222">
        <ele>936.3890942214057</ele>
        <time>2022-05-18T13:05:54Z</time>
      </trkpt>
      <trkpt lat="42.345502" lon="-4.850344">
        <ele>936.2689378019422</ele>
        <time>2022-05-18T13:06:01Z</time>
      </trkpt>
      <trkpt lat="42.34556" lon="-4.85046">
        <ele>937.4837188180536</ele>
        <time>2022-05-18T13:06:09Z</time>
      </trkpt>
      <trkpt lat="42.345608" lon="-4.850573">
        <ele>937.8753646174446</ele>
        <time>2022-05-18T13:06:16Z</time>
      </trkpt>
      <trkpt lat="42.345641" lon="-4.850694">
        <ele>939.0267468756065</ele>
        <time>2022-05-18T13:06:24Z</time>
      </trkpt>
      <trkpt lat="42.345674" lon="-4.850818">
        <ele>938.0102030811831</ele>
        <time>2022-05-18T13:06:32Z</time>
      </trkpt>
      <trkpt lat="42.345705" lon="-4.850943">
        <ele>938.1146026169881</ele>
        <time>2022-05-18T13:06:39Z</time>
      </trkpt>
      <trkpt lat="42.345742" lon="-4.851066">
        <ele>939.8674950152636</ele>
        <time>2022-05-18T13:06:48Z</time>
      </trkpt>
      <trkpt lat="42.345779" lon="-4.851184">
        <ele>940.2174457982183</ele>
        <time>2022-05-18T13:06:55Z</time>
      </trkpt>
      <trkpt lat="42.345829" lon="-4.851306">
        <ele>938.9826264707372</ele>
        <time>2022-05-18T13:07:02Z</time>
      </trkpt>
      <trkpt lat="42.345878" lon="-4.851419">
        <ele>938.3728785617277</ele>
        <time>2022-05-18T13:07:11Z</time>
      </trkpt>
      <trkpt lat="42.34591" lon="-4.851552">
        <ele>936.8012505285442</ele>
        <time>2022-05-18T13:07:18Z</time>
      </trkpt>
      <trkpt lat="42.345956" lon="-4.851675">
        <ele>936.9017824232578</ele>
        <time>2022-05-18T13:07:25Z</time>
      </trkpt>
      <trkpt lat="42.346006" lon="-4.851789">
        <ele>937.1964697353542</ele>
        <time>2022-05-18T13:07:33Z</time>
      </trkpt>
      <trkpt lat="42.346046" lon="-4.851915">
        <ele>937.0441323667765</ele>
        <time>2022-05-18T13:07:41Z</time>
      </trkpt>
      <trkpt lat="42.346087" lon="-4.852031">
        <ele>936.0095166061074</ele>
        <time>2022-05-18T13:07:48Z</time>
      </trkpt>
      <trkpt lat="42.346139" lon="-4.852147">
        <ele>936.4057317823172</ele>
        <time>2022-05-18T13:07:56Z</time>
      </trkpt>
      <trkpt lat="42.346181" lon="-4.852258">
        <ele>936.2155336365104</ele>
        <time>2022-05-18T13:08:02Z</time>
      </trkpt>
      <trkpt lat="42.346232" lon="-4.852361">
        <ele>937.7365199103951</ele>
        <time>2022-05-18T13:08:10Z</time>
      </trkpt>
      <trkpt lat="42.346286" lon="-4.852477">
        <ele>938.6680850684643</ele>
        <time>2022-05-18T13:08:17Z</time>
      </trkpt>
      <trkpt lat="42.346344" lon="-4.852584">
        <ele>938.1057180715725</ele>
        <time>2022-05-18T13:08:26Z</time>
      </trkpt>
      <trkpt lat="42.346391" lon="-4.852703">
        <ele>937.379143293947</ele>
        <time>2022-05-18T13:08:33Z</time>
      </trkpt>
      <trkpt lat="42.346427" lon="-4.852817">
        <ele>937.7606115788221</ele>
        <time>2022-05-18T13:08:41Z</time>
      </trkpt>
      <trkpt lat="42.346471" lon="-4.852939">
        <ele>936.5256502097473</ele>
        <time>2022-05-18T13:08:48Z</time>
      </trkpt>
      <trkpt lat="42.346512" lon="-4.853064">
        <ele>935.991105905734</ele>
        <time>2022-05-18T13:08:56Z</time>
      </trkpt>
      <trkpt lat="42.346547" lon="-4.853181">
        <ele>934.7420268449932</ele>
        <time>2022-05-18T13:09:04Z</time>
      </trkpt>
      <trkpt lat="42.346607" lon="-4.853292">
        <ele>934.5234474018216</ele>
        <time>2022-05-18T13:09:11Z</time>
      </trkpt>
      <trkpt lat="42.346652" lon="-4.853413">
        <ele>936.9440650278702</ele>
        <time>2022-05-18T13:09:19Z</time>
      </trkpt>
      <trkpt lat="42.346705" lon="-4.853516">
        <ele>939.3068156214431</ele>
        <time>2022-05-18T13:09:26Z</time>
      </trkpt>
      <trkpt lat="42.346751" lon="-4.853639">
        <ele>939.782564512454</ele>
        <time>2022-05-18T13:09:33Z</time>
      </trkpt>
      <trkpt lat="42.346774" lon="-4.853757">
        <ele>941.1153695061803</ele>
        <time>2022-05-18T13:09:41Z</time>
      </trkpt>
      <trkpt lat="42.346809" lon="-4.853887">
        <ele>940.9107881225646</ele>
        <time>2022-05-18T13:09:48Z</time>
      </trkpt>
      <trkpt lat="42.346855" lon="-4.85401">
        <ele>939.6655167201534</ele>
        <time>2022-05-18T13:09:56Z</time>
      </trkpt>
      <trkpt lat="42.346893" lon="-4.85412">
        <ele>941.2887670351192</ele>
        <time>2022-05-18T13:10:03Z</time>
      </trkpt>
      <trkpt lat="42.34693" lon="-4.854239">
        <ele>941.3471074672416</ele>
        <time>2022-05-18T13:10:10Z</time>
      </trkpt>
      <trkpt lat="42.346979" lon="-4.854347">
        <ele>942.8035133965313</ele>
        <time>2022-05-18T13:10:17Z</time>
      </trkpt>
      <trkpt lat="42.347021" lon="-4.854461">
        <ele>941.6211039284244</ele>
        <time>2022-05-18T13:10:24Z</time>
      </trkpt>
      <trkpt lat="42.347062" lon="-4.854582">
        <ele>941.776944052428</ele>
        <time>2022-05-18T13:10:32Z</time>
      </trkpt>
      <trkpt lat="42.347109" lon="-4.854704">
        <ele>941.4556577401236</ele>
        <time>2022-05-18T13:10:41Z</time>
      </trkpt>
      <trkpt lat="42.347156" lon="-4.85483">
        <ele>940.7996592931449</ele>
        <time>2022-05-18T13:10:48Z</time>
      </trkpt>
      <trkpt lat="42.347198" lon="-4.854942">
        <ele>940.189070946537</ele>
        <time>2022-05-18T13:10:55Z</time>
      </trkpt>
      <trkpt lat="42.347242" lon="-4.855053">
        <ele>940.6523331161588</ele>
        <time>2022-05-18T13:11:02Z</time>
      </trkpt>
      <trkpt lat="42.347288" lon="-4.85517">
        <ele>941.0403203582391</ele>
        <time>2022-05-18T13:11:08Z</time>
      </trkpt>
      <trkpt lat="42.347321" lon="-4.855296">
        <ele>942.4448735741898</ele>
        <time>2022-05-18T13:11:17Z</time>
      </trkpt>
      <trkpt lat="42.347354" lon="-4.85541">
        <ele>943.6663625240326</ele>
        <time>2022-05-18T13:11:24Z</time>
      </trkpt>
      <trkpt lat="42.347391" lon="-4.85553">
        <ele>942.5098623605445</ele>
        <time>2022-05-18T13:11:32Z</time>
      </trkpt>
      <trkpt lat="42.347435" lon="-4.855648">
        <ele>942.2754175486043</ele>
        <time>2022-05-18T13:11:40Z</time>
      </trkpt>
      <trkpt lat="42.347487" lon="-4.85576">
        <ele>942.1325656762347</ele>
        <time>2022-05-18T13:11:52Z</time>
      </trkpt>
      <trkpt lat="42.347555" lon="-4.855842">
        <ele>942.3044423973188</ele>
        <time>2022-05-18T13:12:00Z</time>
      </trkpt>
      <trkpt lat="42.347591" lon="-4.855958">
        <ele>941.9527909280732</ele>
        <time>2022-05-18T13:12:06Z</time>
      </trkpt>
      <trkpt lat="42.347629" lon="-4.85607">
        <ele>942.4686091886833</ele>
        <time>2022-05-18T13:12:13Z</time>
      </trkpt>
      <trkpt lat="42.347666" lon="-4.856198">
        <ele>942.9325884161517</ele>
        <time>2022-05-18T13:12:21Z</time>
      </trkpt>
      <trkpt lat="42.347702" lon="-4.856323">
        <ele>942.3930089194328</ele>
        <time>2022-05-18T13:12:28Z</time>
      </trkpt>
      <trkpt lat="42.347725" lon="-4.856444">
        <ele>942.0505865830928</ele>
        <time>2022-05-18T13:12:35Z</time>
      </trkpt>
      <trkpt lat="42.347761" lon="-4.856561">
        <ele>943.6091619450599</ele>
        <time>2022-05-18T13:12:42Z</time>
      </trkpt>
      <trkpt lat="42.347797" lon="-4.856682">
        <ele>944.5168568436056</ele>
        <time>2022-05-18T13:12:49Z</time>
      </trkpt>
      <trkpt lat="42.347833" lon="-4.856798">
        <ele>944.0123340478167</ele>
        <time>2022-05-18T13:12:57Z</time>
      </trkpt>
      <trkpt lat="42.347877" lon="-4.85691">
        <ele>945.3896695980802</ele>
        <time>2022-05-18T13:13:05Z</time>
      </trkpt>
      <trkpt lat="42.347898" lon="-4.857036">
        <ele>944.662662322633</ele>
        <time>2022-05-18T13:13:11Z</time>
      </trkpt>
      <trkpt lat="42.347941" lon="-4.857153">
        <ele>942.4819786241278</ele>
        <time>2022-05-18T13:13:20Z</time>
      </trkpt>
      <trkpt lat="42.347963" lon="-4.857274">
        <ele>942.2246091850102</ele>
        <time>2022-05-18T13:13:28Z</time>
      </trkpt>
      <trkpt lat="42.347983" lon="-4.857402">
        <ele>941.1423167502508</ele>
        <time>2022-05-18T13:14:21Z</time>
      </trkpt>
      <trkpt lat="42.347991" lon="-4.85753">
        <ele>940.7600167011842</ele>
        <time>2022-05-18T13:14:32Z</time>
      </trkpt>
      <trkpt lat="42.348007" lon="-4.857665">
        <ele>940.267996320501</ele>
        <time>2022-05-18T13:14:39Z</time>
      </trkpt>
      <trkpt lat="42.348006" lon="-4.85779">
        <ele>939.8731916183606</ele>
        <time>2022-05-18T13:14:46Z</time>
      </trkpt>
      <trkpt lat="42.348013" lon="-4.85792">
        <ele>941.3848309637979</ele>
        <time>2022-05-18T13:14:54Z</time>
      </trkpt>
      <trkpt lat="42.348021" lon="-4.858059">
        <ele>941.6443166350946</ele>
        <time>2022-05-18T13:15:01Z</time>
      </trkpt>
      <trkpt lat="42.348018" lon="-4.858185">
        <ele>941.5166482804343</ele>
        <time>2022-05-18T13:15:08Z</time>
      </trkpt>
      <trkpt lat="42.34801" lon="-4.858311">
        <ele>941.7595800086856</ele>
        <time>2022-05-18T13:15:16Z</time>
      </trkpt>
      <trkpt lat="42.34798" lon="-4.858439">
        <ele>940.2997679952532</ele>
        <time>2022-05-18T13:15:25Z</time>
      </trkpt>
      <trkpt lat="42.347975" lon="-4.858572">
        <ele>938.9336089873686</ele>
        <time>2022-05-18T13:15:33Z</time>
      </trkpt>
      <trkpt lat="42.347989" lon="-4.858706">
        <ele>938.799093009904</ele>
        <time>2022-05-18T13:15:40Z</time>
      </trkpt>
      <trkpt lat="42.347978" lon="-4.858841">
        <ele>938.8339006332681</ele>
        <time>2022-05-18T13:15:48Z</time>
      </trkpt>
      <trkpt lat="42.347923" lon="-4.858939">
        <ele>938.8768741115928</ele>
        <time>2022-05-18T13:15:56Z</time>
      </trkpt>
      <trkpt lat="42.347874" lon="-4.85905">
        <ele>940.3482722043991</ele>
        <time>2022-05-18T13:16:06Z</time>
      </trkpt>
      <trkpt lat="42.347848" lon="-4.859182">
        <ele>940.5829233946279</ele>
        <time>2022-05-18T13:16:13Z</time>
      </trkpt>
      <trkpt lat="42.34781" lon="-4.859304">
        <ele>940.5424332693219</ele>
        <time>2022-05-18T13:16:21Z</time>
      </trkpt>
      <trkpt lat="42.347761" lon="-4.859406">
        <ele>940.9284933041781</ele>
        <time>2022-05-18T13:16:28Z</time>
      </trkpt>
      <trkpt lat="42.347701" lon="-4.859519">
        <ele>942.4852255024016</ele>
        <time>2022-05-18T13:16:36Z</time>
      </trkpt>
      <trkpt lat="42.347657" lon="-4.859627">
        <ele>942.658034004271</ele>
        <time>2022-05-18T13:16:43Z</time>
      </trkpt>
      <trkpt lat="42.347643" lon="-4.859753">
        <ele>942.3299928428605</ele>
        <time>2022-05-18T13:16:50Z</time>
      </trkpt>
      <trkpt lat="42.347622" lon="-4.859873">
        <ele>942.3978600166738</ele>
        <time>2022-05-18T13:16:57Z</time>
      </trkpt>
      <trkpt lat="42.347633" lon="-4.859998">
        <ele>943.4081838279963</ele>
        <time>2022-05-18T13:17:03Z</time>
      </trkpt>
      <trkpt lat="42.347644" lon="-4.860136">
        <ele>943.9374096738175</ele>
        <time>2022-05-18T13:17:09Z</time>
      </trkpt>
      <trkpt lat="42.347663" lon="-4.860256">
        <ele>944.669427848421</ele>
        <time>2022-05-18T13:17:14Z</time>
      </trkpt>
      <trkpt lat="42.34771" lon="-4.860366">
        <ele>942.8248515482992</ele>
        <time>2022-05-18T13:17:21Z</time>
      </trkpt>
      <trkpt lat="42.34777" lon="-4.860472">
        <ele>941.3589480658993</ele>
        <time>2022-05-18T13:17:29Z</time>
      </trkpt>
      <trkpt lat="42.347836" lon="-4.860579">
        <ele>940.238626010716</ele>
        <time>2022-05-18T13:17:36Z</time>
      </trkpt>
      <trkpt lat="42.347898" lon="-4.860679">
        <ele>939.4519813554361</ele>
        <time>2022-05-18T13:17:44Z</time>
      </trkpt>
      <trkpt lat="42.347963" lon="-4.860777">
        <ele>935.6146647883579</ele>
        <time>2022-05-18T13:17:52Z</time>
      </trkpt>
      <trkpt lat="42.348013" lon="-4.860892">
        <ele>930.8448288869113</ele>
        <time>2022-05-18T13:18:01Z</time>
      </trkpt>
      <trkpt lat="42.348068" lon="-4.860998">
        <ele>928.658613782376</ele>
        <time>2022-05-18T13:18:09Z</time>
      </trkpt>
      <trkpt lat="42.348108" lon="-4.861111">
        <ele>927.8381984001026</ele>
        <time>2022-05-18T13:18:17Z</time>
      </trkpt>
      <trkpt lat="42.348167" lon="-4.86121">
        <ele>927.1342285024002</ele>
        <time>2022-05-18T13:18:27Z</time>
      </trkpt>
      <trkpt lat="42.348204" lon="-4.861337">
        <ele>927.4841540753841</ele>
        <time>2022-05-18T13:18:37Z</time>
      </trkpt>
      <trkpt lat="42.348245" lon="-4.861465">
        <ele>926.8169316761196</ele>
        <time>2022-05-18T13:18:46Z</time>
      </trkpt>
      <trkpt lat="42.34829" lon="-4.861576">
        <ele>927.9003164432943</ele>
        <time>2022-05-18T13:18:53Z</time>
      </trkpt>
      <trkpt lat="42.348338" lon="-4.861696">
        <ele>928.4597153617069</ele>
        <time>2022-05-18T13:19:02Z</time>
      </trkpt>
      <trkpt lat="42.34839" lon="-4.861813">
        <ele>928.6113046100363</ele>
        <time>2022-05-18T13:19:11Z</time>
      </trkpt>
      <trkpt lat="42.348438" lon="-4.861917">
        <ele>929.7304500257596</ele>
        <time>2022-05-18T13:19:20Z</time>
      </trkpt>
      <trkpt lat="42.348498" lon="-4.862026">
        <ele>929.1146828858182</ele>
        <time>2022-05-18T13:19:27Z</time>
      </trkpt>
      <trkpt lat="42.348548" lon="-4.86214">
        <ele>926.8704356597736</ele>
        <time>2022-05-18T13:19:33Z</time>
      </trkpt>
      <trkpt lat="42.34861" lon="-4.862239">
        <ele>924.6650048783049</ele>
        <time>2022-05-18T13:19:41Z</time>
      </trkpt>
      <trkpt lat="42.348678" lon="-4.862339">
        <ele>923.2339061200619</ele>
        <time>2022-05-18T13:19:49Z</time>
      </trkpt>
      <trkpt lat="42.348748" lon="-4.862419">
        <ele>922.8637136491016</ele>
        <time>2022-05-18T13:19:56Z</time>
      </trkpt>
      <trkpt lat="42.348824" lon="-4.862503">
        <ele>920.8293915381655</ele>
        <time>2022-05-18T13:20:03Z</time>
      </trkpt>
      <trkpt lat="42.348905" lon="-4.862598">
        <ele>919.4618542185053</ele>
        <time>2022-05-18T13:20:10Z</time>
      </trkpt>
      <trkpt lat="42.348978" lon="-4.862672">
        <ele>916.8164136270061</ele>
        <time>2022-05-18T13:20:16Z</time>
      </trkpt>
      <trkpt lat="42.349055" lon="-4.862765">
        <ele>917.6579279555008</ele>
        <time>2022-05-18T13:20:26Z</time>
      </trkpt>
      <trkpt lat="42.34914" lon="-4.86284">
        <ele>916.633722932078</ele>
        <time>2022-05-18T13:20:34Z</time>
      </trkpt>
      <trkpt lat="42.349224" lon="-4.86291">
        <ele>915.3169750561938</ele>
        <time>2022-05-18T13:20:42Z</time>
      </trkpt>
      <trkpt lat="42.349305" lon="-4.862984">
        <ele>913.7007703483105</ele>
        <time>2022-05-18T13:20:49Z</time>
      </trkpt>
      <trkpt lat="42.34939" lon="-4.863049">
        <ele>913.8096031425521</ele>
        <time>2022-05-18T13:20:59Z</time>
      </trkpt>
      <trkpt lat="42.349465" lon="-4.863117">
        <ele>912.7813649373129</ele>
        <time>2022-05-18T13:21:05Z</time>
      </trkpt>
      <trkpt lat="42.349548" lon="-4.863188">
        <ele>912.9865737017244</ele>
        <time>2022-05-18T13:21:13Z</time>
      </trkpt>
      <trkpt lat="42.349617" lon="-4.863266">
        <ele>912.4426959147677</ele>
        <time>2022-05-18T13:21:19Z</time>
      </trkpt>
      <trkpt lat="42.3497" lon="-4.863319">
        <ele>911.7876108335331</ele>
        <time>2022-05-18T13:21:29Z</time>
      </trkpt>
      <trkpt lat="42.349794" lon="-4.863381">
        <ele>912.4574620136991</ele>
        <time>2022-05-18T13:21:40Z</time>
      </trkpt>
      <trkpt lat="42.349878" lon="-4.863432">
        <ele>913.2568587735295</ele>
        <time>2022-05-18T13:21:46Z</time>
      </trkpt>
      <trkpt lat="42.349956" lon="-4.863506">
        <ele>912.1447301050648</ele>
        <time>2022-05-18T13:21:53Z</time>
      </trkpt>
      <trkpt lat="42.350036" lon="-4.863586">
        <ele>911.3410556549206</ele>
        <time>2022-05-18T13:22:00Z</time>
      </trkpt>
      <trkpt lat="42.35012" lon="-4.863632">
        <ele>907.5491212550551</ele>
        <time>2022-05-18T13:22:06Z</time>
      </trkpt>
      <trkpt lat="42.350203" lon="-4.8637">
        <ele>906.4741288777441</ele>
        <time>2022-05-18T13:22:13Z</time>
      </trkpt>
      <trkpt lat="42.350279" lon="-4.863789">
        <ele>906.5293875131756</ele>
        <time>2022-05-18T13:22:21Z</time>
      </trkpt>
      <trkpt lat="42.350359" lon="-4.863861">
        <ele>906.1560865556821</ele>
        <time>2022-05-18T13:22:29Z</time>
      </trkpt>
      <trkpt lat="42.35044" lon="-4.86394">
        <ele>905.5243348507211</ele>
        <time>2022-05-18T13:22:36Z</time>
      </trkpt>
      <trkpt lat="42.350512" lon="-4.86403">
        <ele>904.7170075634494</ele>
        <time>2022-05-18T13:22:44Z</time>
      </trkpt>
      <trkpt lat="42.350593" lon="-4.864117">
        <ele>904.203093694523</ele>
        <time>2022-05-18T13:22:52Z</time>
      </trkpt>
      <trkpt lat="42.350678" lon="-4.864194">
        <ele>904.2066051680595</ele>
        <time>2022-05-18T13:23:01Z</time>
      </trkpt>
      <trkpt lat="42.350759" lon="-4.86425">
        <ele>903.1934989895672</ele>
        <time>2022-05-18T13:23:07Z</time>
      </trkpt>
      <trkpt lat="42.350853" lon="-4.86427">
        <ele>901.8921898677945</ele>
        <time>2022-05-18T13:23:14Z</time>
      </trkpt>
      <trkpt lat="42.350951" lon="-4.86424">
        <ele>902.6413886267692</ele>
        <time>2022-05-18T13:23:20Z</time>
      </trkpt>
      <trkpt lat="42.351049" lon="-4.864209">
        <ele>904.0306850830093</ele>
        <time>2022-05-18T13:23:27Z</time>
      </trkpt>
      <trkpt lat="42.351121" lon="-4.864286">
        <ele>902.1876464067027</ele>
        <time>2022-05-18T13:23:37Z</time>
      </trkpt>
      <trkpt lat="42.351204" lon="-4.864364">
        <ele>899.4148490782827</ele>
        <time>2022-05-18T13:23:44Z</time>
      </trkpt>
      <trkpt lat="42.351305" lon="-4.86437">
        <ele>899.723809667863</ele>
        <time>2022-05-18T13:23:55Z</time>
      </trkpt>
      <trkpt lat="42.351402" lon="-4.864383">
        <ele>901.0755327800289</ele>
        <time>2022-05-18T13:24:02Z</time>
      </trkpt>
      <trkpt lat="42.351489" lon="-4.864417">
        <ele>902.5992161622271</ele>
        <time>2022-05-18T13:24:10Z</time>
      </trkpt>
      <trkpt lat="42.351577" lon="-4.864487">
        <ele>901.169875134714</ele>
        <time>2022-05-18T13:24:17Z</time>
      </trkpt>
      <trkpt lat="42.351654" lon="-4.864577">
        <ele>902.4807037916034</ele>
        <time>2022-05-18T13:24:25Z</time>
      </trkpt>
      <trkpt lat="42.351741" lon="-4.864623">
        <ele>902.9460354652256</ele>
        <time>2022-05-18T13:24:33Z</time>
      </trkpt>
      <trkpt lat="42.35183" lon="-4.864655">
        <ele>903.467302522622</ele>
        <time>2022-05-18T13:24:41Z</time>
      </trkpt>
      <trkpt lat="42.351929" lon="-4.86469">
        <ele>905.602533086203</ele>
        <time>2022-05-18T13:24:51Z</time>
      </trkpt>
      <trkpt lat="42.352021" lon="-4.864731">
        <ele>907.0555561222136</ele>
        <time>2022-05-18T13:24:58Z</time>
      </trkpt>
      <trkpt lat="42.352109" lon="-4.86478">
        <ele>906.9923321930692</ele>
        <time>2022-05-18T13:25:06Z</time>
      </trkpt>
      <trkpt lat="42.352205" lon="-4.864819">
        <ele>906.000674309209</ele>
        <time>2022-05-18T13:25:13Z</time>
      </trkpt>
      <trkpt lat="42.352297" lon="-4.864854">
        <ele>903.7292565088719</ele>
        <time>2022-05-18T13:25:23Z</time>
      </trkpt>
      <trkpt lat="42.352395" lon="-4.864888">
        <ele>903.2380688982084</ele>
        <time>2022-05-18T13:25:31Z</time>
      </trkpt>
      <trkpt lat="42.352484" lon="-4.864911">
        <ele>901.6924050478265</ele>
        <time>2022-05-18T13:25:39Z</time>
      </trkpt>
      <trkpt lat="42.352572" lon="-4.864963">
        <ele>902.773798651062</ele>
        <time>2022-05-18T13:25:47Z</time>
      </trkpt>
      <trkpt lat="42.352661" lon="-4.865013">
        <ele>904.2117615304887</ele>
        <time>2022-05-18T13:25:57Z</time>
      </trkpt>
      <trkpt lat="42.35274" lon="-4.86508">
        <ele>905.8259536139667</ele>
        <time>2022-05-18T13:26:06Z</time>
      </trkpt>
      <trkpt lat="42.352839" lon="-4.865066">
        <ele>907.1899542659521</ele>
        <time>2022-05-18T13:26:14Z</time>
      </trkpt>
      <trkpt lat="42.352837" lon="-4.864931">
        <ele>907.3966234968975</ele>
        <time>2022-05-18T13:26:48Z</time>
      </trkpt>
      <trkpt lat="42.352871" lon="-4.864816">
        <ele>914.5069367811084</ele>
        <time>2022-05-18T13:30:09Z</time>
      </trkpt>
      <trkpt lat="42.352964" lon="-4.864872">
        <ele>915.5336836660281</ele>
        <time>2022-05-18T13:34:44Z</time>
      </trkpt>
      <trkpt lat="42.353056" lon="-4.864926">
        <ele>916.3567355731502</ele>
        <time>2022-05-18T13:34:51Z</time>
      </trkpt>
      <trkpt lat="42.353156" lon="-4.864936">
        <ele>917.2758899210021</ele>
        <time>2022-05-18T13:34:57Z</time>
      </trkpt>
      <trkpt lat="42.353252" lon="-4.864946">
        <ele>917.1189592219889</ele>
        <time>2022-05-18T13:35:05Z</time>
      </trkpt>
      <trkpt lat="42.35334" lon="-4.864982">
        <ele>920.0431983834133</ele>
        <time>2022-05-18T13:35:14Z</time>
      </trkpt>
      <trkpt lat="42.353429" lon="-4.865028">
        <ele>920.6237292150036</ele>
        <time>2022-05-18T13:35:21Z</time>
      </trkpt>
      <trkpt lat="42.35351" lon="-4.8651">
        <ele>920.2496766438708</ele>
        <time>2022-05-18T13:35:27Z</time>
      </trkpt>
      <trkpt lat="42.353581" lon="-4.865174">
        <ele>918.6867283880711</ele>
        <time>2022-05-18T13:35:33Z</time>
      </trkpt>
      <trkpt lat="42.353649" lon="-4.86526">
        <ele>918.4109787810594</ele>
        <time>2022-05-18T13:35:40Z</time>
      </trkpt>
      <trkpt lat="42.353687" lon="-4.865373">
        <ele>918.0613163812086</ele>
        <time>2022-05-18T13:35:46Z</time>
      </trkpt>
      <trkpt lat="42.35378" lon="-4.865396">
        <ele>912.8940361794084</ele>
        <time>2022-05-18T13:35:53Z</time>
      </trkpt>
      <trkpt lat="42.353789" lon="-4.865518">
        <ele>909.149900414981</ele>
        <time>2022-05-18T13:36:42Z</time>
      </trkpt>
      <trkpt lat="42.353728" lon="-4.865609">
        <ele>910.5498783299699</ele>
        <time>2022-05-18T13:36:50Z</time>
      </trkpt>
      <trkpt lat="42.353731" lon="-4.865744">
        <ele>913.1016944386065</ele>
        <time>2022-05-18T13:36:57Z</time>
      </trkpt>
      <trkpt lat="42.353746" lon="-4.865873">
        <ele>915.0707705486566</ele>
        <time>2022-05-18T13:37:03Z</time>
      </trkpt>
      <trkpt lat="42.3537" lon="-4.865981">
        <ele>917.0369984386489</ele>
        <time>2022-05-18T13:37:14Z</time>
      </trkpt>
      <trkpt lat="42.353653" lon="-4.866091">
        <ele>919.3309749159962</ele>
        <time>2022-05-18T13:37:39Z</time>
      </trkpt>
      <trkpt lat="42.353542" lon="-4.866102">
        <ele>928.5061382781714</ele>
        <time>2022-05-18T13:38:02Z</time>
      </trkpt>
      <trkpt lat="42.353594" lon="-4.86621">
        <ele>930.7734435247257</ele>
        <time>2022-05-18T13:38:20Z</time>
      </trkpt>
      <trkpt lat="42.353644" lon="-4.866314">
        <ele>929.3864021990448</ele>
        <time>2022-05-18T13:39:55Z</time>
      </trkpt>
      <trkpt lat="42.35359" lon="-4.866418">
        <ele>929.0741632506251</ele>
        <time>2022-05-18T13:40:08Z</time>
      </trkpt>
      <trkpt lat="42.353575" lon="-4.866542">
        <ele>926.9119117287919</ele>
        <time>2022-05-18T13:40:17Z</time>
      </trkpt>
      <trkpt lat="42.353662" lon="-4.86659">
        <ele>926.1478196820244</ele>
        <time>2022-05-18T13:40:29Z</time>
      </trkpt>
      <trkpt lat="42.353757" lon="-4.866611">
        <ele>923.324500342831</ele>
        <time>2022-05-18T13:40:39Z</time>
      </trkpt>
      <trkpt lat="42.353856" lon="-4.8666">
        <ele>924.3031310020015</ele>
        <time>2022-05-18T13:40:49Z</time>
      </trkpt>
      <trkpt lat="42.353955" lon="-4.866597">
        <ele>923.1338496599346</ele>
        <time>2022-05-18T13:40:57Z</time>
      </trkpt>
      <trkpt lat="42.354052" lon="-4.866599">
        <ele>919.4277894245461</ele>
        <time>2022-05-18T13:41:06Z</time>
      </trkpt>
      <trkpt lat="42.354146" lon="-4.866617">
        <ele>917.4604407930747</ele>
        <time>2022-05-18T13:41:14Z</time>
      </trkpt>
      <trkpt lat="42.354236" lon="-4.866615">
        <ele>918.1199149098247</ele>
        <time>2022-05-18T13:41:25Z</time>
      </trkpt>
      <trkpt lat="42.354329" lon="-4.866592">
        <ele>919.4772727955133</ele>
        <time>2022-05-18T13:41:36Z</time>
      </trkpt>
      <trkpt lat="42.354415" lon="-4.866552">
        <ele>920.2028566887602</ele>
        <time>2022-05-18T13:41:45Z</time>
      </trkpt>
      <trkpt lat="42.354508" lon="-4.866511">
        <ele>919.1022735266015</ele>
        <time>2022-05-18T13:41:55Z</time>
      </trkpt>
      <trkpt lat="42.354592" lon="-4.866462">
        <ele>919.2877614758909</ele>
        <time>2022-05-18T13:42:02Z</time>
      </trkpt>
      <trkpt lat="42.354685" lon="-4.866409">
        <ele>919.0046338960528</ele>
        <time>2022-05-18T13:42:09Z</time>
      </trkpt>
      <trkpt lat="42.354783" lon="-4.866392">
        <ele>920.8300589518622</ele>
        <time>2022-05-18T13:42:20Z</time>
      </trkpt>
      <trkpt lat="42.354869" lon="-4.866349">
        <ele>921.5242943949997</ele>
        <time>2022-05-18T13:42:32Z</time>
      </trkpt>
      <trkpt lat="42.354959" lon="-4.866298">
        <ele>921.3697858676314</ele>
        <time>2022-05-18T13:42:40Z</time>
      </trkpt>
      <trkpt lat="42.355044" lon="-4.866256">
        <ele>920.8741222666577</ele>
        <time>2022-05-18T13:42:46Z</time>
      </trkpt>
      <trkpt lat="42.35514" lon="-4.866225">
        <ele>920.637234906666</ele>
        <time>2022-05-18T13:42:54Z</time>
      </trkpt>
      <trkpt lat="42.355228" lon="-4.8662">
        <ele>920.7374783717096</ele>
        <time>2022-05-18T13:43:03Z</time>
      </trkpt>
      <trkpt lat="42.355318" lon="-4.866175">
        <ele>922.0525386091322</ele>
        <time>2022-05-18T13:43:12Z</time>
      </trkpt>
      <trkpt lat="42.355407" lon="-4.866136">
        <ele>924.2018668325618</ele>
        <time>2022-05-18T13:43:22Z</time>
      </trkpt>
      <trkpt lat="42.355504" lon="-4.866122">
        <ele>922.5824254769832</ele>
        <time>2022-05-18T13:43:32Z</time>
      </trkpt>
      <trkpt lat="42.355596" lon="-4.866094">
        <ele>923.5404726816341</ele>
        <time>2022-05-18T13:43:42Z</time>
      </trkpt>
      <trkpt lat="42.355682" lon="-4.86605">
        <ele>923.8293079724535</ele>
        <time>2022-05-18T13:43:51Z</time>
      </trkpt>
      <trkpt lat="42.35577" lon="-4.866006">
        <ele>923.9420050932094</ele>
        <time>2022-05-18T13:43:57Z</time>
      </trkpt>
      <trkpt lat="42.355861" lon="-4.865953">
        <ele>924.2180130463094</ele>
        <time>2022-05-18T13:44:08Z</time>
      </trkpt>
      <trkpt lat="42.355944" lon="-4.865902">
        <ele>924.1250874185935</ele>
        <time>2022-05-18T13:44:16Z</time>
      </trkpt>
      <trkpt lat="42.356043" lon="-4.865863">
        <ele>924.2647317079827</ele>
        <time>2022-05-18T13:44:24Z</time>
      </trkpt>
      <trkpt lat="42.356141" lon="-4.865845">
        <ele>923.032059147954</ele>
        <time>2022-05-18T13:44:32Z</time>
      </trkpt>
      <trkpt lat="42.35624" lon="-4.865827">
        <ele>921.7575230617076</ele>
        <time>2022-05-18T13:44:40Z</time>
      </trkpt>
      <trkpt lat="42.356329" lon="-4.86577">
        <ele>920.4554369328544</ele>
        <time>2022-05-18T13:44:48Z</time>
      </trkpt>
      <trkpt lat="42.35642" lon="-4.86573">
        <ele>922.0703055057675</ele>
        <time>2022-05-18T13:44:56Z</time>
      </trkpt>
      <trkpt lat="42.356511" lon="-4.865674">
        <ele>922.1390846893191</ele>
        <time>2022-05-18T13:45:04Z</time>
      </trkpt>
      <trkpt lat="42.356599" lon="-4.86563">
        <ele>921.6435669511557</ele>
        <time>2022-05-18T13:45:13Z</time>
      </trkpt>
      <trkpt lat="42.356692" lon="-4.86561">
        <ele>919.8065903810784</ele>
        <time>2022-05-18T13:45:22Z</time>
      </trkpt>
      <trkpt lat="42.35678" lon="-4.865563">
        <ele>921.494850853458</ele>
        <time>2022-05-18T13:45:32Z</time>
      </trkpt>
      <trkpt lat="42.356871" lon="-4.865542">
        <ele>924.1483745733276</ele>
        <time>2022-05-18T13:45:40Z</time>
      </trkpt>
      <trkpt lat="42.356961" lon="-4.865498">
        <ele>924.4749109195545</ele>
        <time>2022-05-18T13:45:50Z</time>
      </trkpt>
      <trkpt lat="42.35705" lon="-4.865469">
        <ele>926.6723385043442</ele>
        <time>2022-05-18T13:45:59Z</time>
      </trkpt>
      <trkpt lat="42.357146" lon="-4.865425">
        <ele>925.9213024862111</ele>
        <time>2022-05-18T13:46:07Z</time>
      </trkpt>
      <trkpt lat="42.357241" lon="-4.865383">
        <ele>924.1906925532967</ele>
        <time>2022-05-18T13:46:14Z</time>
      </trkpt>
      <trkpt lat="42.35733" lon="-4.865335">
        <ele>926.584127297625</ele>
        <time>2022-05-18T13:46:24Z</time>
      </trkpt>
      <trkpt lat="42.357428" lon="-4.865308">
        <ele>926.9023580569774</ele>
        <time>2022-05-18T13:46:33Z</time>
      </trkpt>
      <trkpt lat="42.357529" lon="-4.865281">
        <ele>926.4811000423506</ele>
        <time>2022-05-18T13:46:42Z</time>
      </trkpt>
      <trkpt lat="42.357625" lon="-4.865289">
        <ele>924.3167388522997</ele>
        <time>2022-05-18T13:46:50Z</time>
      </trkpt>
      <trkpt lat="42.357719" lon="-4.865249">
        <ele>924.0307082766667</ele>
        <time>2022-05-18T13:47:01Z</time>
      </trkpt>
      <trkpt lat="42.357817" lon="-4.865243">
        <ele>925.6554763047025</ele>
        <time>2022-05-18T13:47:11Z</time>
      </trkpt>
      <trkpt lat="42.357917" lon="-4.865238">
        <ele>925.8487262232229</ele>
        <time>2022-05-18T13:47:19Z</time>
      </trkpt>
      <trkpt lat="42.358016" lon="-4.865228">
        <ele>924.925094419159</ele>
        <time>2022-05-18T13:47:28Z</time>
      </trkpt>
      <trkpt lat="42.35811" lon="-4.865226">
        <ele>923.0660483548418</ele>
        <time>2022-05-18T13:47:36Z</time>
      </trkpt>
      <trkpt lat="42.358208" lon="-4.865215">
        <ele>921.1015604883432</ele>
        <time>2022-05-18T13:47:46Z</time>
      </trkpt>
      <trkpt lat="42.358302" lon="-4.865218">
        <ele>920.5918285986409</ele>
        <time>2022-05-18T13:47:53Z</time>
      </trkpt>
      <trkpt lat="42.358399" lon="-4.86523">
        <ele>918.0179036250338</ele>
        <time>2022-05-18T13:48:02Z</time>
      </trkpt>
      <trkpt lat="42.358497" lon="-4.865222">
        <ele>916.851712138392</ele>
        <time>2022-05-18T13:48:11Z</time>
      </trkpt>
      <trkpt lat="42.358565" lon="-4.865308">
        <ele>914.2557376725599</ele>
        <time>2022-05-18T13:48:22Z</time>
      </trkpt>
      <trkpt lat="42.35865" lon="-4.865363">
        <ele>912.8305585160851</ele>
        <time>2022-05-18T13:48:32Z</time>
      </trkpt>
      <trkpt lat="42.35875" lon="-4.865359">
        <ele>911.3918758705258</ele>
        <time>2022-05-18T13:48:41Z</time>
      </trkpt>
      <trkpt lat="42.358846" lon="-4.86538">
        <ele>908.6148628145456</ele>
        <time>2022-05-18T13:48:49Z</time>
      </trkpt>
      <trkpt lat="42.358937" lon="-4.865402">
        <ele>907.3755691703409</ele>
        <time>2022-05-18T13:48:58Z</time>
      </trkpt>
      <trkpt lat="42.359031" lon="-4.865436">
        <ele>905.9968603486195</ele>
        <time>2022-05-18T13:49:08Z</time>
      </trkpt>
      <trkpt lat="42.359119" lon="-4.865481">
        <ele>906.4323163554072</ele>
        <time>2022-05-18T13:49:17Z</time>
      </trkpt>
      <trkpt lat="42.359215" lon="-4.865517">
        <ele>906.1050805253908</ele>
        <time>2022-05-18T13:49:27Z</time>
      </trkpt>
      <trkpt lat="42.359313" lon="-4.865549">
        <ele>907.2295696279034</ele>
        <time>2022-05-18T13:49:36Z</time>
      </trkpt>
      <trkpt lat="42.3594" lon="-4.865578">
        <ele>906.996205017902</ele>
        <time>2022-05-18T13:49:45Z</time>
      </trkpt>
      <trkpt lat="42.359496" lon="-4.865615">
        <ele>906.6652441117913</ele>
        <time>2022-05-18T13:49:54Z</time>
      </trkpt>
      <trkpt lat="42.359589" lon="-4.865645">
        <ele>906.0831960495561</ele>
        <time>2022-05-18T13:50:04Z</time>
      </trkpt>
      <trkpt lat="42.359682" lon="-4.865678">
        <ele>906.2090610004961</ele>
        <time>2022-05-18T13:50:16Z</time>
      </trkpt>
      <trkpt lat="42.359778" lon="-4.865707">
        <ele>906.9845775263384</ele>
        <time>2022-05-18T13:50:24Z</time>
      </trkpt>
      <trkpt lat="42.359868" lon="-4.865753">
        <ele>909.6521801901981</ele>
        <time>2022-05-18T13:50:36Z</time>
      </trkpt>
      <trkpt lat="42.359959" lon="-4.865781">
        <ele>910.415180766955</ele>
        <time>2022-05-18T13:50:43Z</time>
      </trkpt>
      <trkpt lat="42.360064" lon="-4.865803">
        <ele>909.3343559484929</ele>
        <time>2022-05-18T13:50:52Z</time>
      </trkpt>
      <trkpt lat="42.360164" lon="-4.865809">
        <ele>906.428958946839</ele>
        <time>2022-05-18T13:50:59Z</time>
      </trkpt>
      <trkpt lat="42.360256" lon="-4.865809">
        <ele>903.4713154248893</ele>
        <time>2022-05-18T13:51:07Z</time>
      </trkpt>
      <trkpt lat="42.360357" lon="-4.865814">
        <ele>900.6684103896841</ele>
        <time>2022-05-18T13:51:14Z</time>
      </trkpt>
      <trkpt lat="42.360449" lon="-4.865819">
        <ele>899.0945439739153</ele>
        <time>2022-05-18T13:51:23Z</time>
      </trkpt>
      <trkpt lat="42.360538" lon="-4.86584">
        <ele>897.6354090701789</ele>
        <time>2022-05-18T13:51:31Z</time>
      </trkpt>
      <trkpt lat="42.360629" lon="-4.86585">
        <ele>895.7845741957426</ele>
        <time>2022-05-18T13:51:40Z</time>
      </trkpt>
      <trkpt lat="42.36072" lon="-4.865871">
        <ele>895.0972972437739</ele>
        <time>2022-05-18T13:51:51Z</time>
      </trkpt>
      <trkpt lat="42.360817" lon="-4.865882">
        <ele>897.1176581215113</ele>
        <time>2022-05-18T13:52:01Z</time>
      </trkpt>
      <trkpt lat="42.360909" lon="-4.865883">
        <ele>896.3743158457801</ele>
        <time>2022-05-18T13:52:08Z</time>
      </trkpt>
      <trkpt lat="42.360998" lon="-4.865929">
        <ele>897.418339443393</ele>
        <time>2022-05-18T13:52:17Z</time>
      </trkpt>
      <trkpt lat="42.361088" lon="-4.865959">
        <ele>897.116486527957</ele>
        <time>2022-05-18T13:52:28Z</time>
      </trkpt>
      <trkpt lat="42.361181" lon="-4.865991">
        <ele>896.6052643479779</ele>
        <time>2022-05-18T13:52:39Z</time>
      </trkpt>
      <trkpt lat="42.361272" lon="-4.866013">
        <ele>898.5007228069007</ele>
        <time>2022-05-18T13:52:49Z</time>
      </trkpt>
      <trkpt lat="42.361371" lon="-4.866035">
        <ele>898.8901866599917</ele>
        <time>2022-05-18T13:52:59Z</time>
      </trkpt>
      <trkpt lat="42.361468" lon="-4.866062">
        <ele>898.8307364629582</ele>
        <time>2022-05-18T13:53:08Z</time>
      </trkpt>
      <trkpt lat="42.361558" lon="-4.866085">
        <ele>898.8674876214936</ele>
        <time>2022-05-18T13:53:16Z</time>
      </trkpt>
      <trkpt lat="42.361651" lon="-4.866142">
        <ele>899.0320404907688</ele>
        <time>2022-05-18T13:53:25Z</time>
      </trkpt>
      <trkpt lat="42.361744" lon="-4.866181">
        <ele>899.9236094113439</ele>
        <time>2022-05-18T13:53:33Z</time>
      </trkpt>
      <trkpt lat="42.361842" lon="-4.866213">
        <ele>901.7182775996625</ele>
        <time>2022-05-18T13:53:43Z</time>
      </trkpt>
      <trkpt lat="42.36194" lon="-4.866219">
        <ele>901.6544838063419</ele>
        <time>2022-05-18T13:53:52Z</time>
      </trkpt>
      <trkpt lat="42.362027" lon="-4.866265">
        <ele>901.5420141397044</ele>
        <time>2022-05-18T13:54:02Z</time>
      </trkpt>
      <trkpt lat="42.362115" lon="-4.866304">
        <ele>900.6793758776039</ele>
        <time>2022-05-18T13:54:11Z</time>
      </trkpt>
      <trkpt lat="42.362209" lon="-4.866353">
        <ele>901.1794026391581</ele>
        <time>2022-05-18T13:54:21Z</time>
      </trkpt>
      <trkpt lat="42.3623" lon="-4.866394">
        <ele>900.2732293549925</ele>
        <time>2022-05-18T13:54:30Z</time>
      </trkpt>
      <trkpt lat="42.362392" lon="-4.866422">
        <ele>898.7474833456799</ele>
        <time>2022-05-18T13:54:39Z</time>
      </trkpt>
      <trkpt lat="42.36248" lon="-4.866486">
        <ele>899.230878541246</ele>
        <time>2022-05-18T13:54:48Z</time>
      </trkpt>
      <trkpt lat="42.362541" lon="-4.866587">
        <ele>901.3442961359397</ele>
        <time>2022-05-18T13:54:57Z</time>
      </trkpt>
      <trkpt lat="42.362624" lon="-4.866648">
        <ele>902.5805972646922</ele>
        <time>2022-05-18T13:55:06Z</time>
      </trkpt>
      <trkpt lat="42.362709" lon="-4.866705">
        <ele>903.8050599228591</ele>
        <time>2022-05-18T13:55:13Z</time>
      </trkpt>
      <trkpt lat="42.362785" lon="-4.866797">
        <ele>906.2404813691974</ele>
        <time>2022-05-18T13:55:22Z</time>
      </trkpt>
      <trkpt lat="42.362867" lon="-4.866877">
        <ele>907.7692888248712</ele>
        <time>2022-05-18T13:55:31Z</time>
      </trkpt>
      <trkpt lat="42.362938" lon="-4.866953">
        <ele>908.454348477535</ele>
        <time>2022-05-18T13:55:38Z</time>
      </trkpt>
      <trkpt lat="42.363014" lon="-4.867041">
        <ele>909.2059611491859</ele>
        <time>2022-05-18T13:55:46Z</time>
      </trkpt>
      <trkpt lat="42.363076" lon="-4.86713">
        <ele>909.1729839276522</ele>
        <time>2022-05-18T13:55:54Z</time>
      </trkpt>
      <trkpt lat="42.363133" lon="-4.867234">
        <ele>909.413379794918</ele>
        <time>2022-05-18T13:56:02Z</time>
      </trkpt>
      <trkpt lat="42.363227" lon="-4.867269">
        <ele>907.7821807507426</ele>
        <time>2022-05-18T13:56:14Z</time>
      </trkpt>
      <trkpt lat="42.363277" lon="-4.86738">
        <ele>910.6573099028319</ele>
        <time>2022-05-18T13:56:24Z</time>
      </trkpt>
      <trkpt lat="42.363323" lon="-4.867488">
        <ele>912.7270608078688</ele>
        <time>2022-05-18T13:56:32Z</time>
      </trkpt>
      <trkpt lat="42.363362" lon="-4.867599">
        <ele>914.116308759898</ele>
        <time>2022-05-18T13:56:39Z</time>
      </trkpt>
      <trkpt lat="42.363405" lon="-4.86771">
        <ele>916.1083453698084</ele>
        <time>2022-05-18T13:56:46Z</time>
      </trkpt>
      <trkpt lat="42.363451" lon="-4.867839">
        <ele>918.9290077835321</ele>
        <time>2022-05-18T13:56:56Z</time>
      </trkpt>
      <trkpt lat="42.363498" lon="-4.867949">
        <ele>920.6038848310709</ele>
        <time>2022-05-18T13:57:04Z</time>
      </trkpt>
      <trkpt lat="42.363541" lon="-4.868059">
        <ele>922.874075319618</ele>
        <time>2022-05-18T13:57:12Z</time>
      </trkpt>
      <trkpt lat="42.363587" lon="-4.868178">
        <ele>922.8580339411274</ele>
        <time>2022-05-18T13:57:21Z</time>
      </trkpt>
      <trkpt lat="42.363626" lon="-4.8683">
        <ele>924.0451687118039</ele>
        <time>2022-05-18T13:57:31Z</time>
      </trkpt>
      <trkpt lat="42.363638" lon="-4.868421">
        <ele>921.5041180355474</ele>
        <time>2022-05-18T13:57:44Z</time>
      </trkpt>
      <trkpt lat="42.363659" lon="-4.868543">
        <ele>916.4022990874946</ele>
        <time>2022-05-18T13:57:57Z</time>
      </trkpt>
      <trkpt lat="42.363714" lon="-4.868639">
        <ele>914.2742288941517</ele>
        <time>2022-05-18T13:58:06Z</time>
      </trkpt>
      <trkpt lat="42.363759" lon="-4.868756">
        <ele>912.1441815355793</ele>
        <time>2022-05-18T13:58:17Z</time>
      </trkpt>
      <trkpt lat="42.363808" lon="-4.86886">
        <ele>910.66569764819</ele>
        <time>2022-05-18T13:58:26Z</time>
      </trkpt>
      <trkpt lat="42.363857" lon="-4.868972">
        <ele>908.9046943988651</ele>
        <time>2022-05-18T13:58:35Z</time>
      </trkpt>
      <trkpt lat="42.363914" lon="-4.869076">
        <ele>906.2609128449112</ele>
        <time>2022-05-18T13:58:44Z</time>
      </trkpt>
      <trkpt lat="42.363975" lon="-4.869176">
        <ele>905.3172391830012</ele>
        <time>2022-05-18T13:58:52Z</time>
      </trkpt>
      <trkpt lat="42.364015" lon="-4.869299">
        <ele>907.5353685785085</ele>
        <time>2022-05-18T13:59:02Z</time>
      </trkpt>
      <trkpt lat="42.364073" lon="-4.869422">
        <ele>909.9013056671247</ele>
        <time>2022-05-18T13:59:11Z</time>
      </trkpt>
      <trkpt lat="42.364122" lon="-4.86954">
        <ele>911.2106356844306</ele>
        <time>2022-05-18T13:59:22Z</time>
      </trkpt>
      <trkpt lat="42.364167" lon="-4.869668">
        <ele>912.2311249226332</ele>
        <time>2022-05-18T13:59:32Z</time>
      </trkpt>
      <trkpt lat="42.364213" lon="-4.869787">
        <ele>912.7187247471884</ele>
        <time>2022-05-18T13:59:42Z</time>
      </trkpt>
      <trkpt lat="42.364232" lon="-4.869918">
        <ele>913.9627878554165</ele>
        <time>2022-05-18T13:59:52Z</time>
      </trkpt>
      <trkpt lat="42.364272" lon="-4.870043">
        <ele>915.0257783718407</ele>
        <time>2022-05-18T14:00:02Z</time>
      </trkpt>
      <trkpt lat="42.364312" lon="-4.870158">
        <ele>914.7272194353864</ele>
        <time>2022-05-18T14:00:10Z</time>
      </trkpt>
      <trkpt lat="42.364351" lon="-4.870268">
        <ele>915.6618969487026</ele>
        <time>2022-05-18T14:00:20Z</time>
      </trkpt>
      <trkpt lat="42.364391" lon="-4.870377">
        <ele>915.5567302275449</ele>
        <time>2022-05-18T14:00:29Z</time>
      </trkpt>
      <trkpt lat="42.364425" lon="-4.870491">
        <ele>915.0964647550136</ele>
        <time>2022-05-18T14:00:38Z</time>
      </trkpt>
      <trkpt lat="42.364456" lon="-4.870609">
        <ele>918.8764052661136</ele>
        <time>2022-05-18T14:00:47Z</time>
      </trkpt>
      <trkpt lat="42.3645" lon="-4.870722">
        <ele>921.9135657344013</ele>
        <time>2022-05-18T14:00:56Z</time>
      </trkpt>
      <trkpt lat="42.364539" lon="-4.87084">
        <ele>923.2778013488278</ele>
        <time>2022-05-18T14:01:05Z</time>
      </trkpt>
      <trkpt lat="42.364565" lon="-4.870962">
        <ele>922.7405897667632</ele>
        <time>2022-05-18T14:01:15Z</time>
      </trkpt>
      <trkpt lat="42.364619" lon="-4.871063">
        <ele>923.6976504037157</ele>
        <time>2022-05-18T14:01:24Z</time>
      </trkpt>
      <trkpt lat="42.36466" lon="-4.871173">
        <ele>923.5836273198947</ele>
        <time>2022-05-18T14:01:34Z</time>
      </trkpt>
      <trkpt lat="42.364699" lon="-4.871295">
        <ele>923.5601282678545</ele>
        <time>2022-05-18T14:01:43Z</time>
      </trkpt>
      <trkpt lat="42.364738" lon="-4.871416">
        <ele>922.4138841331005</ele>
        <time>2022-05-18T14:01:52Z</time>
      </trkpt>
      <trkpt lat="42.364784" lon="-4.871548">
        <ele>922.0775165650994</ele>
        <time>2022-05-18T14:02:02Z</time>
      </trkpt>
      <trkpt lat="42.364833" lon="-4.871671">
        <ele>922.2954515730962</ele>
        <time>2022-05-18T14:02:12Z</time>
      </trkpt>
      <trkpt lat="42.364898" lon="-4.871788">
        <ele>924.816880993545</ele>
        <time>2022-05-18T14:02:23Z</time>
      </trkpt>
      <trkpt lat="42.364953" lon="-4.871918">
        <ele>926.4876720532775</ele>
        <time>2022-05-18T14:02:33Z</time>
      </trkpt>
      <trkpt lat="42.364994" lon="-4.872034">
        <ele>928.187877538614</ele>
        <time>2022-05-18T14:02:45Z</time>
      </trkpt>
      <trkpt lat="42.365044" lon="-4.872142">
        <ele>929.1134038139135</ele>
        <time>2022-05-18T14:02:55Z</time>
      </trkpt>
      <trkpt lat="42.365092" lon="-4.872262">
        <ele>930.0622258605435</ele>
        <time>2022-05-18T14:03:04Z</time>
      </trkpt>
      <trkpt lat="42.365123" lon="-4.872377">
        <ele>929.7176761701703</ele>
        <time>2022-05-18T14:03:12Z</time>
      </trkpt>
      <trkpt lat="42.365166" lon="-4.87249">
        <ele>929.6184270484373</ele>
        <time>2022-05-18T14:03:20Z</time>
      </trkpt>
      <trkpt lat="42.365207" lon="-4.872602">
        <ele>931.0720417788252</ele>
        <time>2022-05-18T14:03:30Z</time>
      </trkpt>
      <trkpt lat="42.365251" lon="-4.872711">
        <ele>932.367723739706</ele>
        <time>2022-05-18T14:03:41Z</time>
      </trkpt>
      <trkpt lat="42.365299" lon="-4.872823">
        <ele>932.8460843907669</ele>
        <time>2022-05-18T14:03:52Z</time>
      </trkpt>
      <trkpt lat="42.365337" lon="-4.872936">
        <ele>933.58176936768</ele>
        <time>2022-05-18T14:04:01Z</time>
      </trkpt>
      <trkpt lat="42.365383" lon="-4.873047">
        <ele>933.9167218673974</ele>
        <time>2022-05-18T14:04:10Z</time>
      </trkpt>
      <trkpt lat="42.365428" lon="-4.873163">
        <ele>935.1100483434275</ele>
        <time>2022-05-18T14:04:20Z</time>
      </trkpt>
      <trkpt lat="42.365479" lon="-4.873272">
        <ele>934.5113256126642</ele>
        <time>2022-05-18T14:04:28Z</time>
      </trkpt>
      <trkpt lat="42.365516" lon="-4.873389">
        <ele>933.3815536275506</ele>
        <time>2022-05-18T14:04:37Z</time>
      </trkpt>
      <trkpt lat="42.365557" lon="-4.873499">
        <ele>933.7851006453857</ele>
        <time>2022-05-18T14:04:46Z</time>
      </trkpt>
      <trkpt lat="42.365592" lon="-4.873619">
        <ele>936.1448742905632</ele>
        <time>2022-05-18T14:04:56Z</time>
      </trkpt>
      <trkpt lat="42.365647" lon="-4.873743">
        <ele>935.6727450992912</ele>
        <time>2022-05-18T14:05:04Z</time>
      </trkpt>
      <trkpt lat="42.365698" lon="-4.873853">
        <ele>934.1116543635726</ele>
        <time>2022-05-18T14:05:12Z</time>
      </trkpt>
      <trkpt lat="42.365746" lon="-4.873962">
        <ele>933.9225242147222</ele>
        <time>2022-05-18T14:05:23Z</time>
      </trkpt>
      <trkpt lat="42.365785" lon="-4.874076">
        <ele>934.8700801497325</ele>
        <time>2022-05-18T14:05:33Z</time>
      </trkpt>
      <trkpt lat="42.365819" lon="-4.874189">
        <ele>934.2542832866311</ele>
        <time>2022-05-18T14:05:43Z</time>
      </trkpt>
      <trkpt lat="42.365863" lon="-4.874315">
        <ele>935.079069910571</ele>
        <time>2022-05-18T14:05:53Z</time>
      </trkpt>
      <trkpt lat="42.3659" lon="-4.874434">
        <ele>933.596497554332</ele>
        <time>2022-05-18T14:06:01Z</time>
      </trkpt>
      <trkpt lat="42.365935" lon="-4.874553">
        <ele>933.5452220542356</ele>
        <time>2022-05-18T14:06:10Z</time>
      </trkpt>
      <trkpt lat="42.365956" lon="-4.874672">
        <ele>934.6486025732011</ele>
        <time>2022-05-18T14:06:18Z</time>
      </trkpt>
      <trkpt lat="42.365968" lon="-4.874802">
        <ele>934.1505837403238</ele>
        <time>2022-05-18T14:06:30Z</time>
      </trkpt>
      <trkpt lat="42.36599" lon="-4.874921">
        <ele>933.9558620657772</ele>
        <time>2022-05-18T14:06:39Z</time>
      </trkpt>
      <trkpt lat="42.366001" lon="-4.875048">
        <ele>932.8155137319118</ele>
        <time>2022-05-18T14:06:47Z</time>
      </trkpt>
      <trkpt lat="42.365998" lon="-4.875172">
        <ele>932.5322633525357</ele>
        <time>2022-05-18T14:06:55Z</time>
      </trkpt>
      <trkpt lat="42.366024" lon="-4.875291">
        <ele>932.5677353069186</ele>
        <time>2022-05-18T14:07:03Z</time>
      </trkpt>
      <trkpt lat="42.36602" lon="-4.875421">
        <ele>930.8729744637385</ele>
        <time>2022-05-18T14:07:12Z</time>
      </trkpt>
      <trkpt lat="42.366045" lon="-4.87555">
        <ele>930.1678661387414</ele>
        <time>2022-05-18T14:07:21Z</time>
      </trkpt>
      <trkpt lat="42.36603" lon="-4.875678">
        <ele>929.7029955377802</ele>
        <time>2022-05-18T14:07:32Z</time>
      </trkpt>
      <trkpt lat="42.366014" lon="-4.8758">
        <ele>929.6434740722179</ele>
        <time>2022-05-18T14:07:42Z</time>
      </trkpt>
      <trkpt lat="42.366001" lon="-4.875928">
        <ele>929.1641391534358</ele>
        <time>2022-05-18T14:07:53Z</time>
      </trkpt>
      <trkpt lat="42.36599" lon="-4.876054">
        <ele>929.6658220859244</ele>
        <time>2022-05-18T14:08:01Z</time>
      </trkpt>
      <trkpt lat="42.365982" lon="-4.876185">
        <ele>928.6029997495934</ele>
        <time>2022-05-18T14:08:08Z</time>
      </trkpt>
      <trkpt lat="42.365961" lon="-4.876318">
        <ele>927.9450784819201</ele>
        <time>2022-05-18T14:08:18Z</time>
      </trkpt>
      <trkpt lat="42.365944" lon="-4.876439">
        <ele>927.9647723119706</ele>
        <time>2022-05-18T14:08:27Z</time>
      </trkpt>
      <trkpt lat="42.365933" lon="-4.876566">
        <ele>926.5341255636886</ele>
        <time>2022-05-18T14:08:36Z</time>
      </trkpt>
      <trkpt lat="42.36593" lon="-4.876713">
        <ele>925.659421293065</ele>
        <time>2022-05-18T14:08:46Z</time>
      </trkpt>
      <trkpt lat="42.365927" lon="-4.876842">
        <ele>925.0100204022601</ele>
        <time>2022-05-18T14:08:56Z</time>
      </trkpt>
      <trkpt lat="42.365938" lon="-4.876971">
        <ele>924.4721630169079</ele>
        <time>2022-05-18T14:09:06Z</time>
      </trkpt>
      <trkpt lat="42.365926" lon="-4.877095">
        <ele>923.7028735987842</ele>
        <time>2022-05-18T14:09:16Z</time>
      </trkpt>
      <trkpt lat="42.365935" lon="-4.877223">
        <ele>922.7684010574594</ele>
        <time>2022-05-18T14:09:25Z</time>
      </trkpt>
      <trkpt lat="42.365929" lon="-4.877347">
        <ele>921.2454259470105</ele>
        <time>2022-05-18T14:09:35Z</time>
      </trkpt>
      <trkpt lat="42.365919" lon="-4.877478">
        <ele>922.3646720135584</ele>
        <time>2022-05-18T14:09:43Z</time>
      </trkpt>
      <trkpt lat="42.365903" lon="-4.8776">
        <ele>923.198513712734</ele>
        <time>2022-05-18T14:09:51Z</time>
      </trkpt>
      <trkpt lat="42.365879" lon="-4.877735">
        <ele>921.5436238003895</ele>
        <time>2022-05-18T14:10:01Z</time>
      </trkpt>
      <trkpt lat="42.36586" lon="-4.877867">
        <ele>921.8811515662819</ele>
        <time>2022-05-18T14:10:10Z</time>
      </trkpt>
      <trkpt lat="42.365835" lon="-4.877993">
        <ele>923.1455251164734</ele>
        <time>2022-05-18T14:10:20Z</time>
      </trkpt>
      <trkpt lat="42.365801" lon="-4.878118">
        <ele>924.833885204047</ele>
        <time>2022-05-18T14:10:30Z</time>
      </trkpt>
      <trkpt lat="42.365783" lon="-4.878251">
        <ele>925.4224555352703</ele>
        <time>2022-05-18T14:10:40Z</time>
      </trkpt>
      <trkpt lat="42.365778" lon="-4.878374">
        <ele>926.1506216339767</ele>
        <time>2022-05-18T14:10:49Z</time>
      </trkpt>
      <trkpt lat="42.365762" lon="-4.8785">
        <ele>926.1145507106557</ele>
        <time>2022-05-18T14:10:58Z</time>
      </trkpt>
      <trkpt lat="42.365752" lon="-4.878633">
        <ele>927.0386895248666</ele>
        <time>2022-05-18T14:11:08Z</time>
      </trkpt>
      <trkpt lat="42.365732" lon="-4.878765">
        <ele>927.7024252014235</ele>
        <time>2022-05-18T14:11:18Z</time>
      </trkpt>
      <trkpt lat="42.365725" lon="-4.878896">
        <ele>927.1738939359784</ele>
        <time>2022-05-18T14:11:29Z</time>
      </trkpt>
      <trkpt lat="42.365716" lon="-4.879031">
        <ele>926.7595143411309</ele>
        <time>2022-05-18T14:11:39Z</time>
      </trkpt>
      <trkpt lat="42.365703" lon="-4.879163">
        <ele>926.6801979448646</ele>
        <time>2022-05-18T14:11:49Z</time>
      </trkpt>
      <trkpt lat="42.365679" lon="-4.879301">
        <ele>926.569359112531</ele>
        <time>2022-05-18T14:11:59Z</time>
      </trkpt>
      <trkpt lat="42.365662" lon="-4.879449">
        <ele>928.130434665829</ele>
        <time>2022-05-18T14:12:09Z</time>
      </trkpt>
      <trkpt lat="42.365649" lon="-4.879591">
        <ele>928.4362291088328</ele>
        <time>2022-05-18T14:12:19Z</time>
      </trkpt>
      <trkpt lat="42.365613" lon="-4.879719">
        <ele>928.1913015590981</ele>
        <time>2022-05-18T14:12:27Z</time>
      </trkpt>
      <trkpt lat="42.365584" lon="-4.87984">
        <ele>928.8363787531853</ele>
        <time>2022-05-18T14:12:36Z</time>
      </trkpt>
      <trkpt lat="42.365576" lon="-4.879972">
        <ele>930.7306640511379</ele>
        <time>2022-05-18T14:12:45Z</time>
      </trkpt>
      <trkpt lat="42.365562" lon="-4.880097">
        <ele>929.8913808129728</ele>
        <time>2022-05-18T14:12:54Z</time>
      </trkpt>
      <trkpt lat="42.36556" lon="-4.880231">
        <ele>929.576559940353</ele>
        <time>2022-05-18T14:13:06Z</time>
      </trkpt>
      <trkpt lat="42.365564" lon="-4.880365">
        <ele>928.818461868912</ele>
        <time>2022-05-18T14:13:16Z</time>
      </trkpt>
      <trkpt lat="42.365541" lon="-4.880486">
        <ele>928.1071488205343</ele>
        <time>2022-05-18T14:13:24Z</time>
      </trkpt>
      <trkpt lat="42.365521" lon="-4.880612">
        <ele>926.3938005957752</ele>
        <time>2022-05-18T14:13:33Z</time>
      </trkpt>
      <trkpt lat="42.365507" lon="-4.880737">
        <ele>926.0511887492612</ele>
        <time>2022-05-18T14:13:42Z</time>
      </trkpt>
      <trkpt lat="42.36551" lon="-4.880863">
        <ele>926.7084516175091</ele>
        <time>2022-05-18T14:13:51Z</time>
      </trkpt>
      <trkpt lat="42.365483" lon="-4.880989">
        <ele>927.7386471321806</ele>
        <time>2022-05-18T14:14:00Z</time>
      </trkpt>
      <trkpt lat="42.365452" lon="-4.881119">
        <ele>927.4616446429864</ele>
        <time>2022-05-18T14:14:08Z</time>
      </trkpt>
      <trkpt lat="42.365426" lon="-4.88125">
        <ele>927.1135819423944</ele>
        <time>2022-05-18T14:14:18Z</time>
      </trkpt>
      <trkpt lat="42.365417" lon="-4.881374">
        <ele>927.9301864253357</ele>
        <time>2022-05-18T14:14:26Z</time>
      </trkpt>
      <trkpt lat="42.365402" lon="-4.881511">
        <ele>928.2504302654415</ele>
        <time>2022-05-18T14:14:36Z</time>
      </trkpt>
      <trkpt lat="42.365395" lon="-4.881633">
        <ele>928.842797620222</ele>
        <time>2022-05-18T14:14:45Z</time>
      </trkpt>
      <trkpt lat="42.365382" lon="-4.881782">
        <ele>929.6327490936965</ele>
        <time>2022-05-18T14:14:55Z</time>
      </trkpt>
      <trkpt lat="42.36538" lon="-4.881914">
        <ele>929.5620612604544</ele>
        <time>2022-05-18T14:15:05Z</time>
      </trkpt>
      <trkpt lat="42.365366" lon="-4.882063">
        <ele>928.7669654116035</ele>
        <time>2022-05-18T14:15:15Z</time>
      </trkpt>
      <trkpt lat="42.365341" lon="-4.882197">
        <ele>929.1027897875756</ele>
        <time>2022-05-18T14:15:23Z</time>
      </trkpt>
      <trkpt lat="42.36532" lon="-4.88232">
        <ele>930.4439115915447</ele>
        <time>2022-05-18T14:15:31Z</time>
      </trkpt>
      <trkpt lat="42.365296" lon="-4.882442">
        <ele>930.7845893241465</ele>
        <time>2022-05-18T14:15:39Z</time>
      </trkpt>
      <trkpt lat="42.365273" lon="-4.88256">
        <ele>931.1301287673414</ele>
        <time>2022-05-18T14:15:47Z</time>
      </trkpt>
      <trkpt lat="42.365271" lon="-4.88269">
        <ele>931.2138459868729</ele>
        <time>2022-05-18T14:15:57Z</time>
      </trkpt>
      <trkpt lat="42.365257" lon="-4.882824">
        <ele>929.5170946829021</ele>
        <time>2022-05-18T14:16:06Z</time>
      </trkpt>
      <trkpt lat="42.365243" lon="-4.88295">
        <ele>927.8781658709049</ele>
        <time>2022-05-18T14:16:15Z</time>
      </trkpt>
      <trkpt lat="42.365225" lon="-4.883078">
        <ele>928.072160446085</ele>
        <time>2022-05-18T14:16:24Z</time>
      </trkpt>
      <trkpt lat="42.365207" lon="-4.883204">
        <ele>928.856947734952</ele>
        <time>2022-05-18T14:16:32Z</time>
      </trkpt>
      <trkpt lat="42.365182" lon="-4.883329">
        <ele>929.4856436150149</ele>
        <time>2022-05-18T14:16:41Z</time>
      </trkpt>
      <trkpt lat="42.365178" lon="-4.883453">
        <ele>929.353379345499</ele>
        <time>2022-05-18T14:16:50Z</time>
      </trkpt>
      <trkpt lat="42.365173" lon="-4.883588">
        <ele>927.9901054510847</ele>
        <time>2022-05-18T14:16:59Z</time>
      </trkpt>
      <trkpt lat="42.365152" lon="-4.883714">
        <ele>927.3556887153536</ele>
        <time>2022-05-18T14:17:06Z</time>
      </trkpt>
      <trkpt lat="42.365145" lon="-4.883842">
        <ele>927.3388016298413</ele>
        <time>2022-05-18T14:17:16Z</time>
      </trkpt>
      <trkpt lat="42.365134" lon="-4.883986">
        <ele>925.3662758199498</ele>
        <time>2022-05-18T14:17:26Z</time>
      </trkpt>
      <trkpt lat="42.365113" lon="-4.884108">
        <ele>924.8994950940832</ele>
        <time>2022-05-18T14:17:36Z</time>
      </trkpt>
      <trkpt lat="42.365102" lon="-4.884235">
        <ele>924.4073318997398</ele>
        <time>2022-05-18T14:17:46Z</time>
      </trkpt>
      <trkpt lat="42.365103" lon="-4.884359">
        <ele>923.0671618552878</ele>
        <time>2022-05-18T14:17:54Z</time>
      </trkpt>
      <trkpt lat="42.365097" lon="-4.88449">
        <ele>922.2609689729288</ele>
        <time>2022-05-18T14:18:04Z</time>
      </trkpt>
      <trkpt lat="42.365075" lon="-4.884622">
        <ele>921.1532969949767</ele>
        <time>2022-05-18T14:18:12Z</time>
      </trkpt>
      <trkpt lat="42.365057" lon="-4.884749">
        <ele>920.232407416217</ele>
        <time>2022-05-18T14:18:22Z</time>
      </trkpt>
      <trkpt lat="42.365046" lon="-4.884872">
        <ele>919.614656467922</ele>
        <time>2022-05-18T14:18:31Z</time>
      </trkpt>
      <trkpt lat="42.365029" lon="-4.884994">
        <ele>918.5172460144386</ele>
        <time>2022-05-18T14:18:40Z</time>
      </trkpt>
      <trkpt lat="42.365018" lon="-4.885127">
        <ele>920.3466827906668</ele>
        <time>2022-05-18T14:18:56Z</time>
      </trkpt>
      <trkpt lat="42.365002" lon="-4.885251">
        <ele>921.4026846811175</ele>
        <time>2022-05-18T14:19:04Z</time>
      </trkpt>
      <trkpt lat="42.364986" lon="-4.885376">
        <ele>920.6374165834859</ele>
        <time>2022-05-18T14:19:11Z</time>
      </trkpt>
      <trkpt lat="42.364975" lon="-4.885499">
        <ele>920.5854396345094</ele>
        <time>2022-05-18T14:19:18Z</time>
      </trkpt>
      <trkpt lat="42.364959" lon="-4.885622">
        <ele>922.2815554095432</ele>
        <time>2022-05-18T14:19:27Z</time>
      </trkpt>
      <trkpt lat="42.364953" lon="-4.885749">
        <ele>922.7594117326662</ele>
        <time>2022-05-18T14:19:47Z</time>
      </trkpt>
      <trkpt lat="42.364923" lon="-4.885879">
        <ele>924.5800544740632</ele>
        <time>2022-05-18T14:19:55Z</time>
      </trkpt>
      <trkpt lat="42.364899" lon="-4.886014">
        <ele>927.3749264851213</ele>
        <time>2022-05-18T14:20:05Z</time>
      </trkpt>
      <trkpt lat="42.364894" lon="-4.886136">
        <ele>927.9175056517124</ele>
        <time>2022-05-18T14:20:13Z</time>
      </trkpt>
      <trkpt lat="42.364863" lon="-4.886264">
        <ele>928.9162658322603</ele>
        <time>2022-05-18T14:20:20Z</time>
      </trkpt>
      <trkpt lat="42.364836" lon="-4.886409">
        <ele>929.4292249446735</ele>
        <time>2022-05-18T14:20:30Z</time>
      </trkpt>
      <trkpt lat="42.364828" lon="-4.886544">
        <ele>930.3357450580224</ele>
        <time>2022-05-18T14:20:40Z</time>
      </trkpt>
      <trkpt lat="42.364796" lon="-4.886685">
        <ele>930.5641793161631</ele>
        <time>2022-05-18T14:20:50Z</time>
      </trkpt>
      <trkpt lat="42.364784" lon="-4.886815">
        <ele>930.0441329013556</ele>
        <time>2022-05-18T14:20:58Z</time>
      </trkpt>
      <trkpt lat="42.364777" lon="-4.886947">
        <ele>929.0639852965251</ele>
        <time>2022-05-18T14:21:08Z</time>
      </trkpt>
      <trkpt lat="42.364766" lon="-4.887074">
        <ele>927.5268313735723</ele>
        <time>2022-05-18T14:21:48Z</time>
      </trkpt>
      <trkpt lat="42.364771" lon="-4.8872">
        <ele>927.3140958389267</ele>
        <time>2022-05-18T14:22:00Z</time>
      </trkpt>
      <trkpt lat="42.364774" lon="-4.887332">
        <ele>926.9659439269453</ele>
        <time>2022-05-18T14:22:09Z</time>
      </trkpt>
      <trkpt lat="42.364796" lon="-4.887461">
        <ele>926.6706309709698</ele>
        <time>2022-05-18T14:22:18Z</time>
      </trkpt>
      <trkpt lat="42.364785" lon="-4.887592">
        <ele>926.1860954910517</ele>
        <time>2022-05-18T14:22:29Z</time>
      </trkpt>
      <trkpt lat="42.364736" lon="-4.887706">
        <ele>925.1122745126486</ele>
        <time>2022-05-18T14:22:38Z</time>
      </trkpt>
      <trkpt lat="42.364681" lon="-4.887812">
        <ele>926.0448879981413</ele>
        <time>2022-05-18T14:22:46Z</time>
      </trkpt>
      <trkpt lat="42.364626" lon="-4.887911">
        <ele>926.289569279179</ele>
        <time>2022-05-18T14:22:54Z</time>
      </trkpt>
      <trkpt lat="42.364571" lon="-4.888011">
        <ele>926.5861219028011</ele>
        <time>2022-05-18T14:23:00Z</time>
      </trkpt>
      <trkpt lat="42.364515" lon="-4.888108">
        <ele>927.4514747476205</ele>
        <time>2022-05-18T14:23:09Z</time>
      </trkpt>
      <trkpt lat="42.364467" lon="-4.888213">
        <ele>927.911593764089</ele>
        <time>2022-05-18T14:23:17Z</time>
      </trkpt>
      <trkpt lat="42.364437" lon="-4.88834">
        <ele>926.9323004549369</ele>
        <time>2022-05-18T14:23:27Z</time>
      </trkpt>
      <trkpt lat="42.3644" lon="-4.888461">
        <ele>925.9697891985998</ele>
        <time>2022-05-18T14:23:36Z</time>
      </trkpt>
      <trkpt lat="42.364385" lon="-4.888588">
        <ele>924.7531946534291</ele>
        <time>2022-05-18T14:23:44Z</time>
      </trkpt>
      <trkpt lat="42.364359" lon="-4.888711">
        <ele>923.4588093599305</ele>
        <time>2022-05-18T14:23:53Z</time>
      </trkpt>
      <trkpt lat="42.364333" lon="-4.888827">
        <ele>921.9443061556667</ele>
        <time>2022-05-18T14:24:02Z</time>
      </trkpt>
      <trkpt lat="42.364307" lon="-4.888956">
        <ele>920.8088890397921</ele>
        <time>2022-05-18T14:24:12Z</time>
      </trkpt>
      <trkpt lat="42.364296" lon="-4.889077">
        <ele>924.68023834005</ele>
        <time>2022-05-18T14:24:24Z</time>
      </trkpt>
      <trkpt lat="42.364216" lon="-4.889156">
        <ele>925.4096552515402</ele>
        <time>2022-05-18T14:24:32Z</time>
      </trkpt>
      <trkpt lat="42.364131" lon="-4.889239">
        <ele>925.3664019564167</ele>
        <time>2022-05-18T14:24:39Z</time>
      </trkpt>
      <trkpt lat="42.364052" lon="-4.889312">
        <ele>925.4567860271782</ele>
        <time>2022-05-18T14:24:47Z</time>
      </trkpt>
      <trkpt lat="42.363984" lon="-4.889393">
        <ele>924.6550713265315</ele>
        <time>2022-05-18T14:24:53Z</time>
      </trkpt>
      <trkpt lat="42.363903" lon="-4.889448">
        <ele>927.0143269561231</ele>
        <time>2022-05-18T14:25:01Z</time>
      </trkpt>
      <trkpt lat="42.363817" lon="-4.889533">
        <ele>930.4227893333882</ele>
        <time>2022-05-18T14:25:14Z</time>
      </trkpt>
      <trkpt lat="42.363743" lon="-4.889641">
        <ele>928.6510515827686</ele>
        <time>2022-05-18T14:25:24Z</time>
      </trkpt>
      <trkpt lat="42.363676" lon="-4.889732">
        <ele>925.0152714727446</ele>
        <time>2022-05-18T14:25:32Z</time>
      </trkpt>
      <trkpt lat="42.363595" lon="-4.889791">
        <ele>923.279116098769</ele>
        <time>2022-05-18T14:25:40Z</time>
      </trkpt>
      <trkpt lat="42.3635" lon="-4.889827">
        <ele>927.932514205575</ele>
        <time>2022-05-18T14:27:37Z</time>
      </trkpt>
      <trkpt lat="42.363419" lon="-4.889936">
        <ele>929.0865722578019</ele>
        <time>2022-05-18T14:27:44Z</time>
      </trkpt>
      <trkpt lat="42.363377" lon="-4.890059">
        <ele>930.8672105846927</ele>
        <time>2022-05-18T14:27:55Z</time>
      </trkpt>
      <trkpt lat="42.363299" lon="-4.89012">
        <ele>930.0792209217325</ele>
        <time>2022-05-18T14:28:03Z</time>
      </trkpt>
      <trkpt lat="42.363224" lon="-4.890205">
        <ele>927.7576785869896</ele>
        <time>2022-05-18T14:28:13Z</time>
      </trkpt>
      <trkpt lat="42.363159" lon="-4.89029">
        <ele>926.1141443485394</ele>
        <time>2022-05-18T14:28:27Z</time>
      </trkpt>
      <trkpt lat="42.363069" lon="-4.890299">
        <ele>923.3013511188328</ele>
        <time>2022-05-18T14:28:35Z</time>
      </trkpt>
      <trkpt lat="42.362965" lon="-4.890274">
        <ele>919.8135623401031</ele>
        <time>2022-05-18T14:28:43Z</time>
      </trkpt>
      <trkpt lat="42.362875" lon="-4.890312">
        <ele>917.7139420565218</ele>
        <time>2022-05-18T14:28:49Z</time>
      </trkpt>
      <trkpt lat="42.362775" lon="-4.890294">
        <ele>917.911624387838</ele>
        <time>2022-05-18T14:28:56Z</time>
      </trkpt>
      <trkpt lat="42.36268" lon="-4.890299">
        <ele>917.3468836424872</ele>
        <time>2022-05-18T14:29:04Z</time>
      </trkpt>
      <trkpt lat="42.362639" lon="-4.890409">
        <ele>917.3115231152624</ele>
        <time>2022-05-18T14:29:30Z</time>
      </trkpt>
      <trkpt lat="42.362669" lon="-4.890532">
        <ele>918.8765986310318</ele>
        <time>2022-05-18T14:32:33Z</time>
      </trkpt>
      <trkpt lat="42.362682" lon="-4.890653">
        <ele>916.2811519885436</ele>
        <time>2022-05-18T14:35:55Z</time>
      </trkpt>
      <trkpt lat="42.36267" lon="-4.890522">
        <ele>917.6002959338948</ele>
        <time>2022-05-18T14:37:27Z</time>
      </trkpt>
      <trkpt lat="42.362692" lon="-4.890395">
        <ele>921.5616653887555</ele>
        <time>2022-05-18T14:38:44Z</time>
      </trkpt>
      <trkpt lat="42.362768" lon="-4.890323">
        <ele>921.9915168927982</ele>
        <time>2022-05-18T14:38:54Z</time>
      </trkpt>
      <trkpt lat="42.362842" lon="-4.890237">
        <ele>921.8758963709697</ele>
        <time>2022-05-18T14:39:03Z</time>
      </trkpt>
      <trkpt lat="42.362768" lon="-4.890317">
        <ele>920.041610557586</ele>
        <time>2022-05-18T14:39:13Z</time>
      </trkpt>
      <trkpt lat="42.362802" lon="-4.890438">
        <ele>922.9539965139702</ele>
        <time>2022-05-18T14:40:56Z</time>
      </trkpt>
      <trkpt lat="42.362066" lon="-4.890515">
        <ele>938.7289842572063</ele>
        <time>2022-05-19T07:49:08Z</time>
      </trkpt>
      <trkpt lat="42.362192" lon="-4.890774">
        <ele>844.1303664427251</ele>
        <time>2022-05-19T07:49:09Z</time>
      </trkpt>
      <trkpt lat="42.362074" lon="-4.890584">
        <ele>943.0468179350719</ele>
        <time>2022-05-19T07:49:10Z</time>
      </trkpt>
      <trkpt lat="42.362163" lon="-4.890799">
        <ele>941.2859220942482</ele>
        <time>2022-05-19T07:49:13Z</time>
      </trkpt>
      <trkpt lat="42.362163" lon="-4.890799">
        <ele>941.2859220942482</ele>
        <time>2022-05-19T07:49:14Z</time>
      </trkpt>
      <trkpt lat="42.362082" lon="-4.890873">
        <ele>934.7103205434978</ele>
        <time>2022-05-19T07:49:16Z</time>
      </trkpt>
      <trkpt lat="42.362081" lon="-4.891001">
        <ele>940.6908855857328</ele>
        <time>2022-05-19T07:49:27Z</time>
      </trkpt>
      <trkpt lat="42.362061" lon="-4.891122">
        <ele>930.5625909399241</ele>
        <time>2022-05-19T07:49:38Z</time>
      </trkpt>
      <trkpt lat="42.362156" lon="-4.891164">
        <ele>921.8699765829369</ele>
        <time>2022-05-19T07:49:55Z</time>
      </trkpt>
      <trkpt lat="42.362238" lon="-4.891224">
        <ele>916.2790191723034</ele>
        <time>2022-05-19T07:50:04Z</time>
      </trkpt>
      <trkpt lat="42.362296" lon="-4.891328">
        <ele>912.0011373599991</ele>
        <time>2022-05-19T07:50:14Z</time>
      </trkpt>
      <trkpt lat="42.362331" lon="-4.891447">
        <ele>905.8923935014755</ele>
        <time>2022-05-19T07:50:21Z</time>
      </trkpt>
      <trkpt lat="42.362339" lon="-4.891575">
        <ele>901.1863271286711</ele>
        <time>2022-05-19T07:50:29Z</time>
      </trkpt>
      <trkpt lat="42.362329" lon="-4.891701">
        <ele>899.7673392314464</ele>
        <time>2022-05-19T07:50:38Z</time>
      </trkpt>
      <trkpt lat="42.362311" lon="-4.891835">
        <ele>900.1839971337467</ele>
        <time>2022-05-19T07:50:49Z</time>
      </trkpt>
      <trkpt lat="42.362301" lon="-4.891961">
        <ele>898.7001187801361</ele>
        <time>2022-05-19T07:50:57Z</time>
      </trkpt>
      <trkpt lat="42.362258" lon="-4.892096">
        <ele>896.1393321705982</ele>
        <time>2022-05-19T07:51:07Z</time>
      </trkpt>
      <trkpt lat="42.362219" lon="-4.89221">
        <ele>895.0745756095275</ele>
        <time>2022-05-19T07:51:14Z</time>
      </trkpt>
      <trkpt lat="42.362188" lon="-4.89234">
        <ele>895.5102605782449</ele>
        <time>2022-05-19T07:51:22Z</time>
      </trkpt>
      <trkpt lat="42.362122" lon="-4.892442">
        <ele>894.8921236470342</ele>
        <time>2022-05-19T07:51:29Z</time>
      </trkpt>
      <trkpt lat="42.362071" lon="-4.892556">
        <ele>893.7461865842342</ele>
        <time>2022-05-19T07:51:36Z</time>
      </trkpt>
      <trkpt lat="42.362057" lon="-4.892677">
        <ele>888.4105440452695</ele>
        <time>2022-05-19T07:52:39Z</time>
      </trkpt>
      <trkpt lat="42.362013" lon="-4.89279">
        <ele>887.0326052298769</ele>
        <time>2022-05-19T07:52:45Z</time>
      </trkpt>
      <trkpt lat="42.361957" lon="-4.892907">
        <ele>884.7457427736372</ele>
        <time>2022-05-19T07:52:53Z</time>
      </trkpt>
      <trkpt lat="42.3619" lon="-4.893018">
        <ele>882.6524775633588</ele>
        <time>2022-05-19T07:52:59Z</time>
      </trkpt>
      <trkpt lat="42.361861" lon="-4.893134">
        <ele>880.7062528245151</ele>
        <time>2022-05-19T07:53:06Z</time>
      </trkpt>
      <trkpt lat="42.361812" lon="-4.893248">
        <ele>880.0986017156392</ele>
        <time>2022-05-19T07:53:12Z</time>
      </trkpt>
      <trkpt lat="42.361749" lon="-4.893379">
        <ele>878.147331555374</ele>
        <time>2022-05-19T07:53:21Z</time>
      </trkpt>
      <trkpt lat="42.361696" lon="-4.89349">
        <ele>875.251519751735</ele>
        <time>2022-05-19T07:53:29Z</time>
      </trkpt>
      <trkpt lat="42.361658" lon="-4.893621">
        <ele>873.9229676499963</ele>
        <time>2022-05-19T07:53:38Z</time>
      </trkpt>
      <trkpt lat="42.361606" lon="-4.893742">
        <ele>872.6097436267883</ele>
        <time>2022-05-19T07:53:46Z</time>
      </trkpt>
      <trkpt lat="42.361558" lon="-4.893857">
        <ele>869.560548572801</ele>
        <time>2022-05-19T07:53:54Z</time>
      </trkpt>
      <trkpt lat="42.361526" lon="-4.893975">
        <ele>868.5264377035201</ele>
        <time>2022-05-19T07:54:02Z</time>
      </trkpt>
      <trkpt lat="42.361458" lon="-4.894077">
        <ele>869.5243243081495</ele>
        <time>2022-05-19T07:54:11Z</time>
      </trkpt>
      <trkpt lat="42.361421" lon="-4.894189">
        <ele>868.734728526324</ele>
        <time>2022-05-19T07:54:19Z</time>
      </trkpt>
      <trkpt lat="42.361374" lon="-4.894295">
        <ele>865.3988760253415</ele>
        <time>2022-05-19T07:54:29Z</time>
      </trkpt>
      <trkpt lat="42.361349" lon="-4.894424">
        <ele>862.8535529812798</ele>
        <time>2022-05-19T07:54:38Z</time>
      </trkpt>
      <trkpt lat="42.361295" lon="-4.89453">
        <ele>860.9242654107511</ele>
        <time>2022-05-19T07:54:47Z</time>
      </trkpt>
      <trkpt lat="42.361252" lon="-4.89465">
        <ele>857.4783433843404</ele>
        <time>2022-05-19T07:54:55Z</time>
      </trkpt>
      <trkpt lat="42.361192" lon="-4.894752">
        <ele>855.1855656495318</ele>
        <time>2022-05-19T07:55:05Z</time>
      </trkpt>
      <trkpt lat="42.361143" lon="-4.89486">
        <ele>854.8393600909039</ele>
        <time>2022-05-19T07:55:13Z</time>
      </trkpt>
      <trkpt lat="42.361076" lon="-4.89496">
        <ele>855.2058178624138</ele>
        <time>2022-05-19T07:55:22Z</time>
      </trkpt>
      <trkpt lat="42.361031" lon="-4.895073">
        <ele>856.2893610708416</ele>
        <time>2022-05-19T07:55:29Z</time>
      </trkpt>
      <trkpt lat="42.360982" lon="-4.895183">
        <ele>856.5478252787143</ele>
        <time>2022-05-19T07:55:38Z</time>
      </trkpt>
      <trkpt lat="42.36093" lon="-4.895283">
        <ele>857.2195335133001</ele>
        <time>2022-05-19T07:55:45Z</time>
      </trkpt>
      <trkpt lat="42.360894" lon="-4.895396">
        <ele>859.0933319218457</ele>
        <time>2022-05-19T07:55:55Z</time>
      </trkpt>
      <trkpt lat="42.360862" lon="-4.895519">
        <ele>860.0279203169048</ele>
        <time>2022-05-19T07:56:02Z</time>
      </trkpt>
      <trkpt lat="42.360847" lon="-4.895645">
        <ele>859.4593684636056</ele>
        <time>2022-05-19T07:56:09Z</time>
      </trkpt>
      <trkpt lat="42.360813" lon="-4.895765">
        <ele>857.3153753960505</ele>
        <time>2022-05-19T07:56:18Z</time>
      </trkpt>
      <trkpt lat="42.360793" lon="-4.895889">
        <ele>856.381368917413</ele>
        <time>2022-05-19T07:56:25Z</time>
      </trkpt>
      <trkpt lat="42.36076" lon="-4.896009">
        <ele>856.540077871643</ele>
        <time>2022-05-19T07:56:32Z</time>
      </trkpt>
      <trkpt lat="42.360746" lon="-4.896134">
        <ele>855.0100044952706</ele>
        <time>2022-05-19T07:56:39Z</time>
      </trkpt>
      <trkpt lat="42.360723" lon="-4.896282">
        <ele>853.2686488991603</ele>
        <time>2022-05-19T07:56:47Z</time>
      </trkpt>
      <trkpt lat="42.360691" lon="-4.896419">
        <ele>851.3878388842568</ele>
        <time>2022-05-19T07:56:57Z</time>
      </trkpt>
      <trkpt lat="42.360661" lon="-4.896534">
        <ele>852.2060103937984</ele>
        <time>2022-05-19T07:57:05Z</time>
      </trkpt>
      <trkpt lat="42.360645" lon="-4.896664">
        <ele>851.458908572793</ele>
        <time>2022-05-19T07:57:12Z</time>
      </trkpt>
      <trkpt lat="42.360636" lon="-4.896789">
        <ele>850.0526658650488</ele>
        <time>2022-05-19T07:57:20Z</time>
      </trkpt>
      <trkpt lat="42.360608" lon="-4.89691">
        <ele>851.3632750101388</ele>
        <time>2022-05-19T07:57:29Z</time>
      </trkpt>
      <trkpt lat="42.360585" lon="-4.897033">
        <ele>852.7305606892332</ele>
        <time>2022-05-19T07:57:36Z</time>
      </trkpt>
      <trkpt lat="42.360571" lon="-4.897156">
        <ele>852.7419374389574</ele>
        <time>2022-05-19T07:57:44Z</time>
      </trkpt>
      <trkpt lat="42.360547" lon="-4.89728">
        <ele>852.4269671933725</ele>
        <time>2022-05-19T07:57:51Z</time>
      </trkpt>
      <trkpt lat="42.360513" lon="-4.89741">
        <ele>854.1673157988116</ele>
        <time>2022-05-19T07:58:01Z</time>
      </trkpt>
      <trkpt lat="42.360497" lon="-4.897543">
        <ele>852.3457950772718</ele>
        <time>2022-05-19T07:58:08Z</time>
      </trkpt>
      <trkpt lat="42.360474" lon="-4.897671">
        <ele>850.34527878277</ele>
        <time>2022-05-19T07:58:16Z</time>
      </trkpt>
      <trkpt lat="42.360446" lon="-4.897791">
        <ele>851.2349479300901</ele>
        <time>2022-05-19T07:58:26Z</time>
      </trkpt>
      <trkpt lat="42.36043" lon="-4.897923">
        <ele>851.3605906339362</ele>
        <time>2022-05-19T07:58:33Z</time>
      </trkpt>
      <trkpt lat="42.360411" lon="-4.898057">
        <ele>851.121473451145</ele>
        <time>2022-05-19T07:58:41Z</time>
      </trkpt>
      <trkpt lat="42.360394" lon="-4.898185">
        <ele>849.2821579342708</ele>
        <time>2022-05-19T07:58:49Z</time>
      </trkpt>
      <trkpt lat="42.360374" lon="-4.898315">
        <ele>850.7912207068875</ele>
        <time>2022-05-19T07:58:58Z</time>
      </trkpt>
      <trkpt lat="42.360363" lon="-4.898448">
        <ele>851.6655758814886</ele>
        <time>2022-05-19T07:59:05Z</time>
      </trkpt>
      <trkpt lat="42.360372" lon="-4.898584">
        <ele>852.5067259063944</ele>
        <time>2022-05-19T07:59:11Z</time>
      </trkpt>
      <trkpt lat="42.360372" lon="-4.898717">
        <ele>851.9873409336433</ele>
        <time>2022-05-19T07:59:19Z</time>
      </trkpt>
      <trkpt lat="42.360366" lon="-4.898852">
        <ele>852.9869999438524</ele>
        <time>2022-05-19T07:59:28Z</time>
      </trkpt>
      <trkpt lat="42.360367" lon="-4.898981">
        <ele>854.1488848133013</ele>
        <time>2022-05-19T07:59:36Z</time>
      </trkpt>
      <trkpt lat="42.360364" lon="-4.899105">
        <ele>854.597488483414</ele>
        <time>2022-05-19T07:59:44Z</time>
      </trkpt>
      <trkpt lat="42.360358" lon="-4.899232">
        <ele>854.9731878945604</ele>
        <time>2022-05-19T07:59:51Z</time>
      </trkpt>
      <trkpt lat="42.360358" lon="-4.899365">
        <ele>854.0187836233526</ele>
        <time>2022-05-19T07:59:58Z</time>
      </trkpt>
      <trkpt lat="42.360355" lon="-4.899501">
        <ele>852.5833327230066</ele>
        <time>2022-05-19T08:00:05Z</time>
      </trkpt>
      <trkpt lat="42.36034" lon="-4.89963">
        <ele>854.0960502633825</ele>
        <time>2022-05-19T08:00:15Z</time>
      </trkpt>
      <trkpt lat="42.360326" lon="-4.899758">
        <ele>853.0519963046536</ele>
        <time>2022-05-19T08:00:23Z</time>
      </trkpt>
      <trkpt lat="42.360309" lon="-4.899884">
        <ele>852.5681502018124</ele>
        <time>2022-05-19T08:00:30Z</time>
      </trkpt>
      <trkpt lat="42.3603" lon="-4.900005">
        <ele>853.581613637507</ele>
        <time>2022-05-19T08:00:39Z</time>
      </trkpt>
      <trkpt lat="42.360259" lon="-4.90013">
        <ele>853.2485845061019</ele>
        <time>2022-05-19T08:00:47Z</time>
      </trkpt>
      <trkpt lat="42.360229" lon="-4.900246">
        <ele>852.2356871040538</ele>
        <time>2022-05-19T08:00:55Z</time>
      </trkpt>
      <trkpt lat="42.36022" lon="-4.90037">
        <ele>849.4171637548134</ele>
        <time>2022-05-19T08:01:02Z</time>
      </trkpt>
      <trkpt lat="42.360183" lon="-4.9005">
        <ele>850.3897419273853</ele>
        <time>2022-05-19T08:01:12Z</time>
      </trkpt>
      <trkpt lat="42.360157" lon="-4.900628">
        <ele>850.254597180523</ele>
        <time>2022-05-19T08:01:21Z</time>
      </trkpt>
      <trkpt lat="42.36014" lon="-4.900749">
        <ele>850.2379827667028</ele>
        <time>2022-05-19T08:01:27Z</time>
      </trkpt>
      <trkpt lat="42.360106" lon="-4.900881">
        <ele>854.4614172261208</ele>
        <time>2022-05-19T08:01:37Z</time>
      </trkpt>
      <trkpt lat="42.360084" lon="-4.901004">
        <ele>856.4627311388031</ele>
        <time>2022-05-19T08:01:45Z</time>
      </trkpt>
      <trkpt lat="42.360075" lon="-4.901133">
        <ele>856.2262468189001</ele>
        <time>2022-05-19T08:01:52Z</time>
      </trkpt>
      <trkpt lat="42.360076" lon="-4.901267">
        <ele>857.2221354972571</ele>
        <time>2022-05-19T08:02:01Z</time>
      </trkpt>
      <trkpt lat="42.360062" lon="-4.901403">
        <ele>858.332067460753</ele>
        <time>2022-05-19T08:02:09Z</time>
      </trkpt>
      <trkpt lat="42.360049" lon="-4.901531">
        <ele>860.1349435737357</ele>
        <time>2022-05-19T08:02:17Z</time>
      </trkpt>
      <trkpt lat="42.360046" lon="-4.901663">
        <ele>860.3961182245985</ele>
        <time>2022-05-19T08:02:26Z</time>
      </trkpt>
      <trkpt lat="42.36006" lon="-4.901792">
        <ele>861.2581266462803</ele>
        <time>2022-05-19T08:02:32Z</time>
      </trkpt>
      <trkpt lat="42.360069" lon="-4.901924">
        <ele>860.4269651463255</ele>
        <time>2022-05-19T08:02:39Z</time>
      </trkpt>
      <trkpt lat="42.360083" lon="-4.902055">
        <ele>861.6676659844816</ele>
        <time>2022-05-19T08:02:47Z</time>
      </trkpt>
      <trkpt lat="42.360079" lon="-4.902179">
        <ele>861.4064778666943</ele>
        <time>2022-05-19T08:02:55Z</time>
      </trkpt>
      <trkpt lat="42.36008" lon="-4.902306">
        <ele>860.5310676442459</ele>
        <time>2022-05-19T08:03:02Z</time>
      </trkpt>
      <trkpt lat="42.360079" lon="-4.902438">
        <ele>860.7274910314009</ele>
        <time>2022-05-19T08:03:11Z</time>
      </trkpt>
      <trkpt lat="42.360094" lon="-4.902574">
        <ele>859.1011580983177</ele>
        <time>2022-05-19T08:03:19Z</time>
      </trkpt>
      <trkpt lat="42.360118" lon="-4.902716">
        <ele>859.0853739213198</ele>
        <time>2022-05-19T08:03:29Z</time>
      </trkpt>
      <trkpt lat="42.360139" lon="-4.902835">
        <ele>858.5139231625944</ele>
        <time>2022-05-19T08:03:36Z</time>
      </trkpt>
      <trkpt lat="42.360179" lon="-4.902956">
        <ele>857.8417318286374</ele>
        <time>2022-05-19T08:03:44Z</time>
      </trkpt>
      <trkpt lat="42.360216" lon="-4.903068">
        <ele>857.7928600190207</ele>
        <time>2022-05-19T08:03:52Z</time>
      </trkpt>
      <trkpt lat="42.360249" lon="-4.903184">
        <ele>859.0556175252423</ele>
        <time>2022-05-19T08:04:02Z</time>
      </trkpt>
      <trkpt lat="42.360288" lon="-4.903302">
        <ele>858.8519475040957</ele>
        <time>2022-05-19T08:04:12Z</time>
      </trkpt>
      <trkpt lat="42.360323" lon="-4.903421">
        <ele>858.077384901233</ele>
        <time>2022-05-19T08:04:21Z</time>
      </trkpt>
      <trkpt lat="42.360365" lon="-4.90354">
        <ele>858.4223501468077</ele>
        <time>2022-05-19T08:04:31Z</time>
      </trkpt>
      <trkpt lat="42.360401" lon="-4.903666">
        <ele>858.5866135740653</ele>
        <time>2022-05-19T08:04:38Z</time>
      </trkpt>
      <trkpt lat="42.360436" lon="-4.903786">
        <ele>857.7662978796288</ele>
        <time>2022-05-19T08:04:47Z</time>
      </trkpt>
      <trkpt lat="42.360453" lon="-4.903912">
        <ele>856.054174839519</ele>
        <time>2022-05-19T08:04:55Z</time>
      </trkpt>
      <trkpt lat="42.360488" lon="-4.904038">
        <ele>855.5445316107944</ele>
        <time>2022-05-19T08:05:03Z</time>
      </trkpt>
      <trkpt lat="42.360529" lon="-4.904147">
        <ele>855.0799506343901</ele>
        <time>2022-05-19T08:05:12Z</time>
      </trkpt>
      <trkpt lat="42.360567" lon="-4.904259">
        <ele>853.2782934969291</ele>
        <time>2022-05-19T08:05:18Z</time>
      </trkpt>
      <trkpt lat="42.360632" lon="-4.904356">
        <ele>851.2379388380796</ele>
        <time>2022-05-19T08:05:23Z</time>
      </trkpt>
      <trkpt lat="42.360696" lon="-4.90446">
        <ele>850.454111433588</ele>
        <time>2022-05-19T08:05:31Z</time>
      </trkpt>
      <trkpt lat="42.360731" lon="-4.904579">
        <ele>851.4173883376643</ele>
        <time>2022-05-19T08:05:40Z</time>
      </trkpt>
      <trkpt lat="42.360802" lon="-4.904681">
        <ele>850.3646467244253</ele>
        <time>2022-05-19T08:05:47Z</time>
      </trkpt>
      <trkpt lat="42.360857" lon="-4.904797">
        <ele>849.684077125974</ele>
        <time>2022-05-19T08:05:57Z</time>
      </trkpt>
      <trkpt lat="42.360911" lon="-4.904903">
        <ele>850.1490551643074</ele>
        <time>2022-05-19T08:06:03Z</time>
      </trkpt>
      <trkpt lat="42.360966" lon="-4.905004">
        <ele>848.2811869466677</ele>
        <time>2022-05-19T08:06:12Z</time>
      </trkpt>
      <trkpt lat="42.360998" lon="-4.905134">
        <ele>846.7582431873307</ele>
        <time>2022-05-19T08:06:20Z</time>
      </trkpt>
      <trkpt lat="42.361063" lon="-4.905257">
        <ele>846.0984250083566</ele>
        <time>2022-05-19T08:06:30Z</time>
      </trkpt>
      <trkpt lat="42.361127" lon="-4.905355">
        <ele>844.6152754370123</ele>
        <time>2022-05-19T08:06:37Z</time>
      </trkpt>
      <trkpt lat="42.361127" lon="-4.905482">
        <ele>846.8326605493203</ele>
        <time>2022-05-19T08:06:47Z</time>
      </trkpt>
      <trkpt lat="42.361069" lon="-4.90559">
        <ele>847.3306330349296</ele>
        <time>2022-05-19T08:06:55Z</time>
      </trkpt>
      <trkpt lat="42.361013" lon="-4.90571">
        <ele>847.4814547458664</ele>
        <time>2022-05-19T08:07:02Z</time>
      </trkpt>
      <trkpt lat="42.360983" lon="-4.905831">
        <ele>844.7759365895763</ele>
        <time>2022-05-19T08:07:08Z</time>
      </trkpt>
      <trkpt lat="42.360941" lon="-4.90594">
        <ele>843.1332359667867</ele>
        <time>2022-05-19T08:07:16Z</time>
      </trkpt>
      <trkpt lat="42.360894" lon="-4.906048">
        <ele>841.2572350166738</ele>
        <time>2022-05-19T08:07:25Z</time>
      </trkpt>
      <trkpt lat="42.360842" lon="-4.906166">
        <ele>840.758780409582</ele>
        <time>2022-05-19T08:07:32Z</time>
      </trkpt>
      <trkpt lat="42.360813" lon="-4.906292">
        <ele>839.5276905428618</ele>
        <time>2022-05-19T08:07:39Z</time>
      </trkpt>
      <trkpt lat="42.360781" lon="-4.906407">
        <ele>838.9278801381588</ele>
        <time>2022-05-19T08:07:46Z</time>
      </trkpt>
      <trkpt lat="42.360733" lon="-4.906518">
        <ele>838.43201371748</ele>
        <time>2022-05-19T08:07:54Z</time>
      </trkpt>
      <trkpt lat="42.360698" lon="-4.906638">
        <ele>837.0067871399224</ele>
        <time>2022-05-19T08:08:02Z</time>
      </trkpt>
      <trkpt lat="42.360635" lon="-4.906744">
        <ele>836.7445517946035</ele>
        <time>2022-05-19T08:08:11Z</time>
      </trkpt>
      <trkpt lat="42.360586" lon="-4.906859">
        <ele>835.35705102887</ele>
        <time>2022-05-19T08:08:18Z</time>
      </trkpt>
      <trkpt lat="42.360531" lon="-4.906956">
        <ele>834.2283554617316</ele>
        <time>2022-05-19T08:08:27Z</time>
      </trkpt>
      <trkpt lat="42.360466" lon="-4.907056">
        <ele>833.2436669571325</ele>
        <time>2022-05-19T08:08:37Z</time>
      </trkpt>
      <trkpt lat="42.360425" lon="-4.907171">
        <ele>833.0003500822932</ele>
        <time>2022-05-19T08:08:44Z</time>
      </trkpt>
      <trkpt lat="42.360385" lon="-4.907285">
        <ele>832.1113614002243</ele>
        <time>2022-05-19T08:08:51Z</time>
      </trkpt>
      <trkpt lat="42.36033" lon="-4.907398">
        <ele>833.3399308659136</ele>
        <time>2022-05-19T08:09:00Z</time>
      </trkpt>
      <trkpt lat="42.360276" lon="-4.907513">
        <ele>835.1283709639683</ele>
        <time>2022-05-19T08:09:07Z</time>
      </trkpt>
      <trkpt lat="42.360222" lon="-4.907621">
        <ele>837.1006553396583</ele>
        <time>2022-05-19T08:09:15Z</time>
      </trkpt>
      <trkpt lat="42.360171" lon="-4.907736">
        <ele>837.8211969360709</ele>
        <time>2022-05-19T08:09:23Z</time>
      </trkpt>
      <trkpt lat="42.360125" lon="-4.907852">
        <ele>838.0256348159164</ele>
        <time>2022-05-19T08:09:33Z</time>
      </trkpt>
      <trkpt lat="42.360077" lon="-4.907962">
        <ele>837.2565770456567</ele>
        <time>2022-05-19T08:09:40Z</time>
      </trkpt>
      <trkpt lat="42.360024" lon="-4.908087">
        <ele>838.7025962108746</ele>
        <time>2022-05-19T08:09:48Z</time>
      </trkpt>
      <trkpt lat="42.359979" lon="-4.908195">
        <ele>837.8543580211699</ele>
        <time>2022-05-19T08:09:54Z</time>
      </trkpt>
      <trkpt lat="42.35993" lon="-4.908306">
        <ele>838.0099533032626</ele>
        <time>2022-05-19T08:10:03Z</time>
      </trkpt>
      <trkpt lat="42.359879" lon="-4.908419">
        <ele>840.1675713220611</ele>
        <time>2022-05-19T08:10:14Z</time>
      </trkpt>
      <trkpt lat="42.359828" lon="-4.908534">
        <ele>840.1844032462686</ele>
        <time>2022-05-19T08:10:22Z</time>
      </trkpt>
      <trkpt lat="42.359771" lon="-4.908642">
        <ele>840.1034374786541</ele>
        <time>2022-05-19T08:10:31Z</time>
      </trkpt>
      <trkpt lat="42.359708" lon="-4.908744">
        <ele>840.8072367869318</ele>
        <time>2022-05-19T08:10:39Z</time>
      </trkpt>
      <trkpt lat="42.359651" lon="-4.908855">
        <ele>841.4010486397892</ele>
        <time>2022-05-19T08:10:47Z</time>
      </trkpt>
      <trkpt lat="42.359597" lon="-4.908964">
        <ele>842.034830769524</ele>
        <time>2022-05-19T08:10:55Z</time>
      </trkpt>
      <trkpt lat="42.359538" lon="-4.909066">
        <ele>841.5797957889736</ele>
        <time>2022-05-19T08:11:02Z</time>
      </trkpt>
      <trkpt lat="42.359462" lon="-4.909152">
        <ele>839.9472094820812</ele>
        <time>2022-05-19T08:11:11Z</time>
      </trkpt>
      <trkpt lat="42.359382" lon="-4.909233">
        <ele>836.8833580464125</ele>
        <time>2022-05-19T08:11:21Z</time>
      </trkpt>
      <trkpt lat="42.359311" lon="-4.909315">
        <ele>836.0998418033123</ele>
        <time>2022-05-19T08:11:28Z</time>
      </trkpt>
      <trkpt lat="42.359232" lon="-4.909396">
        <ele>836.2501315539703</ele>
        <time>2022-05-19T08:11:35Z</time>
      </trkpt>
      <trkpt lat="42.359169" lon="-4.909489">
        <ele>835.591106120497</ele>
        <time>2022-05-19T08:11:45Z</time>
      </trkpt>
      <trkpt lat="42.35911" lon="-4.909583">
        <ele>834.3398967674002</ele>
        <time>2022-05-19T08:11:53Z</time>
      </trkpt>
      <trkpt lat="42.359033" lon="-4.909662">
        <ele>833.9164070757106</ele>
        <time>2022-05-19T08:12:01Z</time>
      </trkpt>
      <trkpt lat="42.358994" lon="-4.909779">
        <ele>835.0204412182793</ele>
        <time>2022-05-19T08:12:08Z</time>
      </trkpt>
      <trkpt lat="42.358989" lon="-4.909902">
        <ele>842.0884871929884</ele>
        <time>2022-05-19T08:14:04Z</time>
      </trkpt>
      <trkpt lat="42.35896" lon="-4.910022">
        <ele>846.0715792393312</ele>
        <time>2022-05-19T08:14:14Z</time>
      </trkpt>
      <trkpt lat="42.358973" lon="-4.910154">
        <ele>851.8084480166435</ele>
        <time>2022-05-19T08:14:26Z</time>
      </trkpt>
      <trkpt lat="42.359017" lon="-4.910272">
        <ele>857.4835072876886</ele>
        <time>2022-05-19T08:14:35Z</time>
      </trkpt>
      <trkpt lat="42.359061" lon="-4.910379">
        <ele>861.3420518776402</ele>
        <time>2022-05-19T08:14:43Z</time>
      </trkpt>
      <trkpt lat="42.359101" lon="-4.910492">
        <ele>864.3299246411771</ele>
        <time>2022-05-19T08:14:51Z</time>
      </trkpt>
      <trkpt lat="42.359147" lon="-4.910608">
        <ele>866.1561447549611</ele>
        <time>2022-05-19T08:14:59Z</time>
      </trkpt>
      <trkpt lat="42.359184" lon="-4.910724">
        <ele>869.4173728255555</ele>
        <time>2022-05-19T08:15:08Z</time>
      </trkpt>
      <trkpt lat="42.359223" lon="-4.910848">
        <ele>869.2218696409836</ele>
        <time>2022-05-19T08:15:18Z</time>
      </trkpt>
      <trkpt lat="42.359242" lon="-4.91097">
        <ele>869.9082883857191</ele>
        <time>2022-05-19T08:15:25Z</time>
      </trkpt>
      <trkpt lat="42.359265" lon="-4.911093">
        <ele>869.4898037090898</ele>
        <time>2022-05-19T08:15:33Z</time>
      </trkpt>
      <trkpt lat="42.359297" lon="-4.911211">
        <ele>870.1371227586642</ele>
        <time>2022-05-19T08:15:41Z</time>
      </trkpt>
      <trkpt lat="42.359329" lon="-4.911337">
        <ele>871.7202701913193</ele>
        <time>2022-05-19T08:15:50Z</time>
      </trkpt>
      <trkpt lat="42.359324" lon="-4.911467">
        <ele>872.4695903733373</ele>
        <time>2022-05-19T08:15:58Z</time>
      </trkpt>
      <trkpt lat="42.359297" lon="-4.911588">
        <ele>874.2392613096163</ele>
        <time>2022-05-19T08:16:07Z</time>
      </trkpt>
      <trkpt lat="42.359258" lon="-4.911712">
        <ele>876.611817873083</ele>
        <time>2022-05-19T08:16:16Z</time>
      </trkpt>
      <trkpt lat="42.359248" lon="-4.911839">
        <ele>876.1310588400811</ele>
        <time>2022-05-19T08:16:23Z</time>
      </trkpt>
      <trkpt lat="42.359231" lon="-4.91196">
        <ele>877.5707489084452</ele>
        <time>2022-05-19T08:16:31Z</time>
      </trkpt>
      <trkpt lat="42.359248" lon="-4.912085">
        <ele>876.4198672873899</ele>
        <time>2022-05-19T08:16:40Z</time>
      </trkpt>
      <trkpt lat="42.359248" lon="-4.91222">
        <ele>876.2066027391702</ele>
        <time>2022-05-19T08:16:48Z</time>
      </trkpt>
      <trkpt lat="42.359266" lon="-4.912341">
        <ele>876.5622621569782</ele>
        <time>2022-05-19T08:16:57Z</time>
      </trkpt>
      <trkpt lat="42.359291" lon="-4.912471">
        <ele>876.6242889175192</ele>
        <time>2022-05-19T08:17:03Z</time>
      </trkpt>
      <trkpt lat="42.359299" lon="-4.912594">
        <ele>877.2112968182191</ele>
        <time>2022-05-19T08:17:12Z</time>
      </trkpt>
      <trkpt lat="42.359323" lon="-4.912719">
        <ele>875.8875828823075</ele>
        <time>2022-05-19T08:17:21Z</time>
      </trkpt>
      <trkpt lat="42.359374" lon="-4.912824">
        <ele>874.4005490187556</ele>
        <time>2022-05-19T08:17:28Z</time>
      </trkpt>
      <trkpt lat="42.359421" lon="-4.912949">
        <ele>874.2296860609204</ele>
        <time>2022-05-19T08:17:35Z</time>
      </trkpt>
      <trkpt lat="42.359463" lon="-4.91306">
        <ele>874.9835273334756</ele>
        <time>2022-05-19T08:17:42Z</time>
      </trkpt>
      <trkpt lat="42.359506" lon="-4.913175">
        <ele>877.2670807484537</ele>
        <time>2022-05-19T08:17:48Z</time>
      </trkpt>
      <trkpt lat="42.359545" lon="-4.913304">
        <ele>880.8513311315328</ele>
        <time>2022-05-19T08:17:53Z</time>
      </trkpt>
      <trkpt lat="42.359604" lon="-4.913409">
        <ele>884.4468267234042</ele>
        <time>2022-05-19T08:18:01Z</time>
      </trkpt>
      <trkpt lat="42.359657" lon="-4.913523">
        <ele>887.1145092267543</ele>
        <time>2022-05-19T08:18:08Z</time>
      </trkpt>
      <trkpt lat="42.359699" lon="-4.913634">
        <ele>887.9568294994533</ele>
        <time>2022-05-19T08:18:17Z</time>
      </trkpt>
      <trkpt lat="42.359722" lon="-4.913766">
        <ele>890.5605857521296</ele>
        <time>2022-05-19T08:18:25Z</time>
      </trkpt>
      <trkpt lat="42.359767" lon="-4.913883">
        <ele>890.0354698505253</ele>
        <time>2022-05-19T08:18:37Z</time>
      </trkpt>
      <trkpt lat="42.359789" lon="-4.914004">
        <ele>890.6572992699221</ele>
        <time>2022-05-19T08:18:46Z</time>
      </trkpt>
      <trkpt lat="42.359811" lon="-4.914129">
        <ele>890.9207657920197</ele>
        <time>2022-05-19T08:18:56Z</time>
      </trkpt>
      <trkpt lat="42.359854" lon="-4.914247">
        <ele>888.4217039775103</ele>
        <time>2022-05-19T08:19:04Z</time>
      </trkpt>
      <trkpt lat="42.359894" lon="-4.914368">
        <ele>886.4057373739779</ele>
        <time>2022-05-19T08:19:15Z</time>
      </trkpt>
      <trkpt lat="42.359932" lon="-4.914484">
        <ele>882.4746871022508</ele>
        <time>2022-05-19T08:19:26Z</time>
      </trkpt>
      <trkpt lat="42.359975" lon="-4.914599">
        <ele>881.0061687938869</ele>
        <time>2022-05-19T08:19:36Z</time>
      </trkpt>
      <trkpt lat="42.360002" lon="-4.91472">
        <ele>880.0986250434071</ele>
        <time>2022-05-19T08:19:43Z</time>
      </trkpt>
      <trkpt lat="42.360053" lon="-4.91483">
        <ele>878.6623970950022</ele>
        <time>2022-05-19T08:19:53Z</time>
      </trkpt>
      <trkpt lat="42.360089" lon="-4.914945">
        <ele>876.6184931714088</ele>
        <time>2022-05-19T08:20:02Z</time>
      </trkpt>
      <trkpt lat="42.360133" lon="-4.915068">
        <ele>876.5056536039338</ele>
        <time>2022-05-19T08:20:11Z</time>
      </trkpt>
      <trkpt lat="42.360176" lon="-4.915174">
        <ele>874.6107189562172</ele>
        <time>2022-05-19T08:20:18Z</time>
      </trkpt>
      <trkpt lat="42.360219" lon="-4.915296">
        <ele>873.8432763693854</ele>
        <time>2022-05-19T08:20:28Z</time>
      </trkpt>
      <trkpt lat="42.360255" lon="-4.915416">
        <ele>874.1261141970754</ele>
        <time>2022-05-19T08:20:35Z</time>
      </trkpt>
      <trkpt lat="42.360302" lon="-4.915527">
        <ele>873.0492381388322</ele>
        <time>2022-05-19T08:20:42Z</time>
      </trkpt>
      <trkpt lat="42.360351" lon="-4.915638">
        <ele>874.1534522268921</ele>
        <time>2022-05-19T08:20:50Z</time>
      </trkpt>
      <trkpt lat="42.360415" lon="-4.915736">
        <ele>874.3113034842536</ele>
        <time>2022-05-19T08:20:58Z</time>
      </trkpt>
      <trkpt lat="42.360461" lon="-4.915852">
        <ele>873.7673532664776</ele>
        <time>2022-05-19T08:21:07Z</time>
      </trkpt>
      <trkpt lat="42.3605" lon="-4.915978">
        <ele>874.339747434482</ele>
        <time>2022-05-19T08:21:15Z</time>
      </trkpt>
      <trkpt lat="42.360538" lon="-4.916089">
        <ele>875.5538111077622</ele>
        <time>2022-05-19T08:21:23Z</time>
      </trkpt>
      <trkpt lat="42.360567" lon="-4.916208">
        <ele>877.1012643342838</ele>
        <time>2022-05-19T08:21:31Z</time>
      </trkpt>
      <trkpt lat="42.360597" lon="-4.916338">
        <ele>880.0120761273429</ele>
        <time>2022-05-19T08:21:39Z</time>
      </trkpt>
      <trkpt lat="42.360616" lon="-4.916461">
        <ele>881.2368912510574</ele>
        <time>2022-05-19T08:21:48Z</time>
      </trkpt>
      <trkpt lat="42.36064" lon="-4.916588">
        <ele>881.9740186939016</ele>
        <time>2022-05-19T08:21:57Z</time>
      </trkpt>
      <trkpt lat="42.360675" lon="-4.916713">
        <ele>883.8669940661639</ele>
        <time>2022-05-19T08:22:05Z</time>
      </trkpt>
      <trkpt lat="42.360716" lon="-4.916829">
        <ele>885.3461514543742</ele>
        <time>2022-05-19T08:22:13Z</time>
      </trkpt>
      <trkpt lat="42.360743" lon="-4.91695">
        <ele>886.0723125366494</ele>
        <time>2022-05-19T08:22:22Z</time>
      </trkpt>
      <trkpt lat="42.360764" lon="-4.917082">
        <ele>885.7705340869725</ele>
        <time>2022-05-19T08:22:28Z</time>
      </trkpt>
      <trkpt lat="42.360767" lon="-4.917203">
        <ele>886.0092790247872</ele>
        <time>2022-05-19T08:22:36Z</time>
      </trkpt>
      <trkpt lat="42.360757" lon="-4.917344">
        <ele>887.3746943501756</ele>
        <time>2022-05-19T08:22:43Z</time>
      </trkpt>
      <trkpt lat="42.360769" lon="-4.917474">
        <ele>888.7134567489848</ele>
        <time>2022-05-19T08:22:51Z</time>
      </trkpt>
      <trkpt lat="42.360758" lon="-4.917597">
        <ele>889.9930131928995</ele>
        <time>2022-05-19T08:22:58Z</time>
      </trkpt>
      <trkpt lat="42.360751" lon="-4.917721">
        <ele>890.4396683042869</ele>
        <time>2022-05-19T08:23:08Z</time>
      </trkpt>
      <trkpt lat="42.360728" lon="-4.917844">
        <ele>890.5606359131634</ele>
        <time>2022-05-19T08:23:17Z</time>
      </trkpt>
      <trkpt lat="42.360697" lon="-4.917977">
        <ele>891.8599480148405</ele>
        <time>2022-05-19T08:23:25Z</time>
      </trkpt>
      <trkpt lat="42.36068" lon="-4.918105">
        <ele>890.8803222961724</ele>
        <time>2022-05-19T08:23:33Z</time>
      </trkpt>
      <trkpt lat="42.360672" lon="-4.91824">
        <ele>890.9881496429443</ele>
        <time>2022-05-19T08:23:43Z</time>
      </trkpt>
      <trkpt lat="42.360671" lon="-4.918367">
        <ele>891.9836758859456</ele>
        <time>2022-05-19T08:23:52Z</time>
      </trkpt>
      <trkpt lat="42.360674" lon="-4.918492">
        <ele>892.0092848651111</ele>
        <time>2022-05-19T08:23:58Z</time>
      </trkpt>
      <trkpt lat="42.360669" lon="-4.918615">
        <ele>893.4916844675317</ele>
        <time>2022-05-19T08:24:05Z</time>
      </trkpt>
      <trkpt lat="42.360665" lon="-4.918746">
        <ele>893.5345271229744</ele>
        <time>2022-05-19T08:24:13Z</time>
      </trkpt>
      <trkpt lat="42.360667" lon="-4.918882">
        <ele>893.3526227222756</ele>
        <time>2022-05-19T08:24:22Z</time>
      </trkpt>
      <trkpt lat="42.360665" lon="-4.919015">
        <ele>893.5886105811223</ele>
        <time>2022-05-19T08:24:30Z</time>
      </trkpt>
      <trkpt lat="42.360668" lon="-4.919154">
        <ele>893.9585837395862</ele>
        <time>2022-05-19T08:24:38Z</time>
      </trkpt>
      <trkpt lat="42.36067" lon="-4.91929">
        <ele>895.1854305211455</ele>
        <time>2022-05-19T08:24:47Z</time>
      </trkpt>
      <trkpt lat="42.360672" lon="-4.919424">
        <ele>896.1961457738653</ele>
        <time>2022-05-19T08:24:55Z</time>
      </trkpt>
      <trkpt lat="42.360671" lon="-4.919552">
        <ele>897.4164100922644</ele>
        <time>2022-05-19T08:25:02Z</time>
      </trkpt>
      <trkpt lat="42.360685" lon="-4.919693">
        <ele>897.9484984604642</ele>
        <time>2022-05-19T08:25:13Z</time>
      </trkpt>
      <trkpt lat="42.360674" lon="-4.919821">
        <ele>899.1108390651643</ele>
        <time>2022-05-19T08:25:21Z</time>
      </trkpt>
      <trkpt lat="42.360671" lon="-4.919952">
        <ele>901.0356596391648</ele>
        <time>2022-05-19T08:25:28Z</time>
      </trkpt>
      <trkpt lat="42.36068" lon="-4.920079">
        <ele>900.8601860404015</ele>
        <time>2022-05-19T08:25:37Z</time>
      </trkpt>
      <trkpt lat="42.360684" lon="-4.920217">
        <ele>900.7651592958719</ele>
        <time>2022-05-19T08:25:45Z</time>
      </trkpt>
      <trkpt lat="42.360671" lon="-4.920343">
        <ele>901.4026329144835</ele>
        <time>2022-05-19T08:25:53Z</time>
      </trkpt>
      <trkpt lat="42.36066" lon="-4.920468">
        <ele>901.2822417439893</ele>
        <time>2022-05-19T08:26:03Z</time>
      </trkpt>
      <trkpt lat="42.360665" lon="-4.920595">
        <ele>901.4539389777929</ele>
        <time>2022-05-19T08:26:11Z</time>
      </trkpt>
      <trkpt lat="42.360677" lon="-4.920718">
        <ele>900.6627392657101</ele>
        <time>2022-05-19T08:26:18Z</time>
      </trkpt>
      <trkpt lat="42.360689" lon="-4.920843">
        <ele>900.5725499074906</ele>
        <time>2022-05-19T08:26:27Z</time>
      </trkpt>
      <trkpt lat="42.360699" lon="-4.920977">
        <ele>899.8304496780038</ele>
        <time>2022-05-19T08:26:36Z</time>
      </trkpt>
      <trkpt lat="42.360713" lon="-4.9211">
        <ele>897.9930901825428</ele>
        <time>2022-05-19T08:26:45Z</time>
      </trkpt>
      <trkpt lat="42.360734" lon="-4.921228">
        <ele>896.9038712531328</ele>
        <time>2022-05-19T08:26:55Z</time>
      </trkpt>
      <trkpt lat="42.360765" lon="-4.921349">
        <ele>896.2953503001481</ele>
        <time>2022-05-19T08:27:03Z</time>
      </trkpt>
      <trkpt lat="42.360788" lon="-4.921478">
        <ele>896.8939712531865</ele>
        <time>2022-05-19T08:27:13Z</time>
      </trkpt>
      <trkpt lat="42.360826" lon="-4.921602">
        <ele>895.6900492422283</ele>
        <time>2022-05-19T08:27:22Z</time>
      </trkpt>
      <trkpt lat="42.360861" lon="-4.921729">
        <ele>895.8387963138521</ele>
        <time>2022-05-19T08:27:31Z</time>
      </trkpt>
      <trkpt lat="42.360882" lon="-4.921848">
        <ele>896.7080981275067</ele>
        <time>2022-05-19T08:27:40Z</time>
      </trkpt>
      <trkpt lat="42.36089" lon="-4.92198">
        <ele>895.7837558742613</ele>
        <time>2022-05-19T08:27:48Z</time>
      </trkpt>
      <trkpt lat="42.360898" lon="-4.922102">
        <ele>896.8558968603611</ele>
        <time>2022-05-19T08:27:55Z</time>
      </trkpt>
      <trkpt lat="42.360908" lon="-4.922239">
        <ele>897.9720402630046</ele>
        <time>2022-05-19T08:28:03Z</time>
      </trkpt>
      <trkpt lat="42.360914" lon="-4.922375">
        <ele>898.4580128267407</ele>
        <time>2022-05-19T08:28:11Z</time>
      </trkpt>
      <trkpt lat="42.360917" lon="-4.922513">
        <ele>897.7558256024495</ele>
        <time>2022-05-19T08:28:18Z</time>
      </trkpt>
      <trkpt lat="42.360917" lon="-4.922641">
        <ele>897.8829421047121</ele>
        <time>2022-05-19T08:28:26Z</time>
      </trkpt>
      <trkpt lat="42.360914" lon="-4.922765">
        <ele>897.2063437728211</ele>
        <time>2022-05-19T08:28:33Z</time>
      </trkpt>
      <trkpt lat="42.360913" lon="-4.922896">
        <ele>898.158419618383</ele>
        <time>2022-05-19T08:28:41Z</time>
      </trkpt>
      <trkpt lat="42.360894" lon="-4.923018">
        <ele>897.7595412274823</ele>
        <time>2022-05-19T08:28:48Z</time>
      </trkpt>
      <trkpt lat="42.360877" lon="-4.923141">
        <ele>897.991297679022</ele>
        <time>2022-05-19T08:28:56Z</time>
      </trkpt>
      <trkpt lat="42.360881" lon="-4.923268">
        <ele>899.7865235097706</ele>
        <time>2022-05-19T08:29:03Z</time>
      </trkpt>
      <trkpt lat="42.360876" lon="-4.923404">
        <ele>899.7175579909235</ele>
        <time>2022-05-19T08:29:11Z</time>
      </trkpt>
      <trkpt lat="42.360857" lon="-4.923533">
        <ele>899.8665561694652</ele>
        <time>2022-05-19T08:29:20Z</time>
      </trkpt>
      <trkpt lat="42.360827" lon="-4.923659">
        <ele>899.0071984464303</ele>
        <time>2022-05-19T08:29:27Z</time>
      </trkpt>
      <trkpt lat="42.360803" lon="-4.923786">
        <ele>898.8970273556188</ele>
        <time>2022-05-19T08:29:35Z</time>
      </trkpt>
      <trkpt lat="42.36078" lon="-4.923914">
        <ele>899.3015373023227</ele>
        <time>2022-05-19T08:29:43Z</time>
      </trkpt>
      <trkpt lat="42.360755" lon="-4.924043">
        <ele>899.6562935244292</ele>
        <time>2022-05-19T08:29:51Z</time>
      </trkpt>
      <trkpt lat="42.360745" lon="-4.924168">
        <ele>899.3079700907692</ele>
        <time>2022-05-19T08:29:58Z</time>
      </trkpt>
      <trkpt lat="42.360732" lon="-4.924306">
        <ele>897.3952017929405</ele>
        <time>2022-05-19T08:30:07Z</time>
      </trkpt>
      <trkpt lat="42.36069" lon="-4.924422">
        <ele>897.4683293653652</ele>
        <time>2022-05-19T08:30:15Z</time>
      </trkpt>
      <trkpt lat="42.360652" lon="-4.924538">
        <ele>898.4155435478315</ele>
        <time>2022-05-19T08:30:22Z</time>
      </trkpt>
      <trkpt lat="42.360631" lon="-4.924696">
        <ele>898.2968009458855</ele>
        <time>2022-05-19T08:30:30Z</time>
      </trkpt>
      <trkpt lat="42.360594" lon="-4.924819">
        <ele>898.616052441299</ele>
        <time>2022-05-19T08:30:38Z</time>
      </trkpt>
      <trkpt lat="42.360574" lon="-4.92494">
        <ele>896.5715019190684</ele>
        <time>2022-05-19T08:30:48Z</time>
      </trkpt>
      <trkpt lat="42.360535" lon="-4.925054">
        <ele>896.669769753702</ele>
        <time>2022-05-19T08:30:55Z</time>
      </trkpt>
      <trkpt lat="42.360516" lon="-4.925173">
        <ele>895.4629918402061</ele>
        <time>2022-05-19T08:31:03Z</time>
      </trkpt>
      <trkpt lat="42.360557" lon="-4.925293">
        <ele>894.6468530483544</ele>
        <time>2022-05-19T08:31:12Z</time>
      </trkpt>
      <trkpt lat="42.360627" lon="-4.925383">
        <ele>894.659233527258</ele>
        <time>2022-05-19T08:31:18Z</time>
      </trkpt>
      <trkpt lat="42.36069" lon="-4.925477">
        <ele>892.9098754161969</ele>
        <time>2022-05-19T08:31:28Z</time>
      </trkpt>
      <trkpt lat="42.360782" lon="-4.925473">
        <ele>885.3346669953316</ele>
        <time>2022-05-19T08:32:22Z</time>
      </trkpt>
      <trkpt lat="42.360876" lon="-4.925501">
        <ele>886.1067019579932</ele>
        <time>2022-05-19T08:32:32Z</time>
      </trkpt>
      <trkpt lat="42.3608" lon="-4.925433">
        <ele>884.1660662470385</ele>
        <time>2022-05-19T08:33:20Z</time>
      </trkpt>
      <trkpt lat="42.360734" lon="-4.925338">
        <ele>883.3959917044267</ele>
        <time>2022-05-19T08:33:28Z</time>
      </trkpt>
      <trkpt lat="42.36069" lon="-4.925232">
        <ele>879.1881945114583</ele>
        <time>2022-05-19T08:33:38Z</time>
      </trkpt>
      <trkpt lat="42.360602" lon="-4.92529">
        <ele>876.2084707953036</ele>
        <time>2022-05-19T08:33:48Z</time>
      </trkpt>
      <trkpt lat="42.360567" lon="-4.925412">
        <ele>877.0724844196811</ele>
        <time>2022-05-19T08:33:56Z</time>
      </trkpt>
      <trkpt lat="42.360535" lon="-4.925533">
        <ele>879.1918282043189</ele>
        <time>2022-05-19T08:34:02Z</time>
      </trkpt>
      <trkpt lat="42.3605" lon="-4.925646">
        <ele>881.6760542280972</ele>
        <time>2022-05-19T08:34:11Z</time>
      </trkpt>
      <trkpt lat="42.36046" lon="-4.925772">
        <ele>881.6153492340818</ele>
        <time>2022-05-19T08:34:18Z</time>
      </trkpt>
      <trkpt lat="42.360408" lon="-4.925894">
        <ele>882.6857582041994</ele>
        <time>2022-05-19T08:34:26Z</time>
      </trkpt>
      <trkpt lat="42.360399" lon="-4.926022">
        <ele>883.6455781627446</ele>
        <time>2022-05-19T08:34:32Z</time>
      </trkpt>
      <trkpt lat="42.360391" lon="-4.926152">
        <ele>883.1317354869097</ele>
        <time>2022-05-19T08:34:41Z</time>
      </trkpt>
      <trkpt lat="42.360415" lon="-4.926279">
        <ele>887.2651676870883</ele>
        <time>2022-05-19T08:34:50Z</time>
      </trkpt>
      <trkpt lat="42.360436" lon="-4.926402">
        <ele>890.3432421833277</ele>
        <time>2022-05-19T08:34:57Z</time>
      </trkpt>
      <trkpt lat="42.360435" lon="-4.926526">
        <ele>892.4528104923666</ele>
        <time>2022-05-19T08:35:05Z</time>
      </trkpt>
      <trkpt lat="42.360344" lon="-4.926487">
        <ele>887.8785890918225</ele>
        <time>2022-05-19T08:35:23Z</time>
      </trkpt>
      <trkpt lat="42.360359" lon="-4.926607">
        <ele>880.2297860588878</ele>
        <time>2022-05-19T08:35:35Z</time>
      </trkpt>
      <trkpt lat="42.360436" lon="-4.926677">
        <ele>874.3196922522038</ele>
        <time>2022-05-19T08:35:42Z</time>
      </trkpt>
      <trkpt lat="42.360495" lon="-4.926768">
        <ele>872.9965561032295</ele>
        <time>2022-05-19T08:35:56Z</time>
      </trkpt>
      <trkpt lat="42.360582" lon="-4.926821">
        <ele>872.1419064868242</ele>
        <time>2022-05-19T08:36:05Z</time>
      </trkpt>
      <trkpt lat="42.360679" lon="-4.926774">
        <ele>868.6134900776669</ele>
        <time>2022-05-19T08:36:17Z</time>
      </trkpt>
      <trkpt lat="42.360655" lon="-4.926897">
        <ele>867.5805140538141</ele>
        <time>2022-05-19T08:36:44Z</time>
      </trkpt>
      <trkpt lat="42.360582" lon="-4.92698">
        <ele>869.79187832959</ele>
        <time>2022-05-19T08:39:13Z</time>
      </trkpt>
      <trkpt lat="42.360493" lon="-4.927039">
        <ele>868.7447681613266</ele>
        <time>2022-05-19T08:39:21Z</time>
      </trkpt>
      <trkpt lat="42.360404" lon="-4.927091">
        <ele>863.4402729254216</ele>
        <time>2022-05-19T08:39:30Z</time>
      </trkpt>
      <trkpt lat="42.360326" lon="-4.927158">
        <ele>861.3289513066411</ele>
        <time>2022-05-19T08:39:38Z</time>
      </trkpt>
      <trkpt lat="42.360259" lon="-4.927257">
        <ele>860.053266200237</ele>
        <time>2022-05-19T08:39:45Z</time>
      </trkpt>
      <trkpt lat="42.360197" lon="-4.92736">
        <ele>861.8399112131447</ele>
        <time>2022-05-19T08:39:52Z</time>
      </trkpt>
      <trkpt lat="42.360158" lon="-4.927479">
        <ele>863.484208134003</ele>
        <time>2022-05-19T08:40:01Z</time>
      </trkpt>
      <trkpt lat="42.360118" lon="-4.92759">
        <ele>865.938130618073</ele>
        <time>2022-05-19T08:40:11Z</time>
      </trkpt>
      <trkpt lat="42.360092" lon="-4.927707">
        <ele>867.5150252329186</ele>
        <time>2022-05-19T08:40:20Z</time>
      </trkpt>
      <trkpt lat="42.36007" lon="-4.927829">
        <ele>865.9191854838282</ele>
        <time>2022-05-19T08:40:27Z</time>
      </trkpt>
      <trkpt lat="42.36003" lon="-4.927961">
        <ele>866.4070913605392</ele>
        <time>2022-05-19T08:40:33Z</time>
      </trkpt>
      <trkpt lat="42.360014" lon="-4.928095">
        <ele>867.6766348499805</ele>
        <time>2022-05-19T08:40:42Z</time>
      </trkpt>
      <trkpt lat="42.359999" lon="-4.92822">
        <ele>866.0411447305232</ele>
        <time>2022-05-19T08:40:51Z</time>
      </trkpt>
      <trkpt lat="42.359962" lon="-4.928334">
        <ele>866.8322614766657</ele>
        <time>2022-05-19T08:40:58Z</time>
      </trkpt>
      <trkpt lat="42.359944" lon="-4.928463">
        <ele>866.9487295728177</ele>
        <time>2022-05-19T08:41:06Z</time>
      </trkpt>
      <trkpt lat="42.359911" lon="-4.928578">
        <ele>867.2338580042124</ele>
        <time>2022-05-19T08:41:13Z</time>
      </trkpt>
      <trkpt lat="42.359874" lon="-4.928692">
        <ele>868.2979288538918</ele>
        <time>2022-05-19T08:41:21Z</time>
      </trkpt>
      <trkpt lat="42.359833" lon="-4.928801">
        <ele>867.6480013225228</ele>
        <time>2022-05-19T08:41:28Z</time>
      </trkpt>
      <trkpt lat="42.35979" lon="-4.928921">
        <ele>866.4452666323632</ele>
        <time>2022-05-19T08:41:34Z</time>
      </trkpt>
      <trkpt lat="42.359737" lon="-4.929024">
        <ele>862.3431778242812</ele>
        <time>2022-05-19T08:41:41Z</time>
      </trkpt>
      <trkpt lat="42.359671" lon="-4.929111">
        <ele>860.2225467590615</ele>
        <time>2022-05-19T08:41:51Z</time>
      </trkpt>
      <trkpt lat="42.35961" lon="-4.929201">
        <ele>858.3486431529745</ele>
        <time>2022-05-19T08:41:58Z</time>
      </trkpt>
      <trkpt lat="42.359542" lon="-4.929287">
        <ele>855.5032706987113</ele>
        <time>2022-05-19T08:42:06Z</time>
      </trkpt>
      <trkpt lat="42.359468" lon="-4.929362">
        <ele>853.3628978189081</ele>
        <time>2022-05-19T08:42:13Z</time>
      </trkpt>
      <trkpt lat="42.359408" lon="-4.929466">
        <ele>851.6957166371867</ele>
        <time>2022-05-19T08:42:22Z</time>
      </trkpt>
      <trkpt lat="42.359335" lon="-4.929566">
        <ele>849.197969677858</ele>
        <time>2022-05-19T08:42:32Z</time>
      </trkpt>
      <trkpt lat="42.359276" lon="-4.929666">
        <ele>847.9790200777352</ele>
        <time>2022-05-19T08:42:40Z</time>
      </trkpt>
      <trkpt lat="42.359213" lon="-4.929766">
        <ele>847.2722392752767</ele>
        <time>2022-05-19T08:42:48Z</time>
      </trkpt>
      <trkpt lat="42.359151" lon="-4.929873">
        <ele>847.1093974905089</ele>
        <time>2022-05-19T08:42:56Z</time>
      </trkpt>
      <trkpt lat="42.359121" lon="-4.929989">
        <ele>847.319648463279</ele>
        <time>2022-05-19T08:43:03Z</time>
      </trkpt>
      <trkpt lat="42.359083" lon="-4.930112">
        <ele>847.6698697851971</ele>
        <time>2022-05-19T08:43:12Z</time>
      </trkpt>
      <trkpt lat="42.35904" lon="-4.930227">
        <ele>847.5939258979633</ele>
        <time>2022-05-19T08:43:18Z</time>
      </trkpt>
      <trkpt lat="42.359" lon="-4.930349">
        <ele>848.1786754410714</ele>
        <time>2022-05-19T08:43:26Z</time>
      </trkpt>
      <trkpt lat="42.358956" lon="-4.930468">
        <ele>849.2531272331253</ele>
        <time>2022-05-19T08:43:32Z</time>
      </trkpt>
      <trkpt lat="42.358917" lon="-4.930588">
        <ele>851.0101878466085</ele>
        <time>2022-05-19T08:43:38Z</time>
      </trkpt>
      <trkpt lat="42.358891" lon="-4.930712">
        <ele>852.4333644770086</ele>
        <time>2022-05-19T08:43:46Z</time>
      </trkpt>
      <trkpt lat="42.358876" lon="-4.930833">
        <ele>852.8254390927032</ele>
        <time>2022-05-19T08:43:53Z</time>
      </trkpt>
      <trkpt lat="42.358856" lon="-4.930958">
        <ele>855.8052938124165</ele>
        <time>2022-05-19T08:44:02Z</time>
      </trkpt>
      <trkpt lat="42.358866" lon="-4.931087">
        <ele>857.826210051775</ele>
        <time>2022-05-19T08:44:11Z</time>
      </trkpt>
      <trkpt lat="42.358887" lon="-4.931215">
        <ele>858.5792410857975</ele>
        <time>2022-05-19T08:44:20Z</time>
      </trkpt>
      <trkpt lat="42.358915" lon="-4.931346">
        <ele>857.262319823727</ele>
        <time>2022-05-19T08:44:28Z</time>
      </trkpt>
      <trkpt lat="42.358937" lon="-4.931465">
        <ele>857.5678269397467</ele>
        <time>2022-05-19T08:44:36Z</time>
      </trkpt>
      <trkpt lat="42.358965" lon="-4.931593">
        <ele>857.3221265068278</ele>
        <time>2022-05-19T08:44:43Z</time>
      </trkpt>
      <trkpt lat="42.358993" lon="-4.931722">
        <ele>857.8703220263124</ele>
        <time>2022-05-19T08:44:52Z</time>
      </trkpt>
      <trkpt lat="42.359009" lon="-4.931848">
        <ele>857.2915271464735</ele>
        <time>2022-05-19T08:44:59Z</time>
      </trkpt>
      <trkpt lat="42.359031" lon="-4.931974">
        <ele>857.8359191007912</ele>
        <time>2022-05-19T08:45:08Z</time>
      </trkpt>
      <trkpt lat="42.359045" lon="-4.932111">
        <ele>858.112674690783</ele>
        <time>2022-05-19T08:45:16Z</time>
      </trkpt>
      <trkpt lat="42.359077" lon="-4.932252">
        <ele>858.2787239467725</ele>
        <time>2022-05-19T08:45:26Z</time>
      </trkpt>
      <trkpt lat="42.3591" lon="-4.932384">
        <ele>858.5870816577226</ele>
        <time>2022-05-19T08:45:34Z</time>
      </trkpt>
      <trkpt lat="42.35914" lon="-4.932508">
        <ele>857.3150453101844</ele>
        <time>2022-05-19T08:45:43Z</time>
      </trkpt>
      <trkpt lat="42.359184" lon="-4.932629">
        <ele>856.9437875272706</ele>
        <time>2022-05-19T08:45:50Z</time>
      </trkpt>
      <trkpt lat="42.359223" lon="-4.932754">
        <ele>856.1930899480358</ele>
        <time>2022-05-19T08:46:00Z</time>
      </trkpt>
      <trkpt lat="42.359254" lon="-4.932877">
        <ele>857.7831725757569</ele>
        <time>2022-05-19T08:46:08Z</time>
      </trkpt>
      <trkpt lat="42.359284" lon="-4.933002">
        <ele>857.2411368303001</ele>
        <time>2022-05-19T08:46:16Z</time>
      </trkpt>
      <trkpt lat="42.359312" lon="-4.933126">
        <ele>854.8431227244437</ele>
        <time>2022-05-19T08:46:23Z</time>
      </trkpt>
      <trkpt lat="42.359355" lon="-4.933241">
        <ele>854.7069878680632</ele>
        <time>2022-05-19T08:46:31Z</time>
      </trkpt>
      <trkpt lat="42.359376" lon="-4.933364">
        <ele>854.1351509718224</ele>
        <time>2022-05-19T08:46:37Z</time>
      </trkpt>
      <trkpt lat="42.359401" lon="-4.933482">
        <ele>855.150412731804</ele>
        <time>2022-05-19T08:46:44Z</time>
      </trkpt>
      <trkpt lat="42.359442" lon="-4.933603">
        <ele>856.1929840669036</ele>
        <time>2022-05-19T08:46:51Z</time>
      </trkpt>
      <trkpt lat="42.359472" lon="-4.933725">
        <ele>856.6666657561436</ele>
        <time>2022-05-19T08:46:58Z</time>
      </trkpt>
      <trkpt lat="42.359508" lon="-4.933848">
        <ele>857.3004148956388</ele>
        <time>2022-05-19T08:47:06Z</time>
      </trkpt>
      <trkpt lat="42.359552" lon="-4.933978">
        <ele>858.2673406936228</ele>
        <time>2022-05-19T08:47:13Z</time>
      </trkpt>
      <trkpt lat="42.359579" lon="-4.934106">
        <ele>859.1946968305856</ele>
        <time>2022-05-19T08:47:20Z</time>
      </trkpt>
      <trkpt lat="42.359608" lon="-4.934233">
        <ele>860.4193918593228</ele>
        <time>2022-05-19T08:47:26Z</time>
      </trkpt>
      <trkpt lat="42.359631" lon="-4.934354">
        <ele>861.3837103685364</ele>
        <time>2022-05-19T08:47:32Z</time>
      </trkpt>
      <trkpt lat="42.359646" lon="-4.934488">
        <ele>862.5034189140424</ele>
        <time>2022-05-19T08:47:40Z</time>
      </trkpt>
      <trkpt lat="42.359649" lon="-4.934615">
        <ele>864.3964274264872</ele>
        <time>2022-05-19T08:47:47Z</time>
      </trkpt>
      <trkpt lat="42.359649" lon="-4.93475">
        <ele>867.4736059401184</ele>
        <time>2022-05-19T08:47:53Z</time>
      </trkpt>
      <trkpt lat="42.359651" lon="-4.934873">
        <ele>869.2324032150209</ele>
        <time>2022-05-19T08:48:00Z</time>
      </trkpt>
      <trkpt lat="42.359669" lon="-4.935007">
        <ele>871.5257855430245</ele>
        <time>2022-05-19T08:48:07Z</time>
      </trkpt>
      <trkpt lat="42.359681" lon="-4.935142">
        <ele>874.382691306062</ele>
        <time>2022-05-19T08:48:13Z</time>
      </trkpt>
      <trkpt lat="42.359692" lon="-4.935277">
        <ele>876.8085508337244</ele>
        <time>2022-05-19T08:48:21Z</time>
      </trkpt>
      <trkpt lat="42.359698" lon="-4.935399">
        <ele>879.2376665966585</ele>
        <time>2022-05-19T08:48:28Z</time>
      </trkpt>
      <trkpt lat="42.35972" lon="-4.935525">
        <ele>880.81813528575</ele>
        <time>2022-05-19T08:48:35Z</time>
      </trkpt>
      <trkpt lat="42.359738" lon="-4.935653">
        <ele>881.8116921465844</ele>
        <time>2022-05-19T08:48:42Z</time>
      </trkpt>
      <trkpt lat="42.359746" lon="-4.935789">
        <ele>882.4444202072918</ele>
        <time>2022-05-19T08:48:48Z</time>
      </trkpt>
      <trkpt lat="42.359758" lon="-4.935915">
        <ele>882.6956434547901</ele>
        <time>2022-05-19T08:48:55Z</time>
      </trkpt>
      <trkpt lat="42.35976" lon="-4.936044">
        <ele>883.0484297545627</ele>
        <time>2022-05-19T08:49:02Z</time>
      </trkpt>
      <trkpt lat="42.359771" lon="-4.936175">
        <ele>882.917079093866</ele>
        <time>2022-05-19T08:49:08Z</time>
      </trkpt>
      <trkpt lat="42.359791" lon="-4.936309">
        <ele>883.4685464520007</ele>
        <time>2022-05-19T08:49:16Z</time>
      </trkpt>
      <trkpt lat="42.359793" lon="-4.936432">
        <ele>882.4343320131302</ele>
        <time>2022-05-19T08:49:25Z</time>
      </trkpt>
      <trkpt lat="42.359793" lon="-4.936568">
        <ele>882.2971486765891</ele>
        <time>2022-05-19T08:49:51Z</time>
      </trkpt>
      <trkpt lat="42.359797" lon="-4.936705">
        <ele>882.009910190478</ele>
        <time>2022-05-19T08:49:57Z</time>
      </trkpt>
      <trkpt lat="42.359825" lon="-4.936823">
        <ele>880.512018407695</ele>
        <time>2022-05-19T08:50:04Z</time>
      </trkpt>
      <trkpt lat="42.359849" lon="-4.936955">
        <ele>880.7629868825898</ele>
        <time>2022-05-19T08:50:11Z</time>
      </trkpt>
      <trkpt lat="42.359866" lon="-4.937081">
        <ele>882.91298061423</ele>
        <time>2022-05-19T08:50:18Z</time>
      </trkpt>
      <trkpt lat="42.359885" lon="-4.937218">
        <ele>884.6517259692773</ele>
        <time>2022-05-19T08:50:26Z</time>
      </trkpt>
      <trkpt lat="42.359894" lon="-4.937351">
        <ele>884.9827070971951</ele>
        <time>2022-05-19T08:50:33Z</time>
      </trkpt>
      <trkpt lat="42.359891" lon="-4.937479">
        <ele>885.346999806352</ele>
        <time>2022-05-19T08:50:40Z</time>
      </trkpt>
      <trkpt lat="42.359864" lon="-4.9376">
        <ele>885.364484379068</ele>
        <time>2022-05-19T08:50:46Z</time>
      </trkpt>
      <trkpt lat="42.359845" lon="-4.937738">
        <ele>887.2668863926083</ele>
        <time>2022-05-19T08:51:03Z</time>
      </trkpt>
      <trkpt lat="42.359835" lon="-4.937862">
        <ele>887.1816023187712</ele>
        <time>2022-05-19T08:51:11Z</time>
      </trkpt>
      <trkpt lat="42.359822" lon="-4.937988">
        <ele>887.2237789500505</ele>
        <time>2022-05-19T08:51:18Z</time>
      </trkpt>
      <trkpt lat="42.359791" lon="-4.938114">
        <ele>888.1201091716066</ele>
        <time>2022-05-19T08:51:25Z</time>
      </trkpt>
      <trkpt lat="42.359764" lon="-4.938252">
        <ele>890.0896805627272</ele>
        <time>2022-05-19T08:51:32Z</time>
      </trkpt>
      <trkpt lat="42.359732" lon="-4.938379">
        <ele>891.2062201239169</ele>
        <time>2022-05-19T08:51:38Z</time>
      </trkpt>
      <trkpt lat="42.359701" lon="-4.938511">
        <ele>893.9037496792153</ele>
        <time>2022-05-19T08:51:46Z</time>
      </trkpt>
      <trkpt lat="42.359682" lon="-4.938635">
        <ele>896.6416840385646</ele>
        <time>2022-05-19T08:51:52Z</time>
      </trkpt>
      <trkpt lat="42.359658" lon="-4.938771">
        <ele>898.486934366636</ele>
        <time>2022-05-19T08:51:58Z</time>
      </trkpt>
      <trkpt lat="42.359615" lon="-4.938902">
        <ele>901.747507863678</ele>
        <time>2022-05-19T08:52:06Z</time>
      </trkpt>
      <trkpt lat="42.359572" lon="-4.939032">
        <ele>905.0058805365115</ele>
        <time>2022-05-19T08:52:12Z</time>
      </trkpt>
      <trkpt lat="42.359538" lon="-4.939144">
        <ele>908.240670288913</ele>
        <time>2022-05-19T08:52:17Z</time>
      </trkpt>
      <trkpt lat="42.359498" lon="-4.939255">
        <ele>910.997561682947</ele>
        <time>2022-05-19T08:52:22Z</time>
      </trkpt>
      <trkpt lat="42.359454" lon="-4.939371">
        <ele>916.3588158367202</ele>
        <time>2022-05-19T08:52:27Z</time>
      </trkpt>
      <trkpt lat="42.359429" lon="-4.939489">
        <ele>920.8854009192437</ele>
        <time>2022-05-19T08:52:34Z</time>
      </trkpt>
      <trkpt lat="42.359405" lon="-4.939621">
        <ele>924.2463748799637</ele>
        <time>2022-05-19T08:52:42Z</time>
      </trkpt>
      <trkpt lat="42.359385" lon="-4.939756">
        <ele>927.5476530035958</ele>
        <time>2022-05-19T08:52:50Z</time>
      </trkpt>
      <trkpt lat="42.359376" lon="-4.939892">
        <ele>929.4564136480913</ele>
        <time>2022-05-19T08:52:58Z</time>
      </trkpt>
      <trkpt lat="42.35938" lon="-4.940027">
        <ele>930.5254580639303</ele>
        <time>2022-05-19T08:53:05Z</time>
      </trkpt>
      <trkpt lat="42.359389" lon="-4.940164">
        <ele>932.439185610041</ele>
        <time>2022-05-19T08:53:12Z</time>
      </trkpt>
      <trkpt lat="42.359399" lon="-4.940298">
        <ele>934.1176455058157</ele>
        <time>2022-05-19T08:53:18Z</time>
      </trkpt>
      <trkpt lat="42.359419" lon="-4.940418">
        <ele>934.7395642651245</ele>
        <time>2022-05-19T08:53:25Z</time>
      </trkpt>
      <trkpt lat="42.359444" lon="-4.940549">
        <ele>935.5261632176116</ele>
        <time>2022-05-19T08:53:32Z</time>
      </trkpt>
      <trkpt lat="42.359471" lon="-4.940671">
        <ele>936.0687322923914</ele>
        <time>2022-05-19T08:53:40Z</time>
      </trkpt>
      <trkpt lat="42.3595" lon="-4.940796">
        <ele>935.6492814850062</ele>
        <time>2022-05-19T08:53:48Z</time>
      </trkpt>
      <trkpt lat="42.359519" lon="-4.940922">
        <ele>934.5101853404194</ele>
        <time>2022-05-19T08:53:55Z</time>
      </trkpt>
      <trkpt lat="42.359555" lon="-4.941048">
        <ele>932.6335663348436</ele>
        <time>2022-05-19T08:54:05Z</time>
      </trkpt>
      <trkpt lat="42.359572" lon="-4.94117">
        <ele>931.0490995654836</ele>
        <time>2022-05-19T08:54:33Z</time>
      </trkpt>
      <trkpt lat="42.359596" lon="-4.941299">
        <ele>928.1655043782666</ele>
        <time>2022-05-19T08:54:50Z</time>
      </trkpt>
      <trkpt lat="42.359601" lon="-4.941422">
        <ele>925.748954934068</ele>
        <time>2022-05-19T08:54:57Z</time>
      </trkpt>
      <trkpt lat="42.359588" lon="-4.941546">
        <ele>923.0335772065446</ele>
        <time>2022-05-19T08:55:04Z</time>
      </trkpt>
      <trkpt lat="42.359575" lon="-4.941689">
        <ele>919.8865558477119</ele>
        <time>2022-05-19T08:55:13Z</time>
      </trkpt>
      <trkpt lat="42.359561" lon="-4.94181">
        <ele>916.8615110004321</ele>
        <time>2022-05-19T08:55:50Z</time>
      </trkpt>
      <trkpt lat="42.359528" lon="-4.941926">
        <ele>915.2924268273637</ele>
        <time>2022-05-19T08:55:58Z</time>
      </trkpt>
      <trkpt lat="42.359507" lon="-4.942048">
        <ele>914.2120490390807</ele>
        <time>2022-05-19T08:56:08Z</time>
      </trkpt>
      <trkpt lat="42.359475" lon="-4.942173">
        <ele>912.523199737072</ele>
        <time>2022-05-19T08:56:15Z</time>
      </trkpt>
      <trkpt lat="42.359461" lon="-4.942302">
        <ele>909.4849475873634</ele>
        <time>2022-05-19T08:56:22Z</time>
      </trkpt>
      <trkpt lat="42.359453" lon="-4.942424">
        <ele>904.8848975095898</ele>
        <time>2022-05-19T08:56:28Z</time>
      </trkpt>
      <trkpt lat="42.359443" lon="-4.942549">
        <ele>900.8273296365514</ele>
        <time>2022-05-19T08:56:33Z</time>
      </trkpt>
      <trkpt lat="42.359426" lon="-4.942683">
        <ele>899.6302994303405</ele>
        <time>2022-05-19T08:56:40Z</time>
      </trkpt>
      <trkpt lat="42.359392" lon="-4.942817">
        <ele>897.9421306215227</ele>
        <time>2022-05-19T08:56:47Z</time>
      </trkpt>
      <trkpt lat="42.35938" lon="-4.942951">
        <ele>895.1721548466012</ele>
        <time>2022-05-19T08:56:55Z</time>
      </trkpt>
      <trkpt lat="42.359364" lon="-4.943091">
        <ele>892.934643282555</ele>
        <time>2022-05-19T08:57:02Z</time>
      </trkpt>
      <trkpt lat="42.35934" lon="-4.94323">
        <ele>892.1514719584957</ele>
        <time>2022-05-19T08:57:08Z</time>
      </trkpt>
      <trkpt lat="42.359328" lon="-4.943368">
        <ele>891.6634097443894</ele>
        <time>2022-05-19T08:57:16Z</time>
      </trkpt>
      <trkpt lat="42.3593" lon="-4.9435">
        <ele>892.1457999916747</ele>
        <time>2022-05-19T08:57:22Z</time>
      </trkpt>
      <trkpt lat="42.359272" lon="-4.943616">
        <ele>892.7449744688347</ele>
        <time>2022-05-19T08:57:27Z</time>
      </trkpt>
      <trkpt lat="42.35923" lon="-4.943743">
        <ele>894.1501970039681</ele>
        <time>2022-05-19T08:57:34Z</time>
      </trkpt>
      <trkpt lat="42.359201" lon="-4.943868">
        <ele>894.9253875603899</ele>
        <time>2022-05-19T08:57:41Z</time>
      </trkpt>
      <trkpt lat="42.359177" lon="-4.944004">
        <ele>896.0626025162637</ele>
        <time>2022-05-19T08:57:48Z</time>
      </trkpt>
      <trkpt lat="42.359142" lon="-4.944121">
        <ele>897.9688747320324</ele>
        <time>2022-05-19T08:57:53Z</time>
      </trkpt>
      <trkpt lat="42.35912" lon="-4.944251">
        <ele>899.194995299913</ele>
        <time>2022-05-19T08:58:00Z</time>
      </trkpt>
      <trkpt lat="42.359102" lon="-4.944379">
        <ele>899.029209648259</ele>
        <time>2022-05-19T08:58:06Z</time>
      </trkpt>
      <trkpt lat="42.359096" lon="-4.944509">
        <ele>898.1911521339789</ele>
        <time>2022-05-19T08:58:12Z</time>
      </trkpt>
      <trkpt lat="42.359095" lon="-4.94465">
        <ele>897.4510668972507</ele>
        <time>2022-05-19T08:58:18Z</time>
      </trkpt>
      <trkpt lat="42.359093" lon="-4.94478">
        <ele>896.1424746876583</ele>
        <time>2022-05-19T08:58:26Z</time>
      </trkpt>
      <trkpt lat="42.359092" lon="-4.944906">
        <ele>895.3748208889738</ele>
        <time>2022-05-19T08:58:32Z</time>
      </trkpt>
      <trkpt lat="42.359109" lon="-4.945032">
        <ele>892.3249103697017</ele>
        <time>2022-05-19T08:59:32Z</time>
      </trkpt>
      <trkpt lat="42.359116" lon="-4.945169">
        <ele>893.1383439274505</ele>
        <time>2022-05-19T08:59:38Z</time>
      </trkpt>
      <trkpt lat="42.359121" lon="-4.9453">
        <ele>892.3125555319712</ele>
        <time>2022-05-19T08:59:45Z</time>
      </trkpt>
      <trkpt lat="42.359142" lon="-4.945434">
        <ele>892.5555328726768</ele>
        <time>2022-05-19T08:59:51Z</time>
      </trkpt>
      <trkpt lat="42.359181" lon="-4.945561">
        <ele>891.8842605659738</ele>
        <time>2022-05-19T08:59:56Z</time>
      </trkpt>
      <trkpt lat="42.359232" lon="-4.945662">
        <ele>890.3629133757204</ele>
        <time>2022-05-19T09:00:02Z</time>
      </trkpt>
      <trkpt lat="42.3593" lon="-4.945772">
        <ele>887.3472628006712</ele>
        <time>2022-05-19T09:00:08Z</time>
      </trkpt>
      <trkpt lat="42.359357" lon="-4.94587">
        <ele>883.6343477144837</ele>
        <time>2022-05-19T09:00:14Z</time>
      </trkpt>
      <trkpt lat="42.359423" lon="-4.945973">
        <ele>881.2871152199805</ele>
        <time>2022-05-19T09:00:19Z</time>
      </trkpt>
      <trkpt lat="42.359517" lon="-4.946026">
        <ele>877.7634677160531</ele>
        <time>2022-05-19T09:00:27Z</time>
      </trkpt>
      <trkpt lat="42.359604" lon="-4.946074">
        <ele>874.2407396649942</ele>
        <time>2022-05-19T09:00:34Z</time>
      </trkpt>
      <trkpt lat="42.359698" lon="-4.946132">
        <ele>871.665840360336</ele>
        <time>2022-05-19T09:00:40Z</time>
      </trkpt>
      <trkpt lat="42.359781" lon="-4.946204">
        <ele>868.9757174765691</ele>
        <time>2022-05-19T09:00:46Z</time>
      </trkpt>
      <trkpt lat="42.359861" lon="-4.946278">
        <ele>867.8218118865043</ele>
        <time>2022-05-19T09:00:51Z</time>
      </trkpt>
      <trkpt lat="42.359956" lon="-4.946324">
        <ele>866.1192312631756</ele>
        <time>2022-05-19T09:00:58Z</time>
      </trkpt>
      <trkpt lat="42.360044" lon="-4.94636">
        <ele>862.7677697185427</ele>
        <time>2022-05-19T09:01:03Z</time>
      </trkpt>
      <trkpt lat="42.360119" lon="-4.946429">
        <ele>859.6784143215045</ele>
        <time>2022-05-19T09:01:08Z</time>
      </trkpt>
      <trkpt lat="42.360203" lon="-4.946478">
        <ele>858.337174968794</ele>
        <time>2022-05-19T09:01:13Z</time>
      </trkpt>
      <trkpt lat="42.360286" lon="-4.946545">
        <ele>857.0664830198511</ele>
        <time>2022-05-19T09:01:20Z</time>
      </trkpt>
      <trkpt lat="42.360369" lon="-4.946621">
        <ele>854.3316528974101</ele>
        <time>2022-05-19T09:01:26Z</time>
      </trkpt>
      <trkpt lat="42.360468" lon="-4.946674">
        <ele>850.3678582916036</ele>
        <time>2022-05-19T09:01:32Z</time>
      </trkpt>
      <trkpt lat="42.36057" lon="-4.946701">
        <ele>847.2918519657105</ele>
        <time>2022-05-19T09:01:38Z</time>
      </trkpt>
      <trkpt lat="42.360672" lon="-4.946721">
        <ele>844.5209810333326</ele>
        <time>2022-05-19T09:01:45Z</time>
      </trkpt>
      <trkpt lat="42.360772" lon="-4.946743">
        <ele>843.409534631297</ele>
        <time>2022-05-19T09:01:51Z</time>
      </trkpt>
      <trkpt lat="42.360856" lon="-4.946792">
        <ele>841.5751299131662</ele>
        <time>2022-05-19T09:01:58Z</time>
      </trkpt>
      <trkpt lat="42.360955" lon="-4.946803">
        <ele>839.8422789089382</ele>
        <time>2022-05-19T09:02:06Z</time>
      </trkpt>
      <trkpt lat="42.361053" lon="-4.946816">
        <ele>837.0199330458418</ele>
        <time>2022-05-19T09:02:13Z</time>
      </trkpt>
      <trkpt lat="42.361143" lon="-4.94683">
        <ele>834.9127140277997</ele>
        <time>2022-05-19T09:02:21Z</time>
      </trkpt>
      <trkpt lat="42.36124" lon="-4.946876">
        <ele>834.8785092653707</ele>
        <time>2022-05-19T09:02:27Z</time>
      </trkpt>
      <trkpt lat="42.361331" lon="-4.946917">
        <ele>833.7041140757501</ele>
        <time>2022-05-19T09:02:33Z</time>
      </trkpt>
      <trkpt lat="42.361424" lon="-4.946927">
        <ele>836.206232868135</ele>
        <time>2022-05-19T09:02:43Z</time>
      </trkpt>
      <trkpt lat="42.361527" lon="-4.946962">
        <ele>838.6342454627156</ele>
        <time>2022-05-19T09:03:00Z</time>
      </trkpt>
      <trkpt lat="42.361618" lon="-4.947022">
        <ele>838.61846830789</ele>
        <time>2022-05-19T09:03:06Z</time>
      </trkpt>
      <trkpt lat="42.361711" lon="-4.947062">
        <ele>837.4497674005106</ele>
        <time>2022-05-19T09:03:12Z</time>
      </trkpt>
      <trkpt lat="42.361808" lon="-4.947112">
        <ele>839.1984043195844</ele>
        <time>2022-05-19T09:03:19Z</time>
      </trkpt>
      <trkpt lat="42.36189" lon="-4.947171">
        <ele>841.1565788052976</ele>
        <time>2022-05-19T09:03:25Z</time>
      </trkpt>
      <trkpt lat="42.361975" lon="-4.947237">
        <ele>841.4436995498836</ele>
        <time>2022-05-19T09:03:31Z</time>
      </trkpt>
      <trkpt lat="42.362078" lon="-4.947273">
        <ele>840.5156171014532</ele>
        <time>2022-05-19T09:03:38Z</time>
      </trkpt>
      <trkpt lat="42.362162" lon="-4.947335">
        <ele>839.5564352553338</ele>
        <time>2022-05-19T09:03:45Z</time>
      </trkpt>
      <trkpt lat="42.362243" lon="-4.94739">
        <ele>838.94634891022</ele>
        <time>2022-05-19T09:03:50Z</time>
      </trkpt>
      <trkpt lat="42.362331" lon="-4.947421">
        <ele>836.9466289430857</ele>
        <time>2022-05-19T09:03:56Z</time>
      </trkpt>
      <trkpt lat="42.362407" lon="-4.947492">
        <ele>835.6950590414926</ele>
        <time>2022-05-19T09:04:02Z</time>
      </trkpt>
      <trkpt lat="42.362493" lon="-4.947563">
        <ele>834.9816801603884</ele>
        <time>2022-05-19T09:04:07Z</time>
      </trkpt>
      <trkpt lat="42.362584" lon="-4.947602">
        <ele>834.4103899616748</ele>
        <time>2022-05-19T09:04:15Z</time>
      </trkpt>
      <trkpt lat="42.362674" lon="-4.947667">
        <ele>834.1833573402837</ele>
        <time>2022-05-19T09:04:22Z</time>
      </trkpt>
      <trkpt lat="42.36276" lon="-4.947721">
        <ele>833.7478135759011</ele>
        <time>2022-05-19T09:04:28Z</time>
      </trkpt>
      <trkpt lat="42.362857" lon="-4.947756">
        <ele>834.5742896776646</ele>
        <time>2022-05-19T09:04:36Z</time>
      </trkpt>
      <trkpt lat="42.362954" lon="-4.947785">
        <ele>835.4787347363308</ele>
        <time>2022-05-19T09:04:42Z</time>
      </trkpt>
      <trkpt lat="42.363043" lon="-4.947828">
        <ele>835.9205954633653</ele>
        <time>2022-05-19T09:04:48Z</time>
      </trkpt>
      <trkpt lat="42.363137" lon="-4.947853">
        <ele>837.1293683899567</ele>
        <time>2022-05-19T09:04:54Z</time>
      </trkpt>
      <trkpt lat="42.363223" lon="-4.94791">
        <ele>838.0092177158222</ele>
        <time>2022-05-19T09:05:00Z</time>
      </trkpt>
      <trkpt lat="42.363315" lon="-4.947971">
        <ele>837.798036721535</ele>
        <time>2022-05-19T09:05:06Z</time>
      </trkpt>
      <trkpt lat="42.363405" lon="-4.948035">
        <ele>836.1556712575257</ele>
        <time>2022-05-19T09:05:12Z</time>
      </trkpt>
      <trkpt lat="42.363497" lon="-4.948108">
        <ele>836.1625397270545</ele>
        <time>2022-05-19T09:05:25Z</time>
      </trkpt>
      <trkpt lat="42.363557" lon="-4.948207">
        <ele>836.2417969666421</ele>
        <time>2022-05-19T09:05:31Z</time>
      </trkpt>
      <trkpt lat="42.363621" lon="-4.948303">
        <ele>836.6140009248629</ele>
        <time>2022-05-19T09:05:38Z</time>
      </trkpt>
      <trkpt lat="42.363692" lon="-4.94838">
        <ele>834.9771003611386</ele>
        <time>2022-05-19T09:05:44Z</time>
      </trkpt>
      <trkpt lat="42.363749" lon="-4.948479">
        <ele>835.4386796671897</ele>
        <time>2022-05-19T09:05:51Z</time>
      </trkpt>
      <trkpt lat="42.363834" lon="-4.948555">
        <ele>834.0932878153399</ele>
        <time>2022-05-19T09:05:58Z</time>
      </trkpt>
      <trkpt lat="42.36391" lon="-4.948623">
        <ele>834.7832153765485</ele>
        <time>2022-05-19T09:06:05Z</time>
      </trkpt>
      <trkpt lat="42.363982" lon="-4.948706">
        <ele>833.7391788642853</ele>
        <time>2022-05-19T09:06:12Z</time>
      </trkpt>
      <trkpt lat="42.364049" lon="-4.948787">
        <ele>832.2196910316125</ele>
        <time>2022-05-19T09:06:17Z</time>
      </trkpt>
      <trkpt lat="42.36412" lon="-4.948864">
        <ele>831.9202890731394</ele>
        <time>2022-05-19T09:06:22Z</time>
      </trkpt>
      <trkpt lat="42.364198" lon="-4.948935">
        <ele>830.716581097804</ele>
        <time>2022-05-19T09:06:28Z</time>
      </trkpt>
      <trkpt lat="42.364277" lon="-4.949025">
        <ele>829.1277585178614</ele>
        <time>2022-05-19T09:06:35Z</time>
      </trkpt>
      <trkpt lat="42.364336" lon="-4.94913">
        <ele>828.5728344293311</ele>
        <time>2022-05-19T09:06:42Z</time>
      </trkpt>
      <trkpt lat="42.364382" lon="-4.94925">
        <ele>826.9897128120065</ele>
        <time>2022-05-19T09:06:49Z</time>
      </trkpt>
      <trkpt lat="42.364377" lon="-4.949386">
        <ele>827.0775432977825</ele>
        <time>2022-05-19T09:06:58Z</time>
      </trkpt>
      <trkpt lat="42.364339" lon="-4.94951">
        <ele>829.8339202664793</ele>
        <time>2022-05-19T09:07:07Z</time>
      </trkpt>
      <trkpt lat="42.364353" lon="-4.949636">
        <ele>831.5565698007122</ele>
        <time>2022-05-19T09:07:15Z</time>
      </trkpt>
      <trkpt lat="42.364355" lon="-4.949772">
        <ele>833.759789631702</ele>
        <time>2022-05-19T09:07:23Z</time>
      </trkpt>
      <trkpt lat="42.364381" lon="-4.949896">
        <ele>837.2248320952058</ele>
        <time>2022-05-19T09:07:31Z</time>
      </trkpt>
      <trkpt lat="42.364394" lon="-4.950016">
        <ele>837.4401298724115</ele>
        <time>2022-05-19T09:07:36Z</time>
      </trkpt>
      <trkpt lat="42.364428" lon="-4.95013">
        <ele>837.6357396803796</ele>
        <time>2022-05-19T09:07:41Z</time>
      </trkpt>
      <trkpt lat="42.364456" lon="-4.950252">
        <ele>838.0826281579211</ele>
        <time>2022-05-19T09:07:48Z</time>
      </trkpt>
      <trkpt lat="42.364492" lon="-4.950366">
        <ele>839.6504132179543</ele>
        <time>2022-05-19T09:07:53Z</time>
      </trkpt>
      <trkpt lat="42.364495" lon="-4.950496">
        <ele>838.3202005615458</ele>
        <time>2022-05-19T09:07:59Z</time>
      </trkpt>
      <trkpt lat="42.364512" lon="-4.950617">
        <ele>834.9065619269386</ele>
        <time>2022-05-19T09:08:07Z</time>
      </trkpt>
      <trkpt lat="42.364483" lon="-4.950752">
        <ele>834.4887565756217</ele>
        <time>2022-05-19T09:08:13Z</time>
      </trkpt>
      <trkpt lat="42.364433" lon="-4.950869">
        <ele>834.1599765075371</ele>
        <time>2022-05-19T09:08:19Z</time>
      </trkpt>
      <trkpt lat="42.364422" lon="-4.950998">
        <ele>833.5207591541111</ele>
        <time>2022-05-19T09:08:25Z</time>
      </trkpt>
      <trkpt lat="42.364404" lon="-4.951127">
        <ele>832.027951256372</ele>
        <time>2022-05-19T09:08:32Z</time>
      </trkpt>
      <trkpt lat="42.364319" lon="-4.951196">
        <ele>829.6402302440256</ele>
        <time>2022-05-19T09:08:38Z</time>
      </trkpt>
      <trkpt lat="42.364236" lon="-4.951257">
        <ele>830.2877970896661</ele>
        <time>2022-05-19T09:08:46Z</time>
      </trkpt>
      <trkpt lat="42.364147" lon="-4.951309">
        <ele>830.0531458510086</ele>
        <time>2022-05-19T09:08:53Z</time>
      </trkpt>
      <trkpt lat="42.364069" lon="-4.951392">
        <ele>833.1931769065559</ele>
        <time>2022-05-19T09:09:02Z</time>
      </trkpt>
      <trkpt lat="42.364001" lon="-4.951494">
        <ele>833.8674694849178</ele>
        <time>2022-05-19T09:09:21Z</time>
      </trkpt>
      <trkpt lat="42.363945" lon="-4.951606">
        <ele>834.539953911677</ele>
        <time>2022-05-19T09:09:31Z</time>
      </trkpt>
      <trkpt lat="42.36392" lon="-4.951731">
        <ele>843.2989482898265</ele>
        <time>2022-05-19T09:10:00Z</time>
      </trkpt>
      <trkpt lat="42.363859" lon="-4.951832">
        <ele>843.3452293807641</ele>
        <time>2022-05-19T09:10:12Z</time>
      </trkpt>
      <trkpt lat="42.363804" lon="-4.951944">
        <ele>842.7720573386177</ele>
        <time>2022-05-19T09:10:21Z</time>
      </trkpt>
      <trkpt lat="42.363768" lon="-4.952064">
        <ele>843.3681147368625</ele>
        <time>2022-05-19T09:10:53Z</time>
      </trkpt>
      <trkpt lat="42.363762" lon="-4.952185">
        <ele>842.6964458599687</ele>
        <time>2022-05-19T09:11:08Z</time>
      </trkpt>
      <trkpt lat="42.363749" lon="-4.952311">
        <ele>838.5206112423912</ele>
        <time>2022-05-19T09:11:36Z</time>
      </trkpt>
      <trkpt lat="42.363727" lon="-4.95244">
        <ele>836.5518908472732</ele>
        <time>2022-05-19T09:12:08Z</time>
      </trkpt>
      <trkpt lat="42.363687" lon="-4.95255">
        <ele>835.144230587408</ele>
        <time>2022-05-19T09:12:17Z</time>
      </trkpt>
      <trkpt lat="42.36364" lon="-4.952662">
        <ele>833.9036835506558</ele>
        <time>2022-05-19T09:12:26Z</time>
      </trkpt>
      <trkpt lat="42.363606" lon="-4.952775">
        <ele>833.1740410765633</ele>
        <time>2022-05-19T09:12:35Z</time>
      </trkpt>
      <trkpt lat="42.363576" lon="-4.952908">
        <ele>832.597221028991</ele>
        <time>2022-05-19T09:12:45Z</time>
      </trkpt>
      <trkpt lat="42.363596" lon="-4.953027">
        <ele>830.6252332488075</ele>
        <time>2022-05-19T09:12:53Z</time>
      </trkpt>
      <trkpt lat="42.363613" lon="-4.953152">
        <ele>828.3389460416511</ele>
        <time>2022-05-19T09:13:00Z</time>
      </trkpt>
      <trkpt lat="42.363653" lon="-4.953261">
        <ele>827.2621728023514</ele>
        <time>2022-05-19T09:13:10Z</time>
      </trkpt>
      <trkpt lat="42.363671" lon="-4.953385">
        <ele>829.2570547945797</ele>
        <time>2022-05-19T09:13:16Z</time>
      </trkpt>
      <trkpt lat="42.363679" lon="-4.953515">
        <ele>829.3305532345548</ele>
        <time>2022-05-19T09:13:24Z</time>
      </trkpt>
      <trkpt lat="42.363724" lon="-4.953625">
        <ele>827.3128971988335</ele>
        <time>2022-05-19T09:13:31Z</time>
      </trkpt>
      <trkpt lat="42.363758" lon="-4.953757">
        <ele>824.3764120889828</ele>
        <time>2022-05-19T09:13:40Z</time>
      </trkpt>
      <trkpt lat="42.363812" lon="-4.953868">
        <ele>824.5939165046439</ele>
        <time>2022-05-19T09:13:48Z</time>
      </trkpt>
      <trkpt lat="42.36385" lon="-4.953981">
        <ele>824.1073536295444</ele>
        <time>2022-05-19T09:13:56Z</time>
      </trkpt>
      <trkpt lat="42.363893" lon="-4.954103">
        <ele>826.4869786333293</ele>
        <time>2022-05-19T09:14:04Z</time>
      </trkpt>
      <trkpt lat="42.36392" lon="-4.954234">
        <ele>827.6465258169919</ele>
        <time>2022-05-19T09:14:12Z</time>
      </trkpt>
      <trkpt lat="42.363934" lon="-4.95437">
        <ele>828.5547431949526</ele>
        <time>2022-05-19T09:14:20Z</time>
      </trkpt>
      <trkpt lat="42.363943" lon="-4.954502">
        <ele>828.4873039638624</ele>
        <time>2022-05-19T09:14:27Z</time>
      </trkpt>
      <trkpt lat="42.364035" lon="-4.95452">
        <ele>830.5887876404449</ele>
        <time>2022-05-19T09:14:36Z</time>
      </trkpt>
      <trkpt lat="42.36413" lon="-4.954557">
        <ele>831.8837239751592</ele>
        <time>2022-05-19T09:14:48Z</time>
      </trkpt>
      <trkpt lat="42.364194" lon="-4.954653">
        <ele>833.2638861993328</ele>
        <time>2022-05-19T09:14:59Z</time>
      </trkpt>
      <trkpt lat="42.364257" lon="-4.954754">
        <ele>834.284132104367</ele>
        <time>2022-05-19T09:15:06Z</time>
      </trkpt>
      <trkpt lat="42.364274" lon="-4.954888">
        <ele>835.618478121236</ele>
        <time>2022-05-19T09:15:15Z</time>
      </trkpt>
      <trkpt lat="42.364292" lon="-4.955024">
        <ele>834.5830203481019</ele>
        <time>2022-05-19T09:15:25Z</time>
      </trkpt>
      <trkpt lat="42.36433" lon="-4.955136">
        <ele>836.508497653529</ele>
        <time>2022-05-19T09:15:32Z</time>
      </trkpt>
      <trkpt lat="42.364393" lon="-4.955234">
        <ele>839.349440750666</ele>
        <time>2022-05-19T09:15:40Z</time>
      </trkpt>
      <trkpt lat="42.364423" lon="-4.95535">
        <ele>835.1266419924796</ele>
        <time>2022-05-19T09:15:50Z</time>
      </trkpt>
      <trkpt lat="42.364528" lon="-4.955356">
        <ele>838.486797131598</ele>
        <time>2022-05-19T09:17:53Z</time>
      </trkpt>
      <trkpt lat="42.364618" lon="-4.955373">
        <ele>842.3532906873152</ele>
        <time>2022-05-19T09:18:02Z</time>
      </trkpt>
      <trkpt lat="42.36471" lon="-4.955346">
        <ele>847.157910595648</ele>
        <time>2022-05-19T09:18:10Z</time>
      </trkpt>
      <trkpt lat="42.364813" lon="-4.955322">
        <ele>849.2124447487295</ele>
        <time>2022-05-19T09:18:16Z</time>
      </trkpt>
      <trkpt lat="42.364906" lon="-4.955348">
        <ele>850.450035199523</ele>
        <time>2022-05-19T09:18:24Z</time>
      </trkpt>
      <trkpt lat="42.365006" lon="-4.955381">
        <ele>852.7193864192814</ele>
        <time>2022-05-19T09:18:33Z</time>
      </trkpt>
      <trkpt lat="42.365062" lon="-4.955482">
        <ele>849.2278196373954</ele>
        <time>2022-05-19T09:18:41Z</time>
      </trkpt>
      <trkpt lat="42.365082" lon="-4.955622">
        <ele>849.130979442969</ele>
        <time>2022-05-19T09:18:50Z</time>
      </trkpt>
      <trkpt lat="42.365092" lon="-4.955755">
        <ele>849.4673405541107</ele>
        <time>2022-05-19T09:18:58Z</time>
      </trkpt>
      <trkpt lat="42.3651" lon="-4.955886">
        <ele>850.3874984411523</ele>
        <time>2022-05-19T09:19:07Z</time>
      </trkpt>
      <trkpt lat="42.365092" lon="-4.95601">
        <ele>849.7718955129385</ele>
        <time>2022-05-19T09:19:16Z</time>
      </trkpt>
      <trkpt lat="42.365086" lon="-4.956136">
        <ele>849.2158046076074</ele>
        <time>2022-05-19T09:19:23Z</time>
      </trkpt>
      <trkpt lat="42.365077" lon="-4.95627">
        <ele>850.0021535139531</ele>
        <time>2022-05-19T09:19:33Z</time>
      </trkpt>
      <trkpt lat="42.365067" lon="-4.956405">
        <ele>851.6846593776718</ele>
        <time>2022-05-19T09:19:42Z</time>
      </trkpt>
      <trkpt lat="42.365073" lon="-4.95653">
        <ele>855.272784685716</ele>
        <time>2022-05-19T09:19:51Z</time>
      </trkpt>
      <trkpt lat="42.365072" lon="-4.956661">
        <ele>858.3083464987576</ele>
        <time>2022-05-19T09:19:59Z</time>
      </trkpt>
      <trkpt lat="42.365078" lon="-4.956782">
        <ele>860.4167281202972</ele>
        <time>2022-05-19T09:20:06Z</time>
      </trkpt>
      <trkpt lat="42.365084" lon="-4.956906">
        <ele>861.5243500908837</ele>
        <time>2022-05-19T09:20:13Z</time>
      </trkpt>
      <trkpt lat="42.365084" lon="-4.957034">
        <ele>862.9416025383398</ele>
        <time>2022-05-19T09:20:18Z</time>
      </trkpt>
      <trkpt lat="42.365077" lon="-4.95717">
        <ele>863.7503140810877</ele>
        <time>2022-05-19T09:20:26Z</time>
      </trkpt>
      <trkpt lat="42.365082" lon="-4.957307">
        <ele>864.2036141343415</ele>
        <time>2022-05-19T09:20:33Z</time>
      </trkpt>
      <trkpt lat="42.365081" lon="-4.95743">
        <ele>864.0643063830212</ele>
        <time>2022-05-19T09:20:41Z</time>
      </trkpt>
      <trkpt lat="42.365082" lon="-4.957564">
        <ele>863.7496229717508</ele>
        <time>2022-05-19T09:20:48Z</time>
      </trkpt>
      <trkpt lat="42.365086" lon="-4.95769">
        <ele>865.300542303361</ele>
        <time>2022-05-19T09:20:57Z</time>
      </trkpt>
      <trkpt lat="42.365077" lon="-4.957813">
        <ele>866.3917603772134</ele>
        <time>2022-05-19T09:21:03Z</time>
      </trkpt>
      <trkpt lat="42.365076" lon="-4.95795">
        <ele>865.4923815503716</ele>
        <time>2022-05-19T09:21:14Z</time>
      </trkpt>
      <trkpt lat="42.365079" lon="-4.95808">
        <ele>863.9492829535156</ele>
        <time>2022-05-19T09:21:21Z</time>
      </trkpt>
      <trkpt lat="42.365089" lon="-4.958218">
        <ele>863.0759202400222</ele>
        <time>2022-05-19T09:21:28Z</time>
      </trkpt>
      <trkpt lat="42.365083" lon="-4.958347">
        <ele>861.8659654594958</ele>
        <time>2022-05-19T09:21:34Z</time>
      </trkpt>
      <trkpt lat="42.365083" lon="-4.958473">
        <ele>861.77107769344</ele>
        <time>2022-05-19T09:21:41Z</time>
      </trkpt>
      <trkpt lat="42.365085" lon="-4.958598">
        <ele>862.4501246986911</ele>
        <time>2022-05-19T09:21:49Z</time>
      </trkpt>
      <trkpt lat="42.36509" lon="-4.958728">
        <ele>864.2152099302039</ele>
        <time>2022-05-19T09:21:56Z</time>
      </trkpt>
      <trkpt lat="42.365087" lon="-4.958857">
        <ele>865.8795746052638</ele>
        <time>2022-05-19T09:22:03Z</time>
      </trkpt>
      <trkpt lat="42.365098" lon="-4.958996">
        <ele>866.8208483234048</ele>
        <time>2022-05-19T09:22:11Z</time>
      </trkpt>
      <trkpt lat="42.365106" lon="-4.959132">
        <ele>865.5076230065897</ele>
        <time>2022-05-19T09:22:18Z</time>
      </trkpt>
      <trkpt lat="42.365115" lon="-4.959255">
        <ele>862.930038318038</ele>
        <time>2022-05-19T09:22:24Z</time>
      </trkpt>
      <trkpt lat="42.365129" lon="-4.959377">
        <ele>862.2340672966093</ele>
        <time>2022-05-19T09:22:31Z</time>
      </trkpt>
      <trkpt lat="42.36515" lon="-4.959509">
        <ele>862.7222826229408</ele>
        <time>2022-05-19T09:22:40Z</time>
      </trkpt>
      <trkpt lat="42.365159" lon="-4.959641">
        <ele>862.6195155214518</ele>
        <time>2022-05-19T09:22:46Z</time>
      </trkpt>
      <trkpt lat="42.365171" lon="-4.959776">
        <ele>861.3006472988054</ele>
        <time>2022-05-19T09:22:52Z</time>
      </trkpt>
      <trkpt lat="42.36517" lon="-4.959909">
        <ele>859.7965215537697</ele>
        <time>2022-05-19T09:22:58Z</time>
      </trkpt>
      <trkpt lat="42.365176" lon="-4.960048">
        <ele>858.0640992587432</ele>
        <time>2022-05-19T09:23:06Z</time>
      </trkpt>
      <trkpt lat="42.365166" lon="-4.960178">
        <ele>856.158165698871</ele>
        <time>2022-05-19T09:23:12Z</time>
      </trkpt>
      <trkpt lat="42.365174" lon="-4.960308">
        <ele>854.9425103254616</ele>
        <time>2022-05-19T09:23:19Z</time>
      </trkpt>
      <trkpt lat="42.365183" lon="-4.960432">
        <ele>854.3301255246624</ele>
        <time>2022-05-19T09:23:26Z</time>
      </trkpt>
      <trkpt lat="42.365196" lon="-4.960573">
        <ele>854.1057591699064</ele>
        <time>2022-05-19T09:23:33Z</time>
      </trkpt>
      <trkpt lat="42.365216" lon="-4.960707">
        <ele>854.9944769972935</ele>
        <time>2022-05-19T09:23:40Z</time>
      </trkpt>
      <trkpt lat="42.365224" lon="-4.960847">
        <ele>857.7283966066316</ele>
        <time>2022-05-19T09:23:48Z</time>
      </trkpt>
      <trkpt lat="42.365232" lon="-4.96099">
        <ele>857.5133156282827</ele>
        <time>2022-05-19T09:23:56Z</time>
      </trkpt>
      <trkpt lat="42.365244" lon="-4.961125">
        <ele>857.488571036607</ele>
        <time>2022-05-19T09:24:03Z</time>
      </trkpt>
      <trkpt lat="42.365255" lon="-4.961252">
        <ele>857.1016789665446</ele>
        <time>2022-05-19T09:24:11Z</time>
      </trkpt>
      <trkpt lat="42.365255" lon="-4.961385">
        <ele>858.6504663368687</ele>
        <time>2022-05-19T09:24:20Z</time>
      </trkpt>
      <trkpt lat="42.365258" lon="-4.961508">
        <ele>859.036628331989</ele>
        <time>2022-05-19T09:24:28Z</time>
      </trkpt>
      <trkpt lat="42.365277" lon="-4.961646">
        <ele>859.1121049355716</ele>
        <time>2022-05-19T09:24:35Z</time>
      </trkpt>
      <trkpt lat="42.365295" lon="-4.961779">
        <ele>858.0029553771019</ele>
        <time>2022-05-19T09:24:41Z</time>
      </trkpt>
      <trkpt lat="42.365299" lon="-4.961915">
        <ele>858.3037887644023</ele>
        <time>2022-05-19T09:24:47Z</time>
      </trkpt>
      <trkpt lat="42.365308" lon="-4.962049">
        <ele>858.6741301082075</ele>
        <time>2022-05-19T09:24:53Z</time>
      </trkpt>
      <trkpt lat="42.365306" lon="-4.96218">
        <ele>857.3322465326637</ele>
        <time>2022-05-19T09:25:00Z</time>
      </trkpt>
      <trkpt lat="42.365322" lon="-4.962318">
        <ele>856.7083640797064</ele>
        <time>2022-05-19T09:25:08Z</time>
      </trkpt>
      <trkpt lat="42.365358" lon="-4.962443">
        <ele>857.3717988096178</ele>
        <time>2022-05-19T09:25:16Z</time>
      </trkpt>
      <trkpt lat="42.365381" lon="-4.962577">
        <ele>860.1108271991834</ele>
        <time>2022-05-19T09:25:25Z</time>
      </trkpt>
      <trkpt lat="42.365391" lon="-4.962704">
        <ele>861.3383040074259</ele>
        <time>2022-05-19T09:25:32Z</time>
      </trkpt>
      <trkpt lat="42.365403" lon="-4.962844">
        <ele>862.1311874529347</ele>
        <time>2022-05-19T09:25:38Z</time>
      </trkpt>
      <trkpt lat="42.365407" lon="-4.962968">
        <ele>862.0278032431379</ele>
        <time>2022-05-19T09:25:43Z</time>
      </trkpt>
      <trkpt lat="42.365418" lon="-4.963092">
        <ele>861.6667181709781</ele>
        <time>2022-05-19T09:25:50Z</time>
      </trkpt>
      <trkpt lat="42.365419" lon="-4.963219">
        <ele>860.8666029013693</ele>
        <time>2022-05-19T09:25:58Z</time>
      </trkpt>
      <trkpt lat="42.365435" lon="-4.963352">
        <ele>862.3296164683998</ele>
        <time>2022-05-19T09:26:06Z</time>
      </trkpt>
      <trkpt lat="42.365436" lon="-4.963491">
        <ele>864.0063256192952</ele>
        <time>2022-05-19T09:26:15Z</time>
      </trkpt>
      <trkpt lat="42.365449" lon="-4.963611">
        <ele>865.0123570468277</ele>
        <time>2022-05-19T09:26:21Z</time>
      </trkpt>
      <trkpt lat="42.365462" lon="-4.963739">
        <ele>864.3921488421038</ele>
        <time>2022-05-19T09:26:27Z</time>
      </trkpt>
      <trkpt lat="42.365476" lon="-4.963871">
        <ele>864.977869335562</ele>
        <time>2022-05-19T09:26:33Z</time>
      </trkpt>
      <trkpt lat="42.365489" lon="-4.964007">
        <ele>864.8411453608423</ele>
        <time>2022-05-19T09:26:40Z</time>
      </trkpt>
      <trkpt lat="42.365491" lon="-4.964135">
        <ele>864.7696389481425</ele>
        <time>2022-05-19T09:26:48Z</time>
      </trkpt>
      <trkpt lat="42.365496" lon="-4.964266">
        <ele>864.4324485985562</ele>
        <time>2022-05-19T09:26:56Z</time>
      </trkpt>
      <trkpt lat="42.36551" lon="-4.964392">
        <ele>864.1310518784449</ele>
        <time>2022-05-19T09:27:03Z</time>
      </trkpt>
      <trkpt lat="42.365521" lon="-4.964515">
        <ele>865.1238895785064</ele>
        <time>2022-05-19T09:27:11Z</time>
      </trkpt>
      <trkpt lat="42.365525" lon="-4.96464">
        <ele>865.3976513370872</ele>
        <time>2022-05-19T09:27:18Z</time>
      </trkpt>
      <trkpt lat="42.365533" lon="-4.964767">
        <ele>865.7675612634048</ele>
        <time>2022-05-19T09:27:23Z</time>
      </trkpt>
      <trkpt lat="42.365538" lon="-4.964894">
        <ele>865.0572748472914</ele>
        <time>2022-05-19T09:27:29Z</time>
      </trkpt>
      <trkpt lat="42.365545" lon="-4.965018">
        <ele>864.8756480729207</ele>
        <time>2022-05-19T09:27:35Z</time>
      </trkpt>
      <trkpt lat="42.365553" lon="-4.96516">
        <ele>864.1946578025818</ele>
        <time>2022-05-19T09:27:42Z</time>
      </trkpt>
      <trkpt lat="42.365566" lon="-4.965289">
        <ele>864.1868571573868</ele>
        <time>2022-05-19T09:27:51Z</time>
      </trkpt>
      <trkpt lat="42.365566" lon="-4.965425">
        <ele>863.323673744686</ele>
        <time>2022-05-19T09:27:58Z</time>
      </trkpt>
      <trkpt lat="42.365577" lon="-4.965558">
        <ele>863.5109769459814</ele>
        <time>2022-05-19T09:28:06Z</time>
      </trkpt>
      <trkpt lat="42.365581" lon="-4.96568">
        <ele>863.6132477410138</ele>
        <time>2022-05-19T09:28:12Z</time>
      </trkpt>
      <trkpt lat="42.365583" lon="-4.965816">
        <ele>863.7984424317256</ele>
        <time>2022-05-19T09:28:19Z</time>
      </trkpt>
      <trkpt lat="42.365588" lon="-4.96595">
        <ele>863.5488776611164</ele>
        <time>2022-05-19T09:28:28Z</time>
      </trkpt>
      <trkpt lat="42.365594" lon="-4.966079">
        <ele>865.1592866722494</ele>
        <time>2022-05-19T09:28:37Z</time>
      </trkpt>
      <trkpt lat="42.365604" lon="-4.966212">
        <ele>866.8541123205796</ele>
        <time>2022-05-19T09:28:45Z</time>
      </trkpt>
      <trkpt lat="42.365619" lon="-4.966334">
        <ele>868.6594789298251</ele>
        <time>2022-05-19T09:28:53Z</time>
      </trkpt>
      <trkpt lat="42.365641" lon="-4.966471">
        <ele>870.7313398597762</ele>
        <time>2022-05-19T09:29:00Z</time>
      </trkpt>
      <trkpt lat="42.365653" lon="-4.966608">
        <ele>872.2669984465465</ele>
        <time>2022-05-19T09:29:05Z</time>
      </trkpt>
      <trkpt lat="42.365651" lon="-4.966734">
        <ele>872.7617622287944</ele>
        <time>2022-05-19T09:29:11Z</time>
      </trkpt>
      <trkpt lat="42.365664" lon="-4.96687">
        <ele>871.5291910599917</ele>
        <time>2022-05-19T09:29:18Z</time>
      </trkpt>
      <trkpt lat="42.365672" lon="-4.967008">
        <ele>870.2007752098143</ele>
        <time>2022-05-19T09:29:26Z</time>
      </trkpt>
      <trkpt lat="42.365672" lon="-4.967146">
        <ele>870.8832761058584</ele>
        <time>2022-05-19T09:29:33Z</time>
      </trkpt>
      <trkpt lat="42.365693" lon="-4.967268">
        <ele>869.9922251962125</ele>
        <time>2022-05-19T09:29:41Z</time>
      </trkpt>
      <trkpt lat="42.365706" lon="-4.967406">
        <ele>868.273213964887</ele>
        <time>2022-05-19T09:29:48Z</time>
      </trkpt>
      <trkpt lat="42.365721" lon="-4.967541">
        <ele>867.8597293784842</ele>
        <time>2022-05-19T09:29:53Z</time>
      </trkpt>
      <trkpt lat="42.365733" lon="-4.967663">
        <ele>867.2290463196114</ele>
        <time>2022-05-19T09:29:59Z</time>
      </trkpt>
      <trkpt lat="42.365741" lon="-4.967796">
        <ele>865.4926912020892</ele>
        <time>2022-05-19T09:30:08Z</time>
      </trkpt>
      <trkpt lat="42.365752" lon="-4.967928">
        <ele>867.4375042719766</ele>
        <time>2022-05-19T09:30:18Z</time>
      </trkpt>
      <trkpt lat="42.365752" lon="-4.968061">
        <ele>868.0103323655203</ele>
        <time>2022-05-19T09:30:25Z</time>
      </trkpt>
      <trkpt lat="42.365761" lon="-4.968194">
        <ele>868.4555244948715</ele>
        <time>2022-05-19T09:30:32Z</time>
      </trkpt>
      <trkpt lat="42.365766" lon="-4.968333">
        <ele>868.6689470009878</ele>
        <time>2022-05-19T09:30:39Z</time>
      </trkpt>
      <trkpt lat="42.365772" lon="-4.968458">
        <ele>869.376476614736</ele>
        <time>2022-05-19T09:30:46Z</time>
      </trkpt>
      <trkpt lat="42.365781" lon="-4.968591">
        <ele>870.2735348828137</ele>
        <time>2022-05-19T09:30:53Z</time>
      </trkpt>
      <trkpt lat="42.365785" lon="-4.968727">
        <ele>871.8863778281957</ele>
        <time>2022-05-19T09:31:02Z</time>
      </trkpt>
      <trkpt lat="42.365792" lon="-4.968862">
        <ele>873.2729940321296</ele>
        <time>2022-05-19T09:31:10Z</time>
      </trkpt>
      <trkpt lat="42.365799" lon="-4.968984">
        <ele>874.6346976635978</ele>
        <time>2022-05-19T09:31:16Z</time>
      </trkpt>
      <trkpt lat="42.365806" lon="-4.969109">
        <ele>875.1758970990777</ele>
        <time>2022-05-19T09:31:23Z</time>
      </trkpt>
      <trkpt lat="42.365821" lon="-4.969244">
        <ele>875.1766392821446</ele>
        <time>2022-05-19T09:31:30Z</time>
      </trkpt>
      <trkpt lat="42.365833" lon="-4.96937">
        <ele>875.683011691086</ele>
        <time>2022-05-19T09:31:36Z</time>
      </trkpt>
      <trkpt lat="42.365854" lon="-4.96949">
        <ele>876.3320490755141</ele>
        <time>2022-05-19T09:31:43Z</time>
      </trkpt>
      <trkpt lat="42.365866" lon="-4.969612">
        <ele>876.1387996152043</ele>
        <time>2022-05-19T09:31:52Z</time>
      </trkpt>
      <trkpt lat="42.365877" lon="-4.969744">
        <ele>877.0314883552492</ele>
        <time>2022-05-19T09:32:00Z</time>
      </trkpt>
      <trkpt lat="42.365879" lon="-4.969871">
        <ele>877.3808093890548</ele>
        <time>2022-05-19T09:32:07Z</time>
      </trkpt>
      <trkpt lat="42.365889" lon="-4.970008">
        <ele>876.8307001097128</ele>
        <time>2022-05-19T09:32:13Z</time>
      </trkpt>
      <trkpt lat="42.365902" lon="-4.970134">
        <ele>877.424507593736</ele>
        <time>2022-05-19T09:35:38Z</time>
      </trkpt>
      <trkpt lat="42.365942" lon="-4.970257">
        <ele>876.9902329742908</ele>
        <time>2022-05-19T09:35:49Z</time>
      </trkpt>
      <trkpt lat="42.365946" lon="-4.970381">
        <ele>877.9493593936786</ele>
        <time>2022-05-19T09:38:53Z</time>
      </trkpt>
      <trkpt lat="42.365967" lon="-4.970511">
        <ele>878.9371822346002</ele>
        <time>2022-05-19T09:39:09Z</time>
      </trkpt>
      <trkpt lat="42.365983" lon="-4.970636">
        <ele>879.5200255727395</ele>
        <time>2022-05-19T09:39:18Z</time>
      </trkpt>
      <trkpt lat="42.365974" lon="-4.970763">
        <ele>883.9129083380103</ele>
        <time>2022-05-19T09:39:46Z</time>
      </trkpt>
      <trkpt lat="42.365979" lon="-4.970887">
        <ele>884.0616424987093</ele>
        <time>2022-05-19T09:39:56Z</time>
      </trkpt>
      <trkpt lat="42.365989" lon="-4.971019">
        <ele>887.7156472839415</ele>
        <time>2022-05-19T09:40:16Z</time>
      </trkpt>
      <trkpt lat="42.365992" lon="-4.971145">
        <ele>889.5495744878426</ele>
        <time>2022-05-19T09:40:26Z</time>
      </trkpt>
      <trkpt lat="42.366014" lon="-4.971274">
        <ele>891.2085093604401</ele>
        <time>2022-05-19T09:40:36Z</time>
      </trkpt>
      <trkpt lat="42.366011" lon="-4.971406">
        <ele>892.0189342750236</ele>
        <time>2022-05-19T09:40:47Z</time>
      </trkpt>
      <trkpt lat="42.366006" lon="-4.971533">
        <ele>893.746142343618</ele>
        <time>2022-05-19T09:40:56Z</time>
      </trkpt>
      <trkpt lat="42.366004" lon="-4.971662">
        <ele>894.0793147040531</ele>
        <time>2022-05-19T09:41:05Z</time>
      </trkpt>
      <trkpt lat="42.366018" lon="-4.97179">
        <ele>893.3503798879683</ele>
        <time>2022-05-19T09:41:15Z</time>
      </trkpt>
      <trkpt lat="42.366017" lon="-4.971915">
        <ele>894.0966556956992</ele>
        <time>2022-05-19T09:41:23Z</time>
      </trkpt>
      <trkpt lat="42.366015" lon="-4.972048">
        <ele>895.2144979191944</ele>
        <time>2022-05-19T09:41:32Z</time>
      </trkpt>
      <trkpt lat="42.366013" lon="-4.972174">
        <ele>894.6144097195938</ele>
        <time>2022-05-19T09:41:40Z</time>
      </trkpt>
      <trkpt lat="42.366016" lon="-4.9723">
        <ele>895.0205358136445</ele>
        <time>2022-05-19T09:41:51Z</time>
      </trkpt>
      <trkpt lat="42.366013" lon="-4.972425">
        <ele>894.2865778524429</ele>
        <time>2022-05-19T09:42:02Z</time>
      </trkpt>
      <trkpt lat="42.366014" lon="-4.972556">
        <ele>889.465401250869</ele>
        <time>2022-05-19T09:49:12Z</time>
      </trkpt>
      <trkpt lat="42.365936" lon="-4.972625">
        <ele>889.8003186546266</ele>
        <time>2022-05-19T09:49:27Z</time>
      </trkpt>
      <trkpt lat="42.365855" lon="-4.972701">
        <ele>892.6798711689189</ele>
        <time>2022-05-19T09:49:37Z</time>
      </trkpt>
      <trkpt lat="42.365781" lon="-4.972793">
        <ele>895.686133146286</ele>
        <time>2022-05-19T09:49:46Z</time>
      </trkpt>
      <trkpt lat="42.365704" lon="-4.97289">
        <ele>896.0484945103526</ele>
        <time>2022-05-19T09:49:53Z</time>
      </trkpt>
      <trkpt lat="42.365655" lon="-4.972999">
        <ele>894.9083829717711</ele>
        <time>2022-05-19T09:50:00Z</time>
      </trkpt>
      <trkpt lat="42.365607" lon="-4.973109">
        <ele>893.6431352896616</ele>
        <time>2022-05-19T09:50:06Z</time>
      </trkpt>
      <trkpt lat="42.365558" lon="-4.97322">
        <ele>892.0505808927119</ele>
        <time>2022-05-19T09:50:13Z</time>
      </trkpt>
      <trkpt lat="42.365519" lon="-4.973332">
        <ele>892.1906585674733</ele>
        <time>2022-05-19T09:50:25Z</time>
      </trkpt>
      <trkpt lat="42.365494" lon="-4.973458">
        <ele>893.4903909545392</ele>
        <time>2022-05-19T09:50:33Z</time>
      </trkpt>
      <trkpt lat="42.365472" lon="-4.973578">
        <ele>894.1992838382721</ele>
        <time>2022-05-19T09:50:41Z</time>
      </trkpt>
      <trkpt lat="42.365452" lon="-4.973702">
        <ele>895.3697308991104</ele>
        <time>2022-05-19T09:50:48Z</time>
      </trkpt>
      <trkpt lat="42.365456" lon="-4.973824">
        <ele>896.7611166704446</ele>
        <time>2022-05-19T09:50:55Z</time>
      </trkpt>
      <trkpt lat="42.365471" lon="-4.97395">
        <ele>897.344341263175</ele>
        <time>2022-05-19T09:51:03Z</time>
      </trkpt>
      <trkpt lat="42.365499" lon="-4.974079">
        <ele>898.0957195479423</ele>
        <time>2022-05-19T09:51:12Z</time>
      </trkpt>
      <trkpt lat="42.36554" lon="-4.974201">
        <ele>899.293712622486</ele>
        <time>2022-05-19T09:51:21Z</time>
      </trkpt>
      <trkpt lat="42.365574" lon="-4.974319">
        <ele>899.7064579566941</ele>
        <time>2022-05-19T09:51:28Z</time>
      </trkpt>
      <trkpt lat="42.365627" lon="-4.974434">
        <ele>898.5778791345656</ele>
        <time>2022-05-19T09:51:35Z</time>
      </trkpt>
      <trkpt lat="42.36565" lon="-4.974555">
        <ele>898.6823885822669</ele>
        <time>2022-05-19T09:51:42Z</time>
      </trkpt>
      <trkpt lat="42.365666" lon="-4.974692">
        <ele>898.5006281733513</ele>
        <time>2022-05-19T09:51:51Z</time>
      </trkpt>
      <trkpt lat="42.365678" lon="-4.974828">
        <ele>898.1656226962805</ele>
        <time>2022-05-19T09:51:58Z</time>
      </trkpt>
      <trkpt lat="42.365684" lon="-4.974956">
        <ele>897.6644080542028</ele>
        <time>2022-05-19T09:52:05Z</time>
      </trkpt>
      <trkpt lat="42.365681" lon="-4.975082">
        <ele>897.649219029583</ele>
        <time>2022-05-19T09:52:11Z</time>
      </trkpt>
      <trkpt lat="42.365682" lon="-4.975214">
        <ele>899.0480586318299</ele>
        <time>2022-05-19T09:52:18Z</time>
      </trkpt>
      <trkpt lat="42.365665" lon="-4.975339">
        <ele>899.3586452687159</ele>
        <time>2022-05-19T09:52:26Z</time>
      </trkpt>
      <trkpt lat="42.365632" lon="-4.975461">
        <ele>898.8632563855499</ele>
        <time>2022-05-19T09:52:33Z</time>
      </trkpt>
      <trkpt lat="42.36558" lon="-4.975562">
        <ele>898.5430578263476</ele>
        <time>2022-05-19T09:52:40Z</time>
      </trkpt>
      <trkpt lat="42.365515" lon="-4.975672">
        <ele>898.4960269685835</ele>
        <time>2022-05-19T09:52:47Z</time>
      </trkpt>
      <trkpt lat="42.365469" lon="-4.975786">
        <ele>899.5749240145087</ele>
        <time>2022-05-19T09:52:53Z</time>
      </trkpt>
      <trkpt lat="42.365413" lon="-4.975882">
        <ele>900.5098928967491</ele>
        <time>2022-05-19T09:53:00Z</time>
      </trkpt>
      <trkpt lat="42.365372" lon="-4.97599">
        <ele>899.9413435952738</ele>
        <time>2022-05-19T09:53:07Z</time>
      </trkpt>
      <trkpt lat="42.365342" lon="-4.976121">
        <ele>898.621965970844</ele>
        <time>2022-05-19T09:53:15Z</time>
      </trkpt>
      <trkpt lat="42.365285" lon="-4.976223">
        <ele>899.0601388020441</ele>
        <time>2022-05-19T09:53:23Z</time>
      </trkpt>
      <trkpt lat="42.365236" lon="-4.976347">
        <ele>899.4206006452441</ele>
        <time>2022-05-19T09:53:31Z</time>
      </trkpt>
      <trkpt lat="42.365215" lon="-4.976472">
        <ele>899.4846252631396</ele>
        <time>2022-05-19T09:53:38Z</time>
      </trkpt>
      <trkpt lat="42.365182" lon="-4.976595">
        <ele>901.5341041916981</ele>
        <time>2022-05-19T09:53:48Z</time>
      </trkpt>
      <trkpt lat="42.36514" lon="-4.976716">
        <ele>902.5185942659155</ele>
        <time>2022-05-19T09:53:56Z</time>
      </trkpt>
      <trkpt lat="42.365111" lon="-4.976851">
        <ele>902.7481114706025</ele>
        <time>2022-05-19T09:54:03Z</time>
      </trkpt>
      <trkpt lat="42.365095" lon="-4.976985">
        <ele>902.8651927616447</ele>
        <time>2022-05-19T09:54:10Z</time>
      </trkpt>
      <trkpt lat="42.365082" lon="-4.977118">
        <ele>901.0840605394915</ele>
        <time>2022-05-19T09:54:18Z</time>
      </trkpt>
      <trkpt lat="42.365078" lon="-4.977243">
        <ele>897.97277761437</ele>
        <time>2022-05-19T09:54:26Z</time>
      </trkpt>
      <trkpt lat="42.365036" lon="-4.977353">
        <ele>898.2134247822687</ele>
        <time>2022-05-19T09:54:32Z</time>
      </trkpt>
      <trkpt lat="42.365015" lon="-4.97748">
        <ele>898.2790787555277</ele>
        <time>2022-05-19T09:54:38Z</time>
      </trkpt>
      <trkpt lat="42.365007" lon="-4.977608">
        <ele>897.4815545473248</ele>
        <time>2022-05-19T09:54:46Z</time>
      </trkpt>
      <trkpt lat="42.365014" lon="-4.977743">
        <ele>895.4162173802033</ele>
        <time>2022-05-19T09:54:52Z</time>
      </trkpt>
      <trkpt lat="42.36503" lon="-4.977872">
        <ele>891.2673337655142</ele>
        <time>2022-05-19T09:55:01Z</time>
      </trkpt>
      <trkpt lat="42.365061" lon="-4.977992">
        <ele>888.9048618264496</ele>
        <time>2022-05-19T09:55:11Z</time>
      </trkpt>
      <trkpt lat="42.365072" lon="-4.978113">
        <ele>887.31831251923</ele>
        <time>2022-05-19T09:55:22Z</time>
      </trkpt>
      <trkpt lat="42.365119" lon="-4.978224">
        <ele>886.7229259759188</ele>
        <time>2022-05-19T09:55:31Z</time>
      </trkpt>
      <trkpt lat="42.365158" lon="-4.978338">
        <ele>886.8822988932952</ele>
        <time>2022-05-19T09:55:42Z</time>
      </trkpt>
      <trkpt lat="42.365232" lon="-4.978426">
        <ele>886.3178204875439</ele>
        <time>2022-05-19T09:55:53Z</time>
      </trkpt>
      <trkpt lat="42.36531" lon="-4.978507">
        <ele>884.3961180262268</ele>
        <time>2022-05-19T09:56:02Z</time>
      </trkpt>
      <trkpt lat="42.365377" lon="-4.978607">
        <ele>884.0225253421813</ele>
        <time>2022-05-19T09:56:13Z</time>
      </trkpt>
      <trkpt lat="42.365446" lon="-4.978691">
        <ele>883.4637631867081</ele>
        <time>2022-05-19T09:56:25Z</time>
      </trkpt>
      <trkpt lat="42.365505" lon="-4.978791">
        <ele>882.7035987721756</ele>
        <time>2022-05-19T09:56:34Z</time>
      </trkpt>
      <trkpt lat="42.365571" lon="-4.978881">
        <ele>883.4576493287459</ele>
        <time>2022-05-19T09:56:41Z</time>
      </trkpt>
      <trkpt lat="42.365615" lon="-4.978997">
        <ele>888.6374801639467</ele>
        <time>2022-05-19T09:56:48Z</time>
      </trkpt>
      <trkpt lat="42.365664" lon="-4.979107">
        <ele>896.3906974578276</ele>
        <time>2022-05-19T09:56:57Z</time>
      </trkpt>
      <trkpt lat="42.36568" lon="-4.979233">
        <ele>900.356104772538</ele>
        <time>2022-05-19T09:57:07Z</time>
      </trkpt>
      <trkpt lat="42.365671" lon="-4.979371">
        <ele>902.4661116302013</ele>
        <time>2022-05-19T09:57:17Z</time>
      </trkpt>
      <trkpt lat="42.365661" lon="-4.979493">
        <ele>903.7848250456154</ele>
        <time>2022-05-19T09:57:23Z</time>
      </trkpt>
      <trkpt lat="42.365629" lon="-4.97962">
        <ele>904.0500839864835</ele>
        <time>2022-05-19T09:57:31Z</time>
      </trkpt>
      <trkpt lat="42.36561" lon="-4.979759">
        <ele>903.3442909466103</ele>
        <time>2022-05-19T09:57:39Z</time>
      </trkpt>
      <trkpt lat="42.365597" lon="-4.979886">
        <ele>900.5266534676775</ele>
        <time>2022-05-19T09:57:47Z</time>
      </trkpt>
      <trkpt lat="42.365573" lon="-4.980021">
        <ele>899.1801602011546</ele>
        <time>2022-05-19T09:57:56Z</time>
      </trkpt>
      <trkpt lat="42.365549" lon="-4.980142">
        <ele>899.1728367134929</ele>
        <time>2022-05-19T09:58:03Z</time>
      </trkpt>
      <trkpt lat="42.365543" lon="-4.980266">
        <ele>899.3095993194729</ele>
        <time>2022-05-19T09:58:11Z</time>
      </trkpt>
      <trkpt lat="42.365536" lon="-4.980387">
        <ele>898.055862554349</ele>
        <time>2022-05-19T09:58:17Z</time>
      </trkpt>
      <trkpt lat="42.365532" lon="-4.980513">
        <ele>898.6763958688825</ele>
        <time>2022-05-19T09:58:25Z</time>
      </trkpt>
      <trkpt lat="42.365531" lon="-4.980646">
        <ele>899.8991664480418</ele>
        <time>2022-05-19T09:58:33Z</time>
      </trkpt>
      <trkpt lat="42.365527" lon="-4.98077">
        <ele>901.1411879118532</ele>
        <time>2022-05-19T09:58:43Z</time>
      </trkpt>
      <trkpt lat="42.365531" lon="-4.980902">
        <ele>903.0561571270227</ele>
        <time>2022-05-19T09:58:51Z</time>
      </trkpt>
      <trkpt lat="42.365548" lon="-4.981027">
        <ele>904.2324116788805</ele>
        <time>2022-05-19T09:58:58Z</time>
      </trkpt>
      <trkpt lat="42.365547" lon="-4.981148">
        <ele>905.4958467958495</ele>
        <time>2022-05-19T09:59:04Z</time>
      </trkpt>
      <trkpt lat="42.36556" lon="-4.981277">
        <ele>908.3741841074079</ele>
        <time>2022-05-19T09:59:13Z</time>
      </trkpt>
      <trkpt lat="42.365563" lon="-4.981407">
        <ele>911.9152927035466</ele>
        <time>2022-05-19T09:59:23Z</time>
      </trkpt>
      <trkpt lat="42.365567" lon="-4.981532">
        <ele>914.6921898694709</ele>
        <time>2022-05-19T09:59:32Z</time>
      </trkpt>
      <trkpt lat="42.365589" lon="-4.981652">
        <ele>917.5379871213809</ele>
        <time>2022-05-19T09:59:40Z</time>
      </trkpt>
      <trkpt lat="42.365606" lon="-4.981773">
        <ele>919.9127522362396</ele>
        <time>2022-05-19T09:59:47Z</time>
      </trkpt>
      <trkpt lat="42.365648" lon="-4.981888">
        <ele>921.9600821491331</ele>
        <time>2022-05-19T09:59:54Z</time>
      </trkpt>
      <trkpt lat="42.36568" lon="-4.982003">
        <ele>926.0284897144884</ele>
        <time>2022-05-19T10:00:03Z</time>
      </trkpt>
      <trkpt lat="42.365666" lon="-4.982129">
        <ele>927.716312318109</ele>
        <time>2022-05-19T10:00:11Z</time>
      </trkpt>
      <trkpt lat="42.365695" lon="-4.982247">
        <ele>929.7719282852486</ele>
        <time>2022-05-19T10:00:18Z</time>
      </trkpt>
      <trkpt lat="42.365718" lon="-4.982379">
        <ele>933.7230536052957</ele>
        <time>2022-05-19T10:00:27Z</time>
      </trkpt>
      <trkpt lat="42.365745" lon="-4.982508">
        <ele>936.6242535701022</ele>
        <time>2022-05-19T10:00:35Z</time>
      </trkpt>
      <trkpt lat="42.365753" lon="-4.98263">
        <ele>938.0152015760541</ele>
        <time>2022-05-19T10:00:42Z</time>
      </trkpt>
      <trkpt lat="42.365774" lon="-4.982762">
        <ele>939.4157994966954</ele>
        <time>2022-05-19T10:00:50Z</time>
      </trkpt>
      <trkpt lat="42.365802" lon="-4.982881">
        <ele>941.1028235545382</ele>
        <time>2022-05-19T10:00:58Z</time>
      </trkpt>
      <trkpt lat="42.365813" lon="-4.983005">
        <ele>943.285963870585</ele>
        <time>2022-05-19T10:01:07Z</time>
      </trkpt>
      <trkpt lat="42.365814" lon="-4.983137">
        <ele>945.3484032927081</ele>
        <time>2022-05-19T10:01:13Z</time>
      </trkpt>
      <trkpt lat="42.36584" lon="-4.983275">
        <ele>947.1212109085172</ele>
        <time>2022-05-19T10:01:22Z</time>
      </trkpt>
      <trkpt lat="42.365859" lon="-4.983407">
        <ele>947.8393593449146</ele>
        <time>2022-05-19T10:01:30Z</time>
      </trkpt>
      <trkpt lat="42.36589" lon="-4.983528">
        <ele>948.8329297546297</ele>
        <time>2022-05-19T10:01:38Z</time>
      </trkpt>
      <trkpt lat="42.36591" lon="-4.983651">
        <ele>949.570156189613</ele>
        <time>2022-05-19T10:01:45Z</time>
      </trkpt>
      <trkpt lat="42.365923" lon="-4.983793">
        <ele>949.4593569962308</ele>
        <time>2022-05-19T10:01:53Z</time>
      </trkpt>
      <trkpt lat="42.365955" lon="-4.983923">
        <ele>948.1973996022716</ele>
        <time>2022-05-19T10:01:58Z</time>
      </trkpt>
      <trkpt lat="42.365975" lon="-4.984045">
        <ele>947.5283987056464</ele>
        <time>2022-05-19T10:02:05Z</time>
      </trkpt>
      <trkpt lat="42.365982" lon="-4.984172">
        <ele>947.6416707374156</ele>
        <time>2022-05-19T10:02:11Z</time>
      </trkpt>
      <trkpt lat="42.365987" lon="-4.984311">
        <ele>948.0533612985164</ele>
        <time>2022-05-19T10:02:18Z</time>
      </trkpt>
      <trkpt lat="42.365997" lon="-4.984433">
        <ele>948.1549849053845</ele>
        <time>2022-05-19T10:02:24Z</time>
      </trkpt>
      <trkpt lat="42.36602" lon="-4.984566">
        <ele>948.8862864226103</ele>
        <time>2022-05-19T10:02:30Z</time>
      </trkpt>
      <trkpt lat="42.366045" lon="-4.984703">
        <ele>948.8853894704953</ele>
        <time>2022-05-19T10:02:36Z</time>
      </trkpt>
      <trkpt lat="42.366055" lon="-4.984827">
        <ele>949.446097525768</ele>
        <time>2022-05-19T10:02:42Z</time>
      </trkpt>
      <trkpt lat="42.366059" lon="-4.984963">
        <ele>949.5136785944924</ele>
        <time>2022-05-19T10:02:49Z</time>
      </trkpt>
      <trkpt lat="42.366069" lon="-4.985086">
        <ele>949.4364330861717</ele>
        <time>2022-05-19T10:02:55Z</time>
      </trkpt>
      <trkpt lat="42.366055" lon="-4.985214">
        <ele>948.3515703091398</ele>
        <time>2022-05-19T10:03:01Z</time>
      </trkpt>
      <trkpt lat="42.36606" lon="-4.985347">
        <ele>946.6083154706284</ele>
        <time>2022-05-19T10:03:08Z</time>
      </trkpt>
      <trkpt lat="42.366067" lon="-4.985485">
        <ele>943.7411436056718</ele>
        <time>2022-05-19T10:03:15Z</time>
      </trkpt>
      <trkpt lat="42.366096" lon="-4.985612">
        <ele>941.3027695529163</ele>
        <time>2022-05-19T10:03:24Z</time>
      </trkpt>
      <trkpt lat="42.366107" lon="-4.985744">
        <ele>940.6931476797909</ele>
        <time>2022-05-19T10:03:31Z</time>
      </trkpt>
      <trkpt lat="42.366128" lon="-4.985886">
        <ele>939.6864893706515</ele>
        <time>2022-05-19T10:03:38Z</time>
      </trkpt>
      <trkpt lat="42.36615" lon="-4.986009">
        <ele>939.9662617463619</ele>
        <time>2022-05-19T10:03:45Z</time>
      </trkpt>
      <trkpt lat="42.366169" lon="-4.986141">
        <ele>941.1406082119793</ele>
        <time>2022-05-19T10:03:52Z</time>
      </trkpt>
      <trkpt lat="42.366174" lon="-4.986266">
        <ele>941.0066513158381</ele>
        <time>2022-05-19T10:03:58Z</time>
      </trkpt>
      <trkpt lat="42.366188" lon="-4.986386">
        <ele>939.2360495170578</ele>
        <time>2022-05-19T10:04:05Z</time>
      </trkpt>
      <trkpt lat="42.3662" lon="-4.986522">
        <ele>935.872744130902</ele>
        <time>2022-05-19T10:04:11Z</time>
      </trkpt>
      <trkpt lat="42.366206" lon="-4.986657">
        <ele>934.7634625807405</ele>
        <time>2022-05-19T10:04:17Z</time>
      </trkpt>
      <trkpt lat="42.36621" lon="-4.986801">
        <ele>932.2296366216615</ele>
        <time>2022-05-19T10:04:23Z</time>
      </trkpt>
      <trkpt lat="42.366218" lon="-4.98694">
        <ele>930.3286337694153</ele>
        <time>2022-05-19T10:04:28Z</time>
      </trkpt>
      <trkpt lat="42.366224" lon="-4.987066">
        <ele>927.0886888569221</ele>
        <time>2022-05-19T10:04:35Z</time>
      </trkpt>
      <trkpt lat="42.366219" lon="-4.987188">
        <ele>925.2950178375468</ele>
        <time>2022-05-19T10:04:41Z</time>
      </trkpt>
      <trkpt lat="42.366229" lon="-4.98731">
        <ele>922.8640281055123</ele>
        <time>2022-05-19T10:04:48Z</time>
      </trkpt>
      <trkpt lat="42.366241" lon="-4.987446">
        <ele>921.0457138279453</ele>
        <time>2022-05-19T10:04:54Z</time>
      </trkpt>
      <trkpt lat="42.366248" lon="-4.987584">
        <ele>919.6126480633393</ele>
        <time>2022-05-19T10:05:00Z</time>
      </trkpt>
      <trkpt lat="42.366269" lon="-4.98772">
        <ele>919.8020469890907</ele>
        <time>2022-05-19T10:05:06Z</time>
      </trkpt>
      <trkpt lat="42.366267" lon="-4.987855">
        <ele>917.8061797013506</ele>
        <time>2022-05-19T10:05:13Z</time>
      </trkpt>
      <trkpt lat="42.366267" lon="-4.987981">
        <ele>915.8658815836534</ele>
        <time>2022-05-19T10:05:21Z</time>
      </trkpt>
      <trkpt lat="42.366276" lon="-4.988109">
        <ele>914.9366819960997</ele>
        <time>2022-05-19T10:05:28Z</time>
      </trkpt>
      <trkpt lat="42.366304" lon="-4.988231">
        <ele>914.0028950730339</ele>
        <time>2022-05-19T10:05:35Z</time>
      </trkpt>
      <trkpt lat="42.36631" lon="-4.988366">
        <ele>913.332661356777</ele>
        <time>2022-05-19T10:05:42Z</time>
      </trkpt>
      <trkpt lat="42.366328" lon="-4.988497">
        <ele>913.4755749991164</ele>
        <time>2022-05-19T10:05:50Z</time>
      </trkpt>
      <trkpt lat="42.366344" lon="-4.988634">
        <ele>913.0478410692886</ele>
        <time>2022-05-19T10:05:58Z</time>
      </trkpt>
      <trkpt lat="42.366367" lon="-4.988755">
        <ele>913.8768116701394</ele>
        <time>2022-05-19T10:06:06Z</time>
      </trkpt>
      <trkpt lat="42.3664" lon="-4.988878">
        <ele>915.5978353144601</ele>
        <time>2022-05-19T10:06:15Z</time>
      </trkpt>
      <trkpt lat="42.366439" lon="-4.988987">
        <ele>917.6842589946464</ele>
        <time>2022-05-19T10:06:28Z</time>
      </trkpt>
      <trkpt lat="42.366472" lon="-4.989102">
        <ele>918.2868547672406</ele>
        <time>2022-05-19T10:06:37Z</time>
      </trkpt>
      <trkpt lat="42.366482" lon="-4.989228">
        <ele>918.706057490781</ele>
        <time>2022-05-19T10:06:45Z</time>
      </trkpt>
      <trkpt lat="42.366491" lon="-4.989354">
        <ele>919.7434948440641</ele>
        <time>2022-05-19T10:06:52Z</time>
      </trkpt>
      <trkpt lat="42.366514" lon="-4.98948">
        <ele>920.9592797225341</ele>
        <time>2022-05-19T10:06:59Z</time>
      </trkpt>
      <trkpt lat="42.36654" lon="-4.989615">
        <ele>920.8965113470331</ele>
        <time>2022-05-19T10:07:08Z</time>
      </trkpt>
      <trkpt lat="42.366551" lon="-4.989749">
        <ele>920.0677501503378</ele>
        <time>2022-05-19T10:07:17Z</time>
      </trkpt>
      <trkpt lat="42.366554" lon="-4.989886">
        <ele>920.2434508623555</ele>
        <time>2022-05-19T10:07:25Z</time>
      </trkpt>
      <trkpt lat="42.366568" lon="-4.990026">
        <ele>921.0711287576705</ele>
        <time>2022-05-19T10:07:33Z</time>
      </trkpt>
      <trkpt lat="42.366578" lon="-4.990154">
        <ele>921.642386850901</ele>
        <time>2022-05-19T10:07:38Z</time>
      </trkpt>
      <trkpt lat="42.366587" lon="-4.990279">
        <ele>921.2641631104052</ele>
        <time>2022-05-19T10:07:45Z</time>
      </trkpt>
      <trkpt lat="42.366597" lon="-4.990406">
        <ele>921.658606460318</ele>
        <time>2022-05-19T10:07:52Z</time>
      </trkpt>
      <trkpt lat="42.3666" lon="-4.990544">
        <ele>922.8350575249642</ele>
        <time>2022-05-19T10:07:58Z</time>
      </trkpt>
      <trkpt lat="42.366606" lon="-4.990675">
        <ele>923.2826948231086</ele>
        <time>2022-05-19T10:08:04Z</time>
      </trkpt>
      <trkpt lat="42.36661" lon="-4.990811">
        <ele>923.3878556685522</ele>
        <time>2022-05-19T10:08:12Z</time>
      </trkpt>
      <trkpt lat="42.366624" lon="-4.990937">
        <ele>923.9950949540362</ele>
        <time>2022-05-19T10:08:17Z</time>
      </trkpt>
      <trkpt lat="42.366636" lon="-4.99107">
        <ele>924.7795802690089</ele>
        <time>2022-05-19T10:08:24Z</time>
      </trkpt>
      <trkpt lat="42.366652" lon="-4.991196">
        <ele>925.0342160379514</ele>
        <time>2022-05-19T10:08:32Z</time>
      </trkpt>
      <trkpt lat="42.366677" lon="-4.991314">
        <ele>924.2025560308248</ele>
        <time>2022-05-19T10:08:38Z</time>
      </trkpt>
      <trkpt lat="42.366687" lon="-4.991451">
        <ele>924.7423764802516</ele>
        <time>2022-05-19T10:08:45Z</time>
      </trkpt>
      <trkpt lat="42.366693" lon="-4.99159">
        <ele>924.5090221231803</ele>
        <time>2022-05-19T10:08:52Z</time>
      </trkpt>
      <trkpt lat="42.366708" lon="-4.991725">
        <ele>924.409335446544</ele>
        <time>2022-05-19T10:08:58Z</time>
      </trkpt>
      <trkpt lat="42.366719" lon="-4.991854">
        <ele>924.090096254833</ele>
        <time>2022-05-19T10:09:05Z</time>
      </trkpt>
      <trkpt lat="42.366738" lon="-4.991984">
        <ele>921.041273468174</ele>
        <time>2022-05-19T10:09:15Z</time>
      </trkpt>
      <trkpt lat="42.366722" lon="-4.992117">
        <ele>919.5071795247495</ele>
        <time>2022-05-19T10:09:22Z</time>
      </trkpt>
      <trkpt lat="42.366738" lon="-4.992246">
        <ele>919.0871219094843</ele>
        <time>2022-05-19T10:09:28Z</time>
      </trkpt>
      <trkpt lat="42.366751" lon="-4.992377">
        <ele>919.4550255304202</ele>
        <time>2022-05-19T10:09:33Z</time>
      </trkpt>
      <trkpt lat="42.366768" lon="-4.992509">
        <ele>918.9667207943276</ele>
        <time>2022-05-19T10:09:40Z</time>
      </trkpt>
      <trkpt lat="42.366772" lon="-4.992636">
        <ele>917.0013747205958</ele>
        <time>2022-05-19T10:09:46Z</time>
      </trkpt>
      <trkpt lat="42.36679" lon="-4.992761">
        <ele>915.5873328363523</ele>
        <time>2022-05-19T10:09:52Z</time>
      </trkpt>
      <trkpt lat="42.366802" lon="-4.992895">
        <ele>914.3187088137493</ele>
        <time>2022-05-19T10:09:58Z</time>
      </trkpt>
      <trkpt lat="42.366839" lon="-4.993025">
        <ele>912.1191947413608</ele>
        <time>2022-05-19T10:10:07Z</time>
      </trkpt>
      <trkpt lat="42.366863" lon="-4.993152">
        <ele>910.8943029176444</ele>
        <time>2022-05-19T10:10:15Z</time>
      </trkpt>
      <trkpt lat="42.366879" lon="-4.993281">
        <ele>910.1786042544991</ele>
        <time>2022-05-19T10:10:23Z</time>
      </trkpt>
      <trkpt lat="42.366893" lon="-4.993411">
        <ele>908.669861969538</ele>
        <time>2022-05-19T10:10:30Z</time>
      </trkpt>
      <trkpt lat="42.366901" lon="-4.993543">
        <ele>907.9387335283682</ele>
        <time>2022-05-19T10:10:37Z</time>
      </trkpt>
      <trkpt lat="42.366918" lon="-4.993662">
        <ele>906.846583432518</ele>
        <time>2022-05-19T10:10:43Z</time>
      </trkpt>
      <trkpt lat="42.366937" lon="-4.993782">
        <ele>906.4074180684984</ele>
        <time>2022-05-19T10:10:50Z</time>
      </trkpt>
      <trkpt lat="42.366953" lon="-4.993901">
        <ele>905.8829517206177</ele>
        <time>2022-05-19T10:10:57Z</time>
      </trkpt>
      <trkpt lat="42.366972" lon="-4.99404">
        <ele>905.8836898868904</ele>
        <time>2022-05-19T10:11:05Z</time>
      </trkpt>
      <trkpt lat="42.366986" lon="-4.99417">
        <ele>906.4232529168949</ele>
        <time>2022-05-19T10:11:11Z</time>
      </trkpt>
      <trkpt lat="42.366995" lon="-4.994306">
        <ele>906.0216067079455</ele>
        <time>2022-05-19T10:11:18Z</time>
      </trkpt>
      <trkpt lat="42.367005" lon="-4.994428">
        <ele>905.628075318411</ele>
        <time>2022-05-19T10:11:23Z</time>
      </trkpt>
      <trkpt lat="42.367009" lon="-4.994555">
        <ele>905.3410498583689</ele>
        <time>2022-05-19T10:11:31Z</time>
      </trkpt>
      <trkpt lat="42.367012" lon="-4.994686">
        <ele>904.4085594648495</ele>
        <time>2022-05-19T10:11:36Z</time>
      </trkpt>
      <trkpt lat="42.367036" lon="-4.994822">
        <ele>904.2039126744494</ele>
        <time>2022-05-19T10:11:42Z</time>
      </trkpt>
      <trkpt lat="42.367041" lon="-4.994949">
        <ele>901.7029920574278</ele>
        <time>2022-05-19T10:11:48Z</time>
      </trkpt>
      <trkpt lat="42.367061" lon="-4.99508">
        <ele>899.4019216401502</ele>
        <time>2022-05-19T10:11:56Z</time>
      </trkpt>
      <trkpt lat="42.367069" lon="-4.995208">
        <ele>898.4595812661573</ele>
        <time>2022-05-19T10:12:03Z</time>
      </trkpt>
      <trkpt lat="42.367079" lon="-4.995344">
        <ele>897.9729533167556</ele>
        <time>2022-05-19T10:12:10Z</time>
      </trkpt>
      <trkpt lat="42.367069" lon="-4.995472">
        <ele>896.0572128007188</ele>
        <time>2022-05-19T10:12:17Z</time>
      </trkpt>
      <trkpt lat="42.367084" lon="-4.995602">
        <ele>894.9749104138464</ele>
        <time>2022-05-19T10:12:22Z</time>
      </trkpt>
      <trkpt lat="42.367093" lon="-4.995725">
        <ele>894.4152120538056</ele>
        <time>2022-05-19T10:12:28Z</time>
      </trkpt>
      <trkpt lat="42.367113" lon="-4.995855">
        <ele>893.7807540092617</ele>
        <time>2022-05-19T10:12:36Z</time>
      </trkpt>
      <trkpt lat="42.367127" lon="-4.995987">
        <ele>892.7661146810278</ele>
        <time>2022-05-19T10:12:43Z</time>
      </trkpt>
      <trkpt lat="42.367121" lon="-4.996111">
        <ele>892.2195123890415</ele>
        <time>2022-05-19T10:12:50Z</time>
      </trkpt>
      <trkpt lat="42.367108" lon="-4.996235">
        <ele>893.018805636093</ele>
        <time>2022-05-19T10:12:57Z</time>
      </trkpt>
      <trkpt lat="42.367103" lon="-4.996358">
        <ele>893.6409121584147</ele>
        <time>2022-05-19T10:13:03Z</time>
      </trkpt>
      <trkpt lat="42.367106" lon="-4.996498">
        <ele>893.8796690413728</ele>
        <time>2022-05-19T10:13:12Z</time>
      </trkpt>
      <trkpt lat="42.367131" lon="-4.996624">
        <ele>894.3970610415563</ele>
        <time>2022-05-19T10:13:19Z</time>
      </trkpt>
      <trkpt lat="42.367133" lon="-4.996757">
        <ele>894.486488959752</ele>
        <time>2022-05-19T10:13:25Z</time>
      </trkpt>
      <trkpt lat="42.367146" lon="-4.996884">
        <ele>895.2662894269451</ele>
        <time>2022-05-19T10:13:32Z</time>
      </trkpt>
      <trkpt lat="42.367147" lon="-4.997006">
        <ele>894.6174911465496</ele>
        <time>2022-05-19T10:13:38Z</time>
      </trkpt>
      <trkpt lat="42.367141" lon="-4.997131">
        <ele>893.7589617380872</ele>
        <time>2022-05-19T10:13:45Z</time>
      </trkpt>
      <trkpt lat="42.367164" lon="-4.997264">
        <ele>893.4780000085011</ele>
        <time>2022-05-19T10:13:54Z</time>
      </trkpt>
      <trkpt lat="42.367188" lon="-4.997381">
        <ele>892.7841108273715</ele>
        <time>2022-05-19T10:14:00Z</time>
      </trkpt>
      <trkpt lat="42.3672" lon="-4.997507">
        <ele>891.1911466903985</ele>
        <time>2022-05-19T10:14:05Z</time>
      </trkpt>
      <trkpt lat="42.367214" lon="-4.997635">
        <ele>890.5342864040285</ele>
        <time>2022-05-19T10:14:12Z</time>
      </trkpt>
      <trkpt lat="42.367241" lon="-4.997759">
        <ele>890.2145359814167</ele>
        <time>2022-05-19T10:14:18Z</time>
      </trkpt>
      <trkpt lat="42.367265" lon="-4.997886">
        <ele>890.0176737876609</ele>
        <time>2022-05-19T10:14:25Z</time>
      </trkpt>
      <trkpt lat="42.36727" lon="-4.998021">
        <ele>889.7118569677696</ele>
        <time>2022-05-19T10:14:33Z</time>
      </trkpt>
      <trkpt lat="42.367271" lon="-4.998153">
        <ele>889.027696008794</ele>
        <time>2022-05-19T10:14:40Z</time>
      </trkpt>
      <trkpt lat="42.367266" lon="-4.998279">
        <ele>887.6480629704893</ele>
        <time>2022-05-19T10:14:46Z</time>
      </trkpt>
      <trkpt lat="42.367285" lon="-4.998411">
        <ele>886.5786600522697</ele>
        <time>2022-05-19T10:14:52Z</time>
      </trkpt>
      <trkpt lat="42.367292" lon="-4.998551">
        <ele>886.3044728059322</ele>
        <time>2022-05-19T10:14:59Z</time>
      </trkpt>
      <trkpt lat="42.367305" lon="-4.998686">
        <ele>885.3167297486216</ele>
        <time>2022-05-19T10:15:06Z</time>
      </trkpt>
      <trkpt lat="42.367321" lon="-4.998822">
        <ele>884.6811327459291</ele>
        <time>2022-05-19T10:15:13Z</time>
      </trkpt>
      <trkpt lat="42.367323" lon="-4.998958">
        <ele>881.2442279634997</ele>
        <time>2022-05-19T10:15:21Z</time>
      </trkpt>
      <trkpt lat="42.367324" lon="-4.999088">
        <ele>879.1456538010389</ele>
        <time>2022-05-19T10:15:28Z</time>
      </trkpt>
      <trkpt lat="42.367315" lon="-4.99921">
        <ele>877.8741780938581</ele>
        <time>2022-05-19T10:15:33Z</time>
      </trkpt>
      <trkpt lat="42.3673" lon="-4.99935">
        <ele>876.3553564259782</ele>
        <time>2022-05-19T10:15:41Z</time>
      </trkpt>
      <trkpt lat="42.367297" lon="-4.99948">
        <ele>874.9522110149264</ele>
        <time>2022-05-19T10:15:46Z</time>
      </trkpt>
      <trkpt lat="42.367304" lon="-4.999605">
        <ele>874.4662955300882</ele>
        <time>2022-05-19T10:15:54Z</time>
      </trkpt>
      <trkpt lat="42.367371" lon="-4.999713">
        <ele>876.0182186802849</ele>
        <time>2022-05-19T10:16:06Z</time>
      </trkpt>
      <trkpt lat="42.367431" lon="-4.999818">
        <ele>877.3566190330312</ele>
        <time>2022-05-19T10:16:13Z</time>
      </trkpt>
      <trkpt lat="42.367484" lon="-4.999924">
        <ele>879.5205397838727</ele>
        <time>2022-05-19T10:16:21Z</time>
      </trkpt>
      <trkpt lat="42.367551" lon="-5.00003">
        <ele>882.123537927866</ele>
        <time>2022-05-19T10:16:27Z</time>
      </trkpt>
      <trkpt lat="42.367635" lon="-5.000082">
        <ele>882.1344582699239</ele>
        <time>2022-05-19T10:16:48Z</time>
      </trkpt>
      <trkpt lat="42.367727" lon="-5.000072">
        <ele>881.6946953106672</ele>
        <time>2022-05-19T10:17:02Z</time>
      </trkpt>
      <trkpt lat="42.367817" lon="-5.00002">
        <ele>879.5018887864426</ele>
        <time>2022-05-19T10:17:23Z</time>
      </trkpt>
      <trkpt lat="42.367909" lon="-5.000017">
        <ele>877.935612782836</ele>
        <time>2022-05-19T10:17:41Z</time>
      </trkpt>
      <trkpt lat="42.368005" lon="-5.000029">
        <ele>880.3394649382681</ele>
        <time>2022-05-19T10:17:50Z</time>
      </trkpt>
      <trkpt lat="42.3681" lon="-5.000016">
        <ele>878.6409032214433</ele>
        <time>2022-05-19T10:18:00Z</time>
      </trkpt>
      <trkpt lat="42.368198" lon="-5.0">
        <ele>875.8978565242141</ele>
        <time>2022-05-19T10:18:08Z</time>
      </trkpt>
      <trkpt lat="42.368288" lon="-4.999991">
        <ele>873.4422144666314</ele>
        <time>2022-05-19T10:18:16Z</time>
      </trkpt>
      <trkpt lat="42.368379" lon="-4.999975">
        <ele>870.4662330737337</ele>
        <time>2022-05-19T10:18:24Z</time>
      </trkpt>
      <trkpt lat="42.368473" lon="-4.999964">
        <ele>868.257346729748</ele>
        <time>2022-05-19T10:18:33Z</time>
      </trkpt>
      <trkpt lat="42.36857" lon="-4.999934">
        <ele>867.1091782683507</ele>
        <time>2022-05-19T10:18:43Z</time>
      </trkpt>
      <trkpt lat="42.368666" lon="-4.999905">
        <ele>868.0298346718773</ele>
        <time>2022-05-19T10:18:56Z</time>
      </trkpt>
      <trkpt lat="42.368761" lon="-4.999891">
        <ele>867.3428277466446</ele>
        <time>2022-05-19T10:19:05Z</time>
      </trkpt>
      <trkpt lat="42.368851" lon="-4.999871">
        <ele>867.6507159881294</ele>
        <time>2022-05-19T10:19:16Z</time>
      </trkpt>
      <trkpt lat="42.368953" lon="-4.999882">
        <ele>868.5852750809863</ele>
        <time>2022-05-19T10:19:27Z</time>
      </trkpt>
      <trkpt lat="42.369049" lon="-4.999846">
        <ele>867.3380874600261</ele>
        <time>2022-05-19T10:19:35Z</time>
      </trkpt>
      <trkpt lat="42.369139" lon="-4.999828">
        <ele>867.4483116362244</ele>
        <time>2022-05-19T10:19:43Z</time>
      </trkpt>
      <trkpt lat="42.369236" lon="-4.999816">
        <ele>866.2250733720139</ele>
        <time>2022-05-19T10:19:52Z</time>
      </trkpt>
      <trkpt lat="42.369338" lon="-4.999793">
        <ele>865.9263153774664</ele>
        <time>2022-05-19T10:19:58Z</time>
      </trkpt>
      <trkpt lat="42.369431" lon="-4.999781">
        <ele>865.5984863741323</ele>
        <time>2022-05-19T10:20:07Z</time>
      </trkpt>
      <trkpt lat="42.369526" lon="-4.999761">
        <ele>866.2189185135067</ele>
        <time>2022-05-19T10:20:17Z</time>
      </trkpt>
      <trkpt lat="42.369628" lon="-4.999768">
        <ele>868.082711503841</ele>
        <time>2022-05-19T10:20:23Z</time>
      </trkpt>
      <trkpt lat="42.369726" lon="-4.999753">
        <ele>867.8222647923976</ele>
        <time>2022-05-19T10:20:32Z</time>
      </trkpt>
      <trkpt lat="42.369822" lon="-4.99973">
        <ele>868.4287504125386</ele>
        <time>2022-05-19T10:20:43Z</time>
      </trkpt>
      <trkpt lat="42.369913" lon="-4.99972">
        <ele>869.1023695021868</ele>
        <time>2022-05-19T10:20:50Z</time>
      </trkpt>
      <trkpt lat="42.370008" lon="-4.999708">
        <ele>867.9197375383228</ele>
        <time>2022-05-19T10:21:11Z</time>
      </trkpt>
      <trkpt lat="42.3701" lon="-4.999715">
        <ele>869.8779794089496</ele>
        <time>2022-05-19T10:21:35Z</time>
      </trkpt>
      <trkpt lat="42.370186" lon="-4.999653">
        <ele>869.8398775914684</ele>
        <time>2022-05-19T10:23:10Z</time>
      </trkpt>
      <trkpt lat="42.370282" lon="-4.999655">
        <ele>868.6548719452694</ele>
        <time>2022-05-19T10:23:19Z</time>
      </trkpt>
      <trkpt lat="42.370344" lon="-4.999743">
        <ele>868.483124663122</ele>
        <time>2022-05-19T10:23:29Z</time>
      </trkpt>
      <trkpt lat="42.370395" lon="-4.999849">
        <ele>869.337850023061</ele>
        <time>2022-05-19T10:23:54Z</time>
      </trkpt>
      <trkpt lat="42.370423" lon="-4.99997">
        <ele>869.1937688663602</ele>
        <time>2022-05-19T10:24:02Z</time>
      </trkpt>
      <trkpt lat="42.370445" lon="-5.000099">
        <ele>872.0323332361877</ele>
        <time>2022-05-19T10:24:55Z</time>
      </trkpt>
      <trkpt lat="42.370394" lon="-5.0002">
        <ele>872.278135205619</ele>
        <time>2022-05-19T10:25:02Z</time>
      </trkpt>
      <trkpt lat="42.370327" lon="-5.000298">
        <ele>872.7266272278503</ele>
        <time>2022-05-19T10:25:11Z</time>
      </trkpt>
      <trkpt lat="42.370277" lon="-5.000401">
        <ele>872.3022743370384</ele>
        <time>2022-05-19T10:25:20Z</time>
      </trkpt>
      <trkpt lat="42.370222" lon="-5.00051">
        <ele>875.7478812364861</ele>
        <time>2022-05-19T10:26:48Z</time>
      </trkpt>
      <trkpt lat="42.370149" lon="-5.000597">
        <ele>877.0197459999472</ele>
        <time>2022-05-19T10:26:56Z</time>
      </trkpt>
      <trkpt lat="42.370071" lon="-5.000692">
        <ele>879.3840907020494</ele>
        <time>2022-05-19T10:27:03Z</time>
      </trkpt>
      <trkpt lat="42.369987" lon="-5.000775">
        <ele>880.4528918033466</ele>
        <time>2022-05-19T10:27:11Z</time>
      </trkpt>
      <trkpt lat="42.369929" lon="-5.00088">
        <ele>879.7890828670934</ele>
        <time>2022-05-19T10:27:18Z</time>
      </trkpt>
      <trkpt lat="42.369866" lon="-5.000977">
        <ele>879.991081639193</ele>
        <time>2022-05-19T10:27:26Z</time>
      </trkpt>
      <trkpt lat="42.369811" lon="-5.001075">
        <ele>880.289845704101</ele>
        <time>2022-05-19T10:27:34Z</time>
      </trkpt>
      <trkpt lat="42.369761" lon="-5.001178">
        <ele>878.5340781733394</ele>
        <time>2022-05-19T10:27:43Z</time>
      </trkpt>
      <trkpt lat="42.369733" lon="-5.001296">
        <ele>881.453367434442</ele>
        <time>2022-05-19T10:27:56Z</time>
      </trkpt>
      <trkpt lat="42.369689" lon="-5.001415">
        <ele>882.8583288155496</ele>
        <time>2022-05-19T10:28:06Z</time>
      </trkpt>
      <trkpt lat="42.369648" lon="-5.001525">
        <ele>883.5141420429572</ele>
        <time>2022-05-19T10:28:15Z</time>
      </trkpt>
      <trkpt lat="42.369656" lon="-5.001656">
        <ele>887.0859627919272</ele>
        <time>2022-05-19T10:28:23Z</time>
      </trkpt>
      <trkpt lat="42.369613" lon="-5.001781">
        <ele>889.4706419818103</ele>
        <time>2022-05-19T10:28:31Z</time>
      </trkpt>
      <trkpt lat="42.369593" lon="-5.001904">
        <ele>889.1920361956581</ele>
        <time>2022-05-19T10:28:38Z</time>
      </trkpt>
      <trkpt lat="42.369579" lon="-5.002035">
        <ele>890.3929702155292</ele>
        <time>2022-05-19T10:28:46Z</time>
      </trkpt>
      <trkpt lat="42.369566" lon="-5.002159">
        <ele>892.8773489622399</ele>
        <time>2022-05-19T10:28:53Z</time>
      </trkpt>
      <trkpt lat="42.369539" lon="-5.00229">
        <ele>893.4867982491851</ele>
        <time>2022-05-19T10:29:00Z</time>
      </trkpt>
      <trkpt lat="42.369498" lon="-5.002406">
        <ele>891.4222408151254</ele>
        <time>2022-05-19T10:29:05Z</time>
      </trkpt>
      <trkpt lat="42.369457" lon="-5.002526">
        <ele>889.3030687915161</ele>
        <time>2022-05-19T10:29:13Z</time>
      </trkpt>
      <trkpt lat="42.369443" lon="-5.002649">
        <ele>886.5011733723804</ele>
        <time>2022-05-19T10:29:23Z</time>
      </trkpt>
      <trkpt lat="42.369423" lon="-5.00277">
        <ele>886.2111146906391</ele>
        <time>2022-05-19T10:29:32Z</time>
      </trkpt>
      <trkpt lat="42.369421" lon="-5.002904">
        <ele>887.0866229431704</ele>
        <time>2022-05-19T10:29:40Z</time>
      </trkpt>
      <trkpt lat="42.369422" lon="-5.003027">
        <ele>887.5564842540771</ele>
        <time>2022-05-19T10:29:47Z</time>
      </trkpt>
      <trkpt lat="42.369423" lon="-5.003149">
        <ele>886.2436711341143</ele>
        <time>2022-05-19T10:29:54Z</time>
      </trkpt>
      <trkpt lat="42.369418" lon="-5.003276">
        <ele>885.6459270631894</ele>
        <time>2022-05-19T10:30:02Z</time>
      </trkpt>
      <trkpt lat="42.36943" lon="-5.003405">
        <ele>884.5261132847518</ele>
        <time>2022-05-19T10:30:10Z</time>
      </trkpt>
      <trkpt lat="42.369447" lon="-5.003532">
        <ele>884.7430025655776</ele>
        <time>2022-05-19T10:30:20Z</time>
      </trkpt>
      <trkpt lat="42.369457" lon="-5.003662">
        <ele>884.7327896477655</ele>
        <time>2022-05-19T10:30:27Z</time>
      </trkpt>
      <trkpt lat="42.369446" lon="-5.003794">
        <ele>884.3223030427471</ele>
        <time>2022-05-19T10:30:34Z</time>
      </trkpt>
      <trkpt lat="42.369439" lon="-5.003923">
        <ele>882.0924946898594</ele>
        <time>2022-05-19T10:30:42Z</time>
      </trkpt>
      <trkpt lat="42.36943" lon="-5.004056">
        <ele>880.0816116407514</ele>
        <time>2022-05-19T10:30:50Z</time>
      </trkpt>
      <trkpt lat="42.369431" lon="-5.004182">
        <ele>879.0632211659104</ele>
        <time>2022-05-19T10:30:56Z</time>
      </trkpt>
      <trkpt lat="42.36944" lon="-5.004315">
        <ele>878.3033139640465</ele>
        <time>2022-05-19T10:31:05Z</time>
      </trkpt>
      <trkpt lat="42.369466" lon="-5.004448">
        <ele>880.2897290270776</ele>
        <time>2022-05-19T10:31:13Z</time>
      </trkpt>
      <trkpt lat="42.369461" lon="-5.004575">
        <ele>881.1074852645397</ele>
        <time>2022-05-19T10:31:21Z</time>
      </trkpt>
      <trkpt lat="42.369463" lon="-5.004704">
        <ele>880.1613805172965</ele>
        <time>2022-05-19T10:31:28Z</time>
      </trkpt>
      <trkpt lat="42.369464" lon="-5.004833">
        <ele>880.5755964266136</ele>
        <time>2022-05-19T10:31:37Z</time>
      </trkpt>
      <trkpt lat="42.369467" lon="-5.004957">
        <ele>881.0403876956552</ele>
        <time>2022-05-19T10:31:44Z</time>
      </trkpt>
      <trkpt lat="42.369463" lon="-5.005082">
        <ele>880.8325451146811</ele>
        <time>2022-05-19T10:31:50Z</time>
      </trkpt>
      <trkpt lat="42.369448" lon="-5.005209">
        <ele>877.9006371106952</ele>
        <time>2022-05-19T10:31:56Z</time>
      </trkpt>
      <trkpt lat="42.369426" lon="-5.005341">
        <ele>875.3096631104127</ele>
        <time>2022-05-19T10:32:05Z</time>
      </trkpt>
      <trkpt lat="42.369438" lon="-5.005479">
        <ele>875.5005283160135</ele>
        <time>2022-05-19T10:32:13Z</time>
      </trkpt>
      <trkpt lat="42.369439" lon="-5.005613">
        <ele>875.309546216391</ele>
        <time>2022-05-19T10:32:20Z</time>
      </trkpt>
      <trkpt lat="42.369448" lon="-5.005744">
        <ele>875.3127354178578</ele>
        <time>2022-05-19T10:32:26Z</time>
      </trkpt>
      <trkpt lat="42.369452" lon="-5.00587">
        <ele>876.2340894937515</ele>
        <time>2022-05-19T10:32:35Z</time>
      </trkpt>
      <trkpt lat="42.369455" lon="-5.005998">
        <ele>877.8845565319061</ele>
        <time>2022-05-19T10:32:42Z</time>
      </trkpt>
      <trkpt lat="42.369443" lon="-5.006135">
        <ele>878.1170327644795</ele>
        <time>2022-05-19T10:32:53Z</time>
      </trkpt>
      <trkpt lat="42.369457" lon="-5.006266">
        <ele>879.1714757708833</ele>
        <time>2022-05-19T10:33:02Z</time>
      </trkpt>
      <trkpt lat="42.369451" lon="-5.006404">
        <ele>877.9527372317389</ele>
        <time>2022-05-19T10:33:08Z</time>
      </trkpt>
      <trkpt lat="42.369459" lon="-5.006537">
        <ele>878.1842560628429</ele>
        <time>2022-05-19T10:33:16Z</time>
      </trkpt>
      <trkpt lat="42.369489" lon="-5.006652">
        <ele>879.4586672792211</ele>
        <time>2022-05-19T10:33:23Z</time>
      </trkpt>
      <trkpt lat="42.369502" lon="-5.006786">
        <ele>877.5684675592929</ele>
        <time>2022-05-19T10:33:31Z</time>
      </trkpt>
      <trkpt lat="42.369525" lon="-5.006912">
        <ele>876.0355972070247</ele>
        <time>2022-05-19T10:33:38Z</time>
      </trkpt>
      <trkpt lat="42.36954" lon="-5.00704">
        <ele>877.0280155027285</ele>
        <time>2022-05-19T10:33:47Z</time>
      </trkpt>
      <trkpt lat="42.369553" lon="-5.007179">
        <ele>876.301595932804</ele>
        <time>2022-05-19T10:33:53Z</time>
      </trkpt>
      <trkpt lat="42.369568" lon="-5.007309">
        <ele>876.1768342228606</ele>
        <time>2022-05-19T10:34:01Z</time>
      </trkpt>
      <trkpt lat="42.369591" lon="-5.007444">
        <ele>874.0723866270855</ele>
        <time>2022-05-19T10:34:09Z</time>
      </trkpt>
      <trkpt lat="42.369617" lon="-5.007565">
        <ele>873.7626106189564</ele>
        <time>2022-05-19T10:34:16Z</time>
      </trkpt>
      <trkpt lat="42.369648" lon="-5.007685">
        <ele>873.3557641338557</ele>
        <time>2022-05-19T10:34:23Z</time>
      </trkpt>
      <trkpt lat="42.369684" lon="-5.007807">
        <ele>873.1918620876968</ele>
        <time>2022-05-19T10:34:31Z</time>
      </trkpt>
      <trkpt lat="42.369714" lon="-5.007929">
        <ele>873.5031770793721</ele>
        <time>2022-05-19T10:34:38Z</time>
      </trkpt>
      <trkpt lat="42.369736" lon="-5.008061">
        <ele>873.1626037675887</ele>
        <time>2022-05-19T10:34:46Z</time>
      </trkpt>
      <trkpt lat="42.369772" lon="-5.008181">
        <ele>873.0924072433263</ele>
        <time>2022-05-19T10:34:53Z</time>
      </trkpt>
      <trkpt lat="42.369802" lon="-5.008315">
        <ele>874.6475719390437</ele>
        <time>2022-05-19T10:35:01Z</time>
      </trkpt>
      <trkpt lat="42.369826" lon="-5.008436">
        <ele>874.952043174766</ele>
        <time>2022-05-19T10:35:08Z</time>
      </trkpt>
      <trkpt lat="42.369853" lon="-5.00857">
        <ele>875.2095067482442</ele>
        <time>2022-05-19T10:35:15Z</time>
      </trkpt>
      <trkpt lat="42.369866" lon="-5.008697">
        <ele>874.4010715130717</ele>
        <time>2022-05-19T10:35:22Z</time>
      </trkpt>
      <trkpt lat="42.369875" lon="-5.008825">
        <ele>874.7371297599748</ele>
        <time>2022-05-19T10:35:28Z</time>
      </trkpt>
      <trkpt lat="42.369894" lon="-5.008951">
        <ele>876.3536176951602</ele>
        <time>2022-05-19T10:35:37Z</time>
      </trkpt>
      <trkpt lat="42.369898" lon="-5.00908">
        <ele>875.5623707994819</ele>
        <time>2022-05-19T10:35:44Z</time>
      </trkpt>
      <trkpt lat="42.369912" lon="-5.009218">
        <ele>875.5783181004226</ele>
        <time>2022-05-19T10:35:51Z</time>
      </trkpt>
      <trkpt lat="42.369925" lon="-5.00934">
        <ele>876.1800478147343</ele>
        <time>2022-05-19T10:35:58Z</time>
      </trkpt>
      <trkpt lat="42.369929" lon="-5.009468">
        <ele>876.222172126174</ele>
        <time>2022-05-19T10:36:05Z</time>
      </trkpt>
      <trkpt lat="42.369949" lon="-5.009592">
        <ele>875.508146061562</ele>
        <time>2022-05-19T10:36:13Z</time>
      </trkpt>
      <trkpt lat="42.369965" lon="-5.009718">
        <ele>876.0242602815852</ele>
        <time>2022-05-19T10:36:21Z</time>
      </trkpt>
      <trkpt lat="42.369962" lon="-5.009855">
        <ele>875.2442185599357</ele>
        <time>2022-05-19T10:36:31Z</time>
      </trkpt>
      <trkpt lat="42.369954" lon="-5.009976">
        <ele>874.6468491749838</ele>
        <time>2022-05-19T10:36:37Z</time>
      </trkpt>
      <trkpt lat="42.369967" lon="-5.010106">
        <ele>874.513079396449</ele>
        <time>2022-05-19T10:36:47Z</time>
      </trkpt>
      <trkpt lat="42.369987" lon="-5.01023">
        <ele>874.5292381756008</ele>
        <time>2022-05-19T10:36:55Z</time>
      </trkpt>
      <trkpt lat="42.36999" lon="-5.010368">
        <ele>875.4380656313151</ele>
        <time>2022-05-19T10:37:05Z</time>
      </trkpt>
      <trkpt lat="42.370008" lon="-5.010492">
        <ele>875.9881933052093</ele>
        <time>2022-05-19T10:37:12Z</time>
      </trkpt>
      <trkpt lat="42.370019" lon="-5.010618">
        <ele>877.1755677741021</ele>
        <time>2022-05-19T10:37:18Z</time>
      </trkpt>
      <trkpt lat="42.370025" lon="-5.010751">
        <ele>878.1939837355167</ele>
        <time>2022-05-19T10:37:26Z</time>
      </trkpt>
      <trkpt lat="42.370029" lon="-5.010876">
        <ele>879.4003734309226</ele>
        <time>2022-05-19T10:37:35Z</time>
      </trkpt>
      <trkpt lat="42.370038" lon="-5.010998">
        <ele>879.9670345298946</ele>
        <time>2022-05-19T10:37:42Z</time>
      </trkpt>
      <trkpt lat="42.370036" lon="-5.011124">
        <ele>881.609939715825</ele>
        <time>2022-05-19T10:37:48Z</time>
      </trkpt>
      <trkpt lat="42.370043" lon="-5.011254">
        <ele>882.7704502232373</ele>
        <time>2022-05-19T10:37:56Z</time>
      </trkpt>
      <trkpt lat="42.370048" lon="-5.011376">
        <ele>883.9909467231482</ele>
        <time>2022-05-19T10:38:03Z</time>
      </trkpt>
      <trkpt lat="42.37005" lon="-5.011512">
        <ele>885.4094002852216</ele>
        <time>2022-05-19T10:38:10Z</time>
      </trkpt>
      <trkpt lat="42.370055" lon="-5.011644">
        <ele>884.6540061496198</ele>
        <time>2022-05-19T10:38:18Z</time>
      </trkpt>
      <trkpt lat="42.370047" lon="-5.011779">
        <ele>884.9669184191152</ele>
        <time>2022-05-19T10:38:25Z</time>
      </trkpt>
      <trkpt lat="42.370051" lon="-5.011918">
        <ele>886.22355952207</ele>
        <time>2022-05-19T10:38:32Z</time>
      </trkpt>
      <trkpt lat="42.370036" lon="-5.01205">
        <ele>886.7795331841335</ele>
        <time>2022-05-19T10:38:40Z</time>
      </trkpt>
      <trkpt lat="42.370036" lon="-5.012176">
        <ele>886.8119920706376</ele>
        <time>2022-05-19T10:38:47Z</time>
      </trkpt>
      <trkpt lat="42.370073" lon="-5.012295">
        <ele>884.8820443749428</ele>
        <time>2022-05-19T10:38:55Z</time>
      </trkpt>
      <trkpt lat="42.370135" lon="-5.012388">
        <ele>885.5313271693885</ele>
        <time>2022-05-19T10:39:02Z</time>
      </trkpt>
      <trkpt lat="42.370212" lon="-5.012479">
        <ele>886.0342563949525</ele>
        <time>2022-05-19T10:39:08Z</time>
      </trkpt>
      <trkpt lat="42.370262" lon="-5.012594">
        <ele>884.1643807962537</ele>
        <time>2022-05-19T10:39:16Z</time>
      </trkpt>
      <trkpt lat="42.370314" lon="-5.012716">
        <ele>883.584633929655</ele>
        <time>2022-05-19T10:39:23Z</time>
      </trkpt>
      <trkpt lat="42.370349" lon="-5.012838">
        <ele>883.5842701587826</ele>
        <time>2022-05-19T10:39:30Z</time>
      </trkpt>
      <trkpt lat="42.370303" lon="-5.012944">
        <ele>883.2379264356568</ele>
        <time>2022-05-19T10:39:37Z</time>
      </trkpt>
      <trkpt lat="42.370239" lon="-5.013031">
        <ele>883.5230213114992</ele>
        <time>2022-05-19T10:39:47Z</time>
      </trkpt>
      <trkpt lat="42.370252" lon="-5.013153">
        <ele>884.2298541879281</ele>
        <time>2022-05-19T10:39:52Z</time>
      </trkpt>
      <trkpt lat="42.370212" lon="-5.01327">
        <ele>884.0155701953918</ele>
        <time>2022-05-19T10:39:58Z</time>
      </trkpt>
      <trkpt lat="42.37019" lon="-5.013396">
        <ele>886.2915626866743</ele>
        <time>2022-05-19T10:40:03Z</time>
      </trkpt>
      <trkpt lat="42.370166" lon="-5.013515">
        <ele>887.7471938626841</ele>
        <time>2022-05-19T10:40:10Z</time>
      </trkpt>
      <trkpt lat="42.370166" lon="-5.013643">
        <ele>885.33781686984</ele>
        <time>2022-05-19T10:40:21Z</time>
      </trkpt>
      <trkpt lat="42.370173" lon="-5.013767">
        <ele>885.3544905241579</ele>
        <time>2022-05-19T10:40:28Z</time>
      </trkpt>
      <trkpt lat="42.370199" lon="-5.013894">
        <ele>884.5248202336952</ele>
        <time>2022-05-19T10:40:36Z</time>
      </trkpt>
      <trkpt lat="42.370204" lon="-5.01402">
        <ele>882.8235618434846</ele>
        <time>2022-05-19T10:40:44Z</time>
      </trkpt>
      <trkpt lat="42.370209" lon="-5.014142">
        <ele>881.1521983835846</ele>
        <time>2022-05-19T10:40:51Z</time>
      </trkpt>
      <trkpt lat="42.370193" lon="-5.01427">
        <ele>878.2383108614013</ele>
        <time>2022-05-19T10:41:00Z</time>
      </trkpt>
      <trkpt lat="42.370181" lon="-5.014403">
        <ele>880.2459083003923</ele>
        <time>2022-05-19T10:41:08Z</time>
      </trkpt>
      <trkpt lat="42.370185" lon="-5.014541">
        <ele>880.075295239687</ele>
        <time>2022-05-19T10:41:15Z</time>
      </trkpt>
      <trkpt lat="42.370175" lon="-5.014677">
        <ele>879.843585761264</ele>
        <time>2022-05-19T10:41:22Z</time>
      </trkpt>
      <trkpt lat="42.370156" lon="-5.014801">
        <ele>880.7771785492077</ele>
        <time>2022-05-19T10:41:28Z</time>
      </trkpt>
      <trkpt lat="42.370128" lon="-5.014917">
        <ele>879.9462036369368</ele>
        <time>2022-05-19T10:41:35Z</time>
      </trkpt>
      <trkpt lat="42.370104" lon="-5.015046">
        <ele>880.4619438853115</ele>
        <time>2022-05-19T10:41:43Z</time>
      </trkpt>
      <trkpt lat="42.370076" lon="-5.015179">
        <ele>880.8700909949839</ele>
        <time>2022-05-19T10:41:51Z</time>
      </trkpt>
      <trkpt lat="42.370054" lon="-5.015313">
        <ele>881.0467709628865</ele>
        <time>2022-05-19T10:41:58Z</time>
      </trkpt>
      <trkpt lat="42.370025" lon="-5.015432">
        <ele>881.1195647148415</ele>
        <time>2022-05-19T10:42:03Z</time>
      </trkpt>
      <trkpt lat="42.370001" lon="-5.015559">
        <ele>880.6275699967518</ele>
        <time>2022-05-19T10:42:11Z</time>
      </trkpt>
      <trkpt lat="42.369974" lon="-5.015686">
        <ele>880.1488256370649</ele>
        <time>2022-05-19T10:42:18Z</time>
      </trkpt>
      <trkpt lat="42.369967" lon="-5.015812">
        <ele>880.1808807794005</ele>
        <time>2022-05-19T10:42:25Z</time>
      </trkpt>
      <trkpt lat="42.369952" lon="-5.015939">
        <ele>881.2843247251585</ele>
        <time>2022-05-19T10:42:32Z</time>
      </trkpt>
      <trkpt lat="42.369941" lon="-5.016073">
        <ele>882.033667719923</ele>
        <time>2022-05-19T10:42:42Z</time>
      </trkpt>
      <trkpt lat="42.369913" lon="-5.016208">
        <ele>881.4302975637838</ele>
        <time>2022-05-19T10:42:52Z</time>
      </trkpt>
      <trkpt lat="42.369929" lon="-5.01634">
        <ele>881.1493685794994</ele>
        <time>2022-05-19T10:42:58Z</time>
      </trkpt>
      <trkpt lat="42.369946" lon="-5.01646">
        <ele>882.3199442205951</ele>
        <time>2022-05-19T10:43:06Z</time>
      </trkpt>
      <trkpt lat="42.369929" lon="-5.016584">
        <ele>882.2477014353499</ele>
        <time>2022-05-19T10:43:12Z</time>
      </trkpt>
      <trkpt lat="42.369947" lon="-5.016715">
        <ele>882.2750192144886</ele>
        <time>2022-05-19T10:43:19Z</time>
      </trkpt>
      <trkpt lat="42.36995" lon="-5.016837">
        <ele>882.5126001378521</ele>
        <time>2022-05-19T10:43:27Z</time>
      </trkpt>
      <trkpt lat="42.369949" lon="-5.016963">
        <ele>882.0605644015595</ele>
        <time>2022-05-19T10:43:33Z</time>
      </trkpt>
      <trkpt lat="42.369915" lon="-5.01709">
        <ele>881.977682787925</ele>
        <time>2022-05-19T10:43:42Z</time>
      </trkpt>
      <trkpt lat="42.369892" lon="-5.017221">
        <ele>883.5624928837642</ele>
        <time>2022-05-19T10:43:51Z</time>
      </trkpt>
      <trkpt lat="42.369871" lon="-5.017349">
        <ele>882.280499712564</ele>
        <time>2022-05-19T10:43:58Z</time>
      </trkpt>
      <trkpt lat="42.369887" lon="-5.017479">
        <ele>881.8329976284876</ele>
        <time>2022-05-19T10:44:06Z</time>
      </trkpt>
      <trkpt lat="42.369905" lon="-5.017605">
        <ele>882.5743813021109</ele>
        <time>2022-05-19T10:44:13Z</time>
      </trkpt>
      <trkpt lat="42.369921" lon="-5.01774">
        <ele>882.2480038637295</ele>
        <time>2022-05-19T10:44:20Z</time>
      </trkpt>
      <trkpt lat="42.369935" lon="-5.017873">
        <ele>882.3480233447626</ele>
        <time>2022-05-19T10:44:30Z</time>
      </trkpt>
      <trkpt lat="42.369929" lon="-5.018008">
        <ele>880.9292969340459</ele>
        <time>2022-05-19T10:44:38Z</time>
      </trkpt>
      <trkpt lat="42.369945" lon="-5.018128">
        <ele>880.7166218049824</ele>
        <time>2022-05-19T10:44:45Z</time>
      </trkpt>
      <trkpt lat="42.369964" lon="-5.018255">
        <ele>881.9258484374732</ele>
        <time>2022-05-19T10:44:57Z</time>
      </trkpt>
      <trkpt lat="42.369982" lon="-5.018377">
        <ele>881.5538557209074</ele>
        <time>2022-05-19T10:45:05Z</time>
      </trkpt>
      <trkpt lat="42.369991" lon="-5.018507">
        <ele>881.2183938361704</ele>
        <time>2022-05-19T10:45:15Z</time>
      </trkpt>
      <trkpt lat="42.370006" lon="-5.018633">
        <ele>881.0680068917572</ele>
        <time>2022-05-19T10:45:23Z</time>
      </trkpt>
      <trkpt lat="42.36999" lon="-5.018766">
        <ele>881.8105292683467</ele>
        <time>2022-05-19T10:45:30Z</time>
      </trkpt>
      <trkpt lat="42.369965" lon="-5.018891">
        <ele>881.0022901277989</ele>
        <time>2022-05-19T10:45:38Z</time>
      </trkpt>
      <trkpt lat="42.369949" lon="-5.019014">
        <ele>879.9761825948954</ele>
        <time>2022-05-19T10:45:45Z</time>
      </trkpt>
      <trkpt lat="42.369945" lon="-5.019139">
        <ele>878.941896517761</ele>
        <time>2022-05-19T10:45:55Z</time>
      </trkpt>
      <trkpt lat="42.369957" lon="-5.019278">
        <ele>876.8687414880842</ele>
        <time>2022-05-19T10:46:03Z</time>
      </trkpt>
      <trkpt lat="42.369991" lon="-5.019397">
        <ele>876.177398881875</ele>
        <time>2022-05-19T10:46:08Z</time>
      </trkpt>
      <trkpt lat="42.369968" lon="-5.019516">
        <ele>874.8727174326777</ele>
        <time>2022-05-19T10:46:17Z</time>
      </trkpt>
      <trkpt lat="42.369952" lon="-5.019651">
        <ele>873.3933584392071</ele>
        <time>2022-05-19T10:46:25Z</time>
      </trkpt>
      <trkpt lat="42.36994" lon="-5.019774">
        <ele>872.9127986375242</ele>
        <time>2022-05-19T10:46:34Z</time>
      </trkpt>
      <trkpt lat="42.36993" lon="-5.019906">
        <ele>871.1972351921722</ele>
        <time>2022-05-19T10:46:43Z</time>
      </trkpt>
      <trkpt lat="42.369954" lon="-5.020034">
        <ele>870.4982924740762</ele>
        <time>2022-05-19T10:46:51Z</time>
      </trkpt>
      <trkpt lat="42.369943" lon="-5.020169">
        <ele>868.4255846701562</ele>
        <time>2022-05-19T10:47:00Z</time>
      </trkpt>
      <trkpt lat="42.369871" lon="-5.020263">
        <ele>864.8130889730528</ele>
        <time>2022-05-19T10:47:07Z</time>
      </trkpt>
      <trkpt lat="42.369862" lon="-5.020399">
        <ele>862.4225732432678</ele>
        <time>2022-05-19T10:47:18Z</time>
      </trkpt>
      <trkpt lat="42.369866" lon="-5.020535">
        <ele>862.3929353188723</ele>
        <time>2022-05-19T10:47:30Z</time>
      </trkpt>
      <trkpt lat="42.369894" lon="-5.020655">
        <ele>860.502729607746</ele>
        <time>2022-05-19T10:47:57Z</time>
      </trkpt>
      <trkpt lat="42.369984" lon="-5.020675">
        <ele>860.4896793309599</ele>
        <time>2022-05-19T10:49:52Z</time>
      </trkpt>
      <trkpt lat="42.36999" lon="-5.020804">
        <ele>858.9088504016399</ele>
        <time>2022-05-19T10:49:59Z</time>
      </trkpt>
      <trkpt lat="42.370008" lon="-5.020923">
        <ele>858.9490864826366</ele>
        <time>2022-05-19T10:50:08Z</time>
      </trkpt>
      <trkpt lat="42.370029" lon="-5.021044">
        <ele>860.0057337516919</ele>
        <time>2022-05-19T10:50:15Z</time>
      </trkpt>
      <trkpt lat="42.370026" lon="-5.021169">
        <ele>861.2182937283069</ele>
        <time>2022-05-19T10:50:23Z</time>
      </trkpt>
      <trkpt lat="42.370038" lon="-5.02129">
        <ele>861.0760029526427</ele>
        <time>2022-05-19T10:50:32Z</time>
      </trkpt>
      <trkpt lat="42.370035" lon="-5.021417">
        <ele>862.4285977054387</ele>
        <time>2022-05-19T10:50:42Z</time>
      </trkpt>
      <trkpt lat="42.370053" lon="-5.021536">
        <ele>862.0872176047415</ele>
        <time>2022-05-19T10:50:49Z</time>
      </trkpt>
      <trkpt lat="42.370072" lon="-5.021659">
        <ele>864.7228150526062</ele>
        <time>2022-05-19T10:50:58Z</time>
      </trkpt>
      <trkpt lat="42.370079" lon="-5.021782">
        <ele>868.0527321295813</ele>
        <time>2022-05-19T10:51:08Z</time>
      </trkpt>
      <trkpt lat="42.37012" lon="-5.021901">
        <ele>869.3461621003225</ele>
        <time>2022-05-19T10:51:21Z</time>
      </trkpt>
      <trkpt lat="42.370137" lon="-5.022029">
        <ele>873.6385573260486</ele>
        <time>2022-05-19T10:51:30Z</time>
      </trkpt>
      <trkpt lat="42.370125" lon="-5.022161">
        <ele>881.7973195603117</ele>
        <time>2022-05-19T10:51:40Z</time>
      </trkpt>
      <trkpt lat="42.370093" lon="-5.022279">
        <ele>887.264639928937</ele>
        <time>2022-05-19T10:51:47Z</time>
      </trkpt>
      <trkpt lat="42.370073" lon="-5.022402">
        <ele>897.0172887016088</ele>
        <time>2022-05-19T10:51:57Z</time>
      </trkpt>
      <trkpt lat="42.370076" lon="-5.022533">
        <ele>903.0212077815086</ele>
        <time>2022-05-19T10:52:03Z</time>
      </trkpt>
      <trkpt lat="42.3701" lon="-5.022657">
        <ele>908.2992323329672</ele>
        <time>2022-05-19T10:52:10Z</time>
      </trkpt>
      <trkpt lat="42.370138" lon="-5.022784">
        <ele>912.9106266675517</ele>
        <time>2022-05-19T10:52:16Z</time>
      </trkpt>
      <trkpt lat="42.370201" lon="-5.022897">
        <ele>912.4331269226968</ele>
        <time>2022-05-19T10:52:21Z</time>
      </trkpt>
      <trkpt lat="42.370281" lon="-5.022982">
        <ele>910.8818150833249</ele>
        <time>2022-05-19T10:52:24Z</time>
      </trkpt>
      <trkpt lat="42.370328" lon="-5.023094">
        <ele>911.9146842360497</ele>
        <time>2022-05-19T10:52:29Z</time>
      </trkpt>
      <trkpt lat="42.37041" lon="-5.023167">
        <ele>908.1141084944829</ele>
        <time>2022-05-19T10:52:38Z</time>
      </trkpt>
      <trkpt lat="42.370461" lon="-5.023269">
        <ele>909.1769340783358</ele>
        <time>2022-05-19T10:52:43Z</time>
      </trkpt>
      <trkpt lat="42.370509" lon="-5.023387">
        <ele>914.9198250994086</ele>
        <time>2022-05-19T10:52:51Z</time>
      </trkpt>
      <trkpt lat="42.370549" lon="-5.023505">
        <ele>923.623234522529</ele>
        <time>2022-05-19T10:53:04Z</time>
      </trkpt>
      <trkpt lat="42.370641" lon="-5.023561">
        <ele>918.1077005416155</ele>
        <time>2022-05-19T10:53:14Z</time>
      </trkpt>
      <trkpt lat="42.370734" lon="-5.023618">
        <ele>913.9575081486255</ele>
        <time>2022-05-19T10:53:23Z</time>
      </trkpt>
      <trkpt lat="42.370778" lon="-5.023737">
        <ele>912.4506743466482</ele>
        <time>2022-05-19T10:53:33Z</time>
      </trkpt>
      <trkpt lat="42.370856" lon="-5.023808">
        <ele>908.8753021396697</ele>
        <time>2022-05-19T10:53:43Z</time>
      </trkpt>
      <trkpt lat="42.370917" lon="-5.023908">
        <ele>906.3203876754269</ele>
        <time>2022-05-19T10:53:52Z</time>
      </trkpt>
      <trkpt lat="42.370941" lon="-5.02403">
        <ele>901.8141518449411</ele>
        <time>2022-05-19T10:54:02Z</time>
      </trkpt>
      <trkpt lat="42.370945" lon="-5.024155">
        <ele>895.7984103318304</ele>
        <time>2022-05-19T10:54:08Z</time>
      </trkpt>
      <trkpt lat="42.37096" lon="-5.024296">
        <ele>892.3209987040609</ele>
        <time>2022-05-19T10:54:15Z</time>
      </trkpt>
      <trkpt lat="42.370958" lon="-5.024421">
        <ele>889.8788144793361</ele>
        <time>2022-05-19T10:54:22Z</time>
      </trkpt>
      <trkpt lat="42.370986" lon="-5.024551">
        <ele>889.1768336556852</ele>
        <time>2022-05-19T10:54:28Z</time>
      </trkpt>
      <trkpt lat="42.370955" lon="-5.024675">
        <ele>888.1622410044074</ele>
        <time>2022-05-19T10:54:36Z</time>
      </trkpt>
      <trkpt lat="42.370924" lon="-5.024791">
        <ele>887.9550617225468</ele>
        <time>2022-05-19T10:54:43Z</time>
      </trkpt>
      <trkpt lat="42.370906" lon="-5.024921">
        <ele>888.5913146734238</ele>
        <time>2022-05-19T10:54:52Z</time>
      </trkpt>
      <trkpt lat="42.370913" lon="-5.025045">
        <ele>887.0381298139691</ele>
        <time>2022-05-19T10:54:58Z</time>
      </trkpt>
      <trkpt lat="42.370944" lon="-5.02516">
        <ele>886.009454658255</ele>
        <time>2022-05-19T10:55:06Z</time>
      </trkpt>
      <trkpt lat="42.370967" lon="-5.025278">
        <ele>886.2694283267483</ele>
        <time>2022-05-19T10:55:14Z</time>
      </trkpt>
      <trkpt lat="42.370968" lon="-5.02541">
        <ele>887.7002232391387</ele>
        <time>2022-05-19T10:55:41Z</time>
      </trkpt>
      <trkpt lat="42.371002" lon="-5.025524">
        <ele>888.770828910172</ele>
        <time>2022-05-19T10:55:48Z</time>
      </trkpt>
      <trkpt lat="42.371056" lon="-5.025636">
        <ele>890.6634989026934</ele>
        <time>2022-05-19T10:55:56Z</time>
      </trkpt>
      <trkpt lat="42.371111" lon="-5.025735">
        <ele>892.4310278156772</ele>
        <time>2022-05-19T10:56:03Z</time>
      </trkpt>
      <trkpt lat="42.371164" lon="-5.025854">
        <ele>899.3538582865149</ele>
        <time>2022-05-19T10:56:15Z</time>
      </trkpt>
      <trkpt lat="42.371196" lon="-5.025983">
        <ele>893.820587801747</ele>
        <time>2022-05-19T10:56:28Z</time>
      </trkpt>
      <trkpt lat="42.371131" lon="-5.026083">
        <ele>889.9455266119912</ele>
        <time>2022-05-19T10:56:50Z</time>
      </trkpt>
      <trkpt lat="42.371072" lon="-5.026176">
        <ele>892.0851836623624</ele>
        <time>2022-05-19T10:57:08Z</time>
      </trkpt>
      <trkpt lat="42.371078" lon="-5.026298">
        <ele>895.1367565048859</ele>
        <time>2022-05-19T10:57:24Z</time>
      </trkpt>
      <trkpt lat="42.371045" lon="-5.026412">
        <ele>898.3913339879364</ele>
        <time>2022-05-19T10:57:33Z</time>
      </trkpt>
      <trkpt lat="42.370987" lon="-5.026515">
        <ele>899.1605432173237</ele>
        <time>2022-05-19T10:58:11Z</time>
      </trkpt>
      <trkpt lat="42.371013" lon="-5.026647">
        <ele>899.3278976948932</ele>
        <time>2022-05-19T10:58:20Z</time>
      </trkpt>
      <trkpt lat="42.371017" lon="-5.026773">
        <ele>898.755141319707</ele>
        <time>2022-05-19T10:58:27Z</time>
      </trkpt>
      <trkpt lat="42.371051" lon="-5.026893">
        <ele>900.0816077711061</ele>
        <time>2022-05-19T10:58:37Z</time>
      </trkpt>
      <trkpt lat="42.370991" lon="-5.026987">
        <ele>905.1238209633157</ele>
        <time>2022-05-19T10:59:26Z</time>
      </trkpt>
      <trkpt lat="42.371075" lon="-5.027054">
        <ele>915.737749335356</ele>
        <time>2022-05-19T11:01:48Z</time>
      </trkpt>
      <trkpt lat="42.371175" lon="-5.027071">
        <ele>915.9780762335286</ele>
        <time>2022-05-19T11:02:15Z</time>
      </trkpt>
      <trkpt lat="42.370894" lon="-5.027388">
        <ele>919.6426116451621</ele>
        <time>2022-05-19T11:07:36Z</time>
      </trkpt>
      <trkpt lat="42.3711" lon="-5.02681">
        <ele>866.7542363256216</ele>
        <time>2022-05-19T11:07:37Z</time>
      </trkpt>
      <trkpt lat="42.370735" lon="-5.027295">
        <ele>912.3679807120934</ele>
        <time>2022-05-19T11:07:38Z</time>
      </trkpt>
      <trkpt lat="42.370888" lon="-5.027151">
        <ele>926.0389110958204</ele>
        <time>2022-05-19T11:07:39Z</time>
      </trkpt>
      <trkpt lat="42.370958" lon="-5.027239">
        <ele>941.6565150944516</ele>
        <time>2022-05-19T11:07:42Z</time>
      </trkpt>
      <trkpt lat="42.37091" lon="-5.027372">
        <ele>953.7581541528925</ele>
        <time>2022-05-19T11:07:52Z</time>
      </trkpt>
      <trkpt lat="42.370856" lon="-5.027476">
        <ele>966.6566890487447</ele>
        <time>2022-05-19T11:07:53Z</time>
      </trkpt>
      <trkpt lat="42.370833" lon="-5.027347">
        <ele>981.9266662169248</ele>
        <time>2022-05-19T11:09:33Z</time>
      </trkpt>
      <trkpt lat="42.370735" lon="-5.02735">
        <ele>946.93700940907</ele>
        <time>2022-05-19T11:10:25Z</time>
      </trkpt>
      <trkpt lat="42.370655" lon="-5.027407">
        <ele>944.9388570040464</ele>
        <time>2022-05-19T11:10:33Z</time>
      </trkpt>
      <trkpt lat="42.370756" lon="-5.027367">
        <ele>940.964526090771</ele>
        <time>2022-05-19T11:12:00Z</time>
      </trkpt>
      <trkpt lat="42.370791" lon="-5.027254">
        <ele>941.1900270897895</ele>
        <time>2022-05-19T11:12:04Z</time>
      </trkpt>
      <trkpt lat="42.370724" lon="-5.027352">
        <ele>949.3157541612163</ele>
        <time>2022-05-19T11:13:36Z</time>
      </trkpt>
      <trkpt lat="42.370686" lon="-5.027231">
        <ele>941.6979985758662</ele>
        <time>2022-05-19T11:14:13Z</time>
      </trkpt>
      <trkpt lat="42.370699" lon="-5.027353">
        <ele>938.8852844256908</ele>
        <time>2022-05-19T11:17:44Z</time>
      </trkpt>
      <trkpt lat="42.370653" lon="-5.027226">
        <ele>938.1950044641271</ele>
        <time>2022-05-19T11:19:19Z</time>
      </trkpt>
      <trkpt lat="42.370589" lon="-5.027134">
        <ele>936.17766841501</ele>
        <time>2022-05-19T11:29:26Z</time>
      </trkpt>
      <trkpt lat="42.370513" lon="-5.027055">
        <ele>936.6065110685304</ele>
        <time>2022-05-19T11:30:59Z</time>
      </trkpt>
      <trkpt lat="42.3706" lon="-5.0271">
        <ele>937.5043620718643</ele>
        <time>2022-05-19T11:41:12Z</time>
      </trkpt>
      <trkpt lat="42.370691" lon="-5.027123">
        <ele>937.4355835281312</ele>
        <time>2022-05-19T11:41:23Z</time>
      </trkpt>
      <trkpt lat="42.370775" lon="-5.027188">
        <ele>936.7600050838664</ele>
        <time>2022-05-19T11:41:25Z</time>
      </trkpt>
      <trkpt lat="42.370864" lon="-5.027145">
        <ele>923.4466939549893</ele>
        <time>2022-05-19T11:47:18Z</time>
      </trkpt>
      <trkpt lat="42.370789" lon="-5.027229">
        <ele>912.4361796285957</ele>
        <time>2022-05-19T11:49:22Z</time>
      </trkpt>
      <trkpt lat="42.370736" lon="-5.027329">
        <ele>906.2174004530534</ele>
        <time>2022-05-19T11:49:32Z</time>
      </trkpt>
      <trkpt lat="42.370809" lon="-5.027408">
        <ele>897.583605623804</ele>
        <time>2022-05-19T11:50:02Z</time>
      </trkpt>
      <trkpt lat="42.370824" lon="-5.027532">
        <ele>893.9723640242592</ele>
        <time>2022-05-19T11:50:18Z</time>
      </trkpt>
      <trkpt lat="42.370867" lon="-5.027655">
        <ele>894.0754842814058</ele>
        <time>2022-05-19T11:50:28Z</time>
      </trkpt>
      <trkpt lat="42.370882" lon="-5.027782">
        <ele>893.2608891744167</ele>
        <time>2022-05-19T11:50:52Z</time>
      </trkpt>
      <trkpt lat="42.370861" lon="-5.027901">
        <ele>891.3239321298897</ele>
        <time>2022-05-19T11:52:27Z</time>
      </trkpt>
      <trkpt lat="42.370919" lon="-5.027994">
        <ele>880.3658511731774</ele>
        <time>2022-05-19T11:53:33Z</time>
      </trkpt>
      <trkpt lat="42.370852" lon="-5.027913">
        <ele>874.1334115276113</ele>
        <time>2022-05-19T11:54:17Z</time>
      </trkpt>
      <trkpt lat="42.370753" lon="-5.027879">
        <ele>874.103831523098</ele>
        <time>2022-05-19T11:54:25Z</time>
      </trkpt>
      <trkpt lat="42.37072" lon="-5.027759">
        <ele>873.061404356733</ele>
        <time>2022-05-19T11:54:42Z</time>
      </trkpt>
      <trkpt lat="42.370743" lon="-5.027885">
        <ele>874.4811949636787</ele>
        <time>2022-05-19T11:55:49Z</time>
      </trkpt>
      <trkpt lat="42.370757" lon="-5.028016">
        <ele>873.84789078217</ele>
        <time>2022-05-19T11:55:55Z</time>
      </trkpt>
      <trkpt lat="42.370757" lon="-5.02814">
        <ele>872.7743053259328</ele>
        <time>2022-05-19T11:56:04Z</time>
      </trkpt>
      <trkpt lat="42.370774" lon="-5.028264">
        <ele>871.5223786355928</ele>
        <time>2022-05-19T11:56:33Z</time>
      </trkpt>
      <trkpt lat="42.370769" lon="-5.028396">
        <ele>870.6415007971227</ele>
        <time>2022-05-19T11:56:42Z</time>
      </trkpt>
      <trkpt lat="42.370768" lon="-5.02853">
        <ele>870.5050465278327</ele>
        <time>2022-05-19T11:56:50Z</time>
      </trkpt>
      <trkpt lat="42.370797" lon="-5.028655">
        <ele>869.386539616622</ele>
        <time>2022-05-19T11:56:58Z</time>
      </trkpt>
      <trkpt lat="42.370848" lon="-5.028762">
        <ele>861.3658061362803</ele>
        <time>2022-05-19T11:57:10Z</time>
      </trkpt>
      <trkpt lat="42.370832" lon="-5.028886">
        <ele>858.327926886268</ele>
        <time>2022-05-19T11:57:19Z</time>
      </trkpt>
      <trkpt lat="42.370882" lon="-5.029001">
        <ele>857.5217790743336</ele>
        <time>2022-05-19T11:57:28Z</time>
      </trkpt>
      <trkpt lat="42.370888" lon="-5.029124">
        <ele>855.3094661254436</ele>
        <time>2022-05-19T11:57:37Z</time>
      </trkpt>
      <trkpt lat="42.370944" lon="-5.029221">
        <ele>856.2994886012748</ele>
        <time>2022-05-19T11:57:48Z</time>
      </trkpt>
      <trkpt lat="42.370923" lon="-5.029358">
        <ele>857.5319493589923</ele>
        <time>2022-05-19T11:57:54Z</time>
      </trkpt>
      <trkpt lat="42.370901" lon="-5.029482">
        <ele>856.7926243022084</ele>
        <time>2022-05-19T11:58:00Z</time>
      </trkpt>
      <trkpt lat="42.370857" lon="-5.029591">
        <ele>856.5994929084554</ele>
        <time>2022-05-19T11:58:05Z</time>
      </trkpt>
      <trkpt lat="42.370858" lon="-5.029723">
        <ele>857.5885156830773</ele>
        <time>2022-05-19T11:58:12Z</time>
      </trkpt>
      <trkpt lat="42.370852" lon="-5.029845">
        <ele>858.2925355127081</ele>
        <time>2022-05-19T11:58:19Z</time>
      </trkpt>
      <trkpt lat="42.37082" lon="-5.029959">
        <ele>857.9930324526504</ele>
        <time>2022-05-19T11:58:25Z</time>
      </trkpt>
      <trkpt lat="42.370838" lon="-5.030087">
        <ele>857.909365305677</ele>
        <time>2022-05-19T11:58:33Z</time>
      </trkpt>
      <trkpt lat="42.370824" lon="-5.030211">
        <ele>857.0008131731302</ele>
        <time>2022-05-19T11:58:42Z</time>
      </trkpt>
      <trkpt lat="42.370845" lon="-5.030337">
        <ele>858.3867498347536</ele>
        <time>2022-05-19T11:58:54Z</time>
      </trkpt>
      <trkpt lat="42.370838" lon="-5.030463">
        <ele>857.2287384625524</ele>
        <time>2022-05-19T11:59:00Z</time>
      </trkpt>
      <trkpt lat="42.370833" lon="-5.030598">
        <ele>855.3888617251068</ele>
        <time>2022-05-19T11:59:08Z</time>
      </trkpt>
      <trkpt lat="42.37082" lon="-5.030722">
        <ele>854.1624988326803</ele>
        <time>2022-05-19T11:59:17Z</time>
      </trkpt>
      <trkpt lat="42.370806" lon="-5.030848">
        <ele>856.0130671970546</ele>
        <time>2022-05-19T11:59:25Z</time>
      </trkpt>
      <trkpt lat="42.370765" lon="-5.030968">
        <ele>856.6999027682468</ele>
        <time>2022-05-19T11:59:35Z</time>
      </trkpt>
      <trkpt lat="42.370727" lon="-5.03109">
        <ele>856.6304221171886</ele>
        <time>2022-05-19T11:59:48Z</time>
      </trkpt>
      <trkpt lat="42.370683" lon="-5.031209">
        <ele>852.5135921603069</ele>
        <time>2022-05-19T12:00:02Z</time>
      </trkpt>
      <trkpt lat="42.370667" lon="-5.031337">
        <ele>850.4942340692505</ele>
        <time>2022-05-19T12:00:11Z</time>
      </trkpt>
      <trkpt lat="42.370645" lon="-5.031462">
        <ele>850.7640851205215</ele>
        <time>2022-05-19T12:00:19Z</time>
      </trkpt>
      <trkpt lat="42.370641" lon="-5.031588">
        <ele>850.0254600290209</ele>
        <time>2022-05-19T12:00:27Z</time>
      </trkpt>
      <trkpt lat="42.370596" lon="-5.031705">
        <ele>850.5175753775984</ele>
        <time>2022-05-19T12:00:33Z</time>
      </trkpt>
      <trkpt lat="42.370597" lon="-5.031839">
        <ele>852.1920188991353</ele>
        <time>2022-05-19T12:00:40Z</time>
      </trkpt>
      <trkpt lat="42.370606" lon="-5.031967">
        <ele>852.9113775705919</ele>
        <time>2022-05-19T12:00:49Z</time>
      </trkpt>
      <trkpt lat="42.370571" lon="-5.032099">
        <ele>850.2280604839325</ele>
        <time>2022-05-19T12:00:55Z</time>
      </trkpt>
      <trkpt lat="42.370563" lon="-5.032225">
        <ele>853.0468010185286</ele>
        <time>2022-05-19T12:01:01Z</time>
      </trkpt>
      <trkpt lat="42.370551" lon="-5.032359">
        <ele>850.6918717278168</ele>
        <time>2022-05-19T12:01:10Z</time>
      </trkpt>
      <trkpt lat="42.370513" lon="-5.032477">
        <ele>849.0791086861864</ele>
        <time>2022-05-19T12:01:20Z</time>
      </trkpt>
      <trkpt lat="42.370506" lon="-5.03261">
        <ele>847.096704846248</ele>
        <time>2022-05-19T12:01:32Z</time>
      </trkpt>
      <trkpt lat="42.37053" lon="-5.03273">
        <ele>846.3920406028628</ele>
        <time>2022-05-19T12:01:45Z</time>
      </trkpt>
      <trkpt lat="42.370535" lon="-5.032859">
        <ele>845.7987160710618</ele>
        <time>2022-05-19T12:01:54Z</time>
      </trkpt>
      <trkpt lat="42.370531" lon="-5.032985">
        <ele>845.5993121778592</ele>
        <time>2022-05-19T12:02:04Z</time>
      </trkpt>
      <trkpt lat="42.370501" lon="-5.0331">
        <ele>845.3217642307281</ele>
        <time>2022-05-19T12:02:13Z</time>
      </trkpt>
      <trkpt lat="42.370507" lon="-5.033231">
        <ele>844.6854240261018</ele>
        <time>2022-05-19T12:02:20Z</time>
      </trkpt>
      <trkpt lat="42.370545" lon="-5.03335">
        <ele>844.2202765960246</ele>
        <time>2022-05-19T12:02:32Z</time>
      </trkpt>
      <trkpt lat="42.370629" lon="-5.033395">
        <ele>846.5644113365561</ele>
        <time>2022-05-19T12:02:47Z</time>
      </trkpt>
      <trkpt lat="42.370704" lon="-5.033472">
        <ele>852.1275198515505</ele>
        <time>2022-05-19T12:05:37Z</time>
      </trkpt>
      <trkpt lat="42.370797" lon="-5.033475">
        <ele>862.3676203396171</ele>
        <time>2022-05-19T12:05:49Z</time>
      </trkpt>
      <trkpt lat="42.370893" lon="-5.033447">
        <ele>863.5010852999985</ele>
        <time>2022-05-19T12:05:58Z</time>
      </trkpt>
      <trkpt lat="42.370982" lon="-5.033489">
        <ele>869.2380238259211</ele>
        <time>2022-05-19T12:06:58Z</time>
      </trkpt>
      <trkpt lat="42.371073" lon="-5.033505">
        <ele>871.3100556563586</ele>
        <time>2022-05-19T12:07:03Z</time>
      </trkpt>
      <trkpt lat="42.371165" lon="-5.033442">
        <ele>873.4665722362697</ele>
        <time>2022-05-19T12:07:14Z</time>
      </trkpt>
      <trkpt lat="42.371248" lon="-5.033369">
        <ele>876.7019385378808</ele>
        <time>2022-05-19T12:07:23Z</time>
      </trkpt>
      <trkpt lat="42.371315" lon="-5.033269">
        <ele>876.9597731176764</ele>
        <time>2022-05-19T12:07:35Z</time>
      </trkpt>
      <trkpt lat="42.371408" lon="-5.033246">
        <ele>876.90327818878</ele>
        <time>2022-05-19T12:07:47Z</time>
      </trkpt>
      <trkpt lat="42.371507" lon="-5.033277">
        <ele>875.7568843346089</ele>
        <time>2022-05-19T12:08:03Z</time>
      </trkpt>
      <trkpt lat="42.371597" lon="-5.03321">
        <ele>876.4732771925628</ele>
        <time>2022-05-19T12:08:22Z</time>
      </trkpt>
      <trkpt lat="42.371671" lon="-5.033115">
        <ele>873.1755232326686</ele>
        <time>2022-05-19T12:08:28Z</time>
      </trkpt>
      <trkpt lat="42.371761" lon="-5.033101">
        <ele>869.6000684145838</ele>
        <time>2022-05-19T12:08:39Z</time>
      </trkpt>
      <trkpt lat="42.371848" lon="-5.033021">
        <ele>865.4969286443666</ele>
        <time>2022-05-19T12:08:45Z</time>
      </trkpt>
      <trkpt lat="42.3719" lon="-5.03292">
        <ele>864.0384432282299</ele>
        <time>2022-05-19T12:08:54Z</time>
      </trkpt>
      <trkpt lat="42.371868" lon="-5.032804">
        <ele>868.0552524095401</ele>
        <time>2022-05-19T12:09:04Z</time>
      </trkpt>
      <trkpt lat="42.371954" lon="-5.032736">
        <ele>871.830555241555</ele>
        <time>2022-05-19T12:09:12Z</time>
      </trkpt>
      <trkpt lat="42.372036" lon="-5.032632">
        <ele>876.2543634474277</ele>
        <time>2022-05-19T12:09:15Z</time>
      </trkpt>
      <trkpt lat="42.372138" lon="-5.032659">
        <ele>874.752804483287</ele>
        <time>2022-05-19T12:09:34Z</time>
      </trkpt>
      <trkpt lat="42.372194" lon="-5.032553">
        <ele>874.648847501725</ele>
        <time>2022-05-19T12:09:42Z</time>
      </trkpt>
      <trkpt lat="42.372231" lon="-5.032426">
        <ele>873.8043444473296</ele>
        <time>2022-05-19T12:09:48Z</time>
      </trkpt>
      <trkpt lat="42.372227" lon="-5.0323">
        <ele>870.6760868802667</ele>
        <time>2022-05-19T12:09:55Z</time>
      </trkpt>
      <trkpt lat="42.372273" lon="-5.032194">
        <ele>869.2669403674081</ele>
        <time>2022-05-19T12:10:00Z</time>
      </trkpt>
      <trkpt lat="42.372314" lon="-5.032077">
        <ele>868.4621525416151</ele>
        <time>2022-05-19T12:10:05Z</time>
      </trkpt>
      <trkpt lat="42.372247" lon="-5.031972">
        <ele>873.8531179828569</ele>
        <time>2022-05-19T12:10:20Z</time>
      </trkpt>
      <trkpt lat="42.372137" lon="-5.031938">
        <ele>874.8606811575592</ele>
        <time>2022-05-19T12:10:25Z</time>
      </trkpt>
      <trkpt lat="42.37216" lon="-5.0318">
        <ele>876.7153525538743</ele>
        <time>2022-05-19T12:10:48Z</time>
      </trkpt>
      <trkpt lat="42.372227" lon="-5.031719">
        <ele>875.0727823488414</ele>
        <time>2022-05-19T12:10:52Z</time>
      </trkpt>
      <trkpt lat="42.372293" lon="-5.031628">
        <ele>873.0168049158528</ele>
        <time>2022-05-19T12:10:57Z</time>
      </trkpt>
      <trkpt lat="42.372367" lon="-5.031536">
        <ele>871.5261717569083</ele>
        <time>2022-05-19T12:11:01Z</time>
      </trkpt>
      <trkpt lat="42.372417" lon="-5.031431">
        <ele>870.2658253833652</ele>
        <time>2022-05-19T12:11:08Z</time>
      </trkpt>
      <trkpt lat="42.372408" lon="-5.03129">
        <ele>873.5799382720143</ele>
        <time>2022-05-19T12:11:19Z</time>
      </trkpt>
      <trkpt lat="42.372346" lon="-5.031173">
        <ele>876.1829231996089</ele>
        <time>2022-05-19T12:11:25Z</time>
      </trkpt>
      <trkpt lat="42.372276" lon="-5.031078">
        <ele>880.017040557228</ele>
        <time>2022-05-19T12:11:35Z</time>
      </trkpt>
      <trkpt lat="42.372209" lon="-5.030987">
        <ele>882.5022100917995</ele>
        <time>2022-05-19T12:11:45Z</time>
      </trkpt>
      <trkpt lat="42.372141" lon="-5.030896">
        <ele>881.6163646876812</ele>
        <time>2022-05-19T12:11:56Z</time>
      </trkpt>
      <trkpt lat="42.37224" lon="-5.030909">
        <ele>878.01708482299</ele>
        <time>2022-05-19T12:18:06Z</time>
      </trkpt>
      <trkpt lat="42.3723" lon="-5.031001">
        <ele>877.8687690431252</ele>
        <time>2022-05-19T12:18:13Z</time>
      </trkpt>
      <trkpt lat="42.372315" lon="-5.031123">
        <ele>877.3847520546988</ele>
        <time>2022-05-19T12:18:57Z</time>
      </trkpt>
      <trkpt lat="42.372362" lon="-5.031227">
        <ele>876.0779886934906</ele>
        <time>2022-05-19T12:19:04Z</time>
      </trkpt>
      <trkpt lat="42.372361" lon="-5.031353">
        <ele>876.8162951590493</ele>
        <time>2022-05-19T12:19:24Z</time>
      </trkpt>
      <trkpt lat="42.372373" lon="-5.031486">
        <ele>874.0265467735007</ele>
        <time>2022-05-19T12:19:35Z</time>
      </trkpt>
      <trkpt lat="42.372405" lon="-5.031603">
        <ele>871.5893667964265</ele>
        <time>2022-05-19T12:19:40Z</time>
      </trkpt>
      <trkpt lat="42.372385" lon="-5.031729">
        <ele>867.5244690012187</ele>
        <time>2022-05-19T12:19:47Z</time>
      </trkpt>
      <trkpt lat="42.372376" lon="-5.031863">
        <ele>866.8332909811288</ele>
        <time>2022-05-19T12:19:54Z</time>
      </trkpt>
      <trkpt lat="42.37232" lon="-5.031963">
        <ele>869.3977891216055</ele>
        <time>2022-05-19T12:20:14Z</time>
      </trkpt>
      <trkpt lat="42.372235" lon="-5.032009">
        <ele>869.5575174279511</ele>
        <time>2022-05-19T12:20:23Z</time>
      </trkpt>
      <trkpt lat="42.372164" lon="-5.032091">
        <ele>872.090332230553</ele>
        <time>2022-05-19T12:20:29Z</time>
      </trkpt>
      <trkpt lat="42.372073" lon="-5.032147">
        <ele>873.5401854226366</ele>
        <time>2022-05-19T12:20:39Z</time>
      </trkpt>
      <trkpt lat="42.371976" lon="-5.032192">
        <ele>871.7510407399386</ele>
        <time>2022-05-19T12:20:47Z</time>
      </trkpt>
      <trkpt lat="42.371884" lon="-5.032243">
        <ele>866.638328759931</ele>
        <time>2022-05-19T12:20:54Z</time>
      </trkpt>
      <trkpt lat="42.371799" lon="-5.032306">
        <ele>867.2800150159746</ele>
        <time>2022-05-19T12:21:03Z</time>
      </trkpt>
      <trkpt lat="42.371707" lon="-5.032368">
        <ele>869.438605139032</ele>
        <time>2022-05-19T12:21:09Z</time>
      </trkpt>
      <trkpt lat="42.371629" lon="-5.032446">
        <ele>873.4146427465603</ele>
        <time>2022-05-19T12:21:17Z</time>
      </trkpt>
      <trkpt lat="42.371557" lon="-5.03253">
        <ele>875.2271502474323</ele>
        <time>2022-05-19T12:21:32Z</time>
      </trkpt>
      <trkpt lat="42.371467" lon="-5.032571">
        <ele>874.6926915785298</ele>
        <time>2022-05-19T12:21:45Z</time>
      </trkpt>
      <trkpt lat="42.371386" lon="-5.032665">
        <ele>871.4478153549135</ele>
        <time>2022-05-19T12:21:50Z</time>
      </trkpt>
      <trkpt lat="42.37129" lon="-5.032665">
        <ele>871.9400942344218</ele>
        <time>2022-05-19T12:22:12Z</time>
      </trkpt>
      <trkpt lat="42.371193" lon="-5.032608">
        <ele>872.4232954420149</ele>
        <time>2022-05-19T12:22:15Z</time>
      </trkpt>
      <trkpt lat="42.371139" lon="-5.032501">
        <ele>871.7691230634227</ele>
        <time>2022-05-19T12:22:44Z</time>
      </trkpt>
      <trkpt lat="42.371096" lon="-5.032394">
        <ele>872.9247268950567</ele>
        <time>2022-05-19T12:22:52Z</time>
      </trkpt>
      <trkpt lat="42.371111" lon="-5.032516">
        <ele>870.4869451113045</ele>
        <time>2022-05-19T12:24:00Z</time>
      </trkpt>
      <trkpt lat="42.37116" lon="-5.032635">
        <ele>869.0529303913936</ele>
        <time>2022-05-19T12:24:09Z</time>
      </trkpt>
      <trkpt lat="42.371117" lon="-5.03275">
        <ele>871.4387075370178</ele>
        <time>2022-05-19T12:24:25Z</time>
      </trkpt>
      <trkpt lat="42.371039" lon="-5.032827">
        <ele>876.7003436340019</ele>
        <time>2022-05-19T12:24:49Z</time>
      </trkpt>
      <trkpt lat="42.370952" lon="-5.032875">
        <ele>876.6383463712409</ele>
        <time>2022-05-19T12:25:02Z</time>
      </trkpt>
      <trkpt lat="42.371008" lon="-5.032974">
        <ele>877.1052204761654</ele>
        <time>2022-05-19T12:25:27Z</time>
      </trkpt>
      <trkpt lat="42.371034" lon="-5.033092">
        <ele>875.5940714860335</ele>
        <time>2022-05-19T12:25:33Z</time>
      </trkpt>
      <trkpt lat="42.371107" lon="-5.033192">
        <ele>869.2864362308756</ele>
        <time>2022-05-19T12:26:14Z</time>
      </trkpt>
      <trkpt lat="42.37116" lon="-5.033301">
        <ele>866.79650057666</ele>
        <time>2022-05-19T12:26:27Z</time>
      </trkpt>
      <trkpt lat="42.371083" lon="-5.033392">
        <ele>866.9616106133908</ele>
        <time>2022-05-19T12:26:53Z</time>
      </trkpt>
      <trkpt lat="42.371001" lon="-5.033446">
        <ele>867.2453875243664</ele>
        <time>2022-05-19T12:26:58Z</time>
      </trkpt>
      <trkpt lat="42.370907" lon="-5.033474">
        <ele>867.696101848036</ele>
        <time>2022-05-19T12:27:08Z</time>
      </trkpt>
      <trkpt lat="42.370811" lon="-5.033496">
        <ele>871.4347162246704</ele>
        <time>2022-05-19T12:27:17Z</time>
      </trkpt>
      <trkpt lat="42.370743" lon="-5.033578">
        <ele>874.1226322101429</ele>
        <time>2022-05-19T12:27:27Z</time>
      </trkpt>
      <trkpt lat="42.370682" lon="-5.03369">
        <ele>877.8234841506928</ele>
        <time>2022-05-19T12:27:37Z</time>
      </trkpt>
      <trkpt lat="42.370608" lon="-5.033765">
        <ele>877.4482283042744</ele>
        <time>2022-05-19T12:27:58Z</time>
      </trkpt>
      <trkpt lat="42.370527" lon="-5.033826">
        <ele>875.8258326668292</ele>
        <time>2022-05-19T12:28:04Z</time>
      </trkpt>
      <trkpt lat="42.37044" lon="-5.033859">
        <ele>871.3256623437628</ele>
        <time>2022-05-19T12:28:14Z</time>
      </trkpt>
      <trkpt lat="42.370414" lon="-5.033988">
        <ele>869.6386789102107</ele>
        <time>2022-05-19T12:28:24Z</time>
      </trkpt>
      <trkpt lat="42.370393" lon="-5.034114">
        <ele>868.7698127171025</ele>
        <time>2022-05-19T12:28:35Z</time>
      </trkpt>
      <trkpt lat="42.370379" lon="-5.03424">
        <ele>868.5730014489964</ele>
        <time>2022-05-19T12:28:43Z</time>
      </trkpt>
      <trkpt lat="42.37035" lon="-5.034365">
        <ele>871.2927301125601</ele>
        <time>2022-05-19T12:28:52Z</time>
      </trkpt>
      <trkpt lat="42.370304" lon="-5.034478">
        <ele>872.8597713327035</ele>
        <time>2022-05-19T12:29:00Z</time>
      </trkpt>
      <trkpt lat="42.370262" lon="-5.0346">
        <ele>871.6494962284341</ele>
        <time>2022-05-19T12:29:09Z</time>
      </trkpt>
      <trkpt lat="42.370224" lon="-5.034713">
        <ele>871.0015880633146</ele>
        <time>2022-05-19T12:29:15Z</time>
      </trkpt>
      <trkpt lat="42.370167" lon="-5.034816">
        <ele>869.9173713754863</ele>
        <time>2022-05-19T12:29:22Z</time>
      </trkpt>
      <trkpt lat="42.370103" lon="-5.034917">
        <ele>868.5735839297995</ele>
        <time>2022-05-19T12:29:30Z</time>
      </trkpt>
      <trkpt lat="42.370035" lon="-5.035017">
        <ele>867.2810938209295</ele>
        <time>2022-05-19T12:29:39Z</time>
      </trkpt>
      <trkpt lat="42.369949" lon="-5.035091">
        <ele>864.2901855343953</ele>
        <time>2022-05-19T12:29:48Z</time>
      </trkpt>
      <trkpt lat="42.369862" lon="-5.035126">
        <ele>862.4898826470599</ele>
        <time>2022-05-19T12:29:55Z</time>
      </trkpt>
      <trkpt lat="42.369763" lon="-5.03514">
        <ele>862.715370231308</ele>
        <time>2022-05-19T12:30:03Z</time>
      </trkpt>
      <trkpt lat="42.369673" lon="-5.035194">
        <ele>863.8520081425086</ele>
        <time>2022-05-19T12:30:09Z</time>
      </trkpt>
      <trkpt lat="42.369632" lon="-5.035306">
        <ele>869.4749747738242</ele>
        <time>2022-05-19T12:30:22Z</time>
      </trkpt>
      <trkpt lat="42.369543" lon="-5.03537">
        <ele>874.2955537931994</ele>
        <time>2022-05-19T12:30:30Z</time>
      </trkpt>
      <trkpt lat="42.369445" lon="-5.035405">
        <ele>877.7082012956962</ele>
        <time>2022-05-19T12:30:39Z</time>
      </trkpt>
      <trkpt lat="42.369343" lon="-5.035436">
        <ele>881.8503704192117</ele>
        <time>2022-05-19T12:30:47Z</time>
      </trkpt>
      <trkpt lat="42.369255" lon="-5.035471">
        <ele>883.7037712484598</ele>
        <time>2022-05-19T12:30:54Z</time>
      </trkpt>
      <trkpt lat="42.36919" lon="-5.035561">
        <ele>882.5641065463424</ele>
        <time>2022-05-19T12:31:01Z</time>
      </trkpt>
      <trkpt lat="42.369159" lon="-5.03569">
        <ele>876.846817326732</ele>
        <time>2022-05-19T12:31:09Z</time>
      </trkpt>
      <trkpt lat="42.369073" lon="-5.035744">
        <ele>875.5267990082502</ele>
        <time>2022-05-19T12:31:37Z</time>
      </trkpt>
      <trkpt lat="42.369006" lon="-5.035828">
        <ele>873.169906469062</ele>
        <time>2022-05-19T12:31:45Z</time>
      </trkpt>
      <trkpt lat="42.368959" lon="-5.035941">
        <ele>870.8017699783668</ele>
        <time>2022-05-19T12:31:53Z</time>
      </trkpt>
      <trkpt lat="42.36893" lon="-5.036062">
        <ele>870.2382953707129</ele>
        <time>2022-05-19T12:32:00Z</time>
      </trkpt>
      <trkpt lat="42.368929" lon="-5.036186">
        <ele>870.3139679087326</ele>
        <time>2022-05-19T12:32:09Z</time>
      </trkpt>
      <trkpt lat="42.368927" lon="-5.036311">
        <ele>869.2968673594296</ele>
        <time>2022-05-19T12:32:15Z</time>
      </trkpt>
      <trkpt lat="42.368986" lon="-5.036408">
        <ele>868.0141659406945</ele>
        <time>2022-05-19T12:32:44Z</time>
      </trkpt>
      <trkpt lat="42.368974" lon="-5.03653">
        <ele>867.521539545618</ele>
        <time>2022-05-19T12:33:16Z</time>
      </trkpt>
      <trkpt lat="42.368957" lon="-5.036667">
        <ele>861.9103543702513</ele>
        <time>2022-05-19T12:33:27Z</time>
      </trkpt>
      <trkpt lat="42.368971" lon="-5.036795">
        <ele>860.9689203733578</ele>
        <time>2022-05-19T12:33:47Z</time>
      </trkpt>
      <trkpt lat="42.36897" lon="-5.036921">
        <ele>859.892809484154</ele>
        <time>2022-05-19T12:33:54Z</time>
      </trkpt>
      <trkpt lat="42.368998" lon="-5.037044">
        <ele>860.3327619927004</ele>
        <time>2022-05-19T12:34:21Z</time>
      </trkpt>
      <trkpt lat="42.369047" lon="-5.037155">
        <ele>859.9544537793845</ele>
        <time>2022-05-19T12:34:28Z</time>
      </trkpt>
      <trkpt lat="42.369079" lon="-5.037269">
        <ele>861.8541307384148</ele>
        <time>2022-05-19T12:34:35Z</time>
      </trkpt>
      <trkpt lat="42.369117" lon="-5.037384">
        <ele>863.768152166158</ele>
        <time>2022-05-19T12:35:11Z</time>
      </trkpt>
      <trkpt lat="42.369159" lon="-5.037494">
        <ele>865.431720434688</ele>
        <time>2022-05-19T12:35:17Z</time>
      </trkpt>
      <trkpt lat="42.369208" lon="-5.037619">
        <ele>866.299390764907</ele>
        <time>2022-05-19T12:35:24Z</time>
      </trkpt>
      <trkpt lat="42.369233" lon="-5.037747">
        <ele>867.3159548593685</ele>
        <time>2022-05-19T12:35:30Z</time>
      </trkpt>
      <trkpt lat="42.369241" lon="-5.037877">
        <ele>867.872886992991</ele>
        <time>2022-05-19T12:35:38Z</time>
      </trkpt>
      <trkpt lat="42.369274" lon="-5.037999">
        <ele>868.2528338534757</ele>
        <time>2022-05-19T12:35:45Z</time>
      </trkpt>
      <trkpt lat="42.369309" lon="-5.038118">
        <ele>869.5233957674354</ele>
        <time>2022-05-19T12:35:52Z</time>
      </trkpt>
      <trkpt lat="42.36935" lon="-5.038234">
        <ele>870.097511138767</ele>
        <time>2022-05-19T12:35:58Z</time>
      </trkpt>
      <trkpt lat="42.36941" lon="-5.038328">
        <ele>868.6326888957992</ele>
        <time>2022-05-19T12:36:04Z</time>
      </trkpt>
      <trkpt lat="42.369474" lon="-5.038424">
        <ele>870.547962801531</ele>
        <time>2022-05-19T12:36:14Z</time>
      </trkpt>
      <trkpt lat="42.369539" lon="-5.038508">
        <ele>871.6475509684533</ele>
        <time>2022-05-19T12:36:20Z</time>
      </trkpt>
      <trkpt lat="42.369558" lon="-5.038637">
        <ele>869.4738356340677</ele>
        <time>2022-05-19T12:36:30Z</time>
      </trkpt>
      <trkpt lat="42.369595" lon="-5.038762">
        <ele>867.5131905693561</ele>
        <time>2022-05-19T12:36:40Z</time>
      </trkpt>
      <trkpt lat="42.36963" lon="-5.038882">
        <ele>866.9846260733902</ele>
        <time>2022-05-19T12:36:48Z</time>
      </trkpt>
      <trkpt lat="42.369679" lon="-5.039009">
        <ele>868.4778894744813</ele>
        <time>2022-05-19T12:36:53Z</time>
      </trkpt>
      <trkpt lat="42.369746" lon="-5.039118">
        <ele>868.6623256411403</ele>
        <time>2022-05-19T12:36:59Z</time>
      </trkpt>
      <trkpt lat="42.369801" lon="-5.039218">
        <ele>868.5479335458949</ele>
        <time>2022-05-19T12:37:06Z</time>
      </trkpt>
      <trkpt lat="42.369832" lon="-5.039347">
        <ele>868.1675095092505</ele>
        <time>2022-05-19T12:37:15Z</time>
      </trkpt>
      <trkpt lat="42.369885" lon="-5.039463">
        <ele>867.3282789522782</ele>
        <time>2022-05-19T12:37:22Z</time>
      </trkpt>
      <trkpt lat="42.369936" lon="-5.039586">
        <ele>866.6002752473578</ele>
        <time>2022-05-19T12:37:30Z</time>
      </trkpt>
      <trkpt lat="42.369982" lon="-5.03969">
        <ele>866.4632763750851</ele>
        <time>2022-05-19T12:37:37Z</time>
      </trkpt>
      <trkpt lat="42.370029" lon="-5.039802">
        <ele>868.7325950684026</ele>
        <time>2022-05-19T12:37:45Z</time>
      </trkpt>
      <trkpt lat="42.370079" lon="-5.039925">
        <ele>869.8758497331291</ele>
        <time>2022-05-19T12:38:05Z</time>
      </trkpt>
      <trkpt lat="42.370124" lon="-5.040081">
        <ele>871.038599464111</ele>
        <time>2022-05-19T12:38:11Z</time>
      </trkpt>
      <trkpt lat="42.370185" lon="-5.040198">
        <ele>869.8047351744026</ele>
        <time>2022-05-19T12:38:16Z</time>
      </trkpt>
      <trkpt lat="42.370236" lon="-5.040322">
        <ele>868.3961679758504</ele>
        <time>2022-05-19T12:38:21Z</time>
      </trkpt>
      <trkpt lat="42.370286" lon="-5.040431">
        <ele>869.4054971495643</ele>
        <time>2022-05-19T12:38:26Z</time>
      </trkpt>
      <trkpt lat="42.370344" lon="-5.040543">
        <ele>871.8390707233921</ele>
        <time>2022-05-19T12:38:32Z</time>
      </trkpt>
      <trkpt lat="42.370382" lon="-5.040666">
        <ele>869.9538360405713</ele>
        <time>2022-05-19T12:38:40Z</time>
      </trkpt>
      <trkpt lat="42.370431" lon="-5.040771">
        <ele>870.3494933433831</ele>
        <time>2022-05-19T12:38:47Z</time>
      </trkpt>
      <trkpt lat="42.37048" lon="-5.040883">
        <ele>871.321165160276</ele>
        <time>2022-05-19T12:38:53Z</time>
      </trkpt>
      <trkpt lat="42.37052" lon="-5.041005">
        <ele>871.1698770178482</ele>
        <time>2022-05-19T12:39:00Z</time>
      </trkpt>
      <trkpt lat="42.370553" lon="-5.04113">
        <ele>868.8397898618132</ele>
        <time>2022-05-19T12:39:07Z</time>
      </trkpt>
      <trkpt lat="42.370581" lon="-5.041254">
        <ele>868.2372191110626</ele>
        <time>2022-05-19T12:39:14Z</time>
      </trkpt>
      <trkpt lat="42.370637" lon="-5.041352">
        <ele>868.9681126596406</ele>
        <time>2022-05-19T12:39:20Z</time>
      </trkpt>
      <trkpt lat="42.370695" lon="-5.041447">
        <ele>870.0183935472742</ele>
        <time>2022-05-19T12:39:26Z</time>
      </trkpt>
      <trkpt lat="42.370732" lon="-5.041574">
        <ele>870.6335654612631</ele>
        <time>2022-05-19T12:39:37Z</time>
      </trkpt>
      <trkpt lat="42.370772" lon="-5.041705">
        <ele>868.8645499451086</ele>
        <time>2022-05-19T12:39:48Z</time>
      </trkpt>
      <trkpt lat="42.370814" lon="-5.041825">
        <ele>867.8977716220543</ele>
        <time>2022-05-19T12:39:53Z</time>
      </trkpt>
      <trkpt lat="42.370859" lon="-5.041941">
        <ele>868.145538947545</ele>
        <time>2022-05-19T12:39:58Z</time>
      </trkpt>
      <trkpt lat="42.370899" lon="-5.042058">
        <ele>868.1775467097759</ele>
        <time>2022-05-19T12:40:05Z</time>
      </trkpt>
      <trkpt lat="42.370947" lon="-5.042162">
        <ele>868.6957372995093</ele>
        <time>2022-05-19T12:40:10Z</time>
      </trkpt>
      <trkpt lat="42.370995" lon="-5.042278">
        <ele>869.5869968421757</ele>
        <time>2022-05-19T12:40:17Z</time>
      </trkpt>
      <trkpt lat="42.371045" lon="-5.042384">
        <ele>871.0775553146377</ele>
        <time>2022-05-19T12:40:23Z</time>
      </trkpt>
      <trkpt lat="42.371111" lon="-5.042503">
        <ele>870.3526084367186</ele>
        <time>2022-05-19T12:40:30Z</time>
      </trkpt>
      <trkpt lat="42.371153" lon="-5.04261">
        <ele>870.6043600980192</ele>
        <time>2022-05-19T12:40:37Z</time>
      </trkpt>
      <trkpt lat="42.37119" lon="-5.042728">
        <ele>870.4351013684645</ele>
        <time>2022-05-19T12:40:42Z</time>
      </trkpt>
      <trkpt lat="42.371234" lon="-5.042846">
        <ele>869.383533347398</ele>
        <time>2022-05-19T12:40:47Z</time>
      </trkpt>
      <trkpt lat="42.371265" lon="-5.042972">
        <ele>870.721913555637</ele>
        <time>2022-05-19T12:40:54Z</time>
      </trkpt>
      <trkpt lat="42.371318" lon="-5.043081">
        <ele>870.1781931873411</ele>
        <time>2022-05-19T12:41:01Z</time>
      </trkpt>
      <trkpt lat="42.371362" lon="-5.043199">
        <ele>869.6060893703252</ele>
        <time>2022-05-19T12:41:10Z</time>
      </trkpt>
      <trkpt lat="42.37141" lon="-5.043323">
        <ele>868.6310385828838</ele>
        <time>2022-05-19T12:41:18Z</time>
      </trkpt>
      <trkpt lat="42.371454" lon="-5.043432">
        <ele>869.6690996354446</ele>
        <time>2022-05-19T12:41:25Z</time>
      </trkpt>
      <trkpt lat="42.371496" lon="-5.043557">
        <ele>870.7891853665933</ele>
        <time>2022-05-19T12:41:32Z</time>
      </trkpt>
      <trkpt lat="42.371538" lon="-5.043665">
        <ele>872.8848174568266</ele>
        <time>2022-05-19T12:41:38Z</time>
      </trkpt>
      <trkpt lat="42.371571" lon="-5.043793">
        <ele>871.2650556685403</ele>
        <time>2022-05-19T12:41:45Z</time>
      </trkpt>
      <trkpt lat="42.371607" lon="-5.043905">
        <ele>869.5113107310608</ele>
        <time>2022-05-19T12:41:50Z</time>
      </trkpt>
      <trkpt lat="42.371637" lon="-5.044034">
        <ele>869.1856073457748</ele>
        <time>2022-05-19T12:41:57Z</time>
      </trkpt>
      <trkpt lat="42.371659" lon="-5.04416">
        <ele>867.1484107207507</ele>
        <time>2022-05-19T12:42:07Z</time>
      </trkpt>
      <trkpt lat="42.371714" lon="-5.044279">
        <ele>865.1683312356472</ele>
        <time>2022-05-19T12:42:14Z</time>
      </trkpt>
      <trkpt lat="42.371788" lon="-5.044386">
        <ele>865.2326263356954</ele>
        <time>2022-05-19T12:42:20Z</time>
      </trkpt>
      <trkpt lat="42.371854" lon="-5.044469">
        <ele>864.3446280974895</ele>
        <time>2022-05-19T12:42:25Z</time>
      </trkpt>
      <trkpt lat="42.371911" lon="-5.044568">
        <ele>864.9345291722566</ele>
        <time>2022-05-19T12:42:30Z</time>
      </trkpt>
      <trkpt lat="42.371955" lon="-5.044677">
        <ele>863.7891555465758</ele>
        <time>2022-05-19T12:42:37Z</time>
      </trkpt>
      <trkpt lat="42.37195" lon="-5.044811">
        <ele>862.6670531285927</ele>
        <time>2022-05-19T12:42:44Z</time>
      </trkpt>
      <trkpt lat="42.37198" lon="-5.04493">
        <ele>862.3505334667861</ele>
        <time>2022-05-19T12:42:51Z</time>
      </trkpt>
      <trkpt lat="42.372036" lon="-5.045029">
        <ele>863.2264680806547</ele>
        <time>2022-05-19T12:42:58Z</time>
      </trkpt>
      <trkpt lat="42.372082" lon="-5.045135">
        <ele>864.5170498229563</ele>
        <time>2022-05-19T12:43:07Z</time>
      </trkpt>
      <trkpt lat="42.372147" lon="-5.045266">
        <ele>865.995422036387</ele>
        <time>2022-05-19T12:43:15Z</time>
      </trkpt>
      <trkpt lat="42.372189" lon="-5.045378">
        <ele>864.2413581497967</ele>
        <time>2022-05-19T12:43:22Z</time>
      </trkpt>
      <trkpt lat="42.372208" lon="-5.045505">
        <ele>863.682323330082</ele>
        <time>2022-05-19T12:43:30Z</time>
      </trkpt>
      <trkpt lat="42.372263" lon="-5.045649">
        <ele>863.6814203644171</ele>
        <time>2022-05-19T12:43:36Z</time>
      </trkpt>
      <trkpt lat="42.372303" lon="-5.045761">
        <ele>864.9504222329706</ele>
        <time>2022-05-19T12:43:42Z</time>
      </trkpt>
      <trkpt lat="42.372347" lon="-5.045875">
        <ele>864.8836359707639</ele>
        <time>2022-05-19T12:43:49Z</time>
      </trkpt>
      <trkpt lat="42.372402" lon="-5.045978">
        <ele>863.2570994338021</ele>
        <time>2022-05-19T12:43:56Z</time>
      </trkpt>
      <trkpt lat="42.372465" lon="-5.046082">
        <ele>864.4316947665066</ele>
        <time>2022-05-19T12:44:04Z</time>
      </trkpt>
      <trkpt lat="42.372521" lon="-5.04619">
        <ele>863.9852620018646</ele>
        <time>2022-05-19T12:44:11Z</time>
      </trkpt>
      <trkpt lat="42.372574" lon="-5.046293">
        <ele>862.8932007318363</ele>
        <time>2022-05-19T12:44:18Z</time>
      </trkpt>
      <trkpt lat="42.372638" lon="-5.046396">
        <ele>862.0662181153893</ele>
        <time>2022-05-19T12:44:26Z</time>
      </trkpt>
      <trkpt lat="42.372692" lon="-5.046505">
        <ele>861.9223498990759</ele>
        <time>2022-05-19T12:44:33Z</time>
      </trkpt>
      <trkpt lat="42.372719" lon="-5.046629">
        <ele>861.5554414177313</ele>
        <time>2022-05-19T12:44:42Z</time>
      </trkpt>
      <trkpt lat="42.372756" lon="-5.046755">
        <ele>859.7840586612001</ele>
        <time>2022-05-19T12:44:50Z</time>
      </trkpt>
      <trkpt lat="42.372798" lon="-5.046875">
        <ele>857.5938162570819</ele>
        <time>2022-05-19T12:44:59Z</time>
      </trkpt>
      <trkpt lat="42.37285" lon="-5.046979">
        <ele>855.2983206734061</ele>
        <time>2022-05-19T12:45:05Z</time>
      </trkpt>
      <trkpt lat="42.372901" lon="-5.047103">
        <ele>852.8792675482109</ele>
        <time>2022-05-19T12:45:12Z</time>
      </trkpt>
      <trkpt lat="42.372949" lon="-5.047211">
        <ele>851.7107986677438</ele>
        <time>2022-05-19T12:45:17Z</time>
      </trkpt>
      <trkpt lat="42.372993" lon="-5.047324">
        <ele>850.6560784662142</ele>
        <time>2022-05-19T12:45:24Z</time>
      </trkpt>
      <trkpt lat="42.373046" lon="-5.047424">
        <ele>848.3426335444674</ele>
        <time>2022-05-19T12:45:33Z</time>
      </trkpt>
      <trkpt lat="42.373099" lon="-5.047527">
        <ele>846.5758731076494</ele>
        <time>2022-05-19T12:45:40Z</time>
      </trkpt>
      <trkpt lat="42.373159" lon="-5.047638">
        <ele>844.8769378298894</ele>
        <time>2022-05-19T12:45:48Z</time>
      </trkpt>
      <trkpt lat="42.373207" lon="-5.047745">
        <ele>844.2175103304908</ele>
        <time>2022-05-19T12:45:55Z</time>
      </trkpt>
      <trkpt lat="42.373261" lon="-5.047866">
        <ele>843.8683573417366</ele>
        <time>2022-05-19T12:46:01Z</time>
      </trkpt>
      <trkpt lat="42.373312" lon="-5.047977">
        <ele>843.7508629085496</ele>
        <time>2022-05-19T12:46:08Z</time>
      </trkpt>
      <trkpt lat="42.373363" lon="-5.048082">
        <ele>844.5213628457859</ele>
        <time>2022-05-19T12:46:17Z</time>
      </trkpt>
      <trkpt lat="42.373401" lon="-5.048195">
        <ele>844.1537842787802</ele>
        <time>2022-05-19T12:46:25Z</time>
      </trkpt>
      <trkpt lat="42.37346" lon="-5.048307">
        <ele>843.0438909893855</ele>
        <time>2022-05-19T12:46:32Z</time>
      </trkpt>
      <trkpt lat="42.373525" lon="-5.048395">
        <ele>842.6056021796539</ele>
        <time>2022-05-19T12:46:39Z</time>
      </trkpt>
      <trkpt lat="42.373596" lon="-5.048497">
        <ele>842.2876144386828</ele>
        <time>2022-05-19T12:46:45Z</time>
      </trkpt>
      <trkpt lat="42.37365" lon="-5.048603">
        <ele>841.6133155347779</ele>
        <time>2022-05-19T12:46:52Z</time>
      </trkpt>
      <trkpt lat="42.3737" lon="-5.048706">
        <ele>841.6271366365254</ele>
        <time>2022-05-19T12:46:59Z</time>
      </trkpt>
      <trkpt lat="42.373748" lon="-5.048819">
        <ele>840.3785390257835</ele>
        <time>2022-05-19T12:47:07Z</time>
      </trkpt>
      <trkpt lat="42.37379" lon="-5.04893">
        <ele>839.577409684658</ele>
        <time>2022-05-19T12:47:13Z</time>
      </trkpt>
      <trkpt lat="42.373852" lon="-5.049036">
        <ele>838.8980399901047</ele>
        <time>2022-05-19T12:47:20Z</time>
      </trkpt>
      <trkpt lat="42.37389" lon="-5.049161">
        <ele>838.2405341910198</ele>
        <time>2022-05-19T12:47:28Z</time>
      </trkpt>
      <trkpt lat="42.373919" lon="-5.049276">
        <ele>838.4810450412333</ele>
        <time>2022-05-19T12:47:35Z</time>
      </trkpt>
      <trkpt lat="42.373931" lon="-5.049411">
        <ele>838.7290567951277</ele>
        <time>2022-05-19T12:47:41Z</time>
      </trkpt>
      <trkpt lat="42.373927" lon="-5.049545">
        <ele>838.562197827734</ele>
        <time>2022-05-19T12:47:48Z</time>
      </trkpt>
      <trkpt lat="42.373941" lon="-5.049679">
        <ele>838.4958490729332</ele>
        <time>2022-05-19T12:47:55Z</time>
      </trkpt>
      <trkpt lat="42.374021" lon="-5.049769">
        <ele>840.0462885051966</ele>
        <time>2022-05-19T12:48:04Z</time>
      </trkpt>
      <trkpt lat="42.374109" lon="-5.049819">
        <ele>840.8011769494042</ele>
        <time>2022-05-19T12:48:10Z</time>
      </trkpt>
      <trkpt lat="42.374204" lon="-5.049873">
        <ele>841.4074846347794</ele>
        <time>2022-05-19T12:48:18Z</time>
      </trkpt>
      <trkpt lat="42.374311" lon="-5.049928">
        <ele>842.0248620687053</ele>
        <time>2022-05-19T12:48:25Z</time>
      </trkpt>
      <trkpt lat="42.374382" lon="-5.050005">
        <ele>842.5493555171415</ele>
        <time>2022-05-19T12:48:32Z</time>
      </trkpt>
      <trkpt lat="42.374426" lon="-5.050118">
        <ele>842.1672590514645</ele>
        <time>2022-05-19T12:48:39Z</time>
      </trkpt>
      <trkpt lat="42.374472" lon="-5.050223">
        <ele>843.6042522257194</ele>
        <time>2022-05-19T12:48:46Z</time>
      </trkpt>
      <trkpt lat="42.374523" lon="-5.050324">
        <ele>844.3136860048398</ele>
        <time>2022-05-19T12:48:54Z</time>
      </trkpt>
      <trkpt lat="42.374583" lon="-5.050415">
        <ele>843.782744994387</ele>
        <time>2022-05-19T12:49:01Z</time>
      </trkpt>
      <trkpt lat="42.374633" lon="-5.05052">
        <ele>843.5095074167475</ele>
        <time>2022-05-19T12:49:08Z</time>
      </trkpt>
      <trkpt lat="42.37467" lon="-5.050635">
        <ele>841.1190307093784</ele>
        <time>2022-05-19T12:49:17Z</time>
      </trkpt>
      <trkpt lat="42.374727" lon="-5.050736">
        <ele>840.1702196951956</ele>
        <time>2022-05-19T12:49:23Z</time>
      </trkpt>
      <trkpt lat="42.374795" lon="-5.050829">
        <ele>840.7496721157804</ele>
        <time>2022-05-19T12:49:29Z</time>
      </trkpt>
      <trkpt lat="42.37486" lon="-5.050921">
        <ele>841.1984302066267</ele>
        <time>2022-05-19T12:49:38Z</time>
      </trkpt>
      <trkpt lat="42.374925" lon="-5.051027">
        <ele>841.9573747757822</ele>
        <time>2022-05-19T12:49:44Z</time>
      </trkpt>
      <trkpt lat="42.374979" lon="-5.051125">
        <ele>842.3737224759534</ele>
        <time>2022-05-19T12:49:52Z</time>
      </trkpt>
      <trkpt lat="42.375046" lon="-5.05122">
        <ele>842.9686096897349</ele>
        <time>2022-05-19T12:49:59Z</time>
      </trkpt>
      <trkpt lat="42.375102" lon="-5.051321">
        <ele>842.7865452198312</ele>
        <time>2022-05-19T12:50:05Z</time>
      </trkpt>
      <trkpt lat="42.375166" lon="-5.05141">
        <ele>842.8601228771731</ele>
        <time>2022-05-19T12:50:11Z</time>
      </trkpt>
      <trkpt lat="42.375214" lon="-5.051525">
        <ele>842.7270675217733</ele>
        <time>2022-05-19T12:50:18Z</time>
      </trkpt>
      <trkpt lat="42.375262" lon="-5.051631">
        <ele>842.0135350720957</ele>
        <time>2022-05-19T12:50:35Z</time>
      </trkpt>
      <trkpt lat="42.375314" lon="-5.05173">
        <ele>842.1612315624952</ele>
        <time>2022-05-19T12:50:44Z</time>
      </trkpt>
      <trkpt lat="42.375353" lon="-5.05185">
        <ele>842.2186151165515</ele>
        <time>2022-05-19T12:50:50Z</time>
      </trkpt>
      <trkpt lat="42.3754" lon="-5.051964">
        <ele>842.4816325977445</ele>
        <time>2022-05-19T12:50:57Z</time>
      </trkpt>
      <trkpt lat="42.375435" lon="-5.05209">
        <ele>843.2739646825939</ele>
        <time>2022-05-19T12:51:03Z</time>
      </trkpt>
      <trkpt lat="42.375481" lon="-5.052203">
        <ele>845.2560477759689</ele>
        <time>2022-05-19T12:51:11Z</time>
      </trkpt>
      <trkpt lat="42.375521" lon="-5.052321">
        <ele>845.8465060098097</ele>
        <time>2022-05-19T12:51:18Z</time>
      </trkpt>
      <trkpt lat="42.375546" lon="-5.052451">
        <ele>846.0228951619938</ele>
        <time>2022-05-19T12:51:25Z</time>
      </trkpt>
      <trkpt lat="42.375569" lon="-5.052578">
        <ele>846.5826995661482</ele>
        <time>2022-05-19T12:51:32Z</time>
      </trkpt>
      <trkpt lat="42.375601" lon="-5.052703">
        <ele>847.0247013093904</ele>
        <time>2022-05-19T12:51:39Z</time>
      </trkpt>
      <trkpt lat="42.375647" lon="-5.05282">
        <ele>847.3984180176631</ele>
        <time>2022-05-19T12:51:45Z</time>
      </trkpt>
      <trkpt lat="42.375687" lon="-5.052949">
        <ele>847.0833620578051</ele>
        <time>2022-05-19T12:51:52Z</time>
      </trkpt>
      <trkpt lat="42.37572" lon="-5.053076">
        <ele>846.4421542445198</ele>
        <time>2022-05-19T12:51:58Z</time>
      </trkpt>
      <trkpt lat="42.375763" lon="-5.053197">
        <ele>846.3633726360276</ele>
        <time>2022-05-19T12:52:05Z</time>
      </trkpt>
      <trkpt lat="42.375795" lon="-5.053318">
        <ele>846.0610403334722</ele>
        <time>2022-05-19T12:52:13Z</time>
      </trkpt>
      <trkpt lat="42.375824" lon="-5.053438">
        <ele>845.8949194848537</ele>
        <time>2022-05-19T12:52:20Z</time>
      </trkpt>
      <trkpt lat="42.375851" lon="-5.053569">
        <ele>844.9343454344198</ele>
        <time>2022-05-19T12:52:27Z</time>
      </trkpt>
      <trkpt lat="42.375872" lon="-5.053698">
        <ele>845.9808967448771</ele>
        <time>2022-05-19T12:52:33Z</time>
      </trkpt>
      <trkpt lat="42.37589" lon="-5.05382">
        <ele>847.2686732448637</ele>
        <time>2022-05-19T12:52:39Z</time>
      </trkpt>
      <trkpt lat="42.375912" lon="-5.053939">
        <ele>848.3983818516135</ele>
        <time>2022-05-19T12:52:44Z</time>
      </trkpt>
      <trkpt lat="42.375932" lon="-5.054067">
        <ele>848.3500324077904</ele>
        <time>2022-05-19T12:52:51Z</time>
      </trkpt>
      <trkpt lat="42.375966" lon="-5.054196">
        <ele>847.8959877509624</ele>
        <time>2022-05-19T12:53:00Z</time>
      </trkpt>
      <trkpt lat="42.375987" lon="-5.054329">
        <ele>847.1698117144406</ele>
        <time>2022-05-19T12:53:08Z</time>
      </trkpt>
      <trkpt lat="42.376008" lon="-5.054449">
        <ele>846.4652544893324</ele>
        <time>2022-05-19T12:53:15Z</time>
      </trkpt>
      <trkpt lat="42.376026" lon="-5.05458">
        <ele>846.2812650715932</ele>
        <time>2022-05-19T12:53:22Z</time>
      </trkpt>
      <trkpt lat="42.376025" lon="-5.054716">
        <ele>845.811585964635</ele>
        <time>2022-05-19T12:53:29Z</time>
      </trkpt>
      <trkpt lat="42.376051" lon="-5.054869">
        <ele>845.7097735153511</ele>
        <time>2022-05-19T12:53:36Z</time>
      </trkpt>
      <trkpt lat="42.376069" lon="-5.054989">
        <ele>845.4895766023546</ele>
        <time>2022-05-19T12:53:42Z</time>
      </trkpt>
      <trkpt lat="42.376098" lon="-5.055113">
        <ele>845.5177665473893</ele>
        <time>2022-05-19T12:53:49Z</time>
      </trkpt>
      <trkpt lat="42.376135" lon="-5.055251">
        <ele>845.9700706116855</ele>
        <time>2022-05-19T12:53:56Z</time>
      </trkpt>
      <trkpt lat="42.376159" lon="-5.055376">
        <ele>845.8883851598948</ele>
        <time>2022-05-19T12:54:02Z</time>
      </trkpt>
      <trkpt lat="42.37618" lon="-5.055511">
        <ele>845.8917894568294</ele>
        <time>2022-05-19T12:54:09Z</time>
      </trkpt>
      <trkpt lat="42.376201" lon="-5.055636">
        <ele>846.9168544691056</ele>
        <time>2022-05-19T12:54:17Z</time>
      </trkpt>
      <trkpt lat="42.376229" lon="-5.055759">
        <ele>847.2755799535662</ele>
        <time>2022-05-19T12:54:24Z</time>
      </trkpt>
      <trkpt lat="42.376261" lon="-5.055872">
        <ele>847.276843290776</ele>
        <time>2022-05-19T12:54:30Z</time>
      </trkpt>
      <trkpt lat="42.376276" lon="-5.055996">
        <ele>847.4388259425759</ele>
        <time>2022-05-19T12:54:37Z</time>
      </trkpt>
      <trkpt lat="42.376289" lon="-5.056117">
        <ele>847.4432255430147</ele>
        <time>2022-05-19T12:54:43Z</time>
      </trkpt>
      <trkpt lat="42.376317" lon="-5.056241">
        <ele>847.6403072820976</ele>
        <time>2022-05-19T12:54:49Z</time>
      </trkpt>
      <trkpt lat="42.376341" lon="-5.056376">
        <ele>846.1692953705788</ele>
        <time>2022-05-19T12:54:55Z</time>
      </trkpt>
      <trkpt lat="42.376358" lon="-5.056514">
        <ele>846.1289129080251</ele>
        <time>2022-05-19T12:55:03Z</time>
      </trkpt>
      <trkpt lat="42.376361" lon="-5.056657">
        <ele>846.3004518384114</ele>
        <time>2022-05-19T12:55:09Z</time>
      </trkpt>
      <trkpt lat="42.376386" lon="-5.056786">
        <ele>846.9327645990998</ele>
        <time>2022-05-19T12:55:17Z</time>
      </trkpt>
      <trkpt lat="42.376419" lon="-5.056899">
        <ele>848.1978087406605</ele>
        <time>2022-05-19T12:55:23Z</time>
      </trkpt>
      <trkpt lat="42.376454" lon="-5.057018">
        <ele>848.2808080129325</ele>
        <time>2022-05-19T12:55:29Z</time>
      </trkpt>
      <trkpt lat="42.376486" lon="-5.057135">
        <ele>848.7250482896343</ele>
        <time>2022-05-19T12:55:35Z</time>
      </trkpt>
      <trkpt lat="42.376511" lon="-5.057269">
        <ele>847.9406387843192</ele>
        <time>2022-05-19T12:55:42Z</time>
      </trkpt>
      <trkpt lat="42.376523" lon="-5.057396">
        <ele>848.1869315812364</ele>
        <time>2022-05-19T12:55:49Z</time>
      </trkpt>
      <trkpt lat="42.376544" lon="-5.057524">
        <ele>848.0496795643121</ele>
        <time>2022-05-19T12:55:55Z</time>
      </trkpt>
      <trkpt lat="42.37657" lon="-5.057649">
        <ele>848.4863703204319</ele>
        <time>2022-05-19T12:56:02Z</time>
      </trkpt>
      <trkpt lat="42.376593" lon="-5.057773">
        <ele>848.3259532377124</ele>
        <time>2022-05-19T12:56:09Z</time>
      </trkpt>
      <trkpt lat="42.376612" lon="-5.057901">
        <ele>848.8123532999307</ele>
        <time>2022-05-19T12:56:17Z</time>
      </trkpt>
      <trkpt lat="42.37664" lon="-5.058037">
        <ele>848.7452462632209</ele>
        <time>2022-05-19T12:56:24Z</time>
      </trkpt>
      <trkpt lat="42.376668" lon="-5.058168">
        <ele>848.7711790734902</ele>
        <time>2022-05-19T12:56:30Z</time>
      </trkpt>
      <trkpt lat="42.376707" lon="-5.058297">
        <ele>848.7860061032698</ele>
        <time>2022-05-19T12:56:38Z</time>
      </trkpt>
      <trkpt lat="42.376738" lon="-5.058418">
        <ele>848.4696020940319</ele>
        <time>2022-05-19T12:56:45Z</time>
      </trkpt>
      <trkpt lat="42.37678" lon="-5.058531">
        <ele>848.3286459790543</ele>
        <time>2022-05-19T12:56:52Z</time>
      </trkpt>
      <trkpt lat="42.376796" lon="-5.058658">
        <ele>846.8782950406894</ele>
        <time>2022-05-19T12:57:00Z</time>
      </trkpt>
      <trkpt lat="42.376833" lon="-5.058777">
        <ele>846.5153145324439</ele>
        <time>2022-05-19T12:57:07Z</time>
      </trkpt>
      <trkpt lat="42.376871" lon="-5.058891">
        <ele>847.055905832909</ele>
        <time>2022-05-19T12:57:14Z</time>
      </trkpt>
      <trkpt lat="42.376907" lon="-5.059011">
        <ele>846.7420365083963</ele>
        <time>2022-05-19T12:57:20Z</time>
      </trkpt>
      <trkpt lat="42.376937" lon="-5.059142">
        <ele>845.8368346719071</ele>
        <time>2022-05-19T12:57:28Z</time>
      </trkpt>
      <trkpt lat="42.376968" lon="-5.059266">
        <ele>846.417388302274</ele>
        <time>2022-05-19T12:57:35Z</time>
      </trkpt>
      <trkpt lat="42.377004" lon="-5.059396">
        <ele>846.7792711770162</ele>
        <time>2022-05-19T12:57:42Z</time>
      </trkpt>
      <trkpt lat="42.377032" lon="-5.059527">
        <ele>848.4718510722741</ele>
        <time>2022-05-19T12:57:49Z</time>
      </trkpt>
      <trkpt lat="42.377064" lon="-5.059652">
        <ele>850.0527577791363</ele>
        <time>2022-05-19T12:57:57Z</time>
      </trkpt>
      <trkpt lat="42.377101" lon="-5.059767">
        <ele>851.1525432765484</ele>
        <time>2022-05-19T12:58:05Z</time>
      </trkpt>
      <trkpt lat="42.377139" lon="-5.05989">
        <ele>851.0660358788446</ele>
        <time>2022-05-19T12:58:12Z</time>
      </trkpt>
      <trkpt lat="42.377176" lon="-5.060014">
        <ele>852.599992509</ele>
        <time>2022-05-19T12:58:19Z</time>
      </trkpt>
      <trkpt lat="42.377219" lon="-5.060131">
        <ele>854.5371289467439</ele>
        <time>2022-05-19T12:58:27Z</time>
      </trkpt>
      <trkpt lat="42.377239" lon="-5.060267">
        <ele>855.9231061283499</ele>
        <time>2022-05-19T12:58:33Z</time>
      </trkpt>
      <trkpt lat="42.377281" lon="-5.060386">
        <ele>856.1750368848443</ele>
        <time>2022-05-19T12:58:40Z</time>
      </trkpt>
      <trkpt lat="42.377314" lon="-5.060503">
        <ele>857.0236637610942</ele>
        <time>2022-05-19T12:58:48Z</time>
      </trkpt>
      <trkpt lat="42.377338" lon="-5.06062">
        <ele>856.6244614282623</ele>
        <time>2022-05-19T12:58:55Z</time>
      </trkpt>
      <trkpt lat="42.377367" lon="-5.060736">
        <ele>856.6636621141806</ele>
        <time>2022-05-19T12:59:00Z</time>
      </trkpt>
      <trkpt lat="42.377398" lon="-5.06085">
        <ele>856.0423119794577</ele>
        <time>2022-05-19T12:59:08Z</time>
      </trkpt>
      <trkpt lat="42.377437" lon="-5.060977">
        <ele>855.9601910011843</ele>
        <time>2022-05-19T12:59:15Z</time>
      </trkpt>
      <trkpt lat="42.37748" lon="-5.061103">
        <ele>856.1104170959443</ele>
        <time>2022-05-19T12:59:45Z</time>
      </trkpt>
      <trkpt lat="42.377509" lon="-5.061224">
        <ele>856.3210520986468</ele>
        <time>2022-05-19T12:59:53Z</time>
      </trkpt>
      <trkpt lat="42.377545" lon="-5.061342">
        <ele>855.8881995836273</ele>
        <time>2022-05-19T13:00:00Z</time>
      </trkpt>
      <trkpt lat="42.377577" lon="-5.061472">
        <ele>856.0886946758255</ele>
        <time>2022-05-19T13:00:08Z</time>
      </trkpt>
      <trkpt lat="42.377613" lon="-5.061591">
        <ele>857.2928435439244</ele>
        <time>2022-05-19T13:00:14Z</time>
      </trkpt>
      <trkpt lat="42.377638" lon="-5.061714">
        <ele>857.7195430351421</ele>
        <time>2022-05-19T13:00:21Z</time>
      </trkpt>
      <trkpt lat="42.377663" lon="-5.061831">
        <ele>858.1415148302913</ele>
        <time>2022-05-19T13:00:29Z</time>
      </trkpt>
      <trkpt lat="42.377693" lon="-5.061951">
        <ele>858.4572122097015</ele>
        <time>2022-05-19T13:00:36Z</time>
      </trkpt>
      <trkpt lat="42.37772" lon="-5.062086">
        <ele>858.4607921270654</ele>
        <time>2022-05-19T13:00:44Z</time>
      </trkpt>
      <trkpt lat="42.377761" lon="-5.062197">
        <ele>858.0845168763772</ele>
        <time>2022-05-19T13:00:51Z</time>
      </trkpt>
      <trkpt lat="42.377795" lon="-5.062322">
        <ele>857.4770965995267</ele>
        <time>2022-05-19T13:00:58Z</time>
      </trkpt>
      <trkpt lat="42.377815" lon="-5.062457">
        <ele>857.4775576060638</ele>
        <time>2022-05-19T13:01:04Z</time>
      </trkpt>
      <trkpt lat="42.377848" lon="-5.062573">
        <ele>858.1965731149539</ele>
        <time>2022-05-19T13:01:10Z</time>
      </trkpt>
      <trkpt lat="42.377875" lon="-5.062702">
        <ele>857.0277160909027</ele>
        <time>2022-05-19T13:01:19Z</time>
      </trkpt>
      <trkpt lat="42.377909" lon="-5.062828">
        <ele>857.6881898930296</ele>
        <time>2022-05-19T13:01:25Z</time>
      </trkpt>
      <trkpt lat="42.377938" lon="-5.062947">
        <ele>857.7421899214387</ele>
        <time>2022-05-19T13:01:33Z</time>
      </trkpt>
      <trkpt lat="42.37799" lon="-5.063049">
        <ele>857.5852661598474</ele>
        <time>2022-05-19T13:01:39Z</time>
      </trkpt>
      <trkpt lat="42.378045" lon="-5.063162">
        <ele>858.7298569288105</ele>
        <time>2022-05-19T13:01:47Z</time>
      </trkpt>
      <trkpt lat="42.378103" lon="-5.063271">
        <ele>860.8879287540913</ele>
        <time>2022-05-19T13:02:22Z</time>
      </trkpt>
      <trkpt lat="42.378129" lon="-5.063392">
        <ele>861.4215257205069</ele>
        <time>2022-05-19T13:02:29Z</time>
      </trkpt>
      <trkpt lat="42.378164" lon="-5.063505">
        <ele>861.8265271456912</ele>
        <time>2022-05-19T13:02:35Z</time>
      </trkpt>
      <trkpt lat="42.3782" lon="-5.063631">
        <ele>861.3399960221723</ele>
        <time>2022-05-19T13:02:41Z</time>
      </trkpt>
      <trkpt lat="42.378236" lon="-5.063754">
        <ele>859.5535367783159</ele>
        <time>2022-05-19T13:02:49Z</time>
      </trkpt>
      <trkpt lat="42.378283" lon="-5.063875">
        <ele>858.6822374919429</ele>
        <time>2022-05-19T13:02:56Z</time>
      </trkpt>
      <trkpt lat="42.378348" lon="-5.063963">
        <ele>858.5443216888234</ele>
        <time>2022-05-19T13:03:31Z</time>
      </trkpt>
      <trkpt lat="42.378398" lon="-5.064069">
        <ele>858.3024395871907</ele>
        <time>2022-05-19T13:03:37Z</time>
      </trkpt>
      <trkpt lat="42.378446" lon="-5.064185">
        <ele>857.7714561969042</ele>
        <time>2022-05-19T13:03:45Z</time>
      </trkpt>
      <trkpt lat="42.378504" lon="-5.064305">
        <ele>857.9396687438712</ele>
        <time>2022-05-19T13:03:54Z</time>
      </trkpt>
      <trkpt lat="42.378567" lon="-5.064413">
        <ele>857.357483908534</ele>
        <time>2022-05-19T13:04:00Z</time>
      </trkpt>
      <trkpt lat="42.378614" lon="-5.064517">
        <ele>857.6091473409906</ele>
        <time>2022-05-19T13:04:07Z</time>
      </trkpt>
      <trkpt lat="42.378668" lon="-5.064629">
        <ele>857.8145669326186</ele>
        <time>2022-05-19T13:04:14Z</time>
      </trkpt>
      <trkpt lat="42.378708" lon="-5.064745">
        <ele>857.1702436525375</ele>
        <time>2022-05-19T13:04:20Z</time>
      </trkpt>
      <trkpt lat="42.378759" lon="-5.064852">
        <ele>857.624478357844</ele>
        <time>2022-05-19T13:04:26Z</time>
      </trkpt>
      <trkpt lat="42.378809" lon="-5.064954">
        <ele>856.8915907926857</ele>
        <time>2022-05-19T13:04:34Z</time>
      </trkpt>
      <trkpt lat="42.378869" lon="-5.065047">
        <ele>857.1404000269249</ele>
        <time>2022-05-19T13:04:40Z</time>
      </trkpt>
      <trkpt lat="42.378942" lon="-5.065137">
        <ele>857.7317133396864</ele>
        <time>2022-05-19T13:04:48Z</time>
      </trkpt>
      <trkpt lat="42.379002" lon="-5.06523">
        <ele>857.4628799837083</ele>
        <time>2022-05-19T13:04:54Z</time>
      </trkpt>
      <trkpt lat="42.379053" lon="-5.065347">
        <ele>855.8880175054073</ele>
        <time>2022-05-19T13:05:00Z</time>
      </trkpt>
      <trkpt lat="42.379102" lon="-5.065467">
        <ele>855.7865472137928</ele>
        <time>2022-05-19T13:05:08Z</time>
      </trkpt>
      <trkpt lat="42.379166" lon="-5.065565">
        <ele>855.613252765499</ele>
        <time>2022-05-19T13:05:14Z</time>
      </trkpt>
      <trkpt lat="42.379225" lon="-5.065671">
        <ele>854.5226076589897</ele>
        <time>2022-05-19T13:05:22Z</time>
      </trkpt>
      <trkpt lat="42.379283" lon="-5.065787">
        <ele>854.7715941742063</ele>
        <time>2022-05-19T13:05:29Z</time>
      </trkpt>
      <trkpt lat="42.379344" lon="-5.065901">
        <ele>855.5038579069078</ele>
        <time>2022-05-19T13:05:35Z</time>
      </trkpt>
      <trkpt lat="42.379411" lon="-5.065997">
        <ele>856.1869786716998</ele>
        <time>2022-05-19T13:05:43Z</time>
      </trkpt>
      <trkpt lat="42.379467" lon="-5.066093">
        <ele>856.8704260047525</ele>
        <time>2022-05-19T13:05:50Z</time>
      </trkpt>
      <trkpt lat="42.379526" lon="-5.066189">
        <ele>855.4274004781619</ele>
        <time>2022-05-19T13:05:58Z</time>
      </trkpt>
      <trkpt lat="42.379598" lon="-5.066282">
        <ele>854.9975469773635</ele>
        <time>2022-05-19T13:06:05Z</time>
      </trkpt>
      <trkpt lat="42.379665" lon="-5.066382">
        <ele>854.691121651791</ele>
        <time>2022-05-19T13:06:12Z</time>
      </trkpt>
      <trkpt lat="42.379726" lon="-5.06648">
        <ele>853.5939482655376</ele>
        <time>2022-05-19T13:06:20Z</time>
      </trkpt>
      <trkpt lat="42.379806" lon="-5.066558">
        <ele>853.7790828906</ele>
        <time>2022-05-19T13:06:25Z</time>
      </trkpt>
      <trkpt lat="42.379869" lon="-5.066651">
        <ele>853.5139612853527</ele>
        <time>2022-05-19T13:06:32Z</time>
      </trkpt>
      <trkpt lat="42.379939" lon="-5.066752">
        <ele>852.4741411898285</ele>
        <time>2022-05-19T13:06:39Z</time>
      </trkpt>
      <trkpt lat="42.380002" lon="-5.066865">
        <ele>851.9467059867457</ele>
        <time>2022-05-19T13:06:45Z</time>
      </trkpt>
      <trkpt lat="42.380065" lon="-5.066952">
        <ele>852.024486807175</ele>
        <time>2022-05-19T13:06:51Z</time>
      </trkpt>
      <trkpt lat="42.380113" lon="-5.067057">
        <ele>852.5731874480844</ele>
        <time>2022-05-19T13:06:58Z</time>
      </trkpt>
      <trkpt lat="42.380171" lon="-5.067154">
        <ele>852.6925445897505</ele>
        <time>2022-05-19T13:07:05Z</time>
      </trkpt>
      <trkpt lat="42.38023" lon="-5.067258">
        <ele>852.8864057548344</ele>
        <time>2022-05-19T13:07:13Z</time>
      </trkpt>
      <trkpt lat="42.380288" lon="-5.067373">
        <ele>852.5746943587437</ele>
        <time>2022-05-19T13:07:20Z</time>
      </trkpt>
      <trkpt lat="42.380361" lon="-5.06747">
        <ele>852.2368558719754</ele>
        <time>2022-05-19T13:07:27Z</time>
      </trkpt>
      <trkpt lat="42.380417" lon="-5.067581">
        <ele>853.8659142861143</ele>
        <time>2022-05-19T13:07:34Z</time>
      </trkpt>
      <trkpt lat="42.380492" lon="-5.067671">
        <ele>853.6936116358265</ele>
        <time>2022-05-19T13:07:40Z</time>
      </trkpt>
      <trkpt lat="42.38057" lon="-5.067756">
        <ele>852.8940341519192</ele>
        <time>2022-05-19T13:07:49Z</time>
      </trkpt>
      <trkpt lat="42.380619" lon="-5.067861">
        <ele>851.3564549116418</ele>
        <time>2022-05-19T13:07:58Z</time>
      </trkpt>
      <trkpt lat="42.380678" lon="-5.067967">
        <ele>848.60792181734</ele>
        <time>2022-05-19T13:08:05Z</time>
      </trkpt>
      <trkpt lat="42.38074" lon="-5.068059">
        <ele>847.2922257799655</ele>
        <time>2022-05-19T13:08:14Z</time>
      </trkpt>
      <trkpt lat="42.380811" lon="-5.068171">
        <ele>848.4230500692502</ele>
        <time>2022-05-19T13:08:22Z</time>
      </trkpt>
      <trkpt lat="42.380866" lon="-5.068285">
        <ele>850.1182970609516</ele>
        <time>2022-05-19T13:08:28Z</time>
      </trkpt>
      <trkpt lat="42.380907" lon="-5.0684">
        <ele>852.2002249900252</ele>
        <time>2022-05-19T13:08:34Z</time>
      </trkpt>
      <trkpt lat="42.380951" lon="-5.068517">
        <ele>854.6405568048358</ele>
        <time>2022-05-19T13:08:41Z</time>
      </trkpt>
      <trkpt lat="42.380993" lon="-5.068639">
        <ele>856.1933507733047</ele>
        <time>2022-05-19T13:08:49Z</time>
      </trkpt>
      <trkpt lat="42.381042" lon="-5.068746">
        <ele>856.8240477312356</ele>
        <time>2022-05-19T13:08:55Z</time>
      </trkpt>
      <trkpt lat="42.381077" lon="-5.068861">
        <ele>857.2896945690736</ele>
        <time>2022-05-19T13:09:03Z</time>
      </trkpt>
      <trkpt lat="42.381134" lon="-5.06898">
        <ele>856.7813975671306</ele>
        <time>2022-05-19T13:09:10Z</time>
      </trkpt>
      <trkpt lat="42.381174" lon="-5.069092">
        <ele>855.107358282432</ele>
        <time>2022-05-19T13:09:15Z</time>
      </trkpt>
      <trkpt lat="42.381217" lon="-5.069219">
        <ele>853.3536209436134</ele>
        <time>2022-05-19T13:09:22Z</time>
      </trkpt>
      <trkpt lat="42.38125" lon="-5.069349">
        <ele>852.389163767919</ele>
        <time>2022-05-19T13:09:30Z</time>
      </trkpt>
      <trkpt lat="42.381298" lon="-5.069472">
        <ele>851.0320000704378</ele>
        <time>2022-05-19T13:09:37Z</time>
      </trkpt>
      <trkpt lat="42.381341" lon="-5.069597">
        <ele>851.5163774490356</ele>
        <time>2022-05-19T13:09:44Z</time>
      </trkpt>
      <trkpt lat="42.381378" lon="-5.069708">
        <ele>851.9582079127431</ele>
        <time>2022-05-19T13:09:50Z</time>
      </trkpt>
      <trkpt lat="42.381413" lon="-5.06982">
        <ele>852.3196812802926</ele>
        <time>2022-05-19T13:09:57Z</time>
      </trkpt>
      <trkpt lat="42.38144" lon="-5.06994">
        <ele>853.4892237111926</ele>
        <time>2022-05-19T13:10:03Z</time>
      </trkpt>
      <trkpt lat="42.381458" lon="-5.070075">
        <ele>854.1130338646472</ele>
        <time>2022-05-19T13:10:10Z</time>
      </trkpt>
      <trkpt lat="42.38149" lon="-5.070195">
        <ele>856.540927939117</ele>
        <time>2022-05-19T13:10:17Z</time>
      </trkpt>
      <trkpt lat="42.38152" lon="-5.070316">
        <ele>858.27980426047</ele>
        <time>2022-05-19T13:10:25Z</time>
      </trkpt>
      <trkpt lat="42.381573" lon="-5.07043">
        <ele>859.5571665754542</ele>
        <time>2022-05-19T13:10:33Z</time>
      </trkpt>
      <trkpt lat="42.381634" lon="-5.070545">
        <ele>858.8317555841058</ele>
        <time>2022-05-19T13:10:40Z</time>
      </trkpt>
      <trkpt lat="42.381672" lon="-5.070661">
        <ele>858.8700092118233</ele>
        <time>2022-05-19T13:10:47Z</time>
      </trkpt>
      <trkpt lat="42.381716" lon="-5.07077">
        <ele>859.2390914289281</ele>
        <time>2022-05-19T13:10:53Z</time>
      </trkpt>
      <trkpt lat="42.381768" lon="-5.07087">
        <ele>858.8400213783607</ele>
        <time>2022-05-19T13:10:59Z</time>
      </trkpt>
      <trkpt lat="42.38181" lon="-5.070979">
        <ele>858.8911686064675</ele>
        <time>2022-05-19T13:11:05Z</time>
      </trkpt>
      <trkpt lat="42.38185" lon="-5.071105">
        <ele>858.2882948443294</ele>
        <time>2022-05-19T13:11:12Z</time>
      </trkpt>
      <trkpt lat="42.381869" lon="-5.071232">
        <ele>859.4315415099263</ele>
        <time>2022-05-19T13:11:19Z</time>
      </trkpt>
      <trkpt lat="42.381887" lon="-5.071361">
        <ele>860.7447292711586</ele>
        <time>2022-05-19T13:11:27Z</time>
      </trkpt>
      <trkpt lat="42.381915" lon="-5.071482">
        <ele>862.0021442072466</ele>
        <time>2022-05-19T13:11:35Z</time>
      </trkpt>
      <trkpt lat="42.38197" lon="-5.071584">
        <ele>864.0416118148714</ele>
        <time>2022-05-19T13:12:15Z</time>
      </trkpt>
      <trkpt lat="42.382015" lon="-5.071705">
        <ele>864.3832822199911</ele>
        <time>2022-05-19T13:12:23Z</time>
      </trkpt>
      <trkpt lat="42.382047" lon="-5.071819">
        <ele>863.2932984251529</ele>
        <time>2022-05-19T13:12:30Z</time>
      </trkpt>
      <trkpt lat="42.382088" lon="-5.071938">
        <ele>863.6692414777353</ele>
        <time>2022-05-19T13:12:35Z</time>
      </trkpt>
      <trkpt lat="42.382109" lon="-5.072063">
        <ele>864.0918120825663</ele>
        <time>2022-05-19T13:12:41Z</time>
      </trkpt>
      <trkpt lat="42.382118" lon="-5.072184">
        <ele>863.7547596683726</ele>
        <time>2022-05-19T13:12:47Z</time>
      </trkpt>
      <trkpt lat="42.382132" lon="-5.072315">
        <ele>863.8296704506502</ele>
        <time>2022-05-19T13:12:54Z</time>
      </trkpt>
      <trkpt lat="42.382137" lon="-5.072439">
        <ele>863.3525082636625</ele>
        <time>2022-05-19T13:13:02Z</time>
      </trkpt>
      <trkpt lat="42.38214" lon="-5.072575">
        <ele>863.9928707042709</ele>
        <time>2022-05-19T13:13:10Z</time>
      </trkpt>
      <trkpt lat="42.382143" lon="-5.072708">
        <ele>864.3609930239618</ele>
        <time>2022-05-19T13:13:17Z</time>
      </trkpt>
      <trkpt lat="42.382144" lon="-5.072838">
        <ele>864.3965111114085</ele>
        <time>2022-05-19T13:13:24Z</time>
      </trkpt>
      <trkpt lat="42.382156" lon="-5.073001">
        <ele>864.5444768415764</ele>
        <time>2022-05-19T13:13:31Z</time>
      </trkpt>
      <trkpt lat="42.382159" lon="-5.073138">
        <ele>865.1043337332085</ele>
        <time>2022-05-19T13:13:38Z</time>
      </trkpt>
      <trkpt lat="42.382162" lon="-5.073288">
        <ele>866.1955197518691</ele>
        <time>2022-05-19T13:13:46Z</time>
      </trkpt>
      <trkpt lat="42.382166" lon="-5.073416">
        <ele>867.0623611779884</ele>
        <time>2022-05-19T13:13:53Z</time>
      </trkpt>
      <trkpt lat="42.382169" lon="-5.073551">
        <ele>867.4276654943824</ele>
        <time>2022-05-19T13:14:01Z</time>
      </trkpt>
      <trkpt lat="42.382168" lon="-5.073683">
        <ele>866.3177951360121</ele>
        <time>2022-05-19T13:14:08Z</time>
      </trkpt>
      <trkpt lat="42.382177" lon="-5.073825">
        <ele>865.0406476771459</ele>
        <time>2022-05-19T13:14:16Z</time>
      </trkpt>
      <trkpt lat="42.3822" lon="-5.073953">
        <ele>864.847337464802</ele>
        <time>2022-05-19T13:14:23Z</time>
      </trkpt>
      <trkpt lat="42.382206" lon="-5.074087">
        <ele>865.054518754594</ele>
        <time>2022-05-19T13:14:30Z</time>
      </trkpt>
      <trkpt lat="42.382216" lon="-5.074216">
        <ele>865.5458833947778</ele>
        <time>2022-05-19T13:14:37Z</time>
      </trkpt>
      <trkpt lat="42.382236" lon="-5.074353">
        <ele>867.0579591980204</ele>
        <time>2022-05-19T13:14:43Z</time>
      </trkpt>
      <trkpt lat="42.382248" lon="-5.074494">
        <ele>869.4048070479184</ele>
        <time>2022-05-19T13:14:50Z</time>
      </trkpt>
      <trkpt lat="42.38224" lon="-5.074622">
        <ele>869.3638030160218</ele>
        <time>2022-05-19T13:14:55Z</time>
      </trkpt>
      <trkpt lat="42.382254" lon="-5.074746">
        <ele>868.5856584748253</ele>
        <time>2022-05-19T13:15:02Z</time>
      </trkpt>
      <trkpt lat="42.382249" lon="-5.074877">
        <ele>869.8025675546378</ele>
        <time>2022-05-19T13:15:09Z</time>
      </trkpt>
      <trkpt lat="42.382259" lon="-5.075016">
        <ele>871.5213890271261</ele>
        <time>2022-05-19T13:15:15Z</time>
      </trkpt>
      <trkpt lat="42.38227" lon="-5.075154">
        <ele>871.5803735395893</ele>
        <time>2022-05-19T13:15:22Z</time>
      </trkpt>
      <trkpt lat="42.38228" lon="-5.075288">
        <ele>872.3836864624172</ele>
        <time>2022-05-19T13:15:30Z</time>
      </trkpt>
      <trkpt lat="42.382282" lon="-5.075414">
        <ele>874.0626519322395</ele>
        <time>2022-05-19T13:15:38Z</time>
      </trkpt>
      <trkpt lat="42.382285" lon="-5.075536">
        <ele>874.77613583114</ele>
        <time>2022-05-19T13:15:45Z</time>
      </trkpt>
      <trkpt lat="42.382288" lon="-5.075669">
        <ele>875.0189304752275</ele>
        <time>2022-05-19T13:15:52Z</time>
      </trkpt>
      <trkpt lat="42.382297" lon="-5.075801">
        <ele>874.9386162618175</ele>
        <time>2022-05-19T13:15:59Z</time>
      </trkpt>
      <trkpt lat="42.382298" lon="-5.075927">
        <ele>876.1363399522379</ele>
        <time>2022-05-19T13:16:04Z</time>
      </trkpt>
      <trkpt lat="42.382308" lon="-5.076058">
        <ele>877.5943965315819</ele>
        <time>2022-05-19T13:16:11Z</time>
      </trkpt>
      <trkpt lat="42.382313" lon="-5.076188">
        <ele>878.7815717970952</ele>
        <time>2022-05-19T13:16:20Z</time>
      </trkpt>
      <trkpt lat="42.382333" lon="-5.076322">
        <ele>879.7889034133404</ele>
        <time>2022-05-19T13:16:27Z</time>
      </trkpt>
      <trkpt lat="42.382355" lon="-5.076448">
        <ele>879.0664171883836</ele>
        <time>2022-05-19T13:17:35Z</time>
      </trkpt>
      <trkpt lat="42.382397" lon="-5.07656">
        <ele>876.914752529934</ele>
        <time>2022-05-19T13:17:48Z</time>
      </trkpt>
      <trkpt lat="42.382442" lon="-5.076668">
        <ele>876.1733434852213</ele>
        <time>2022-05-19T13:17:55Z</time>
      </trkpt>
      <trkpt lat="42.382504" lon="-5.076771">
        <ele>875.4087513564155</ele>
        <time>2022-05-19T13:18:03Z</time>
      </trkpt>
      <trkpt lat="42.382572" lon="-5.076852">
        <ele>874.7330605629832</ele>
        <time>2022-05-19T13:18:12Z</time>
      </trkpt>
      <trkpt lat="42.382539" lon="-5.07698">
        <ele>873.8472457425669</ele>
        <time>2022-05-19T13:18:20Z</time>
      </trkpt>
      <trkpt lat="42.382497" lon="-5.077098">
        <ele>869.8408003626391</ele>
        <time>2022-05-19T13:18:29Z</time>
      </trkpt>
      <trkpt lat="42.382486" lon="-5.077234">
        <ele>868.0389105472714</ele>
        <time>2022-05-19T13:18:37Z</time>
      </trkpt>
      <trkpt lat="42.382481" lon="-5.077359">
        <ele>866.343228421174</ele>
        <time>2022-05-19T13:18:43Z</time>
      </trkpt>
      <trkpt lat="42.382513" lon="-5.077478">
        <ele>867.7033896334469</ele>
        <time>2022-05-19T13:18:53Z</time>
      </trkpt>
      <trkpt lat="42.382568" lon="-5.077575">
        <ele>868.3453544797376</ele>
        <time>2022-05-19T13:19:00Z</time>
      </trkpt>
      <trkpt lat="42.382613" lon="-5.077683">
        <ele>868.5661140438169</ele>
        <time>2022-05-19T13:19:09Z</time>
      </trkpt>
      <trkpt lat="42.382665" lon="-5.077798">
        <ele>867.5152951218188</ele>
        <time>2022-05-19T13:19:19Z</time>
      </trkpt>
      <trkpt lat="42.382716" lon="-5.077902">
        <ele>868.0896785221994</ele>
        <time>2022-05-19T13:19:27Z</time>
      </trkpt>
      <trkpt lat="42.382777" lon="-5.077992">
        <ele>867.6912668440491</ele>
        <time>2022-05-19T13:19:34Z</time>
      </trkpt>
      <trkpt lat="42.382817" lon="-5.078113">
        <ele>866.2265266664326</ele>
        <time>2022-05-19T13:20:40Z</time>
      </trkpt>
      <trkpt lat="42.382867" lon="-5.078222">
        <ele>865.609338379465</ele>
        <time>2022-05-19T13:20:49Z</time>
      </trkpt>
      <trkpt lat="42.382916" lon="-5.078348">
        <ele>866.9829063098878</ele>
        <time>2022-05-19T13:20:55Z</time>
      </trkpt>
      <trkpt lat="42.382953" lon="-5.078486">
        <ele>870.3053091196343</ele>
        <time>2022-05-19T13:21:02Z</time>
      </trkpt>
      <trkpt lat="42.382974" lon="-5.078612">
        <ele>872.3179780030623</ele>
        <time>2022-05-19T13:21:08Z</time>
      </trkpt>
      <trkpt lat="42.382994" lon="-5.078741">
        <ele>874.5840588249266</ele>
        <time>2022-05-19T13:21:17Z</time>
      </trkpt>
      <trkpt lat="42.383029" lon="-5.078861">
        <ele>875.987649731338</ele>
        <time>2022-05-19T13:21:24Z</time>
      </trkpt>
      <trkpt lat="42.383057" lon="-5.078984">
        <ele>875.678789225407</ele>
        <time>2022-05-19T13:21:40Z</time>
      </trkpt>
      <trkpt lat="42.383092" lon="-5.079103">
        <ele>878.0122282523662</ele>
        <time>2022-05-19T13:21:48Z</time>
      </trkpt>
      <trkpt lat="42.383106" lon="-5.079235">
        <ele>879.726995671168</ele>
        <time>2022-05-19T13:21:54Z</time>
      </trkpt>
      <trkpt lat="42.383126" lon="-5.079368">
        <ele>882.436849261634</ele>
        <time>2022-05-19T13:22:04Z</time>
      </trkpt>
      <trkpt lat="42.383153" lon="-5.079505">
        <ele>884.6326356194913</ele>
        <time>2022-05-19T13:22:12Z</time>
      </trkpt>
      <trkpt lat="42.383177" lon="-5.079637">
        <ele>885.8052822388709</ele>
        <time>2022-05-19T13:22:19Z</time>
      </trkpt>
      <trkpt lat="42.383196" lon="-5.079771">
        <ele>887.341791649349</ele>
        <time>2022-05-19T13:22:25Z</time>
      </trkpt>
      <trkpt lat="42.383212" lon="-5.079898">
        <ele>889.4138261014596</ele>
        <time>2022-05-19T13:22:32Z</time>
      </trkpt>
      <trkpt lat="42.383225" lon="-5.080022">
        <ele>891.9128157440573</ele>
        <time>2022-05-19T13:22:39Z</time>
      </trkpt>
      <trkpt lat="42.383258" lon="-5.080152">
        <ele>892.8489507585764</ele>
        <time>2022-05-19T13:22:45Z</time>
      </trkpt>
      <trkpt lat="42.383294" lon="-5.080268">
        <ele>892.6038237297907</ele>
        <time>2022-05-19T13:22:52Z</time>
      </trkpt>
      <trkpt lat="42.383313" lon="-5.080388">
        <ele>892.0388438049704</ele>
        <time>2022-05-19T13:22:59Z</time>
      </trkpt>
      <trkpt lat="42.383329" lon="-5.080519">
        <ele>892.9826842145994</ele>
        <time>2022-05-19T13:23:08Z</time>
      </trkpt>
      <trkpt lat="42.383337" lon="-5.080657">
        <ele>894.9013861790299</ele>
        <time>2022-05-19T13:23:17Z</time>
      </trkpt>
      <trkpt lat="42.383353" lon="-5.080794">
        <ele>896.8352869013324</ele>
        <time>2022-05-19T13:23:25Z</time>
      </trkpt>
      <trkpt lat="42.383382" lon="-5.080923">
        <ele>897.2093980833888</ele>
        <time>2022-05-19T13:23:32Z</time>
      </trkpt>
      <trkpt lat="42.383402" lon="-5.081044">
        <ele>897.8635574355721</ele>
        <time>2022-05-19T13:23:39Z</time>
      </trkpt>
      <trkpt lat="42.383428" lon="-5.081177">
        <ele>898.441343864426</ele>
        <time>2022-05-19T13:23:46Z</time>
      </trkpt>
      <trkpt lat="42.383449" lon="-5.081299">
        <ele>897.7533286558464</ele>
        <time>2022-05-19T13:23:53Z</time>
      </trkpt>
      <trkpt lat="42.383483" lon="-5.081434">
        <ele>898.0473910402507</ele>
        <time>2022-05-19T13:24:01Z</time>
      </trkpt>
      <trkpt lat="42.3835" lon="-5.081556">
        <ele>897.2542569460347</ele>
        <time>2022-05-19T13:24:07Z</time>
      </trkpt>
      <trkpt lat="42.383518" lon="-5.081685">
        <ele>896.4393951389939</ele>
        <time>2022-05-19T13:24:15Z</time>
      </trkpt>
      <trkpt lat="42.383537" lon="-5.081821">
        <ele>895.2438429128379</ele>
        <time>2022-05-19T13:24:21Z</time>
      </trkpt>
      <trkpt lat="42.383565" lon="-5.081941">
        <ele>894.3324891217053</ele>
        <time>2022-05-19T13:24:27Z</time>
      </trkpt>
      <trkpt lat="42.383593" lon="-5.082058">
        <ele>893.7434258479625</ele>
        <time>2022-05-19T13:24:33Z</time>
      </trkpt>
      <trkpt lat="42.383624" lon="-5.08218">
        <ele>892.8090544138104</ele>
        <time>2022-05-19T13:24:40Z</time>
      </trkpt>
      <trkpt lat="42.383641" lon="-5.082306">
        <ele>892.1373099545017</ele>
        <time>2022-05-19T13:24:49Z</time>
      </trkpt>
      <trkpt lat="42.383647" lon="-5.082433">
        <ele>891.3858913881704</ele>
        <time>2022-05-19T13:24:55Z</time>
      </trkpt>
      <trkpt lat="42.383662" lon="-5.082571">
        <ele>889.2882984243333</ele>
        <time>2022-05-19T13:25:03Z</time>
      </trkpt>
      <trkpt lat="42.38368" lon="-5.082707">
        <ele>888.3213898371905</ele>
        <time>2022-05-19T13:25:09Z</time>
      </trkpt>
      <trkpt lat="42.383701" lon="-5.082836">
        <ele>886.8631035266444</ele>
        <time>2022-05-19T13:25:16Z</time>
      </trkpt>
      <trkpt lat="42.383715" lon="-5.08296">
        <ele>886.5055014090613</ele>
        <time>2022-05-19T13:25:22Z</time>
      </trkpt>
      <trkpt lat="42.383728" lon="-5.083098">
        <ele>886.3076364845037</ele>
        <time>2022-05-19T13:25:29Z</time>
      </trkpt>
      <trkpt lat="42.383732" lon="-5.083227">
        <ele>887.9456019829959</ele>
        <time>2022-05-19T13:25:38Z</time>
      </trkpt>
      <trkpt lat="42.383767" lon="-5.083348">
        <ele>888.8575600804761</ele>
        <time>2022-05-19T13:25:45Z</time>
      </trkpt>
      <trkpt lat="42.383785" lon="-5.083471">
        <ele>891.3841250091791</ele>
        <time>2022-05-19T13:25:54Z</time>
      </trkpt>
      <trkpt lat="42.383812" lon="-5.083601">
        <ele>892.2452697223052</ele>
        <time>2022-05-19T13:26:01Z</time>
      </trkpt>
      <trkpt lat="42.383824" lon="-5.083727">
        <ele>892.3211214272305</ele>
        <time>2022-05-19T13:26:09Z</time>
      </trkpt>
      <trkpt lat="42.383846" lon="-5.083857">
        <ele>890.1167942648754</ele>
        <time>2022-05-19T13:26:18Z</time>
      </trkpt>
      <trkpt lat="42.38384" lon="-5.083994">
        <ele>888.10114855133</ele>
        <time>2022-05-19T13:26:27Z</time>
      </trkpt>
      <trkpt lat="42.383854" lon="-5.084122">
        <ele>886.7127784313634</ele>
        <time>2022-05-19T13:26:34Z</time>
      </trkpt>
      <trkpt lat="42.383867" lon="-5.084262">
        <ele>886.1023497590795</ele>
        <time>2022-05-19T13:26:40Z</time>
      </trkpt>
      <trkpt lat="42.383873" lon="-5.08439">
        <ele>886.3677071109414</ele>
        <time>2022-05-19T13:26:47Z</time>
      </trkpt>
      <trkpt lat="42.383885" lon="-5.084514">
        <ele>885.3023504577577</ele>
        <time>2022-05-19T13:26:52Z</time>
      </trkpt>
      <trkpt lat="42.383885" lon="-5.084638">
        <ele>884.3317351778969</ele>
        <time>2022-05-19T13:26:58Z</time>
      </trkpt>
      <trkpt lat="42.383888" lon="-5.084761">
        <ele>883.6038543386385</ele>
        <time>2022-05-19T13:27:05Z</time>
      </trkpt>
      <trkpt lat="42.383902" lon="-5.084883">
        <ele>884.3793329112232</ele>
        <time>2022-05-19T13:27:12Z</time>
      </trkpt>
      <trkpt lat="42.383915" lon="-5.085017">
        <ele>884.7733503086492</ele>
        <time>2022-05-19T13:27:20Z</time>
      </trkpt>
      <trkpt lat="42.383929" lon="-5.085141">
        <ele>884.9443604433909</ele>
        <time>2022-05-19T13:27:29Z</time>
      </trkpt>
      <trkpt lat="42.383933" lon="-5.085263">
        <ele>884.9831341430545</ele>
        <time>2022-05-19T13:27:35Z</time>
      </trkpt>
      <trkpt lat="42.383938" lon="-5.08539">
        <ele>884.7551994435489</ele>
        <time>2022-05-19T13:27:42Z</time>
      </trkpt>
      <trkpt lat="42.383949" lon="-5.085522">
        <ele>883.9913720404729</ele>
        <time>2022-05-19T13:27:50Z</time>
      </trkpt>
      <trkpt lat="42.383949" lon="-5.085645">
        <ele>883.4422259144485</ele>
        <time>2022-05-19T13:27:57Z</time>
      </trkpt>
      <trkpt lat="42.383954" lon="-5.085774">
        <ele>882.0067897643894</ele>
        <time>2022-05-19T13:28:04Z</time>
      </trkpt>
      <trkpt lat="42.383953" lon="-5.085907">
        <ele>881.5384177779779</ele>
        <time>2022-05-19T13:28:12Z</time>
      </trkpt>
      <trkpt lat="42.383952" lon="-5.086031">
        <ele>881.4814847642556</ele>
        <time>2022-05-19T13:28:20Z</time>
      </trkpt>
      <trkpt lat="42.383941" lon="-5.086153">
        <ele>881.0063343979418</ele>
        <time>2022-05-19T13:28:28Z</time>
      </trkpt>
      <trkpt lat="42.383935" lon="-5.086277">
        <ele>880.6585999596864</ele>
        <time>2022-05-19T13:28:36Z</time>
      </trkpt>
      <trkpt lat="42.383951" lon="-5.086413">
        <ele>879.2852031383663</ele>
        <time>2022-05-19T13:28:45Z</time>
      </trkpt>
      <trkpt lat="42.383959" lon="-5.086545">
        <ele>878.3297035833821</ele>
        <time>2022-05-19T13:28:53Z</time>
      </trkpt>
      <trkpt lat="42.383961" lon="-5.086677">
        <ele>878.0430901804939</ele>
        <time>2022-05-19T13:29:00Z</time>
      </trkpt>
      <trkpt lat="42.383971" lon="-5.086802">
        <ele>878.8220940260217</ele>
        <time>2022-05-19T13:29:08Z</time>
      </trkpt>
      <trkpt lat="42.383976" lon="-5.086933">
        <ele>879.6784617686644</ele>
        <time>2022-05-19T13:29:15Z</time>
      </trkpt>
      <trkpt lat="42.383979" lon="-5.087064">
        <ele>878.9308137884364</ele>
        <time>2022-05-19T13:29:22Z</time>
      </trkpt>
      <trkpt lat="42.383987" lon="-5.087188">
        <ele>878.4183660419658</ele>
        <time>2022-05-19T13:29:30Z</time>
      </trkpt>
      <trkpt lat="42.383993" lon="-5.08731">
        <ele>878.789229334332</ele>
        <time>2022-05-19T13:29:39Z</time>
      </trkpt>
      <trkpt lat="42.384001" lon="-5.087436">
        <ele>880.029436731711</ele>
        <time>2022-05-19T13:29:45Z</time>
      </trkpt>
      <trkpt lat="42.38401" lon="-5.087567">
        <ele>880.8230208521709</ele>
        <time>2022-05-19T13:29:54Z</time>
      </trkpt>
      <trkpt lat="42.383993" lon="-5.087689">
        <ele>881.8406092980877</ele>
        <time>2022-05-19T13:30:01Z</time>
      </trkpt>
      <trkpt lat="42.383994" lon="-5.087817">
        <ele>880.6695008967072</ele>
        <time>2022-05-19T13:30:09Z</time>
      </trkpt>
      <trkpt lat="42.384001" lon="-5.087942">
        <ele>879.6017490429804</ele>
        <time>2022-05-19T13:30:17Z</time>
      </trkpt>
      <trkpt lat="42.384004" lon="-5.088072">
        <ele>878.6529538054019</ele>
        <time>2022-05-19T13:30:25Z</time>
      </trkpt>
      <trkpt lat="42.383995" lon="-5.088194">
        <ele>878.2330083036795</ele>
        <time>2022-05-19T13:30:33Z</time>
      </trkpt>
      <trkpt lat="42.384011" lon="-5.088317">
        <ele>877.1206518178806</ele>
        <time>2022-05-19T13:30:40Z</time>
      </trkpt>
      <trkpt lat="42.384016" lon="-5.088446">
        <ele>876.2017721543089</ele>
        <time>2022-05-19T13:30:50Z</time>
      </trkpt>
      <trkpt lat="42.384007" lon="-5.088576">
        <ele>873.8593098223209</ele>
        <time>2022-05-19T13:30:59Z</time>
      </trkpt>
      <trkpt lat="42.38401" lon="-5.088705">
        <ele>872.5046985363588</ele>
        <time>2022-05-19T13:31:08Z</time>
      </trkpt>
      <trkpt lat="42.384024" lon="-5.088835">
        <ele>871.4730772236362</ele>
        <time>2022-05-19T13:31:15Z</time>
      </trkpt>
      <trkpt lat="42.384033" lon="-5.088958">
        <ele>870.0800956692547</ele>
        <time>2022-05-19T13:31:22Z</time>
      </trkpt>
      <trkpt lat="42.384039" lon="-5.089089">
        <ele>870.9527697982267</ele>
        <time>2022-05-19T13:31:29Z</time>
      </trkpt>
      <trkpt lat="42.384038" lon="-5.089222">
        <ele>872.5842633862048</ele>
        <time>2022-05-19T13:31:39Z</time>
      </trkpt>
      <trkpt lat="42.38405" lon="-5.089356">
        <ele>872.9693772280589</ele>
        <time>2022-05-19T13:31:47Z</time>
      </trkpt>
      <trkpt lat="42.384054" lon="-5.08949">
        <ele>873.9111957009882</ele>
        <time>2022-05-19T13:31:54Z</time>
      </trkpt>
      <trkpt lat="42.384051" lon="-5.089626">
        <ele>873.878111015074</ele>
        <time>2022-05-19T13:32:02Z</time>
      </trkpt>
      <trkpt lat="42.384045" lon="-5.089754">
        <ele>872.6728211035952</ele>
        <time>2022-05-19T13:32:10Z</time>
      </trkpt>
      <trkpt lat="42.384042" lon="-5.089889">
        <ele>870.9638213850558</ele>
        <time>2022-05-19T13:32:18Z</time>
      </trkpt>
      <trkpt lat="42.384029" lon="-5.090019">
        <ele>869.3993276813999</ele>
        <time>2022-05-19T13:32:25Z</time>
      </trkpt>
      <trkpt lat="42.384018" lon="-5.090141">
        <ele>868.5852981032804</ele>
        <time>2022-05-19T13:32:32Z</time>
      </trkpt>
      <trkpt lat="42.384014" lon="-5.090264">
        <ele>869.9706067331135</ele>
        <time>2022-05-19T13:32:39Z</time>
      </trkpt>
      <trkpt lat="42.38402" lon="-5.090393">
        <ele>871.1128899240866</ele>
        <time>2022-05-19T13:32:45Z</time>
      </trkpt>
      <trkpt lat="42.384018" lon="-5.090528">
        <ele>871.9207988185808</ele>
        <time>2022-05-19T13:32:53Z</time>
      </trkpt>
      <trkpt lat="42.38402" lon="-5.09065">
        <ele>872.4180970210582</ele>
        <time>2022-05-19T13:33:00Z</time>
      </trkpt>
      <trkpt lat="42.38402" lon="-5.090775">
        <ele>872.4604599587619</ele>
        <time>2022-05-19T13:33:05Z</time>
      </trkpt>
      <trkpt lat="42.384012" lon="-5.090906">
        <ele>872.6722291586921</ele>
        <time>2022-05-19T13:33:13Z</time>
      </trkpt>
      <trkpt lat="42.384012" lon="-5.091033">
        <ele>872.7318926695734</ele>
        <time>2022-05-19T13:33:20Z</time>
      </trkpt>
      <trkpt lat="42.384008" lon="-5.091169">
        <ele>873.150523820892</ele>
        <time>2022-05-19T13:33:29Z</time>
      </trkpt>
      <trkpt lat="42.384006" lon="-5.09129">
        <ele>873.6353246858343</ele>
        <time>2022-05-19T13:33:35Z</time>
      </trkpt>
      <trkpt lat="42.384006" lon="-5.091412">
        <ele>873.7968408539891</ele>
        <time>2022-05-19T13:33:42Z</time>
      </trkpt>
      <trkpt lat="42.383997" lon="-5.091536">
        <ele>874.9266505409032</ele>
        <time>2022-05-19T13:33:49Z</time>
      </trkpt>
      <trkpt lat="42.383986" lon="-5.091657">
        <ele>875.3938057767227</ele>
        <time>2022-05-19T13:33:56Z</time>
      </trkpt>
      <trkpt lat="42.383981" lon="-5.091795">
        <ele>875.5458882600069</ele>
        <time>2022-05-19T13:34:04Z</time>
      </trkpt>
      <trkpt lat="42.383967" lon="-5.091929">
        <ele>874.6149954227731</ele>
        <time>2022-05-19T13:34:10Z</time>
      </trkpt>
      <trkpt lat="42.383964" lon="-5.092063">
        <ele>873.6900831842795</ele>
        <time>2022-05-19T13:34:18Z</time>
      </trkpt>
      <trkpt lat="42.383957" lon="-5.092199">
        <ele>873.9352339729667</ele>
        <time>2022-05-19T13:34:24Z</time>
      </trkpt>
      <trkpt lat="42.38395" lon="-5.092323">
        <ele>874.3172609247267</ele>
        <time>2022-05-19T13:34:31Z</time>
      </trkpt>
      <trkpt lat="42.38395" lon="-5.092457">
        <ele>874.2624952699989</ele>
        <time>2022-05-19T13:34:38Z</time>
      </trkpt>
      <trkpt lat="42.383944" lon="-5.092579">
        <ele>873.5378837576136</ele>
        <time>2022-05-19T13:34:45Z</time>
      </trkpt>
      <trkpt lat="42.383937" lon="-5.092717">
        <ele>872.4099428560585</ele>
        <time>2022-05-19T13:34:52Z</time>
      </trkpt>
      <trkpt lat="42.383933" lon="-5.092857">
        <ele>869.8395349783823</ele>
        <time>2022-05-19T13:34:59Z</time>
      </trkpt>
      <trkpt lat="42.383929" lon="-5.092985">
        <ele>869.2920117322356</ele>
        <time>2022-05-19T13:35:05Z</time>
      </trkpt>
      <trkpt lat="42.383928" lon="-5.093118">
        <ele>870.3770172456279</ele>
        <time>2022-05-19T13:35:13Z</time>
      </trkpt>
      <trkpt lat="42.383929" lon="-5.093255">
        <ele>870.5626614792272</ele>
        <time>2022-05-19T13:35:21Z</time>
      </trkpt>
      <trkpt lat="42.383919" lon="-5.093382">
        <ele>869.6417704019696</ele>
        <time>2022-05-19T13:35:29Z</time>
      </trkpt>
      <trkpt lat="42.383905" lon="-5.093515">
        <ele>868.5166987432167</ele>
        <time>2022-05-19T13:35:38Z</time>
      </trkpt>
      <trkpt lat="42.3839" lon="-5.093654">
        <ele>868.7446258347481</ele>
        <time>2022-05-19T13:35:45Z</time>
      </trkpt>
      <trkpt lat="42.383906" lon="-5.093785">
        <ele>869.5829466199502</ele>
        <time>2022-05-19T13:35:52Z</time>
      </trkpt>
      <trkpt lat="42.383909" lon="-5.093912">
        <ele>870.7153851026669</ele>
        <time>2022-05-19T13:35:59Z</time>
      </trkpt>
      <trkpt lat="42.383909" lon="-5.094047">
        <ele>869.6452179811895</ele>
        <time>2022-05-19T13:36:05Z</time>
      </trkpt>
      <trkpt lat="42.383916" lon="-5.094187">
        <ele>870.5267620263621</ele>
        <time>2022-05-19T13:36:12Z</time>
      </trkpt>
      <trkpt lat="42.383909" lon="-5.094319">
        <ele>871.4549686433747</ele>
        <time>2022-05-19T13:36:19Z</time>
      </trkpt>
      <trkpt lat="42.383889" lon="-5.094447">
        <ele>871.74296831619</ele>
        <time>2022-05-19T13:36:25Z</time>
      </trkpt>
      <trkpt lat="42.38387" lon="-5.094575">
        <ele>871.1330527123064</ele>
        <time>2022-05-19T13:36:34Z</time>
      </trkpt>
      <trkpt lat="42.383861" lon="-5.094706">
        <ele>870.8083632094786</ele>
        <time>2022-05-19T13:36:40Z</time>
      </trkpt>
      <trkpt lat="42.383855" lon="-5.094829">
        <ele>870.7652917001396</ele>
        <time>2022-05-19T13:36:48Z</time>
      </trkpt>
      <trkpt lat="42.383853" lon="-5.094959">
        <ele>871.6413516094908</ele>
        <time>2022-05-19T13:36:54Z</time>
      </trkpt>
      <trkpt lat="42.383855" lon="-5.095084">
        <ele>871.5762089891359</ele>
        <time>2022-05-19T13:37:00Z</time>
      </trkpt>
      <trkpt lat="42.383846" lon="-5.095217">
        <ele>873.0735872797668</ele>
        <time>2022-05-19T13:37:08Z</time>
      </trkpt>
      <trkpt lat="42.38383" lon="-5.09535">
        <ele>874.8768354430795</ele>
        <time>2022-05-19T13:37:15Z</time>
      </trkpt>
      <trkpt lat="42.383831" lon="-5.095478">
        <ele>875.843101169914</ele>
        <time>2022-05-19T13:37:23Z</time>
      </trkpt>
      <trkpt lat="42.38383" lon="-5.09561">
        <ele>875.6777942404151</ele>
        <time>2022-05-19T13:37:30Z</time>
      </trkpt>
      <trkpt lat="42.383828" lon="-5.095735">
        <ele>875.6289239833131</ele>
        <time>2022-05-19T13:37:37Z</time>
      </trkpt>
      <trkpt lat="42.383828" lon="-5.095869">
        <ele>876.3391835549846</ele>
        <time>2022-05-19T13:37:44Z</time>
      </trkpt>
      <trkpt lat="42.383822" lon="-5.095997">
        <ele>875.36491702497</ele>
        <time>2022-05-19T13:37:50Z</time>
      </trkpt>
      <trkpt lat="42.383811" lon="-5.096134">
        <ele>875.2232210030779</ele>
        <time>2022-05-19T13:37:57Z</time>
      </trkpt>
      <trkpt lat="42.383802" lon="-5.096262">
        <ele>874.7859467808157</ele>
        <time>2022-05-19T13:38:04Z</time>
      </trkpt>
      <trkpt lat="42.383797" lon="-5.096394">
        <ele>874.6977713089436</ele>
        <time>2022-05-19T13:38:13Z</time>
      </trkpt>
      <trkpt lat="42.38381" lon="-5.096526">
        <ele>874.480441140011</ele>
        <time>2022-05-19T13:38:20Z</time>
      </trkpt>
      <trkpt lat="42.383811" lon="-5.096663">
        <ele>873.9583359863609</ele>
        <time>2022-05-19T13:38:28Z</time>
      </trkpt>
      <trkpt lat="42.383815" lon="-5.096793">
        <ele>873.6507818438113</ele>
        <time>2022-05-19T13:38:34Z</time>
      </trkpt>
      <trkpt lat="42.383806" lon="-5.09692">
        <ele>874.735417325981</ele>
        <time>2022-05-19T13:38:41Z</time>
      </trkpt>
      <trkpt lat="42.38381" lon="-5.097054">
        <ele>873.6944965319708</ele>
        <time>2022-05-19T13:38:47Z</time>
      </trkpt>
      <trkpt lat="42.383824" lon="-5.09718">
        <ele>872.307710508816</ele>
        <time>2022-05-19T13:38:53Z</time>
      </trkpt>
      <trkpt lat="42.383828" lon="-5.097304">
        <ele>870.8893879391253</ele>
        <time>2022-05-19T13:39:00Z</time>
      </trkpt>
      <trkpt lat="42.383841" lon="-5.097434">
        <ele>869.2831494947895</ele>
        <time>2022-05-19T13:39:08Z</time>
      </trkpt>
      <trkpt lat="42.383842" lon="-5.097562">
        <ele>867.7686960557476</ele>
        <time>2022-05-19T13:39:14Z</time>
      </trkpt>
      <trkpt lat="42.383848" lon="-5.097695">
        <ele>866.778899539262</ele>
        <time>2022-05-19T13:39:19Z</time>
      </trkpt>
      <trkpt lat="42.383856" lon="-5.097818">
        <ele>866.308228882961</ele>
        <time>2022-05-19T13:39:25Z</time>
      </trkpt>
      <trkpt lat="42.383866" lon="-5.097946">
        <ele>864.8637545406818</ele>
        <time>2022-05-19T13:39:31Z</time>
      </trkpt>
      <trkpt lat="42.383879" lon="-5.098088">
        <ele>864.1801140429452</ele>
        <time>2022-05-19T13:39:38Z</time>
      </trkpt>
      <trkpt lat="42.383888" lon="-5.098213">
        <ele>863.2102845925838</ele>
        <time>2022-05-19T13:39:44Z</time>
      </trkpt>
      <trkpt lat="42.383898" lon="-5.098348">
        <ele>862.7709705419838</ele>
        <time>2022-05-19T13:39:53Z</time>
      </trkpt>
      <trkpt lat="42.383904" lon="-5.098469">
        <ele>861.9883855218068</ele>
        <time>2022-05-19T13:39:59Z</time>
      </trkpt>
      <trkpt lat="42.3839" lon="-5.098604">
        <ele>862.2240416165441</ele>
        <time>2022-05-19T13:40:05Z</time>
      </trkpt>
      <trkpt lat="42.383902" lon="-5.098737">
        <ele>862.7533642901108</ele>
        <time>2022-05-19T13:40:10Z</time>
      </trkpt>
      <trkpt lat="42.383907" lon="-5.09887">
        <ele>862.7238558428362</ele>
        <time>2022-05-19T13:40:17Z</time>
      </trkpt>
      <trkpt lat="42.383921" lon="-5.098996">
        <ele>862.7883645528927</ele>
        <time>2022-05-19T13:40:24Z</time>
      </trkpt>
      <trkpt lat="42.383931" lon="-5.099121">
        <ele>863.3172642206773</ele>
        <time>2022-05-19T13:40:30Z</time>
      </trkpt>
      <trkpt lat="42.383945" lon="-5.099245">
        <ele>863.8441967330873</ele>
        <time>2022-05-19T13:40:35Z</time>
      </trkpt>
      <trkpt lat="42.383969" lon="-5.099375">
        <ele>864.5056129628792</ele>
        <time>2022-05-19T13:40:43Z</time>
      </trkpt>
      <trkpt lat="42.38398" lon="-5.099509">
        <ele>864.0401726616547</ele>
        <time>2022-05-19T13:40:50Z</time>
      </trkpt>
      <trkpt lat="42.383983" lon="-5.099631">
        <ele>864.3958705151454</ele>
        <time>2022-05-19T13:40:57Z</time>
      </trkpt>
      <trkpt lat="42.383991" lon="-5.099755">
        <ele>865.2671212265268</ele>
        <time>2022-05-19T13:41:02Z</time>
      </trkpt>
      <trkpt lat="42.383995" lon="-5.099883">
        <ele>866.7545098559931</ele>
        <time>2022-05-19T13:41:09Z</time>
      </trkpt>
      <trkpt lat="42.383998" lon="-5.10001">
        <ele>867.7000074721873</ele>
        <time>2022-05-19T13:41:15Z</time>
      </trkpt>
      <trkpt lat="42.384008" lon="-5.100134">
        <ele>868.5851872488856</ele>
        <time>2022-05-19T13:41:20Z</time>
      </trkpt>
      <trkpt lat="42.38402" lon="-5.100266">
        <ele>869.6316772513092</ele>
        <time>2022-05-19T13:41:28Z</time>
      </trkpt>
      <trkpt lat="42.384036" lon="-5.100387">
        <ele>871.3505557738245</ele>
        <time>2022-05-19T13:41:35Z</time>
      </trkpt>
      <trkpt lat="42.384058" lon="-5.100512">
        <ele>872.1820047423244</ele>
        <time>2022-05-19T13:41:42Z</time>
      </trkpt>
      <trkpt lat="42.384074" lon="-5.100634">
        <ele>872.5154652921483</ele>
        <time>2022-05-19T13:41:48Z</time>
      </trkpt>
      <trkpt lat="42.384082" lon="-5.10076">
        <ele>872.8620203686878</ele>
        <time>2022-05-19T13:41:53Z</time>
      </trkpt>
      <trkpt lat="42.38409" lon="-5.100883">
        <ele>874.2020555958152</ele>
        <time>2022-05-19T13:41:59Z</time>
      </trkpt>
      <trkpt lat="42.384107" lon="-5.101014">
        <ele>875.7493010954931</ele>
        <time>2022-05-19T13:42:07Z</time>
      </trkpt>
      <trkpt lat="42.384122" lon="-5.101144">
        <ele>876.0234372811392</ele>
        <time>2022-05-19T13:42:14Z</time>
      </trkpt>
      <trkpt lat="42.384142" lon="-5.101271">
        <ele>876.373001024127</ele>
        <time>2022-05-19T13:42:20Z</time>
      </trkpt>
      <trkpt lat="42.384154" lon="-5.101411">
        <ele>876.8539539370686</ele>
        <time>2022-05-19T13:42:28Z</time>
      </trkpt>
      <trkpt lat="42.384159" lon="-5.101538">
        <ele>877.4333457257599</ele>
        <time>2022-05-19T13:42:34Z</time>
      </trkpt>
      <trkpt lat="42.384165" lon="-5.101677">
        <ele>878.593717996031</ele>
        <time>2022-05-19T13:42:41Z</time>
      </trkpt>
      <trkpt lat="42.384182" lon="-5.101814">
        <ele>879.6505952738225</ele>
        <time>2022-05-19T13:42:49Z</time>
      </trkpt>
      <trkpt lat="42.384207" lon="-5.101934">
        <ele>880.5488415602595</ele>
        <time>2022-05-19T13:42:57Z</time>
      </trkpt>
      <trkpt lat="42.38423" lon="-5.102069">
        <ele>881.330492021516</ele>
        <time>2022-05-19T13:43:04Z</time>
      </trkpt>
      <trkpt lat="42.384246" lon="-5.102207">
        <ele>881.5102828936651</ele>
        <time>2022-05-19T13:43:10Z</time>
      </trkpt>
      <trkpt lat="42.384258" lon="-5.102332">
        <ele>881.3736994927749</ele>
        <time>2022-05-19T13:43:17Z</time>
      </trkpt>
      <trkpt lat="42.384254" lon="-5.102468">
        <ele>881.929257822223</ele>
        <time>2022-05-19T13:43:24Z</time>
      </trkpt>
      <trkpt lat="42.384252" lon="-5.102597">
        <ele>882.1154837179929</ele>
        <time>2022-05-19T13:43:30Z</time>
      </trkpt>
      <trkpt lat="42.384262" lon="-5.102723">
        <ele>880.710348835215</ele>
        <time>2022-05-19T13:43:37Z</time>
      </trkpt>
      <trkpt lat="42.384262" lon="-5.102856">
        <ele>879.6196918739006</ele>
        <time>2022-05-19T13:43:45Z</time>
      </trkpt>
      <trkpt lat="42.384272" lon="-5.102985">
        <ele>879.7746364204213</ele>
        <time>2022-05-19T13:43:52Z</time>
      </trkpt>
      <trkpt lat="42.384282" lon="-5.10312">
        <ele>879.8433632878587</ele>
        <time>2022-05-19T13:44:01Z</time>
      </trkpt>
      <trkpt lat="42.384285" lon="-5.103258">
        <ele>879.5362061429769</ele>
        <time>2022-05-19T13:44:09Z</time>
      </trkpt>
      <trkpt lat="42.384284" lon="-5.103387">
        <ele>879.2020927658305</ele>
        <time>2022-05-19T13:44:16Z</time>
      </trkpt>
      <trkpt lat="42.384293" lon="-5.103525">
        <ele>879.4296280005947</ele>
        <time>2022-05-19T13:44:22Z</time>
      </trkpt>
      <trkpt lat="42.384301" lon="-5.103654">
        <ele>880.993611077778</ele>
        <time>2022-05-19T13:44:29Z</time>
      </trkpt>
      <trkpt lat="42.384315" lon="-5.10378">
        <ele>881.3710966017097</ele>
        <time>2022-05-19T13:44:37Z</time>
      </trkpt>
      <trkpt lat="42.38432" lon="-5.103909">
        <ele>880.7625772859901</ele>
        <time>2022-05-19T13:44:44Z</time>
      </trkpt>
      <trkpt lat="42.384332" lon="-5.104043">
        <ele>881.6228474117815</ele>
        <time>2022-05-19T13:44:52Z</time>
      </trkpt>
      <trkpt lat="42.384348" lon="-5.10417">
        <ele>881.7005959535018</ele>
        <time>2022-05-19T13:45:00Z</time>
      </trkpt>
      <trkpt lat="42.384361" lon="-5.104293">
        <ele>880.6936694383621</ele>
        <time>2022-05-19T13:45:08Z</time>
      </trkpt>
      <trkpt lat="42.38438" lon="-5.104425">
        <ele>879.6061934586614</ele>
        <time>2022-05-19T13:45:15Z</time>
      </trkpt>
      <trkpt lat="42.384382" lon="-5.104565">
        <ele>880.3638538960367</ele>
        <time>2022-05-19T13:45:22Z</time>
      </trkpt>
      <trkpt lat="42.384383" lon="-5.104691">
        <ele>881.642460542731</ele>
        <time>2022-05-19T13:45:28Z</time>
      </trkpt>
      <trkpt lat="42.384398" lon="-5.104813">
        <ele>881.2728018173948</ele>
        <time>2022-05-19T13:45:35Z</time>
      </trkpt>
      <trkpt lat="42.384408" lon="-5.104939">
        <ele>880.8768667988479</ele>
        <time>2022-05-19T13:45:40Z</time>
      </trkpt>
      <trkpt lat="42.384411" lon="-5.105064">
        <ele>880.9646163396537</ele>
        <time>2022-05-19T13:45:48Z</time>
      </trkpt>
      <trkpt lat="42.384414" lon="-5.105194">
        <ele>880.7586825471371</ele>
        <time>2022-05-19T13:45:55Z</time>
      </trkpt>
      <trkpt lat="42.384423" lon="-5.10532">
        <ele>879.9165244102478</ele>
        <time>2022-05-19T13:46:02Z</time>
      </trkpt>
      <trkpt lat="42.384427" lon="-5.105454">
        <ele>879.6477607004344</ele>
        <time>2022-05-19T13:46:10Z</time>
      </trkpt>
      <trkpt lat="42.384435" lon="-5.105591">
        <ele>879.0044086445123</ele>
        <time>2022-05-19T13:46:19Z</time>
      </trkpt>
      <trkpt lat="42.384438" lon="-5.105714">
        <ele>878.1019890513271</ele>
        <time>2022-05-19T13:46:25Z</time>
      </trkpt>
      <trkpt lat="42.384444" lon="-5.105846">
        <ele>877.5483249602839</ele>
        <time>2022-05-19T13:46:34Z</time>
      </trkpt>
      <trkpt lat="42.384455" lon="-5.10597">
        <ele>877.6548331798986</ele>
        <time>2022-05-19T13:46:42Z</time>
      </trkpt>
      <trkpt lat="42.384459" lon="-5.106094">
        <ele>877.822891860269</ele>
        <time>2022-05-19T13:46:49Z</time>
      </trkpt>
      <trkpt lat="42.384466" lon="-5.106218">
        <ele>878.3975178673863</ele>
        <time>2022-05-19T13:46:56Z</time>
      </trkpt>
      <trkpt lat="42.384472" lon="-5.106343">
        <ele>879.5229743923992</ele>
        <time>2022-05-19T13:47:04Z</time>
      </trkpt>
      <trkpt lat="42.38448" lon="-5.106467">
        <ele>880.2685331245884</ele>
        <time>2022-05-19T13:47:10Z</time>
      </trkpt>
      <trkpt lat="42.384485" lon="-5.106608">
        <ele>880.547666545026</ele>
        <time>2022-05-19T13:47:17Z</time>
      </trkpt>
      <trkpt lat="42.384491" lon="-5.106744">
        <ele>880.300308235921</ele>
        <time>2022-05-19T13:47:24Z</time>
      </trkpt>
      <trkpt lat="42.384505" lon="-5.106876">
        <ele>880.1560205304995</ele>
        <time>2022-05-19T13:47:30Z</time>
      </trkpt>
      <trkpt lat="42.384513" lon="-5.107011">
        <ele>880.256310348399</ele>
        <time>2022-05-19T13:47:38Z</time>
      </trkpt>
      <trkpt lat="42.384522" lon="-5.107149">
        <ele>879.1997541440651</ele>
        <time>2022-05-19T13:47:48Z</time>
      </trkpt>
      <trkpt lat="42.384528" lon="-5.107289">
        <ele>878.1519681476057</ele>
        <time>2022-05-19T13:47:55Z</time>
      </trkpt>
      <trkpt lat="42.38453" lon="-5.107415">
        <ele>877.002599994652</ele>
        <time>2022-05-19T13:48:03Z</time>
      </trkpt>
      <trkpt lat="42.384541" lon="-5.107548">
        <ele>877.4596273349598</ele>
        <time>2022-05-19T13:48:10Z</time>
      </trkpt>
      <trkpt lat="42.38456" lon="-5.107677">
        <ele>877.7304474143311</ele>
        <time>2022-05-19T13:48:19Z</time>
      </trkpt>
      <trkpt lat="42.384565" lon="-5.1078">
        <ele>877.6943362299353</ele>
        <time>2022-05-19T13:48:25Z</time>
      </trkpt>
      <trkpt lat="42.384564" lon="-5.107933">
        <ele>878.6139977378771</ele>
        <time>2022-05-19T13:48:32Z</time>
      </trkpt>
      <trkpt lat="42.384575" lon="-5.108073">
        <ele>879.5682091172785</ele>
        <time>2022-05-19T13:48:39Z</time>
      </trkpt>
      <trkpt lat="42.384588" lon="-5.108208">
        <ele>879.0143332257867</ele>
        <time>2022-05-19T13:48:57Z</time>
      </trkpt>
      <trkpt lat="42.38459" lon="-5.108338">
        <ele>878.8745513837785</ele>
        <time>2022-05-19T13:49:04Z</time>
      </trkpt>
      <trkpt lat="42.384597" lon="-5.108465">
        <ele>879.4604543466121</ele>
        <time>2022-05-19T13:49:12Z</time>
      </trkpt>
      <trkpt lat="42.384606" lon="-5.108587">
        <ele>880.1070878580213</ele>
        <time>2022-05-19T13:49:19Z</time>
      </trkpt>
      <trkpt lat="42.384614" lon="-5.108712">
        <ele>879.3017217675224</ele>
        <time>2022-05-19T13:49:26Z</time>
      </trkpt>
      <trkpt lat="42.384613" lon="-5.108839">
        <ele>878.3567931419238</ele>
        <time>2022-05-19T13:49:34Z</time>
      </trkpt>
      <trkpt lat="42.384614" lon="-5.108976">
        <ele>877.6304831262678</ele>
        <time>2022-05-19T13:49:42Z</time>
      </trkpt>
      <trkpt lat="42.384615" lon="-5.109099">
        <ele>876.9655858417973</ele>
        <time>2022-05-19T13:49:49Z</time>
      </trkpt>
      <trkpt lat="42.384619" lon="-5.109222">
        <ele>877.2549846153706</ele>
        <time>2022-05-19T13:49:55Z</time>
      </trkpt>
      <trkpt lat="42.384617" lon="-5.109345">
        <ele>877.5114517332986</ele>
        <time>2022-05-19T13:50:01Z</time>
      </trkpt>
      <trkpt lat="42.384604" lon="-5.109467">
        <ele>877.4242435386404</ele>
        <time>2022-05-19T13:50:08Z</time>
      </trkpt>
      <trkpt lat="42.384561" lon="-5.109591">
        <ele>875.121932332404</ele>
        <time>2022-05-19T13:50:16Z</time>
      </trkpt>
      <trkpt lat="42.384556" lon="-5.109716">
        <ele>873.8527450170368</ele>
        <time>2022-05-19T13:50:23Z</time>
      </trkpt>
      <trkpt lat="42.384546" lon="-5.109845">
        <ele>872.2480121422559</ele>
        <time>2022-05-19T13:50:28Z</time>
      </trkpt>
      <trkpt lat="42.384549" lon="-5.109967">
        <ele>871.9107808126137</ele>
        <time>2022-05-19T13:50:34Z</time>
      </trkpt>
      <trkpt lat="42.384589" lon="-5.110089">
        <ele>870.5666072936729</ele>
        <time>2022-05-19T13:50:43Z</time>
      </trkpt>
      <trkpt lat="42.384635" lon="-5.110204">
        <ele>871.0153550170362</ele>
        <time>2022-05-19T13:50:51Z</time>
      </trkpt>
      <trkpt lat="42.384652" lon="-5.110332">
        <ele>875.0023464057595</ele>
        <time>2022-05-19T13:51:05Z</time>
      </trkpt>
      <trkpt lat="42.384675" lon="-5.110468">
        <ele>876.5727669643238</ele>
        <time>2022-05-19T13:51:13Z</time>
      </trkpt>
      <trkpt lat="42.384697" lon="-5.110586">
        <ele>875.9332674238831</ele>
        <time>2022-05-19T13:51:22Z</time>
      </trkpt>
      <trkpt lat="42.384736" lon="-5.110709">
        <ele>874.7306229881942</ele>
        <time>2022-05-19T13:51:30Z</time>
      </trkpt>
      <trkpt lat="42.384782" lon="-5.110821">
        <ele>875.661563012749</ele>
        <time>2022-05-19T13:51:40Z</time>
      </trkpt>
      <trkpt lat="42.384838" lon="-5.110933">
        <ele>875.7644014321268</ele>
        <time>2022-05-19T13:51:45Z</time>
      </trkpt>
      <trkpt lat="42.384878" lon="-5.111059">
        <ele>876.6312267240137</ele>
        <time>2022-05-19T13:51:51Z</time>
      </trkpt>
      <trkpt lat="42.384904" lon="-5.111175">
        <ele>878.1942754620686</ele>
        <time>2022-05-19T13:51:57Z</time>
      </trkpt>
      <trkpt lat="42.384918" lon="-5.111313">
        <ele>880.7751716943458</ele>
        <time>2022-05-19T13:52:05Z</time>
      </trkpt>
      <trkpt lat="42.38494" lon="-5.111433">
        <ele>883.172685129568</ele>
        <time>2022-05-19T13:52:15Z</time>
      </trkpt>
      <trkpt lat="42.384959" lon="-5.111552">
        <ele>883.8117963112891</ele>
        <time>2022-05-19T13:52:23Z</time>
      </trkpt>
      <trkpt lat="42.384987" lon="-5.111674">
        <ele>882.4101060228422</ele>
        <time>2022-05-19T13:52:30Z</time>
      </trkpt>
      <trkpt lat="42.385017" lon="-5.111802">
        <ele>879.8105413159356</ele>
        <time>2022-05-19T13:52:39Z</time>
      </trkpt>
      <trkpt lat="42.385048" lon="-5.111924">
        <ele>878.4893265552819</ele>
        <time>2022-05-19T13:52:46Z</time>
      </trkpt>
      <trkpt lat="42.385069" lon="-5.112048">
        <ele>876.6706560989842</ele>
        <time>2022-05-19T13:52:54Z</time>
      </trkpt>
      <trkpt lat="42.385103" lon="-5.11218">
        <ele>878.4069218020886</ele>
        <time>2022-05-19T13:53:00Z</time>
      </trkpt>
      <trkpt lat="42.38514" lon="-5.112293">
        <ele>879.9090490993112</ele>
        <time>2022-05-19T13:53:07Z</time>
      </trkpt>
      <trkpt lat="42.385176" lon="-5.112408">
        <ele>880.9650632273406</ele>
        <time>2022-05-19T13:53:15Z</time>
      </trkpt>
      <trkpt lat="42.385208" lon="-5.112532">
        <ele>882.2037010425702</ele>
        <time>2022-05-19T13:53:23Z</time>
      </trkpt>
      <trkpt lat="42.385247" lon="-5.112658">
        <ele>883.1089505888522</ele>
        <time>2022-05-19T13:53:29Z</time>
      </trkpt>
      <trkpt lat="42.385277" lon="-5.112781">
        <ele>883.9892808003351</ele>
        <time>2022-05-19T13:53:36Z</time>
      </trkpt>
      <trkpt lat="42.385311" lon="-5.112898">
        <ele>884.3038597656414</ele>
        <time>2022-05-19T13:53:43Z</time>
      </trkpt>
      <trkpt lat="42.385349" lon="-5.113028">
        <ele>885.3527493616566</ele>
        <time>2022-05-19T13:53:50Z</time>
      </trkpt>
      <trkpt lat="42.385394" lon="-5.113149">
        <ele>886.2922351816669</ele>
        <time>2022-05-19T13:53:58Z</time>
      </trkpt>
      <trkpt lat="42.385424" lon="-5.113275">
        <ele>886.7675105007365</ele>
        <time>2022-05-19T13:54:07Z</time>
      </trkpt>
      <trkpt lat="42.385443" lon="-5.11341">
        <ele>885.8074889127165</ele>
        <time>2022-05-19T13:54:14Z</time>
      </trkpt>
      <trkpt lat="42.385451" lon="-5.113539">
        <ele>884.6343001462519</ele>
        <time>2022-05-19T13:54:19Z</time>
      </trkpt>
      <trkpt lat="42.385469" lon="-5.113676">
        <ele>884.0121939368546</ele>
        <time>2022-05-19T13:54:27Z</time>
      </trkpt>
      <trkpt lat="42.385503" lon="-5.113791">
        <ele>883.8576259128749</ele>
        <time>2022-05-19T13:54:33Z</time>
      </trkpt>
      <trkpt lat="42.385544" lon="-5.11391">
        <ele>883.2409403026104</ele>
        <time>2022-05-19T13:54:40Z</time>
      </trkpt>
      <trkpt lat="42.38557" lon="-5.114028">
        <ele>883.6398751679808</ele>
        <time>2022-05-19T13:54:47Z</time>
      </trkpt>
      <trkpt lat="42.385587" lon="-5.114156">
        <ele>882.6646606950089</ele>
        <time>2022-05-19T13:54:53Z</time>
      </trkpt>
      <trkpt lat="42.385619" lon="-5.114287">
        <ele>882.4046360617504</ele>
        <time>2022-05-19T13:55:00Z</time>
      </trkpt>
      <trkpt lat="42.385636" lon="-5.114409">
        <ele>882.7680697040632</ele>
        <time>2022-05-19T13:55:08Z</time>
      </trkpt>
      <trkpt lat="42.385662" lon="-5.114541">
        <ele>882.7528259195387</ele>
        <time>2022-05-19T13:55:14Z</time>
      </trkpt>
      <trkpt lat="42.385694" lon="-5.114668">
        <ele>883.573450775817</ele>
        <time>2022-05-19T13:55:21Z</time>
      </trkpt>
      <trkpt lat="42.385719" lon="-5.114792">
        <ele>884.0616478407755</ele>
        <time>2022-05-19T13:55:29Z</time>
      </trkpt>
      <trkpt lat="42.385746" lon="-5.114913">
        <ele>883.3643901068717</ele>
        <time>2022-05-19T13:55:35Z</time>
      </trkpt>
      <trkpt lat="42.385777" lon="-5.11503">
        <ele>882.7507690377533</ele>
        <time>2022-05-19T13:55:44Z</time>
      </trkpt>
      <trkpt lat="42.385805" lon="-5.115151">
        <ele>881.9394985390827</ele>
        <time>2022-05-19T13:55:52Z</time>
      </trkpt>
      <trkpt lat="42.385827" lon="-5.115283">
        <ele>882.2856840267777</ele>
        <time>2022-05-19T13:55:59Z</time>
      </trkpt>
      <trkpt lat="42.385855" lon="-5.115412">
        <ele>882.4845913248137</ele>
        <time>2022-05-19T13:56:06Z</time>
      </trkpt>
      <trkpt lat="42.385887" lon="-5.11554">
        <ele>881.6313044829294</ele>
        <time>2022-05-19T13:56:14Z</time>
      </trkpt>
      <trkpt lat="42.385914" lon="-5.115662">
        <ele>881.6689642900601</ele>
        <time>2022-05-19T13:56:20Z</time>
      </trkpt>
      <trkpt lat="42.385926" lon="-5.115788">
        <ele>881.6735960319638</ele>
        <time>2022-05-19T13:56:28Z</time>
      </trkpt>
      <trkpt lat="42.385948" lon="-5.115923">
        <ele>882.5839519938454</ele>
        <time>2022-05-19T13:56:35Z</time>
      </trkpt>
      <trkpt lat="42.385969" lon="-5.116043">
        <ele>883.5627039894462</ele>
        <time>2022-05-19T13:56:43Z</time>
      </trkpt>
      <trkpt lat="42.385985" lon="-5.116164">
        <ele>883.8326126234606</ele>
        <time>2022-05-19T13:56:49Z</time>
      </trkpt>
      <trkpt lat="42.386004" lon="-5.116295">
        <ele>884.1631061313674</ele>
        <time>2022-05-19T13:56:55Z</time>
      </trkpt>
      <trkpt lat="42.386031" lon="-5.116428">
        <ele>884.9059590827674</ele>
        <time>2022-05-19T13:57:02Z</time>
      </trkpt>
      <trkpt lat="42.386058" lon="-5.116556">
        <ele>886.1011582827196</ele>
        <time>2022-05-19T13:57:09Z</time>
      </trkpt>
      <trkpt lat="42.386083" lon="-5.116688">
        <ele>886.8125042393804</ele>
        <time>2022-05-19T13:57:15Z</time>
      </trkpt>
      <trkpt lat="42.38612" lon="-5.116803">
        <ele>887.2281735092402</ele>
        <time>2022-05-19T13:57:20Z</time>
      </trkpt>
      <trkpt lat="42.38615" lon="-5.11693">
        <ele>887.952491610311</ele>
        <time>2022-05-19T13:57:29Z</time>
      </trkpt>
      <trkpt lat="42.386178" lon="-5.117059">
        <ele>888.9871595418081</ele>
        <time>2022-05-19T13:57:35Z</time>
      </trkpt>
      <trkpt lat="42.386211" lon="-5.117199">
        <ele>890.5861476222053</ele>
        <time>2022-05-19T13:57:41Z</time>
      </trkpt>
      <trkpt lat="42.386242" lon="-5.117333">
        <ele>890.9441072475165</ele>
        <time>2022-05-19T13:57:47Z</time>
      </trkpt>
      <trkpt lat="42.386276" lon="-5.117449">
        <ele>891.2066021282226</ele>
        <time>2022-05-19T13:57:52Z</time>
      </trkpt>
      <trkpt lat="42.386316" lon="-5.117585">
        <ele>891.4032748090103</ele>
        <time>2022-05-19T13:57:58Z</time>
      </trkpt>
      <trkpt lat="42.386349" lon="-5.117707">
        <ele>892.642544333823</ele>
        <time>2022-05-19T13:58:05Z</time>
      </trkpt>
      <trkpt lat="42.386386" lon="-5.117832">
        <ele>893.8902059970424</ele>
        <time>2022-05-19T13:58:11Z</time>
      </trkpt>
      <trkpt lat="42.386432" lon="-5.117944">
        <ele>895.1728757182136</ele>
        <time>2022-05-19T13:58:18Z</time>
      </trkpt>
      <trkpt lat="42.386477" lon="-5.11807">
        <ele>895.0614299625158</ele>
        <time>2022-05-19T13:58:26Z</time>
      </trkpt>
      <trkpt lat="42.386511" lon="-5.118199">
        <ele>896.1166711039841</ele>
        <time>2022-05-19T13:58:33Z</time>
      </trkpt>
      <trkpt lat="42.386539" lon="-5.11832">
        <ele>896.7149079097435</ele>
        <time>2022-05-19T13:58:39Z</time>
      </trkpt>
      <trkpt lat="42.386587" lon="-5.118462">
        <ele>896.2605889476836</ele>
        <time>2022-05-19T13:58:46Z</time>
      </trkpt>
      <trkpt lat="42.386622" lon="-5.118582">
        <ele>896.277844957076</ele>
        <time>2022-05-19T13:58:52Z</time>
      </trkpt>
      <trkpt lat="42.386657" lon="-5.118698">
        <ele>895.4972671745345</ele>
        <time>2022-05-19T13:58:58Z</time>
      </trkpt>
      <trkpt lat="42.386705" lon="-5.118834">
        <ele>895.4710981287062</ele>
        <time>2022-05-19T13:59:06Z</time>
      </trkpt>
      <trkpt lat="42.386751" lon="-5.118958">
        <ele>894.9704350288957</ele>
        <time>2022-05-19T13:59:13Z</time>
      </trkpt>
      <trkpt lat="42.386792" lon="-5.119068">
        <ele>894.7428928911686</ele>
        <time>2022-05-19T13:59:20Z</time>
      </trkpt>
      <trkpt lat="42.386822" lon="-5.119188">
        <ele>892.8289336049929</ele>
        <time>2022-05-19T13:59:27Z</time>
      </trkpt>
      <trkpt lat="42.386862" lon="-5.119317">
        <ele>892.1366333412006</ele>
        <time>2022-05-19T13:59:35Z</time>
      </trkpt>
      <trkpt lat="42.386895" lon="-5.11943">
        <ele>892.3468654546887</ele>
        <time>2022-05-19T13:59:42Z</time>
      </trkpt>
      <trkpt lat="42.386934" lon="-5.119555">
        <ele>893.9456457365304</ele>
        <time>2022-05-19T13:59:50Z</time>
      </trkpt>
      <trkpt lat="42.386973" lon="-5.119679">
        <ele>893.9991423347965</ele>
        <time>2022-05-19T13:59:58Z</time>
      </trkpt>
      <trkpt lat="42.386999" lon="-5.119808">
        <ele>893.9091677330434</ele>
        <time>2022-05-19T14:00:05Z</time>
      </trkpt>
      <trkpt lat="42.387026" lon="-5.119928">
        <ele>893.8040725030005</ele>
        <time>2022-05-19T14:00:11Z</time>
      </trkpt>
      <trkpt lat="42.387054" lon="-5.120052">
        <ele>893.931446637027</ele>
        <time>2022-05-19T14:00:17Z</time>
      </trkpt>
      <trkpt lat="42.387088" lon="-5.120171">
        <ele>893.2079336280003</ele>
        <time>2022-05-19T14:00:25Z</time>
      </trkpt>
      <trkpt lat="42.387101" lon="-5.120306">
        <ele>892.3957718992606</ele>
        <time>2022-05-19T14:00:33Z</time>
      </trkpt>
      <trkpt lat="42.387122" lon="-5.120425">
        <ele>891.1635922621936</ele>
        <time>2022-05-19T14:00:40Z</time>
      </trkpt>
      <trkpt lat="42.38715" lon="-5.12056">
        <ele>891.7131017744541</ele>
        <time>2022-05-19T14:00:47Z</time>
      </trkpt>
      <trkpt lat="42.387167" lon="-5.120695">
        <ele>892.5669308966026</ele>
        <time>2022-05-19T14:00:54Z</time>
      </trkpt>
      <trkpt lat="42.387191" lon="-5.120822">
        <ele>894.0889244545251</ele>
        <time>2022-05-19T14:01:00Z</time>
      </trkpt>
      <trkpt lat="42.387218" lon="-5.120956">
        <ele>895.2146981591359</ele>
        <time>2022-05-19T14:01:08Z</time>
      </trkpt>
      <trkpt lat="42.387254" lon="-5.121075">
        <ele>894.6987970517948</ele>
        <time>2022-05-19T14:01:15Z</time>
      </trkpt>
      <trkpt lat="42.387285" lon="-5.121198">
        <ele>894.9450802253559</ele>
        <time>2022-05-19T14:01:24Z</time>
      </trkpt>
      <trkpt lat="42.387316" lon="-5.12132">
        <ele>895.0938024679199</ele>
        <time>2022-05-19T14:01:30Z</time>
      </trkpt>
      <trkpt lat="42.387337" lon="-5.12144">
        <ele>895.2724936250597</ele>
        <time>2022-05-19T14:01:35Z</time>
      </trkpt>
      <trkpt lat="42.387363" lon="-5.121576">
        <ele>895.4753948254511</ele>
        <time>2022-05-19T14:01:40Z</time>
      </trkpt>
      <trkpt lat="42.3874" lon="-5.12171">
        <ele>895.6674355920404</ele>
        <time>2022-05-19T14:01:47Z</time>
      </trkpt>
      <trkpt lat="42.387428" lon="-5.121833">
        <ele>895.6413915660232</ele>
        <time>2022-05-19T14:01:52Z</time>
      </trkpt>
      <trkpt lat="42.387454" lon="-5.121956">
        <ele>896.2390409978107</ele>
        <time>2022-05-19T14:01:58Z</time>
      </trkpt>
      <trkpt lat="42.387487" lon="-5.122071">
        <ele>896.3460833216086</ele>
        <time>2022-05-19T14:02:05Z</time>
      </trkpt>
      <trkpt lat="42.387518" lon="-5.122206">
        <ele>895.7884865449741</ele>
        <time>2022-05-19T14:02:14Z</time>
      </trkpt>
      <trkpt lat="42.387545" lon="-5.122336">
        <ele>896.8640580549836</ele>
        <time>2022-05-19T14:02:20Z</time>
      </trkpt>
      <trkpt lat="42.387561" lon="-5.122462">
        <ele>898.1033032275736</ele>
        <time>2022-05-19T14:02:28Z</time>
      </trkpt>
      <trkpt lat="42.387595" lon="-5.122579">
        <ele>898.7692758860067</ele>
        <time>2022-05-19T14:02:35Z</time>
      </trkpt>
      <trkpt lat="42.387629" lon="-5.122698">
        <ele>900.2955300183967</ele>
        <time>2022-05-19T14:02:42Z</time>
      </trkpt>
      <trkpt lat="42.387661" lon="-5.122822">
        <ele>901.0624406551942</ele>
        <time>2022-05-19T14:02:49Z</time>
      </trkpt>
      <trkpt lat="42.38769" lon="-5.122947">
        <ele>901.5173086542636</ele>
        <time>2022-05-19T14:02:56Z</time>
      </trkpt>
      <trkpt lat="42.387712" lon="-5.123073">
        <ele>902.4291402939707</ele>
        <time>2022-05-19T14:03:03Z</time>
      </trkpt>
      <trkpt lat="42.387735" lon="-5.123192">
        <ele>903.1290677823126</ele>
        <time>2022-05-19T14:03:11Z</time>
      </trkpt>
      <trkpt lat="42.387753" lon="-5.123311">
        <ele>903.675788150169</ele>
        <time>2022-05-19T14:03:17Z</time>
      </trkpt>
      <trkpt lat="42.387775" lon="-5.123433">
        <ele>904.0594809269533</ele>
        <time>2022-05-19T14:03:24Z</time>
      </trkpt>
      <trkpt lat="42.38779" lon="-5.123564">
        <ele>905.1448739459738</ele>
        <time>2022-05-19T14:03:30Z</time>
      </trkpt>
      <trkpt lat="42.387817" lon="-5.123684">
        <ele>905.4476984217763</ele>
        <time>2022-05-19T14:03:37Z</time>
      </trkpt>
      <trkpt lat="42.387848" lon="-5.123813">
        <ele>905.0096231782809</ele>
        <time>2022-05-19T14:03:44Z</time>
      </trkpt>
      <trkpt lat="42.38788" lon="-5.12394">
        <ele>904.5968127697706</ele>
        <time>2022-05-19T14:03:53Z</time>
      </trkpt>
      <trkpt lat="42.387908" lon="-5.12406">
        <ele>903.8689840072766</ele>
        <time>2022-05-19T14:04:00Z</time>
      </trkpt>
      <trkpt lat="42.387942" lon="-5.124182">
        <ele>903.8748344685882</ele>
        <time>2022-05-19T14:04:08Z</time>
      </trkpt>
      <trkpt lat="42.38797" lon="-5.12431">
        <ele>903.9920516265556</ele>
        <time>2022-05-19T14:04:15Z</time>
      </trkpt>
      <trkpt lat="42.387985" lon="-5.12443">
        <ele>904.3582876352593</ele>
        <time>2022-05-19T14:04:21Z</time>
      </trkpt>
      <trkpt lat="42.388007" lon="-5.124552">
        <ele>903.7871435713023</ele>
        <time>2022-05-19T14:04:28Z</time>
      </trkpt>
      <trkpt lat="42.388026" lon="-5.124682">
        <ele>902.7027227142826</ele>
        <time>2022-05-19T14:04:36Z</time>
      </trkpt>
      <trkpt lat="42.388048" lon="-5.124807">
        <ele>901.2132911207154</ele>
        <time>2022-05-19T14:04:45Z</time>
      </trkpt>
      <trkpt lat="42.38806" lon="-5.124937">
        <ele>899.0156911639497</ele>
        <time>2022-05-19T14:04:54Z</time>
      </trkpt>
      <trkpt lat="42.388084" lon="-5.125068">
        <ele>898.6241683475673</ele>
        <time>2022-05-19T14:05:02Z</time>
      </trkpt>
      <trkpt lat="42.388108" lon="-5.125193">
        <ele>897.7810637531802</ele>
        <time>2022-05-19T14:05:09Z</time>
      </trkpt>
      <trkpt lat="42.388125" lon="-5.125318">
        <ele>896.4671350279823</ele>
        <time>2022-05-19T14:05:15Z</time>
      </trkpt>
      <trkpt lat="42.388144" lon="-5.125439">
        <ele>895.9301744941622</ele>
        <time>2022-05-19T14:05:24Z</time>
      </trkpt>
      <trkpt lat="42.388174" lon="-5.125567">
        <ele>894.7517527891323</ele>
        <time>2022-05-19T14:05:32Z</time>
      </trkpt>
      <trkpt lat="42.388212" lon="-5.125693">
        <ele>894.6430691611022</ele>
        <time>2022-05-19T14:05:39Z</time>
      </trkpt>
      <trkpt lat="42.388222" lon="-5.125831">
        <ele>896.3576435148716</ele>
        <time>2022-05-19T14:05:59Z</time>
      </trkpt>
      <trkpt lat="42.38824" lon="-5.125958">
        <ele>896.144613886252</ele>
        <time>2022-05-19T14:06:04Z</time>
      </trkpt>
      <trkpt lat="42.388264" lon="-5.126081">
        <ele>895.2225335072726</ele>
        <time>2022-05-19T14:06:10Z</time>
      </trkpt>
      <trkpt lat="42.388307" lon="-5.126201">
        <ele>894.1557616861537</ele>
        <time>2022-05-19T14:06:17Z</time>
      </trkpt>
      <trkpt lat="42.388342" lon="-5.126321">
        <ele>892.7648361902684</ele>
        <time>2022-05-19T14:06:24Z</time>
      </trkpt>
      <trkpt lat="42.388372" lon="-5.126445">
        <ele>891.3721915986389</ele>
        <time>2022-05-19T14:06:32Z</time>
      </trkpt>
      <trkpt lat="42.388394" lon="-5.126564">
        <ele>890.80570671428</ele>
        <time>2022-05-19T14:06:38Z</time>
      </trkpt>
      <trkpt lat="42.388415" lon="-5.126687">
        <ele>890.0560399247333</ele>
        <time>2022-05-19T14:07:35Z</time>
      </trkpt>
      <trkpt lat="42.388452" lon="-5.126799">
        <ele>889.781235431321</ele>
        <time>2022-05-19T14:07:42Z</time>
      </trkpt>
      <trkpt lat="42.388463" lon="-5.12692">
        <ele>890.096693159081</ele>
        <time>2022-05-19T14:07:49Z</time>
      </trkpt>
      <trkpt lat="42.388475" lon="-5.127049">
        <ele>890.0071021262556</ele>
        <time>2022-05-19T14:07:56Z</time>
      </trkpt>
      <trkpt lat="42.38849" lon="-5.127183">
        <ele>888.5107680121437</ele>
        <time>2022-05-19T14:08:03Z</time>
      </trkpt>
      <trkpt lat="42.388524" lon="-5.127299">
        <ele>887.4279439346865</ele>
        <time>2022-05-19T14:08:10Z</time>
      </trkpt>
      <trkpt lat="42.388549" lon="-5.127416">
        <ele>886.326726171188</ele>
        <time>2022-05-19T14:08:20Z</time>
      </trkpt>
      <trkpt lat="42.388574" lon="-5.127544">
        <ele>886.1814827518538</ele>
        <time>2022-05-19T14:08:28Z</time>
      </trkpt>
      <trkpt lat="42.388609" lon="-5.127688">
        <ele>886.4386604288593</ele>
        <time>2022-05-19T14:08:33Z</time>
      </trkpt>
      <trkpt lat="42.38864" lon="-5.127809">
        <ele>887.227169400081</ele>
        <time>2022-05-19T14:08:39Z</time>
      </trkpt>
      <trkpt lat="42.388663" lon="-5.127939">
        <ele>887.9401446823031</ele>
        <time>2022-05-19T14:08:47Z</time>
      </trkpt>
      <trkpt lat="42.388687" lon="-5.128064">
        <ele>888.7078929021955</ele>
        <time>2022-05-19T14:08:53Z</time>
      </trkpt>
      <trkpt lat="42.388707" lon="-5.128185">
        <ele>890.4278170261532</ele>
        <time>2022-05-19T14:08:59Z</time>
      </trkpt>
      <trkpt lat="42.388728" lon="-5.128319">
        <ele>891.2370256083086</ele>
        <time>2022-05-19T14:09:05Z</time>
      </trkpt>
      <trkpt lat="42.388758" lon="-5.128447">
        <ele>891.4348116740584</ele>
        <time>2022-05-19T14:09:13Z</time>
      </trkpt>
      <trkpt lat="42.388778" lon="-5.12858">
        <ele>891.8821995379403</ele>
        <time>2022-05-19T14:09:19Z</time>
      </trkpt>
      <trkpt lat="42.388803" lon="-5.128717">
        <ele>892.8565453952178</ele>
        <time>2022-05-19T14:09:26Z</time>
      </trkpt>
      <trkpt lat="42.388823" lon="-5.128844">
        <ele>893.492565552704</ele>
        <time>2022-05-19T14:09:33Z</time>
      </trkpt>
      <trkpt lat="42.388853" lon="-5.128974">
        <ele>893.8298415383324</ele>
        <time>2022-05-19T14:09:42Z</time>
      </trkpt>
      <trkpt lat="42.38889" lon="-5.129105">
        <ele>894.3083031112328</ele>
        <time>2022-05-19T14:09:50Z</time>
      </trkpt>
      <trkpt lat="42.388901" lon="-5.129234">
        <ele>895.0736764958128</ele>
        <time>2022-05-19T14:09:58Z</time>
      </trkpt>
      <trkpt lat="42.388924" lon="-5.12936">
        <ele>895.8852176573128</ele>
        <time>2022-05-19T14:10:06Z</time>
      </trkpt>
      <trkpt lat="42.388949" lon="-5.129491">
        <ele>898.9272223301232</ele>
        <time>2022-05-19T14:10:15Z</time>
      </trkpt>
      <trkpt lat="42.388958" lon="-5.129623">
        <ele>900.3945958195254</ele>
        <time>2022-05-19T14:10:23Z</time>
      </trkpt>
      <trkpt lat="42.388982" lon="-5.129753">
        <ele>901.4315744088963</ele>
        <time>2022-05-19T14:10:30Z</time>
      </trkpt>
      <trkpt lat="42.389008" lon="-5.129885">
        <ele>901.7890389719978</ele>
        <time>2022-05-19T14:10:37Z</time>
      </trkpt>
      <trkpt lat="42.389041" lon="-5.130005">
        <ele>902.3857895322144</ele>
        <time>2022-05-19T14:10:44Z</time>
      </trkpt>
      <trkpt lat="42.389056" lon="-5.130126">
        <ele>902.8537283232436</ele>
        <time>2022-05-19T14:10:50Z</time>
      </trkpt>
      <trkpt lat="42.389073" lon="-5.130249">
        <ele>901.5524084465578</ele>
        <time>2022-05-19T14:10:57Z</time>
      </trkpt>
      <trkpt lat="42.389089" lon="-5.130389">
        <ele>901.0583747467026</ele>
        <time>2022-05-19T14:11:04Z</time>
      </trkpt>
      <trkpt lat="42.389121" lon="-5.130507">
        <ele>901.343499597162</ele>
        <time>2022-05-19T14:11:10Z</time>
      </trkpt>
      <trkpt lat="42.389161" lon="-5.130627">
        <ele>902.6571722859517</ele>
        <time>2022-05-19T14:11:17Z</time>
      </trkpt>
      <trkpt lat="42.389211" lon="-5.13074">
        <ele>904.8660869263113</ele>
        <time>2022-05-19T14:11:23Z</time>
      </trkpt>
      <trkpt lat="42.389251" lon="-5.130863">
        <ele>906.8452995968983</ele>
        <time>2022-05-19T14:11:30Z</time>
      </trkpt>
      <trkpt lat="42.389281" lon="-5.130982">
        <ele>909.9987575784326</ele>
        <time>2022-05-19T14:11:38Z</time>
      </trkpt>
      <trkpt lat="42.38932" lon="-5.131098">
        <ele>913.3763729520142</ele>
        <time>2022-05-19T14:11:45Z</time>
      </trkpt>
      <trkpt lat="42.389353" lon="-5.131224">
        <ele>914.5012798709795</ele>
        <time>2022-05-19T14:11:53Z</time>
      </trkpt>
      <trkpt lat="42.389375" lon="-5.131351">
        <ele>914.6313665024936</ele>
        <time>2022-05-19T14:12:00Z</time>
      </trkpt>
      <trkpt lat="42.389401" lon="-5.131483">
        <ele>914.8332477156073</ele>
        <time>2022-05-19T14:12:07Z</time>
      </trkpt>
      <trkpt lat="42.389416" lon="-5.131604">
        <ele>913.5145043032244</ele>
        <time>2022-05-19T14:12:13Z</time>
      </trkpt>
      <trkpt lat="42.389436" lon="-5.131724">
        <ele>909.6853148676455</ele>
        <time>2022-05-19T14:12:18Z</time>
      </trkpt>
      <trkpt lat="42.389461" lon="-5.131856">
        <ele>907.1298498865217</ele>
        <time>2022-05-19T14:12:25Z</time>
      </trkpt>
      <trkpt lat="42.389484" lon="-5.131989">
        <ele>907.1190209165215</ele>
        <time>2022-05-19T14:12:32Z</time>
      </trkpt>
      <trkpt lat="42.38951" lon="-5.132112">
        <ele>905.6047516465187</ele>
        <time>2022-05-19T14:12:39Z</time>
      </trkpt>
      <trkpt lat="42.389536" lon="-5.132233">
        <ele>904.6746979374439</ele>
        <time>2022-05-19T14:12:46Z</time>
      </trkpt>
      <trkpt lat="42.38955" lon="-5.132357">
        <ele>905.0249077314511</ele>
        <time>2022-05-19T14:12:54Z</time>
      </trkpt>
      <trkpt lat="42.389559" lon="-5.132478">
        <ele>904.7379214242101</ele>
        <time>2022-05-19T14:13:01Z</time>
      </trkpt>
      <trkpt lat="42.389576" lon="-5.132599">
        <ele>905.2530760336667</ele>
        <time>2022-05-19T14:13:07Z</time>
      </trkpt>
      <trkpt lat="42.389569" lon="-5.132729">
        <ele>907.4008503714576</ele>
        <time>2022-05-19T14:13:15Z</time>
      </trkpt>
      <trkpt lat="42.389551" lon="-5.132863">
        <ele>907.8166668443009</ele>
        <time>2022-05-19T14:13:24Z</time>
      </trkpt>
      <trkpt lat="42.389522" lon="-5.132991">
        <ele>909.0095885284245</ele>
        <time>2022-05-19T14:13:30Z</time>
      </trkpt>
      <trkpt lat="42.389502" lon="-5.133123">
        <ele>911.0254653571174</ele>
        <time>2022-05-19T14:13:38Z</time>
      </trkpt>
      <trkpt lat="42.389491" lon="-5.133259">
        <ele>910.3147475458682</ele>
        <time>2022-05-19T14:13:46Z</time>
      </trkpt>
      <trkpt lat="42.389467" lon="-5.13338">
        <ele>910.0042173815891</ele>
        <time>2022-05-19T14:13:53Z</time>
      </trkpt>
      <trkpt lat="42.389455" lon="-5.133506">
        <ele>909.5486899539828</ele>
        <time>2022-05-19T14:14:00Z</time>
      </trkpt>
      <trkpt lat="42.389435" lon="-5.133637">
        <ele>905.5744946235791</ele>
        <time>2022-05-19T14:14:12Z</time>
      </trkpt>
      <trkpt lat="42.389423" lon="-5.133758">
        <ele>905.3436793321744</ele>
        <time>2022-05-19T14:14:19Z</time>
      </trkpt>
      <trkpt lat="42.389404" lon="-5.133885">
        <ele>905.3113819407299</ele>
        <time>2022-05-19T14:14:27Z</time>
      </trkpt>
      <trkpt lat="42.389391" lon="-5.134008">
        <ele>904.5249279392883</ele>
        <time>2022-05-19T14:14:34Z</time>
      </trkpt>
      <trkpt lat="42.389363" lon="-5.134141">
        <ele>905.5232407161966</ele>
        <time>2022-05-19T14:14:42Z</time>
      </trkpt>
      <trkpt lat="42.389337" lon="-5.134258">
        <ele>905.0479799332097</ele>
        <time>2022-05-19T14:14:49Z</time>
      </trkpt>
      <trkpt lat="42.389323" lon="-5.134387">
        <ele>904.8687476180494</ele>
        <time>2022-05-19T14:14:57Z</time>
      </trkpt>
      <trkpt lat="42.3893" lon="-5.134508">
        <ele>905.5034826472402</ele>
        <time>2022-05-19T14:15:05Z</time>
      </trkpt>
      <trkpt lat="42.389285" lon="-5.134638">
        <ele>905.6588972033933</ele>
        <time>2022-05-19T14:15:13Z</time>
      </trkpt>
      <trkpt lat="42.389264" lon="-5.134759">
        <ele>905.6931890370324</ele>
        <time>2022-05-19T14:15:21Z</time>
      </trkpt>
      <trkpt lat="42.389248" lon="-5.13488">
        <ele>905.1599195925519</ele>
        <time>2022-05-19T14:15:28Z</time>
      </trkpt>
      <trkpt lat="42.389232" lon="-5.135006">
        <ele>905.6346377292648</ele>
        <time>2022-05-19T14:15:35Z</time>
      </trkpt>
      <trkpt lat="42.389217" lon="-5.135139">
        <ele>905.9729925617576</ele>
        <time>2022-05-19T14:15:43Z</time>
      </trkpt>
      <trkpt lat="42.389186" lon="-5.135275">
        <ele>907.1546750906855</ele>
        <time>2022-05-19T14:15:49Z</time>
      </trkpt>
      <trkpt lat="42.389146" lon="-5.135399">
        <ele>908.7880151364952</ele>
        <time>2022-05-19T14:15:55Z</time>
      </trkpt>
      <trkpt lat="42.389117" lon="-5.135532">
        <ele>909.4283016500995</ele>
        <time>2022-05-19T14:16:02Z</time>
      </trkpt>
      <trkpt lat="42.389093" lon="-5.135653">
        <ele>910.9941032147035</ele>
        <time>2022-05-19T14:16:09Z</time>
      </trkpt>
      <trkpt lat="42.38907" lon="-5.135786">
        <ele>912.0244688792154</ele>
        <time>2022-05-19T14:16:18Z</time>
      </trkpt>
      <trkpt lat="42.389037" lon="-5.135907">
        <ele>912.4278014339507</ele>
        <time>2022-05-19T14:16:25Z</time>
      </trkpt>
      <trkpt lat="42.389022" lon="-5.136035">
        <ele>913.3924738001078</ele>
        <time>2022-05-19T14:16:34Z</time>
      </trkpt>
      <trkpt lat="42.389029" lon="-5.136165">
        <ele>912.9869230194017</ele>
        <time>2022-05-19T14:16:43Z</time>
      </trkpt>
      <trkpt lat="42.389009" lon="-5.136293">
        <ele>912.9841591985896</ele>
        <time>2022-05-19T14:16:49Z</time>
      </trkpt>
      <trkpt lat="42.388986" lon="-5.136413">
        <ele>911.536986832507</ele>
        <time>2022-05-19T14:16:56Z</time>
      </trkpt>
      <trkpt lat="42.38898" lon="-5.136547">
        <ele>910.6273759873584</ele>
        <time>2022-05-19T14:17:04Z</time>
      </trkpt>
      <trkpt lat="42.388981" lon="-5.136673">
        <ele>910.7051901444793</ele>
        <time>2022-05-19T14:17:13Z</time>
      </trkpt>
      <trkpt lat="42.389042" lon="-5.13677">
        <ele>909.3253598865122</ele>
        <time>2022-05-19T14:17:23Z</time>
      </trkpt>
      <trkpt lat="42.389071" lon="-5.136885">
        <ele>907.5486267907545</ele>
        <time>2022-05-19T14:17:30Z</time>
      </trkpt>
      <trkpt lat="42.389143" lon="-5.136965">
        <ele>908.8714090315625</ele>
        <time>2022-05-19T14:17:38Z</time>
      </trkpt>
      <trkpt lat="42.389161" lon="-5.136812">
        <ele>910.6409920100123</ele>
        <time>2022-05-19T14:18:42Z</time>
      </trkpt>
      <trkpt lat="42.389179" lon="-5.136693">
        <ele>911.0498473858461</ele>
        <time>2022-05-19T14:19:22Z</time>
      </trkpt>
      <trkpt lat="42.389214" lon="-5.136829">
        <ele>910.7576836748049</ele>
        <time>2022-05-19T14:19:28Z</time>
      </trkpt>
      <trkpt lat="42.389187" lon="-5.13665">
        <ele>910.3059252779931</ele>
        <time>2022-05-19T14:19:49Z</time>
      </trkpt>
      <trkpt lat="42.389165" lon="-5.1365">
        <ele>910.1851477893069</ele>
        <time>2022-05-19T14:19:57Z</time>
      </trkpt>
      <trkpt lat="42.389108" lon="-5.136384">
        <ele>910.2980039613321</ele>
        <time>2022-05-19T14:19:59Z</time>
      </trkpt>
      <trkpt lat="42.389128" lon="-5.136246">
        <ele>910.4469006583095</ele>
        <time>2022-05-19T14:20:02Z</time>
      </trkpt>
      <trkpt lat="42.389095" lon="-5.136069">
        <ele>910.6436587190256</ele>
        <time>2022-05-19T14:20:05Z</time>
      </trkpt>
      <trkpt lat="42.389831" lon="-5.138773">
        <ele>898.2863017637283</ele>
        <time>2022-05-19T14:20:50Z</time>
      </trkpt>
      <trkpt lat="42.389648" lon="-5.136495">
        <ele>895.9111748011783</ele>
        <time>2022-05-19T14:20:52Z</time>
      </trkpt>
      <trkpt lat="42.389704" lon="-5.136774">
        <ele>893.2372443955392</ele>
        <time>2022-05-19T14:20:54Z</time>
      </trkpt>
      <trkpt lat="42.389703" lon="-5.136926">
        <ele>898.5087205311283</ele>
        <time>2022-05-19T14:20:56Z</time>
      </trkpt>
      <trkpt lat="42.389712" lon="-5.137052">
        <ele>901.982000538148</ele>
        <time>2022-05-19T14:20:59Z</time>
      </trkpt>
      <trkpt lat="42.38972" lon="-5.137212">
        <ele>899.2835906548426</ele>
        <time>2022-05-19T14:21:00Z</time>
      </trkpt>
      <trkpt lat="42.389723" lon="-5.137362">
        <ele>898.1089651323855</ele>
        <time>2022-05-19T14:21:01Z</time>
      </trkpt>
      <trkpt lat="42.389698" lon="-5.137598">
        <ele>893.7952861050144</ele>
        <time>2022-05-19T14:21:04Z</time>
      </trkpt>
      <trkpt lat="42.389609" lon="-5.137518">
        <ele>911.8181348638609</ele>
        <time>2022-05-19T14:21:08Z</time>
      </trkpt>
      <trkpt lat="42.389683" lon="-5.13665">
        <ele>895.7607166636735</ele>
        <time>2022-05-19T14:21:09Z</time>
      </trkpt>
      <trkpt lat="42.389617" lon="-5.136563">
        <ele>899.9919818285853</ele>
        <time>2022-05-19T14:21:16Z</time>
      </trkpt>
      <trkpt lat="42.389683" lon="-5.13665">
        <ele>895.7607166636735</ele>
        <time>2022-05-19T14:21:20Z</time>
      </trkpt>
      <trkpt lat="42.389576" lon="-5.136619">
        <ele>900.8096163347363</ele>
        <time>2022-05-19T14:21:39Z</time>
      </trkpt>
      <trkpt lat="42.389654" lon="-5.13668">
        <ele>909.8299126243219</ele>
        <time>2022-05-19T14:22:09Z</time>
      </trkpt>
      <trkpt lat="42.38973" lon="-5.136564">
        <ele>899.8417992731556</ele>
        <time>2022-05-19T14:22:31Z</time>
      </trkpt>
      <trkpt lat="42.389789" lon="-5.13644">
        <ele>901.2897997461259</ele>
        <time>2022-05-19T14:22:34Z</time>
      </trkpt>
      <trkpt lat="42.38971" lon="-5.136515">
        <ele>904.0418436285108</ele>
        <time>2022-05-19T14:22:49Z</time>
      </trkpt>
      <trkpt lat="42.389638" lon="-5.136592">
        <ele>904.0514654181898</ele>
        <time>2022-05-19T14:22:51Z</time>
      </trkpt>
      <trkpt lat="42.389554" lon="-5.13664">
        <ele>905.8778212787583</ele>
        <time>2022-05-19T14:22:56Z</time>
      </trkpt>
      <trkpt lat="42.389657" lon="-5.136643">
        <ele>909.5475307255983</ele>
        <time>2022-05-19T14:23:01Z</time>
      </trkpt>
      <trkpt lat="42.389685" lon="-5.136778">
        <ele>919.2296217652038</ele>
        <time>2022-05-19T14:23:08Z</time>
      </trkpt>
      <trkpt lat="42.389599" lon="-5.136881">
        <ele>918.0029523028061</ele>
        <time>2022-05-19T14:23:13Z</time>
      </trkpt>
      <trkpt lat="42.389657" lon="-5.136643">
        <ele>909.5475307255983</ele>
        <time>2022-05-19T14:23:28Z</time>
      </trkpt>
      <trkpt lat="42.389715" lon="-5.136739">
        <ele>914.547137430869</ele>
        <time>2022-05-19T14:23:33Z</time>
      </trkpt>
      <trkpt lat="42.389819" lon="-5.13672">
        <ele>921.4287236146629</ele>
        <time>2022-05-19T14:23:38Z</time>
      </trkpt>
      <trkpt lat="42.389889" lon="-5.136798">
        <ele>926.0596194453537</ele>
        <time>2022-05-19T14:23:48Z</time>
      </trkpt>
      <trkpt lat="42.389979" lon="-5.136828">
        <ele>937.967308588326</ele>
        <time>2022-05-19T14:24:04Z</time>
      </trkpt>
      <trkpt lat="42.389857" lon="-5.136819">
        <ele>940.1027003107592</ele>
        <time>2022-05-19T14:24:15Z</time>
      </trkpt>
      <trkpt lat="42.389822" lon="-5.136944">
        <ele>941.0505216550082</ele>
        <time>2022-05-19T14:24:18Z</time>
      </trkpt>
      <trkpt lat="42.389787" lon="-5.137058">
        <ele>942.6199808614329</ele>
        <time>2022-05-19T14:24:24Z</time>
      </trkpt>
      <trkpt lat="42.390579" lon="-5.136762">
        <ele>1046.9280705135316</ele>
        <time>2022-05-19T14:25:14Z</time>
      </trkpt>
      <trkpt lat="42.388975" lon="-5.13535">
        <ele>998.6432270882651</ele>
        <time>2022-05-19T14:25:41Z</time>
      </trkpt>
      <trkpt lat="42.388973" lon="-5.135485">
        <ele>992.9086394514889</ele>
        <time>2022-05-19T14:25:56Z</time>
      </trkpt>
      <trkpt lat="42.389026" lon="-5.135606">
        <ele>987.8706907723099</ele>
        <time>2022-05-19T14:26:37Z</time>
      </trkpt>
      <trkpt lat="42.389037" lon="-5.13575">
        <ele>982.2726098382846</ele>
        <time>2022-05-19T14:27:28Z</time>
      </trkpt>
      <trkpt lat="42.38896" lon="-5.135839">
        <ele>977.3784893956035</ele>
        <time>2022-05-19T14:28:07Z</time>
      </trkpt>
      <trkpt lat="42.389014" lon="-5.135696">
        <ele>986.4095302587375</ele>
        <time>2022-05-19T14:28:08Z</time>
      </trkpt>
      <trkpt lat="42.390573" lon="-5.133956">
        <ele>717.8204473312944</ele>
        <time>2022-05-20T07:28:21Z</time>
      </trkpt>
      <trkpt lat="42.390412" lon="-5.134054">
        <ele>719.1395391440019</ele>
        <time>2022-05-20T07:28:22Z</time>
      </trkpt>
      <trkpt lat="42.388139" lon="-5.136608">
        <ele>864.2044761916623</ele>
        <time>2022-05-20T07:28:25Z</time>
      </trkpt>
      <trkpt lat="42.388689" lon="-5.137028">
        <ele>924.5405170246959</ele>
        <time>2022-05-20T07:28:26Z</time>
      </trkpt>
      <trkpt lat="42.388633" lon="-5.137931">
        <ele>865.263124040328</ele>
        <time>2022-05-20T07:28:28Z</time>
      </trkpt>
      <trkpt lat="42.388502" lon="-5.137763">
        <ele>861.2133650649339</ele>
        <time>2022-05-20T07:28:29Z</time>
      </trkpt>
      <trkpt lat="42.388463" lon="-5.137874">
        <ele>889.4427027339116</ele>
        <time>2022-05-20T07:29:05Z</time>
      </trkpt>
      <trkpt lat="42.38846" lon="-5.137997">
        <ele>905.0346959056333</ele>
        <time>2022-05-20T07:29:19Z</time>
      </trkpt>
      <trkpt lat="42.388442" lon="-5.138124">
        <ele>907.1487452592701</ele>
        <time>2022-05-20T07:29:31Z</time>
      </trkpt>
      <trkpt lat="42.388411" lon="-5.138257">
        <ele>907.9650978781283</ele>
        <time>2022-05-20T07:30:19Z</time>
      </trkpt>
      <trkpt lat="42.38836" lon="-5.138374">
        <ele>907.107498514466</ele>
        <time>2022-05-20T07:30:27Z</time>
      </trkpt>
      <trkpt lat="42.388321" lon="-5.138496">
        <ele>906.0309957060963</ele>
        <time>2022-05-20T07:30:35Z</time>
      </trkpt>
      <trkpt lat="42.388304" lon="-5.138631">
        <ele>907.3705575689673</ele>
        <time>2022-05-20T07:30:44Z</time>
      </trkpt>
      <trkpt lat="42.388307" lon="-5.138775">
        <ele>906.749988832511</ele>
        <time>2022-05-20T07:30:52Z</time>
      </trkpt>
      <trkpt lat="42.388261" lon="-5.138881">
        <ele>906.0166286788881</ele>
        <time>2022-05-20T07:31:02Z</time>
      </trkpt>
      <trkpt lat="42.388239" lon="-5.139022">
        <ele>906.1000861674547</ele>
        <time>2022-05-20T07:31:10Z</time>
      </trkpt>
      <trkpt lat="42.38822" lon="-5.139159">
        <ele>907.1345088453963</ele>
        <time>2022-05-20T07:31:19Z</time>
      </trkpt>
      <trkpt lat="42.388199" lon="-5.139285">
        <ele>906.0815422739834</ele>
        <time>2022-05-20T07:31:26Z</time>
      </trkpt>
      <trkpt lat="42.388169" lon="-5.139408">
        <ele>906.2774745803326</ele>
        <time>2022-05-20T07:31:34Z</time>
      </trkpt>
      <trkpt lat="42.388165" lon="-5.13953">
        <ele>907.9344481928274</ele>
        <time>2022-05-20T07:31:41Z</time>
      </trkpt>
      <trkpt lat="42.388164" lon="-5.139671">
        <ele>909.3278148490936</ele>
        <time>2022-05-20T07:31:50Z</time>
      </trkpt>
      <trkpt lat="42.388157" lon="-5.139802">
        <ele>903.2607675082982</ele>
        <time>2022-05-20T07:32:01Z</time>
      </trkpt>
      <trkpt lat="42.388189" lon="-5.139921">
        <ele>901.1629733778536</ele>
        <time>2022-05-20T07:32:06Z</time>
      </trkpt>
      <trkpt lat="42.388208" lon="-5.140064">
        <ele>897.1934816706926</ele>
        <time>2022-05-20T07:32:14Z</time>
      </trkpt>
      <trkpt lat="42.388192" lon="-5.140214">
        <ele>893.5811591511592</ele>
        <time>2022-05-20T07:32:24Z</time>
      </trkpt>
      <trkpt lat="42.388194" lon="-5.140344">
        <ele>893.8170026242733</ele>
        <time>2022-05-20T07:32:31Z</time>
      </trkpt>
      <trkpt lat="42.388147" lon="-5.140472">
        <ele>894.0233798595145</ele>
        <time>2022-05-20T07:32:39Z</time>
      </trkpt>
      <trkpt lat="42.388082" lon="-5.140569">
        <ele>896.6409500176087</ele>
        <time>2022-05-20T07:32:47Z</time>
      </trkpt>
      <trkpt lat="42.388069" lon="-5.140701">
        <ele>897.237280074507</ele>
        <time>2022-05-20T07:32:55Z</time>
      </trkpt>
      <trkpt lat="42.388059" lon="-5.140836">
        <ele>896.0919709196314</ele>
        <time>2022-05-20T07:33:04Z</time>
      </trkpt>
      <trkpt lat="42.388039" lon="-5.140971">
        <ele>898.1605975944549</ele>
        <time>2022-05-20T07:33:12Z</time>
      </trkpt>
      <trkpt lat="42.388014" lon="-5.141103">
        <ele>900.2401033937931</ele>
        <time>2022-05-20T07:33:22Z</time>
      </trkpt>
      <trkpt lat="42.38799" lon="-5.141227">
        <ele>905.3985767876729</ele>
        <time>2022-05-20T07:33:30Z</time>
      </trkpt>
      <trkpt lat="42.387922" lon="-5.141317">
        <ele>910.834567271173</ele>
        <time>2022-05-20T07:33:44Z</time>
      </trkpt>
      <trkpt lat="42.387955" lon="-5.14144">
        <ele>908.5290803043172</ele>
        <time>2022-05-20T07:33:55Z</time>
      </trkpt>
      <trkpt lat="42.387946" lon="-5.141566">
        <ele>908.9943060101941</ele>
        <time>2022-05-20T07:34:26Z</time>
      </trkpt>
      <trkpt lat="42.38796" lon="-5.141697">
        <ele>906.3791235368699</ele>
        <time>2022-05-20T07:34:38Z</time>
      </trkpt>
      <trkpt lat="42.387943" lon="-5.141822">
        <ele>903.8058301648125</ele>
        <time>2022-05-20T07:34:50Z</time>
      </trkpt>
      <trkpt lat="42.387958" lon="-5.141958">
        <ele>901.0610824329779</ele>
        <time>2022-05-20T07:35:00Z</time>
      </trkpt>
      <trkpt lat="42.387943" lon="-5.142088">
        <ele>900.4048126181588</ele>
        <time>2022-05-20T07:35:07Z</time>
      </trkpt>
      <trkpt lat="42.387932" lon="-5.142217">
        <ele>900.2728298837319</ele>
        <time>2022-05-20T07:35:14Z</time>
      </trkpt>
      <trkpt lat="42.387891" lon="-5.142333">
        <ele>902.2361307172105</ele>
        <time>2022-05-20T07:35:24Z</time>
      </trkpt>
      <trkpt lat="42.387862" lon="-5.142453">
        <ele>902.4059459837154</ele>
        <time>2022-05-20T07:35:31Z</time>
      </trkpt>
      <trkpt lat="42.38787" lon="-5.142579">
        <ele>900.9596295719966</ele>
        <time>2022-05-20T07:35:39Z</time>
      </trkpt>
      <trkpt lat="42.387861" lon="-5.142715">
        <ele>900.3922956436872</ele>
        <time>2022-05-20T07:35:50Z</time>
      </trkpt>
      <trkpt lat="42.387863" lon="-5.142848">
        <ele>900.1887628985569</ele>
        <time>2022-05-20T07:35:58Z</time>
      </trkpt>
      <trkpt lat="42.387902" lon="-5.14296">
        <ele>901.4590292079374</ele>
        <time>2022-05-20T07:36:04Z</time>
      </trkpt>
      <trkpt lat="42.387875" lon="-5.143082">
        <ele>901.193281987682</ele>
        <time>2022-05-20T07:36:13Z</time>
      </trkpt>
      <trkpt lat="42.38786" lon="-5.143215">
        <ele>900.7808883460239</ele>
        <time>2022-05-20T07:36:22Z</time>
      </trkpt>
      <trkpt lat="42.387833" lon="-5.143334">
        <ele>900.1532950121909</ele>
        <time>2022-05-20T07:36:29Z</time>
      </trkpt>
      <trkpt lat="42.387798" lon="-5.143459">
        <ele>900.5672134403139</ele>
        <time>2022-05-20T07:36:41Z</time>
      </trkpt>
      <trkpt lat="42.387766" lon="-5.143576">
        <ele>902.0233415151015</ele>
        <time>2022-05-20T07:36:48Z</time>
      </trkpt>
      <trkpt lat="42.387713" lon="-5.143678">
        <ele>903.6007741233334</ele>
        <time>2022-05-20T07:36:58Z</time>
      </trkpt>
      <trkpt lat="42.38772" lon="-5.143808">
        <ele>906.386869829148</ele>
        <time>2022-05-20T07:37:06Z</time>
      </trkpt>
      <trkpt lat="42.387759" lon="-5.143919">
        <ele>909.4731799960136</ele>
        <time>2022-05-20T07:37:14Z</time>
      </trkpt>
      <trkpt lat="42.387676" lon="-5.143979">
        <ele>910.5644605830312</ele>
        <time>2022-05-20T07:37:19Z</time>
      </trkpt>
      <trkpt lat="42.387665" lon="-5.144112">
        <ele>911.6787911988795</ele>
        <time>2022-05-20T07:37:26Z</time>
      </trkpt>
      <trkpt lat="42.387603" lon="-5.144214">
        <ele>914.3668685108423</ele>
        <time>2022-05-20T07:37:34Z</time>
      </trkpt>
      <trkpt lat="42.387633" lon="-5.144342">
        <ele>916.8596847001463</ele>
        <time>2022-05-20T07:37:49Z</time>
      </trkpt>
      <trkpt lat="42.387583" lon="-5.144444">
        <ele>916.254549738951</ele>
        <time>2022-05-20T07:37:58Z</time>
      </trkpt>
      <trkpt lat="42.387584" lon="-5.144576">
        <ele>916.1538989869878</ele>
        <time>2022-05-20T07:38:07Z</time>
      </trkpt>
      <trkpt lat="42.38757" lon="-5.144702">
        <ele>917.7081068670377</ele>
        <time>2022-05-20T07:38:16Z</time>
      </trkpt>
      <trkpt lat="42.387628" lon="-5.144806">
        <ele>919.1509800041094</ele>
        <time>2022-05-20T07:38:26Z</time>
      </trkpt>
      <trkpt lat="42.387693" lon="-5.144903">
        <ele>921.0703579736874</ele>
        <time>2022-05-20T07:38:33Z</time>
      </trkpt>
      <trkpt lat="42.387767" lon="-5.14499">
        <ele>919.8627982316539</ele>
        <time>2022-05-20T07:38:42Z</time>
      </trkpt>
      <trkpt lat="42.387823" lon="-5.1451">
        <ele>917.0233924752101</ele>
        <time>2022-05-20T07:38:49Z</time>
      </trkpt>
      <trkpt lat="42.387881" lon="-5.145199">
        <ele>916.2595766680315</ele>
        <time>2022-05-20T07:38:58Z</time>
      </trkpt>
      <trkpt lat="42.38797" lon="-5.145289">
        <ele>913.364756132476</ele>
        <time>2022-05-20T07:39:04Z</time>
      </trkpt>
      <trkpt lat="42.38801" lon="-5.145402">
        <ele>911.708284240216</ele>
        <time>2022-05-20T07:39:12Z</time>
      </trkpt>
      <trkpt lat="42.388076" lon="-5.145496">
        <ele>908.3233501221985</ele>
        <time>2022-05-20T07:39:21Z</time>
      </trkpt>
      <trkpt lat="42.388114" lon="-5.145621">
        <ele>906.2273369831964</ele>
        <time>2022-05-20T07:39:31Z</time>
      </trkpt>
      <trkpt lat="42.388144" lon="-5.145753">
        <ele>904.3892369149253</ele>
        <time>2022-05-20T07:39:38Z</time>
      </trkpt>
      <trkpt lat="42.388183" lon="-5.14587">
        <ele>900.7630173303187</ele>
        <time>2022-05-20T07:39:46Z</time>
      </trkpt>
      <trkpt lat="42.388247" lon="-5.145973">
        <ele>897.2256641266868</ele>
        <time>2022-05-20T07:39:54Z</time>
      </trkpt>
      <trkpt lat="42.388289" lon="-5.146097">
        <ele>895.3329182872549</ele>
        <time>2022-05-20T07:40:03Z</time>
      </trkpt>
      <trkpt lat="42.388347" lon="-5.1462">
        <ele>894.1798488628119</ele>
        <time>2022-05-20T07:40:09Z</time>
      </trkpt>
      <trkpt lat="42.38838" lon="-5.146321">
        <ele>891.0300462432206</ele>
        <time>2022-05-20T07:40:19Z</time>
      </trkpt>
      <trkpt lat="42.388445" lon="-5.146443">
        <ele>887.1024103909731</ele>
        <time>2022-05-20T07:40:31Z</time>
      </trkpt>
      <trkpt lat="42.388529" lon="-5.146528">
        <ele>882.658085747622</ele>
        <time>2022-05-20T07:40:41Z</time>
      </trkpt>
      <trkpt lat="42.388597" lon="-5.146636">
        <ele>880.0352126322687</ele>
        <time>2022-05-20T07:40:51Z</time>
      </trkpt>
      <trkpt lat="42.388684" lon="-5.146705">
        <ele>876.953825276345</ele>
        <time>2022-05-20T07:40:59Z</time>
      </trkpt>
      <trkpt lat="42.38876" lon="-5.146781">
        <ele>874.9462449848652</ele>
        <time>2022-05-20T07:41:08Z</time>
      </trkpt>
      <trkpt lat="42.388824" lon="-5.146888">
        <ele>873.5751891778782</ele>
        <time>2022-05-20T07:41:16Z</time>
      </trkpt>
      <trkpt lat="42.388891" lon="-5.146984">
        <ele>873.178719596006</ele>
        <time>2022-05-20T07:41:24Z</time>
      </trkpt>
      <trkpt lat="42.388964" lon="-5.147072">
        <ele>874.7317859688774</ele>
        <time>2022-05-20T07:41:31Z</time>
      </trkpt>
      <trkpt lat="42.389058" lon="-5.147142">
        <ele>877.4736853810027</ele>
        <time>2022-05-20T07:41:41Z</time>
      </trkpt>
      <trkpt lat="42.389165" lon="-5.147166">
        <ele>877.5190516626462</ele>
        <time>2022-05-20T07:41:51Z</time>
      </trkpt>
      <trkpt lat="42.389246" lon="-5.147224">
        <ele>878.4484296003357</ele>
        <time>2022-05-20T07:41:59Z</time>
      </trkpt>
      <trkpt lat="42.389316" lon="-5.147301">
        <ele>881.3847666913643</ele>
        <time>2022-05-20T07:42:08Z</time>
      </trkpt>
      <trkpt lat="42.389376" lon="-5.147397">
        <ele>882.6977011887357</ele>
        <time>2022-05-20T07:42:16Z</time>
      </trkpt>
      <trkpt lat="42.389443" lon="-5.147501">
        <ele>883.6803321382031</ele>
        <time>2022-05-20T07:42:26Z</time>
      </trkpt>
      <trkpt lat="42.389508" lon="-5.147611">
        <ele>884.8131847437471</ele>
        <time>2022-05-20T07:42:36Z</time>
      </trkpt>
      <trkpt lat="42.389578" lon="-5.147708">
        <ele>886.5357479499653</ele>
        <time>2022-05-20T07:42:43Z</time>
      </trkpt>
      <trkpt lat="42.389646" lon="-5.147804">
        <ele>887.1373021444306</ele>
        <time>2022-05-20T07:42:51Z</time>
      </trkpt>
      <trkpt lat="42.389707" lon="-5.147898">
        <ele>887.5893350355327</ele>
        <time>2022-05-20T07:42:59Z</time>
      </trkpt>
      <trkpt lat="42.389776" lon="-5.147994">
        <ele>892.1070898482576</ele>
        <time>2022-05-20T07:43:06Z</time>
      </trkpt>
      <trkpt lat="42.38985" lon="-5.148086">
        <ele>895.2670221328735</ele>
        <time>2022-05-20T07:43:18Z</time>
      </trkpt>
      <trkpt lat="42.389907" lon="-5.148181">
        <ele>897.7015303149819</ele>
        <time>2022-05-20T07:43:26Z</time>
      </trkpt>
      <trkpt lat="42.389991" lon="-5.148267">
        <ele>900.2679994665086</ele>
        <time>2022-05-20T07:43:35Z</time>
      </trkpt>
      <trkpt lat="42.390061" lon="-5.148345">
        <ele>902.9422853989527</ele>
        <time>2022-05-20T07:43:42Z</time>
      </trkpt>
      <trkpt lat="42.390126" lon="-5.14844">
        <ele>905.3020189693198</ele>
        <time>2022-05-20T07:43:51Z</time>
      </trkpt>
      <trkpt lat="42.3902" lon="-5.148527">
        <ele>907.8385260086507</ele>
        <time>2022-05-20T07:44:02Z</time>
      </trkpt>
      <trkpt lat="42.390269" lon="-5.148619">
        <ele>912.4288896545768</ele>
        <time>2022-05-20T07:44:12Z</time>
      </trkpt>
      <trkpt lat="42.39032" lon="-5.148721">
        <ele>914.2736562024802</ele>
        <time>2022-05-20T07:44:19Z</time>
      </trkpt>
      <trkpt lat="42.39035" lon="-5.148836">
        <ele>911.4210572242737</ele>
        <time>2022-05-20T07:44:28Z</time>
      </trkpt>
      <trkpt lat="42.390399" lon="-5.148958">
        <ele>912.1266804356128</ele>
        <time>2022-05-20T07:44:36Z</time>
      </trkpt>
      <trkpt lat="42.390473" lon="-5.149036">
        <ele>911.3746036216617</ele>
        <time>2022-05-20T07:44:46Z</time>
      </trkpt>
      <trkpt lat="42.390528" lon="-5.149139">
        <ele>910.4786808984354</ele>
        <time>2022-05-20T07:44:58Z</time>
      </trkpt>
      <trkpt lat="42.390579" lon="-5.149246">
        <ele>909.2937707630917</ele>
        <time>2022-05-20T07:45:07Z</time>
      </trkpt>
      <trkpt lat="42.390618" lon="-5.149363">
        <ele>909.5569568043575</ele>
        <time>2022-05-20T07:45:16Z</time>
      </trkpt>
      <trkpt lat="42.390667" lon="-5.14948">
        <ele>910.4814051678404</ele>
        <time>2022-05-20T07:45:23Z</time>
      </trkpt>
      <trkpt lat="42.390722" lon="-5.149583">
        <ele>913.8690315978602</ele>
        <time>2022-05-20T07:45:29Z</time>
      </trkpt>
      <trkpt lat="42.390765" lon="-5.149697">
        <ele>914.482083266601</ele>
        <time>2022-05-20T07:45:36Z</time>
      </trkpt>
      <trkpt lat="42.390782" lon="-5.149819">
        <ele>915.8076557293534</ele>
        <time>2022-05-20T07:45:54Z</time>
      </trkpt>
      <trkpt lat="42.390838" lon="-5.149917">
        <ele>915.2209440236911</ele>
        <time>2022-05-20T07:46:05Z</time>
      </trkpt>
      <trkpt lat="42.390889" lon="-5.150023">
        <ele>914.155679457821</ele>
        <time>2022-05-20T07:46:16Z</time>
      </trkpt>
      <trkpt lat="42.390937" lon="-5.150132">
        <ele>916.0185218695551</ele>
        <time>2022-05-20T07:46:25Z</time>
      </trkpt>
      <trkpt lat="42.390989" lon="-5.150249">
        <ele>915.8603308647871</ele>
        <time>2022-05-20T07:46:34Z</time>
      </trkpt>
      <trkpt lat="42.391042" lon="-5.150349">
        <ele>917.6845670798793</ele>
        <time>2022-05-20T07:46:41Z</time>
      </trkpt>
      <trkpt lat="42.391095" lon="-5.150457">
        <ele>916.6008017566055</ele>
        <time>2022-05-20T07:46:51Z</time>
      </trkpt>
      <trkpt lat="42.391143" lon="-5.150561">
        <ele>917.6062384760007</ele>
        <time>2022-05-20T07:46:58Z</time>
      </trkpt>
      <trkpt lat="42.391217" lon="-5.150658">
        <ele>921.8281363332644</ele>
        <time>2022-05-20T07:47:08Z</time>
      </trkpt>
      <trkpt lat="42.391267" lon="-5.150769">
        <ele>928.4896190399304</ele>
        <time>2022-05-20T07:47:16Z</time>
      </trkpt>
      <trkpt lat="42.39131" lon="-5.150884">
        <ele>938.1353040663525</ele>
        <time>2022-05-20T07:47:31Z</time>
      </trkpt>
      <trkpt lat="42.391372" lon="-5.150982">
        <ele>942.98525761161</ele>
        <time>2022-05-20T07:47:41Z</time>
      </trkpt>
      <trkpt lat="42.391416" lon="-5.151093">
        <ele>945.8203927986324</ele>
        <time>2022-05-20T07:47:50Z</time>
      </trkpt>
      <trkpt lat="42.391476" lon="-5.151191">
        <ele>950.403223044239</ele>
        <time>2022-05-20T07:48:01Z</time>
      </trkpt>
      <trkpt lat="42.391535" lon="-5.151284">
        <ele>949.8530062967911</ele>
        <time>2022-05-20T07:48:11Z</time>
      </trkpt>
      <trkpt lat="42.391595" lon="-5.151376">
        <ele>949.8591388743371</ele>
        <time>2022-05-20T07:48:20Z</time>
      </trkpt>
      <trkpt lat="42.391644" lon="-5.151485">
        <ele>950.3436731537804</ele>
        <time>2022-05-20T07:48:29Z</time>
      </trkpt>
      <trkpt lat="42.391699" lon="-5.151585">
        <ele>949.8562385942787</ele>
        <time>2022-05-20T07:48:37Z</time>
      </trkpt>
      <trkpt lat="42.391761" lon="-5.15168">
        <ele>949.8753679981455</ele>
        <time>2022-05-20T07:48:44Z</time>
      </trkpt>
      <trkpt lat="42.391821" lon="-5.151785">
        <ele>947.7658078428358</ele>
        <time>2022-05-20T07:48:52Z</time>
      </trkpt>
      <trkpt lat="42.39189" lon="-5.151892">
        <ele>944.4942462425679</ele>
        <time>2022-05-20T07:49:05Z</time>
      </trkpt>
      <trkpt lat="42.391951" lon="-5.151996">
        <ele>944.73366320692</ele>
        <time>2022-05-20T07:49:14Z</time>
      </trkpt>
      <trkpt lat="42.392009" lon="-5.152107">
        <ele>945.5111125521362</ele>
        <time>2022-05-20T07:49:22Z</time>
      </trkpt>
      <trkpt lat="42.392071" lon="-5.152205">
        <ele>946.0247982200235</ele>
        <time>2022-05-20T07:49:29Z</time>
      </trkpt>
      <trkpt lat="42.392122" lon="-5.152321">
        <ele>944.6618698677048</ele>
        <time>2022-05-20T07:49:38Z</time>
      </trkpt>
      <trkpt lat="42.392193" lon="-5.152423">
        <ele>945.5149627551436</ele>
        <time>2022-05-20T07:49:45Z</time>
      </trkpt>
      <trkpt lat="42.392255" lon="-5.152528">
        <ele>945.7857739077881</ele>
        <time>2022-05-20T07:49:52Z</time>
      </trkpt>
      <trkpt lat="42.392309" lon="-5.152632">
        <ele>946.0074307089671</ele>
        <time>2022-05-20T07:50:00Z</time>
      </trkpt>
      <trkpt lat="42.392363" lon="-5.152729">
        <ele>947.6726817712188</ele>
        <time>2022-05-20T07:50:08Z</time>
      </trkpt>
      <trkpt lat="42.392421" lon="-5.152829">
        <ele>949.6587138464674</ele>
        <time>2022-05-20T07:50:17Z</time>
      </trkpt>
      <trkpt lat="42.392479" lon="-5.152939">
        <ele>950.1978826401755</ele>
        <time>2022-05-20T07:50:26Z</time>
      </trkpt>
      <trkpt lat="42.39253" lon="-5.153045">
        <ele>949.800799658522</ele>
        <time>2022-05-20T07:50:35Z</time>
      </trkpt>
      <trkpt lat="42.392602" lon="-5.153143">
        <ele>949.5471538184211</ele>
        <time>2022-05-20T07:50:42Z</time>
      </trkpt>
      <trkpt lat="42.392658" lon="-5.153239">
        <ele>948.9727488420904</ele>
        <time>2022-05-20T07:50:49Z</time>
      </trkpt>
      <trkpt lat="42.39271" lon="-5.153359">
        <ele>948.5256616147235</ele>
        <time>2022-05-20T07:50:58Z</time>
      </trkpt>
      <trkpt lat="42.392771" lon="-5.153468">
        <ele>948.7223925814033</ele>
        <time>2022-05-20T07:51:06Z</time>
      </trkpt>
      <trkpt lat="42.392822" lon="-5.15357">
        <ele>947.462627703324</ele>
        <time>2022-05-20T07:51:14Z</time>
      </trkpt>
      <trkpt lat="42.392884" lon="-5.153673">
        <ele>947.3113613286987</ele>
        <time>2022-05-20T07:51:22Z</time>
      </trkpt>
      <trkpt lat="42.392944" lon="-5.153775">
        <ele>949.3916885200888</ele>
        <time>2022-05-20T07:51:30Z</time>
      </trkpt>
      <trkpt lat="42.392996" lon="-5.153883">
        <ele>949.9209364000708</ele>
        <time>2022-05-20T07:51:39Z</time>
      </trkpt>
      <trkpt lat="42.393045" lon="-5.153984">
        <ele>950.8546315934509</ele>
        <time>2022-05-20T07:51:45Z</time>
      </trkpt>
      <trkpt lat="42.3931" lon="-5.154096">
        <ele>951.0752538824454</ele>
        <time>2022-05-20T07:51:54Z</time>
      </trkpt>
      <trkpt lat="42.393149" lon="-5.154201">
        <ele>950.9158617565408</ele>
        <time>2022-05-20T07:52:05Z</time>
      </trkpt>
      <trkpt lat="42.393209" lon="-5.154308">
        <ele>949.3228005990386</ele>
        <time>2022-05-20T07:52:14Z</time>
      </trkpt>
      <trkpt lat="42.39327" lon="-5.154401">
        <ele>949.4328517811373</ele>
        <time>2022-05-20T07:52:21Z</time>
      </trkpt>
      <trkpt lat="42.393331" lon="-5.154498">
        <ele>948.7312862258404</ele>
        <time>2022-05-20T07:52:29Z</time>
      </trkpt>
      <trkpt lat="42.393385" lon="-5.154608">
        <ele>948.847554685548</ele>
        <time>2022-05-20T07:52:37Z</time>
      </trkpt>
      <trkpt lat="42.393442" lon="-5.154713">
        <ele>949.724544304423</ele>
        <time>2022-05-20T07:52:45Z</time>
      </trkpt>
      <trkpt lat="42.3935" lon="-5.154807">
        <ele>950.9861067989841</ele>
        <time>2022-05-20T07:52:53Z</time>
      </trkpt>
      <trkpt lat="42.393551" lon="-5.154913">
        <ele>950.1938825165853</ele>
        <time>2022-05-20T07:53:00Z</time>
      </trkpt>
      <trkpt lat="42.393604" lon="-5.155022">
        <ele>948.4459250783548</ele>
        <time>2022-05-20T07:53:08Z</time>
      </trkpt>
      <trkpt lat="42.39366" lon="-5.155127">
        <ele>948.1570539427921</ele>
        <time>2022-05-20T07:53:16Z</time>
      </trkpt>
      <trkpt lat="42.39373" lon="-5.155224">
        <ele>948.3087408700958</ele>
        <time>2022-05-20T07:53:23Z</time>
      </trkpt>
      <trkpt lat="42.393793" lon="-5.155334">
        <ele>950.2008732222021</ele>
        <time>2022-05-20T07:53:32Z</time>
      </trkpt>
      <trkpt lat="42.393849" lon="-5.15544">
        <ele>950.4702609451488</ele>
        <time>2022-05-20T07:53:39Z</time>
      </trkpt>
      <trkpt lat="42.39391" lon="-5.155541">
        <ele>951.1795525234193</ele>
        <time>2022-05-20T07:53:48Z</time>
      </trkpt>
      <trkpt lat="42.393955" lon="-5.155651">
        <ele>951.7075152108446</ele>
        <time>2022-05-20T07:53:56Z</time>
      </trkpt>
      <trkpt lat="42.394021" lon="-5.155749">
        <ele>951.5505349887535</ele>
        <time>2022-05-20T07:54:06Z</time>
      </trkpt>
      <trkpt lat="42.394075" lon="-5.155864">
        <ele>950.7451552599669</ele>
        <time>2022-05-20T07:54:15Z</time>
      </trkpt>
      <trkpt lat="42.394126" lon="-5.155968">
        <ele>951.4790275534615</ele>
        <time>2022-05-20T07:54:23Z</time>
      </trkpt>
      <trkpt lat="42.394185" lon="-5.156069">
        <ele>952.4430391080678</ele>
        <time>2022-05-20T07:54:31Z</time>
      </trkpt>
      <trkpt lat="42.394247" lon="-5.156172">
        <ele>951.6343898074701</ele>
        <time>2022-05-20T07:54:41Z</time>
      </trkpt>
      <trkpt lat="42.394293" lon="-5.156287">
        <ele>952.5777717232704</ele>
        <time>2022-05-20T07:54:51Z</time>
      </trkpt>
      <trkpt lat="42.394343" lon="-5.156388">
        <ele>952.0595109676942</ele>
        <time>2022-05-20T07:54:58Z</time>
      </trkpt>
      <trkpt lat="42.394387" lon="-5.156499">
        <ele>951.5904872315004</ele>
        <time>2022-05-20T07:55:05Z</time>
      </trkpt>
      <trkpt lat="42.394439" lon="-5.156615">
        <ele>951.1634590355679</ele>
        <time>2022-05-20T07:55:13Z</time>
      </trkpt>
      <trkpt lat="42.394494" lon="-5.156722">
        <ele>952.7362927244976</ele>
        <time>2022-05-20T07:55:21Z</time>
      </trkpt>
      <trkpt lat="42.394543" lon="-5.156845">
        <ele>954.1586531260982</ele>
        <time>2022-05-20T07:55:29Z</time>
      </trkpt>
      <trkpt lat="42.394594" lon="-5.156954">
        <ele>954.2600948764011</ele>
        <time>2022-05-20T07:55:38Z</time>
      </trkpt>
      <trkpt lat="42.394643" lon="-5.157073">
        <ele>953.422511019744</ele>
        <time>2022-05-20T07:55:48Z</time>
      </trkpt>
      <trkpt lat="42.394687" lon="-5.157185">
        <ele>954.5003391150385</ele>
        <time>2022-05-20T07:55:56Z</time>
      </trkpt>
      <trkpt lat="42.394738" lon="-5.157306">
        <ele>954.4061070596799</ele>
        <time>2022-05-20T07:56:05Z</time>
      </trkpt>
      <trkpt lat="42.394791" lon="-5.157426">
        <ele>954.5764716006815</ele>
        <time>2022-05-20T07:56:13Z</time>
      </trkpt>
      <trkpt lat="42.394825" lon="-5.157542">
        <ele>954.1490904968232</ele>
        <time>2022-05-20T07:56:20Z</time>
      </trkpt>
      <trkpt lat="42.394869" lon="-5.157662">
        <ele>954.0137749938294</ele>
        <time>2022-05-20T07:56:29Z</time>
      </trkpt>
      <trkpt lat="42.394923" lon="-5.157771">
        <ele>953.8360733697191</ele>
        <time>2022-05-20T07:56:38Z</time>
      </trkpt>
      <trkpt lat="42.394978" lon="-5.157904">
        <ele>955.2452299930155</ele>
        <time>2022-05-20T07:56:48Z</time>
      </trkpt>
      <trkpt lat="42.395035" lon="-5.157999">
        <ele>956.5595508627594</ele>
        <time>2022-05-20T07:56:55Z</time>
      </trkpt>
      <trkpt lat="42.395086" lon="-5.158105">
        <ele>958.609760960564</ele>
        <time>2022-05-20T07:57:03Z</time>
      </trkpt>
      <trkpt lat="42.39514" lon="-5.158209">
        <ele>959.9525634692982</ele>
        <time>2022-05-20T07:57:11Z</time>
      </trkpt>
      <trkpt lat="42.395189" lon="-5.158321">
        <ele>960.5340692996979</ele>
        <time>2022-05-20T07:57:20Z</time>
      </trkpt>
      <trkpt lat="42.395225" lon="-5.158439">
        <ele>962.2044169502333</ele>
        <time>2022-05-20T07:57:28Z</time>
      </trkpt>
      <trkpt lat="42.395265" lon="-5.158548">
        <ele>963.0849311938509</ele>
        <time>2022-05-20T07:57:35Z</time>
      </trkpt>
      <trkpt lat="42.395304" lon="-5.158674">
        <ele>965.1172520043328</ele>
        <time>2022-05-20T07:57:44Z</time>
      </trkpt>
      <trkpt lat="42.395356" lon="-5.158801">
        <ele>966.4819164806977</ele>
        <time>2022-05-20T07:57:53Z</time>
      </trkpt>
      <trkpt lat="42.395402" lon="-5.158937">
        <ele>966.9011322418228</ele>
        <time>2022-05-20T07:58:03Z</time>
      </trkpt>
      <trkpt lat="42.395458" lon="-5.159048">
        <ele>966.973055370152</ele>
        <time>2022-05-20T07:58:11Z</time>
      </trkpt>
      <trkpt lat="42.3955" lon="-5.159161">
        <ele>967.2932507907972</ele>
        <time>2022-05-20T07:58:19Z</time>
      </trkpt>
      <trkpt lat="42.395558" lon="-5.159275">
        <ele>965.9766294285655</ele>
        <time>2022-05-20T07:58:28Z</time>
      </trkpt>
      <trkpt lat="42.395597" lon="-5.159386">
        <ele>965.0378099922091</ele>
        <time>2022-05-20T07:58:36Z</time>
      </trkpt>
      <trkpt lat="42.395644" lon="-5.159499">
        <ele>964.5020377133042</ele>
        <time>2022-05-20T07:58:44Z</time>
      </trkpt>
      <trkpt lat="42.395684" lon="-5.15961">
        <ele>963.7789305308834</ele>
        <time>2022-05-20T07:58:51Z</time>
      </trkpt>
      <trkpt lat="42.395731" lon="-5.159721">
        <ele>962.5263976054266</ele>
        <time>2022-05-20T07:58:59Z</time>
      </trkpt>
      <trkpt lat="42.395797" lon="-5.159824">
        <ele>960.4310881067067</ele>
        <time>2022-05-20T07:59:08Z</time>
      </trkpt>
      <trkpt lat="42.395847" lon="-5.159938">
        <ele>960.0109344320372</ele>
        <time>2022-05-20T07:59:16Z</time>
      </trkpt>
      <trkpt lat="42.395901" lon="-5.160051">
        <ele>961.6663683922961</ele>
        <time>2022-05-20T07:59:26Z</time>
      </trkpt>
      <trkpt lat="42.395963" lon="-5.160152">
        <ele>965.0324711846188</ele>
        <time>2022-05-20T07:59:36Z</time>
      </trkpt>
      <trkpt lat="42.395988" lon="-5.16027">
        <ele>965.6881514508277</ele>
        <time>2022-05-20T07:59:44Z</time>
      </trkpt>
      <trkpt lat="42.396032" lon="-5.160395">
        <ele>965.5749535877258</ele>
        <time>2022-05-20T07:59:52Z</time>
      </trkpt>
      <trkpt lat="42.396078" lon="-5.160513">
        <ele>966.2263542255387</ele>
        <time>2022-05-20T08:00:00Z</time>
      </trkpt>
      <trkpt lat="42.396123" lon="-5.160631">
        <ele>966.7628850657493</ele>
        <time>2022-05-20T08:00:08Z</time>
      </trkpt>
      <trkpt lat="42.396177" lon="-5.160748">
        <ele>966.9283884242177</ele>
        <time>2022-05-20T08:00:15Z</time>
      </trkpt>
      <trkpt lat="42.396212" lon="-5.160872">
        <ele>967.259946254082</ele>
        <time>2022-05-20T08:00:25Z</time>
      </trkpt>
      <trkpt lat="42.396234" lon="-5.160992">
        <ele>968.114788829349</ele>
        <time>2022-05-20T08:00:34Z</time>
      </trkpt>
      <trkpt lat="42.396289" lon="-5.161107">
        <ele>968.2763988263905</ele>
        <time>2022-05-20T08:00:42Z</time>
      </trkpt>
      <trkpt lat="42.396345" lon="-5.161215">
        <ele>968.5887623075396</ele>
        <time>2022-05-20T08:00:51Z</time>
      </trkpt>
      <trkpt lat="42.396397" lon="-5.161319">
        <ele>968.764802264981</ele>
        <time>2022-05-20T08:00:58Z</time>
      </trkpt>
      <trkpt lat="42.396434" lon="-5.16144">
        <ele>968.1136344596744</ele>
        <time>2022-05-20T08:01:06Z</time>
      </trkpt>
      <trkpt lat="42.396468" lon="-5.161554">
        <ele>967.8590623354539</ele>
        <time>2022-05-20T08:01:13Z</time>
      </trkpt>
      <trkpt lat="42.396517" lon="-5.161663">
        <ele>967.9938352517784</ele>
        <time>2022-05-20T08:01:21Z</time>
      </trkpt>
      <trkpt lat="42.396568" lon="-5.161772">
        <ele>967.4253139803186</ele>
        <time>2022-05-20T08:01:30Z</time>
      </trkpt>
      <trkpt lat="42.396611" lon="-5.161892">
        <ele>966.0420016152784</ele>
        <time>2022-05-20T08:01:38Z</time>
      </trkpt>
      <trkpt lat="42.396665" lon="-5.162007">
        <ele>965.3364257197827</ele>
        <time>2022-05-20T08:01:45Z</time>
      </trkpt>
      <trkpt lat="42.396715" lon="-5.162121">
        <ele>965.1629176232964</ele>
        <time>2022-05-20T08:01:52Z</time>
      </trkpt>
      <trkpt lat="42.396767" lon="-5.162234">
        <ele>963.7198572577909</ele>
        <time>2022-05-20T08:02:00Z</time>
      </trkpt>
      <trkpt lat="42.396821" lon="-5.162335">
        <ele>964.9623216316104</ele>
        <time>2022-05-20T08:02:07Z</time>
      </trkpt>
      <trkpt lat="42.396866" lon="-5.162448">
        <ele>966.1576988799497</ele>
        <time>2022-05-20T08:02:15Z</time>
      </trkpt>
      <trkpt lat="42.396913" lon="-5.162567">
        <ele>966.2659425716847</ele>
        <time>2022-05-20T08:02:23Z</time>
      </trkpt>
      <trkpt lat="42.396969" lon="-5.162684">
        <ele>966.6805586954579</ele>
        <time>2022-05-20T08:02:31Z</time>
      </trkpt>
      <trkpt lat="42.397035" lon="-5.162788">
        <ele>965.641729220748</ele>
        <time>2022-05-20T08:02:39Z</time>
      </trkpt>
      <trkpt lat="42.397068" lon="-5.162908">
        <ele>966.4998864363879</ele>
        <time>2022-05-20T08:02:48Z</time>
      </trkpt>
      <trkpt lat="42.397114" lon="-5.16302">
        <ele>967.0622965274379</ele>
        <time>2022-05-20T08:02:57Z</time>
      </trkpt>
      <trkpt lat="42.397138" lon="-5.163141">
        <ele>969.2797129033133</ele>
        <time>2022-05-20T08:03:06Z</time>
      </trkpt>
      <trkpt lat="42.397169" lon="-5.163259">
        <ele>972.2214000979438</ele>
        <time>2022-05-20T08:03:14Z</time>
      </trkpt>
      <trkpt lat="42.397208" lon="-5.163378">
        <ele>973.9203479140997</ele>
        <time>2022-05-20T08:03:21Z</time>
      </trkpt>
      <trkpt lat="42.397229" lon="-5.163504">
        <ele>976.3545225802809</ele>
        <time>2022-05-20T08:03:28Z</time>
      </trkpt>
      <trkpt lat="42.397255" lon="-5.163624">
        <ele>978.6194282313809</ele>
        <time>2022-05-20T08:03:35Z</time>
      </trkpt>
      <trkpt lat="42.397292" lon="-5.163755">
        <ele>979.0524143781513</ele>
        <time>2022-05-20T08:03:42Z</time>
      </trkpt>
      <trkpt lat="42.397318" lon="-5.163885">
        <ele>980.6483150012791</ele>
        <time>2022-05-20T08:03:49Z</time>
      </trkpt>
      <trkpt lat="42.397348" lon="-5.164003">
        <ele>981.9971638862044</ele>
        <time>2022-05-20T08:03:57Z</time>
      </trkpt>
      <trkpt lat="42.397389" lon="-5.164112">
        <ele>982.9381243092939</ele>
        <time>2022-05-20T08:04:05Z</time>
      </trkpt>
      <trkpt lat="42.397419" lon="-5.164228">
        <ele>984.8613273818046</ele>
        <time>2022-05-20T08:04:13Z</time>
      </trkpt>
      <trkpt lat="42.397452" lon="-5.164356">
        <ele>987.1802351456136</ele>
        <time>2022-05-20T08:04:21Z</time>
      </trkpt>
      <trkpt lat="42.39749" lon="-5.164477">
        <ele>991.0700854668394</ele>
        <time>2022-05-20T08:04:27Z</time>
      </trkpt>
      <trkpt lat="42.397529" lon="-5.164602">
        <ele>993.2820062963292</ele>
        <time>2022-05-20T08:04:33Z</time>
      </trkpt>
      <trkpt lat="42.397541" lon="-5.164724">
        <ele>995.784524534829</ele>
        <time>2022-05-20T08:04:42Z</time>
      </trkpt>
      <trkpt lat="42.397588" lon="-5.164832">
        <ele>995.9835239555687</ele>
        <time>2022-05-20T08:04:51Z</time>
      </trkpt>
      <trkpt lat="42.397618" lon="-5.164957">
        <ele>992.5221766317263</ele>
        <time>2022-05-20T08:05:38Z</time>
      </trkpt>
      <trkpt lat="42.397622" lon="-5.165094">
        <ele>988.9917000103742</ele>
        <time>2022-05-20T08:05:46Z</time>
      </trkpt>
      <trkpt lat="42.397652" lon="-5.165219">
        <ele>990.2099084584042</ele>
        <time>2022-05-20T08:05:53Z</time>
      </trkpt>
      <trkpt lat="42.397694" lon="-5.165336">
        <ele>991.4522258704528</ele>
        <time>2022-05-20T08:06:00Z</time>
      </trkpt>
      <trkpt lat="42.397734" lon="-5.165449">
        <ele>993.2813591118902</ele>
        <time>2022-05-20T08:06:06Z</time>
      </trkpt>
      <trkpt lat="42.39776" lon="-5.16557">
        <ele>992.3293231744319</ele>
        <time>2022-05-20T08:06:12Z</time>
      </trkpt>
      <trkpt lat="42.397799" lon="-5.165687">
        <ele>994.3742112470791</ele>
        <time>2022-05-20T08:06:18Z</time>
      </trkpt>
      <trkpt lat="42.397823" lon="-5.165808">
        <ele>995.5265826424584</ele>
        <time>2022-05-20T08:06:23Z</time>
      </trkpt>
      <trkpt lat="42.397841" lon="-5.165944">
        <ele>997.312667477876</ele>
        <time>2022-05-20T08:06:31Z</time>
      </trkpt>
      <trkpt lat="42.397869" lon="-5.16609">
        <ele>998.986326629296</ele>
        <time>2022-05-20T08:06:40Z</time>
      </trkpt>
      <trkpt lat="42.397913" lon="-5.166204">
        <ele>999.5184340206906</ele>
        <time>2022-05-20T08:06:47Z</time>
      </trkpt>
      <trkpt lat="42.397945" lon="-5.166346">
        <ele>1000.2048190459609</ele>
        <time>2022-05-20T08:06:55Z</time>
      </trkpt>
      <trkpt lat="42.397978" lon="-5.166463">
        <ele>999.712350005284</ele>
        <time>2022-05-20T08:07:03Z</time>
      </trkpt>
      <trkpt lat="42.398025" lon="-5.166587">
        <ele>997.0506489500403</ele>
        <time>2022-05-20T08:07:10Z</time>
      </trkpt>
      <trkpt lat="42.398062" lon="-5.166703">
        <ele>994.8819840736687</ele>
        <time>2022-05-20T08:07:17Z</time>
      </trkpt>
      <trkpt lat="42.398126" lon="-5.166828">
        <ele>994.2229203348979</ele>
        <time>2022-05-20T08:07:25Z</time>
      </trkpt>
      <trkpt lat="42.398188" lon="-5.16694">
        <ele>993.1516531929374</ele>
        <time>2022-05-20T08:07:32Z</time>
      </trkpt>
      <trkpt lat="42.398228" lon="-5.16709">
        <ele>991.9380502952263</ele>
        <time>2022-05-20T08:07:40Z</time>
      </trkpt>
      <trkpt lat="42.398277" lon="-5.167197">
        <ele>991.1318604480475</ele>
        <time>2022-05-20T08:07:47Z</time>
      </trkpt>
      <trkpt lat="42.398325" lon="-5.167339">
        <ele>989.2671091090888</ele>
        <time>2022-05-20T08:07:55Z</time>
      </trkpt>
      <trkpt lat="42.398355" lon="-5.167458">
        <ele>988.4669083096087</ele>
        <time>2022-05-20T08:08:01Z</time>
      </trkpt>
      <trkpt lat="42.39839" lon="-5.167572">
        <ele>988.4157789917663</ele>
        <time>2022-05-20T08:08:08Z</time>
      </trkpt>
      <trkpt lat="42.398432" lon="-5.167683">
        <ele>988.6587564535439</ele>
        <time>2022-05-20T08:08:15Z</time>
      </trkpt>
      <trkpt lat="42.398488" lon="-5.167804">
        <ele>989.6645162068307</ele>
        <time>2022-05-20T08:08:23Z</time>
      </trkpt>
      <trkpt lat="42.39854" lon="-5.16793">
        <ele>991.3067609136924</ele>
        <time>2022-05-20T08:08:30Z</time>
      </trkpt>
      <trkpt lat="42.398599" lon="-5.168045">
        <ele>991.6506747687235</ele>
        <time>2022-05-20T08:08:37Z</time>
      </trkpt>
      <trkpt lat="42.398662" lon="-5.168189">
        <ele>990.5924309100956</ele>
        <time>2022-05-20T08:08:45Z</time>
      </trkpt>
      <trkpt lat="42.398717" lon="-5.168323">
        <ele>990.9620071398094</ele>
        <time>2022-05-20T08:08:55Z</time>
      </trkpt>
      <trkpt lat="42.398766" lon="-5.168443">
        <ele>991.8976072650403</ele>
        <time>2022-05-20T08:09:03Z</time>
      </trkpt>
      <trkpt lat="42.39881" lon="-5.168564">
        <ele>992.1863474724814</ele>
        <time>2022-05-20T08:09:10Z</time>
      </trkpt>
      <trkpt lat="42.398862" lon="-5.168669">
        <ele>992.7850820655003</ele>
        <time>2022-05-20T08:09:17Z</time>
      </trkpt>
      <trkpt lat="42.398916" lon="-5.168779">
        <ele>993.9144984930754</ele>
        <time>2022-05-20T08:09:23Z</time>
      </trkpt>
      <trkpt lat="42.398966" lon="-5.168903">
        <ele>994.5765583012253</ele>
        <time>2022-05-20T08:09:31Z</time>
      </trkpt>
      <trkpt lat="42.399006" lon="-5.169019">
        <ele>994.0722183678299</ele>
        <time>2022-05-20T08:09:38Z</time>
      </trkpt>
      <trkpt lat="42.399046" lon="-5.16914">
        <ele>993.5203692596406</ele>
        <time>2022-05-20T08:09:44Z</time>
      </trkpt>
      <trkpt lat="42.399082" lon="-5.169266">
        <ele>994.18655818142</ele>
        <time>2022-05-20T08:09:51Z</time>
      </trkpt>
      <trkpt lat="42.399129" lon="-5.169388">
        <ele>994.2038729107007</ele>
        <time>2022-05-20T08:09:59Z</time>
      </trkpt>
      <trkpt lat="42.399162" lon="-5.169506">
        <ele>993.795926971361</ele>
        <time>2022-05-20T08:10:07Z</time>
      </trkpt>
      <trkpt lat="42.399206" lon="-5.169621">
        <ele>992.0712225334719</ele>
        <time>2022-05-20T08:10:15Z</time>
      </trkpt>
      <trkpt lat="42.399265" lon="-5.169733">
        <ele>991.379426962696</ele>
        <time>2022-05-20T08:10:22Z</time>
      </trkpt>
      <trkpt lat="42.399309" lon="-5.169845">
        <ele>990.9444265551865</ele>
        <time>2022-05-20T08:10:29Z</time>
      </trkpt>
      <trkpt lat="42.39936" lon="-5.169961">
        <ele>990.6547150108963</ele>
        <time>2022-05-20T08:10:36Z</time>
      </trkpt>
      <trkpt lat="42.399413" lon="-5.170066">
        <ele>991.4857876142487</ele>
        <time>2022-05-20T08:10:42Z</time>
      </trkpt>
      <trkpt lat="42.399463" lon="-5.170192">
        <ele>992.075560268946</ele>
        <time>2022-05-20T08:10:49Z</time>
      </trkpt>
      <trkpt lat="42.39951" lon="-5.170304">
        <ele>991.5315210502595</ele>
        <time>2022-05-20T08:10:56Z</time>
      </trkpt>
      <trkpt lat="42.399545" lon="-5.170417">
        <ele>993.2500253943726</ele>
        <time>2022-05-20T08:11:04Z</time>
      </trkpt>
      <trkpt lat="42.399583" lon="-5.170534">
        <ele>993.9304789798334</ele>
        <time>2022-05-20T08:11:12Z</time>
      </trkpt>
      <trkpt lat="42.399633" lon="-5.170636">
        <ele>994.1510001961142</ele>
        <time>2022-05-20T08:11:18Z</time>
      </trkpt>
      <trkpt lat="42.399682" lon="-5.170744">
        <ele>995.1186741702259</ele>
        <time>2022-05-20T08:11:25Z</time>
      </trkpt>
      <trkpt lat="42.399723" lon="-5.170855">
        <ele>994.9251637086272</ele>
        <time>2022-05-20T08:11:32Z</time>
      </trkpt>
      <trkpt lat="42.399753" lon="-5.170976">
        <ele>995.5202721385285</ele>
        <time>2022-05-20T08:11:40Z</time>
      </trkpt>
      <trkpt lat="42.399799" lon="-5.171087">
        <ele>996.8980074273422</ele>
        <time>2022-05-20T08:11:47Z</time>
      </trkpt>
      <trkpt lat="42.399839" lon="-5.171216">
        <ele>997.930098194629</ele>
        <time>2022-05-20T08:11:55Z</time>
      </trkpt>
      <trkpt lat="42.399882" lon="-5.171325">
        <ele>999.3137824786827</ele>
        <time>2022-05-20T08:12:02Z</time>
      </trkpt>
      <trkpt lat="42.399931" lon="-5.171442">
        <ele>998.9290424007922</ele>
        <time>2022-05-20T08:12:10Z</time>
      </trkpt>
      <trkpt lat="42.39998" lon="-5.171545">
        <ele>999.3077194029465</ele>
        <time>2022-05-20T08:12:17Z</time>
      </trkpt>
      <trkpt lat="42.40001" lon="-5.171671">
        <ele>999.6085087182</ele>
        <time>2022-05-20T08:12:25Z</time>
      </trkpt>
      <trkpt lat="42.400063" lon="-5.171781">
        <ele>1000.2267116233706</ele>
        <time>2022-05-20T08:12:30Z</time>
      </trkpt>
      <trkpt lat="42.400104" lon="-5.1719">
        <ele>1000.338169417344</ele>
        <time>2022-05-20T08:12:36Z</time>
      </trkpt>
      <trkpt lat="42.400166" lon="-5.172008">
        <ele>1001.5911817708984</ele>
        <time>2022-05-20T08:12:42Z</time>
      </trkpt>
      <trkpt lat="42.400222" lon="-5.172125">
        <ele>1000.2914688363671</ele>
        <time>2022-05-20T08:12:49Z</time>
      </trkpt>
      <trkpt lat="42.400262" lon="-5.172237">
        <ele>999.8405706090853</ele>
        <time>2022-05-20T08:12:55Z</time>
      </trkpt>
      <trkpt lat="42.40031" lon="-5.172355">
        <ele>998.0560608599335</ele>
        <time>2022-05-20T08:13:02Z</time>
      </trkpt>
      <trkpt lat="42.400353" lon="-5.172463">
        <ele>997.4020016752183</ele>
        <time>2022-05-20T08:13:08Z</time>
      </trkpt>
      <trkpt lat="42.400395" lon="-5.172573">
        <ele>996.8926658602431</ele>
        <time>2022-05-20T08:13:14Z</time>
      </trkpt>
      <trkpt lat="42.400436" lon="-5.172682">
        <ele>995.8364050295204</ele>
        <time>2022-05-20T08:13:22Z</time>
      </trkpt>
      <trkpt lat="42.400479" lon="-5.172798">
        <ele>994.3396285930648</ele>
        <time>2022-05-20T08:13:32Z</time>
      </trkpt>
      <trkpt lat="42.400504" lon="-5.17292">
        <ele>992.7600887008011</ele>
        <time>2022-05-20T08:13:40Z</time>
      </trkpt>
      <trkpt lat="42.400535" lon="-5.173037">
        <ele>991.1099272714928</ele>
        <time>2022-05-20T08:13:46Z</time>
      </trkpt>
      <trkpt lat="42.400573" lon="-5.173152">
        <ele>987.6418693680316</ele>
        <time>2022-05-20T08:13:53Z</time>
      </trkpt>
      <trkpt lat="42.400606" lon="-5.173272">
        <ele>984.5706387255341</ele>
        <time>2022-05-20T08:14:00Z</time>
      </trkpt>
      <trkpt lat="42.400656" lon="-5.173374">
        <ele>982.7444833396003</ele>
        <time>2022-05-20T08:14:07Z</time>
      </trkpt>
      <trkpt lat="42.400702" lon="-5.173487">
        <ele>981.3113873088732</ele>
        <time>2022-05-20T08:14:14Z</time>
      </trkpt>
      <trkpt lat="42.400751" lon="-5.173618">
        <ele>979.2590593863279</ele>
        <time>2022-05-20T08:14:21Z</time>
      </trkpt>
      <trkpt lat="42.400793" lon="-5.173736">
        <ele>977.2148323180154</ele>
        <time>2022-05-20T08:14:29Z</time>
      </trkpt>
      <trkpt lat="42.400833" lon="-5.173849">
        <ele>976.1337130935863</ele>
        <time>2022-05-20T08:14:36Z</time>
      </trkpt>
      <trkpt lat="42.400887" lon="-5.173973">
        <ele>973.2189462268725</ele>
        <time>2022-05-20T08:14:45Z</time>
      </trkpt>
      <trkpt lat="42.400921" lon="-5.174115">
        <ele>971.9080284442753</ele>
        <time>2022-05-20T08:14:54Z</time>
      </trkpt>
      <trkpt lat="42.400972" lon="-5.174221">
        <ele>970.5098873488605</ele>
        <time>2022-05-20T08:15:01Z</time>
      </trkpt>
      <trkpt lat="42.401008" lon="-5.174346">
        <ele>966.0704490495846</ele>
        <time>2022-05-20T08:15:09Z</time>
      </trkpt>
      <trkpt lat="42.401037" lon="-5.174466">
        <ele>955.756360443309</ele>
        <time>2022-05-20T08:15:25Z</time>
      </trkpt>
      <trkpt lat="42.401081" lon="-5.174589">
        <ele>950.5038058729842</ele>
        <time>2022-05-20T08:15:34Z</time>
      </trkpt>
      <trkpt lat="42.40111" lon="-5.174705">
        <ele>948.8410802353173</ele>
        <time>2022-05-20T08:15:41Z</time>
      </trkpt>
      <trkpt lat="42.401155" lon="-5.174815">
        <ele>947.303269578144</ele>
        <time>2022-05-20T08:15:49Z</time>
      </trkpt>
      <trkpt lat="42.401195" lon="-5.174935">
        <ele>944.3108632462099</ele>
        <time>2022-05-20T08:15:57Z</time>
      </trkpt>
      <trkpt lat="42.401236" lon="-5.17505">
        <ele>941.2023504441604</ele>
        <time>2022-05-20T08:16:05Z</time>
      </trkpt>
      <trkpt lat="42.401278" lon="-5.17518">
        <ele>937.9715446997434</ele>
        <time>2022-05-20T08:16:14Z</time>
      </trkpt>
      <trkpt lat="42.401327" lon="-5.175309">
        <ele>932.9367743348703</ele>
        <time>2022-05-20T08:16:24Z</time>
      </trkpt>
      <trkpt lat="42.401371" lon="-5.175439">
        <ele>929.7054760698229</ele>
        <time>2022-05-20T08:16:34Z</time>
      </trkpt>
      <trkpt lat="42.401417" lon="-5.175551">
        <ele>928.9799906089902</ele>
        <time>2022-05-20T08:16:42Z</time>
      </trkpt>
      <trkpt lat="42.401451" lon="-5.175664">
        <ele>929.0566821582615</ele>
        <time>2022-05-20T08:16:50Z</time>
      </trkpt>
      <trkpt lat="42.401494" lon="-5.175794">
        <ele>929.8366632387042</ele>
        <time>2022-05-20T08:16:59Z</time>
      </trkpt>
      <trkpt lat="42.401541" lon="-5.175902">
        <ele>930.3076944835484</ele>
        <time>2022-05-20T08:17:07Z</time>
      </trkpt>
      <trkpt lat="42.401591" lon="-5.176019">
        <ele>930.3709091441706</ele>
        <time>2022-05-20T08:17:15Z</time>
      </trkpt>
      <trkpt lat="42.40164" lon="-5.176139">
        <ele>927.9199042618275</ele>
        <time>2022-05-20T08:17:24Z</time>
      </trkpt>
      <trkpt lat="42.40169" lon="-5.176245">
        <ele>927.0689788693562</ele>
        <time>2022-05-20T08:17:32Z</time>
      </trkpt>
      <trkpt lat="42.401734" lon="-5.17636">
        <ele>924.899941733107</ele>
        <time>2022-05-20T08:17:41Z</time>
      </trkpt>
      <trkpt lat="42.401765" lon="-5.176475">
        <ele>923.5445325858891</ele>
        <time>2022-05-20T08:17:49Z</time>
      </trkpt>
      <trkpt lat="42.401781" lon="-5.176599">
        <ele>922.0366182466969</ele>
        <time>2022-05-20T08:17:58Z</time>
      </trkpt>
      <trkpt lat="42.401833" lon="-5.176701">
        <ele>923.4508279925212</ele>
        <time>2022-05-20T08:18:07Z</time>
      </trkpt>
      <trkpt lat="42.401892" lon="-5.176799">
        <ele>923.3866069111973</ele>
        <time>2022-05-20T08:18:15Z</time>
      </trkpt>
      <trkpt lat="42.401946" lon="-5.17692">
        <ele>923.6420842697844</ele>
        <time>2022-05-20T08:18:23Z</time>
      </trkpt>
      <trkpt lat="42.401988" lon="-5.177039">
        <ele>922.9169479329139</ele>
        <time>2022-05-20T08:18:30Z</time>
      </trkpt>
      <trkpt lat="42.402034" lon="-5.177158">
        <ele>924.7400896977633</ele>
        <time>2022-05-20T08:18:40Z</time>
      </trkpt>
      <trkpt lat="42.402082" lon="-5.177262">
        <ele>925.1753660291433</ele>
        <time>2022-05-20T08:18:50Z</time>
      </trkpt>
      <trkpt lat="42.402124" lon="-5.177376">
        <ele>925.9278037762269</ele>
        <time>2022-05-20T08:18:59Z</time>
      </trkpt>
      <trkpt lat="42.402169" lon="-5.177485">
        <ele>927.0105612771586</ele>
        <time>2022-05-20T08:19:07Z</time>
      </trkpt>
      <trkpt lat="42.402209" lon="-5.177609">
        <ele>925.7892830520868</ele>
        <time>2022-05-20T08:19:16Z</time>
      </trkpt>
      <trkpt lat="42.402248" lon="-5.17773">
        <ele>925.7665480142459</ele>
        <time>2022-05-20T08:19:25Z</time>
      </trkpt>
      <trkpt lat="42.4023" lon="-5.177843">
        <ele>925.2100354628637</ele>
        <time>2022-05-20T08:19:34Z</time>
      </trkpt>
      <trkpt lat="42.402351" lon="-5.177945">
        <ele>925.2966346023604</ele>
        <time>2022-05-20T08:19:42Z</time>
      </trkpt>
      <trkpt lat="42.402398" lon="-5.178061">
        <ele>925.5967167234048</ele>
        <time>2022-05-20T08:19:52Z</time>
      </trkpt>
      <trkpt lat="42.402441" lon="-5.178178">
        <ele>925.3441297132522</ele>
        <time>2022-05-20T08:20:00Z</time>
      </trkpt>
      <trkpt lat="42.402497" lon="-5.178277">
        <ele>924.9932963438332</ele>
        <time>2022-05-20T08:20:08Z</time>
      </trkpt>
      <trkpt lat="42.402542" lon="-5.178387">
        <ele>924.0762999420986</ele>
        <time>2022-05-20T08:20:17Z</time>
      </trkpt>
      <trkpt lat="42.402581" lon="-5.178503">
        <ele>924.0238377656788</ele>
        <time>2022-05-20T08:20:24Z</time>
      </trkpt>
      <trkpt lat="42.402632" lon="-5.178607">
        <ele>925.6183062978089</ele>
        <time>2022-05-20T08:20:32Z</time>
      </trkpt>
      <trkpt lat="42.402667" lon="-5.178727">
        <ele>925.7460706541315</ele>
        <time>2022-05-20T08:20:42Z</time>
      </trkpt>
      <trkpt lat="42.402709" lon="-5.178845">
        <ele>925.1744245979935</ele>
        <time>2022-05-20T08:20:52Z</time>
      </trkpt>
      <trkpt lat="42.40276" lon="-5.178957">
        <ele>924.9128163736314</ele>
        <time>2022-05-20T08:21:02Z</time>
      </trkpt>
      <trkpt lat="42.402801" lon="-5.17907">
        <ele>921.0790264392272</ele>
        <time>2022-05-20T08:21:13Z</time>
      </trkpt>
      <trkpt lat="42.402837" lon="-5.179181">
        <ele>919.5912920814008</ele>
        <time>2022-05-20T08:21:22Z</time>
      </trkpt>
      <trkpt lat="42.402879" lon="-5.17929">
        <ele>919.1162172080949</ele>
        <time>2022-05-20T08:21:31Z</time>
      </trkpt>
      <trkpt lat="42.402913" lon="-5.179407">
        <ele>917.844384050928</ele>
        <time>2022-05-20T08:21:40Z</time>
      </trkpt>
      <trkpt lat="42.40295" lon="-5.179521">
        <ele>915.8256859444082</ele>
        <time>2022-05-20T08:21:49Z</time>
      </trkpt>
      <trkpt lat="42.402979" lon="-5.179644">
        <ele>915.9226933652535</ele>
        <time>2022-05-20T08:21:58Z</time>
      </trkpt>
      <trkpt lat="42.403021" lon="-5.179763">
        <ele>914.1720859361812</ele>
        <time>2022-05-20T08:22:06Z</time>
      </trkpt>
      <trkpt lat="42.403057" lon="-5.179875">
        <ele>913.2258403133601</ele>
        <time>2022-05-20T08:22:15Z</time>
      </trkpt>
      <trkpt lat="42.4031" lon="-5.17999">
        <ele>912.9062872109935</ele>
        <time>2022-05-20T08:22:23Z</time>
      </trkpt>
      <trkpt lat="42.403145" lon="-5.180105">
        <ele>911.0928489370272</ele>
        <time>2022-05-20T08:22:33Z</time>
      </trkpt>
      <trkpt lat="42.403188" lon="-5.180212">
        <ele>909.9993632249534</ele>
        <time>2022-05-20T08:22:42Z</time>
      </trkpt>
      <trkpt lat="42.403249" lon="-5.180324">
        <ele>910.5780439265072</ele>
        <time>2022-05-20T08:22:51Z</time>
      </trkpt>
      <trkpt lat="42.403296" lon="-5.180433">
        <ele>912.0715516321361</ele>
        <time>2022-05-20T08:22:58Z</time>
      </trkpt>
      <trkpt lat="42.403347" lon="-5.180552">
        <ele>914.1036391993985</ele>
        <time>2022-05-20T08:23:05Z</time>
      </trkpt>
      <trkpt lat="42.403393" lon="-5.180675">
        <ele>915.1788306869566</ele>
        <time>2022-05-20T08:23:13Z</time>
      </trkpt>
      <trkpt lat="42.403435" lon="-5.180783">
        <ele>916.8826264226809</ele>
        <time>2022-05-20T08:23:20Z</time>
      </trkpt>
      <trkpt lat="42.403486" lon="-5.180891">
        <ele>920.7807596502826</ele>
        <time>2022-05-20T08:23:28Z</time>
      </trkpt>
      <trkpt lat="42.403535" lon="-5.180996">
        <ele>923.6616287184879</ele>
        <time>2022-05-20T08:23:36Z</time>
      </trkpt>
      <trkpt lat="42.403583" lon="-5.181118">
        <ele>925.021441754885</ele>
        <time>2022-05-20T08:23:43Z</time>
      </trkpt>
      <trkpt lat="42.40364" lon="-5.18122">
        <ele>926.8211197797209</ele>
        <time>2022-05-20T08:23:52Z</time>
      </trkpt>
      <trkpt lat="42.40369" lon="-5.181323">
        <ele>928.5293730162084</ele>
        <time>2022-05-20T08:23:58Z</time>
      </trkpt>
      <trkpt lat="42.403731" lon="-5.18144">
        <ele>931.5274465419352</ele>
        <time>2022-05-20T08:24:07Z</time>
      </trkpt>
      <trkpt lat="42.403795" lon="-5.181548">
        <ele>932.227526881732</ele>
        <time>2022-05-20T08:24:13Z</time>
      </trkpt>
      <trkpt lat="42.403852" lon="-5.181643">
        <ele>933.1340481340885</ele>
        <time>2022-05-20T08:24:21Z</time>
      </trkpt>
      <trkpt lat="42.403905" lon="-5.181767">
        <ele>933.5319154858589</ele>
        <time>2022-05-20T08:24:30Z</time>
      </trkpt>
      <trkpt lat="42.403947" lon="-5.181877">
        <ele>934.9133303072304</ele>
        <time>2022-05-20T08:24:38Z</time>
      </trkpt>
      <trkpt lat="42.403998" lon="-5.18199">
        <ele>935.0569463288411</ele>
        <time>2022-05-20T08:24:46Z</time>
      </trkpt>
      <trkpt lat="42.404049" lon="-5.182097">
        <ele>936.4685269165784</ele>
        <time>2022-05-20T08:24:53Z</time>
      </trkpt>
      <trkpt lat="42.404094" lon="-5.182213">
        <ele>937.3106712270528</ele>
        <time>2022-05-20T08:25:00Z</time>
      </trkpt>
      <trkpt lat="42.404128" lon="-5.182342">
        <ele>936.9393576914445</ele>
        <time>2022-05-20T08:25:08Z</time>
      </trkpt>
      <trkpt lat="42.404167" lon="-5.182452">
        <ele>936.2739346688613</ele>
        <time>2022-05-20T08:25:15Z</time>
      </trkpt>
      <trkpt lat="42.404215" lon="-5.182565">
        <ele>936.2090229690075</ele>
        <time>2022-05-20T08:25:23Z</time>
      </trkpt>
      <trkpt lat="42.404269" lon="-5.182683">
        <ele>935.5013531688601</ele>
        <time>2022-05-20T08:25:33Z</time>
      </trkpt>
      <trkpt lat="42.404308" lon="-5.18281">
        <ele>936.8641867022961</ele>
        <time>2022-05-20T08:25:42Z</time>
      </trkpt>
      <trkpt lat="42.404347" lon="-5.18294">
        <ele>937.5718200746924</ele>
        <time>2022-05-20T08:25:50Z</time>
      </trkpt>
      <trkpt lat="42.404412" lon="-5.183031">
        <ele>937.2631413368508</ele>
        <time>2022-05-20T08:25:58Z</time>
      </trkpt>
      <trkpt lat="42.404464" lon="-5.18314">
        <ele>936.5603423323482</ele>
        <time>2022-05-20T08:26:05Z</time>
      </trkpt>
      <trkpt lat="42.40451" lon="-5.183253">
        <ele>937.5442977966741</ele>
        <time>2022-05-20T08:26:12Z</time>
      </trkpt>
      <trkpt lat="42.40456" lon="-5.183368">
        <ele>937.6777229495347</ele>
        <time>2022-05-20T08:26:20Z</time>
      </trkpt>
      <trkpt lat="42.404613" lon="-5.183491">
        <ele>938.1898147687316</ele>
        <time>2022-05-20T08:26:27Z</time>
      </trkpt>
      <trkpt lat="42.404657" lon="-5.183599">
        <ele>938.269898340106</ele>
        <time>2022-05-20T08:26:35Z</time>
      </trkpt>
      <trkpt lat="42.40471" lon="-5.183717">
        <ele>938.8808192843571</ele>
        <time>2022-05-20T08:26:43Z</time>
      </trkpt>
      <trkpt lat="42.404754" lon="-5.18383">
        <ele>938.839609333314</ele>
        <time>2022-05-20T08:26:51Z</time>
      </trkpt>
      <trkpt lat="42.4048" lon="-5.183944">
        <ele>938.7801976446062</ele>
        <time>2022-05-20T08:27:00Z</time>
      </trkpt>
      <trkpt lat="42.404842" lon="-5.184059">
        <ele>938.3844787646085</ele>
        <time>2022-05-20T08:27:08Z</time>
      </trkpt>
      <trkpt lat="42.404892" lon="-5.184169">
        <ele>938.3017514795065</ele>
        <time>2022-05-20T08:27:17Z</time>
      </trkpt>
      <trkpt lat="42.40494" lon="-5.184288">
        <ele>938.8610413782299</ele>
        <time>2022-05-20T08:27:25Z</time>
      </trkpt>
      <trkpt lat="42.404992" lon="-5.184401">
        <ele>938.9628624990582</ele>
        <time>2022-05-20T08:27:32Z</time>
      </trkpt>
      <trkpt lat="42.405052" lon="-5.184515">
        <ele>938.8391320295632</ele>
        <time>2022-05-20T08:27:40Z</time>
      </trkpt>
      <trkpt lat="42.405098" lon="-5.184627">
        <ele>938.3005877109244</ele>
        <time>2022-05-20T08:27:47Z</time>
      </trkpt>
      <trkpt lat="42.405159" lon="-5.184731">
        <ele>937.4385639717802</ele>
        <time>2022-05-20T08:27:55Z</time>
      </trkpt>
      <trkpt lat="42.405208" lon="-5.184839">
        <ele>936.9402071963996</ele>
        <time>2022-05-20T08:28:02Z</time>
      </trkpt>
      <trkpt lat="42.405263" lon="-5.18494">
        <ele>937.7720065666363</ele>
        <time>2022-05-20T08:28:10Z</time>
      </trkpt>
      <trkpt lat="42.405306" lon="-5.185048">
        <ele>938.5871459292248</ele>
        <time>2022-05-20T08:28:18Z</time>
      </trkpt>
      <trkpt lat="42.405361" lon="-5.185156">
        <ele>938.8963775550947</ele>
        <time>2022-05-20T08:28:25Z</time>
      </trkpt>
      <trkpt lat="42.405424" lon="-5.185258">
        <ele>941.5995965544134</ele>
        <time>2022-05-20T08:28:33Z</time>
      </trkpt>
      <trkpt lat="42.405472" lon="-5.185376">
        <ele>940.9251207020134</ele>
        <time>2022-05-20T08:28:42Z</time>
      </trkpt>
      <trkpt lat="42.40553" lon="-5.185477">
        <ele>940.5039500081912</ele>
        <time>2022-05-20T08:28:49Z</time>
      </trkpt>
      <trkpt lat="42.40557" lon="-5.185592">
        <ele>939.9309591436759</ele>
        <time>2022-05-20T08:28:57Z</time>
      </trkpt>
      <trkpt lat="42.405614" lon="-5.185703">
        <ele>938.8031405806541</ele>
        <time>2022-05-20T08:29:05Z</time>
      </trkpt>
      <trkpt lat="42.405667" lon="-5.185821">
        <ele>938.7963768700138</ele>
        <time>2022-05-20T08:29:14Z</time>
      </trkpt>
      <trkpt lat="42.405715" lon="-5.185923">
        <ele>938.2698886282742</ele>
        <time>2022-05-20T08:29:21Z</time>
      </trkpt>
      <trkpt lat="42.405755" lon="-5.186034">
        <ele>937.5368944695219</ele>
        <time>2022-05-20T08:29:29Z</time>
      </trkpt>
      <trkpt lat="42.405805" lon="-5.186139">
        <ele>936.535153336823</ele>
        <time>2022-05-20T08:29:37Z</time>
      </trkpt>
      <trkpt lat="42.405866" lon="-5.186251">
        <ele>936.0349401440471</ele>
        <time>2022-05-20T08:29:46Z</time>
      </trkpt>
      <trkpt lat="42.405917" lon="-5.186356">
        <ele>937.71168386098</ele>
        <time>2022-05-20T08:29:54Z</time>
      </trkpt>
      <trkpt lat="42.405969" lon="-5.18646">
        <ele>937.764816169627</ele>
        <time>2022-05-20T08:30:01Z</time>
      </trkpt>
      <trkpt lat="42.406017" lon="-5.186589">
        <ele>936.3732643080875</ele>
        <time>2022-05-20T08:30:08Z</time>
      </trkpt>
      <trkpt lat="42.406066" lon="-5.1867">
        <ele>936.7593405358493</ele>
        <time>2022-05-20T08:30:15Z</time>
      </trkpt>
      <trkpt lat="42.406124" lon="-5.186807">
        <ele>936.6599788358435</ele>
        <time>2022-05-20T08:30:24Z</time>
      </trkpt>
      <trkpt lat="42.406168" lon="-5.186925">
        <ele>937.2311373958364</ele>
        <time>2022-05-20T08:30:31Z</time>
      </trkpt>
      <trkpt lat="42.406217" lon="-5.187034">
        <ele>938.1018754411489</ele>
        <time>2022-05-20T08:30:38Z</time>
      </trkpt>
      <trkpt lat="42.40626" lon="-5.187149">
        <ele>936.3135586809367</ele>
        <time>2022-05-20T08:30:46Z</time>
      </trkpt>
      <trkpt lat="42.406315" lon="-5.187249">
        <ele>936.7190042501315</ele>
        <time>2022-05-20T08:30:53Z</time>
      </trkpt>
      <trkpt lat="42.406372" lon="-5.187362">
        <ele>936.4301904449239</ele>
        <time>2022-05-20T08:31:00Z</time>
      </trkpt>
      <trkpt lat="42.406415" lon="-5.187473">
        <ele>937.4609431633726</ele>
        <time>2022-05-20T08:31:06Z</time>
      </trkpt>
      <trkpt lat="42.406485" lon="-5.187572">
        <ele>937.8329291241243</ele>
        <time>2022-05-20T08:31:15Z</time>
      </trkpt>
      <trkpt lat="42.406544" lon="-5.187679">
        <ele>938.1215819558129</ele>
        <time>2022-05-20T08:31:23Z</time>
      </trkpt>
      <trkpt lat="42.406605" lon="-5.187779">
        <ele>938.3153478410095</ele>
        <time>2022-05-20T08:31:30Z</time>
      </trkpt>
      <trkpt lat="42.406659" lon="-5.187907">
        <ele>940.09087825194</ele>
        <time>2022-05-20T08:31:38Z</time>
      </trkpt>
      <trkpt lat="42.406707" lon="-5.188016">
        <ele>939.5363429216668</ele>
        <time>2022-05-20T08:31:45Z</time>
      </trkpt>
      <trkpt lat="42.406758" lon="-5.188136">
        <ele>939.8877518801019</ele>
        <time>2022-05-20T08:31:53Z</time>
      </trkpt>
      <trkpt lat="42.406816" lon="-5.188252">
        <ele>939.6058586416766</ele>
        <time>2022-05-20T08:32:01Z</time>
      </trkpt>
      <trkpt lat="42.406878" lon="-5.188358">
        <ele>939.4851713553071</ele>
        <time>2022-05-20T08:32:08Z</time>
      </trkpt>
      <trkpt lat="42.406924" lon="-5.188469">
        <ele>940.2209979696199</ele>
        <time>2022-05-20T08:32:15Z</time>
      </trkpt>
      <trkpt lat="42.406982" lon="-5.188564">
        <ele>941.1816319264472</ele>
        <time>2022-05-20T08:32:22Z</time>
      </trkpt>
      <trkpt lat="42.40703" lon="-5.188676">
        <ele>941.8065194468945</ele>
        <time>2022-05-20T08:32:30Z</time>
      </trkpt>
      <trkpt lat="42.407077" lon="-5.188781">
        <ele>941.3276251750067</ele>
        <time>2022-05-20T08:32:37Z</time>
      </trkpt>
      <trkpt lat="42.407132" lon="-5.188896">
        <ele>942.5718304282054</ele>
        <time>2022-05-20T08:32:44Z</time>
      </trkpt>
      <trkpt lat="42.407177" lon="-5.189011">
        <ele>942.3386565381661</ele>
        <time>2022-05-20T08:32:52Z</time>
      </trkpt>
      <trkpt lat="42.407237" lon="-5.189116">
        <ele>942.150408655405</ele>
        <time>2022-05-20T08:33:00Z</time>
      </trkpt>
      <trkpt lat="42.407291" lon="-5.189222">
        <ele>942.0562987448648</ele>
        <time>2022-05-20T08:33:09Z</time>
      </trkpt>
      <trkpt lat="42.407355" lon="-5.189329">
        <ele>943.4256921391934</ele>
        <time>2022-05-20T08:33:16Z</time>
      </trkpt>
      <trkpt lat="42.4074" lon="-5.189435">
        <ele>943.9858216755092</ele>
        <time>2022-05-20T08:33:23Z</time>
      </trkpt>
      <trkpt lat="42.407448" lon="-5.189543">
        <ele>943.1677691508085</ele>
        <time>2022-05-20T08:33:30Z</time>
      </trkpt>
      <trkpt lat="42.407502" lon="-5.189656">
        <ele>942.9601444862783</ele>
        <time>2022-05-20T08:33:37Z</time>
      </trkpt>
      <trkpt lat="42.407552" lon="-5.189759">
        <ele>943.3168689534068</ele>
        <time>2022-05-20T08:33:44Z</time>
      </trkpt>
      <trkpt lat="42.407594" lon="-5.189883">
        <ele>941.5557776810601</ele>
        <time>2022-05-20T08:33:55Z</time>
      </trkpt>
      <trkpt lat="42.407639" lon="-5.189991">
        <ele>941.2365857809782</ele>
        <time>2022-05-20T08:34:02Z</time>
      </trkpt>
      <trkpt lat="42.407693" lon="-5.190097">
        <ele>942.0209185658023</ele>
        <time>2022-05-20T08:34:11Z</time>
      </trkpt>
      <trkpt lat="42.407752" lon="-5.1902">
        <ele>942.6953307399526</ele>
        <time>2022-05-20T08:34:20Z</time>
      </trkpt>
      <trkpt lat="42.407812" lon="-5.1903">
        <ele>944.5585094606504</ele>
        <time>2022-05-20T08:34:28Z</time>
      </trkpt>
      <trkpt lat="42.40787" lon="-5.190404">
        <ele>945.4212585743517</ele>
        <time>2022-05-20T08:34:36Z</time>
      </trkpt>
      <trkpt lat="42.407922" lon="-5.190515">
        <ele>944.8483874350786</ele>
        <time>2022-05-20T08:34:46Z</time>
      </trkpt>
      <trkpt lat="42.407962" lon="-5.190627">
        <ele>944.912542889826</ele>
        <time>2022-05-20T08:34:55Z</time>
      </trkpt>
      <trkpt lat="42.408025" lon="-5.190736">
        <ele>946.2345537655056</ele>
        <time>2022-05-20T08:35:03Z</time>
      </trkpt>
      <trkpt lat="42.408086" lon="-5.190845">
        <ele>946.8969466537237</ele>
        <time>2022-05-20T08:35:11Z</time>
      </trkpt>
      <trkpt lat="42.408133" lon="-5.190969">
        <ele>947.2613587426022</ele>
        <time>2022-05-20T08:35:19Z</time>
      </trkpt>
      <trkpt lat="42.408187" lon="-5.191081">
        <ele>947.5373993590474</ele>
        <time>2022-05-20T08:35:28Z</time>
      </trkpt>
      <trkpt lat="42.408236" lon="-5.191201">
        <ele>947.9683694783598</ele>
        <time>2022-05-20T08:35:36Z</time>
      </trkpt>
      <trkpt lat="42.408286" lon="-5.191321">
        <ele>947.6524503603578</ele>
        <time>2022-05-20T08:35:44Z</time>
      </trkpt>
      <trkpt lat="42.408332" lon="-5.191432">
        <ele>946.8090677075088</ele>
        <time>2022-05-20T08:35:51Z</time>
      </trkpt>
      <trkpt lat="42.408386" lon="-5.191544">
        <ele>946.6608662446961</ele>
        <time>2022-05-20T08:35:58Z</time>
      </trkpt>
      <trkpt lat="42.40844" lon="-5.191651">
        <ele>947.0476494943723</ele>
        <time>2022-05-20T08:36:06Z</time>
      </trkpt>
      <trkpt lat="42.408498" lon="-5.191752">
        <ele>946.9632638376206</ele>
        <time>2022-05-20T08:36:13Z</time>
      </trkpt>
      <trkpt lat="42.408548" lon="-5.191861">
        <ele>948.5995103102177</ele>
        <time>2022-05-20T08:36:19Z</time>
      </trkpt>
      <trkpt lat="42.408599" lon="-5.191967">
        <ele>949.3162066359073</ele>
        <time>2022-05-20T08:36:28Z</time>
      </trkpt>
      <trkpt lat="42.408645" lon="-5.19208">
        <ele>948.4516672156751</ele>
        <time>2022-05-20T08:36:37Z</time>
      </trkpt>
      <trkpt lat="42.408695" lon="-5.192187">
        <ele>948.489114716649</ele>
        <time>2022-05-20T08:36:44Z</time>
      </trkpt>
      <trkpt lat="42.40874" lon="-5.192303">
        <ele>947.6798063255847</ele>
        <time>2022-05-20T08:36:52Z</time>
      </trkpt>
      <trkpt lat="42.408793" lon="-5.192409">
        <ele>948.1390403350815</ele>
        <time>2022-05-20T08:36:59Z</time>
      </trkpt>
      <trkpt lat="42.408856" lon="-5.192521">
        <ele>949.6125470222905</ele>
        <time>2022-05-20T08:37:07Z</time>
      </trkpt>
      <trkpt lat="42.408916" lon="-5.192628">
        <ele>947.8709858702496</ele>
        <time>2022-05-20T08:37:12Z</time>
      </trkpt>
      <trkpt lat="42.408963" lon="-5.192732">
        <ele>947.5827581491321</ele>
        <time>2022-05-20T08:37:18Z</time>
      </trkpt>
      <trkpt lat="42.409018" lon="-5.192858">
        <ele>948.3729567937553</ele>
        <time>2022-05-20T08:37:26Z</time>
      </trkpt>
      <trkpt lat="42.409072" lon="-5.192987">
        <ele>948.449594443664</ele>
        <time>2022-05-20T08:37:36Z</time>
      </trkpt>
      <trkpt lat="42.409135" lon="-5.193108">
        <ele>947.9351057456806</ele>
        <time>2022-05-20T08:37:46Z</time>
      </trkpt>
      <trkpt lat="42.40919" lon="-5.193215">
        <ele>948.2210718300194</ele>
        <time>2022-05-20T08:37:54Z</time>
      </trkpt>
      <trkpt lat="42.409237" lon="-5.193329">
        <ele>947.401444459334</ele>
        <time>2022-05-20T08:38:02Z</time>
      </trkpt>
      <trkpt lat="42.40929" lon="-5.19345">
        <ele>948.3377764811739</ele>
        <time>2022-05-20T08:38:11Z</time>
      </trkpt>
      <trkpt lat="42.409339" lon="-5.193574">
        <ele>946.7284964639693</ele>
        <time>2022-05-20T08:38:21Z</time>
      </trkpt>
      <trkpt lat="42.409395" lon="-5.19369">
        <ele>947.924797016196</ele>
        <time>2022-05-20T08:38:29Z</time>
      </trkpt>
      <trkpt lat="42.409447" lon="-5.193793">
        <ele>947.6760267941281</ele>
        <time>2022-05-20T08:38:37Z</time>
      </trkpt>
      <trkpt lat="42.40949" lon="-5.193901">
        <ele>947.3521621385589</ele>
        <time>2022-05-20T08:38:44Z</time>
      </trkpt>
      <trkpt lat="42.409532" lon="-5.194012">
        <ele>947.5285188378766</ele>
        <time>2022-05-20T08:38:52Z</time>
      </trkpt>
      <trkpt lat="42.409588" lon="-5.194126">
        <ele>947.4071649266407</ele>
        <time>2022-05-20T08:39:01Z</time>
      </trkpt>
      <trkpt lat="42.409638" lon="-5.194231">
        <ele>947.9601665670052</ele>
        <time>2022-05-20T08:39:08Z</time>
      </trkpt>
      <trkpt lat="42.409686" lon="-5.194335">
        <ele>948.0797861786559</ele>
        <time>2022-05-20T08:39:16Z</time>
      </trkpt>
      <trkpt lat="42.409733" lon="-5.19444">
        <ele>947.559468170628</ele>
        <time>2022-05-20T08:39:24Z</time>
      </trkpt>
      <trkpt lat="42.409784" lon="-5.194545">
        <ele>946.8788917558268</ele>
        <time>2022-05-20T08:39:32Z</time>
      </trkpt>
      <trkpt lat="42.409842" lon="-5.194678">
        <ele>945.5265530953184</ele>
        <time>2022-05-20T08:39:41Z</time>
      </trkpt>
      <trkpt lat="42.409891" lon="-5.194783">
        <ele>945.6187663655728</ele>
        <time>2022-05-20T08:39:48Z</time>
      </trkpt>
      <trkpt lat="42.409935" lon="-5.194896">
        <ele>944.090664902702</ele>
        <time>2022-05-20T08:39:56Z</time>
      </trkpt>
      <trkpt lat="42.409987" lon="-5.19501">
        <ele>943.234819535166</ele>
        <time>2022-05-20T08:40:06Z</time>
      </trkpt>
      <trkpt lat="42.410039" lon="-5.195128">
        <ele>943.2212712755427</ele>
        <time>2022-05-20T08:40:15Z</time>
      </trkpt>
      <trkpt lat="42.410075" lon="-5.195252">
        <ele>941.719474280253</ele>
        <time>2022-05-20T08:40:23Z</time>
      </trkpt>
      <trkpt lat="42.410129" lon="-5.195355">
        <ele>940.7899012090638</ele>
        <time>2022-05-20T08:40:31Z</time>
      </trkpt>
      <trkpt lat="42.410168" lon="-5.195472">
        <ele>939.1131892986596</ele>
        <time>2022-05-20T08:40:40Z</time>
      </trkpt>
      <trkpt lat="42.410227" lon="-5.195573">
        <ele>939.7436161544174</ele>
        <time>2022-05-20T08:40:48Z</time>
      </trkpt>
      <trkpt lat="42.410279" lon="-5.195685">
        <ele>938.6331169437617</ele>
        <time>2022-05-20T08:40:57Z</time>
      </trkpt>
      <trkpt lat="42.410328" lon="-5.195795">
        <ele>938.205671149306</ele>
        <time>2022-05-20T08:41:04Z</time>
      </trkpt>
      <trkpt lat="42.410375" lon="-5.195903">
        <ele>936.0836394736543</ele>
        <time>2022-05-20T08:41:13Z</time>
      </trkpt>
      <trkpt lat="42.410415" lon="-5.196024">
        <ele>934.8090906981379</ele>
        <time>2022-05-20T08:41:22Z</time>
      </trkpt>
      <trkpt lat="42.410467" lon="-5.196143">
        <ele>933.5782302711159</ele>
        <time>2022-05-20T08:41:30Z</time>
      </trkpt>
      <trkpt lat="42.410525" lon="-5.196242">
        <ele>933.4110764218494</ele>
        <time>2022-05-20T08:41:39Z</time>
      </trkpt>
      <trkpt lat="42.410577" lon="-5.196349">
        <ele>933.0517304409295</ele>
        <time>2022-05-20T08:41:48Z</time>
      </trkpt>
      <trkpt lat="42.410622" lon="-5.196463">
        <ele>933.2577563934028</ele>
        <time>2022-05-20T08:41:56Z</time>
      </trkpt>
      <trkpt lat="42.410671" lon="-5.196577">
        <ele>932.7692380128428</ele>
        <time>2022-05-20T08:42:05Z</time>
      </trkpt>
      <trkpt lat="42.410718" lon="-5.196688">
        <ele>933.0310891345143</ele>
        <time>2022-05-20T08:42:13Z</time>
      </trkpt>
      <trkpt lat="42.410766" lon="-5.196809">
        <ele>932.9412964005023</ele>
        <time>2022-05-20T08:42:22Z</time>
      </trkpt>
      <trkpt lat="42.41083" lon="-5.1969">
        <ele>934.1307941265404</ele>
        <time>2022-05-20T08:42:30Z</time>
      </trkpt>
      <trkpt lat="42.410883" lon="-5.197012">
        <ele>933.6328133447096</ele>
        <time>2022-05-20T08:42:39Z</time>
      </trkpt>
      <trkpt lat="42.410928" lon="-5.197117">
        <ele>935.5444640293717</ele>
        <time>2022-05-20T08:42:47Z</time>
      </trkpt>
      <trkpt lat="42.410988" lon="-5.197218">
        <ele>937.0457647303119</ele>
        <time>2022-05-20T08:42:56Z</time>
      </trkpt>
      <trkpt lat="42.411054" lon="-5.197308">
        <ele>937.9997387966141</ele>
        <time>2022-05-20T08:43:04Z</time>
      </trkpt>
      <trkpt lat="42.411102" lon="-5.197413">
        <ele>938.0817255424336</ele>
        <time>2022-05-20T08:43:12Z</time>
      </trkpt>
      <trkpt lat="42.411148" lon="-5.197521">
        <ele>937.5754210408777</ele>
        <time>2022-05-20T08:43:21Z</time>
      </trkpt>
      <trkpt lat="42.411188" lon="-5.197639">
        <ele>937.505393368192</ele>
        <time>2022-05-20T08:43:30Z</time>
      </trkpt>
      <trkpt lat="42.411242" lon="-5.197751">
        <ele>938.195620524697</ele>
        <time>2022-05-20T08:43:39Z</time>
      </trkpt>
      <trkpt lat="42.41131" lon="-5.197841">
        <ele>936.8966040452942</ele>
        <time>2022-05-20T08:43:53Z</time>
      </trkpt>
      <trkpt lat="42.411364" lon="-5.197944">
        <ele>938.7219217456877</ele>
        <time>2022-05-20T08:45:32Z</time>
      </trkpt>
      <trkpt lat="42.411425" lon="-5.198044">
        <ele>938.9160837940872</ele>
        <time>2022-05-20T08:45:42Z</time>
      </trkpt>
      <trkpt lat="42.411468" lon="-5.198163">
        <ele>940.7171536963433</ele>
        <time>2022-05-20T08:45:52Z</time>
      </trkpt>
      <trkpt lat="42.411515" lon="-5.19827">
        <ele>940.7509276270866</ele>
        <time>2022-05-20T08:46:00Z</time>
      </trkpt>
      <trkpt lat="42.411582" lon="-5.198367">
        <ele>942.180591234006</ele>
        <time>2022-05-20T08:46:07Z</time>
      </trkpt>
      <trkpt lat="42.411618" lon="-5.198491">
        <ele>942.6546556595713</ele>
        <time>2022-05-20T08:46:17Z</time>
      </trkpt>
      <trkpt lat="42.41167" lon="-5.198592">
        <ele>942.2639875272289</ele>
        <time>2022-05-20T08:46:24Z</time>
      </trkpt>
      <trkpt lat="42.411706" lon="-5.198706">
        <ele>943.4396860264242</ele>
        <time>2022-05-20T08:46:34Z</time>
      </trkpt>
      <trkpt lat="42.411758" lon="-5.198829">
        <ele>944.3973309081048</ele>
        <time>2022-05-20T08:46:42Z</time>
      </trkpt>
      <trkpt lat="42.411806" lon="-5.19895">
        <ele>944.7858092691749</ele>
        <time>2022-05-20T08:46:51Z</time>
      </trkpt>
      <trkpt lat="42.411857" lon="-5.199053">
        <ele>946.4840615754947</ele>
        <time>2022-05-20T08:46:57Z</time>
      </trkpt>
      <trkpt lat="42.411905" lon="-5.199157">
        <ele>946.8844658741727</ele>
        <time>2022-05-20T08:47:06Z</time>
      </trkpt>
      <trkpt lat="42.411945" lon="-5.19928">
        <ele>947.7805199231952</ele>
        <time>2022-05-20T08:47:14Z</time>
      </trkpt>
      <trkpt lat="42.411991" lon="-5.199386">
        <ele>946.6262176344171</ele>
        <time>2022-05-20T08:47:21Z</time>
      </trkpt>
      <trkpt lat="42.412047" lon="-5.199502">
        <ele>945.1158093623817</ele>
        <time>2022-05-20T08:47:27Z</time>
      </trkpt>
      <trkpt lat="42.412094" lon="-5.199624">
        <ele>943.8124638078734</ele>
        <time>2022-05-20T08:47:36Z</time>
      </trkpt>
      <trkpt lat="42.412132" lon="-5.199756">
        <ele>941.9010753920302</ele>
        <time>2022-05-20T08:47:44Z</time>
      </trkpt>
      <trkpt lat="42.412168" lon="-5.19987">
        <ele>941.6749620931223</ele>
        <time>2022-05-20T08:47:51Z</time>
      </trkpt>
      <trkpt lat="42.412218" lon="-5.199994">
        <ele>938.5645602401346</ele>
        <time>2022-05-20T08:47:59Z</time>
      </trkpt>
      <trkpt lat="42.412268" lon="-5.20013">
        <ele>933.9055465199053</ele>
        <time>2022-05-20T08:48:09Z</time>
      </trkpt>
      <trkpt lat="42.412322" lon="-5.20024">
        <ele>932.3197844037786</ele>
        <time>2022-05-20T08:48:17Z</time>
      </trkpt>
      <trkpt lat="42.412354" lon="-5.200365">
        <ele>929.6154531091452</ele>
        <time>2022-05-20T08:48:26Z</time>
      </trkpt>
      <trkpt lat="42.412391" lon="-5.200476">
        <ele>929.5231168922037</ele>
        <time>2022-05-20T08:48:34Z</time>
      </trkpt>
      <trkpt lat="42.412446" lon="-5.200597">
        <ele>929.0452698180452</ele>
        <time>2022-05-20T08:48:41Z</time>
      </trkpt>
      <trkpt lat="42.412493" lon="-5.200709">
        <ele>928.3426459953189</ele>
        <time>2022-05-20T08:48:49Z</time>
      </trkpt>
      <trkpt lat="42.412531" lon="-5.200843">
        <ele>927.6262283837423</ele>
        <time>2022-05-20T08:48:59Z</time>
      </trkpt>
      <trkpt lat="42.412594" lon="-5.200951">
        <ele>929.828840249218</ele>
        <time>2022-05-20T08:49:06Z</time>
      </trkpt>
      <trkpt lat="42.41267" lon="-5.201074">
        <ele>931.5015135677531</ele>
        <time>2022-05-20T08:49:14Z</time>
      </trkpt>
      <trkpt lat="42.412746" lon="-5.201183">
        <ele>933.7676648572087</ele>
        <time>2022-05-20T08:49:24Z</time>
      </trkpt>
      <trkpt lat="42.41278" lon="-5.201315">
        <ele>933.270992025733</ele>
        <time>2022-05-20T08:49:34Z</time>
      </trkpt>
      <trkpt lat="42.412825" lon="-5.201423">
        <ele>933.9082353869453</ele>
        <time>2022-05-20T08:49:41Z</time>
      </trkpt>
      <trkpt lat="42.412877" lon="-5.201534">
        <ele>934.5074970116839</ele>
        <time>2022-05-20T08:49:49Z</time>
      </trkpt>
      <trkpt lat="42.412942" lon="-5.201621">
        <ele>936.5197778427973</ele>
        <time>2022-05-20T08:49:57Z</time>
      </trkpt>
      <trkpt lat="42.413006" lon="-5.201711">
        <ele>937.1673729708418</ele>
        <time>2022-05-20T08:50:04Z</time>
      </trkpt>
      <trkpt lat="42.413068" lon="-5.201808">
        <ele>937.4502074578777</ele>
        <time>2022-05-20T08:50:11Z</time>
      </trkpt>
      <trkpt lat="42.413133" lon="-5.201916">
        <ele>936.528304265812</ele>
        <time>2022-05-20T08:50:19Z</time>
      </trkpt>
      <trkpt lat="42.413177" lon="-5.202025">
        <ele>934.9116887515411</ele>
        <time>2022-05-20T08:50:27Z</time>
      </trkpt>
      <trkpt lat="42.413236" lon="-5.20213">
        <ele>933.2626186292619</ele>
        <time>2022-05-20T08:50:34Z</time>
      </trkpt>
      <trkpt lat="42.413285" lon="-5.202235">
        <ele>931.7817065566778</ele>
        <time>2022-05-20T08:50:41Z</time>
      </trkpt>
      <trkpt lat="42.413347" lon="-5.202325">
        <ele>931.786841112189</ele>
        <time>2022-05-20T08:50:48Z</time>
      </trkpt>
      <trkpt lat="42.413393" lon="-5.202442">
        <ele>932.39676778391</ele>
        <time>2022-05-20T08:50:55Z</time>
      </trkpt>
      <trkpt lat="42.413428" lon="-5.202563">
        <ele>933.2270497959107</ele>
        <time>2022-05-20T08:51:04Z</time>
      </trkpt>
      <trkpt lat="42.413468" lon="-5.202676">
        <ele>935.100988117978</ele>
        <time>2022-05-20T08:51:12Z</time>
      </trkpt>
      <trkpt lat="42.413526" lon="-5.202781">
        <ele>937.3518040012568</ele>
        <time>2022-05-20T08:51:19Z</time>
      </trkpt>
      <trkpt lat="42.413567" lon="-5.202907">
        <ele>940.4858256308362</ele>
        <time>2022-05-20T08:51:28Z</time>
      </trkpt>
      <trkpt lat="42.413613" lon="-5.203029">
        <ele>942.5477740056813</ele>
        <time>2022-05-20T08:51:36Z</time>
      </trkpt>
      <trkpt lat="42.413671" lon="-5.203129">
        <ele>943.3246611282229</ele>
        <time>2022-05-20T08:51:44Z</time>
      </trkpt>
      <trkpt lat="42.41375" lon="-5.203221">
        <ele>944.564042522572</ele>
        <time>2022-05-20T08:51:52Z</time>
      </trkpt>
      <trkpt lat="42.413822" lon="-5.203324">
        <ele>945.0878995135427</ele>
        <time>2022-05-20T08:51:56Z</time>
      </trkpt>
      <trkpt lat="42.413883" lon="-5.203418">
        <ele>944.0359089579433</ele>
        <time>2022-05-20T08:52:01Z</time>
      </trkpt>
      <trkpt lat="42.413915" lon="-5.203545">
        <ele>944.7459834255278</ele>
        <time>2022-05-20T08:52:11Z</time>
      </trkpt>
      <trkpt lat="42.413965" lon="-5.20365">
        <ele>946.722594903782</ele>
        <time>2022-05-20T08:52:20Z</time>
      </trkpt>
      <trkpt lat="42.414057" lon="-5.203664">
        <ele>948.819577508606</ele>
        <time>2022-05-20T08:52:24Z</time>
      </trkpt>
      <trkpt lat="42.414131" lon="-5.203767">
        <ele>947.3925897451118</ele>
        <time>2022-05-20T08:52:31Z</time>
      </trkpt>
      <trkpt lat="42.414216" lon="-5.20383">
        <ele>948.4608692936599</ele>
        <time>2022-05-20T08:52:34Z</time>
      </trkpt>
      <trkpt lat="42.414247" lon="-5.203954">
        <ele>944.6125533170998</ele>
        <time>2022-05-20T08:52:40Z</time>
      </trkpt>
      <trkpt lat="42.414261" lon="-5.204085">
        <ele>939.2984494529665</ele>
        <time>2022-05-20T08:52:48Z</time>
      </trkpt>
      <trkpt lat="42.414287" lon="-5.204213">
        <ele>935.6460976423696</ele>
        <time>2022-05-20T08:52:57Z</time>
      </trkpt>
      <trkpt lat="42.41433" lon="-5.20433">
        <ele>932.7034350987524</ele>
        <time>2022-05-20T08:53:05Z</time>
      </trkpt>
      <trkpt lat="42.414373" lon="-5.204446">
        <ele>931.9246959444135</ele>
        <time>2022-05-20T08:53:12Z</time>
      </trkpt>
      <trkpt lat="42.414437" lon="-5.204543">
        <ele>932.788545913063</ele>
        <time>2022-05-20T08:53:19Z</time>
      </trkpt>
      <trkpt lat="42.414446" lon="-5.204672">
        <ele>929.9936653785408</ele>
        <time>2022-05-20T08:53:28Z</time>
      </trkpt>
      <trkpt lat="42.41447" lon="-5.204802">
        <ele>927.9123475523666</ele>
        <time>2022-05-20T08:53:38Z</time>
      </trkpt>
      <trkpt lat="42.414519" lon="-5.20492">
        <ele>926.7123845200986</ele>
        <time>2022-05-20T08:53:47Z</time>
      </trkpt>
      <trkpt lat="42.414565" lon="-5.205026">
        <ele>923.4294230528176</ele>
        <time>2022-05-20T08:53:54Z</time>
      </trkpt>
      <trkpt lat="42.414609" lon="-5.205136">
        <ele>921.6941829202697</ele>
        <time>2022-05-20T08:54:02Z</time>
      </trkpt>
      <trkpt lat="42.414642" lon="-5.205269">
        <ele>921.4696537815034</ele>
        <time>2022-05-20T08:54:10Z</time>
      </trkpt>
      <trkpt lat="42.414654" lon="-5.205391">
        <ele>918.9835317730904</ele>
        <time>2022-05-20T08:54:16Z</time>
      </trkpt>
      <trkpt lat="42.414734" lon="-5.205468">
        <ele>918.760126539506</ele>
        <time>2022-05-20T08:54:34Z</time>
      </trkpt>
      <trkpt lat="42.414844" lon="-5.205476">
        <ele>918.8046534946188</ele>
        <time>2022-05-20T08:54:37Z</time>
      </trkpt>
      <trkpt lat="42.414969" lon="-5.205481">
        <ele>918.8259835476056</ele>
        <time>2022-05-20T08:54:40Z</time>
      </trkpt>
      <trkpt lat="42.415056" lon="-5.205525">
        <ele>918.8538361787796</ele>
        <time>2022-05-20T08:54:42Z</time>
      </trkpt>
      <trkpt lat="42.415154" lon="-5.205624">
        <ele>918.9117384385318</ele>
        <time>2022-05-20T08:54:44Z</time>
      </trkpt>
      <trkpt lat="42.41526" lon="-5.205714">
        <ele>918.9757197508588</ele>
        <time>2022-05-20T08:54:46Z</time>
      </trkpt>
      <trkpt lat="42.415387" lon="-5.20583">
        <ele>918.9817134812474</ele>
        <time>2022-05-20T08:54:48Z</time>
      </trkpt>
      <trkpt lat="42.415536" lon="-5.205973">
        <ele>919.1046692552045</ele>
        <time>2022-05-20T08:54:49Z</time>
      </trkpt>
      <trkpt lat="42.415647" lon="-5.206075">
        <ele>919.2752006901428</ele>
        <time>2022-05-20T08:54:50Z</time>
      </trkpt>
      <trkpt lat="42.415686" lon="-5.206213">
        <ele>917.4480229634792</ele>
        <time>2022-05-20T08:54:52Z</time>
      </trkpt>
      <trkpt lat="42.415692" lon="-5.20635">
        <ele>913.1780326850712</ele>
        <time>2022-05-20T08:54:57Z</time>
      </trkpt>
      <trkpt lat="42.415765" lon="-5.206424">
        <ele>916.1804259354249</ele>
        <time>2022-05-20T08:55:06Z</time>
      </trkpt>
      <trkpt lat="42.415844" lon="-5.206512">
        <ele>918.5606353674084</ele>
        <time>2022-05-20T08:55:13Z</time>
      </trkpt>
      <trkpt lat="42.415925" lon="-5.206597">
        <ele>919.2143847309053</ele>
        <time>2022-05-20T08:55:20Z</time>
      </trkpt>
      <trkpt lat="42.415973" lon="-5.206708">
        <ele>917.2315588099882</ele>
        <time>2022-05-20T08:55:29Z</time>
      </trkpt>
      <trkpt lat="42.416014" lon="-5.206827">
        <ele>916.7894114535302</ele>
        <time>2022-05-20T08:55:39Z</time>
      </trkpt>
      <trkpt lat="42.416076" lon="-5.206931">
        <ele>918.1505201058462</ele>
        <time>2022-05-20T08:55:47Z</time>
      </trkpt>
      <trkpt lat="42.416118" lon="-5.207041">
        <ele>916.946925740689</ele>
        <time>2022-05-20T08:55:56Z</time>
      </trkpt>
      <trkpt lat="42.41616" lon="-5.207156">
        <ele>917.9533206634223</ele>
        <time>2022-05-20T08:56:09Z</time>
      </trkpt>
      <trkpt lat="42.416192" lon="-5.207272">
        <ele>924.48695069924</ele>
        <time>2022-05-20T08:56:21Z</time>
      </trkpt>
      <trkpt lat="42.416229" lon="-5.207388">
        <ele>929.8321529366076</ele>
        <time>2022-05-20T08:56:32Z</time>
      </trkpt>
      <trkpt lat="42.416256" lon="-5.207508">
        <ele>929.832995666191</ele>
        <time>2022-05-20T08:56:43Z</time>
      </trkpt>
      <trkpt lat="42.416285" lon="-5.20763">
        <ele>929.3657917510718</ele>
        <time>2022-05-20T08:56:53Z</time>
      </trkpt>
      <trkpt lat="42.416325" lon="-5.207742">
        <ele>927.8929450055584</ele>
        <time>2022-05-20T08:57:03Z</time>
      </trkpt>
      <trkpt lat="42.41634" lon="-5.20787">
        <ele>925.3887484651059</ele>
        <time>2022-05-20T08:57:14Z</time>
      </trkpt>
      <trkpt lat="42.416375" lon="-5.207994">
        <ele>922.1512764319777</ele>
        <time>2022-05-20T08:57:25Z</time>
      </trkpt>
      <trkpt lat="42.416395" lon="-5.208116">
        <ele>919.6553345993161</ele>
        <time>2022-05-20T08:57:35Z</time>
      </trkpt>
      <trkpt lat="42.416452" lon="-5.208224">
        <ele>917.0701108425856</ele>
        <time>2022-05-20T08:57:45Z</time>
      </trkpt>
      <trkpt lat="42.416492" lon="-5.20834">
        <ele>914.8814441887662</ele>
        <time>2022-05-20T08:57:53Z</time>
      </trkpt>
      <trkpt lat="42.416519" lon="-5.208461">
        <ele>912.4818160953</ele>
        <time>2022-05-20T08:58:01Z</time>
      </trkpt>
      <trkpt lat="42.41654" lon="-5.208592">
        <ele>910.8057626448572</ele>
        <time>2022-05-20T08:58:10Z</time>
      </trkpt>
      <trkpt lat="42.416567" lon="-5.208714">
        <ele>907.7046364862472</ele>
        <time>2022-05-20T08:58:18Z</time>
      </trkpt>
      <trkpt lat="42.416595" lon="-5.208836">
        <ele>904.6694318559021</ele>
        <time>2022-05-20T08:58:26Z</time>
      </trkpt>
      <trkpt lat="42.416642" lon="-5.208955">
        <ele>902.8863745657727</ele>
        <time>2022-05-20T08:58:36Z</time>
      </trkpt>
      <trkpt lat="42.416685" lon="-5.209066">
        <ele>901.1867648595944</ele>
        <time>2022-05-20T08:58:45Z</time>
      </trkpt>
      <trkpt lat="42.416739" lon="-5.209178">
        <ele>899.855969238095</ele>
        <time>2022-05-20T08:58:53Z</time>
      </trkpt>
      <trkpt lat="42.416783" lon="-5.209297">
        <ele>897.9528844906017</ele>
        <time>2022-05-20T08:59:01Z</time>
      </trkpt>
      <trkpt lat="42.416832" lon="-5.20942">
        <ele>896.2049813913181</ele>
        <time>2022-05-20T08:59:10Z</time>
      </trkpt>
      <trkpt lat="42.416873" lon="-5.209531">
        <ele>894.2742669805884</ele>
        <time>2022-05-20T08:59:17Z</time>
      </trkpt>
      <trkpt lat="42.416924" lon="-5.209647">
        <ele>891.4438824011013</ele>
        <time>2022-05-20T08:59:27Z</time>
      </trkpt>
      <trkpt lat="42.416984" lon="-5.209753">
        <ele>889.4803437385708</ele>
        <time>2022-05-20T08:59:35Z</time>
      </trkpt>
      <trkpt lat="42.417034" lon="-5.209862">
        <ele>888.0640694266185</ele>
        <time>2022-05-20T08:59:42Z</time>
      </trkpt>
      <trkpt lat="42.417098" lon="-5.209964">
        <ele>888.3425910407677</ele>
        <time>2022-05-20T08:59:52Z</time>
      </trkpt>
      <trkpt lat="42.417152" lon="-5.210071">
        <ele>886.9081039689481</ele>
        <time>2022-05-20T08:59:59Z</time>
      </trkpt>
      <trkpt lat="42.417211" lon="-5.210178">
        <ele>885.1690992368385</ele>
        <time>2022-05-20T09:00:07Z</time>
      </trkpt>
      <trkpt lat="42.417262" lon="-5.210286">
        <ele>884.5184560269117</ele>
        <time>2022-05-20T09:00:14Z</time>
      </trkpt>
      <trkpt lat="42.417327" lon="-5.210382">
        <ele>884.9613161161542</ele>
        <time>2022-05-20T09:00:22Z</time>
      </trkpt>
      <trkpt lat="42.417388" lon="-5.210473">
        <ele>884.9961361745372</ele>
        <time>2022-05-20T09:00:28Z</time>
      </trkpt>
      <trkpt lat="42.417457" lon="-5.210556">
        <ele>885.2085771663114</ele>
        <time>2022-05-20T09:00:34Z</time>
      </trkpt>
      <trkpt lat="42.417519" lon="-5.210666">
        <ele>885.1485464759171</ele>
        <time>2022-05-20T09:00:42Z</time>
      </trkpt>
      <trkpt lat="42.417592" lon="-5.210742">
        <ele>887.0048091523349</ele>
        <time>2022-05-20T09:00:49Z</time>
      </trkpt>
      <trkpt lat="42.417659" lon="-5.210825">
        <ele>889.0778978783637</ele>
        <time>2022-05-20T09:00:55Z</time>
      </trkpt>
      <trkpt lat="42.417717" lon="-5.210919">
        <ele>890.2941533429548</ele>
        <time>2022-05-20T09:01:02Z</time>
      </trkpt>
      <trkpt lat="42.417779" lon="-5.211014">
        <ele>891.4609547182918</ele>
        <time>2022-05-20T09:01:13Z</time>
      </trkpt>
      <trkpt lat="42.417843" lon="-5.21111">
        <ele>891.1842930531129</ele>
        <time>2022-05-20T09:01:20Z</time>
      </trkpt>
      <trkpt lat="42.417887" lon="-5.211219">
        <ele>891.0371086001396</ele>
        <time>2022-05-20T09:01:28Z</time>
      </trkpt>
      <trkpt lat="42.417942" lon="-5.211336">
        <ele>891.2568625202402</ele>
        <time>2022-05-20T09:01:35Z</time>
      </trkpt>
      <trkpt lat="42.417996" lon="-5.211451">
        <ele>892.1628562202677</ele>
        <time>2022-05-20T09:01:43Z</time>
      </trkpt>
      <trkpt lat="42.418059" lon="-5.211569">
        <ele>893.1823057094589</ele>
        <time>2022-05-20T09:01:52Z</time>
      </trkpt>
      <trkpt lat="42.418116" lon="-5.211681">
        <ele>893.9147665388882</ele>
        <time>2022-05-20T09:01:59Z</time>
      </trkpt>
      <trkpt lat="42.418172" lon="-5.211778">
        <ele>894.5534095559269</ele>
        <time>2022-05-20T09:02:05Z</time>
      </trkpt>
      <trkpt lat="42.418238" lon="-5.211886">
        <ele>895.7698156088591</ele>
        <time>2022-05-20T09:02:12Z</time>
      </trkpt>
      <trkpt lat="42.418287" lon="-5.212002">
        <ele>895.8871097546071</ele>
        <time>2022-05-20T09:02:18Z</time>
      </trkpt>
      <trkpt lat="42.418335" lon="-5.212118">
        <ele>895.1866939980537</ele>
        <time>2022-05-20T09:02:25Z</time>
      </trkpt>
      <trkpt lat="42.418389" lon="-5.212219">
        <ele>895.5112655144185</ele>
        <time>2022-05-20T09:02:32Z</time>
      </trkpt>
      <trkpt lat="42.418441" lon="-5.212334">
        <ele>895.6276127332821</ele>
        <time>2022-05-20T09:02:40Z</time>
      </trkpt>
      <trkpt lat="42.418501" lon="-5.212452">
        <ele>895.8605850460008</ele>
        <time>2022-05-20T09:02:47Z</time>
      </trkpt>
      <trkpt lat="42.418557" lon="-5.212569">
        <ele>896.2149344393983</ele>
        <time>2022-05-20T09:02:54Z</time>
      </trkpt>
      <trkpt lat="42.418618" lon="-5.212672">
        <ele>897.6459553828463</ele>
        <time>2022-05-20T09:03:02Z</time>
      </trkpt>
      <trkpt lat="42.418675" lon="-5.212773">
        <ele>897.8386254105717</ele>
        <time>2022-05-20T09:03:09Z</time>
      </trkpt>
      <trkpt lat="42.418721" lon="-5.212898">
        <ele>897.9477542908862</ele>
        <time>2022-05-20T09:03:17Z</time>
      </trkpt>
      <trkpt lat="42.418772" lon="-5.213001">
        <ele>898.4031634600833</ele>
        <time>2022-05-20T09:03:24Z</time>
      </trkpt>
      <trkpt lat="42.418821" lon="-5.213115">
        <ele>898.8286502435803</ele>
        <time>2022-05-20T09:03:32Z</time>
      </trkpt>
      <trkpt lat="42.418868" lon="-5.213221">
        <ele>899.6441678106785</ele>
        <time>2022-05-20T09:03:40Z</time>
      </trkpt>
      <trkpt lat="42.418918" lon="-5.21333">
        <ele>899.3050378859043</ele>
        <time>2022-05-20T09:03:48Z</time>
      </trkpt>
      <trkpt lat="42.418972" lon="-5.213428">
        <ele>900.2441576234996</ele>
        <time>2022-05-20T09:03:54Z</time>
      </trkpt>
      <trkpt lat="42.419025" lon="-5.213534">
        <ele>901.3565409490839</ele>
        <time>2022-05-20T09:04:02Z</time>
      </trkpt>
      <trkpt lat="42.419066" lon="-5.213653">
        <ele>900.1036039339378</ele>
        <time>2022-05-20T09:04:09Z</time>
      </trkpt>
      <trkpt lat="42.419107" lon="-5.213766">
        <ele>900.6624231347814</ele>
        <time>2022-05-20T09:04:15Z</time>
      </trkpt>
      <trkpt lat="42.419162" lon="-5.213863">
        <ele>901.2576767858118</ele>
        <time>2022-05-20T09:04:21Z</time>
      </trkpt>
      <trkpt lat="42.419221" lon="-5.213962">
        <ele>901.8449142128229</ele>
        <time>2022-05-20T09:04:27Z</time>
      </trkpt>
      <trkpt lat="42.419275" lon="-5.214071">
        <ele>901.2846778351814</ele>
        <time>2022-05-20T09:04:34Z</time>
      </trkpt>
      <trkpt lat="42.419339" lon="-5.214175">
        <ele>901.4006207119673</ele>
        <time>2022-05-20T09:04:41Z</time>
      </trkpt>
      <trkpt lat="42.419393" lon="-5.214274">
        <ele>900.5226311311126</ele>
        <time>2022-05-20T09:04:47Z</time>
      </trkpt>
      <trkpt lat="42.419443" lon="-5.21439">
        <ele>899.8220837712288</ele>
        <time>2022-05-20T09:04:55Z</time>
      </trkpt>
      <trkpt lat="42.419494" lon="-5.214508">
        <ele>899.9061477696523</ele>
        <time>2022-05-20T09:05:03Z</time>
      </trkpt>
      <trkpt lat="42.419541" lon="-5.214614">
        <ele>898.1621977100149</ele>
        <time>2022-05-20T09:05:10Z</time>
      </trkpt>
      <trkpt lat="42.419598" lon="-5.21473">
        <ele>898.4872822901234</ele>
        <time>2022-05-20T09:05:18Z</time>
      </trkpt>
      <trkpt lat="42.419666" lon="-5.214843">
        <ele>897.8447968801484</ele>
        <time>2022-05-20T09:05:25Z</time>
      </trkpt>
      <trkpt lat="42.419709" lon="-5.21495">
        <ele>898.7206772612408</ele>
        <time>2022-05-20T09:05:31Z</time>
      </trkpt>
      <trkpt lat="42.419759" lon="-5.21506">
        <ele>897.1039272248745</ele>
        <time>2022-05-20T09:05:39Z</time>
      </trkpt>
      <trkpt lat="42.419817" lon="-5.215161">
        <ele>896.1465143663809</ele>
        <time>2022-05-20T09:05:47Z</time>
      </trkpt>
      <trkpt lat="42.419877" lon="-5.215253">
        <ele>895.3207739274949</ele>
        <time>2022-05-20T09:05:54Z</time>
      </trkpt>
      <trkpt lat="42.419964" lon="-5.215305">
        <ele>893.0986733445898</ele>
        <time>2022-05-20T09:06:01Z</time>
      </trkpt>
      <trkpt lat="42.420057" lon="-5.215344">
        <ele>891.5938170216978</ele>
        <time>2022-05-20T09:06:07Z</time>
      </trkpt>
      <trkpt lat="42.420133" lon="-5.215429">
        <ele>889.6831036591902</ele>
        <time>2022-05-20T09:06:15Z</time>
      </trkpt>
      <trkpt lat="42.420209" lon="-5.215509">
        <ele>889.302689537406</ele>
        <time>2022-05-20T09:06:24Z</time>
      </trkpt>
      <trkpt lat="42.420282" lon="-5.215594">
        <ele>889.7301971968263</ele>
        <time>2022-05-20T09:06:33Z</time>
      </trkpt>
      <trkpt lat="42.420335" lon="-5.215705">
        <ele>889.5502932099625</ele>
        <time>2022-05-20T09:07:38Z</time>
      </trkpt>
      <trkpt lat="42.420381" lon="-5.215814">
        <ele>890.5046705929562</ele>
        <time>2022-05-20T09:07:50Z</time>
      </trkpt>
      <trkpt lat="42.420427" lon="-5.215923">
        <ele>891.7018401389942</ele>
        <time>2022-05-20T09:08:14Z</time>
      </trkpt>
      <trkpt lat="42.420453" lon="-5.21604">
        <ele>897.2644661720842</ele>
        <time>2022-05-20T09:09:50Z</time>
      </trkpt>
      <trkpt lat="42.420449" lon="-5.216169">
        <ele>901.3774352893233</ele>
        <time>2022-05-20T09:09:59Z</time>
      </trkpt>
      <trkpt lat="42.420504" lon="-5.216281">
        <ele>899.7442580806091</ele>
        <time>2022-05-20T09:10:12Z</time>
      </trkpt>
      <trkpt lat="42.420566" lon="-5.216389">
        <ele>901.8987130867317</ele>
        <time>2022-05-20T09:10:21Z</time>
      </trkpt>
      <trkpt lat="42.420606" lon="-5.216503">
        <ele>902.686838613823</ele>
        <time>2022-05-20T09:10:28Z</time>
      </trkpt>
      <trkpt lat="42.420657" lon="-5.216611">
        <ele>903.3064517937601</ele>
        <time>2022-05-20T09:10:38Z</time>
      </trkpt>
      <trkpt lat="42.42073" lon="-5.216697">
        <ele>902.7233383245766</ele>
        <time>2022-05-20T09:10:47Z</time>
      </trkpt>
      <trkpt lat="42.420798" lon="-5.216806">
        <ele>900.7573974039406</ele>
        <time>2022-05-20T09:10:57Z</time>
      </trkpt>
      <trkpt lat="42.420857" lon="-5.216909">
        <ele>897.558042049408</ele>
        <time>2022-05-20T09:11:05Z</time>
      </trkpt>
      <trkpt lat="42.420922" lon="-5.216994">
        <ele>895.0579074537382</ele>
        <time>2022-05-20T09:11:13Z</time>
      </trkpt>
      <trkpt lat="42.420959" lon="-5.217107">
        <ele>894.3767962884158</ele>
        <time>2022-05-20T09:11:23Z</time>
      </trkpt>
      <trkpt lat="42.421008" lon="-5.217217">
        <ele>894.4862711597234</ele>
        <time>2022-05-20T09:11:33Z</time>
      </trkpt>
      <trkpt lat="42.421058" lon="-5.217339">
        <ele>894.7862945068628</ele>
        <time>2022-05-20T09:11:42Z</time>
      </trkpt>
      <trkpt lat="42.421106" lon="-5.217452">
        <ele>895.6821077195928</ele>
        <time>2022-05-20T09:11:49Z</time>
      </trkpt>
      <trkpt lat="42.421161" lon="-5.217548">
        <ele>895.0318553745747</ele>
        <time>2022-05-20T09:11:56Z</time>
      </trkpt>
      <trkpt lat="42.421216" lon="-5.217653">
        <ele>893.9851443041116</ele>
        <time>2022-05-20T09:12:04Z</time>
      </trkpt>
      <trkpt lat="42.421206" lon="-5.217794">
        <ele>898.6600970309228</ele>
        <time>2022-05-20T09:12:11Z</time>
      </trkpt>
      <trkpt lat="42.421267" lon="-5.217895">
        <ele>902.0403758976609</ele>
        <time>2022-05-20T09:12:19Z</time>
      </trkpt>
      <trkpt lat="42.421325" lon="-5.218001">
        <ele>902.1593525912613</ele>
        <time>2022-05-20T09:12:26Z</time>
      </trkpt>
      <trkpt lat="42.421412" lon="-5.218041">
        <ele>901.2021470898762</ele>
        <time>2022-05-20T09:12:32Z</time>
      </trkpt>
      <trkpt lat="42.421473" lon="-5.218159">
        <ele>897.684495725669</ele>
        <time>2022-05-20T09:12:39Z</time>
      </trkpt>
      <trkpt lat="42.421492" lon="-5.218281">
        <ele>897.0053554521874</ele>
        <time>2022-05-20T09:12:45Z</time>
      </trkpt>
      <trkpt lat="42.421558" lon="-5.218376">
        <ele>896.4801459107548</ele>
        <time>2022-05-20T09:12:53Z</time>
      </trkpt>
      <trkpt lat="42.421634" lon="-5.218465">
        <ele>897.8440789263695</ele>
        <time>2022-05-20T09:13:02Z</time>
      </trkpt>
      <trkpt lat="42.421696" lon="-5.218552">
        <ele>898.9233421180397</ele>
        <time>2022-05-20T09:13:09Z</time>
      </trkpt>
      <trkpt lat="42.421766" lon="-5.218642">
        <ele>899.1834303801879</ele>
        <time>2022-05-20T09:13:15Z</time>
      </trkpt>
      <trkpt lat="42.421796" lon="-5.218761">
        <ele>896.8176727835089</ele>
        <time>2022-05-20T09:13:22Z</time>
      </trkpt>
      <trkpt lat="42.421849" lon="-5.218885">
        <ele>890.8059682017192</ele>
        <time>2022-05-20T09:13:29Z</time>
      </trkpt>
      <trkpt lat="42.421916" lon="-5.218992">
        <ele>887.6112059820443</ele>
        <time>2022-05-20T09:13:35Z</time>
      </trkpt>
      <trkpt lat="42.421978" lon="-5.21909">
        <ele>882.6987188523635</ele>
        <time>2022-05-20T09:13:41Z</time>
      </trkpt>
      <trkpt lat="42.422035" lon="-5.219185">
        <ele>877.1014830190688</ele>
        <time>2022-05-20T09:13:48Z</time>
      </trkpt>
      <trkpt lat="42.422085" lon="-5.219297">
        <ele>871.4386774133891</ele>
        <time>2022-05-20T09:13:56Z</time>
      </trkpt>
      <trkpt lat="42.422125" lon="-5.219421">
        <ele>867.2530433060601</ele>
        <time>2022-05-20T09:14:04Z</time>
      </trkpt>
      <trkpt lat="42.422179" lon="-5.219519">
        <ele>866.4440114861354</ele>
        <time>2022-05-20T09:14:11Z</time>
      </trkpt>
      <trkpt lat="42.422214" lon="-5.219636">
        <ele>864.9461271660402</ele>
        <time>2022-05-20T09:14:20Z</time>
      </trkpt>
      <trkpt lat="42.42227" lon="-5.219742">
        <ele>864.453980376944</ele>
        <time>2022-05-20T09:14:27Z</time>
      </trkpt>
      <trkpt lat="42.422326" lon="-5.219847">
        <ele>865.3385599721223</ele>
        <time>2022-05-20T09:14:34Z</time>
      </trkpt>
      <trkpt lat="42.422387" lon="-5.219959">
        <ele>865.1918859733269</ele>
        <time>2022-05-20T09:14:42Z</time>
      </trkpt>
      <trkpt lat="42.422417" lon="-5.220084">
        <ele>866.5136181339622</ele>
        <time>2022-05-20T09:14:49Z</time>
      </trkpt>
      <trkpt lat="42.422454" lon="-5.220205">
        <ele>868.0012749684975</ele>
        <time>2022-05-20T09:14:56Z</time>
      </trkpt>
      <trkpt lat="42.422505" lon="-5.220313">
        <ele>870.6528866803274</ele>
        <time>2022-05-20T09:15:03Z</time>
      </trkpt>
      <trkpt lat="42.422515" lon="-5.220445">
        <ele>873.511654897593</ele>
        <time>2022-05-20T09:15:11Z</time>
      </trkpt>
      <trkpt lat="42.42254" lon="-5.220566">
        <ele>878.0437413733453</ele>
        <time>2022-05-20T09:15:19Z</time>
      </trkpt>
      <trkpt lat="42.422574" lon="-5.2207">
        <ele>880.0336642973125</ele>
        <time>2022-05-20T09:16:29Z</time>
      </trkpt>
      <trkpt lat="42.422569" lon="-5.220827">
        <ele>878.3900682087988</ele>
        <time>2022-05-20T09:16:36Z</time>
      </trkpt>
      <trkpt lat="42.422581" lon="-5.220699">
        <ele>869.3929176544771</ele>
        <time>2022-05-20T09:16:54Z</time>
      </trkpt>
      <trkpt lat="42.422672" lon="-5.220693">
        <ele>867.8346025506034</ele>
        <time>2022-05-20T09:17:35Z</time>
      </trkpt>
      <trkpt lat="42.422753" lon="-5.220618">
        <ele>868.7644339371473</ele>
        <time>2022-05-20T09:17:41Z</time>
      </trkpt>
      <trkpt lat="42.422833" lon="-5.220538">
        <ele>868.9627663334832</ele>
        <time>2022-05-20T09:17:53Z</time>
      </trkpt>
      <trkpt lat="42.42292" lon="-5.220492">
        <ele>868.0437805010006</ele>
        <time>2022-05-20T09:18:10Z</time>
      </trkpt>
      <trkpt lat="42.42301" lon="-5.220524">
        <ele>865.6805168474093</ele>
        <time>2022-05-20T09:18:18Z</time>
      </trkpt>
      <trkpt lat="42.423103" lon="-5.220503">
        <ele>861.832348883152</ele>
        <time>2022-05-20T09:18:26Z</time>
      </trkpt>
      <trkpt lat="42.423204" lon="-5.220473">
        <ele>852.2848099498078</ele>
        <time>2022-05-20T09:18:48Z</time>
      </trkpt>
      <trkpt lat="42.423308" lon="-5.220475">
        <ele>852.9539661677554</ele>
        <time>2022-05-20T09:18:56Z</time>
      </trkpt>
      <trkpt lat="42.423407" lon="-5.220469">
        <ele>852.7827057130635</ele>
        <time>2022-05-20T09:19:03Z</time>
      </trkpt>
      <trkpt lat="42.423499" lon="-5.220468">
        <ele>852.5023313062266</ele>
        <time>2022-05-20T09:19:10Z</time>
      </trkpt>
      <trkpt lat="42.423514" lon="-5.220342">
        <ele>844.5623473655432</ele>
        <time>2022-05-20T09:19:26Z</time>
      </trkpt>
      <trkpt lat="42.423484" lon="-5.22021">
        <ele>835.3606883669272</ele>
        <time>2022-05-20T09:19:38Z</time>
      </trkpt>
      <trkpt lat="42.423432" lon="-5.220085">
        <ele>830.4677729588002</ele>
        <time>2022-05-20T09:19:48Z</time>
      </trkpt>
      <trkpt lat="42.423449" lon="-5.219949">
        <ele>829.9088181862608</ele>
        <time>2022-05-20T09:19:58Z</time>
      </trkpt>
      <trkpt lat="42.423375" lon="-5.219865">
        <ele>834.9526348123327</ele>
        <time>2022-05-20T09:22:32Z</time>
      </trkpt>
      <trkpt lat="42.423297" lon="-5.219797">
        <ele>837.6984566058964</ele>
        <time>2022-05-20T09:22:40Z</time>
      </trkpt>
      <trkpt lat="42.423255" lon="-5.219672">
        <ele>849.9330032439902</ele>
        <time>2022-05-20T09:26:00Z</time>
      </trkpt>
      <trkpt lat="42.423244" lon="-5.219805">
        <ele>873.2986159231514</ele>
        <time>2022-05-20T09:37:11Z</time>
      </trkpt>
      <trkpt lat="42.423194" lon="-5.219914">
        <ele>877.1481416933239</ele>
        <time>2022-05-20T09:37:20Z</time>
      </trkpt>
      <trkpt lat="42.42317" lon="-5.220043">
        <ele>886.6724162567407</ele>
        <time>2022-05-20T09:37:30Z</time>
      </trkpt>
      <trkpt lat="42.423174" lon="-5.220176">
        <ele>894.9497042102739</ele>
        <time>2022-05-20T09:37:39Z</time>
      </trkpt>
      <trkpt lat="42.423166" lon="-5.220298">
        <ele>901.9921775367111</ele>
        <time>2022-05-20T09:37:49Z</time>
      </trkpt>
      <trkpt lat="42.423139" lon="-5.220414">
        <ele>905.4766070647165</ele>
        <time>2022-05-20T09:37:57Z</time>
      </trkpt>
      <trkpt lat="42.423111" lon="-5.220538">
        <ele>909.6410336289555</ele>
        <time>2022-05-20T09:38:07Z</time>
      </trkpt>
      <trkpt lat="42.423075" lon="-5.22065">
        <ele>913.8954308535904</ele>
        <time>2022-05-20T09:38:15Z</time>
      </trkpt>
      <trkpt lat="42.423045" lon="-5.220775">
        <ele>918.944159515202</ele>
        <time>2022-05-20T09:38:27Z</time>
      </trkpt>
      <trkpt lat="42.422991" lon="-5.220878">
        <ele>919.9541862970218</ele>
        <time>2022-05-20T09:38:35Z</time>
      </trkpt>
      <trkpt lat="42.422922" lon="-5.220961">
        <ele>918.7667736085132</ele>
        <time>2022-05-20T09:38:44Z</time>
      </trkpt>
      <trkpt lat="42.42288" lon="-5.221077">
        <ele>916.1599480770528</ele>
        <time>2022-05-20T09:38:57Z</time>
      </trkpt>
      <trkpt lat="42.42284" lon="-5.221203">
        <ele>913.5164918079972</ele>
        <time>2022-05-20T09:39:05Z</time>
      </trkpt>
      <trkpt lat="42.422878" lon="-5.221329">
        <ele>913.1874182224274</ele>
        <time>2022-05-20T09:39:15Z</time>
      </trkpt>
      <trkpt lat="42.422915" lon="-5.221445">
        <ele>912.9669687105343</ele>
        <time>2022-05-20T09:39:23Z</time>
      </trkpt>
      <trkpt lat="42.422947" lon="-5.221577">
        <ele>912.7586777415127</ele>
        <time>2022-05-20T09:39:30Z</time>
      </trkpt>
      <trkpt lat="42.42299" lon="-5.221704">
        <ele>914.2498368658125</ele>
        <time>2022-05-20T09:39:39Z</time>
      </trkpt>
      <trkpt lat="42.423023" lon="-5.221829">
        <ele>913.2250372907147</ele>
        <time>2022-05-20T09:39:45Z</time>
      </trkpt>
      <trkpt lat="42.423056" lon="-5.221959">
        <ele>913.6402560258284</ele>
        <time>2022-05-20T09:39:53Z</time>
      </trkpt>
      <trkpt lat="42.423114" lon="-5.222066">
        <ele>914.7521187383682</ele>
        <time>2022-05-20T09:40:02Z</time>
      </trkpt>
      <trkpt lat="42.423193" lon="-5.222172">
        <ele>917.6838780101389</ele>
        <time>2022-05-20T09:40:12Z</time>
      </trkpt>
      <trkpt lat="42.423258" lon="-5.222271">
        <ele>917.0871867388487</ele>
        <time>2022-05-20T09:40:20Z</time>
      </trkpt>
      <trkpt lat="42.423314" lon="-5.222384">
        <ele>913.8179612867534</ele>
        <time>2022-05-20T09:40:32Z</time>
      </trkpt>
      <trkpt lat="42.423383" lon="-5.222483">
        <ele>913.4194220183417</ele>
        <time>2022-05-20T09:40:42Z</time>
      </trkpt>
      <trkpt lat="42.423449" lon="-5.222588">
        <ele>914.4222771730274</ele>
        <time>2022-05-20T09:40:49Z</time>
      </trkpt>
      <trkpt lat="42.423506" lon="-5.222686">
        <ele>914.6522434232756</ele>
        <time>2022-05-20T09:40:56Z</time>
      </trkpt>
      <trkpt lat="42.42356" lon="-5.222804">
        <ele>914.9814612707123</ele>
        <time>2022-05-20T09:41:05Z</time>
      </trkpt>
      <trkpt lat="42.423603" lon="-5.222911">
        <ele>916.4989321986213</ele>
        <time>2022-05-20T09:41:13Z</time>
      </trkpt>
      <trkpt lat="42.423641" lon="-5.223037">
        <ele>914.8616596003994</ele>
        <time>2022-05-20T09:41:20Z</time>
      </trkpt>
      <trkpt lat="42.423688" lon="-5.223149">
        <ele>915.6869476558641</ele>
        <time>2022-05-20T09:41:29Z</time>
      </trkpt>
      <trkpt lat="42.423748" lon="-5.223259">
        <ele>915.723287393339</ele>
        <time>2022-05-20T09:41:37Z</time>
      </trkpt>
      <trkpt lat="42.423792" lon="-5.223367">
        <ele>916.2832655385137</ele>
        <time>2022-05-20T09:41:46Z</time>
      </trkpt>
      <trkpt lat="42.423854" lon="-5.223476">
        <ele>916.3449924085289</ele>
        <time>2022-05-20T09:41:54Z</time>
      </trkpt>
      <trkpt lat="42.423914" lon="-5.223572">
        <ele>915.9792149011046</ele>
        <time>2022-05-20T09:42:02Z</time>
      </trkpt>
      <trkpt lat="42.423949" lon="-5.223692">
        <ele>915.4213738301769</ele>
        <time>2022-05-20T09:42:10Z</time>
      </trkpt>
      <trkpt lat="42.423999" lon="-5.223809">
        <ele>914.8052892833948</ele>
        <time>2022-05-20T09:42:18Z</time>
      </trkpt>
      <trkpt lat="42.424049" lon="-5.223924">
        <ele>914.1187181714922</ele>
        <time>2022-05-20T09:42:25Z</time>
      </trkpt>
      <trkpt lat="42.4241" lon="-5.22403">
        <ele>912.5180371031165</ele>
        <time>2022-05-20T09:42:33Z</time>
      </trkpt>
      <trkpt lat="42.424162" lon="-5.224128">
        <ele>912.5726331407204</ele>
        <time>2022-05-20T09:42:42Z</time>
      </trkpt>
      <trkpt lat="42.424203" lon="-5.224243">
        <ele>912.7076959032565</ele>
        <time>2022-05-20T09:42:51Z</time>
      </trkpt>
      <trkpt lat="42.424245" lon="-5.224355">
        <ele>911.1712237317115</ele>
        <time>2022-05-20T09:42:59Z</time>
      </trkpt>
      <trkpt lat="42.42429" lon="-5.224477">
        <ele>910.1955214915797</ele>
        <time>2022-05-20T09:43:09Z</time>
      </trkpt>
      <trkpt lat="42.424353" lon="-5.224586">
        <ele>911.3515220545232</ele>
        <time>2022-05-20T09:43:17Z</time>
      </trkpt>
      <trkpt lat="42.424412" lon="-5.224682">
        <ele>912.9994458565488</ele>
        <time>2022-05-20T09:43:26Z</time>
      </trkpt>
      <trkpt lat="42.424464" lon="-5.224781">
        <ele>912.6757165277377</ele>
        <time>2022-05-20T09:43:34Z</time>
      </trkpt>
      <trkpt lat="42.424517" lon="-5.224885">
        <ele>910.7333322474733</ele>
        <time>2022-05-20T09:43:42Z</time>
      </trkpt>
      <trkpt lat="42.424591" lon="-5.224969">
        <ele>911.3163301767781</ele>
        <time>2022-05-20T09:43:54Z</time>
      </trkpt>
      <trkpt lat="42.424644" lon="-5.225076">
        <ele>912.8464887300506</ele>
        <time>2022-05-20T09:44:03Z</time>
      </trkpt>
      <trkpt lat="42.424678" lon="-5.225196">
        <ele>912.1328634507954</ele>
        <time>2022-05-20T09:44:11Z</time>
      </trkpt>
      <trkpt lat="42.424728" lon="-5.225297">
        <ele>911.9074040669948</ele>
        <time>2022-05-20T09:44:18Z</time>
      </trkpt>
      <trkpt lat="42.424765" lon="-5.225408">
        <ele>910.4585128994659</ele>
        <time>2022-05-20T09:44:25Z</time>
      </trkpt>
      <trkpt lat="42.424819" lon="-5.225514">
        <ele>908.5820600092411</ele>
        <time>2022-05-20T09:44:33Z</time>
      </trkpt>
      <trkpt lat="42.424867" lon="-5.225636">
        <ele>906.7791879232973</ele>
        <time>2022-05-20T09:44:42Z</time>
      </trkpt>
      <trkpt lat="42.424922" lon="-5.225738">
        <ele>906.0198296839371</ele>
        <time>2022-05-20T09:44:51Z</time>
      </trkpt>
      <trkpt lat="42.424977" lon="-5.225839">
        <ele>903.400728257373</ele>
        <time>2022-05-20T09:44:59Z</time>
      </trkpt>
      <trkpt lat="42.425043" lon="-5.225924">
        <ele>903.0505120558664</ele>
        <time>2022-05-20T09:45:05Z</time>
      </trkpt>
      <trkpt lat="42.425113" lon="-5.226008">
        <ele>903.5486687067896</ele>
        <time>2022-05-20T09:45:11Z</time>
      </trkpt>
      <trkpt lat="42.425189" lon="-5.226075">
        <ele>905.9503685450181</ele>
        <time>2022-05-20T09:45:19Z</time>
      </trkpt>
      <trkpt lat="42.425252" lon="-5.226177">
        <ele>906.1232942324132</ele>
        <time>2022-05-20T09:45:30Z</time>
      </trkpt>
      <trkpt lat="42.425316" lon="-5.226278">
        <ele>904.6251744758338</ele>
        <time>2022-05-20T09:45:37Z</time>
      </trkpt>
      <trkpt lat="42.425377" lon="-5.226374">
        <ele>905.4868884515017</ele>
        <time>2022-05-20T09:45:44Z</time>
      </trkpt>
      <trkpt lat="42.425446" lon="-5.226456">
        <ele>904.3635919503868</ele>
        <time>2022-05-20T09:45:50Z</time>
      </trkpt>
      <trkpt lat="42.425506" lon="-5.226555">
        <ele>905.0094322795048</ele>
        <time>2022-05-20T09:46:00Z</time>
      </trkpt>
      <trkpt lat="42.425575" lon="-5.226636">
        <ele>905.3952463883907</ele>
        <time>2022-05-20T09:46:06Z</time>
      </trkpt>
      <trkpt lat="42.425626" lon="-5.226736">
        <ele>906.2099531404674</ele>
        <time>2022-05-20T09:46:11Z</time>
      </trkpt>
      <trkpt lat="42.425694" lon="-5.226833">
        <ele>906.9373211124912</ele>
        <time>2022-05-20T09:46:20Z</time>
      </trkpt>
      <trkpt lat="42.425772" lon="-5.226912">
        <ele>906.8442605305463</ele>
        <time>2022-05-20T09:46:28Z</time>
      </trkpt>
      <trkpt lat="42.42585" lon="-5.226981">
        <ele>907.215792959556</ele>
        <time>2022-05-20T09:46:35Z</time>
      </trkpt>
      <trkpt lat="42.42592" lon="-5.227074">
        <ele>909.3580660326406</ele>
        <time>2022-05-20T09:46:44Z</time>
      </trkpt>
      <trkpt lat="42.425983" lon="-5.22717">
        <ele>909.55377938319</ele>
        <time>2022-05-20T09:46:51Z</time>
      </trkpt>
      <trkpt lat="42.426052" lon="-5.227254">
        <ele>909.5962390173227</ele>
        <time>2022-05-20T09:46:59Z</time>
      </trkpt>
      <trkpt lat="42.426123" lon="-5.227346">
        <ele>910.0949947275221</ele>
        <time>2022-05-20T09:47:08Z</time>
      </trkpt>
      <trkpt lat="42.426171" lon="-5.22746">
        <ele>909.1739903651178</ele>
        <time>2022-05-20T09:47:15Z</time>
      </trkpt>
      <trkpt lat="42.426234" lon="-5.227563">
        <ele>908.1515470826998</ele>
        <time>2022-05-20T09:47:23Z</time>
      </trkpt>
      <trkpt lat="42.42629" lon="-5.227661">
        <ele>907.0360701363534</ele>
        <time>2022-05-20T09:47:30Z</time>
      </trkpt>
      <trkpt lat="42.426342" lon="-5.227766">
        <ele>906.4894181648269</ele>
        <time>2022-05-20T09:47:38Z</time>
      </trkpt>
      <trkpt lat="42.426401" lon="-5.227859">
        <ele>905.7166850864887</ele>
        <time>2022-05-20T09:47:45Z</time>
      </trkpt>
      <trkpt lat="42.426463" lon="-5.227963">
        <ele>905.86536549218</ele>
        <time>2022-05-20T09:47:53Z</time>
      </trkpt>
      <trkpt lat="42.426514" lon="-5.228072">
        <ele>906.0457694092765</ele>
        <time>2022-05-20T09:48:00Z</time>
      </trkpt>
      <trkpt lat="42.426576" lon="-5.228184">
        <ele>907.6268084710464</ele>
        <time>2022-05-20T09:48:08Z</time>
      </trkpt>
      <trkpt lat="42.426628" lon="-5.228288">
        <ele>906.4806013097987</ele>
        <time>2022-05-20T09:48:16Z</time>
      </trkpt>
      <trkpt lat="42.426671" lon="-5.228407">
        <ele>907.874269573018</ele>
        <time>2022-05-20T09:48:24Z</time>
      </trkpt>
      <trkpt lat="42.426736" lon="-5.228506">
        <ele>908.0292212534696</ele>
        <time>2022-05-20T09:48:31Z</time>
      </trkpt>
      <trkpt lat="42.426803" lon="-5.228608">
        <ele>908.0045495443046</ele>
        <time>2022-05-20T09:48:38Z</time>
      </trkpt>
      <trkpt lat="42.426859" lon="-5.228718">
        <ele>908.0178168499842</ele>
        <time>2022-05-20T09:48:45Z</time>
      </trkpt>
      <trkpt lat="42.426919" lon="-5.228823">
        <ele>908.6514939721674</ele>
        <time>2022-05-20T09:48:53Z</time>
      </trkpt>
      <trkpt lat="42.426976" lon="-5.228923">
        <ele>909.8238717159256</ele>
        <time>2022-05-20T09:49:01Z</time>
      </trkpt>
      <trkpt lat="42.427017" lon="-5.229056">
        <ele>910.5523844612762</ele>
        <time>2022-05-20T09:49:08Z</time>
      </trkpt>
      <trkpt lat="42.427065" lon="-5.229169">
        <ele>911.1987052727491</ele>
        <time>2022-05-20T09:49:15Z</time>
      </trkpt>
      <trkpt lat="42.427127" lon="-5.229276">
        <ele>910.8490780787542</ele>
        <time>2022-05-20T09:49:23Z</time>
      </trkpt>
      <trkpt lat="42.427179" lon="-5.229378">
        <ele>909.8284365711734</ele>
        <time>2022-05-20T09:49:29Z</time>
      </trkpt>
      <trkpt lat="42.427228" lon="-5.229487">
        <ele>908.4340384798124</ele>
        <time>2022-05-20T09:49:36Z</time>
      </trkpt>
      <trkpt lat="42.427291" lon="-5.229595">
        <ele>910.6283718487248</ele>
        <time>2022-05-20T09:49:44Z</time>
      </trkpt>
      <trkpt lat="42.427334" lon="-5.229718">
        <ele>910.6075069503859</ele>
        <time>2022-05-20T09:49:51Z</time>
      </trkpt>
      <trkpt lat="42.427374" lon="-5.229828">
        <ele>910.9716572295874</ele>
        <time>2022-05-20T09:49:58Z</time>
      </trkpt>
      <trkpt lat="42.427437" lon="-5.22995">
        <ele>909.8070061076432</ele>
        <time>2022-05-20T09:50:08Z</time>
      </trkpt>
      <trkpt lat="42.427483" lon="-5.230078">
        <ele>910.7805211134255</ele>
        <time>2022-05-20T09:50:16Z</time>
      </trkpt>
      <trkpt lat="42.42753" lon="-5.230191">
        <ele>909.4861967964098</ele>
        <time>2022-05-20T09:50:23Z</time>
      </trkpt>
      <trkpt lat="42.427577" lon="-5.230298">
        <ele>910.21386314556</ele>
        <time>2022-05-20T09:50:30Z</time>
      </trkpt>
      <trkpt lat="42.427622" lon="-5.23041">
        <ele>909.203370988369</ele>
        <time>2022-05-20T09:50:39Z</time>
      </trkpt>
      <trkpt lat="42.42768" lon="-5.23052">
        <ele>909.1082598604262</ele>
        <time>2022-05-20T09:50:46Z</time>
      </trkpt>
      <trkpt lat="42.42774" lon="-5.230623">
        <ele>907.7654336988926</ele>
        <time>2022-05-20T09:50:55Z</time>
      </trkpt>
      <trkpt lat="42.427788" lon="-5.230734">
        <ele>906.6843366054818</ele>
        <time>2022-05-20T09:51:03Z</time>
      </trkpt>
      <trkpt lat="42.427844" lon="-5.230844">
        <ele>907.37224419415</ele>
        <time>2022-05-20T09:51:12Z</time>
      </trkpt>
      <trkpt lat="42.42788" lon="-5.230957">
        <ele>905.9892018567771</ele>
        <time>2022-05-20T09:51:22Z</time>
      </trkpt>
      <trkpt lat="42.427922" lon="-5.231068">
        <ele>906.8986464450136</ele>
        <time>2022-05-20T09:51:30Z</time>
      </trkpt>
      <trkpt lat="42.427991" lon="-5.231168">
        <ele>908.0717957895249</ele>
        <time>2022-05-20T09:51:38Z</time>
      </trkpt>
      <trkpt lat="42.428062" lon="-5.231275">
        <ele>907.0225711818784</ele>
        <time>2022-05-20T09:51:45Z</time>
      </trkpt>
      <trkpt lat="42.428124" lon="-5.231371">
        <ele>908.4475999204442</ele>
        <time>2022-05-20T09:51:52Z</time>
      </trkpt>
      <trkpt lat="42.428187" lon="-5.231473">
        <ele>908.5978850256652</ele>
        <time>2022-05-20T09:51:58Z</time>
      </trkpt>
      <trkpt lat="42.428248" lon="-5.231585">
        <ele>910.4470330225304</ele>
        <time>2022-05-20T09:52:05Z</time>
      </trkpt>
      <trkpt lat="42.428307" lon="-5.231691">
        <ele>910.5470516486093</ele>
        <time>2022-05-20T09:52:13Z</time>
      </trkpt>
      <trkpt lat="42.428358" lon="-5.231804">
        <ele>912.2144748456776</ele>
        <time>2022-05-20T09:52:21Z</time>
      </trkpt>
      <trkpt lat="42.428408" lon="-5.231907">
        <ele>912.0704570477828</ele>
        <time>2022-05-20T09:52:29Z</time>
      </trkpt>
      <trkpt lat="42.428468" lon="-5.232025">
        <ele>913.3723534885794</ele>
        <time>2022-05-20T09:52:37Z</time>
      </trkpt>
      <trkpt lat="42.428512" lon="-5.232134">
        <ele>915.4724677698687</ele>
        <time>2022-05-20T09:52:43Z</time>
      </trkpt>
      <trkpt lat="42.428566" lon="-5.232236">
        <ele>915.0587539598346</ele>
        <time>2022-05-20T09:52:49Z</time>
      </trkpt>
      <trkpt lat="42.428622" lon="-5.232349">
        <ele>913.5561308208853</ele>
        <time>2022-05-20T09:52:57Z</time>
      </trkpt>
      <trkpt lat="42.428674" lon="-5.232454">
        <ele>913.8938959063962</ele>
        <time>2022-05-20T09:53:07Z</time>
      </trkpt>
      <trkpt lat="42.428729" lon="-5.232568">
        <ele>912.7486929455772</ele>
        <time>2022-05-20T09:53:15Z</time>
      </trkpt>
      <trkpt lat="42.428786" lon="-5.232681">
        <ele>912.16929647699</ele>
        <time>2022-05-20T09:53:23Z</time>
      </trkpt>
      <trkpt lat="42.428838" lon="-5.232785">
        <ele>912.0186892841011</ele>
        <time>2022-05-20T09:53:33Z</time>
      </trkpt>
      <trkpt lat="42.42889" lon="-5.2329">
        <ele>911.4327785652131</ele>
        <time>2022-05-20T09:53:42Z</time>
      </trkpt>
      <trkpt lat="42.428941" lon="-5.233003">
        <ele>909.7567540351301</ele>
        <time>2022-05-20T09:53:49Z</time>
      </trkpt>
      <trkpt lat="42.428992" lon="-5.23311">
        <ele>910.2637046175078</ele>
        <time>2022-05-20T09:53:57Z</time>
      </trkpt>
      <trkpt lat="42.429051" lon="-5.233217">
        <ele>910.0685181664303</ele>
        <time>2022-05-20T09:54:05Z</time>
      </trkpt>
      <trkpt lat="42.4291" lon="-5.233332">
        <ele>909.4271624917164</ele>
        <time>2022-05-20T09:54:13Z</time>
      </trkpt>
      <trkpt lat="42.429154" lon="-5.233438">
        <ele>909.6711541004479</ele>
        <time>2022-05-20T09:54:20Z</time>
      </trkpt>
      <trkpt lat="42.429216" lon="-5.23354">
        <ele>910.3346376894042</ele>
        <time>2022-05-20T09:54:28Z</time>
      </trkpt>
      <trkpt lat="42.429266" lon="-5.233656">
        <ele>910.2228705706075</ele>
        <time>2022-05-20T09:54:35Z</time>
      </trkpt>
      <trkpt lat="42.429326" lon="-5.233755">
        <ele>910.9927197517827</ele>
        <time>2022-05-20T09:54:41Z</time>
      </trkpt>
      <trkpt lat="42.429378" lon="-5.233858">
        <ele>912.1178900273517</ele>
        <time>2022-05-20T09:54:48Z</time>
      </trkpt>
      <trkpt lat="42.429433" lon="-5.233978">
        <ele>913.3495396962389</ele>
        <time>2022-05-20T09:54:55Z</time>
      </trkpt>
      <trkpt lat="42.429481" lon="-5.234093">
        <ele>914.7987863989547</ele>
        <time>2022-05-20T09:55:03Z</time>
      </trkpt>
      <trkpt lat="42.429543" lon="-5.234194">
        <ele>913.2355589661747</ele>
        <time>2022-05-20T09:55:11Z</time>
      </trkpt>
      <trkpt lat="42.429586" lon="-5.234301">
        <ele>913.7222777828574</ele>
        <time>2022-05-20T09:55:20Z</time>
      </trkpt>
      <trkpt lat="42.42964" lon="-5.234403">
        <ele>914.6380742406473</ele>
        <time>2022-05-20T09:55:25Z</time>
      </trkpt>
      <trkpt lat="42.429689" lon="-5.234524">
        <ele>914.2098143678159</ele>
        <time>2022-05-20T09:55:31Z</time>
      </trkpt>
      <trkpt lat="42.429737" lon="-5.234633">
        <ele>914.2049823822454</ele>
        <time>2022-05-20T09:55:41Z</time>
      </trkpt>
      <trkpt lat="42.429787" lon="-5.23474">
        <ele>914.3300688732415</ele>
        <time>2022-05-20T09:55:49Z</time>
      </trkpt>
      <trkpt lat="42.429853" lon="-5.234838">
        <ele>915.9420749973506</ele>
        <time>2022-05-20T09:55:58Z</time>
      </trkpt>
      <trkpt lat="42.429893" lon="-5.234952">
        <ele>914.3703125212342</ele>
        <time>2022-05-20T09:56:06Z</time>
      </trkpt>
      <trkpt lat="42.429934" lon="-5.23506">
        <ele>915.7114569647238</ele>
        <time>2022-05-20T09:56:15Z</time>
      </trkpt>
      <trkpt lat="42.429987" lon="-5.235163">
        <ele>914.2322162976488</ele>
        <time>2022-05-20T09:56:21Z</time>
      </trkpt>
      <trkpt lat="42.430028" lon="-5.235283">
        <ele>913.9897262938321</ele>
        <time>2022-05-20T09:56:29Z</time>
      </trkpt>
      <trkpt lat="42.43008" lon="-5.235384">
        <ele>913.3819554019719</ele>
        <time>2022-05-20T09:56:36Z</time>
      </trkpt>
      <trkpt lat="42.430133" lon="-5.23549">
        <ele>914.30121274665</ele>
        <time>2022-05-20T09:56:43Z</time>
      </trkpt>
      <trkpt lat="42.430177" lon="-5.2356">
        <ele>913.401302088052</ele>
        <time>2022-05-20T09:56:49Z</time>
      </trkpt>
      <trkpt lat="42.430236" lon="-5.235711">
        <ele>911.4668145179749</ele>
        <time>2022-05-20T09:56:55Z</time>
      </trkpt>
      <trkpt lat="42.430287" lon="-5.235824">
        <ele>911.0797578208148</ele>
        <time>2022-05-20T09:57:01Z</time>
      </trkpt>
      <trkpt lat="42.430339" lon="-5.235934">
        <ele>911.1239694012329</ele>
        <time>2022-05-20T09:57:09Z</time>
      </trkpt>
      <trkpt lat="42.430397" lon="-5.236037">
        <ele>910.3924882588908</ele>
        <time>2022-05-20T09:57:16Z</time>
      </trkpt>
      <trkpt lat="42.430445" lon="-5.23616">
        <ele>912.3895644294098</ele>
        <time>2022-05-20T09:57:24Z</time>
      </trkpt>
      <trkpt lat="42.430501" lon="-5.236297">
        <ele>911.5968815721571</ele>
        <time>2022-05-20T09:57:33Z</time>
      </trkpt>
      <trkpt lat="42.430546" lon="-5.236408">
        <ele>909.5294760726392</ele>
        <time>2022-05-20T09:57:41Z</time>
      </trkpt>
      <trkpt lat="42.430586" lon="-5.236521">
        <ele>910.5402567312121</ele>
        <time>2022-05-20T09:57:48Z</time>
      </trkpt>
      <trkpt lat="42.430638" lon="-5.236629">
        <ele>910.0704247066751</ele>
        <time>2022-05-20T09:57:56Z</time>
      </trkpt>
      <trkpt lat="42.430706" lon="-5.236733">
        <ele>909.4100831951946</ele>
        <time>2022-05-20T09:58:06Z</time>
      </trkpt>
      <trkpt lat="42.430764" lon="-5.236836">
        <ele>910.3602526504546</ele>
        <time>2022-05-20T09:58:15Z</time>
      </trkpt>
      <trkpt lat="42.430807" lon="-5.23695">
        <ele>909.7746321326122</ele>
        <time>2022-05-20T09:58:24Z</time>
      </trkpt>
      <trkpt lat="42.430852" lon="-5.237057">
        <ele>909.5098181637004</ele>
        <time>2022-05-20T09:58:30Z</time>
      </trkpt>
      <trkpt lat="42.430897" lon="-5.237175">
        <ele>911.2429958842695</ele>
        <time>2022-05-20T09:58:38Z</time>
      </trkpt>
      <trkpt lat="42.430944" lon="-5.237296">
        <ele>911.692948019132</ele>
        <time>2022-05-20T09:58:46Z</time>
      </trkpt>
      <trkpt lat="42.430969" lon="-5.237415">
        <ele>911.5986838787794</ele>
        <time>2022-05-20T09:58:55Z</time>
      </trkpt>
      <trkpt lat="42.430995" lon="-5.237532">
        <ele>911.2063523149118</ele>
        <time>2022-05-20T09:59:01Z</time>
      </trkpt>
      <trkpt lat="42.431041" lon="-5.237656">
        <ele>910.024092560634</ele>
        <time>2022-05-20T09:59:09Z</time>
      </trkpt>
      <trkpt lat="42.431107" lon="-5.237781">
        <ele>910.7588318577036</ele>
        <time>2022-05-20T10:00:18Z</time>
      </trkpt>
      <trkpt lat="42.431142" lon="-5.237902">
        <ele>912.385845920071</ele>
        <time>2022-05-20T10:00:31Z</time>
      </trkpt>
      <trkpt lat="42.431182" lon="-5.238026">
        <ele>913.3027294045314</ele>
        <time>2022-05-20T10:00:45Z</time>
      </trkpt>
      <trkpt lat="42.431227" lon="-5.238144">
        <ele>914.6593338726088</ele>
        <time>2022-05-20T10:00:58Z</time>
      </trkpt>
      <trkpt lat="42.431268" lon="-5.238263">
        <ele>915.9786930177361</ele>
        <time>2022-05-20T10:01:05Z</time>
      </trkpt>
      <trkpt lat="42.431304" lon="-5.238388">
        <ele>916.4358831914142</ele>
        <time>2022-05-20T10:01:13Z</time>
      </trkpt>
      <trkpt lat="42.431353" lon="-5.238497">
        <ele>917.6699777496979</ele>
        <time>2022-05-20T10:01:19Z</time>
      </trkpt>
      <trkpt lat="42.431401" lon="-5.238603">
        <ele>919.9729208555073</ele>
        <time>2022-05-20T10:01:26Z</time>
      </trkpt>
      <trkpt lat="42.431435" lon="-5.238726">
        <ele>920.9884544909</ele>
        <time>2022-05-20T10:01:34Z</time>
      </trkpt>
      <trkpt lat="42.431483" lon="-5.238855">
        <ele>921.1341746458784</ele>
        <time>2022-05-20T10:01:43Z</time>
      </trkpt>
      <trkpt lat="42.43152" lon="-5.238983">
        <ele>920.8970057237893</ele>
        <time>2022-05-20T10:01:51Z</time>
      </trkpt>
      <trkpt lat="42.431572" lon="-5.23911">
        <ele>921.3720804816112</ele>
        <time>2022-05-20T10:01:58Z</time>
      </trkpt>
      <trkpt lat="42.431614" lon="-5.239224">
        <ele>921.4873985461891</ele>
        <time>2022-05-20T10:02:05Z</time>
      </trkpt>
      <trkpt lat="42.431666" lon="-5.239326">
        <ele>920.7867633597925</ele>
        <time>2022-05-20T10:02:13Z</time>
      </trkpt>
      <trkpt lat="42.431691" lon="-5.239469">
        <ele>919.4636850701645</ele>
        <time>2022-05-20T10:02:23Z</time>
      </trkpt>
      <trkpt lat="42.43173" lon="-5.239579">
        <ele>917.1016614288092</ele>
        <time>2022-05-20T10:02:30Z</time>
      </trkpt>
      <trkpt lat="42.431773" lon="-5.2397">
        <ele>915.0718286409974</ele>
        <time>2022-05-20T10:02:39Z</time>
      </trkpt>
      <trkpt lat="42.431793" lon="-5.239825">
        <ele>914.1286580106243</ele>
        <time>2022-05-20T10:02:48Z</time>
      </trkpt>
      <trkpt lat="42.431839" lon="-5.23994">
        <ele>913.2257722103968</ele>
        <time>2022-05-20T10:02:56Z</time>
      </trkpt>
      <trkpt lat="42.431873" lon="-5.24007">
        <ele>912.6612094640732</ele>
        <time>2022-05-20T10:03:05Z</time>
      </trkpt>
      <trkpt lat="42.431932" lon="-5.240167">
        <ele>913.6725824503228</ele>
        <time>2022-05-20T10:03:11Z</time>
      </trkpt>
      <trkpt lat="42.431985" lon="-5.240266">
        <ele>913.7063964623958</ele>
        <time>2022-05-20T10:03:19Z</time>
      </trkpt>
      <trkpt lat="42.432013" lon="-5.240382">
        <ele>912.9018141925335</ele>
        <time>2022-05-20T10:03:26Z</time>
      </trkpt>
      <trkpt lat="42.432039" lon="-5.240513">
        <ele>910.7782635642216</ele>
        <time>2022-05-20T10:03:34Z</time>
      </trkpt>
      <trkpt lat="42.43207" lon="-5.240634">
        <ele>911.0490832803771</ele>
        <time>2022-05-20T10:03:46Z</time>
      </trkpt>
      <trkpt lat="42.432111" lon="-5.240758">
        <ele>911.9864168083295</ele>
        <time>2022-05-20T10:03:56Z</time>
      </trkpt>
      <trkpt lat="42.43215" lon="-5.240878">
        <ele>911.2873503044248</ele>
        <time>2022-05-20T10:04:04Z</time>
      </trkpt>
      <trkpt lat="42.432177" lon="-5.241001">
        <ele>911.5602637417614</ele>
        <time>2022-05-20T10:04:11Z</time>
      </trkpt>
      <trkpt lat="42.432216" lon="-5.241122">
        <ele>912.1352593610063</ele>
        <time>2022-05-20T10:04:18Z</time>
      </trkpt>
      <trkpt lat="42.432261" lon="-5.24124">
        <ele>910.8212049109861</ele>
        <time>2022-05-20T10:04:26Z</time>
      </trkpt>
      <trkpt lat="42.432284" lon="-5.241366">
        <ele>910.4713312769309</ele>
        <time>2022-05-20T10:04:34Z</time>
      </trkpt>
      <trkpt lat="42.432317" lon="-5.241484">
        <ele>910.0346799604595</ele>
        <time>2022-05-20T10:04:40Z</time>
      </trkpt>
      <trkpt lat="42.432348" lon="-5.241601">
        <ele>908.9198178164661</ele>
        <time>2022-05-20T10:04:46Z</time>
      </trkpt>
      <trkpt lat="42.432375" lon="-5.241724">
        <ele>908.2935811700299</ele>
        <time>2022-05-20T10:04:53Z</time>
      </trkpt>
      <trkpt lat="42.432401" lon="-5.241853">
        <ele>908.0632089553401</ele>
        <time>2022-05-20T10:05:03Z</time>
      </trkpt>
      <trkpt lat="42.432449" lon="-5.241971">
        <ele>907.0736468238756</ele>
        <time>2022-05-20T10:05:09Z</time>
      </trkpt>
      <trkpt lat="42.432493" lon="-5.242109">
        <ele>907.0917377499864</ele>
        <time>2022-05-20T10:05:18Z</time>
      </trkpt>
      <trkpt lat="42.432545" lon="-5.242217">
        <ele>907.2088147215545</ele>
        <time>2022-05-20T10:05:24Z</time>
      </trkpt>
      <trkpt lat="42.43257" lon="-5.242335">
        <ele>908.3611662909389</ele>
        <time>2022-05-20T10:05:31Z</time>
      </trkpt>
      <trkpt lat="42.432593" lon="-5.242463">
        <ele>908.600612424314</ele>
        <time>2022-05-20T10:05:39Z</time>
      </trkpt>
      <trkpt lat="42.432637" lon="-5.24258">
        <ele>906.9155445322394</ele>
        <time>2022-05-20T10:05:48Z</time>
      </trkpt>
      <trkpt lat="42.432694" lon="-5.242676">
        <ele>907.8608648516238</ele>
        <time>2022-05-20T10:05:54Z</time>
      </trkpt>
      <trkpt lat="42.432727" lon="-5.242799">
        <ele>907.0898197703063</ele>
        <time>2022-05-20T10:06:00Z</time>
      </trkpt>
      <trkpt lat="42.432768" lon="-5.242928">
        <ele>905.9411600967869</ele>
        <time>2022-05-20T10:06:06Z</time>
      </trkpt>
      <trkpt lat="42.432796" lon="-5.243055">
        <ele>909.4298368338495</ele>
        <time>2022-05-20T10:06:14Z</time>
      </trkpt>
      <trkpt lat="42.432831" lon="-5.243172">
        <ele>910.6256896229461</ele>
        <time>2022-05-20T10:06:21Z</time>
      </trkpt>
      <trkpt lat="42.432882" lon="-5.243289">
        <ele>908.9611068395898</ele>
        <time>2022-05-20T10:06:28Z</time>
      </trkpt>
      <trkpt lat="42.432944" lon="-5.243411">
        <ele>909.7921161167324</ele>
        <time>2022-05-20T10:06:38Z</time>
      </trkpt>
      <trkpt lat="42.432993" lon="-5.243518">
        <ele>909.8075561057776</ele>
        <time>2022-05-20T10:06:45Z</time>
      </trkpt>
      <trkpt lat="42.433034" lon="-5.243634">
        <ele>909.9616923658177</ele>
        <time>2022-05-20T10:06:56Z</time>
      </trkpt>
      <trkpt lat="42.433068" lon="-5.243746">
        <ele>911.8378102937713</ele>
        <time>2022-05-20T10:07:09Z</time>
      </trkpt>
      <trkpt lat="42.433077" lon="-5.243869">
        <ele>913.2131574461237</ele>
        <time>2022-05-20T10:07:27Z</time>
      </trkpt>
      <trkpt lat="42.433011" lon="-5.243962">
        <ele>907.4240526389331</ele>
        <time>2022-05-20T10:07:57Z</time>
      </trkpt>
      <trkpt lat="42.432917" lon="-5.243942">
        <ele>907.850117421709</ele>
        <time>2022-05-20T10:08:17Z</time>
      </trkpt>
      <trkpt lat="42.432827" lon="-5.243933">
        <ele>911.7353244861588</ele>
        <time>2022-05-20T10:30:25Z</time>
      </trkpt>
      <trkpt lat="42.432923" lon="-5.243939">
        <ele>907.257292685099</ele>
        <time>2022-05-20T10:34:30Z</time>
      </trkpt>
      <trkpt lat="42.433012" lon="-5.243976">
        <ele>909.6490170704201</ele>
        <time>2022-05-20T10:34:52Z</time>
      </trkpt>
      <trkpt lat="42.433104" lon="-5.243954">
        <ele>908.6453388556838</ele>
        <time>2022-05-20T10:34:58Z</time>
      </trkpt>
      <trkpt lat="42.433202" lon="-5.243931">
        <ele>908.7357368860394</ele>
        <time>2022-05-20T10:35:07Z</time>
      </trkpt>
      <trkpt lat="42.433292" lon="-5.243968">
        <ele>910.7593279853463</ele>
        <time>2022-05-20T10:35:21Z</time>
      </trkpt>
      <trkpt lat="42.433351" lon="-5.24407">
        <ele>913.8955111745745</ele>
        <time>2022-05-20T10:35:40Z</time>
      </trkpt>
      <trkpt lat="42.43341" lon="-5.244173">
        <ele>914.3793829185888</ele>
        <time>2022-05-20T10:35:50Z</time>
      </trkpt>
      <trkpt lat="42.433448" lon="-5.244285">
        <ele>916.4100098032504</ele>
        <time>2022-05-20T10:36:01Z</time>
      </trkpt>
      <trkpt lat="42.433479" lon="-5.244403">
        <ele>915.4108489407226</ele>
        <time>2022-05-20T10:36:10Z</time>
      </trkpt>
      <trkpt lat="42.433517" lon="-5.244517">
        <ele>915.1801333874464</ele>
        <time>2022-05-20T10:36:18Z</time>
      </trkpt>
      <trkpt lat="42.433563" lon="-5.244628">
        <ele>914.8119707312435</ele>
        <time>2022-05-20T10:36:25Z</time>
      </trkpt>
      <trkpt lat="42.433613" lon="-5.244751">
        <ele>912.8455824004486</ele>
        <time>2022-05-20T10:36:35Z</time>
      </trkpt>
      <trkpt lat="42.433651" lon="-5.244866">
        <ele>913.5752028897405</ele>
        <time>2022-05-20T10:36:42Z</time>
      </trkpt>
      <trkpt lat="42.433703" lon="-5.244978">
        <ele>912.1394725749269</ele>
        <time>2022-05-20T10:36:51Z</time>
      </trkpt>
      <trkpt lat="42.433743" lon="-5.245092">
        <ele>909.5184979513288</ele>
        <time>2022-05-20T10:36:59Z</time>
      </trkpt>
      <trkpt lat="42.433794" lon="-5.245201">
        <ele>908.4122240692377</ele>
        <time>2022-05-20T10:37:06Z</time>
      </trkpt>
      <trkpt lat="42.433843" lon="-5.245309">
        <ele>907.4949507527053</ele>
        <time>2022-05-20T10:37:13Z</time>
      </trkpt>
      <trkpt lat="42.433906" lon="-5.245404">
        <ele>907.5863895351067</ele>
        <time>2022-05-20T10:37:19Z</time>
      </trkpt>
      <trkpt lat="42.433965" lon="-5.245511">
        <ele>908.2218776699156</ele>
        <time>2022-05-20T10:37:25Z</time>
      </trkpt>
      <trkpt lat="42.434022" lon="-5.24562">
        <ele>908.9153576027602</ele>
        <time>2022-05-20T10:37:31Z</time>
      </trkpt>
      <trkpt lat="42.434071" lon="-5.245724">
        <ele>908.475386781618</ele>
        <time>2022-05-20T10:37:38Z</time>
      </trkpt>
      <trkpt lat="42.434124" lon="-5.245834">
        <ele>909.2760042482987</ele>
        <time>2022-05-20T10:37:46Z</time>
      </trkpt>
      <trkpt lat="42.434181" lon="-5.24594">
        <ele>909.2039008587599</ele>
        <time>2022-05-20T10:37:53Z</time>
      </trkpt>
      <trkpt lat="42.434223" lon="-5.246065">
        <ele>909.953733692877</ele>
        <time>2022-05-20T10:38:02Z</time>
      </trkpt>
      <trkpt lat="42.434272" lon="-5.246169">
        <ele>910.0236160671338</ele>
        <time>2022-05-20T10:38:10Z</time>
      </trkpt>
      <trkpt lat="42.434333" lon="-5.246276">
        <ele>910.0371181285009</ele>
        <time>2022-05-20T10:38:18Z</time>
      </trkpt>
      <trkpt lat="42.4344" lon="-5.246378">
        <ele>910.660483174026</ele>
        <time>2022-05-20T10:38:27Z</time>
      </trkpt>
      <trkpt lat="42.434464" lon="-5.246472">
        <ele>910.747666885145</ele>
        <time>2022-05-20T10:38:35Z</time>
      </trkpt>
      <trkpt lat="42.434526" lon="-5.246573">
        <ele>911.4143407773226</ele>
        <time>2022-05-20T10:38:43Z</time>
      </trkpt>
      <trkpt lat="42.434577" lon="-5.246677">
        <ele>911.8881264692172</ele>
        <time>2022-05-20T10:38:51Z</time>
      </trkpt>
      <trkpt lat="42.434633" lon="-5.246776">
        <ele>911.7023469759151</ele>
        <time>2022-05-20T10:39:00Z</time>
      </trkpt>
      <trkpt lat="42.434684" lon="-5.246888">
        <ele>911.8984421873465</ele>
        <time>2022-05-20T10:39:09Z</time>
      </trkpt>
      <trkpt lat="42.43475" lon="-5.246985">
        <ele>912.8269404144958</ele>
        <time>2022-05-20T10:39:16Z</time>
      </trkpt>
      <trkpt lat="42.434822" lon="-5.247083">
        <ele>915.0211400371045</ele>
        <time>2022-05-20T10:39:26Z</time>
      </trkpt>
      <trkpt lat="42.434877" lon="-5.247186">
        <ele>915.7653915090486</ele>
        <time>2022-05-20T10:39:34Z</time>
      </trkpt>
      <trkpt lat="42.434945" lon="-5.247281">
        <ele>918.1633419552818</ele>
        <time>2022-05-20T10:39:43Z</time>
      </trkpt>
      <trkpt lat="42.435002" lon="-5.247383">
        <ele>919.2667041411623</ele>
        <time>2022-05-20T10:39:51Z</time>
      </trkpt>
      <trkpt lat="42.435071" lon="-5.247471">
        <ele>920.7098513767123</ele>
        <time>2022-05-20T10:39:58Z</time>
      </trkpt>
      <trkpt lat="42.435146" lon="-5.247553">
        <ele>922.1780342021957</ele>
        <time>2022-05-20T10:40:06Z</time>
      </trkpt>
      <trkpt lat="42.435191" lon="-5.24766">
        <ele>922.9460466792807</ele>
        <time>2022-05-20T10:40:15Z</time>
      </trkpt>
      <trkpt lat="42.435245" lon="-5.247767">
        <ele>923.6298846658319</ele>
        <time>2022-05-20T10:40:24Z</time>
      </trkpt>
      <trkpt lat="42.435307" lon="-5.24786">
        <ele>923.324242300354</ele>
        <time>2022-05-20T10:40:29Z</time>
      </trkpt>
      <trkpt lat="42.435368" lon="-5.247952">
        <ele>921.0144559536129</ele>
        <time>2022-05-20T10:40:35Z</time>
      </trkpt>
      <trkpt lat="42.435424" lon="-5.248046">
        <ele>920.64587075077</ele>
        <time>2022-05-20T10:40:42Z</time>
      </trkpt>
      <trkpt lat="42.435477" lon="-5.248149">
        <ele>920.8493406660855</ele>
        <time>2022-05-20T10:40:49Z</time>
      </trkpt>
      <trkpt lat="42.43554" lon="-5.248254">
        <ele>922.6577892536297</ele>
        <time>2022-05-20T10:40:58Z</time>
      </trkpt>
      <trkpt lat="42.435612" lon="-5.248351">
        <ele>922.497584941797</ele>
        <time>2022-05-20T10:41:05Z</time>
      </trkpt>
      <trkpt lat="42.435678" lon="-5.248454">
        <ele>922.1286259200424</ele>
        <time>2022-05-20T10:41:12Z</time>
      </trkpt>
      <trkpt lat="42.435735" lon="-5.248568">
        <ele>921.9909268524498</ele>
        <time>2022-05-20T10:41:20Z</time>
      </trkpt>
      <trkpt lat="42.435803" lon="-5.24867">
        <ele>921.204840535298</ele>
        <time>2022-05-20T10:41:26Z</time>
      </trkpt>
      <trkpt lat="42.435864" lon="-5.248767">
        <ele>920.9256531214342</ele>
        <time>2022-05-20T10:41:32Z</time>
      </trkpt>
      <trkpt lat="42.435922" lon="-5.248883">
        <ele>921.4781143283471</ele>
        <time>2022-05-20T10:41:40Z</time>
      </trkpt>
      <trkpt lat="42.435979" lon="-5.248984">
        <ele>920.4607814224437</ele>
        <time>2022-05-20T10:41:47Z</time>
      </trkpt>
      <trkpt lat="42.436034" lon="-5.249088">
        <ele>920.0248774020001</ele>
        <time>2022-05-20T10:41:54Z</time>
      </trkpt>
      <trkpt lat="42.436089" lon="-5.249185">
        <ele>920.8200398050249</ele>
        <time>2022-05-20T10:42:01Z</time>
      </trkpt>
      <trkpt lat="42.436142" lon="-5.249289">
        <ele>921.1738872416317</ele>
        <time>2022-05-20T10:42:08Z</time>
      </trkpt>
      <trkpt lat="42.436215" lon="-5.249397">
        <ele>921.3130535716191</ele>
        <time>2022-05-20T10:42:15Z</time>
      </trkpt>
      <trkpt lat="42.436286" lon="-5.249506">
        <ele>920.9347428502515</ele>
        <time>2022-05-20T10:42:21Z</time>
      </trkpt>
      <trkpt lat="42.436352" lon="-5.249598">
        <ele>920.5401413245127</ele>
        <time>2022-05-20T10:42:27Z</time>
      </trkpt>
      <trkpt lat="42.436407" lon="-5.249698">
        <ele>920.5599868725985</ele>
        <time>2022-05-20T10:42:34Z</time>
      </trkpt>
      <trkpt lat="42.436465" lon="-5.249797">
        <ele>920.0443089632317</ele>
        <time>2022-05-20T10:42:40Z</time>
      </trkpt>
      <trkpt lat="42.436511" lon="-5.249902">
        <ele>921.1425065035</ele>
        <time>2022-05-20T10:42:47Z</time>
      </trkpt>
      <trkpt lat="42.436566" lon="-5.250007">
        <ele>921.2047273945063</ele>
        <time>2022-05-20T10:42:54Z</time>
      </trkpt>
      <trkpt lat="42.436631" lon="-5.250106">
        <ele>921.1044099535793</ele>
        <time>2022-05-20T10:43:00Z</time>
      </trkpt>
      <trkpt lat="42.43669" lon="-5.250209">
        <ele>921.2185602514073</ele>
        <time>2022-05-20T10:43:08Z</time>
      </trkpt>
      <trkpt lat="42.436746" lon="-5.250305">
        <ele>921.8101519076154</ele>
        <time>2022-05-20T10:43:15Z</time>
      </trkpt>
      <trkpt lat="42.436809" lon="-5.250415">
        <ele>920.5311578195542</ele>
        <time>2022-05-20T10:43:23Z</time>
      </trkpt>
      <trkpt lat="42.436854" lon="-5.250528">
        <ele>919.6693763621151</ele>
        <time>2022-05-20T10:43:31Z</time>
      </trkpt>
      <trkpt lat="42.436918" lon="-5.25063">
        <ele>920.1080115595832</ele>
        <time>2022-05-20T10:43:38Z</time>
      </trkpt>
      <trkpt lat="42.436978" lon="-5.250732">
        <ele>922.4050815915689</ele>
        <time>2022-05-20T10:43:46Z</time>
      </trkpt>
      <trkpt lat="42.43703" lon="-5.250842">
        <ele>927.2146005295217</ele>
        <time>2022-05-20T10:43:56Z</time>
      </trkpt>
      <trkpt lat="42.437096" lon="-5.250942">
        <ele>932.0178434029222</ele>
        <time>2022-05-20T10:44:04Z</time>
      </trkpt>
      <trkpt lat="42.43717" lon="-5.251044">
        <ele>933.8409470682964</ele>
        <time>2022-05-20T10:44:11Z</time>
      </trkpt>
      <trkpt lat="42.437229" lon="-5.25116">
        <ele>935.4803165355697</ele>
        <time>2022-05-20T10:44:21Z</time>
      </trkpt>
      <trkpt lat="42.437307" lon="-5.25128">
        <ele>937.422252192162</ele>
        <time>2022-05-20T10:44:31Z</time>
      </trkpt>
      <trkpt lat="42.437374" lon="-5.251383">
        <ele>938.0636959448457</ele>
        <time>2022-05-20T10:44:37Z</time>
      </trkpt>
      <trkpt lat="42.437432" lon="-5.251483">
        <ele>938.5316885858774</ele>
        <time>2022-05-20T10:44:44Z</time>
      </trkpt>
      <trkpt lat="42.437476" lon="-5.251595">
        <ele>939.641006953083</ele>
        <time>2022-05-20T10:44:52Z</time>
      </trkpt>
      <trkpt lat="42.437543" lon="-5.251719">
        <ele>940.9411042965949</ele>
        <time>2022-05-20T10:45:01Z</time>
      </trkpt>
      <trkpt lat="42.437604" lon="-5.251819">
        <ele>941.8464148472995</ele>
        <time>2022-05-20T10:45:08Z</time>
      </trkpt>
      <trkpt lat="42.437671" lon="-5.251928">
        <ele>941.0728778727353</ele>
        <time>2022-05-20T10:45:16Z</time>
      </trkpt>
      <trkpt lat="42.437726" lon="-5.252026">
        <ele>941.0873158564791</ele>
        <time>2022-05-20T10:45:23Z</time>
      </trkpt>
      <trkpt lat="42.437792" lon="-5.25214">
        <ele>942.0467921653762</ele>
        <time>2022-05-20T10:45:31Z</time>
      </trkpt>
      <trkpt lat="42.437853" lon="-5.252237">
        <ele>941.5023379782215</ele>
        <time>2022-05-20T10:45:38Z</time>
      </trkpt>
      <trkpt lat="42.437915" lon="-5.252346">
        <ele>941.3431365378201</ele>
        <time>2022-05-20T10:45:46Z</time>
      </trkpt>
      <trkpt lat="42.437978" lon="-5.252457">
        <ele>940.1656762566417</ele>
        <time>2022-05-20T10:45:53Z</time>
      </trkpt>
      <trkpt lat="42.438049" lon="-5.252569">
        <ele>940.5549605153501</ele>
        <time>2022-05-20T10:46:01Z</time>
      </trkpt>
      <trkpt lat="42.438113" lon="-5.252661">
        <ele>941.0314024519175</ele>
        <time>2022-05-20T10:46:08Z</time>
      </trkpt>
      <trkpt lat="42.438168" lon="-5.252767">
        <ele>941.9091508276761</ele>
        <time>2022-05-20T10:46:17Z</time>
      </trkpt>
      <trkpt lat="42.438231" lon="-5.252875">
        <ele>943.7450840501115</ele>
        <time>2022-05-20T10:46:27Z</time>
      </trkpt>
      <trkpt lat="42.438287" lon="-5.25298">
        <ele>943.6399659225717</ele>
        <time>2022-05-20T10:46:34Z</time>
      </trkpt>
      <trkpt lat="42.438347" lon="-5.253086">
        <ele>944.1974455965683</ele>
        <time>2022-05-20T10:46:43Z</time>
      </trkpt>
      <trkpt lat="42.438406" lon="-5.253188">
        <ele>944.9702206002548</ele>
        <time>2022-05-20T10:46:50Z</time>
      </trkpt>
      <trkpt lat="42.438464" lon="-5.253289">
        <ele>945.554969349876</ele>
        <time>2022-05-20T10:46:57Z</time>
      </trkpt>
      <trkpt lat="42.438519" lon="-5.253386">
        <ele>944.9106036843732</ele>
        <time>2022-05-20T10:47:04Z</time>
      </trkpt>
      <trkpt lat="42.438576" lon="-5.253492">
        <ele>943.4661819329485</ele>
        <time>2022-05-20T10:47:11Z</time>
      </trkpt>
      <trkpt lat="42.43864" lon="-5.253605">
        <ele>944.1171143325046</ele>
        <time>2022-05-20T10:47:19Z</time>
      </trkpt>
      <trkpt lat="42.438701" lon="-5.253698">
        <ele>944.030037002638</ele>
        <time>2022-05-20T10:47:27Z</time>
      </trkpt>
      <trkpt lat="42.438765" lon="-5.25379">
        <ele>943.5123158562928</ele>
        <time>2022-05-20T10:47:34Z</time>
      </trkpt>
      <trkpt lat="42.438831" lon="-5.253881">
        <ele>942.4921969585121</ele>
        <time>2022-05-20T10:47:40Z</time>
      </trkpt>
      <trkpt lat="42.438885" lon="-5.253981">
        <ele>942.0541465040296</ele>
        <time>2022-05-20T10:47:47Z</time>
      </trkpt>
      <trkpt lat="42.438933" lon="-5.254088">
        <ele>941.750684495084</ele>
        <time>2022-05-20T10:47:55Z</time>
      </trkpt>
      <trkpt lat="42.438982" lon="-5.254195">
        <ele>941.2650163825601</ele>
        <time>2022-05-20T10:48:02Z</time>
      </trkpt>
      <trkpt lat="42.439037" lon="-5.254298">
        <ele>941.7697829632089</ele>
        <time>2022-05-20T10:48:10Z</time>
      </trkpt>
      <trkpt lat="42.439108" lon="-5.254393">
        <ele>941.4446840910241</ele>
        <time>2022-05-20T10:48:18Z</time>
      </trkpt>
      <trkpt lat="42.439174" lon="-5.25449">
        <ele>942.0260595204309</ele>
        <time>2022-05-20T10:48:26Z</time>
      </trkpt>
      <trkpt lat="42.439237" lon="-5.2546">
        <ele>941.3839946975932</ele>
        <time>2022-05-20T10:48:35Z</time>
      </trkpt>
      <trkpt lat="42.439303" lon="-5.2547">
        <ele>941.0675844373181</ele>
        <time>2022-05-20T10:48:42Z</time>
      </trkpt>
      <trkpt lat="42.439372" lon="-5.254794">
        <ele>941.2205530051142</ele>
        <time>2022-05-20T10:48:50Z</time>
      </trkpt>
      <trkpt lat="42.439435" lon="-5.254895">
        <ele>940.7794418195263</ele>
        <time>2022-05-20T10:48:57Z</time>
      </trkpt>
      <trkpt lat="42.439488" lon="-5.254997">
        <ele>940.0098344935104</ele>
        <time>2022-05-20T10:49:05Z</time>
      </trkpt>
      <trkpt lat="42.439554" lon="-5.255093">
        <ele>939.8565671853721</ele>
        <time>2022-05-20T10:49:11Z</time>
      </trkpt>
      <trkpt lat="42.439614" lon="-5.255186">
        <ele>939.0861048782244</ele>
        <time>2022-05-20T10:49:18Z</time>
      </trkpt>
      <trkpt lat="42.439682" lon="-5.255276">
        <ele>938.980992814526</ele>
        <time>2022-05-20T10:49:24Z</time>
      </trkpt>
      <trkpt lat="42.439743" lon="-5.255373">
        <ele>938.4446109281853</ele>
        <time>2022-05-20T10:49:32Z</time>
      </trkpt>
      <trkpt lat="42.439811" lon="-5.255469">
        <ele>939.6651512151584</ele>
        <time>2022-05-20T10:49:40Z</time>
      </trkpt>
      <trkpt lat="42.43988" lon="-5.255566">
        <ele>941.1022283760831</ele>
        <time>2022-05-20T10:49:47Z</time>
      </trkpt>
      <trkpt lat="42.439954" lon="-5.255666">
        <ele>942.761133428663</ele>
        <time>2022-05-20T10:49:54Z</time>
      </trkpt>
      <trkpt lat="42.440015" lon="-5.255767">
        <ele>941.5586951831356</ele>
        <time>2022-05-20T10:50:02Z</time>
      </trkpt>
      <trkpt lat="42.440074" lon="-5.25586">
        <ele>940.3799438225105</ele>
        <time>2022-05-20T10:50:09Z</time>
      </trkpt>
      <trkpt lat="42.440145" lon="-5.255962">
        <ele>939.8475618017837</ele>
        <time>2022-05-20T10:50:16Z</time>
      </trkpt>
      <trkpt lat="42.440207" lon="-5.256052">
        <ele>939.7272354569286</ele>
        <time>2022-05-20T10:50:22Z</time>
      </trkpt>
      <trkpt lat="42.440273" lon="-5.256135">
        <ele>938.4712724713609</ele>
        <time>2022-05-20T10:50:29Z</time>
      </trkpt>
      <trkpt lat="42.440337" lon="-5.256241">
        <ele>938.590478410013</ele>
        <time>2022-05-20T10:50:35Z</time>
      </trkpt>
      <trkpt lat="42.440413" lon="-5.256338">
        <ele>937.6026901258156</ele>
        <time>2022-05-20T10:50:43Z</time>
      </trkpt>
      <trkpt lat="42.440481" lon="-5.256426">
        <ele>937.5267216796055</ele>
        <time>2022-05-20T10:50:49Z</time>
      </trkpt>
      <trkpt lat="42.440549" lon="-5.256512">
        <ele>938.0584193011746</ele>
        <time>2022-05-20T10:50:55Z</time>
      </trkpt>
      <trkpt lat="42.440614" lon="-5.256618">
        <ele>938.1870174724609</ele>
        <time>2022-05-20T10:51:05Z</time>
      </trkpt>
      <trkpt lat="42.440671" lon="-5.256729">
        <ele>938.4568118276075</ele>
        <time>2022-05-20T10:51:13Z</time>
      </trkpt>
      <trkpt lat="42.440734" lon="-5.256833">
        <ele>938.5306608593091</ele>
        <time>2022-05-20T10:51:20Z</time>
      </trkpt>
      <trkpt lat="42.440801" lon="-5.256931">
        <ele>937.7960086278617</ele>
        <time>2022-05-20T10:51:27Z</time>
      </trkpt>
      <trkpt lat="42.440866" lon="-5.257032">
        <ele>938.0605696607381</ele>
        <time>2022-05-20T10:51:33Z</time>
      </trkpt>
      <trkpt lat="42.440931" lon="-5.25712">
        <ele>938.1681118328124</ele>
        <time>2022-05-20T10:51:39Z</time>
      </trkpt>
      <trkpt lat="42.440999" lon="-5.257207">
        <ele>937.949155154638</ele>
        <time>2022-05-20T10:51:45Z</time>
      </trkpt>
      <trkpt lat="42.441075" lon="-5.257306">
        <ele>938.0521072214469</ele>
        <time>2022-05-20T10:51:52Z</time>
      </trkpt>
      <trkpt lat="42.441148" lon="-5.257405">
        <ele>938.8729793829843</ele>
        <time>2022-05-20T10:51:59Z</time>
      </trkpt>
      <trkpt lat="42.441217" lon="-5.257504">
        <ele>939.5247964886948</ele>
        <time>2022-05-20T10:52:05Z</time>
      </trkpt>
      <trkpt lat="42.441279" lon="-5.257594">
        <ele>939.4653829736635</ele>
        <time>2022-05-20T10:52:12Z</time>
      </trkpt>
      <trkpt lat="42.441337" lon="-5.257693">
        <ele>938.9705096287653</ele>
        <time>2022-05-20T10:52:19Z</time>
      </trkpt>
      <trkpt lat="42.4414" lon="-5.257788">
        <ele>939.5958602465689</ele>
        <time>2022-05-20T10:52:27Z</time>
      </trkpt>
      <trkpt lat="42.441469" lon="-5.257876">
        <ele>939.4394721146673</ele>
        <time>2022-05-20T10:52:34Z</time>
      </trkpt>
      <trkpt lat="42.441552" lon="-5.257992">
        <ele>939.7640346027911</ele>
        <time>2022-05-20T10:52:42Z</time>
      </trkpt>
      <trkpt lat="42.441623" lon="-5.258072">
        <ele>939.9717096900567</ele>
        <time>2022-05-20T10:52:48Z</time>
      </trkpt>
      <trkpt lat="42.441702" lon="-5.258195">
        <ele>941.0648672590032</ele>
        <time>2022-05-20T10:52:57Z</time>
      </trkpt>
      <trkpt lat="42.441777" lon="-5.258293">
        <ele>941.5194139704108</ele>
        <time>2022-05-20T10:53:04Z</time>
      </trkpt>
      <trkpt lat="42.441853" lon="-5.25839">
        <ele>942.0006699534133</ele>
        <time>2022-05-20T10:53:12Z</time>
      </trkpt>
      <trkpt lat="42.44192" lon="-5.258485">
        <ele>941.3407617630437</ele>
        <time>2022-05-20T10:53:19Z</time>
      </trkpt>
      <trkpt lat="42.441981" lon="-5.258608">
        <ele>941.4559423876926</ele>
        <time>2022-05-20T10:53:27Z</time>
      </trkpt>
      <trkpt lat="42.442042" lon="-5.258714">
        <ele>942.16805485636</ele>
        <time>2022-05-20T10:53:34Z</time>
      </trkpt>
      <trkpt lat="42.442118" lon="-5.258831">
        <ele>941.6595999151468</ele>
        <time>2022-05-20T10:53:41Z</time>
      </trkpt>
      <trkpt lat="42.442181" lon="-5.258929">
        <ele>940.9604831067845</ele>
        <time>2022-05-20T10:53:47Z</time>
      </trkpt>
      <trkpt lat="42.442254" lon="-5.25903">
        <ele>939.0606270777062</ele>
        <time>2022-05-20T10:53:54Z</time>
      </trkpt>
      <trkpt lat="42.442339" lon="-5.259127">
        <ele>938.7062240689993</ele>
        <time>2022-05-20T10:54:01Z</time>
      </trkpt>
      <trkpt lat="42.442402" lon="-5.259216">
        <ele>939.3471448933706</ele>
        <time>2022-05-20T10:54:07Z</time>
      </trkpt>
      <trkpt lat="42.442463" lon="-5.259309">
        <ele>940.0512728905305</ele>
        <time>2022-05-20T10:54:14Z</time>
      </trkpt>
      <trkpt lat="42.442539" lon="-5.259398">
        <ele>940.8987753707916</ele>
        <time>2022-05-20T10:54:22Z</time>
      </trkpt>
      <trkpt lat="42.442607" lon="-5.259495">
        <ele>939.802190897055</ele>
        <time>2022-05-20T10:54:29Z</time>
      </trkpt>
      <trkpt lat="42.442673" lon="-5.259599">
        <ele>939.7673780499026</ele>
        <time>2022-05-20T10:54:36Z</time>
      </trkpt>
      <trkpt lat="42.44274" lon="-5.259703">
        <ele>939.9981998996809</ele>
        <time>2022-05-20T10:54:43Z</time>
      </trkpt>
      <trkpt lat="42.442803" lon="-5.259798">
        <ele>939.8000549478456</ele>
        <time>2022-05-20T10:54:49Z</time>
      </trkpt>
      <trkpt lat="42.442871" lon="-5.259894">
        <ele>939.6169112902135</ele>
        <time>2022-05-20T10:54:56Z</time>
      </trkpt>
      <trkpt lat="42.442942" lon="-5.259989">
        <ele>937.9120810022578</ele>
        <time>2022-05-20T10:55:03Z</time>
      </trkpt>
      <trkpt lat="42.443011" lon="-5.260079">
        <ele>937.5311260530725</ele>
        <time>2022-05-20T10:55:09Z</time>
      </trkpt>
      <trkpt lat="42.443086" lon="-5.260178">
        <ele>937.8423077892512</ele>
        <time>2022-05-20T10:55:16Z</time>
      </trkpt>
      <trkpt lat="42.443152" lon="-5.260276">
        <ele>937.6680917562917</ele>
        <time>2022-05-20T10:55:23Z</time>
      </trkpt>
      <trkpt lat="42.443221" lon="-5.260391">
        <ele>938.676036067307</ele>
        <time>2022-05-20T10:55:31Z</time>
      </trkpt>
      <trkpt lat="42.443284" lon="-5.260498">
        <ele>939.9189402814955</ele>
        <time>2022-05-20T10:55:39Z</time>
      </trkpt>
      <trkpt lat="42.443356" lon="-5.260588">
        <ele>940.6744672460482</ele>
        <time>2022-05-20T10:55:48Z</time>
      </trkpt>
      <trkpt lat="42.443422" lon="-5.260693">
        <ele>939.4930010531098</ele>
        <time>2022-05-20T10:55:56Z</time>
      </trkpt>
      <trkpt lat="42.44349" lon="-5.260775">
        <ele>938.9438581848517</ele>
        <time>2022-05-20T10:56:03Z</time>
      </trkpt>
      <trkpt lat="42.443556" lon="-5.260871">
        <ele>940.1380035504699</ele>
        <time>2022-05-20T10:56:10Z</time>
      </trkpt>
      <trkpt lat="42.443628" lon="-5.260961">
        <ele>939.0139027070254</ele>
        <time>2022-05-20T10:56:16Z</time>
      </trkpt>
      <trkpt lat="42.443691" lon="-5.261056">
        <ele>938.161194213666</ele>
        <time>2022-05-20T10:56:22Z</time>
      </trkpt>
      <trkpt lat="42.443755" lon="-5.261146">
        <ele>937.8178983200341</ele>
        <time>2022-05-20T10:56:29Z</time>
      </trkpt>
      <trkpt lat="42.443826" lon="-5.261224">
        <ele>937.9013259364292</ele>
        <time>2022-05-20T10:56:36Z</time>
      </trkpt>
      <trkpt lat="42.443901" lon="-5.261323">
        <ele>937.9604001222178</ele>
        <time>2022-05-20T10:56:44Z</time>
      </trkpt>
      <trkpt lat="42.443962" lon="-5.261423">
        <ele>938.1241833874956</ele>
        <time>2022-05-20T10:56:51Z</time>
      </trkpt>
      <trkpt lat="42.444028" lon="-5.261521">
        <ele>937.7944373972714</ele>
        <time>2022-05-20T10:56:58Z</time>
      </trkpt>
      <trkpt lat="42.444094" lon="-5.261623">
        <ele>938.0210010986775</ele>
        <time>2022-05-20T10:57:05Z</time>
      </trkpt>
      <trkpt lat="42.444164" lon="-5.261714">
        <ele>937.6697944514453</ele>
        <time>2022-05-20T10:57:13Z</time>
      </trkpt>
      <trkpt lat="42.444239" lon="-5.261806">
        <ele>936.837211237289</ele>
        <time>2022-05-20T10:57:20Z</time>
      </trkpt>
      <trkpt lat="42.444305" lon="-5.261893">
        <ele>936.8116775937378</ele>
        <time>2022-05-20T10:57:27Z</time>
      </trkpt>
      <trkpt lat="42.444378" lon="-5.261983">
        <ele>936.339220603928</ele>
        <time>2022-05-20T10:57:34Z</time>
      </trkpt>
      <trkpt lat="42.444445" lon="-5.262079">
        <ele>936.3575692567974</ele>
        <time>2022-05-20T10:57:41Z</time>
      </trkpt>
      <trkpt lat="42.444502" lon="-5.262185">
        <ele>936.1652470678091</ele>
        <time>2022-05-20T10:57:48Z</time>
      </trkpt>
      <trkpt lat="42.444565" lon="-5.262294">
        <ele>936.5723973633721</ele>
        <time>2022-05-20T10:57:55Z</time>
      </trkpt>
      <trkpt lat="42.444633" lon="-5.262398">
        <ele>937.7136032832786</ele>
        <time>2022-05-20T10:58:02Z</time>
      </trkpt>
      <trkpt lat="42.444695" lon="-5.262495">
        <ele>936.8243902577087</ele>
        <time>2022-05-20T10:58:09Z</time>
      </trkpt>
      <trkpt lat="42.444753" lon="-5.262601">
        <ele>935.8507844628766</ele>
        <time>2022-05-20T10:58:15Z</time>
      </trkpt>
      <trkpt lat="42.444809" lon="-5.262698">
        <ele>934.0948122702539</ele>
        <time>2022-05-20T10:58:21Z</time>
      </trkpt>
      <trkpt lat="42.444868" lon="-5.262808">
        <ele>931.5502776335925</ele>
        <time>2022-05-20T10:58:27Z</time>
      </trkpt>
      <trkpt lat="42.444921" lon="-5.262917">
        <ele>930.1371571896598</ele>
        <time>2022-05-20T10:58:34Z</time>
      </trkpt>
      <trkpt lat="42.444982" lon="-5.263012">
        <ele>928.9230465423316</ele>
        <time>2022-05-20T10:58:42Z</time>
      </trkpt>
      <trkpt lat="42.445053" lon="-5.26309">
        <ele>925.0928739141673</ele>
        <time>2022-05-20T10:58:56Z</time>
      </trkpt>
      <trkpt lat="42.445113" lon="-5.263184">
        <ele>922.7721634889022</ele>
        <time>2022-05-20T10:59:07Z</time>
      </trkpt>
      <trkpt lat="42.445207" lon="-5.263178">
        <ele>919.3385970760137</ele>
        <time>2022-05-20T10:59:18Z</time>
      </trkpt>
      <trkpt lat="42.445248" lon="-5.263301">
        <ele>917.3078129189089</ele>
        <time>2022-05-20T11:00:25Z</time>
      </trkpt>
      <trkpt lat="42.445265" lon="-5.263427">
        <ele>915.6969877192751</ele>
        <time>2022-05-20T11:00:33Z</time>
      </trkpt>
      <trkpt lat="42.445316" lon="-5.263535">
        <ele>912.8782665906474</ele>
        <time>2022-05-20T11:00:45Z</time>
      </trkpt>
      <trkpt lat="42.445369" lon="-5.263641">
        <ele>911.6597681967542</ele>
        <time>2022-05-20T11:00:53Z</time>
      </trkpt>
      <trkpt lat="42.445432" lon="-5.26375">
        <ele>910.7302828198299</ele>
        <time>2022-05-20T11:01:01Z</time>
      </trkpt>
      <trkpt lat="42.445491" lon="-5.263853">
        <ele>911.3221605708823</ele>
        <time>2022-05-20T11:01:15Z</time>
      </trkpt>
      <trkpt lat="42.445558" lon="-5.263958">
        <ele>912.4600080288947</ele>
        <time>2022-05-20T11:01:24Z</time>
      </trkpt>
      <trkpt lat="42.445613" lon="-5.264068">
        <ele>914.1706260899082</ele>
        <time>2022-05-20T11:01:31Z</time>
      </trkpt>
      <trkpt lat="42.445661" lon="-5.264192">
        <ele>914.3918734183535</ele>
        <time>2022-05-20T11:01:38Z</time>
      </trkpt>
      <trkpt lat="42.44571" lon="-5.264318">
        <ele>913.1214269576594</ele>
        <time>2022-05-20T11:01:48Z</time>
      </trkpt>
      <trkpt lat="42.445789" lon="-5.264419">
        <ele>914.4565432751551</ele>
        <time>2022-05-20T11:01:58Z</time>
      </trkpt>
      <trkpt lat="42.445854" lon="-5.264515">
        <ele>916.0169346192852</ele>
        <time>2022-05-20T11:02:04Z</time>
      </trkpt>
      <trkpt lat="42.445926" lon="-5.264624">
        <ele>917.6992203388363</ele>
        <time>2022-05-20T11:02:11Z</time>
      </trkpt>
      <trkpt lat="42.445993" lon="-5.264727">
        <ele>918.979480327107</ele>
        <time>2022-05-20T11:02:18Z</time>
      </trkpt>
      <trkpt lat="42.446048" lon="-5.264824">
        <ele>919.5501724071801</ele>
        <time>2022-05-20T11:02:24Z</time>
      </trkpt>
      <trkpt lat="42.446108" lon="-5.26492">
        <ele>921.2097235769033</ele>
        <time>2022-05-20T11:02:30Z</time>
      </trkpt>
      <trkpt lat="42.446181" lon="-5.265022">
        <ele>922.9566697617993</ele>
        <time>2022-05-20T11:02:38Z</time>
      </trkpt>
      <trkpt lat="42.446235" lon="-5.265127">
        <ele>925.6492722528055</ele>
        <time>2022-05-20T11:02:45Z</time>
      </trkpt>
      <trkpt lat="42.446307" lon="-5.265237">
        <ele>927.0451139165089</ele>
        <time>2022-05-20T11:02:53Z</time>
      </trkpt>
      <trkpt lat="42.446368" lon="-5.26535">
        <ele>927.4235309772193</ele>
        <time>2022-05-20T11:03:00Z</time>
      </trkpt>
      <trkpt lat="42.446436" lon="-5.265456">
        <ele>928.8208147501573</ele>
        <time>2022-05-20T11:03:08Z</time>
      </trkpt>
      <trkpt lat="42.446501" lon="-5.265546">
        <ele>929.6226583924145</ele>
        <time>2022-05-20T11:03:15Z</time>
      </trkpt>
      <trkpt lat="42.446552" lon="-5.265651">
        <ele>930.0734645901248</ele>
        <time>2022-05-20T11:03:21Z</time>
      </trkpt>
      <trkpt lat="42.446615" lon="-5.265764">
        <ele>929.890893092379</ele>
        <time>2022-05-20T11:03:28Z</time>
      </trkpt>
      <trkpt lat="42.446662" lon="-5.265871">
        <ele>930.4675724804401</ele>
        <time>2022-05-20T11:03:34Z</time>
      </trkpt>
      <trkpt lat="42.446716" lon="-5.265987">
        <ele>930.8002322167158</ele>
        <time>2022-05-20T11:03:41Z</time>
      </trkpt>
      <trkpt lat="42.446773" lon="-5.266089">
        <ele>931.5707511715591</ele>
        <time>2022-05-20T11:03:48Z</time>
      </trkpt>
      <trkpt lat="42.446836" lon="-5.266202">
        <ele>932.1800211435184</ele>
        <time>2022-05-20T11:03:55Z</time>
      </trkpt>
      <trkpt lat="42.4469" lon="-5.266325">
        <ele>932.1352527840063</ele>
        <time>2022-05-20T11:04:03Z</time>
      </trkpt>
      <trkpt lat="42.446957" lon="-5.266421">
        <ele>932.4089358886704</ele>
        <time>2022-05-20T11:04:10Z</time>
      </trkpt>
      <trkpt lat="42.447021" lon="-5.266532">
        <ele>931.8606942752376</ele>
        <time>2022-05-20T11:04:17Z</time>
      </trkpt>
      <trkpt lat="42.44708" lon="-5.266644">
        <ele>931.2751082973555</ele>
        <time>2022-05-20T11:04:24Z</time>
      </trkpt>
      <trkpt lat="42.447137" lon="-5.266744">
        <ele>931.2545409016311</ele>
        <time>2022-05-20T11:04:31Z</time>
      </trkpt>
      <trkpt lat="42.447204" lon="-5.266845">
        <ele>931.0943533983082</ele>
        <time>2022-05-20T11:04:38Z</time>
      </trkpt>
      <trkpt lat="42.447267" lon="-5.266937">
        <ele>930.6675830641761</ele>
        <time>2022-05-20T11:04:45Z</time>
      </trkpt>
      <trkpt lat="42.447328" lon="-5.267039">
        <ele>930.4147204533219</ele>
        <time>2022-05-20T11:04:52Z</time>
      </trkpt>
      <trkpt lat="42.447397" lon="-5.26714">
        <ele>929.474192192778</ele>
        <time>2022-05-20T11:04:59Z</time>
      </trkpt>
      <trkpt lat="42.447455" lon="-5.267241">
        <ele>929.8615511422977</ele>
        <time>2022-05-20T11:05:06Z</time>
      </trkpt>
      <trkpt lat="42.447511" lon="-5.267357">
        <ele>929.9526694314554</ele>
        <time>2022-05-20T11:05:13Z</time>
      </trkpt>
      <trkpt lat="42.447563" lon="-5.267461">
        <ele>930.2153596077114</ele>
        <time>2022-05-20T11:05:20Z</time>
      </trkpt>
      <trkpt lat="42.447629" lon="-5.26756">
        <ele>929.964000900276</ele>
        <time>2022-05-20T11:05:27Z</time>
      </trkpt>
      <trkpt lat="42.447691" lon="-5.267653">
        <ele>929.217651435174</ele>
        <time>2022-05-20T11:05:34Z</time>
      </trkpt>
      <trkpt lat="42.447746" lon="-5.267772">
        <ele>927.7380959717557</ele>
        <time>2022-05-20T11:05:42Z</time>
      </trkpt>
      <trkpt lat="42.447805" lon="-5.267873">
        <ele>927.1829144963995</ele>
        <time>2022-05-20T11:05:49Z</time>
      </trkpt>
      <trkpt lat="42.447863" lon="-5.267972">
        <ele>928.2107854858041</ele>
        <time>2022-05-20T11:05:55Z</time>
      </trkpt>
      <trkpt lat="42.447918" lon="-5.268078">
        <ele>928.7818832704797</ele>
        <time>2022-05-20T11:06:02Z</time>
      </trkpt>
      <trkpt lat="42.447976" lon="-5.268199">
        <ele>930.085861267522</ele>
        <time>2022-05-20T11:06:09Z</time>
      </trkpt>
      <trkpt lat="42.448034" lon="-5.2683">
        <ele>931.4685285473242</ele>
        <time>2022-05-20T11:06:16Z</time>
      </trkpt>
      <trkpt lat="42.448075" lon="-5.268425">
        <ele>930.2762019513175</ele>
        <time>2022-05-20T11:06:24Z</time>
      </trkpt>
      <trkpt lat="42.448121" lon="-5.26853">
        <ele>928.9252707250416</ele>
        <time>2022-05-20T11:06:32Z</time>
      </trkpt>
      <trkpt lat="42.44817" lon="-5.268646">
        <ele>928.1466526482254</ele>
        <time>2022-05-20T11:06:47Z</time>
      </trkpt>
      <trkpt lat="42.448218" lon="-5.268761">
        <ele>929.7541358089074</ele>
        <time>2022-05-20T11:06:54Z</time>
      </trkpt>
      <trkpt lat="42.448267" lon="-5.268862">
        <ele>930.3955749077722</ele>
        <time>2022-05-20T11:07:12Z</time>
      </trkpt>
      <trkpt lat="42.448318" lon="-5.268965">
        <ele>929.8032219288871</ele>
        <time>2022-05-20T11:07:18Z</time>
      </trkpt>
      <trkpt lat="42.448353" lon="-5.269087">
        <ele>929.0391647685319</ele>
        <time>2022-05-20T11:07:25Z</time>
      </trkpt>
      <trkpt lat="42.448408" lon="-5.269206">
        <ele>929.0908256582916</ele>
        <time>2022-05-20T11:07:32Z</time>
      </trkpt>
      <trkpt lat="42.448449" lon="-5.269317">
        <ele>929.3104198528454</ele>
        <time>2022-05-20T11:07:39Z</time>
      </trkpt>
      <trkpt lat="42.448491" lon="-5.269437">
        <ele>928.8442865693942</ele>
        <time>2022-05-20T11:07:47Z</time>
      </trkpt>
      <trkpt lat="42.448541" lon="-5.269556">
        <ele>928.9571103081107</ele>
        <time>2022-05-20T11:07:55Z</time>
      </trkpt>
      <trkpt lat="42.448587" lon="-5.269666">
        <ele>929.9158810060471</ele>
        <time>2022-05-20T11:08:02Z</time>
      </trkpt>
      <trkpt lat="42.448632" lon="-5.26978">
        <ele>929.8814125210047</ele>
        <time>2022-05-20T11:08:09Z</time>
      </trkpt>
      <trkpt lat="42.44868" lon="-5.269885">
        <ele>930.2294598501176</ele>
        <time>2022-05-20T11:08:15Z</time>
      </trkpt>
      <trkpt lat="42.448724" lon="-5.270006">
        <ele>931.3065419839695</ele>
        <time>2022-05-20T11:08:23Z</time>
      </trkpt>
      <trkpt lat="42.448769" lon="-5.270118">
        <ele>931.565660183318</ele>
        <time>2022-05-20T11:08:30Z</time>
      </trkpt>
      <trkpt lat="42.448817" lon="-5.270232">
        <ele>930.4084291364998</ele>
        <time>2022-05-20T11:08:37Z</time>
      </trkpt>
      <trkpt lat="42.448862" lon="-5.270342">
        <ele>929.6259367894381</ele>
        <time>2022-05-20T11:08:44Z</time>
      </trkpt>
      <trkpt lat="42.448912" lon="-5.270463">
        <ele>930.0848422674462</ele>
        <time>2022-05-20T11:08:51Z</time>
      </trkpt>
      <trkpt lat="42.448956" lon="-5.270572">
        <ele>929.7344375317916</ele>
        <time>2022-05-20T11:08:58Z</time>
      </trkpt>
      <trkpt lat="42.449012" lon="-5.270689">
        <ele>929.9236069656909</ele>
        <time>2022-05-20T11:09:05Z</time>
      </trkpt>
      <trkpt lat="42.449056" lon="-5.270817">
        <ele>929.0000541359186</ele>
        <time>2022-05-20T11:09:12Z</time>
      </trkpt>
      <trkpt lat="42.449105" lon="-5.270925">
        <ele>928.4062582906336</ele>
        <time>2022-05-20T11:09:19Z</time>
      </trkpt>
      <trkpt lat="42.449148" lon="-5.271045">
        <ele>928.6991954743862</ele>
        <time>2022-05-20T11:09:26Z</time>
      </trkpt>
      <trkpt lat="42.449189" lon="-5.27117">
        <ele>928.49508659821</ele>
        <time>2022-05-20T11:09:33Z</time>
      </trkpt>
      <trkpt lat="42.449237" lon="-5.27129">
        <ele>927.2010336527601</ele>
        <time>2022-05-20T11:09:40Z</time>
      </trkpt>
      <trkpt lat="42.449279" lon="-5.271405">
        <ele>926.2682261485606</ele>
        <time>2022-05-20T11:09:47Z</time>
      </trkpt>
      <trkpt lat="42.44932" lon="-5.27152">
        <ele>925.3103961218148</ele>
        <time>2022-05-20T11:09:56Z</time>
      </trkpt>
      <trkpt lat="42.449357" lon="-5.271639">
        <ele>924.7241542134434</ele>
        <time>2022-05-20T11:10:05Z</time>
      </trkpt>
      <trkpt lat="42.449406" lon="-5.271753">
        <ele>923.9004511209205</ele>
        <time>2022-05-20T11:10:13Z</time>
      </trkpt>
      <trkpt lat="42.449446" lon="-5.271866">
        <ele>924.4098609313369</ele>
        <time>2022-05-20T11:10:20Z</time>
      </trkpt>
      <trkpt lat="42.449501" lon="-5.271989">
        <ele>925.1562356539071</ele>
        <time>2022-05-20T11:10:26Z</time>
      </trkpt>
      <trkpt lat="42.449556" lon="-5.272109">
        <ele>925.6556856120005</ele>
        <time>2022-05-20T11:10:33Z</time>
      </trkpt>
      <trkpt lat="42.449606" lon="-5.272211">
        <ele>926.191519588232</ele>
        <time>2022-05-20T11:10:40Z</time>
      </trkpt>
      <trkpt lat="42.449656" lon="-5.272319">
        <ele>926.9380282517523</ele>
        <time>2022-05-20T11:10:47Z</time>
      </trkpt>
      <trkpt lat="42.4497" lon="-5.272435">
        <ele>927.3907896270975</ele>
        <time>2022-05-20T11:10:53Z</time>
      </trkpt>
      <trkpt lat="42.44975" lon="-5.27256">
        <ele>927.6954169962555</ele>
        <time>2022-05-20T11:11:00Z</time>
      </trkpt>
      <trkpt lat="42.449792" lon="-5.272669">
        <ele>927.3174016047269</ele>
        <time>2022-05-20T11:11:06Z</time>
      </trkpt>
      <trkpt lat="42.449839" lon="-5.272779">
        <ele>926.9741292679682</ele>
        <time>2022-05-20T11:11:13Z</time>
      </trkpt>
      <trkpt lat="42.449888" lon="-5.27289">
        <ele>926.4739052150398</ele>
        <time>2022-05-20T11:11:21Z</time>
      </trkpt>
      <trkpt lat="42.449951" lon="-5.273">
        <ele>927.3989399382845</ele>
        <time>2022-05-20T11:11:28Z</time>
      </trkpt>
      <trkpt lat="42.450007" lon="-5.273111">
        <ele>927.8572870325297</ele>
        <time>2022-05-20T11:11:36Z</time>
      </trkpt>
      <trkpt lat="42.45006" lon="-5.273221">
        <ele>928.1361092878506</ele>
        <time>2022-05-20T11:11:44Z</time>
      </trkpt>
      <trkpt lat="42.45011" lon="-5.273325">
        <ele>927.7546840570867</ele>
        <time>2022-05-20T11:11:50Z</time>
      </trkpt>
      <trkpt lat="42.45015" lon="-5.273436">
        <ele>927.4739824561402</ele>
        <time>2022-05-20T11:11:56Z</time>
      </trkpt>
      <trkpt lat="42.450203" lon="-5.273548">
        <ele>925.9822652889416</ele>
        <time>2022-05-20T11:12:03Z</time>
      </trkpt>
      <trkpt lat="42.450254" lon="-5.273667">
        <ele>924.9939220072702</ele>
        <time>2022-05-20T11:12:10Z</time>
      </trkpt>
      <trkpt lat="42.450298" lon="-5.273779">
        <ele>923.9735955996439</ele>
        <time>2022-05-20T11:12:16Z</time>
      </trkpt>
      <trkpt lat="42.450348" lon="-5.273904">
        <ele>922.8803012883291</ele>
        <time>2022-05-20T11:12:25Z</time>
      </trkpt>
      <trkpt lat="42.450392" lon="-5.274022">
        <ele>921.969294716604</ele>
        <time>2022-05-20T11:12:31Z</time>
      </trkpt>
      <trkpt lat="42.45044" lon="-5.274127">
        <ele>922.1963447462767</ele>
        <time>2022-05-20T11:12:38Z</time>
      </trkpt>
      <trkpt lat="42.450482" lon="-5.274248">
        <ele>921.7479676762596</ele>
        <time>2022-05-20T11:12:46Z</time>
      </trkpt>
      <trkpt lat="42.450525" lon="-5.274357">
        <ele>919.8668730556965</ele>
        <time>2022-05-20T11:12:54Z</time>
      </trkpt>
      <trkpt lat="42.450572" lon="-5.274473">
        <ele>918.9806799879298</ele>
        <time>2022-05-20T11:13:01Z</time>
      </trkpt>
      <trkpt lat="42.450616" lon="-5.274585">
        <ele>917.7942715855315</ele>
        <time>2022-05-20T11:13:09Z</time>
      </trkpt>
      <trkpt lat="42.450664" lon="-5.274703">
        <ele>917.3648381382227</ele>
        <time>2022-05-20T11:13:16Z</time>
      </trkpt>
      <trkpt lat="42.450716" lon="-5.274808">
        <ele>916.479954123497</ele>
        <time>2022-05-20T11:13:23Z</time>
      </trkpt>
      <trkpt lat="42.450763" lon="-5.274919">
        <ele>916.2707412578166</ele>
        <time>2022-05-20T11:13:31Z</time>
      </trkpt>
      <trkpt lat="42.450804" lon="-5.275033">
        <ele>914.9521253118291</ele>
        <time>2022-05-20T11:13:38Z</time>
      </trkpt>
      <trkpt lat="42.450849" lon="-5.275155">
        <ele>914.8421009527519</ele>
        <time>2022-05-20T11:13:46Z</time>
      </trkpt>
      <trkpt lat="42.450896" lon="-5.275276">
        <ele>914.319371720776</ele>
        <time>2022-05-20T11:13:53Z</time>
      </trkpt>
      <trkpt lat="42.450958" lon="-5.275409">
        <ele>914.0237773442641</ele>
        <time>2022-05-20T11:14:03Z</time>
      </trkpt>
      <trkpt lat="42.451002" lon="-5.275521">
        <ele>913.3495851047337</ele>
        <time>2022-05-20T11:14:10Z</time>
      </trkpt>
      <trkpt lat="42.451038" lon="-5.275637">
        <ele>912.9250227566808</ele>
        <time>2022-05-20T11:14:16Z</time>
      </trkpt>
      <trkpt lat="42.451081" lon="-5.275764">
        <ele>911.5073788836598</ele>
        <time>2022-05-20T11:14:23Z</time>
      </trkpt>
      <trkpt lat="42.45113" lon="-5.275867">
        <ele>910.2710986435413</ele>
        <time>2022-05-20T11:14:30Z</time>
      </trkpt>
      <trkpt lat="42.451187" lon="-5.275987">
        <ele>909.9654463967308</ele>
        <time>2022-05-20T11:14:38Z</time>
      </trkpt>
      <trkpt lat="42.451225" lon="-5.276101">
        <ele>910.9490039963275</ele>
        <time>2022-05-20T11:14:45Z</time>
      </trkpt>
      <trkpt lat="42.451267" lon="-5.276223">
        <ele>911.4582801423967</ele>
        <time>2022-05-20T11:14:53Z</time>
      </trkpt>
      <trkpt lat="42.451312" lon="-5.276335">
        <ele>911.5915882857516</ele>
        <time>2022-05-20T11:15:00Z</time>
      </trkpt>
      <trkpt lat="42.451362" lon="-5.276442">
        <ele>912.4974172078073</ele>
        <time>2022-05-20T11:15:09Z</time>
      </trkpt>
      <trkpt lat="42.451413" lon="-5.276552">
        <ele>913.6093912441283</ele>
        <time>2022-05-20T11:15:17Z</time>
      </trkpt>
      <trkpt lat="42.451464" lon="-5.27667">
        <ele>914.9439638666809</ele>
        <time>2022-05-20T11:15:24Z</time>
      </trkpt>
      <trkpt lat="42.451496" lon="-5.276793">
        <ele>915.4911271743476</ele>
        <time>2022-05-20T11:15:32Z</time>
      </trkpt>
      <trkpt lat="42.451543" lon="-5.276903">
        <ele>915.7262342153117</ele>
        <time>2022-05-20T11:15:39Z</time>
      </trkpt>
      <trkpt lat="42.451584" lon="-5.277019">
        <ele>915.7855989132077</ele>
        <time>2022-05-20T11:15:46Z</time>
      </trkpt>
      <trkpt lat="42.451626" lon="-5.277129">
        <ele>915.6357871592045</ele>
        <time>2022-05-20T11:15:52Z</time>
      </trkpt>
      <trkpt lat="42.45167" lon="-5.277237">
        <ele>915.2971396362409</ele>
        <time>2022-05-20T11:16:01Z</time>
      </trkpt>
      <trkpt lat="42.451727" lon="-5.277368">
        <ele>915.35401019454</ele>
        <time>2022-05-20T11:16:09Z</time>
      </trkpt>
      <trkpt lat="42.451775" lon="-5.277481">
        <ele>915.3073968095705</ele>
        <time>2022-05-20T11:16:17Z</time>
      </trkpt>
      <trkpt lat="42.451817" lon="-5.27759">
        <ele>915.354927293025</ele>
        <time>2022-05-20T11:16:24Z</time>
      </trkpt>
      <trkpt lat="42.451865" lon="-5.277697">
        <ele>914.8707803273574</ele>
        <time>2022-05-20T11:16:31Z</time>
      </trkpt>
      <trkpt lat="42.451906" lon="-5.277818">
        <ele>915.0092377150431</ele>
        <time>2022-05-20T11:16:39Z</time>
      </trkpt>
      <trkpt lat="42.451953" lon="-5.277927">
        <ele>915.3396223299205</ele>
        <time>2022-05-20T11:16:46Z</time>
      </trkpt>
      <trkpt lat="42.452008" lon="-5.278046">
        <ele>915.7447954993695</ele>
        <time>2022-05-20T11:16:54Z</time>
      </trkpt>
      <trkpt lat="42.452056" lon="-5.278163">
        <ele>915.7942043198273</ele>
        <time>2022-05-20T11:17:02Z</time>
      </trkpt>
      <trkpt lat="42.452103" lon="-5.278283">
        <ele>915.4950025435537</ele>
        <time>2022-05-20T11:17:10Z</time>
      </trkpt>
      <trkpt lat="42.452145" lon="-5.278411">
        <ele>917.0331855295226</ele>
        <time>2022-05-20T11:17:19Z</time>
      </trkpt>
      <trkpt lat="42.45219" lon="-5.278529">
        <ele>917.068825234659</ele>
        <time>2022-05-20T11:17:27Z</time>
      </trkpt>
      <trkpt lat="42.452239" lon="-5.278643">
        <ele>916.5312027717009</ele>
        <time>2022-05-20T11:17:35Z</time>
      </trkpt>
      <trkpt lat="42.452293" lon="-5.278778">
        <ele>916.8034284831956</ele>
        <time>2022-05-20T11:17:44Z</time>
      </trkpt>
      <trkpt lat="42.452334" lon="-5.278892">
        <ele>917.4620236484334</ele>
        <time>2022-05-20T11:17:52Z</time>
      </trkpt>
      <trkpt lat="42.452387" lon="-5.278991">
        <ele>917.4168896926567</ele>
        <time>2022-05-20T11:18:00Z</time>
      </trkpt>
      <trkpt lat="42.452429" lon="-5.279114">
        <ele>919.2947629755363</ele>
        <time>2022-05-20T11:18:10Z</time>
      </trkpt>
      <trkpt lat="42.452476" lon="-5.27923">
        <ele>919.6425566952676</ele>
        <time>2022-05-20T11:18:17Z</time>
      </trkpt>
      <trkpt lat="42.452536" lon="-5.279355">
        <ele>919.3248502705246</ele>
        <time>2022-05-20T11:18:24Z</time>
      </trkpt>
      <trkpt lat="42.452594" lon="-5.279471">
        <ele>921.1400148738176</ele>
        <time>2022-05-20T11:18:31Z</time>
      </trkpt>
      <trkpt lat="42.452644" lon="-5.279605">
        <ele>921.6580906948075</ele>
        <time>2022-05-20T11:18:39Z</time>
      </trkpt>
      <trkpt lat="42.452677" lon="-5.279722">
        <ele>922.7990169888362</ele>
        <time>2022-05-20T11:18:46Z</time>
      </trkpt>
      <trkpt lat="42.452716" lon="-5.279844">
        <ele>923.284850130789</ele>
        <time>2022-05-20T11:18:54Z</time>
      </trkpt>
      <trkpt lat="42.452772" lon="-5.279948">
        <ele>922.7993258237839</ele>
        <time>2022-05-20T11:19:02Z</time>
      </trkpt>
      <trkpt lat="42.452833" lon="-5.280061">
        <ele>922.8656341107562</ele>
        <time>2022-05-20T11:19:09Z</time>
      </trkpt>
      <trkpt lat="42.452877" lon="-5.280172">
        <ele>921.8570111095905</ele>
        <time>2022-05-20T11:19:15Z</time>
      </trkpt>
      <trkpt lat="42.452924" lon="-5.280288">
        <ele>921.6820575464517</ele>
        <time>2022-05-20T11:19:23Z</time>
      </trkpt>
      <trkpt lat="42.45298" lon="-5.280388">
        <ele>921.9272175244987</ele>
        <time>2022-05-20T11:19:30Z</time>
      </trkpt>
      <trkpt lat="42.453039" lon="-5.280494">
        <ele>919.7644118731841</ele>
        <time>2022-05-20T11:19:36Z</time>
      </trkpt>
      <trkpt lat="42.453089" lon="-5.280609">
        <ele>920.4384020399302</ele>
        <time>2022-05-20T11:19:42Z</time>
      </trkpt>
      <trkpt lat="42.453135" lon="-5.280727">
        <ele>920.2166939424351</ele>
        <time>2022-05-20T11:19:49Z</time>
      </trkpt>
      <trkpt lat="42.453181" lon="-5.280843">
        <ele>919.5101719945669</ele>
        <time>2022-05-20T11:19:56Z</time>
      </trkpt>
      <trkpt lat="42.45324" lon="-5.280943">
        <ele>918.7188735380769</ele>
        <time>2022-05-20T11:20:02Z</time>
      </trkpt>
      <trkpt lat="42.453293" lon="-5.281043">
        <ele>918.3418473070487</ele>
        <time>2022-05-20T11:20:09Z</time>
      </trkpt>
      <trkpt lat="42.453335" lon="-5.281157">
        <ele>917.3705106638372</ele>
        <time>2022-05-20T11:20:15Z</time>
      </trkpt>
      <trkpt lat="42.453372" lon="-5.281272">
        <ele>917.155621336773</ele>
        <time>2022-05-20T11:20:22Z</time>
      </trkpt>
      <trkpt lat="42.453424" lon="-5.281377">
        <ele>917.8474987922236</ele>
        <time>2022-05-20T11:20:27Z</time>
      </trkpt>
      <trkpt lat="42.453468" lon="-5.281502">
        <ele>918.2378739900887</ele>
        <time>2022-05-20T11:20:36Z</time>
      </trkpt>
      <trkpt lat="42.453514" lon="-5.281607">
        <ele>918.399910571985</ele>
        <time>2022-05-20T11:20:44Z</time>
      </trkpt>
      <trkpt lat="42.453552" lon="-5.281721">
        <ele>918.573105217889</ele>
        <time>2022-05-20T11:20:52Z</time>
      </trkpt>
      <trkpt lat="42.453595" lon="-5.281844">
        <ele>919.0422362638637</ele>
        <time>2022-05-20T11:20:57Z</time>
      </trkpt>
      <trkpt lat="42.453654" lon="-5.281966">
        <ele>919.7358034532517</ele>
        <time>2022-05-20T11:21:04Z</time>
      </trkpt>
      <trkpt lat="42.453698" lon="-5.282074">
        <ele>919.1139570148662</ele>
        <time>2022-05-20T11:21:12Z</time>
      </trkpt>
      <trkpt lat="42.453751" lon="-5.282189">
        <ele>918.1388515401632</ele>
        <time>2022-05-20T11:21:21Z</time>
      </trkpt>
      <trkpt lat="42.453808" lon="-5.282322">
        <ele>918.3069565948099</ele>
        <time>2022-05-20T11:21:29Z</time>
      </trkpt>
      <trkpt lat="42.453857" lon="-5.282432">
        <ele>918.420914510265</ele>
        <time>2022-05-20T11:21:36Z</time>
      </trkpt>
      <trkpt lat="42.453922" lon="-5.282554">
        <ele>918.7255929308012</ele>
        <time>2022-05-20T11:21:44Z</time>
      </trkpt>
      <trkpt lat="42.453973" lon="-5.282669">
        <ele>920.6883717728779</ele>
        <time>2022-05-20T11:21:50Z</time>
      </trkpt>
      <trkpt lat="42.45403" lon="-5.2828">
        <ele>921.2464968012646</ele>
        <time>2022-05-20T11:21:59Z</time>
      </trkpt>
      <trkpt lat="42.454075" lon="-5.282916">
        <ele>921.7172070527449</ele>
        <time>2022-05-20T11:22:07Z</time>
      </trkpt>
      <trkpt lat="42.454116" lon="-5.283036">
        <ele>921.6331505896524</ele>
        <time>2022-05-20T11:22:15Z</time>
      </trkpt>
      <trkpt lat="42.454177" lon="-5.283167">
        <ele>921.8049373440444</ele>
        <time>2022-05-20T11:22:24Z</time>
      </trkpt>
      <trkpt lat="42.454225" lon="-5.283273">
        <ele>921.6457696668804</ele>
        <time>2022-05-20T11:22:31Z</time>
      </trkpt>
      <trkpt lat="42.454269" lon="-5.283397">
        <ele>920.9471918530762</ele>
        <time>2022-05-20T11:22:39Z</time>
      </trkpt>
      <trkpt lat="42.454315" lon="-5.283517">
        <ele>920.1164377573878</ele>
        <time>2022-05-20T11:22:46Z</time>
      </trkpt>
      <trkpt lat="42.454365" lon="-5.283643">
        <ele>919.391931457445</ele>
        <time>2022-05-20T11:22:54Z</time>
      </trkpt>
      <trkpt lat="42.454409" lon="-5.283763">
        <ele>919.1594109935686</ele>
        <time>2022-05-20T11:23:01Z</time>
      </trkpt>
      <trkpt lat="42.454464" lon="-5.283886">
        <ele>919.5407136976719</ele>
        <time>2022-05-20T11:23:09Z</time>
      </trkpt>
      <trkpt lat="42.454513" lon="-5.284">
        <ele>920.2293882714584</ele>
        <time>2022-05-20T11:23:16Z</time>
      </trkpt>
      <trkpt lat="42.454553" lon="-5.284116">
        <ele>919.2606997573748</ele>
        <time>2022-05-20T11:23:24Z</time>
      </trkpt>
      <trkpt lat="42.454604" lon="-5.284228">
        <ele>919.2298176726326</ele>
        <time>2022-05-20T11:23:31Z</time>
      </trkpt>
      <trkpt lat="42.454653" lon="-5.284356">
        <ele>919.395340718329</ele>
        <time>2022-05-20T11:23:39Z</time>
      </trkpt>
      <trkpt lat="42.454695" lon="-5.284474">
        <ele>919.8051287364215</ele>
        <time>2022-05-20T11:23:46Z</time>
      </trkpt>
      <trkpt lat="42.454758" lon="-5.2846">
        <ele>920.258556380868</ele>
        <time>2022-05-20T11:23:54Z</time>
      </trkpt>
      <trkpt lat="42.454812" lon="-5.284712">
        <ele>921.123355477117</ele>
        <time>2022-05-20T11:24:01Z</time>
      </trkpt>
      <trkpt lat="42.454863" lon="-5.284842">
        <ele>921.6817077761516</ele>
        <time>2022-05-20T11:24:09Z</time>
      </trkpt>
      <trkpt lat="42.454913" lon="-5.28496">
        <ele>922.0896226046607</ele>
        <time>2022-05-20T11:24:16Z</time>
      </trkpt>
      <trkpt lat="42.454964" lon="-5.285094">
        <ele>921.9614416006953</ele>
        <time>2022-05-20T11:24:24Z</time>
      </trkpt>
      <trkpt lat="42.455008" lon="-5.285206">
        <ele>921.8350968379527</ele>
        <time>2022-05-20T11:24:32Z</time>
      </trkpt>
      <trkpt lat="42.455062" lon="-5.285321">
        <ele>921.8424451677129</ele>
        <time>2022-05-20T11:24:40Z</time>
      </trkpt>
      <trkpt lat="42.455117" lon="-5.285445">
        <ele>920.553269113414</ele>
        <time>2022-05-20T11:24:49Z</time>
      </trkpt>
      <trkpt lat="42.455162" lon="-5.285572">
        <ele>920.8899196935818</ele>
        <time>2022-05-20T11:24:56Z</time>
      </trkpt>
      <trkpt lat="42.455204" lon="-5.285683">
        <ele>920.5609439555556</ele>
        <time>2022-05-20T11:25:04Z</time>
      </trkpt>
      <trkpt lat="42.455254" lon="-5.285791">
        <ele>921.5234801070765</ele>
        <time>2022-05-20T11:25:11Z</time>
      </trkpt>
      <trkpt lat="42.455306" lon="-5.285913">
        <ele>921.4755127923563</ele>
        <time>2022-05-20T11:25:19Z</time>
      </trkpt>
      <trkpt lat="42.455351" lon="-5.286024">
        <ele>921.7142090704292</ele>
        <time>2022-05-20T11:25:26Z</time>
      </trkpt>
      <trkpt lat="42.455393" lon="-5.28614">
        <ele>922.1890841955319</ele>
        <time>2022-05-20T11:25:33Z</time>
      </trkpt>
      <trkpt lat="42.455442" lon="-5.286254">
        <ele>922.5707372743636</ele>
        <time>2022-05-20T11:25:40Z</time>
      </trkpt>
      <trkpt lat="42.455486" lon="-5.286367">
        <ele>923.3357878290117</ele>
        <time>2022-05-20T11:25:47Z</time>
      </trkpt>
      <trkpt lat="42.455531" lon="-5.286476">
        <ele>923.2802846934646</ele>
        <time>2022-05-20T11:25:54Z</time>
      </trkpt>
      <trkpt lat="42.455576" lon="-5.286596">
        <ele>923.1827713735402</ele>
        <time>2022-05-20T11:26:01Z</time>
      </trkpt>
      <trkpt lat="42.455625" lon="-5.286702">
        <ele>923.2583041787148</ele>
        <time>2022-05-20T11:26:08Z</time>
      </trkpt>
      <trkpt lat="42.455679" lon="-5.286817">
        <ele>923.1403442816809</ele>
        <time>2022-05-20T11:26:15Z</time>
      </trkpt>
      <trkpt lat="42.455728" lon="-5.28694">
        <ele>922.9015925973654</ele>
        <time>2022-05-20T11:26:22Z</time>
      </trkpt>
      <trkpt lat="42.455781" lon="-5.287045">
        <ele>921.9102269960567</ele>
        <time>2022-05-20T11:26:29Z</time>
      </trkpt>
      <trkpt lat="42.455828" lon="-5.287161">
        <ele>921.2129796529189</ele>
        <time>2022-05-20T11:26:36Z</time>
      </trkpt>
      <trkpt lat="42.45586" lon="-5.287276">
        <ele>921.5959760434926</ele>
        <time>2022-05-20T11:26:43Z</time>
      </trkpt>
      <trkpt lat="42.455909" lon="-5.287397">
        <ele>921.2840577587485</ele>
        <time>2022-05-20T11:26:52Z</time>
      </trkpt>
      <trkpt lat="42.455958" lon="-5.287509">
        <ele>921.5888722101226</ele>
        <time>2022-05-20T11:27:00Z</time>
      </trkpt>
      <trkpt lat="42.456004" lon="-5.287621">
        <ele>922.456538816914</ele>
        <time>2022-05-20T11:27:10Z</time>
      </trkpt>
      <trkpt lat="42.456066" lon="-5.287732">
        <ele>922.7978918338194</ele>
        <time>2022-05-20T11:27:18Z</time>
      </trkpt>
      <trkpt lat="42.456115" lon="-5.28784">
        <ele>922.0692604826763</ele>
        <time>2022-05-20T11:27:25Z</time>
      </trkpt>
      <trkpt lat="42.456159" lon="-5.287956">
        <ele>921.9415834620595</ele>
        <time>2022-05-20T11:27:32Z</time>
      </trkpt>
      <trkpt lat="42.456212" lon="-5.288071">
        <ele>921.8434881661087</ele>
        <time>2022-05-20T11:27:39Z</time>
      </trkpt>
      <trkpt lat="42.456258" lon="-5.288183">
        <ele>921.9686920074746</ele>
        <time>2022-05-20T11:27:46Z</time>
      </trkpt>
      <trkpt lat="42.456299" lon="-5.288297">
        <ele>922.8158029997721</ele>
        <time>2022-05-20T11:27:53Z</time>
      </trkpt>
      <trkpt lat="42.456344" lon="-5.288404">
        <ele>922.8332647792995</ele>
        <time>2022-05-20T11:28:00Z</time>
      </trkpt>
      <trkpt lat="42.456382" lon="-5.288521">
        <ele>922.3125056233257</ele>
        <time>2022-05-20T11:28:08Z</time>
      </trkpt>
      <trkpt lat="42.456436" lon="-5.28864">
        <ele>922.3929143352434</ele>
        <time>2022-05-20T11:28:15Z</time>
      </trkpt>
      <trkpt lat="42.456491" lon="-5.288753">
        <ele>922.8193227006122</ele>
        <time>2022-05-20T11:28:21Z</time>
      </trkpt>
      <trkpt lat="42.456544" lon="-5.288861">
        <ele>923.8373772241175</ele>
        <time>2022-05-20T11:28:28Z</time>
      </trkpt>
      <trkpt lat="42.456598" lon="-5.288958">
        <ele>923.9773075859994</ele>
        <time>2022-05-20T11:28:34Z</time>
      </trkpt>
      <trkpt lat="42.456653" lon="-5.289069">
        <ele>923.0655527627096</ele>
        <time>2022-05-20T11:28:41Z</time>
      </trkpt>
      <trkpt lat="42.456704" lon="-5.28918">
        <ele>922.4209042461589</ele>
        <time>2022-05-20T11:28:49Z</time>
      </trkpt>
      <trkpt lat="42.456753" lon="-5.289291">
        <ele>922.7167895101011</ele>
        <time>2022-05-20T11:28:56Z</time>
      </trkpt>
      <trkpt lat="42.456797" lon="-5.289401">
        <ele>922.5929366555065</ele>
        <time>2022-05-20T11:29:03Z</time>
      </trkpt>
      <trkpt lat="42.456842" lon="-5.289516">
        <ele>922.9524574493989</ele>
        <time>2022-05-20T11:29:10Z</time>
      </trkpt>
      <trkpt lat="42.456897" lon="-5.289629">
        <ele>924.2515576863661</ele>
        <time>2022-05-20T11:29:16Z</time>
      </trkpt>
      <trkpt lat="42.456944" lon="-5.289736">
        <ele>925.9164881976321</ele>
        <time>2022-05-20T11:29:24Z</time>
      </trkpt>
      <trkpt lat="42.456992" lon="-5.289857">
        <ele>925.1818099338561</ele>
        <time>2022-05-20T11:29:31Z</time>
      </trkpt>
      <trkpt lat="42.457042" lon="-5.289965">
        <ele>925.401323213242</ele>
        <time>2022-05-20T11:29:38Z</time>
      </trkpt>
      <trkpt lat="42.45711" lon="-5.290082">
        <ele>925.3244348149747</ele>
        <time>2022-05-20T11:29:45Z</time>
      </trkpt>
      <trkpt lat="42.457152" lon="-5.290193">
        <ele>925.8812263095751</ele>
        <time>2022-05-20T11:29:51Z</time>
      </trkpt>
      <trkpt lat="42.457193" lon="-5.290312">
        <ele>925.723505009897</ele>
        <time>2022-05-20T11:29:58Z</time>
      </trkpt>
      <trkpt lat="42.457239" lon="-5.290422">
        <ele>925.5332179814577</ele>
        <time>2022-05-20T11:30:05Z</time>
      </trkpt>
      <trkpt lat="42.457286" lon="-5.290543">
        <ele>924.8540745647624</ele>
        <time>2022-05-20T11:30:13Z</time>
      </trkpt>
      <trkpt lat="42.457319" lon="-5.290656">
        <ele>923.4074783157557</ele>
        <time>2022-05-20T11:30:20Z</time>
      </trkpt>
      <trkpt lat="42.457377" lon="-5.290769">
        <ele>920.7034223843366</ele>
        <time>2022-05-20T11:30:28Z</time>
      </trkpt>
      <trkpt lat="42.457425" lon="-5.290886">
        <ele>920.4662387548015</ele>
        <time>2022-05-20T11:30:36Z</time>
      </trkpt>
      <trkpt lat="42.45747" lon="-5.290997">
        <ele>921.0603877687827</ele>
        <time>2022-05-20T11:30:43Z</time>
      </trkpt>
      <trkpt lat="42.457519" lon="-5.291118">
        <ele>921.8379013519734</ele>
        <time>2022-05-20T11:30:50Z</time>
      </trkpt>
      <trkpt lat="42.457564" lon="-5.29126">
        <ele>921.3749151220545</ele>
        <time>2022-05-20T11:30:58Z</time>
      </trkpt>
      <trkpt lat="42.457605" lon="-5.291376">
        <ele>921.7735181227326</ele>
        <time>2022-05-20T11:31:05Z</time>
      </trkpt>
      <trkpt lat="42.457645" lon="-5.291486">
        <ele>920.7975204642862</ele>
        <time>2022-05-20T11:31:13Z</time>
      </trkpt>
      <trkpt lat="42.457677" lon="-5.291608">
        <ele>920.9262058045715</ele>
        <time>2022-05-20T11:31:21Z</time>
      </trkpt>
      <trkpt lat="42.457735" lon="-5.291733">
        <ele>923.8038275828585</ele>
        <time>2022-05-20T11:31:28Z</time>
      </trkpt>
      <trkpt lat="42.457794" lon="-5.291841">
        <ele>924.3745667897165</ele>
        <time>2022-05-20T11:31:35Z</time>
      </trkpt>
      <trkpt lat="42.457842" lon="-5.291945">
        <ele>925.066889513284</ele>
        <time>2022-05-20T11:31:41Z</time>
      </trkpt>
      <trkpt lat="42.457899" lon="-5.292062">
        <ele>924.1265246393159</ele>
        <time>2022-05-20T11:31:49Z</time>
      </trkpt>
      <trkpt lat="42.457947" lon="-5.292177">
        <ele>924.6489471904933</ele>
        <time>2022-05-20T11:31:56Z</time>
      </trkpt>
      <trkpt lat="42.457997" lon="-5.292303">
        <ele>926.3335941331461</ele>
        <time>2022-05-20T11:32:03Z</time>
      </trkpt>
      <trkpt lat="42.458046" lon="-5.292424">
        <ele>926.2856244174764</ele>
        <time>2022-05-20T11:32:10Z</time>
      </trkpt>
      <trkpt lat="42.458108" lon="-5.292544">
        <ele>926.4650459587574</ele>
        <time>2022-05-20T11:32:18Z</time>
      </trkpt>
      <trkpt lat="42.458155" lon="-5.292652">
        <ele>927.0723247518763</ele>
        <time>2022-05-20T11:32:25Z</time>
      </trkpt>
      <trkpt lat="42.458206" lon="-5.292753">
        <ele>927.8951977854595</ele>
        <time>2022-05-20T11:32:31Z</time>
      </trkpt>
      <trkpt lat="42.458261" lon="-5.29288">
        <ele>927.7840503882617</ele>
        <time>2022-05-20T11:32:38Z</time>
      </trkpt>
      <trkpt lat="42.458309" lon="-5.293004">
        <ele>929.4303698204458</ele>
        <time>2022-05-20T11:32:45Z</time>
      </trkpt>
      <trkpt lat="42.458365" lon="-5.293136">
        <ele>929.4534801505506</ele>
        <time>2022-05-20T11:32:53Z</time>
      </trkpt>
      <trkpt lat="42.458421" lon="-5.293245">
        <ele>929.605642516166</ele>
        <time>2022-05-20T11:33:01Z</time>
      </trkpt>
      <trkpt lat="42.458464" lon="-5.293362">
        <ele>930.8054629005492</ele>
        <time>2022-05-20T11:33:09Z</time>
      </trkpt>
      <trkpt lat="42.458515" lon="-5.293481">
        <ele>930.6724156495184</ele>
        <time>2022-05-20T11:33:16Z</time>
      </trkpt>
      <trkpt lat="42.458568" lon="-5.293599">
        <ele>930.0912288744003</ele>
        <time>2022-05-20T11:33:24Z</time>
      </trkpt>
      <trkpt lat="42.458612" lon="-5.293715">
        <ele>930.0832633674145</ele>
        <time>2022-05-20T11:33:30Z</time>
      </trkpt>
      <trkpt lat="42.458662" lon="-5.293823">
        <ele>929.7057304298505</ele>
        <time>2022-05-20T11:33:36Z</time>
      </trkpt>
      <trkpt lat="42.458711" lon="-5.29394">
        <ele>929.4038341008127</ele>
        <time>2022-05-20T11:33:45Z</time>
      </trkpt>
      <trkpt lat="42.458758" lon="-5.294067">
        <ele>929.613686716184</ele>
        <time>2022-05-20T11:33:51Z</time>
      </trkpt>
      <trkpt lat="42.458795" lon="-5.294185">
        <ele>928.7994257928804</ele>
        <time>2022-05-20T11:33:59Z</time>
      </trkpt>
      <trkpt lat="42.458821" lon="-5.294305">
        <ele>927.926554011181</ele>
        <time>2022-05-20T11:34:06Z</time>
      </trkpt>
      <trkpt lat="42.458844" lon="-5.294435">
        <ele>926.539164159447</ele>
        <time>2022-05-20T11:34:14Z</time>
      </trkpt>
      <trkpt lat="42.458871" lon="-5.294555">
        <ele>924.0992979509756</ele>
        <time>2022-05-20T11:34:20Z</time>
      </trkpt>
      <trkpt lat="42.458892" lon="-5.294694">
        <ele>921.8337229136378</ele>
        <time>2022-05-20T11:34:28Z</time>
      </trkpt>
      <trkpt lat="42.458908" lon="-5.294818">
        <ele>920.8226463999599</ele>
        <time>2022-05-20T11:34:36Z</time>
      </trkpt>
      <trkpt lat="42.458912" lon="-5.294944">
        <ele>920.1853117235005</ele>
        <time>2022-05-20T11:34:44Z</time>
      </trkpt>
      <trkpt lat="42.458951" lon="-5.29506">
        <ele>919.5082850037143</ele>
        <time>2022-05-20T11:34:53Z</time>
      </trkpt>
      <trkpt lat="42.458991" lon="-5.295201">
        <ele>918.4870463320985</ele>
        <time>2022-05-20T11:35:03Z</time>
      </trkpt>
      <trkpt lat="42.459033" lon="-5.295327">
        <ele>917.0357103487477</ele>
        <time>2022-05-20T11:35:10Z</time>
      </trkpt>
      <trkpt lat="42.459035" lon="-5.295459">
        <ele>919.7073259064928</ele>
        <time>2022-05-20T11:35:18Z</time>
      </trkpt>
      <trkpt lat="42.459103" lon="-5.295555">
        <ele>915.0547430906445</ele>
        <time>2022-05-20T11:38:56Z</time>
      </trkpt>
      <trkpt lat="42.459142" lon="-5.295668">
        <ele>914.7343851821497</ele>
        <time>2022-05-20T11:39:04Z</time>
      </trkpt>
      <trkpt lat="42.459207" lon="-5.295771">
        <ele>911.8712152745575</ele>
        <time>2022-05-20T11:39:13Z</time>
      </trkpt>
      <trkpt lat="42.459248" lon="-5.29589">
        <ele>910.7097320938483</ele>
        <time>2022-05-20T11:39:20Z</time>
      </trkpt>
      <trkpt lat="42.459273" lon="-5.296021">
        <ele>911.0101711563766</ele>
        <time>2022-05-20T11:39:29Z</time>
      </trkpt>
      <trkpt lat="42.459305" lon="-5.296152">
        <ele>910.2048962190747</ele>
        <time>2022-05-20T11:39:38Z</time>
      </trkpt>
      <trkpt lat="42.459343" lon="-5.296267">
        <ele>909.0963371228427</ele>
        <time>2022-05-20T11:39:46Z</time>
      </trkpt>
      <trkpt lat="42.45938" lon="-5.296379">
        <ele>910.543503569439</ele>
        <time>2022-05-20T11:39:52Z</time>
      </trkpt>
      <trkpt lat="42.459419" lon="-5.296504">
        <ele>911.2150271562859</ele>
        <time>2022-05-20T11:40:02Z</time>
      </trkpt>
      <trkpt lat="42.459456" lon="-5.296616">
        <ele>910.4037459129468</ele>
        <time>2022-05-20T11:40:07Z</time>
      </trkpt>
      <trkpt lat="42.459492" lon="-5.296734">
        <ele>910.0514719318599</ele>
        <time>2022-05-20T11:40:15Z</time>
      </trkpt>
      <trkpt lat="42.45953" lon="-5.296847">
        <ele>910.4503538161516</ele>
        <time>2022-05-20T11:40:22Z</time>
      </trkpt>
      <trkpt lat="42.459561" lon="-5.296975">
        <ele>909.9406019775197</ele>
        <time>2022-05-20T11:40:30Z</time>
      </trkpt>
      <trkpt lat="42.459596" lon="-5.297103">
        <ele>909.7842801557854</ele>
        <time>2022-05-20T11:40:39Z</time>
      </trkpt>
      <trkpt lat="42.459644" lon="-5.297228">
        <ele>909.0262218536809</ele>
        <time>2022-05-20T11:40:47Z</time>
      </trkpt>
      <trkpt lat="42.459679" lon="-5.297343">
        <ele>909.0937115270644</ele>
        <time>2022-05-20T11:40:52Z</time>
      </trkpt>
      <trkpt lat="42.459714" lon="-5.297459">
        <ele>908.5864377794787</ele>
        <time>2022-05-20T11:41:00Z</time>
      </trkpt>
      <trkpt lat="42.459747" lon="-5.297574">
        <ele>910.420254142955</ele>
        <time>2022-05-20T11:41:07Z</time>
      </trkpt>
      <trkpt lat="42.459764" lon="-5.297695">
        <ele>910.5727251274511</ele>
        <time>2022-05-20T11:41:14Z</time>
      </trkpt>
      <trkpt lat="42.459789" lon="-5.297817">
        <ele>910.8440053937957</ele>
        <time>2022-05-20T11:41:21Z</time>
      </trkpt>
      <trkpt lat="42.459827" lon="-5.297933">
        <ele>910.9203656921163</ele>
        <time>2022-05-20T11:41:27Z</time>
      </trkpt>
      <trkpt lat="42.459858" lon="-5.298053">
        <ele>911.497645644471</ele>
        <time>2022-05-20T11:41:35Z</time>
      </trkpt>
      <trkpt lat="42.459894" lon="-5.298165">
        <ele>910.7480247402564</ele>
        <time>2022-05-20T11:41:41Z</time>
      </trkpt>
      <trkpt lat="42.459931" lon="-5.298291">
        <ele>910.7651229966432</ele>
        <time>2022-05-20T11:41:47Z</time>
      </trkpt>
      <trkpt lat="42.459968" lon="-5.298407">
        <ele>911.0077953375876</ele>
        <time>2022-05-20T11:41:54Z</time>
      </trkpt>
      <trkpt lat="42.460003" lon="-5.298526">
        <ele>909.5461717927828</ele>
        <time>2022-05-20T11:42:07Z</time>
      </trkpt>
      <trkpt lat="42.460043" lon="-5.298642">
        <ele>909.1510156588629</ele>
        <time>2022-05-20T11:42:14Z</time>
      </trkpt>
      <trkpt lat="42.460085" lon="-5.298775">
        <ele>909.1453857831657</ele>
        <time>2022-05-20T11:42:24Z</time>
      </trkpt>
      <trkpt lat="42.460131" lon="-5.298919">
        <ele>909.3472719909623</ele>
        <time>2022-05-20T11:42:34Z</time>
      </trkpt>
      <trkpt lat="42.460156" lon="-5.299043">
        <ele>909.4529081126675</ele>
        <time>2022-05-20T11:42:41Z</time>
      </trkpt>
      <trkpt lat="42.460193" lon="-5.299158">
        <ele>909.9455414125696</ele>
        <time>2022-05-20T11:42:47Z</time>
      </trkpt>
      <trkpt lat="42.460224" lon="-5.299277">
        <ele>908.703341204673</ele>
        <time>2022-05-20T11:42:54Z</time>
      </trkpt>
      <trkpt lat="42.460258" lon="-5.299394">
        <ele>908.7403974076733</ele>
        <time>2022-05-20T11:43:01Z</time>
      </trkpt>
      <trkpt lat="42.46029" lon="-5.299527">
        <ele>908.1539118401706</ele>
        <time>2022-05-20T11:43:09Z</time>
      </trkpt>
      <trkpt lat="42.46033" lon="-5.299654">
        <ele>908.9543492170051</ele>
        <time>2022-05-20T11:43:17Z</time>
      </trkpt>
      <trkpt lat="42.460368" lon="-5.299766">
        <ele>908.8229944976047</ele>
        <time>2022-05-20T11:43:24Z</time>
      </trkpt>
      <trkpt lat="42.460415" lon="-5.299881">
        <ele>908.3914316110313</ele>
        <time>2022-05-20T11:43:30Z</time>
      </trkpt>
      <trkpt lat="42.460459" lon="-5.300001">
        <ele>909.2882217448205</ele>
        <time>2022-05-20T11:43:37Z</time>
      </trkpt>
      <trkpt lat="42.46049" lon="-5.300128">
        <ele>910.5635086046532</ele>
        <time>2022-05-20T11:43:45Z</time>
      </trkpt>
      <trkpt lat="42.460533" lon="-5.300279">
        <ele>910.2264388669282</ele>
        <time>2022-05-20T11:43:54Z</time>
      </trkpt>
      <trkpt lat="42.460571" lon="-5.300391">
        <ele>910.4561658250168</ele>
        <time>2022-05-20T11:44:00Z</time>
      </trkpt>
      <trkpt lat="42.460621" lon="-5.300496">
        <ele>909.8831907138228</ele>
        <time>2022-05-20T11:44:06Z</time>
      </trkpt>
      <trkpt lat="42.460658" lon="-5.300645">
        <ele>909.853390481323</ele>
        <time>2022-05-20T11:44:14Z</time>
      </trkpt>
      <trkpt lat="42.460689" lon="-5.300766">
        <ele>910.1583355767652</ele>
        <time>2022-05-20T11:44:21Z</time>
      </trkpt>
      <trkpt lat="42.460743" lon="-5.300901">
        <ele>909.9880444752052</ele>
        <time>2022-05-20T11:44:29Z</time>
      </trkpt>
      <trkpt lat="42.460783" lon="-5.301013">
        <ele>909.0501788258553</ele>
        <time>2022-05-20T11:44:37Z</time>
      </trkpt>
      <trkpt lat="42.46083" lon="-5.301134">
        <ele>908.4958282215521</ele>
        <time>2022-05-20T11:44:45Z</time>
      </trkpt>
      <trkpt lat="42.460869" lon="-5.301261">
        <ele>907.7140525477007</ele>
        <time>2022-05-20T11:44:52Z</time>
      </trkpt>
      <trkpt lat="42.460909" lon="-5.301377">
        <ele>907.2767152125016</ele>
        <time>2022-05-20T11:44:59Z</time>
      </trkpt>
      <trkpt lat="42.460948" lon="-5.301504">
        <ele>906.7051917165518</ele>
        <time>2022-05-20T11:45:07Z</time>
      </trkpt>
      <trkpt lat="42.460984" lon="-5.301624">
        <ele>907.0347560402006</ele>
        <time>2022-05-20T11:45:14Z</time>
      </trkpt>
      <trkpt lat="42.461029" lon="-5.301749">
        <ele>906.4774954915047</ele>
        <time>2022-05-20T11:45:20Z</time>
      </trkpt>
      <trkpt lat="42.461068" lon="-5.301859">
        <ele>908.0933831967413</ele>
        <time>2022-05-20T11:45:25Z</time>
      </trkpt>
      <trkpt lat="42.461107" lon="-5.30198">
        <ele>909.3946711039171</ele>
        <time>2022-05-20T11:45:31Z</time>
      </trkpt>
      <trkpt lat="42.461141" lon="-5.302102">
        <ele>910.6735662613064</ele>
        <time>2022-05-20T11:45:38Z</time>
      </trkpt>
      <trkpt lat="42.46117" lon="-5.302233">
        <ele>911.6363064059988</ele>
        <time>2022-05-20T11:45:46Z</time>
      </trkpt>
      <trkpt lat="42.46121" lon="-5.302359">
        <ele>912.9957996001467</ele>
        <time>2022-05-20T11:45:54Z</time>
      </trkpt>
      <trkpt lat="42.461254" lon="-5.302469">
        <ele>913.6904365308583</ele>
        <time>2022-05-20T11:46:00Z</time>
      </trkpt>
      <trkpt lat="42.461296" lon="-5.30258">
        <ele>914.3626242950559</ele>
        <time>2022-05-20T11:46:06Z</time>
      </trkpt>
      <trkpt lat="42.461331" lon="-5.302693">
        <ele>914.1246112408116</ele>
        <time>2022-05-20T11:46:13Z</time>
      </trkpt>
      <trkpt lat="42.461368" lon="-5.302812">
        <ele>915.453661063686</ele>
        <time>2022-05-20T11:46:20Z</time>
      </trkpt>
      <trkpt lat="42.461408" lon="-5.302932">
        <ele>916.5440080072731</ele>
        <time>2022-05-20T11:46:27Z</time>
      </trkpt>
      <trkpt lat="42.461447" lon="-5.303059">
        <ele>917.4449084829539</ele>
        <time>2022-05-20T11:46:35Z</time>
      </trkpt>
      <trkpt lat="42.461491" lon="-5.303185">
        <ele>917.1655872352421</ele>
        <time>2022-05-20T11:46:42Z</time>
      </trkpt>
      <trkpt lat="42.461534" lon="-5.303293">
        <ele>917.2653554026037</ele>
        <time>2022-05-20T11:46:48Z</time>
      </trkpt>
      <trkpt lat="42.461567" lon="-5.30342">
        <ele>917.2762409253046</ele>
        <time>2022-05-20T11:46:55Z</time>
      </trkpt>
      <trkpt lat="42.461611" lon="-5.303542">
        <ele>917.3293003002182</ele>
        <time>2022-05-20T11:47:02Z</time>
      </trkpt>
      <trkpt lat="42.461651" lon="-5.303655">
        <ele>915.6646252889186</ele>
        <time>2022-05-20T11:47:09Z</time>
      </trkpt>
      <trkpt lat="42.461691" lon="-5.303779">
        <ele>915.5174406562</ele>
        <time>2022-05-20T11:47:18Z</time>
      </trkpt>
      <trkpt lat="42.461729" lon="-5.303898">
        <ele>914.6794161153957</ele>
        <time>2022-05-20T11:47:25Z</time>
      </trkpt>
      <trkpt lat="42.46178" lon="-5.304022">
        <ele>914.3067685915157</ele>
        <time>2022-05-20T11:47:31Z</time>
      </trkpt>
      <trkpt lat="42.461806" lon="-5.304157">
        <ele>914.7741418844089</ele>
        <time>2022-05-20T11:47:38Z</time>
      </trkpt>
      <trkpt lat="42.461838" lon="-5.304277">
        <ele>914.1813176497817</ele>
        <time>2022-05-20T11:47:45Z</time>
      </trkpt>
      <trkpt lat="42.461882" lon="-5.304399">
        <ele>914.0736552206799</ele>
        <time>2022-05-20T11:47:53Z</time>
      </trkpt>
      <trkpt lat="42.461919" lon="-5.30451">
        <ele>914.0391850518063</ele>
        <time>2022-05-20T11:48:01Z</time>
      </trkpt>
      <trkpt lat="42.46196" lon="-5.304629">
        <ele>914.5860337382182</ele>
        <time>2022-05-20T11:48:08Z</time>
      </trkpt>
      <trkpt lat="42.462009" lon="-5.304741">
        <ele>914.358268504031</ele>
        <time>2022-05-20T11:48:14Z</time>
      </trkpt>
      <trkpt lat="42.462053" lon="-5.304866">
        <ele>912.9357731631026</ele>
        <time>2022-05-20T11:48:21Z</time>
      </trkpt>
      <trkpt lat="42.462082" lon="-5.304997">
        <ele>913.0987218804657</ele>
        <time>2022-05-20T11:48:28Z</time>
      </trkpt>
      <trkpt lat="42.462114" lon="-5.305124">
        <ele>913.534339425154</ele>
        <time>2022-05-20T11:48:35Z</time>
      </trkpt>
      <trkpt lat="42.462147" lon="-5.305239">
        <ele>915.1058364966884</ele>
        <time>2022-05-20T11:48:41Z</time>
      </trkpt>
      <trkpt lat="42.462185" lon="-5.305362">
        <ele>915.7431811513379</ele>
        <time>2022-05-20T11:48:49Z</time>
      </trkpt>
      <trkpt lat="42.462221" lon="-5.30548">
        <ele>915.3391228783876</ele>
        <time>2022-05-20T11:48:56Z</time>
      </trkpt>
      <trkpt lat="42.46226" lon="-5.305601">
        <ele>914.7640876872465</ele>
        <time>2022-05-20T11:49:03Z</time>
      </trkpt>
      <trkpt lat="42.462296" lon="-5.30573">
        <ele>914.5350175593048</ele>
        <time>2022-05-20T11:49:10Z</time>
      </trkpt>
      <trkpt lat="42.462335" lon="-5.305849">
        <ele>914.1015809625387</ele>
        <time>2022-05-20T11:49:18Z</time>
      </trkpt>
      <trkpt lat="42.462368" lon="-5.305965">
        <ele>914.5985142122954</ele>
        <time>2022-05-20T11:49:27Z</time>
      </trkpt>
      <trkpt lat="42.462405" lon="-5.306079">
        <ele>915.5198357282206</ele>
        <time>2022-05-20T11:49:33Z</time>
      </trkpt>
      <trkpt lat="42.462441" lon="-5.306203">
        <ele>916.4003749648109</ele>
        <time>2022-05-20T11:49:41Z</time>
      </trkpt>
      <trkpt lat="42.462482" lon="-5.306328">
        <ele>915.2187780411914</ele>
        <time>2022-05-20T11:49:48Z</time>
      </trkpt>
      <trkpt lat="42.46252" lon="-5.306452">
        <ele>913.8679750682786</ele>
        <time>2022-05-20T11:49:55Z</time>
      </trkpt>
      <trkpt lat="42.462551" lon="-5.306577">
        <ele>913.2129943482578</ele>
        <time>2022-05-20T11:50:03Z</time>
      </trkpt>
      <trkpt lat="42.462599" lon="-5.306694">
        <ele>912.5156158097088</ele>
        <time>2022-05-20T11:50:10Z</time>
      </trkpt>
      <trkpt lat="42.462655" lon="-5.306804">
        <ele>911.4130341662094</ele>
        <time>2022-05-20T11:50:16Z</time>
      </trkpt>
      <trkpt lat="42.462691" lon="-5.306934">
        <ele>910.4633024772629</ele>
        <time>2022-05-20T11:50:23Z</time>
      </trkpt>
      <trkpt lat="42.462734" lon="-5.307059">
        <ele>908.3990100463852</ele>
        <time>2022-05-20T11:50:30Z</time>
      </trkpt>
      <trkpt lat="42.462764" lon="-5.30718">
        <ele>907.3510328056291</ele>
        <time>2022-05-20T11:50:38Z</time>
      </trkpt>
      <trkpt lat="42.462791" lon="-5.307309">
        <ele>907.2625682437792</ele>
        <time>2022-05-20T11:50:47Z</time>
      </trkpt>
      <trkpt lat="42.462828" lon="-5.307439">
        <ele>907.4311548694968</ele>
        <time>2022-05-20T11:50:53Z</time>
      </trkpt>
      <trkpt lat="42.462877" lon="-5.307557">
        <ele>907.3688746159896</ele>
        <time>2022-05-20T11:51:00Z</time>
      </trkpt>
      <trkpt lat="42.462915" lon="-5.307681">
        <ele>907.0016967905685</ele>
        <time>2022-05-20T11:51:07Z</time>
      </trkpt>
      <trkpt lat="42.462954" lon="-5.307809">
        <ele>907.448833332397</ele>
        <time>2022-05-20T11:51:13Z</time>
      </trkpt>
      <trkpt lat="42.462998" lon="-5.307922">
        <ele>906.8420517696068</ele>
        <time>2022-05-20T11:51:20Z</time>
      </trkpt>
      <trkpt lat="42.463041" lon="-5.308062">
        <ele>906.4851000243798</ele>
        <time>2022-05-20T11:51:30Z</time>
      </trkpt>
      <trkpt lat="42.463088" lon="-5.308187">
        <ele>905.0140093741938</ele>
        <time>2022-05-20T11:51:37Z</time>
      </trkpt>
      <trkpt lat="42.463123" lon="-5.308301">
        <ele>903.6713109724224</ele>
        <time>2022-05-20T11:51:43Z</time>
      </trkpt>
      <trkpt lat="42.463156" lon="-5.308426">
        <ele>902.7870718417689</ele>
        <time>2022-05-20T11:51:50Z</time>
      </trkpt>
      <trkpt lat="42.463191" lon="-5.308553">
        <ele>902.5683785937726</ele>
        <time>2022-05-20T11:51:57Z</time>
      </trkpt>
      <trkpt lat="42.463232" lon="-5.30869">
        <ele>901.1637149257585</ele>
        <time>2022-05-20T11:52:05Z</time>
      </trkpt>
      <trkpt lat="42.463268" lon="-5.308807">
        <ele>899.7542933169752</ele>
        <time>2022-05-20T11:52:13Z</time>
      </trkpt>
      <trkpt lat="42.463297" lon="-5.308924">
        <ele>899.6368452068418</ele>
        <time>2022-05-20T11:52:20Z</time>
      </trkpt>
      <trkpt lat="42.463341" lon="-5.309047">
        <ele>900.421602810733</ele>
        <time>2022-05-20T11:52:27Z</time>
      </trkpt>
      <trkpt lat="42.463384" lon="-5.309194">
        <ele>900.8007808923721</ele>
        <time>2022-05-20T11:52:35Z</time>
      </trkpt>
      <trkpt lat="42.463418" lon="-5.309311">
        <ele>900.3411205364391</ele>
        <time>2022-05-20T11:52:41Z</time>
      </trkpt>
      <trkpt lat="42.463457" lon="-5.309444">
        <ele>900.1956763323396</ele>
        <time>2022-05-20T11:52:49Z</time>
      </trkpt>
      <trkpt lat="42.463504" lon="-5.309562">
        <ele>900.9918480534106</ele>
        <time>2022-05-20T11:52:57Z</time>
      </trkpt>
      <trkpt lat="42.46355" lon="-5.309687">
        <ele>901.788112860173</ele>
        <time>2022-05-20T11:53:04Z</time>
      </trkpt>
      <trkpt lat="42.463589" lon="-5.309811">
        <ele>901.8971423069015</ele>
        <time>2022-05-20T11:53:11Z</time>
      </trkpt>
      <trkpt lat="42.463617" lon="-5.309929">
        <ele>901.6694612894207</ele>
        <time>2022-05-20T11:53:18Z</time>
      </trkpt>
      <trkpt lat="42.463657" lon="-5.310052">
        <ele>902.072047226131</ele>
        <time>2022-05-20T11:53:26Z</time>
      </trkpt>
      <trkpt lat="42.463698" lon="-5.310176">
        <ele>902.6761886309832</ele>
        <time>2022-05-20T11:53:34Z</time>
      </trkpt>
      <trkpt lat="42.463742" lon="-5.310295">
        <ele>902.3550182841718</ele>
        <time>2022-05-20T11:53:41Z</time>
      </trkpt>
      <trkpt lat="42.463782" lon="-5.310415">
        <ele>902.296432139352</ele>
        <time>2022-05-20T11:53:48Z</time>
      </trkpt>
      <trkpt lat="42.463813" lon="-5.310547">
        <ele>901.4605436772108</ele>
        <time>2022-05-20T11:53:55Z</time>
      </trkpt>
      <trkpt lat="42.463849" lon="-5.310659">
        <ele>901.519463038072</ele>
        <time>2022-05-20T11:54:02Z</time>
      </trkpt>
      <trkpt lat="42.463884" lon="-5.310792">
        <ele>901.9027069555596</ele>
        <time>2022-05-20T11:54:11Z</time>
      </trkpt>
      <trkpt lat="42.46392" lon="-5.310908">
        <ele>902.6709159109741</ele>
        <time>2022-05-20T11:54:17Z</time>
      </trkpt>
      <trkpt lat="42.463959" lon="-5.311033">
        <ele>902.7955113882199</ele>
        <time>2022-05-20T11:54:23Z</time>
      </trkpt>
      <trkpt lat="42.463988" lon="-5.311161">
        <ele>903.707020489499</ele>
        <time>2022-05-20T11:54:30Z</time>
      </trkpt>
      <trkpt lat="42.464023" lon="-5.311293">
        <ele>904.4307762756944</ele>
        <time>2022-05-20T11:54:38Z</time>
      </trkpt>
      <trkpt lat="42.464056" lon="-5.311425">
        <ele>904.0878321873024</ele>
        <time>2022-05-20T11:54:46Z</time>
      </trkpt>
      <trkpt lat="42.464066" lon="-5.311553">
        <ele>904.550104203634</ele>
        <time>2022-05-20T11:54:54Z</time>
      </trkpt>
      <trkpt lat="42.464085" lon="-5.311681">
        <ele>903.939904158935</ele>
        <time>2022-05-20T11:55:01Z</time>
      </trkpt>
      <trkpt lat="42.4641" lon="-5.311814">
        <ele>903.682991206646</ele>
        <time>2022-05-20T11:55:08Z</time>
      </trkpt>
      <trkpt lat="42.464134" lon="-5.311936">
        <ele>902.8605154389516</ele>
        <time>2022-05-20T11:55:15Z</time>
      </trkpt>
      <trkpt lat="42.464153" lon="-5.312059">
        <ele>902.5517722144723</ele>
        <time>2022-05-20T11:55:23Z</time>
      </trkpt>
      <trkpt lat="42.464171" lon="-5.312186">
        <ele>902.9137110309675</ele>
        <time>2022-05-20T11:55:32Z</time>
      </trkpt>
      <trkpt lat="42.464197" lon="-5.312317">
        <ele>902.5344085218385</ele>
        <time>2022-05-20T11:55:40Z</time>
      </trkpt>
      <trkpt lat="42.464228" lon="-5.31245">
        <ele>902.7660597311333</ele>
        <time>2022-05-20T11:55:48Z</time>
      </trkpt>
      <trkpt lat="42.464252" lon="-5.31258">
        <ele>903.7082731137052</ele>
        <time>2022-05-20T11:55:55Z</time>
      </trkpt>
      <trkpt lat="42.464283" lon="-5.312698">
        <ele>903.5311490828171</ele>
        <time>2022-05-20T11:56:01Z</time>
      </trkpt>
      <trkpt lat="42.464311" lon="-5.312829">
        <ele>903.3077676547691</ele>
        <time>2022-05-20T11:56:08Z</time>
      </trkpt>
      <trkpt lat="42.464339" lon="-5.31295">
        <ele>902.5805179774761</ele>
        <time>2022-05-20T11:56:14Z</time>
      </trkpt>
      <trkpt lat="42.464359" lon="-5.31308">
        <ele>902.7426118897274</ele>
        <time>2022-05-20T11:56:21Z</time>
      </trkpt>
      <trkpt lat="42.464381" lon="-5.313202">
        <ele>903.0361967775971</ele>
        <time>2022-05-20T11:56:29Z</time>
      </trkpt>
      <trkpt lat="42.464401" lon="-5.313333">
        <ele>902.8854476157576</ele>
        <time>2022-05-20T11:56:37Z</time>
      </trkpt>
      <trkpt lat="42.464436" lon="-5.313464">
        <ele>902.7318308316171</ele>
        <time>2022-05-20T11:56:44Z</time>
      </trkpt>
      <trkpt lat="42.464475" lon="-5.313574">
        <ele>903.101664416492</ele>
        <time>2022-05-20T11:56:50Z</time>
      </trkpt>
      <trkpt lat="42.464507" lon="-5.313697">
        <ele>901.9173691356555</ele>
        <time>2022-05-20T11:56:57Z</time>
      </trkpt>
      <trkpt lat="42.464531" lon="-5.313823">
        <ele>901.1516872094944</ele>
        <time>2022-05-20T11:57:04Z</time>
      </trkpt>
      <trkpt lat="42.464551" lon="-5.313949">
        <ele>900.1434533838183</ele>
        <time>2022-05-20T11:57:11Z</time>
      </trkpt>
      <trkpt lat="42.464572" lon="-5.314079">
        <ele>898.3967977678403</ele>
        <time>2022-05-20T11:57:19Z</time>
      </trkpt>
      <trkpt lat="42.464577" lon="-5.314209">
        <ele>896.5942247686908</ele>
        <time>2022-05-20T11:57:27Z</time>
      </trkpt>
      <trkpt lat="42.464596" lon="-5.314332">
        <ele>896.4253834756091</ele>
        <time>2022-05-20T11:57:33Z</time>
      </trkpt>
      <trkpt lat="42.464623" lon="-5.314455">
        <ele>896.6061357213184</ele>
        <time>2022-05-20T11:57:39Z</time>
      </trkpt>
      <trkpt lat="42.464647" lon="-5.314581">
        <ele>896.5043018460274</ele>
        <time>2022-05-20T11:57:46Z</time>
      </trkpt>
      <trkpt lat="42.464675" lon="-5.314705">
        <ele>896.5516541860998</ele>
        <time>2022-05-20T11:57:53Z</time>
      </trkpt>
      <trkpt lat="42.464707" lon="-5.314836">
        <ele>897.2416830100119</ele>
        <time>2022-05-20T11:58:01Z</time>
      </trkpt>
      <trkpt lat="42.464737" lon="-5.31496">
        <ele>897.5901272343472</ele>
        <time>2022-05-20T11:58:09Z</time>
      </trkpt>
      <trkpt lat="42.464755" lon="-5.315094">
        <ele>897.6685813441873</ele>
        <time>2022-05-20T11:58:18Z</time>
      </trkpt>
      <trkpt lat="42.464777" lon="-5.315225">
        <ele>897.9638082496822</ele>
        <time>2022-05-20T11:58:25Z</time>
      </trkpt>
      <trkpt lat="42.464807" lon="-5.315353">
        <ele>897.8331301398575</ele>
        <time>2022-05-20T11:58:32Z</time>
      </trkpt>
      <trkpt lat="42.464836" lon="-5.31547">
        <ele>897.5862085623667</ele>
        <time>2022-05-20T11:58:39Z</time>
      </trkpt>
      <trkpt lat="42.464861" lon="-5.315593">
        <ele>897.4511272534728</ele>
        <time>2022-05-20T11:58:47Z</time>
      </trkpt>
      <trkpt lat="42.464889" lon="-5.31572">
        <ele>896.8249004026875</ele>
        <time>2022-05-20T11:58:54Z</time>
      </trkpt>
      <trkpt lat="42.464915" lon="-5.315855">
        <ele>896.980557042174</ele>
        <time>2022-05-20T11:59:00Z</time>
      </trkpt>
      <trkpt lat="42.464931" lon="-5.31598">
        <ele>896.6578620923683</ele>
        <time>2022-05-20T11:59:08Z</time>
      </trkpt>
      <trkpt lat="42.464955" lon="-5.316109">
        <ele>897.0108797503635</ele>
        <time>2022-05-20T11:59:15Z</time>
      </trkpt>
      <trkpt lat="42.464979" lon="-5.316245">
        <ele>897.5808671759441</ele>
        <time>2022-05-20T11:59:23Z</time>
      </trkpt>
      <trkpt lat="42.465001" lon="-5.316379">
        <ele>898.5908878929913</ele>
        <time>2022-05-20T11:59:30Z</time>
      </trkpt>
      <trkpt lat="42.465023" lon="-5.316511">
        <ele>898.8677339712158</ele>
        <time>2022-05-20T11:59:37Z</time>
      </trkpt>
      <trkpt lat="42.465033" lon="-5.316635">
        <ele>899.9830302363262</ele>
        <time>2022-05-20T11:59:45Z</time>
      </trkpt>
      <trkpt lat="42.465071" lon="-5.316761">
        <ele>900.7230344796553</ele>
        <time>2022-05-20T11:59:53Z</time>
      </trkpt>
      <trkpt lat="42.465109" lon="-5.316872">
        <ele>900.195234797895</ele>
        <time>2022-05-20T11:59:59Z</time>
      </trkpt>
      <trkpt lat="42.465135" lon="-5.316994">
        <ele>900.5515182157978</ele>
        <time>2022-05-20T12:00:05Z</time>
      </trkpt>
      <trkpt lat="42.465141" lon="-5.317133">
        <ele>901.4929863428697</ele>
        <time>2022-05-20T12:00:13Z</time>
      </trkpt>
      <trkpt lat="42.465153" lon="-5.317257">
        <ele>902.0348129170015</ele>
        <time>2022-05-20T12:00:20Z</time>
      </trkpt>
      <trkpt lat="42.465192" lon="-5.317389">
        <ele>902.0878332303837</ele>
        <time>2022-05-20T12:00:28Z</time>
      </trkpt>
      <trkpt lat="42.465222" lon="-5.317506">
        <ele>902.3495938563719</ele>
        <time>2022-05-20T12:00:35Z</time>
      </trkpt>
      <trkpt lat="42.465246" lon="-5.317649">
        <ele>902.4581623049453</ele>
        <time>2022-05-20T12:00:43Z</time>
      </trkpt>
      <trkpt lat="42.465277" lon="-5.317779">
        <ele>902.6674119699746</ele>
        <time>2022-05-20T12:00:50Z</time>
      </trkpt>
      <trkpt lat="42.465308" lon="-5.317926">
        <ele>902.6822502184659</ele>
        <time>2022-05-20T12:00:58Z</time>
      </trkpt>
      <trkpt lat="42.465333" lon="-5.318053">
        <ele>902.849198195152</ele>
        <time>2022-05-20T12:01:05Z</time>
      </trkpt>
      <trkpt lat="42.465351" lon="-5.3182">
        <ele>902.594557095319</ele>
        <time>2022-05-20T12:01:13Z</time>
      </trkpt>
      <trkpt lat="42.465374" lon="-5.31832">
        <ele>902.2811777032912</ele>
        <time>2022-05-20T12:01:20Z</time>
      </trkpt>
      <trkpt lat="42.465405" lon="-5.318455">
        <ele>903.1433691680431</ele>
        <time>2022-05-20T12:01:28Z</time>
      </trkpt>
      <trkpt lat="42.465409" lon="-5.31858">
        <ele>904.9895835248753</ele>
        <time>2022-05-20T12:01:35Z</time>
      </trkpt>
      <trkpt lat="42.465388" lon="-5.318711">
        <ele>904.3095987634733</ele>
        <time>2022-05-20T12:01:43Z</time>
      </trkpt>
      <trkpt lat="42.465382" lon="-5.318842">
        <ele>903.7357485629618</ele>
        <time>2022-05-20T12:01:50Z</time>
      </trkpt>
      <trkpt lat="42.465381" lon="-5.319002">
        <ele>902.1502151424065</ele>
        <time>2022-05-20T12:01:58Z</time>
      </trkpt>
      <trkpt lat="42.465378" lon="-5.319135">
        <ele>901.1044064825401</ele>
        <time>2022-05-20T12:02:05Z</time>
      </trkpt>
      <trkpt lat="42.46537" lon="-5.319259">
        <ele>901.5112591953948</ele>
        <time>2022-05-20T12:02:11Z</time>
      </trkpt>
      <trkpt lat="42.465362" lon="-5.319385">
        <ele>901.7907988773659</ele>
        <time>2022-05-20T12:02:18Z</time>
      </trkpt>
      <trkpt lat="42.465352" lon="-5.31951">
        <ele>902.5245712585747</ele>
        <time>2022-05-20T12:02:25Z</time>
      </trkpt>
      <trkpt lat="42.465341" lon="-5.319666">
        <ele>902.2446744889021</ele>
        <time>2022-05-20T12:02:33Z</time>
      </trkpt>
      <trkpt lat="42.465325" lon="-5.319795">
        <ele>902.200325046666</ele>
        <time>2022-05-20T12:02:40Z</time>
      </trkpt>
      <trkpt lat="42.465322" lon="-5.319919">
        <ele>902.3497048579156</ele>
        <time>2022-05-20T12:02:46Z</time>
      </trkpt>
      <trkpt lat="42.465311" lon="-5.320043">
        <ele>902.3062409963459</ele>
        <time>2022-05-20T12:02:53Z</time>
      </trkpt>
      <trkpt lat="42.465297" lon="-5.320179">
        <ele>903.0010510999709</ele>
        <time>2022-05-20T12:03:00Z</time>
      </trkpt>
      <trkpt lat="42.465291" lon="-5.320305">
        <ele>903.585464913398</ele>
        <time>2022-05-20T12:03:07Z</time>
      </trkpt>
      <trkpt lat="42.465273" lon="-5.320429">
        <ele>903.4182961527258</ele>
        <time>2022-05-20T12:03:14Z</time>
      </trkpt>
      <trkpt lat="42.46525" lon="-5.320554">
        <ele>903.9128782749176</ele>
        <time>2022-05-20T12:03:21Z</time>
      </trkpt>
      <trkpt lat="42.465232" lon="-5.320682">
        <ele>905.1724407570437</ele>
        <time>2022-05-20T12:03:28Z</time>
      </trkpt>
      <trkpt lat="42.46523" lon="-5.320819">
        <ele>905.5171360876411</ele>
        <time>2022-05-20T12:03:35Z</time>
      </trkpt>
      <trkpt lat="42.465221" lon="-5.320956">
        <ele>905.4063037689775</ele>
        <time>2022-05-20T12:03:42Z</time>
      </trkpt>
      <trkpt lat="42.465212" lon="-5.321089">
        <ele>905.3418614584953</ele>
        <time>2022-05-20T12:03:49Z</time>
      </trkpt>
      <trkpt lat="42.465197" lon="-5.321224">
        <ele>904.7564859613776</ele>
        <time>2022-05-20T12:03:56Z</time>
      </trkpt>
      <trkpt lat="42.465183" lon="-5.321357">
        <ele>904.4138328805566</ele>
        <time>2022-05-20T12:04:04Z</time>
      </trkpt>
      <trkpt lat="42.465153" lon="-5.32149">
        <ele>904.6294691050425</ele>
        <time>2022-05-20T12:04:12Z</time>
      </trkpt>
      <trkpt lat="42.465146" lon="-5.321612">
        <ele>904.1168260425329</ele>
        <time>2022-05-20T12:04:18Z</time>
      </trkpt>
      <trkpt lat="42.46514" lon="-5.321741">
        <ele>903.8393285861239</ele>
        <time>2022-05-20T12:04:25Z</time>
      </trkpt>
      <trkpt lat="42.465133" lon="-5.321871">
        <ele>903.8744235262275</ele>
        <time>2022-05-20T12:04:32Z</time>
      </trkpt>
      <trkpt lat="42.465126" lon="-5.322001">
        <ele>904.115058160387</ele>
        <time>2022-05-20T12:04:39Z</time>
      </trkpt>
      <trkpt lat="42.465111" lon="-5.322137">
        <ele>905.3761104606092</ele>
        <time>2022-05-20T12:04:47Z</time>
      </trkpt>
      <trkpt lat="42.465097" lon="-5.322277">
        <ele>906.4255701741204</ele>
        <time>2022-05-20T12:04:55Z</time>
      </trkpt>
      <trkpt lat="42.465088" lon="-5.322405">
        <ele>906.3033590475097</ele>
        <time>2022-05-20T12:05:02Z</time>
      </trkpt>
      <trkpt lat="42.465069" lon="-5.322536">
        <ele>906.267971820198</ele>
        <time>2022-05-20T12:05:09Z</time>
      </trkpt>
      <trkpt lat="42.465061" lon="-5.322657">
        <ele>906.6109125930816</ele>
        <time>2022-05-20T12:05:16Z</time>
      </trkpt>
      <trkpt lat="42.465031" lon="-5.322785">
        <ele>907.6146151954308</ele>
        <time>2022-05-20T12:05:24Z</time>
      </trkpt>
      <trkpt lat="42.465021" lon="-5.32292">
        <ele>908.5039260340855</ele>
        <time>2022-05-20T12:05:31Z</time>
      </trkpt>
      <trkpt lat="42.46501" lon="-5.32305">
        <ele>908.4191287290305</ele>
        <time>2022-05-20T12:05:38Z</time>
      </trkpt>
      <trkpt lat="42.464997" lon="-5.323186">
        <ele>908.3743241885677</ele>
        <time>2022-05-20T12:05:46Z</time>
      </trkpt>
      <trkpt lat="42.464983" lon="-5.323315">
        <ele>907.4032636061311</ele>
        <time>2022-05-20T12:05:53Z</time>
      </trkpt>
      <trkpt lat="42.46498" lon="-5.323445">
        <ele>907.5182650564238</ele>
        <time>2022-05-20T12:06:00Z</time>
      </trkpt>
      <trkpt lat="42.464972" lon="-5.32357">
        <ele>907.5575570864603</ele>
        <time>2022-05-20T12:06:07Z</time>
      </trkpt>
      <trkpt lat="42.464963" lon="-5.323707">
        <ele>908.4587510945275</ele>
        <time>2022-05-20T12:06:15Z</time>
      </trkpt>
      <trkpt lat="42.464941" lon="-5.323829">
        <ele>908.768463216722</ele>
        <time>2022-05-20T12:06:22Z</time>
      </trkpt>
      <trkpt lat="42.464931" lon="-5.323959">
        <ele>907.6648749420419</ele>
        <time>2022-05-20T12:06:29Z</time>
      </trkpt>
      <trkpt lat="42.46492" lon="-5.324086">
        <ele>907.4503958290443</ele>
        <time>2022-05-20T12:06:36Z</time>
      </trkpt>
      <trkpt lat="42.464905" lon="-5.324214">
        <ele>907.4474293338135</ele>
        <time>2022-05-20T12:06:43Z</time>
      </trkpt>
      <trkpt lat="42.464896" lon="-5.32434">
        <ele>907.1911661215127</ele>
        <time>2022-05-20T12:06:50Z</time>
      </trkpt>
      <trkpt lat="42.464875" lon="-5.324473">
        <ele>907.3675393443555</ele>
        <time>2022-05-20T12:06:58Z</time>
      </trkpt>
      <trkpt lat="42.464862" lon="-5.324603">
        <ele>908.7043615253642</ele>
        <time>2022-05-20T12:07:06Z</time>
      </trkpt>
      <trkpt lat="42.464849" lon="-5.324735">
        <ele>908.9969050083309</ele>
        <time>2022-05-20T12:07:12Z</time>
      </trkpt>
      <trkpt lat="42.464842" lon="-5.324858">
        <ele>909.7487676804885</ele>
        <time>2022-05-20T12:07:20Z</time>
      </trkpt>
      <trkpt lat="42.464831" lon="-5.324979">
        <ele>910.9776756009087</ele>
        <time>2022-05-20T12:07:32Z</time>
      </trkpt>
      <trkpt lat="42.464823" lon="-5.325104">
        <ele>910.9998379703611</ele>
        <time>2022-05-20T12:07:39Z</time>
      </trkpt>
      <trkpt lat="42.464822" lon="-5.325232">
        <ele>910.3979572551325</ele>
        <time>2022-05-20T12:07:47Z</time>
      </trkpt>
      <trkpt lat="42.464795" lon="-5.32535">
        <ele>909.1595338666812</ele>
        <time>2022-05-20T12:07:55Z</time>
      </trkpt>
      <trkpt lat="42.464776" lon="-5.325501">
        <ele>907.4800127791241</ele>
        <time>2022-05-20T12:08:04Z</time>
      </trkpt>
      <trkpt lat="42.464759" lon="-5.325623">
        <ele>906.9461374804378</ele>
        <time>2022-05-20T12:08:11Z</time>
      </trkpt>
      <trkpt lat="42.464755" lon="-5.32575">
        <ele>907.3081382876262</ele>
        <time>2022-05-20T12:08:19Z</time>
      </trkpt>
      <trkpt lat="42.464746" lon="-5.325879">
        <ele>907.1708230674267</ele>
        <time>2022-05-20T12:08:27Z</time>
      </trkpt>
      <trkpt lat="42.464733" lon="-5.326007">
        <ele>907.0278553143144</ele>
        <time>2022-05-20T12:08:34Z</time>
      </trkpt>
      <trkpt lat="42.464724" lon="-5.326157">
        <ele>907.4646482178941</ele>
        <time>2022-05-20T12:08:44Z</time>
      </trkpt>
      <trkpt lat="42.464695" lon="-5.326292">
        <ele>907.7455406552181</ele>
        <time>2022-05-20T12:08:52Z</time>
      </trkpt>
      <trkpt lat="42.464684" lon="-5.326424">
        <ele>908.1831795619801</ele>
        <time>2022-05-20T12:08:59Z</time>
      </trkpt>
      <trkpt lat="42.464664" lon="-5.32655">
        <ele>908.8002447253093</ele>
        <time>2022-05-20T12:09:06Z</time>
      </trkpt>
      <trkpt lat="42.464644" lon="-5.326697">
        <ele>908.2328810980543</ele>
        <time>2022-05-20T12:09:14Z</time>
      </trkpt>
      <trkpt lat="42.464644" lon="-5.32683">
        <ele>908.3554896134883</ele>
        <time>2022-05-20T12:09:21Z</time>
      </trkpt>
      <trkpt lat="42.464633" lon="-5.326986">
        <ele>908.25242865365</ele>
        <time>2022-05-20T12:09:29Z</time>
      </trkpt>
      <trkpt lat="42.464622" lon="-5.327117">
        <ele>907.4569290913641</ele>
        <time>2022-05-20T12:09:36Z</time>
      </trkpt>
      <trkpt lat="42.464623" lon="-5.327257">
        <ele>907.5017994716763</ele>
        <time>2022-05-20T12:09:44Z</time>
      </trkpt>
      <trkpt lat="42.464602" lon="-5.327376">
        <ele>906.9232865618542</ele>
        <time>2022-05-20T12:09:52Z</time>
      </trkpt>
      <trkpt lat="42.464581" lon="-5.3275">
        <ele>905.9320268677548</ele>
        <time>2022-05-20T12:10:00Z</time>
      </trkpt>
      <trkpt lat="42.464566" lon="-5.32763">
        <ele>904.1376054016873</ele>
        <time>2022-05-20T12:10:07Z</time>
      </trkpt>
      <trkpt lat="42.464554" lon="-5.327766">
        <ele>903.2946867523715</ele>
        <time>2022-05-20T12:10:14Z</time>
      </trkpt>
      <trkpt lat="42.464547" lon="-5.327897">
        <ele>901.9344534901902</ele>
        <time>2022-05-20T12:10:21Z</time>
      </trkpt>
      <trkpt lat="42.46453" lon="-5.328026">
        <ele>900.6149643110111</ele>
        <time>2022-05-20T12:10:28Z</time>
      </trkpt>
      <trkpt lat="42.464545" lon="-5.328161">
        <ele>900.055083305575</ele>
        <time>2022-05-20T12:10:36Z</time>
      </trkpt>
      <trkpt lat="42.464578" lon="-5.328275">
        <ele>899.217542970553</ele>
        <time>2022-05-20T12:10:42Z</time>
      </trkpt>
      <trkpt lat="42.46459" lon="-5.328399">
        <ele>899.2355686696246</ele>
        <time>2022-05-20T12:10:50Z</time>
      </trkpt>
      <trkpt lat="42.464613" lon="-5.328522">
        <ele>898.2158535737544</ele>
        <time>2022-05-20T12:10:58Z</time>
      </trkpt>
      <trkpt lat="42.464656" lon="-5.328631">
        <ele>896.526067015715</ele>
        <time>2022-05-20T12:11:05Z</time>
      </trkpt>
      <trkpt lat="42.464703" lon="-5.328742">
        <ele>895.9171651620418</ele>
        <time>2022-05-20T12:11:12Z</time>
      </trkpt>
      <trkpt lat="42.464764" lon="-5.328847">
        <ele>895.2838838594034</ele>
        <time>2022-05-20T12:11:21Z</time>
      </trkpt>
      <trkpt lat="42.464824" lon="-5.328956">
        <ele>896.7910620449111</ele>
        <time>2022-05-20T12:11:30Z</time>
      </trkpt>
      <trkpt lat="42.464901" lon="-5.329024">
        <ele>898.2826864421368</ele>
        <time>2022-05-20T12:11:37Z</time>
      </trkpt>
      <trkpt lat="42.464993" lon="-5.32906">
        <ele>900.9675976717845</ele>
        <time>2022-05-20T12:11:44Z</time>
      </trkpt>
      <trkpt lat="42.46509" lon="-5.329089">
        <ele>903.3558591958135</ele>
        <time>2022-05-20T12:11:52Z</time>
      </trkpt>
      <trkpt lat="42.465184" lon="-5.329102">
        <ele>906.8588001159951</ele>
        <time>2022-05-20T12:11:59Z</time>
      </trkpt>
      <trkpt lat="42.465279" lon="-5.329113">
        <ele>910.0799808492884</ele>
        <time>2022-05-20T12:12:07Z</time>
      </trkpt>
      <trkpt lat="42.465374" lon="-5.329148">
        <ele>910.5634639365599</ele>
        <time>2022-05-20T12:12:15Z</time>
      </trkpt>
      <trkpt lat="42.465455" lon="-5.329227">
        <ele>910.3196184812114</ele>
        <time>2022-05-20T12:12:21Z</time>
      </trkpt>
      <trkpt lat="42.465571" lon="-5.329233">
        <ele>910.4597234772518</ele>
        <time>2022-05-20T12:12:26Z</time>
      </trkpt>
      <trkpt lat="42.465671" lon="-5.329193">
        <ele>910.5327425794676</ele>
        <time>2022-05-20T12:12:29Z</time>
      </trkpt>
      <trkpt lat="42.465763" lon="-5.329194">
        <ele>910.1122058676556</ele>
        <time>2022-05-20T12:12:33Z</time>
      </trkpt>
      <trkpt lat="42.465838" lon="-5.329301">
        <ele>909.9767932621762</ele>
        <time>2022-05-20T12:12:39Z</time>
      </trkpt>
      <trkpt lat="42.465909" lon="-5.329415">
        <ele>909.8291146885604</ele>
        <time>2022-05-20T12:12:42Z</time>
      </trkpt>
      <trkpt lat="42.465802" lon="-5.32947">
        <ele>907.4816668462008</ele>
        <time>2022-05-20T12:12:46Z</time>
      </trkpt>
      <trkpt lat="42.465665" lon="-5.329373">
        <ele>907.9966579126194</ele>
        <time>2022-05-20T12:13:25Z</time>
      </trkpt>
      <trkpt lat="42.465579" lon="-5.329309">
        <ele>908.2294424539432</ele>
        <time>2022-05-20T12:13:27Z</time>
      </trkpt>
      <trkpt lat="42.46567" lon="-5.329316">
        <ele>907.1184830749407</ele>
        <time>2022-05-20T12:13:29Z</time>
      </trkpt>
      <trkpt lat="42.465768" lon="-5.329299">
        <ele>899.3656605845317</ele>
        <time>2022-05-20T12:13:36Z</time>
      </trkpt>
      <trkpt lat="42.465901" lon="-5.329195">
        <ele>884.8244151286781</ele>
        <time>2022-05-20T12:15:01Z</time>
      </trkpt>
      <trkpt lat="42.466" lon="-5.329108">
        <ele>885.9056259226054</ele>
        <time>2022-05-20T12:15:02Z</time>
      </trkpt>
      <trkpt lat="42.466125" lon="-5.32902">
        <ele>888.732639906928</ele>
        <time>2022-05-20T12:15:04Z</time>
      </trkpt>
      <trkpt lat="42.466227" lon="-5.328974">
        <ele>891.383215107955</ele>
        <time>2022-05-20T12:15:07Z</time>
      </trkpt>
      <trkpt lat="42.466308" lon="-5.328918">
        <ele>893.0847025923431</ele>
        <time>2022-05-20T12:15:11Z</time>
      </trkpt>
      <trkpt lat="42.466395" lon="-5.328833">
        <ele>893.4932740079239</ele>
        <time>2022-05-20T12:15:33Z</time>
      </trkpt>
      <trkpt lat="42.466496" lon="-5.328732">
        <ele>893.8037690930068</ele>
        <time>2022-05-20T12:15:48Z</time>
      </trkpt>
      <trkpt lat="42.466569" lon="-5.328657">
        <ele>893.6380548113957</ele>
        <time>2022-05-20T12:15:51Z</time>
      </trkpt>
      <trkpt lat="42.466026" lon="-5.328946">
        <ele>913.2834187755361</ele>
        <time>2022-05-20T12:17:14Z</time>
      </trkpt>
      <trkpt lat="42.466731" lon="-5.328236">
        <ele>879.364677131176</ele>
        <time>2022-05-20T12:17:16Z</time>
      </trkpt>
      <trkpt lat="42.466717" lon="-5.328378">
        <ele>880.222369287163</ele>
        <time>2022-05-20T12:19:09Z</time>
      </trkpt>
      <trkpt lat="42.466619" lon="-5.328394">
        <ele>873.3180370032787</ele>
        <time>2022-05-20T12:19:12Z</time>
      </trkpt>
      <trkpt lat="42.466546" lon="-5.328477">
        <ele>873.4349825885147</ele>
        <time>2022-05-20T12:19:15Z</time>
      </trkpt>
      <trkpt lat="42.466479" lon="-5.328577">
        <ele>872.5589471170679</ele>
        <time>2022-05-20T12:19:17Z</time>
      </trkpt>
      <trkpt lat="42.466413" lon="-5.328675">
        <ele>872.7457208372653</ele>
        <time>2022-05-20T12:19:20Z</time>
      </trkpt>
      <trkpt lat="42.466317" lon="-5.328679">
        <ele>871.4750207317993</ele>
        <time>2022-05-20T12:19:52Z</time>
      </trkpt>
      <trkpt lat="42.46621" lon="-5.328689">
        <ele>870.4650154914707</ele>
        <time>2022-05-20T12:19:57Z</time>
      </trkpt>
      <trkpt lat="42.466109" lon="-5.32873">
        <ele>869.0750533230603</ele>
        <time>2022-05-20T12:20:02Z</time>
      </trkpt>
      <trkpt lat="42.466036" lon="-5.328847">
        <ele>869.564535966143</ele>
        <time>2022-05-20T12:20:15Z</time>
      </trkpt>
      <trkpt lat="42.465967" lon="-5.32896">
        <ele>869.8707158258185</ele>
        <time>2022-05-20T12:20:24Z</time>
      </trkpt>
      <trkpt lat="42.465887" lon="-5.329032">
        <ele>872.0189900575206</ele>
        <time>2022-05-20T12:20:27Z</time>
      </trkpt>
      <trkpt lat="42.46583" lon="-5.329143">
        <ele>872.2794165322557</ele>
        <time>2022-05-20T12:20:35Z</time>
      </trkpt>
      <trkpt lat="42.465904" lon="-5.329232">
        <ele>899.6070414092392</ele>
        <time>2022-05-20T12:21:08Z</time>
      </trkpt>
      <trkpt lat="42.465995" lon="-5.329264">
        <ele>901.9613730628043</ele>
        <time>2022-05-20T12:21:15Z</time>
      </trkpt>
      <trkpt lat="42.466091" lon="-5.329288">
        <ele>905.2749019544572</ele>
        <time>2022-05-20T12:21:22Z</time>
      </trkpt>
      <trkpt lat="42.466187" lon="-5.329283">
        <ele>909.1300410013646</ele>
        <time>2022-05-20T12:21:28Z</time>
      </trkpt>
      <trkpt lat="42.466285" lon="-5.329325">
        <ele>911.7547422954813</ele>
        <time>2022-05-20T12:21:36Z</time>
      </trkpt>
      <trkpt lat="42.466381" lon="-5.329368">
        <ele>912.6584428753704</ele>
        <time>2022-05-20T12:21:43Z</time>
      </trkpt>
      <trkpt lat="42.466471" lon="-5.329408">
        <ele>912.9116082619876</ele>
        <time>2022-05-20T12:21:50Z</time>
      </trkpt>
      <trkpt lat="42.466563" lon="-5.32944">
        <ele>912.6767264800146</ele>
        <time>2022-05-20T12:21:58Z</time>
      </trkpt>
      <trkpt lat="42.46665" lon="-5.329505">
        <ele>912.6533234743401</ele>
        <time>2022-05-20T12:22:05Z</time>
      </trkpt>
      <trkpt lat="42.466741" lon="-5.32956">
        <ele>912.5075665581971</ele>
        <time>2022-05-20T12:22:12Z</time>
      </trkpt>
      <trkpt lat="42.46683" lon="-5.329582">
        <ele>910.4672518055886</ele>
        <time>2022-05-20T12:22:18Z</time>
      </trkpt>
      <trkpt lat="42.466923" lon="-5.329623">
        <ele>910.0898024076596</ele>
        <time>2022-05-20T12:22:26Z</time>
      </trkpt>
      <trkpt lat="42.467013" lon="-5.329663">
        <ele>909.4557445682585</ele>
        <time>2022-05-20T12:22:33Z</time>
      </trkpt>
      <trkpt lat="42.467105" lon="-5.329693">
        <ele>908.4138293042779</ele>
        <time>2022-05-20T12:22:41Z</time>
      </trkpt>
      <trkpt lat="42.467201" lon="-5.32974">
        <ele>906.8397274762392</ele>
        <time>2022-05-20T12:22:48Z</time>
      </trkpt>
      <trkpt lat="42.467289" lon="-5.329792">
        <ele>906.6025588940829</ele>
        <time>2022-05-20T12:22:55Z</time>
      </trkpt>
      <trkpt lat="42.467392" lon="-5.329806">
        <ele>908.1268898872659</ele>
        <time>2022-05-20T12:23:01Z</time>
      </trkpt>
      <trkpt lat="42.46747" lon="-5.329893">
        <ele>907.9146993309259</ele>
        <time>2022-05-20T12:23:08Z</time>
      </trkpt>
      <trkpt lat="42.467536" lon="-5.329996">
        <ele>906.2491002175957</ele>
        <time>2022-05-20T12:23:15Z</time>
      </trkpt>
      <trkpt lat="42.467599" lon="-5.330084">
        <ele>903.5123043116182</ele>
        <time>2022-05-20T12:23:23Z</time>
      </trkpt>
      <trkpt lat="42.467684" lon="-5.330153">
        <ele>903.3867305675521</ele>
        <time>2022-05-20T12:23:30Z</time>
      </trkpt>
      <trkpt lat="42.46774" lon="-5.330254">
        <ele>902.2669160729274</ele>
        <time>2022-05-20T12:23:35Z</time>
      </trkpt>
      <trkpt lat="42.467804" lon="-5.330348">
        <ele>902.1957871057093</ele>
        <time>2022-05-20T12:23:43Z</time>
      </trkpt>
      <trkpt lat="42.467873" lon="-5.330441">
        <ele>901.2361843502149</ele>
        <time>2022-05-20T12:23:49Z</time>
      </trkpt>
      <trkpt lat="42.467929" lon="-5.33058">
        <ele>900.4352135425434</ele>
        <time>2022-05-20T12:23:57Z</time>
      </trkpt>
      <trkpt lat="42.467976" lon="-5.330704">
        <ele>898.1673657083884</ele>
        <time>2022-05-20T12:24:04Z</time>
      </trkpt>
      <trkpt lat="42.46801" lon="-5.330835">
        <ele>896.6761231292039</ele>
        <time>2022-05-20T12:24:10Z</time>
      </trkpt>
      <trkpt lat="42.468029" lon="-5.330969">
        <ele>895.7117087272927</ele>
        <time>2022-05-20T12:24:17Z</time>
      </trkpt>
      <trkpt lat="42.468064" lon="-5.3311">
        <ele>893.4855034984648</ele>
        <time>2022-05-20T12:24:25Z</time>
      </trkpt>
      <trkpt lat="42.468062" lon="-5.331238">
        <ele>890.7360224118456</ele>
        <time>2022-05-20T12:24:33Z</time>
      </trkpt>
      <trkpt lat="42.468062" lon="-5.331369">
        <ele>889.0690262177959</ele>
        <time>2022-05-20T12:24:42Z</time>
      </trkpt>
      <trkpt lat="42.468102" lon="-5.33148">
        <ele>888.1308858953416</ele>
        <time>2022-05-20T12:24:48Z</time>
      </trkpt>
      <trkpt lat="42.46811" lon="-5.33162">
        <ele>884.3790450319648</ele>
        <time>2022-05-20T12:24:55Z</time>
      </trkpt>
      <trkpt lat="42.468137" lon="-5.331767">
        <ele>882.2794228149578</ele>
        <time>2022-05-20T12:25:02Z</time>
      </trkpt>
      <trkpt lat="42.468166" lon="-5.331887">
        <ele>880.7014482645318</ele>
        <time>2022-05-20T12:25:08Z</time>
      </trkpt>
      <trkpt lat="42.468171" lon="-5.332033">
        <ele>877.8727732887492</ele>
        <time>2022-05-20T12:25:17Z</time>
      </trkpt>
      <trkpt lat="42.468175" lon="-5.332174">
        <ele>876.6042407024652</ele>
        <time>2022-05-20T12:25:25Z</time>
      </trkpt>
      <trkpt lat="42.468192" lon="-5.332307">
        <ele>875.7021209159866</ele>
        <time>2022-05-20T12:25:32Z</time>
      </trkpt>
      <trkpt lat="42.468206" lon="-5.332437">
        <ele>876.385161716491</ele>
        <time>2022-05-20T12:25:39Z</time>
      </trkpt>
      <trkpt lat="42.468212" lon="-5.332584">
        <ele>876.232413531281</ele>
        <time>2022-05-20T12:25:47Z</time>
      </trkpt>
      <trkpt lat="42.468215" lon="-5.332721">
        <ele>876.5071340473369</ele>
        <time>2022-05-20T12:25:55Z</time>
      </trkpt>
      <trkpt lat="42.468248" lon="-5.332849">
        <ele>876.4418051252142</ele>
        <time>2022-05-20T12:26:02Z</time>
      </trkpt>
      <trkpt lat="42.468263" lon="-5.332981">
        <ele>876.0238737147301</ele>
        <time>2022-05-20T12:26:09Z</time>
      </trkpt>
      <trkpt lat="42.468277" lon="-5.333137">
        <ele>876.3353909133002</ele>
        <time>2022-05-20T12:26:17Z</time>
      </trkpt>
      <trkpt lat="42.468296" lon="-5.333274">
        <ele>877.2111986270174</ele>
        <time>2022-05-20T12:26:24Z</time>
      </trkpt>
      <trkpt lat="42.468301" lon="-5.3334">
        <ele>876.019194483757</ele>
        <time>2022-05-20T12:26:32Z</time>
      </trkpt>
      <trkpt lat="42.468293" lon="-5.333535">
        <ele>875.9000982893631</ele>
        <time>2022-05-20T12:26:39Z</time>
      </trkpt>
      <trkpt lat="42.468297" lon="-5.333658">
        <ele>874.6425679447129</ele>
        <time>2022-05-20T12:26:46Z</time>
      </trkpt>
      <trkpt lat="42.468284" lon="-5.333796">
        <ele>874.5528959129006</ele>
        <time>2022-05-20T12:26:54Z</time>
      </trkpt>
      <trkpt lat="42.468276" lon="-5.333921">
        <ele>873.783782617189</ele>
        <time>2022-05-20T12:27:01Z</time>
      </trkpt>
      <trkpt lat="42.468287" lon="-5.334052">
        <ele>873.0981372399256</ele>
        <time>2022-05-20T12:27:08Z</time>
      </trkpt>
      <trkpt lat="42.468308" lon="-5.334171">
        <ele>872.4991304753348</ele>
        <time>2022-05-20T12:27:14Z</time>
      </trkpt>
      <trkpt lat="42.468306" lon="-5.334308">
        <ele>872.9610947370529</ele>
        <time>2022-05-20T12:27:21Z</time>
      </trkpt>
      <trkpt lat="42.468315" lon="-5.334435">
        <ele>873.7558453744277</ele>
        <time>2022-05-20T12:27:28Z</time>
      </trkpt>
      <trkpt lat="42.468315" lon="-5.334568">
        <ele>873.7953523863107</ele>
        <time>2022-05-20T12:27:35Z</time>
      </trkpt>
      <trkpt lat="42.468313" lon="-5.3347">
        <ele>873.6420089183375</ele>
        <time>2022-05-20T12:27:42Z</time>
      </trkpt>
      <trkpt lat="42.468295" lon="-5.33483">
        <ele>872.9847543928772</ele>
        <time>2022-05-20T12:27:50Z</time>
      </trkpt>
      <trkpt lat="42.468291" lon="-5.334961">
        <ele>872.6677112877369</ele>
        <time>2022-05-20T12:27:57Z</time>
      </trkpt>
      <trkpt lat="42.46829" lon="-5.335096">
        <ele>872.5164928594604</ele>
        <time>2022-05-20T12:28:04Z</time>
      </trkpt>
      <trkpt lat="42.468303" lon="-5.335226">
        <ele>872.2877820618451</ele>
        <time>2022-05-20T12:28:11Z</time>
      </trkpt>
      <trkpt lat="42.468327" lon="-5.335356">
        <ele>872.6053769364953</ele>
        <time>2022-05-20T12:28:18Z</time>
      </trkpt>
      <trkpt lat="42.468345" lon="-5.335481">
        <ele>872.9772242046893</ele>
        <time>2022-05-20T12:28:26Z</time>
      </trkpt>
      <trkpt lat="42.468366" lon="-5.335618">
        <ele>873.5177235258743</ele>
        <time>2022-05-20T12:28:33Z</time>
      </trkpt>
      <trkpt lat="42.468383" lon="-5.335751">
        <ele>873.40745474305</ele>
        <time>2022-05-20T12:28:40Z</time>
      </trkpt>
      <trkpt lat="42.468381" lon="-5.335884">
        <ele>873.6224994137883</ele>
        <time>2022-05-20T12:28:47Z</time>
      </trkpt>
      <trkpt lat="42.468372" lon="-5.336007">
        <ele>873.4564223438501</ele>
        <time>2022-05-20T12:28:55Z</time>
      </trkpt>
      <trkpt lat="42.468369" lon="-5.336138">
        <ele>872.5228861439973</ele>
        <time>2022-05-20T12:29:03Z</time>
      </trkpt>
      <trkpt lat="42.468386" lon="-5.336274">
        <ele>873.5447482513264</ele>
        <time>2022-05-20T12:29:10Z</time>
      </trkpt>
      <trkpt lat="42.468396" lon="-5.336401">
        <ele>872.9422803800553</ele>
        <time>2022-05-20T12:29:17Z</time>
      </trkpt>
      <trkpt lat="42.468398" lon="-5.336538">
        <ele>872.6150557165965</ele>
        <time>2022-05-20T12:29:25Z</time>
      </trkpt>
      <trkpt lat="42.468393" lon="-5.336667">
        <ele>873.0325303534046</ele>
        <time>2022-05-20T12:29:33Z</time>
      </trkpt>
      <trkpt lat="42.46838" lon="-5.336797">
        <ele>872.6719196923077</ele>
        <time>2022-05-20T12:29:40Z</time>
      </trkpt>
      <trkpt lat="42.468379" lon="-5.336923">
        <ele>871.9778503617272</ele>
        <time>2022-05-20T12:29:48Z</time>
      </trkpt>
      <trkpt lat="42.468383" lon="-5.337055">
        <ele>871.9975317744538</ele>
        <time>2022-05-20T12:29:56Z</time>
      </trkpt>
      <trkpt lat="42.468367" lon="-5.337181">
        <ele>873.772137125954</ele>
        <time>2022-05-20T12:30:05Z</time>
      </trkpt>
      <trkpt lat="42.468397" lon="-5.337319">
        <ele>874.6155120069161</ele>
        <time>2022-05-20T12:30:12Z</time>
      </trkpt>
      <trkpt lat="42.468427" lon="-5.337445">
        <ele>876.5543645555153</ele>
        <time>2022-05-20T12:30:19Z</time>
      </trkpt>
      <trkpt lat="42.468463" lon="-5.33757">
        <ele>877.2096131918952</ele>
        <time>2022-05-20T12:30:26Z</time>
      </trkpt>
      <trkpt lat="42.468501" lon="-5.3377">
        <ele>878.2908944170922</ele>
        <time>2022-05-20T12:30:33Z</time>
      </trkpt>
      <trkpt lat="42.468541" lon="-5.337824">
        <ele>879.769883165136</ele>
        <time>2022-05-20T12:30:39Z</time>
      </trkpt>
      <trkpt lat="42.468583" lon="-5.337947">
        <ele>880.6909204944968</ele>
        <time>2022-05-20T12:30:46Z</time>
      </trkpt>
      <trkpt lat="42.468624" lon="-5.338064">
        <ele>880.9748169044033</ele>
        <time>2022-05-20T12:30:54Z</time>
      </trkpt>
      <trkpt lat="42.468683" lon="-5.338168">
        <ele>880.3559380797669</ele>
        <time>2022-05-20T12:31:01Z</time>
      </trkpt>
      <trkpt lat="42.468748" lon="-5.338268">
        <ele>880.3091583922505</ele>
        <time>2022-05-20T12:31:08Z</time>
      </trkpt>
      <trkpt lat="42.468817" lon="-5.338347">
        <ele>881.870683349669</ele>
        <time>2022-05-20T12:31:15Z</time>
      </trkpt>
      <trkpt lat="42.468887" lon="-5.338443">
        <ele>879.411266609095</ele>
        <time>2022-05-20T12:31:25Z</time>
      </trkpt>
      <trkpt lat="42.468966" lon="-5.33853">
        <ele>878.4863823354244</ele>
        <time>2022-05-20T12:31:34Z</time>
      </trkpt>
      <trkpt lat="42.469037" lon="-5.338616">
        <ele>878.1193358413875</ele>
        <time>2022-05-20T12:31:41Z</time>
      </trkpt>
      <trkpt lat="42.469134" lon="-5.338662">
        <ele>878.3223335156217</ele>
        <time>2022-05-20T12:31:50Z</time>
      </trkpt>
      <trkpt lat="42.469208" lon="-5.338738">
        <ele>878.1405922276899</ele>
        <time>2022-05-20T12:31:56Z</time>
      </trkpt>
      <trkpt lat="42.46929" lon="-5.338804">
        <ele>876.9983200440183</ele>
        <time>2022-05-20T12:32:06Z</time>
      </trkpt>
      <trkpt lat="42.469363" lon="-5.338891">
        <ele>878.5570009788498</ele>
        <time>2022-05-20T12:32:14Z</time>
      </trkpt>
      <trkpt lat="42.469423" lon="-5.338986">
        <ele>878.3675990775228</ele>
        <time>2022-05-20T12:32:21Z</time>
      </trkpt>
      <trkpt lat="42.469423" lon="-5.338986">
        <ele>878.3675990775228</ele>
        <time>2022-05-20T12:32:22Z</time>
      </trkpt>
      <trkpt lat="42.469476" lon="-5.339085">
        <ele>877.9074059026316</ele>
        <time>2022-05-20T12:32:30Z</time>
      </trkpt>
      <trkpt lat="42.469548" lon="-5.339161">
        <ele>879.160965594463</ele>
        <time>2022-05-20T12:32:38Z</time>
      </trkpt>
      <trkpt lat="42.469626" lon="-5.33925">
        <ele>879.2214098796248</ele>
        <time>2022-05-20T12:32:46Z</time>
      </trkpt>
      <trkpt lat="42.46969" lon="-5.339342">
        <ele>879.4464241974056</ele>
        <time>2022-05-20T12:32:53Z</time>
      </trkpt>
      <trkpt lat="42.469761" lon="-5.339424">
        <ele>879.2004470136017</ele>
        <time>2022-05-20T12:33:01Z</time>
      </trkpt>
      <trkpt lat="42.469837" lon="-5.339519">
        <ele>879.9442094927654</ele>
        <time>2022-05-20T12:33:09Z</time>
      </trkpt>
      <trkpt lat="42.469911" lon="-5.339593">
        <ele>878.7593041853979</ele>
        <time>2022-05-20T12:33:16Z</time>
      </trkpt>
      <trkpt lat="42.46998" lon="-5.339676">
        <ele>880.0718387868255</ele>
        <time>2022-05-20T12:33:23Z</time>
      </trkpt>
      <trkpt lat="42.470055" lon="-5.339745">
        <ele>881.2392086014152</ele>
        <time>2022-05-20T12:33:29Z</time>
      </trkpt>
      <trkpt lat="42.470121" lon="-5.33983">
        <ele>882.728332308121</ele>
        <time>2022-05-20T12:33:35Z</time>
      </trkpt>
      <trkpt lat="42.470194" lon="-5.339927">
        <ele>883.818297740072</ele>
        <time>2022-05-20T12:33:43Z</time>
      </trkpt>
      <trkpt lat="42.470251" lon="-5.340028">
        <ele>885.5242832424119</ele>
        <time>2022-05-20T12:33:51Z</time>
      </trkpt>
      <trkpt lat="42.470284" lon="-5.340151">
        <ele>886.6813257262111</ele>
        <time>2022-05-20T12:33:59Z</time>
      </trkpt>
      <trkpt lat="42.47032" lon="-5.34027">
        <ele>886.520791365765</ele>
        <time>2022-05-20T12:34:06Z</time>
      </trkpt>
      <trkpt lat="42.470357" lon="-5.340387">
        <ele>886.8255759095773</ele>
        <time>2022-05-20T12:34:12Z</time>
      </trkpt>
      <trkpt lat="42.470383" lon="-5.340517">
        <ele>886.182317789644</ele>
        <time>2022-05-20T12:34:19Z</time>
      </trkpt>
      <trkpt lat="42.470407" lon="-5.340645">
        <ele>887.1215821402147</ele>
        <time>2022-05-20T12:34:27Z</time>
      </trkpt>
      <trkpt lat="42.470437" lon="-5.34078">
        <ele>887.9703676374629</ele>
        <time>2022-05-20T12:34:36Z</time>
      </trkpt>
      <trkpt lat="42.470466" lon="-5.340901">
        <ele>888.9878474455327</ele>
        <time>2022-05-20T12:34:42Z</time>
      </trkpt>
      <trkpt lat="42.470501" lon="-5.341022">
        <ele>890.7189272232354</ele>
        <time>2022-05-20T12:34:49Z</time>
      </trkpt>
      <trkpt lat="42.47053" lon="-5.341155">
        <ele>893.648908645846</ele>
        <time>2022-05-20T12:34:56Z</time>
      </trkpt>
      <trkpt lat="42.470544" lon="-5.341282">
        <ele>894.0588919157162</ele>
        <time>2022-05-20T12:35:05Z</time>
      </trkpt>
      <trkpt lat="42.470554" lon="-5.341404">
        <ele>894.5911942804232</ele>
        <time>2022-05-20T12:35:11Z</time>
      </trkpt>
      <trkpt lat="42.470552" lon="-5.341527">
        <ele>894.6646513622254</ele>
        <time>2022-05-20T12:35:18Z</time>
      </trkpt>
      <trkpt lat="42.470563" lon="-5.341665">
        <ele>893.9873872566968</ele>
        <time>2022-05-20T12:35:26Z</time>
      </trkpt>
      <trkpt lat="42.470572" lon="-5.341793">
        <ele>892.5602848799899</ele>
        <time>2022-05-20T12:35:33Z</time>
      </trkpt>
      <trkpt lat="42.470593" lon="-5.341924">
        <ele>891.9926725979894</ele>
        <time>2022-05-20T12:35:40Z</time>
      </trkpt>
      <trkpt lat="42.470596" lon="-5.342054">
        <ele>891.2053496073931</ele>
        <time>2022-05-20T12:35:48Z</time>
      </trkpt>
      <trkpt lat="42.470595" lon="-5.342177">
        <ele>892.8299032310024</ele>
        <time>2022-05-20T12:35:55Z</time>
      </trkpt>
      <trkpt lat="42.470612" lon="-5.342308">
        <ele>892.7122200494632</ele>
        <time>2022-05-20T12:36:02Z</time>
      </trkpt>
      <trkpt lat="42.470626" lon="-5.342443">
        <ele>893.0133727155626</ele>
        <time>2022-05-20T12:36:08Z</time>
      </trkpt>
      <trkpt lat="42.470635" lon="-5.342578">
        <ele>893.3007683996111</ele>
        <time>2022-05-20T12:36:17Z</time>
      </trkpt>
      <trkpt lat="42.470655" lon="-5.342717">
        <ele>893.3643515482545</ele>
        <time>2022-05-20T12:36:23Z</time>
      </trkpt>
      <trkpt lat="42.470684" lon="-5.342841">
        <ele>892.4102476108819</ele>
        <time>2022-05-20T12:36:30Z</time>
      </trkpt>
      <trkpt lat="42.470709" lon="-5.342961">
        <ele>893.0660782763734</ele>
        <time>2022-05-20T12:36:37Z</time>
      </trkpt>
      <trkpt lat="42.470721" lon="-5.343095">
        <ele>892.5297659588978</ele>
        <time>2022-05-20T12:36:43Z</time>
      </trkpt>
      <trkpt lat="42.470718" lon="-5.343218">
        <ele>892.7718288255855</ele>
        <time>2022-05-20T12:36:50Z</time>
      </trkpt>
      <trkpt lat="42.47073" lon="-5.34335">
        <ele>892.7528332788497</ele>
        <time>2022-05-20T12:36:57Z</time>
      </trkpt>
      <trkpt lat="42.470743" lon="-5.343473">
        <ele>891.954605024308</ele>
        <time>2022-05-20T12:37:03Z</time>
      </trkpt>
      <trkpt lat="42.47076" lon="-5.343609">
        <ele>891.1389053016901</ele>
        <time>2022-05-20T12:37:10Z</time>
      </trkpt>
      <trkpt lat="42.470765" lon="-5.343745">
        <ele>890.4220553301275</ele>
        <time>2022-05-20T12:37:17Z</time>
      </trkpt>
      <trkpt lat="42.470772" lon="-5.343898">
        <ele>890.4984097359702</ele>
        <time>2022-05-20T12:37:25Z</time>
      </trkpt>
      <trkpt lat="42.47078" lon="-5.344032">
        <ele>890.782552418299</ele>
        <time>2022-05-20T12:37:32Z</time>
      </trkpt>
      <trkpt lat="42.470774" lon="-5.344179">
        <ele>890.7829039935023</ele>
        <time>2022-05-20T12:37:40Z</time>
      </trkpt>
      <trkpt lat="42.470778" lon="-5.344309">
        <ele>891.2599187605083</ele>
        <time>2022-05-20T12:37:47Z</time>
      </trkpt>
      <trkpt lat="42.470799" lon="-5.344461">
        <ele>890.9911389052868</ele>
        <time>2022-05-20T12:37:55Z</time>
      </trkpt>
      <trkpt lat="42.470788" lon="-5.344597">
        <ele>890.1349416188896</ele>
        <time>2022-05-20T12:38:02Z</time>
      </trkpt>
      <trkpt lat="42.470772" lon="-5.344729">
        <ele>889.6549739055336</ele>
        <time>2022-05-20T12:38:10Z</time>
      </trkpt>
      <trkpt lat="42.470766" lon="-5.344855">
        <ele>890.1473338138312</ele>
        <time>2022-05-20T12:38:16Z</time>
      </trkpt>
      <trkpt lat="42.470755" lon="-5.344989">
        <ele>889.7129666982219</ele>
        <time>2022-05-20T12:38:24Z</time>
      </trkpt>
      <trkpt lat="42.470753" lon="-5.345129">
        <ele>890.2240004753694</ele>
        <time>2022-05-20T12:38:31Z</time>
      </trkpt>
      <trkpt lat="42.470758" lon="-5.345261">
        <ele>890.9380096644163</ele>
        <time>2022-05-20T12:38:38Z</time>
      </trkpt>
      <trkpt lat="42.470742" lon="-5.345398">
        <ele>891.2583283269778</ele>
        <time>2022-05-20T12:38:45Z</time>
      </trkpt>
      <trkpt lat="42.470717" lon="-5.345525">
        <ele>891.4913393631577</ele>
        <time>2022-05-20T12:38:52Z</time>
      </trkpt>
      <trkpt lat="42.470703" lon="-5.345649">
        <ele>891.8231466365978</ele>
        <time>2022-05-20T12:39:00Z</time>
      </trkpt>
      <trkpt lat="42.470695" lon="-5.345778">
        <ele>890.7512548202649</ele>
        <time>2022-05-20T12:39:07Z</time>
      </trkpt>
      <trkpt lat="42.470678" lon="-5.345898">
        <ele>888.5949682369828</ele>
        <time>2022-05-20T12:39:14Z</time>
      </trkpt>
      <trkpt lat="42.470652" lon="-5.346033">
        <ele>886.3930050823838</ele>
        <time>2022-05-20T12:39:21Z</time>
      </trkpt>
      <trkpt lat="42.470641" lon="-5.346169">
        <ele>886.4350309874862</ele>
        <time>2022-05-20T12:39:30Z</time>
      </trkpt>
      <trkpt lat="42.470615" lon="-5.34629">
        <ele>885.950865264982</ele>
        <time>2022-05-20T12:39:37Z</time>
      </trkpt>
      <trkpt lat="42.47061" lon="-5.346429">
        <ele>885.220939302817</ele>
        <time>2022-05-20T12:39:44Z</time>
      </trkpt>
      <trkpt lat="42.47059" lon="-5.346567">
        <ele>883.7781824311242</ele>
        <time>2022-05-20T12:39:52Z</time>
      </trkpt>
      <trkpt lat="42.470589" lon="-5.346706">
        <ele>882.5393332755193</ele>
        <time>2022-05-20T12:39:59Z</time>
      </trkpt>
      <trkpt lat="42.470585" lon="-5.346832">
        <ele>882.2946291454136</ele>
        <time>2022-05-20T12:40:06Z</time>
      </trkpt>
      <trkpt lat="42.470577" lon="-5.346956">
        <ele>882.7570740766823</ele>
        <time>2022-05-20T12:40:14Z</time>
      </trkpt>
      <trkpt lat="42.470565" lon="-5.347088">
        <ele>882.9236600613222</ele>
        <time>2022-05-20T12:40:24Z</time>
      </trkpt>
      <trkpt lat="42.470564" lon="-5.347221">
        <ele>881.7221889197826</ele>
        <time>2022-05-20T12:40:32Z</time>
      </trkpt>
      <trkpt lat="42.470558" lon="-5.347358">
        <ele>881.5285476408899</ele>
        <time>2022-05-20T12:40:40Z</time>
      </trkpt>
      <trkpt lat="42.470556" lon="-5.347495">
        <ele>881.3861671872437</ele>
        <time>2022-05-20T12:40:49Z</time>
      </trkpt>
      <trkpt lat="42.470571" lon="-5.347629">
        <ele>880.9760835841298</ele>
        <time>2022-05-20T12:40:56Z</time>
      </trkpt>
      <trkpt lat="42.470591" lon="-5.347756">
        <ele>879.8529672585428</ele>
        <time>2022-05-20T12:41:02Z</time>
      </trkpt>
      <trkpt lat="42.470611" lon="-5.34788">
        <ele>878.3729438344017</ele>
        <time>2022-05-20T12:41:09Z</time>
      </trkpt>
      <trkpt lat="42.470649" lon="-5.348005">
        <ele>878.2144756438211</ele>
        <time>2022-05-20T12:41:16Z</time>
      </trkpt>
      <trkpt lat="42.470687" lon="-5.348118">
        <ele>878.7059444850311</ele>
        <time>2022-05-20T12:41:22Z</time>
      </trkpt>
      <trkpt lat="42.470733" lon="-5.348239">
        <ele>879.6698448853567</ele>
        <time>2022-05-20T12:41:32Z</time>
      </trkpt>
      <trkpt lat="42.470759" lon="-5.34836">
        <ele>879.3110080873594</ele>
        <time>2022-05-20T12:41:39Z</time>
      </trkpt>
      <trkpt lat="42.470807" lon="-5.348471">
        <ele>878.6378737054765</ele>
        <time>2022-05-20T12:41:46Z</time>
      </trkpt>
      <trkpt lat="42.470846" lon="-5.348604">
        <ele>877.4457021998242</ele>
        <time>2022-05-20T12:41:54Z</time>
      </trkpt>
      <trkpt lat="42.470883" lon="-5.348737">
        <ele>876.1124224727973</ele>
        <time>2022-05-20T12:42:04Z</time>
      </trkpt>
      <trkpt lat="42.470929" lon="-5.348859">
        <ele>875.7549552554265</ele>
        <time>2022-05-20T12:42:11Z</time>
      </trkpt>
      <trkpt lat="42.470978" lon="-5.348992">
        <ele>873.709087160416</ele>
        <time>2022-05-20T12:42:19Z</time>
      </trkpt>
      <trkpt lat="42.471016" lon="-5.349117">
        <ele>872.4883656809106</ele>
        <time>2022-05-20T12:42:26Z</time>
      </trkpt>
      <trkpt lat="42.471058" lon="-5.34924">
        <ele>871.1921104053035</ele>
        <time>2022-05-20T12:42:34Z</time>
      </trkpt>
      <trkpt lat="42.4711" lon="-5.349357">
        <ele>871.7878005402163</ele>
        <time>2022-05-20T12:42:41Z</time>
      </trkpt>
      <trkpt lat="42.471164" lon="-5.349461">
        <ele>872.7421143669635</ele>
        <time>2022-05-20T12:42:47Z</time>
      </trkpt>
      <trkpt lat="42.471201" lon="-5.349583">
        <ele>872.7638934943825</ele>
        <time>2022-05-20T12:42:55Z</time>
      </trkpt>
      <trkpt lat="42.47125" lon="-5.3497">
        <ele>873.9606099240482</ele>
        <time>2022-05-20T12:43:02Z</time>
      </trkpt>
      <trkpt lat="42.471322" lon="-5.349809">
        <ele>874.2254373263568</ele>
        <time>2022-05-20T12:43:09Z</time>
      </trkpt>
      <trkpt lat="42.471362" lon="-5.349918">
        <ele>874.7136176694185</ele>
        <time>2022-05-20T12:43:16Z</time>
      </trkpt>
      <trkpt lat="42.471394" lon="-5.350039">
        <ele>876.1550791235641</ele>
        <time>2022-05-20T12:43:24Z</time>
      </trkpt>
      <trkpt lat="42.471448" lon="-5.350173">
        <ele>875.4163005882874</ele>
        <time>2022-05-20T12:43:31Z</time>
      </trkpt>
      <trkpt lat="42.471494" lon="-5.350292">
        <ele>873.5755106592551</ele>
        <time>2022-05-20T12:43:38Z</time>
      </trkpt>
      <trkpt lat="42.47155" lon="-5.350403">
        <ele>874.1143692675978</ele>
        <time>2022-05-20T12:43:46Z</time>
      </trkpt>
      <trkpt lat="42.471585" lon="-5.350534">
        <ele>873.484802832827</ele>
        <time>2022-05-20T12:43:55Z</time>
      </trkpt>
      <trkpt lat="42.47161" lon="-5.350657">
        <ele>872.356337307021</ele>
        <time>2022-05-20T12:44:02Z</time>
      </trkpt>
      <trkpt lat="42.471657" lon="-5.350765">
        <ele>870.6170661309734</ele>
        <time>2022-05-20T12:44:08Z</time>
      </trkpt>
      <trkpt lat="42.471676" lon="-5.350896">
        <ele>868.1114911772311</ele>
        <time>2022-05-20T12:44:18Z</time>
      </trkpt>
      <trkpt lat="42.47169" lon="-5.351018">
        <ele>867.3179427320138</ele>
        <time>2022-05-20T12:44:26Z</time>
      </trkpt>
      <trkpt lat="42.47171" lon="-5.351137">
        <ele>866.6634387960657</ele>
        <time>2022-05-20T12:44:33Z</time>
      </trkpt>
      <trkpt lat="42.471737" lon="-5.351262">
        <ele>865.1109067574143</ele>
        <time>2022-05-20T12:44:40Z</time>
      </trkpt>
      <trkpt lat="42.471758" lon="-5.351384">
        <ele>863.6352214384824</ele>
        <time>2022-05-20T12:44:48Z</time>
      </trkpt>
      <trkpt lat="42.471778" lon="-5.351507">
        <ele>861.8722766842693</ele>
        <time>2022-05-20T12:44:55Z</time>
      </trkpt>
      <trkpt lat="42.471811" lon="-5.351626">
        <ele>862.3116721613333</ele>
        <time>2022-05-20T12:45:01Z</time>
      </trkpt>
      <trkpt lat="42.471831" lon="-5.35175">
        <ele>861.9347789958119</ele>
        <time>2022-05-20T12:45:10Z</time>
      </trkpt>
      <trkpt lat="42.471859" lon="-5.351867">
        <ele>861.2330026775599</ele>
        <time>2022-05-20T12:45:18Z</time>
      </trkpt>
      <trkpt lat="42.471962" lon="-5.351843">
        <ele>863.6270574769005</ele>
        <time>2022-05-20T12:45:32Z</time>
      </trkpt>
      <trkpt lat="42.472006" lon="-5.351951">
        <ele>864.7240682747215</ele>
        <time>2022-05-20T12:45:43Z</time>
      </trkpt>
      <trkpt lat="42.472047" lon="-5.35207">
        <ele>865.252965470776</ele>
        <time>2022-05-20T12:46:02Z</time>
      </trkpt>
      <trkpt lat="42.472094" lon="-5.352192">
        <ele>867.227704978548</ele>
        <time>2022-05-20T12:46:10Z</time>
      </trkpt>
      <trkpt lat="42.472145" lon="-5.352294">
        <ele>866.6168398056179</ele>
        <time>2022-05-20T12:46:18Z</time>
      </trkpt>
      <trkpt lat="42.472173" lon="-5.352413">
        <ele>867.1858963957056</ele>
        <time>2022-05-20T12:46:27Z</time>
      </trkpt>
      <trkpt lat="42.472242" lon="-5.352509">
        <ele>867.1785826040432</ele>
        <time>2022-05-20T12:46:35Z</time>
      </trkpt>
      <trkpt lat="42.472146" lon="-5.352473">
        <ele>875.5949506564066</ele>
        <time>2022-05-20T12:48:15Z</time>
      </trkpt>
      <trkpt lat="42.472053" lon="-5.352438">
        <ele>874.7753373524174</ele>
        <time>2022-05-20T12:48:31Z</time>
      </trkpt>
      <trkpt lat="42.471957" lon="-5.35237">
        <ele>873.9797335863113</ele>
        <time>2022-05-20T12:49:00Z</time>
      </trkpt>
      <trkpt lat="42.472048" lon="-5.352384">
        <ele>879.4145278073847</ele>
        <time>2022-05-20T12:52:17Z</time>
      </trkpt>
      <trkpt lat="42.472082" lon="-5.352502">
        <ele>878.5358072826639</ele>
        <time>2022-05-20T12:57:19Z</time>
      </trkpt>
      <trkpt lat="42.472133" lon="-5.352603">
        <ele>881.7403069315478</ele>
        <time>2022-05-20T12:57:27Z</time>
      </trkpt>
      <trkpt lat="42.472227" lon="-5.352653">
        <ele>885.1001535532996</ele>
        <time>2022-05-20T12:57:33Z</time>
      </trkpt>
      <trkpt lat="42.472307" lon="-5.35273">
        <ele>887.2201823117211</ele>
        <time>2022-05-20T12:57:39Z</time>
      </trkpt>
      <trkpt lat="42.472392" lon="-5.352809">
        <ele>889.1920497519895</ele>
        <time>2022-05-20T12:57:46Z</time>
      </trkpt>
      <trkpt lat="42.472482" lon="-5.352887">
        <ele>892.711604825221</ele>
        <time>2022-05-20T12:57:56Z</time>
      </trkpt>
      <trkpt lat="42.472566" lon="-5.352974">
        <ele>895.0548408273607</ele>
        <time>2022-05-20T12:58:06Z</time>
      </trkpt>
      <trkpt lat="42.472652" lon="-5.353035">
        <ele>894.7997503187507</ele>
        <time>2022-05-20T12:58:14Z</time>
      </trkpt>
      <trkpt lat="42.472742" lon="-5.353062">
        <ele>892.8391008619219</ele>
        <time>2022-05-20T12:58:21Z</time>
      </trkpt>
      <trkpt lat="42.472823" lon="-5.353124">
        <ele>891.4314718078822</ele>
        <time>2022-05-20T12:58:29Z</time>
      </trkpt>
      <trkpt lat="42.472903" lon="-5.353181">
        <ele>891.1914519341663</ele>
        <time>2022-05-20T12:58:37Z</time>
      </trkpt>
      <trkpt lat="42.472984" lon="-5.353242">
        <ele>888.3687484040856</ele>
        <time>2022-05-20T12:58:44Z</time>
      </trkpt>
      <trkpt lat="42.473067" lon="-5.353313">
        <ele>884.052038853988</ele>
        <time>2022-05-20T12:58:52Z</time>
      </trkpt>
      <trkpt lat="42.473163" lon="-5.353327">
        <ele>880.0507550369948</ele>
        <time>2022-05-20T12:58:59Z</time>
      </trkpt>
      <trkpt lat="42.473259" lon="-5.353368">
        <ele>876.4298746343702</ele>
        <time>2022-05-20T12:59:08Z</time>
      </trkpt>
      <trkpt lat="42.473346" lon="-5.353402">
        <ele>873.6815601447597</ele>
        <time>2022-05-20T12:59:14Z</time>
      </trkpt>
      <trkpt lat="42.473432" lon="-5.353467">
        <ele>870.851836334914</ele>
        <time>2022-05-20T12:59:22Z</time>
      </trkpt>
      <trkpt lat="42.473484" lon="-5.353585">
        <ele>873.3241255916655</ele>
        <time>2022-05-20T12:59:37Z</time>
      </trkpt>
      <trkpt lat="42.473559" lon="-5.353674">
        <ele>874.0693061444908</ele>
        <time>2022-05-20T13:00:02Z</time>
      </trkpt>
      <trkpt lat="42.473533" lon="-5.353807">
        <ele>873.2440869193524</ele>
        <time>2022-05-20T13:00:48Z</time>
      </trkpt>
      <trkpt lat="42.473457" lon="-5.353882">
        <ele>871.0139572843909</ele>
        <time>2022-05-20T13:00:58Z</time>
      </trkpt>
      <trkpt lat="42.473366" lon="-5.353904">
        <ele>869.2128756046295</ele>
        <time>2022-05-20T13:01:09Z</time>
      </trkpt>
      <trkpt lat="42.473317" lon="-5.354014">
        <ele>871.4222247553989</ele>
        <time>2022-05-20T13:01:27Z</time>
      </trkpt>
      <trkpt lat="42.473232" lon="-5.354073">
        <ele>872.2729783104733</ele>
        <time>2022-05-20T13:01:34Z</time>
      </trkpt>
      <trkpt lat="42.473132" lon="-5.35408">
        <ele>872.2522057918832</ele>
        <time>2022-05-20T13:01:40Z</time>
      </trkpt>
      <trkpt lat="42.47309" lon="-5.354204">
        <ele>870.297083212994</ele>
        <time>2022-05-20T13:01:52Z</time>
      </trkpt>
      <trkpt lat="42.473163" lon="-5.354299">
        <ele>867.9011893775314</ele>
        <time>2022-05-20T13:01:59Z</time>
      </trkpt>
      <trkpt lat="42.473232" lon="-5.35438">
        <ele>866.0919147441164</ele>
        <time>2022-05-20T13:02:06Z</time>
      </trkpt>
      <trkpt lat="42.473243" lon="-5.354512">
        <ele>869.9626228464767</ele>
        <time>2022-05-20T13:02:16Z</time>
      </trkpt>
      <trkpt lat="42.47324" lon="-5.354642">
        <ele>870.7509646322578</ele>
        <time>2022-05-20T13:02:23Z</time>
      </trkpt>
      <trkpt lat="42.473304" lon="-5.35473">
        <ele>872.1358735775575</ele>
        <time>2022-05-20T13:02:30Z</time>
      </trkpt>
      <trkpt lat="42.473362" lon="-5.354831">
        <ele>871.9562516957521</ele>
        <time>2022-05-20T13:02:37Z</time>
      </trkpt>
      <trkpt lat="42.473445" lon="-5.354896">
        <ele>870.9713127007708</ele>
        <time>2022-05-20T13:02:44Z</time>
      </trkpt>
      <trkpt lat="42.473503" lon="-5.35499">
        <ele>869.4705989081413</ele>
        <time>2022-05-20T13:02:51Z</time>
      </trkpt>
      <trkpt lat="42.47358" lon="-5.35506">
        <ele>868.4064230946824</ele>
        <time>2022-05-20T13:02:59Z</time>
      </trkpt>
      <trkpt lat="42.473645" lon="-5.355167">
        <ele>866.7010406842455</ele>
        <time>2022-05-20T13:03:07Z</time>
      </trkpt>
      <trkpt lat="42.473663" lon="-5.355294">
        <ele>866.4578128280118</ele>
        <time>2022-05-20T13:03:17Z</time>
      </trkpt>
      <trkpt lat="42.47372" lon="-5.3554">
        <ele>866.9392314553261</ele>
        <time>2022-05-20T13:03:26Z</time>
      </trkpt>
      <trkpt lat="42.47379" lon="-5.355489">
        <ele>872.4082300383598</ele>
        <time>2022-05-20T13:03:38Z</time>
      </trkpt>
      <trkpt lat="42.473867" lon="-5.355568">
        <ele>873.5762420697138</ele>
        <time>2022-05-20T13:03:46Z</time>
      </trkpt>
      <trkpt lat="42.473943" lon="-5.355661">
        <ele>874.6762050790712</ele>
        <time>2022-05-20T13:03:55Z</time>
      </trkpt>
      <trkpt lat="42.474008" lon="-5.355766">
        <ele>874.0001057460904</ele>
        <time>2022-05-20T13:04:02Z</time>
      </trkpt>
      <trkpt lat="42.474074" lon="-5.35585">
        <ele>873.3143656980246</ele>
        <time>2022-05-20T13:04:10Z</time>
      </trkpt>
      <trkpt lat="42.474124" lon="-5.355964">
        <ele>870.8386388588697</ele>
        <time>2022-05-20T13:04:17Z</time>
      </trkpt>
      <trkpt lat="42.474161" lon="-5.35609">
        <ele>868.4875226952136</ele>
        <time>2022-05-20T13:04:25Z</time>
      </trkpt>
      <trkpt lat="42.474163" lon="-5.356223">
        <ele>869.0183832347393</ele>
        <time>2022-05-20T13:04:33Z</time>
      </trkpt>
      <trkpt lat="42.474207" lon="-5.356332">
        <ele>864.9839929332957</ele>
        <time>2022-05-20T13:04:42Z</time>
      </trkpt>
      <trkpt lat="42.47425" lon="-5.35645">
        <ele>865.1864319574088</ele>
        <time>2022-05-20T13:04:50Z</time>
      </trkpt>
      <trkpt lat="42.474263" lon="-5.356588">
        <ele>864.4931730879471</ele>
        <time>2022-05-20T13:04:59Z</time>
      </trkpt>
      <trkpt lat="42.474297" lon="-5.356713">
        <ele>861.3521841326728</ele>
        <time>2022-05-20T13:05:07Z</time>
      </trkpt>
      <trkpt lat="42.474357" lon="-5.356807">
        <ele>862.3810796840116</ele>
        <time>2022-05-20T13:05:15Z</time>
      </trkpt>
      <trkpt lat="42.474426" lon="-5.356927">
        <ele>863.6637463830411</ele>
        <time>2022-05-20T13:05:23Z</time>
      </trkpt>
      <trkpt lat="42.47447" lon="-5.357073">
        <ele>864.2005962915719</ele>
        <time>2022-05-20T13:05:33Z</time>
      </trkpt>
      <trkpt lat="42.474499" lon="-5.357198">
        <ele>866.6226891176775</ele>
        <time>2022-05-20T13:05:41Z</time>
      </trkpt>
      <trkpt lat="42.474577" lon="-5.357276">
        <ele>868.3218751335517</ele>
        <time>2022-05-20T13:05:49Z</time>
      </trkpt>
      <trkpt lat="42.474655" lon="-5.357364">
        <ele>865.627984682098</ele>
        <time>2022-05-20T13:05:59Z</time>
      </trkpt>
      <trkpt lat="42.474733" lon="-5.357472">
        <ele>865.9344749748707</ele>
        <time>2022-05-20T13:06:08Z</time>
      </trkpt>
      <trkpt lat="42.474804" lon="-5.357562">
        <ele>865.9922293685377</ele>
        <time>2022-05-20T13:06:15Z</time>
      </trkpt>
      <trkpt lat="42.474893" lon="-5.357618">
        <ele>868.5765375336632</ele>
        <time>2022-05-20T13:06:24Z</time>
      </trkpt>
      <trkpt lat="42.474979" lon="-5.357691">
        <ele>869.5745982062072</ele>
        <time>2022-05-20T13:06:33Z</time>
      </trkpt>
      <trkpt lat="42.475056" lon="-5.35777">
        <ele>870.6621641740203</ele>
        <time>2022-05-20T13:06:41Z</time>
      </trkpt>
      <trkpt lat="42.475128" lon="-5.357844">
        <ele>870.6883888067678</ele>
        <time>2022-05-20T13:06:49Z</time>
      </trkpt>
      <trkpt lat="42.475206" lon="-5.357916">
        <ele>874.416919962503</ele>
        <time>2022-05-20T13:06:58Z</time>
      </trkpt>
      <trkpt lat="42.475288" lon="-5.357979">
        <ele>878.1926156273112</ele>
        <time>2022-05-20T13:07:07Z</time>
      </trkpt>
      <trkpt lat="42.475358" lon="-5.358062">
        <ele>879.027135903947</ele>
        <time>2022-05-20T13:07:15Z</time>
      </trkpt>
      <trkpt lat="42.47543" lon="-5.35814">
        <ele>874.7888712389395</ele>
        <time>2022-05-20T13:07:24Z</time>
      </trkpt>
      <trkpt lat="42.4755" lon="-5.35824">
        <ele>872.9426230024546</ele>
        <time>2022-05-20T13:07:33Z</time>
      </trkpt>
      <trkpt lat="42.475563" lon="-5.358331">
        <ele>872.2262640967965</ele>
        <time>2022-05-20T13:07:41Z</time>
      </trkpt>
      <trkpt lat="42.475627" lon="-5.358424">
        <ele>871.2789010936394</ele>
        <time>2022-05-20T13:07:49Z</time>
      </trkpt>
      <trkpt lat="42.475689" lon="-5.358513">
        <ele>869.9167987601832</ele>
        <time>2022-05-20T13:07:56Z</time>
      </trkpt>
      <trkpt lat="42.475768" lon="-5.358595">
        <ele>869.2983120735735</ele>
        <time>2022-05-20T13:08:05Z</time>
      </trkpt>
      <trkpt lat="42.47584" lon="-5.358683">
        <ele>869.3396252142265</ele>
        <time>2022-05-20T13:08:12Z</time>
      </trkpt>
      <trkpt lat="42.475907" lon="-5.358764">
        <ele>867.412901038304</ele>
        <time>2022-05-20T13:08:19Z</time>
      </trkpt>
      <trkpt lat="42.47596" lon="-5.358869">
        <ele>865.3318425416946</ele>
        <time>2022-05-20T13:08:26Z</time>
      </trkpt>
      <trkpt lat="42.475999" lon="-5.358981">
        <ele>863.1870849793777</ele>
        <time>2022-05-20T13:08:32Z</time>
      </trkpt>
      <trkpt lat="42.476059" lon="-5.359085">
        <ele>862.3821864724159</ele>
        <time>2022-05-20T13:08:40Z</time>
      </trkpt>
      <trkpt lat="42.476109" lon="-5.359206">
        <ele>860.5251390365884</ele>
        <time>2022-05-20T13:08:47Z</time>
      </trkpt>
      <trkpt lat="42.476147" lon="-5.359326">
        <ele>859.2974891969934</ele>
        <time>2022-05-20T13:08:55Z</time>
      </trkpt>
      <trkpt lat="42.476201" lon="-5.359443">
        <ele>856.8800735417753</ele>
        <time>2022-05-20T13:09:02Z</time>
      </trkpt>
      <trkpt lat="42.476245" lon="-5.359551">
        <ele>855.833911800757</ele>
        <time>2022-05-20T13:09:10Z</time>
      </trkpt>
      <trkpt lat="42.476295" lon="-5.359662">
        <ele>854.9864338068292</ele>
        <time>2022-05-20T13:09:18Z</time>
      </trkpt>
      <trkpt lat="42.476348" lon="-5.359764">
        <ele>854.4239353341982</ele>
        <time>2022-05-20T13:09:25Z</time>
      </trkpt>
      <trkpt lat="42.4764" lon="-5.359878">
        <ele>854.1695227939636</ele>
        <time>2022-05-20T13:09:33Z</time>
      </trkpt>
      <trkpt lat="42.476448" lon="-5.359982">
        <ele>853.0639036465436</ele>
        <time>2022-05-20T13:09:39Z</time>
      </trkpt>
      <trkpt lat="42.476491" lon="-5.360099">
        <ele>852.6833373308182</ele>
        <time>2022-05-20T13:09:46Z</time>
      </trkpt>
      <trkpt lat="42.476537" lon="-5.360221">
        <ele>853.680024208501</ele>
        <time>2022-05-20T13:09:56Z</time>
      </trkpt>
      <trkpt lat="42.476597" lon="-5.360332">
        <ele>854.3458361905068</ele>
        <time>2022-05-20T13:10:04Z</time>
      </trkpt>
      <trkpt lat="42.476639" lon="-5.360446">
        <ele>854.1521170828491</ele>
        <time>2022-05-20T13:10:12Z</time>
      </trkpt>
      <trkpt lat="42.476684" lon="-5.360558">
        <ele>853.9543509762734</ele>
        <time>2022-05-20T13:10:18Z</time>
      </trkpt>
      <trkpt lat="42.476734" lon="-5.360668">
        <ele>852.9445335501805</ele>
        <time>2022-05-20T13:10:24Z</time>
      </trkpt>
      <trkpt lat="42.47677" lon="-5.360784">
        <ele>851.1916900239885</ele>
        <time>2022-05-20T13:10:30Z</time>
      </trkpt>
      <trkpt lat="42.476823" lon="-5.360886">
        <ele>849.8918527122587</ele>
        <time>2022-05-20T13:10:36Z</time>
      </trkpt>
      <trkpt lat="42.476883" lon="-5.360981">
        <ele>849.4408838413656</ele>
        <time>2022-05-20T13:10:43Z</time>
      </trkpt>
      <trkpt lat="42.476928" lon="-5.361102">
        <ele>847.6833509914577</ele>
        <time>2022-05-20T13:10:51Z</time>
      </trkpt>
      <trkpt lat="42.476977" lon="-5.361222">
        <ele>846.4416467640549</ele>
        <time>2022-05-20T13:10:58Z</time>
      </trkpt>
      <trkpt lat="42.477025" lon="-5.361327">
        <ele>846.585903908126</ele>
        <time>2022-05-20T13:11:06Z</time>
      </trkpt>
      <trkpt lat="42.477075" lon="-5.361438">
        <ele>846.5827650167048</ele>
        <time>2022-05-20T13:11:13Z</time>
      </trkpt>
      <trkpt lat="42.477124" lon="-5.361542">
        <ele>845.709568659775</ele>
        <time>2022-05-20T13:11:19Z</time>
      </trkpt>
      <trkpt lat="42.477178" lon="-5.361642">
        <ele>844.4874927150086</ele>
        <time>2022-05-20T13:11:26Z</time>
      </trkpt>
      <trkpt lat="42.47723" lon="-5.361746">
        <ele>844.6386776408181</ele>
        <time>2022-05-20T13:11:33Z</time>
      </trkpt>
      <trkpt lat="42.477284" lon="-5.361849">
        <ele>844.401145405136</ele>
        <time>2022-05-20T13:11:42Z</time>
      </trkpt>
      <trkpt lat="42.477345" lon="-5.361957">
        <ele>844.3283720184118</ele>
        <time>2022-05-20T13:11:49Z</time>
      </trkpt>
      <trkpt lat="42.477385" lon="-5.362077">
        <ele>844.6843943782151</ele>
        <time>2022-05-20T13:11:56Z</time>
      </trkpt>
      <trkpt lat="42.477429" lon="-5.362196">
        <ele>845.9292895533144</ele>
        <time>2022-05-20T13:12:04Z</time>
      </trkpt>
      <trkpt lat="42.477475" lon="-5.362316">
        <ele>846.2973790699616</ele>
        <time>2022-05-20T13:12:12Z</time>
      </trkpt>
      <trkpt lat="42.477522" lon="-5.362431">
        <ele>847.5839986884966</ele>
        <time>2022-05-20T13:12:20Z</time>
      </trkpt>
      <trkpt lat="42.477569" lon="-5.362539">
        <ele>847.4920433135703</ele>
        <time>2022-05-20T13:12:26Z</time>
      </trkpt>
      <trkpt lat="42.477628" lon="-5.362643">
        <ele>847.1258610151708</ele>
        <time>2022-05-20T13:12:34Z</time>
      </trkpt>
      <trkpt lat="42.477688" lon="-5.362749">
        <ele>848.2068569781259</ele>
        <time>2022-05-20T13:12:42Z</time>
      </trkpt>
      <trkpt lat="42.477744" lon="-5.362854">
        <ele>848.8028695769608</ele>
        <time>2022-05-20T13:12:50Z</time>
      </trkpt>
      <trkpt lat="42.477792" lon="-5.362961">
        <ele>849.7058825232089</ele>
        <time>2022-05-20T13:12:57Z</time>
      </trkpt>
      <trkpt lat="42.477835" lon="-5.363077">
        <ele>848.9692446859553</ele>
        <time>2022-05-20T13:13:04Z</time>
      </trkpt>
      <trkpt lat="42.477894" lon="-5.363178">
        <ele>849.8218408357352</ele>
        <time>2022-05-20T13:13:11Z</time>
      </trkpt>
      <trkpt lat="42.477931" lon="-5.363291">
        <ele>848.9994887132198</ele>
        <time>2022-05-20T13:13:17Z</time>
      </trkpt>
      <trkpt lat="42.477977" lon="-5.363399">
        <ele>849.1016815761104</ele>
        <time>2022-05-20T13:13:25Z</time>
      </trkpt>
      <trkpt lat="42.478031" lon="-5.363513">
        <ele>848.7119446061552</ele>
        <time>2022-05-20T13:13:33Z</time>
      </trkpt>
      <trkpt lat="42.478081" lon="-5.363623">
        <ele>849.1907263593748</ele>
        <time>2022-05-20T13:13:40Z</time>
      </trkpt>
      <trkpt lat="42.478129" lon="-5.363738">
        <ele>850.2534268544987</ele>
        <time>2022-05-20T13:13:48Z</time>
      </trkpt>
      <trkpt lat="42.478184" lon="-5.363845">
        <ele>849.4683370376006</ele>
        <time>2022-05-20T13:13:54Z</time>
      </trkpt>
      <trkpt lat="42.478228" lon="-5.363954">
        <ele>850.242553004995</ele>
        <time>2022-05-20T13:14:02Z</time>
      </trkpt>
      <trkpt lat="42.478289" lon="-5.364054">
        <ele>849.9607573756948</ele>
        <time>2022-05-20T13:14:09Z</time>
      </trkpt>
      <trkpt lat="42.478345" lon="-5.364162">
        <ele>850.2998595107347</ele>
        <time>2022-05-20T13:14:16Z</time>
      </trkpt>
      <trkpt lat="42.47839" lon="-5.364269">
        <ele>849.1139528285712</ele>
        <time>2022-05-20T13:14:23Z</time>
      </trkpt>
      <trkpt lat="42.47843" lon="-5.36438">
        <ele>848.2826070301235</ele>
        <time>2022-05-20T13:14:30Z</time>
      </trkpt>
      <trkpt lat="42.478475" lon="-5.364502">
        <ele>846.261952213943</ele>
        <time>2022-05-20T13:14:37Z</time>
      </trkpt>
      <trkpt lat="42.478512" lon="-5.364625">
        <ele>844.5534067982808</ele>
        <time>2022-05-20T13:14:45Z</time>
      </trkpt>
      <trkpt lat="42.478557" lon="-5.364732">
        <ele>843.1692937007174</ele>
        <time>2022-05-20T13:14:51Z</time>
      </trkpt>
      <trkpt lat="42.478606" lon="-5.364838">
        <ele>841.132059876807</ele>
        <time>2022-05-20T13:14:58Z</time>
      </trkpt>
      <trkpt lat="42.478656" lon="-5.364943">
        <ele>839.2343717571348</ele>
        <time>2022-05-20T13:15:05Z</time>
      </trkpt>
      <trkpt lat="42.47871" lon="-5.365044">
        <ele>840.380476907827</ele>
        <time>2022-05-20T13:15:12Z</time>
      </trkpt>
      <trkpt lat="42.478772" lon="-5.365143">
        <ele>841.3926898306236</ele>
        <time>2022-05-20T13:15:18Z</time>
      </trkpt>
      <trkpt lat="42.478818" lon="-5.365257">
        <ele>842.0546546075493</ele>
        <time>2022-05-20T13:15:25Z</time>
      </trkpt>
      <trkpt lat="42.478877" lon="-5.365368">
        <ele>843.63236778602</ele>
        <time>2022-05-20T13:15:34Z</time>
      </trkpt>
      <trkpt lat="42.478917" lon="-5.365486">
        <ele>843.6866265870631</ele>
        <time>2022-05-20T13:15:42Z</time>
      </trkpt>
      <trkpt lat="42.478968" lon="-5.365599">
        <ele>845.7047242941335</ele>
        <time>2022-05-20T13:15:50Z</time>
      </trkpt>
      <trkpt lat="42.479005" lon="-5.365715">
        <ele>849.400956088677</ele>
        <time>2022-05-20T13:16:01Z</time>
      </trkpt>
      <trkpt lat="42.479023" lon="-5.365835">
        <ele>851.2959104496986</ele>
        <time>2022-05-20T13:16:10Z</time>
      </trkpt>
      <trkpt lat="42.479073" lon="-5.365946">
        <ele>851.3839857522398</ele>
        <time>2022-05-20T13:16:18Z</time>
      </trkpt>
      <trkpt lat="42.479112" lon="-5.366067">
        <ele>849.567774578929</ele>
        <time>2022-05-20T13:16:24Z</time>
      </trkpt>
      <trkpt lat="42.479133" lon="-5.366187">
        <ele>849.5787151828408</ele>
        <time>2022-05-20T13:16:32Z</time>
      </trkpt>
      <trkpt lat="42.479151" lon="-5.366313">
        <ele>848.4012339534238</ele>
        <time>2022-05-20T13:16:40Z</time>
      </trkpt>
      <trkpt lat="42.479195" lon="-5.366431">
        <ele>848.229839370586</ele>
        <time>2022-05-20T13:16:48Z</time>
      </trkpt>
      <trkpt lat="42.479237" lon="-5.366554">
        <ele>848.1883639208972</ele>
        <time>2022-05-20T13:16:56Z</time>
      </trkpt>
      <trkpt lat="42.479277" lon="-5.366675">
        <ele>848.8768338868394</ele>
        <time>2022-05-20T13:17:04Z</time>
      </trkpt>
      <trkpt lat="42.479303" lon="-5.366806">
        <ele>849.6057184543461</ele>
        <time>2022-05-20T13:17:13Z</time>
      </trkpt>
      <trkpt lat="42.479335" lon="-5.366929">
        <ele>847.3674168502912</ele>
        <time>2022-05-20T13:17:23Z</time>
      </trkpt>
      <trkpt lat="42.479359" lon="-5.367046">
        <ele>845.3504615025595</ele>
        <time>2022-05-20T13:17:29Z</time>
      </trkpt>
      <trkpt lat="42.47935" lon="-5.367174">
        <ele>842.9051164286211</ele>
        <time>2022-05-20T13:17:36Z</time>
      </trkpt>
      <trkpt lat="42.479356" lon="-5.36731">
        <ele>838.2815061369911</ele>
        <time>2022-05-20T13:17:43Z</time>
      </trkpt>
      <trkpt lat="42.479372" lon="-5.367432">
        <ele>834.3190360292792</ele>
        <time>2022-05-20T13:17:50Z</time>
      </trkpt>
      <trkpt lat="42.479411" lon="-5.367555">
        <ele>831.3146066172048</ele>
        <time>2022-05-20T13:17:58Z</time>
      </trkpt>
      <trkpt lat="42.479429" lon="-5.367688">
        <ele>830.4264407781884</ele>
        <time>2022-05-20T13:18:05Z</time>
      </trkpt>
      <trkpt lat="42.479454" lon="-5.367809">
        <ele>829.1251816377044</ele>
        <time>2022-05-20T13:18:10Z</time>
      </trkpt>
      <trkpt lat="42.479466" lon="-5.367936">
        <ele>826.4279113076627</ele>
        <time>2022-05-20T13:18:18Z</time>
      </trkpt>
      <trkpt lat="42.479492" lon="-5.368073">
        <ele>826.2683977205306</ele>
        <time>2022-05-20T13:18:25Z</time>
      </trkpt>
      <trkpt lat="42.479513" lon="-5.368201">
        <ele>824.3597349217162</ele>
        <time>2022-05-20T13:18:33Z</time>
      </trkpt>
      <trkpt lat="42.479541" lon="-5.368324">
        <ele>820.7059100018814</ele>
        <time>2022-05-20T13:18:39Z</time>
      </trkpt>
      <trkpt lat="42.479578" lon="-5.368442">
        <ele>819.4558027368039</ele>
        <time>2022-05-20T13:18:45Z</time>
      </trkpt>
      <trkpt lat="42.479597" lon="-5.368567">
        <ele>817.6108687361702</ele>
        <time>2022-05-20T13:18:54Z</time>
      </trkpt>
      <trkpt lat="42.479611" lon="-5.368693">
        <ele>816.2543065138161</ele>
        <time>2022-05-20T13:19:00Z</time>
      </trkpt>
      <trkpt lat="42.47965" lon="-5.368817">
        <ele>815.1914517506957</ele>
        <time>2022-05-20T13:19:07Z</time>
      </trkpt>
      <trkpt lat="42.479677" lon="-5.368941">
        <ele>814.973788860254</ele>
        <time>2022-05-20T13:19:13Z</time>
      </trkpt>
      <trkpt lat="42.479738" lon="-5.369049">
        <ele>815.5738172903657</ele>
        <time>2022-05-20T13:19:19Z</time>
      </trkpt>
      <trkpt lat="42.479808" lon="-5.369145">
        <ele>818.4641442960128</ele>
        <time>2022-05-20T13:19:25Z</time>
      </trkpt>
      <trkpt lat="42.479884" lon="-5.369221">
        <ele>820.5989673333243</ele>
        <time>2022-05-20T13:19:30Z</time>
      </trkpt>
      <trkpt lat="42.47997" lon="-5.369271">
        <ele>825.8147106356919</ele>
        <time>2022-05-20T13:19:34Z</time>
      </trkpt>
      <trkpt lat="42.480043" lon="-5.369359">
        <ele>829.2329359035939</ele>
        <time>2022-05-20T13:19:39Z</time>
      </trkpt>
      <trkpt lat="42.480102" lon="-5.369469">
        <ele>830.7636486394331</ele>
        <time>2022-05-20T13:19:45Z</time>
      </trkpt>
      <trkpt lat="42.480165" lon="-5.369583">
        <ele>834.9560334999114</ele>
        <time>2022-05-20T13:19:55Z</time>
      </trkpt>
      <trkpt lat="42.4802" lon="-5.3697">
        <ele>837.4428587695584</ele>
        <time>2022-05-20T13:20:03Z</time>
      </trkpt>
      <trkpt lat="42.480259" lon="-5.369833">
        <ele>837.3012544894591</ele>
        <time>2022-05-20T13:20:12Z</time>
      </trkpt>
      <trkpt lat="42.480302" lon="-5.369958">
        <ele>837.131594507955</ele>
        <time>2022-05-20T13:20:20Z</time>
      </trkpt>
      <trkpt lat="42.480323" lon="-5.370082">
        <ele>836.5164998546243</ele>
        <time>2022-05-20T13:20:28Z</time>
      </trkpt>
      <trkpt lat="42.48036" lon="-5.370215">
        <ele>838.0798779316247</ele>
        <time>2022-05-20T13:20:37Z</time>
      </trkpt>
      <trkpt lat="42.480396" lon="-5.370335">
        <ele>839.7387727368623</ele>
        <time>2022-05-20T13:20:44Z</time>
      </trkpt>
      <trkpt lat="42.48043" lon="-5.37045">
        <ele>841.1471828818321</ele>
        <time>2022-05-20T13:20:52Z</time>
      </trkpt>
      <trkpt lat="42.480475" lon="-5.370592">
        <ele>843.3977627158165</ele>
        <time>2022-05-20T13:21:02Z</time>
      </trkpt>
      <trkpt lat="42.480509" lon="-5.370705">
        <ele>844.3263593930751</ele>
        <time>2022-05-20T13:21:09Z</time>
      </trkpt>
      <trkpt lat="42.480541" lon="-5.37082">
        <ele>844.6492399219424</ele>
        <time>2022-05-20T13:21:18Z</time>
      </trkpt>
      <trkpt lat="42.480579" lon="-5.370968">
        <ele>845.1257132822648</ele>
        <time>2022-05-20T13:21:27Z</time>
      </trkpt>
      <trkpt lat="42.48062" lon="-5.371083">
        <ele>844.4184839129448</ele>
        <time>2022-05-20T13:21:35Z</time>
      </trkpt>
      <trkpt lat="42.480655" lon="-5.371208">
        <ele>843.9852370144799</ele>
        <time>2022-05-20T13:21:42Z</time>
      </trkpt>
      <trkpt lat="42.480674" lon="-5.371329">
        <ele>845.4146512784064</ele>
        <time>2022-05-20T13:21:53Z</time>
      </trkpt>
      <trkpt lat="42.480733" lon="-5.371436">
        <ele>850.1928192265332</ele>
        <time>2022-05-20T13:22:04Z</time>
      </trkpt>
      <trkpt lat="42.480764" lon="-5.371555">
        <ele>852.6160934232175</ele>
        <time>2022-05-20T13:22:15Z</time>
      </trkpt>
      <trkpt lat="42.480806" lon="-5.371669">
        <ele>854.2376052904874</ele>
        <time>2022-05-20T13:22:24Z</time>
      </trkpt>
      <trkpt lat="42.480858" lon="-5.371779">
        <ele>855.5909219849855</ele>
        <time>2022-05-20T13:22:32Z</time>
      </trkpt>
      <trkpt lat="42.480909" lon="-5.371883">
        <ele>857.8516735490412</ele>
        <time>2022-05-20T13:22:39Z</time>
      </trkpt>
      <trkpt lat="42.480938" lon="-5.371999">
        <ele>857.988789123483</ele>
        <time>2022-05-20T13:22:45Z</time>
      </trkpt>
      <trkpt lat="42.480968" lon="-5.372126">
        <ele>856.7788747251034</ele>
        <time>2022-05-20T13:22:52Z</time>
      </trkpt>
      <trkpt lat="42.480998" lon="-5.372254">
        <ele>855.7991296239197</ele>
        <time>2022-05-20T13:22:58Z</time>
      </trkpt>
      <trkpt lat="42.481037" lon="-5.372371">
        <ele>855.4765412565321</ele>
        <time>2022-05-20T13:23:04Z</time>
      </trkpt>
      <trkpt lat="42.481084" lon="-5.372488">
        <ele>855.3907469520345</ele>
        <time>2022-05-20T13:23:12Z</time>
      </trkpt>
      <trkpt lat="42.481136" lon="-5.372593">
        <ele>854.9679586999118</ele>
        <time>2022-05-20T13:23:18Z</time>
      </trkpt>
      <trkpt lat="42.481176" lon="-5.372722">
        <ele>853.1761103626341</ele>
        <time>2022-05-20T13:23:24Z</time>
      </trkpt>
      <trkpt lat="42.481212" lon="-5.372839">
        <ele>852.4099817750975</ele>
        <time>2022-05-20T13:23:32Z</time>
      </trkpt>
      <trkpt lat="42.48126" lon="-5.372956">
        <ele>853.6783559285104</ele>
        <time>2022-05-20T13:23:42Z</time>
      </trkpt>
      <trkpt lat="42.481304" lon="-5.373064">
        <ele>854.3306834874675</ele>
        <time>2022-05-20T13:23:49Z</time>
      </trkpt>
      <trkpt lat="42.481343" lon="-5.373177">
        <ele>854.0683285081759</ele>
        <time>2022-05-20T13:23:55Z</time>
      </trkpt>
      <trkpt lat="42.481381" lon="-5.373288">
        <ele>856.1690627001226</ele>
        <time>2022-05-20T13:24:02Z</time>
      </trkpt>
      <trkpt lat="42.481413" lon="-5.373402">
        <ele>856.5695763071999</ele>
        <time>2022-05-20T13:24:09Z</time>
      </trkpt>
      <trkpt lat="42.48146" lon="-5.373518">
        <ele>858.7141615599394</ele>
        <time>2022-05-20T13:24:16Z</time>
      </trkpt>
      <trkpt lat="42.481495" lon="-5.373635">
        <ele>859.1995488228276</ele>
        <time>2022-05-20T13:24:22Z</time>
      </trkpt>
      <trkpt lat="42.481534" lon="-5.373752">
        <ele>859.8519228463992</ele>
        <time>2022-05-20T13:24:29Z</time>
      </trkpt>
      <trkpt lat="42.481582" lon="-5.373855">
        <ele>861.0528044616804</ele>
        <time>2022-05-20T13:24:36Z</time>
      </trkpt>
      <trkpt lat="42.481626" lon="-5.373962">
        <ele>862.0570662980899</ele>
        <time>2022-05-20T13:24:43Z</time>
      </trkpt>
      <trkpt lat="42.481668" lon="-5.374077">
        <ele>861.6613701116294</ele>
        <time>2022-05-20T13:24:50Z</time>
      </trkpt>
      <trkpt lat="42.481702" lon="-5.374194">
        <ele>859.6988786226138</ele>
        <time>2022-05-20T13:24:56Z</time>
      </trkpt>
      <trkpt lat="42.481741" lon="-5.374313">
        <ele>857.4264101590961</ele>
        <time>2022-05-20T13:25:03Z</time>
      </trkpt>
      <trkpt lat="42.481767" lon="-5.37444">
        <ele>856.1546428855509</ele>
        <time>2022-05-20T13:25:10Z</time>
      </trkpt>
      <trkpt lat="42.481797" lon="-5.374562">
        <ele>853.7269747331738</ele>
        <time>2022-05-20T13:25:17Z</time>
      </trkpt>
      <trkpt lat="42.481849" lon="-5.374676">
        <ele>852.7342011835426</ele>
        <time>2022-05-20T13:25:24Z</time>
      </trkpt>
      <trkpt lat="42.48188" lon="-5.374792">
        <ele>852.0402940893546</ele>
        <time>2022-05-20T13:25:31Z</time>
      </trkpt>
      <trkpt lat="42.481901" lon="-5.374918">
        <ele>851.1346049988642</ele>
        <time>2022-05-20T13:25:39Z</time>
      </trkpt>
      <trkpt lat="42.481924" lon="-5.375046">
        <ele>851.3659368874505</ele>
        <time>2022-05-20T13:25:47Z</time>
      </trkpt>
      <trkpt lat="42.481959" lon="-5.375166">
        <ele>850.0671344194561</ele>
        <time>2022-05-20T13:25:54Z</time>
      </trkpt>
      <trkpt lat="42.481991" lon="-5.375286">
        <ele>848.7009636061266</ele>
        <time>2022-05-20T13:26:03Z</time>
      </trkpt>
      <trkpt lat="42.482017" lon="-5.375416">
        <ele>851.8134089773521</ele>
        <time>2022-05-20T13:26:15Z</time>
      </trkpt>
      <trkpt lat="42.482047" lon="-5.37555">
        <ele>851.6983425701037</ele>
        <time>2022-05-20T13:26:21Z</time>
      </trkpt>
      <trkpt lat="42.482078" lon="-5.375673">
        <ele>849.3866901835427</ele>
        <time>2022-05-20T13:26:29Z</time>
      </trkpt>
      <trkpt lat="42.482118" lon="-5.375783">
        <ele>849.8993635680526</ele>
        <time>2022-05-20T13:26:36Z</time>
      </trkpt>
      <trkpt lat="42.482163" lon="-5.375897">
        <ele>849.8802309967577</ele>
        <time>2022-05-20T13:26:43Z</time>
      </trkpt>
      <trkpt lat="42.482207" lon="-5.37601">
        <ele>849.8354107234627</ele>
        <time>2022-05-20T13:26:49Z</time>
      </trkpt>
      <trkpt lat="42.482222" lon="-5.376141">
        <ele>850.4733698265627</ele>
        <time>2022-05-20T13:26:57Z</time>
      </trkpt>
      <trkpt lat="42.482254" lon="-5.376271">
        <ele>850.2108659902588</ele>
        <time>2022-05-20T13:27:05Z</time>
      </trkpt>
      <trkpt lat="42.482295" lon="-5.376395">
        <ele>848.8071403233334</ele>
        <time>2022-05-20T13:27:13Z</time>
      </trkpt>
      <trkpt lat="42.482333" lon="-5.376521">
        <ele>848.8292553704232</ele>
        <time>2022-05-20T13:27:20Z</time>
      </trkpt>
      <trkpt lat="42.482369" lon="-5.376645">
        <ele>849.1473055267707</ele>
        <time>2022-05-20T13:27:29Z</time>
      </trkpt>
      <trkpt lat="42.48241" lon="-5.376767">
        <ele>849.6532125035301</ele>
        <time>2022-05-20T13:27:37Z</time>
      </trkpt>
      <trkpt lat="42.482443" lon="-5.376884">
        <ele>848.6732099875808</ele>
        <time>2022-05-20T13:27:43Z</time>
      </trkpt>
      <trkpt lat="42.482476" lon="-5.376998">
        <ele>849.5630827294663</ele>
        <time>2022-05-20T13:27:50Z</time>
      </trkpt>
      <trkpt lat="42.482512" lon="-5.377115">
        <ele>847.8554652268067</ele>
        <time>2022-05-20T13:27:57Z</time>
      </trkpt>
      <trkpt lat="42.482574" lon="-5.377219">
        <ele>848.5470880903304</ele>
        <time>2022-05-20T13:28:05Z</time>
      </trkpt>
      <trkpt lat="42.482627" lon="-5.377329">
        <ele>851.9686149004847</ele>
        <time>2022-05-20T13:28:14Z</time>
      </trkpt>
      <trkpt lat="42.482688" lon="-5.377438">
        <ele>855.12281367369</ele>
        <time>2022-05-20T13:28:24Z</time>
      </trkpt>
      <trkpt lat="42.482744" lon="-5.377546">
        <ele>858.8884435286745</ele>
        <time>2022-05-20T13:28:33Z</time>
      </trkpt>
      <trkpt lat="42.482794" lon="-5.377659">
        <ele>860.1259973617271</ele>
        <time>2022-05-20T13:28:40Z</time>
      </trkpt>
      <trkpt lat="42.482833" lon="-5.377778">
        <ele>860.2537515712902</ele>
        <time>2022-05-20T13:28:46Z</time>
      </trkpt>
      <trkpt lat="42.482868" lon="-5.3779">
        <ele>859.2379381600767</ele>
        <time>2022-05-20T13:28:52Z</time>
      </trkpt>
      <trkpt lat="42.482905" lon="-5.378015">
        <ele>859.3547358764336</ele>
        <time>2022-05-20T13:28:59Z</time>
      </trkpt>
      <trkpt lat="42.482946" lon="-5.378133">
        <ele>860.8266023779288</ele>
        <time>2022-05-20T13:29:07Z</time>
      </trkpt>
      <trkpt lat="42.482991" lon="-5.378242">
        <ele>862.4030255461112</ele>
        <time>2022-05-20T13:29:15Z</time>
      </trkpt>
      <trkpt lat="42.483031" lon="-5.378359">
        <ele>864.0342440027744</ele>
        <time>2022-05-20T13:29:23Z</time>
      </trkpt>
      <trkpt lat="42.483073" lon="-5.378473">
        <ele>864.444929455407</ele>
        <time>2022-05-20T13:29:31Z</time>
      </trkpt>
      <trkpt lat="42.483103" lon="-5.378606">
        <ele>863.6396741624922</ele>
        <time>2022-05-20T13:29:38Z</time>
      </trkpt>
      <trkpt lat="42.483141" lon="-5.378719">
        <ele>862.750929903239</ele>
        <time>2022-05-20T13:29:46Z</time>
      </trkpt>
      <trkpt lat="42.483174" lon="-5.378853">
        <ele>861.3359060017392</ele>
        <time>2022-05-20T13:29:53Z</time>
      </trkpt>
      <trkpt lat="42.483194" lon="-5.378982">
        <ele>859.6697923503816</ele>
        <time>2022-05-20T13:29:58Z</time>
      </trkpt>
      <trkpt lat="42.48323" lon="-5.379127">
        <ele>858.3959084581584</ele>
        <time>2022-05-20T13:30:07Z</time>
      </trkpt>
      <trkpt lat="42.48327" lon="-5.379255">
        <ele>855.6563320551068</ele>
        <time>2022-05-20T13:30:15Z</time>
      </trkpt>
      <trkpt lat="42.483287" lon="-5.379383">
        <ele>855.5891085732728</ele>
        <time>2022-05-20T13:30:23Z</time>
      </trkpt>
      <trkpt lat="42.483323" lon="-5.379522">
        <ele>856.4693533135578</ele>
        <time>2022-05-20T13:30:32Z</time>
      </trkpt>
      <trkpt lat="42.48337" lon="-5.379639">
        <ele>858.4347162079066</ele>
        <time>2022-05-20T13:30:40Z</time>
      </trkpt>
      <trkpt lat="42.483412" lon="-5.37975">
        <ele>859.8126856060699</ele>
        <time>2022-05-20T13:30:50Z</time>
      </trkpt>
      <trkpt lat="42.483482" lon="-5.379864">
        <ele>860.679139688611</ele>
        <time>2022-05-20T13:30:57Z</time>
      </trkpt>
      <trkpt lat="42.483535" lon="-5.379974">
        <ele>860.8260453566909</ele>
        <time>2022-05-20T13:31:05Z</time>
      </trkpt>
      <trkpt lat="42.483574" lon="-5.380093">
        <ele>861.4623498516157</ele>
        <time>2022-05-20T13:31:14Z</time>
      </trkpt>
      <trkpt lat="42.483603" lon="-5.38021">
        <ele>861.491825029254</ele>
        <time>2022-05-20T13:31:22Z</time>
      </trkpt>
      <trkpt lat="42.483641" lon="-5.380335">
        <ele>862.863730981946</ele>
        <time>2022-05-20T13:31:29Z</time>
      </trkpt>
      <trkpt lat="42.483669" lon="-5.380464">
        <ele>861.3831309573725</ele>
        <time>2022-05-20T13:31:35Z</time>
      </trkpt>
      <trkpt lat="42.483708" lon="-5.380607">
        <ele>861.0086315218359</ele>
        <time>2022-05-20T13:31:42Z</time>
      </trkpt>
      <trkpt lat="42.483756" lon="-5.380713">
        <ele>860.4979666182771</ele>
        <time>2022-05-20T13:31:50Z</time>
      </trkpt>
      <trkpt lat="42.483797" lon="-5.380834">
        <ele>859.0686506815255</ele>
        <time>2022-05-20T13:31:57Z</time>
      </trkpt>
      <trkpt lat="42.483831" lon="-5.380966">
        <ele>857.9564688429236</ele>
        <time>2022-05-20T13:32:04Z</time>
      </trkpt>
      <trkpt lat="42.483853" lon="-5.381085">
        <ele>858.2133294250816</ele>
        <time>2022-05-20T13:32:11Z</time>
      </trkpt>
      <trkpt lat="42.483882" lon="-5.381201">
        <ele>857.0556124262512</ele>
        <time>2022-05-20T13:32:19Z</time>
      </trkpt>
      <trkpt lat="42.483926" lon="-5.381332">
        <ele>856.3350837295875</ele>
        <time>2022-05-20T13:32:26Z</time>
      </trkpt>
      <trkpt lat="42.483966" lon="-5.38145">
        <ele>855.6640909928828</ele>
        <time>2022-05-20T13:32:31Z</time>
      </trkpt>
      <trkpt lat="42.483992" lon="-5.381571">
        <ele>855.8000474618748</ele>
        <time>2022-05-20T13:32:36Z</time>
      </trkpt>
      <trkpt lat="42.484031" lon="-5.381694">
        <ele>855.731205560267</ele>
        <time>2022-05-20T13:32:44Z</time>
      </trkpt>
      <trkpt lat="42.484081" lon="-5.381809">
        <ele>855.6189391631633</ele>
        <time>2022-05-20T13:32:51Z</time>
      </trkpt>
      <trkpt lat="42.484137" lon="-5.381923">
        <ele>855.8351405262947</ele>
        <time>2022-05-20T13:32:57Z</time>
      </trkpt>
      <trkpt lat="42.484171" lon="-5.382055">
        <ele>856.2927272990346</ele>
        <time>2022-05-20T13:33:04Z</time>
      </trkpt>
      <trkpt lat="42.484192" lon="-5.382175">
        <ele>853.2448068577796</ele>
        <time>2022-05-20T13:33:12Z</time>
      </trkpt>
      <trkpt lat="42.484211" lon="-5.382304">
        <ele>852.9397481679916</ele>
        <time>2022-05-20T13:33:21Z</time>
      </trkpt>
      <trkpt lat="42.48424" lon="-5.382424">
        <ele>853.1469712192193</ele>
        <time>2022-05-20T13:33:29Z</time>
      </trkpt>
      <trkpt lat="42.484268" lon="-5.382553">
        <ele>853.9806688679382</ele>
        <time>2022-05-20T13:33:37Z</time>
      </trkpt>
      <trkpt lat="42.484311" lon="-5.382674">
        <ele>853.7554335445166</ele>
        <time>2022-05-20T13:33:44Z</time>
      </trkpt>
      <trkpt lat="42.484362" lon="-5.382781">
        <ele>854.351291869767</ele>
        <time>2022-05-20T13:33:50Z</time>
      </trkpt>
      <trkpt lat="42.484399" lon="-5.382904">
        <ele>854.4835619162768</ele>
        <time>2022-05-20T13:33:58Z</time>
      </trkpt>
      <trkpt lat="42.484448" lon="-5.383019">
        <ele>855.1226835511625</ele>
        <time>2022-05-20T13:34:06Z</time>
      </trkpt>
      <trkpt lat="42.48449" lon="-5.383132">
        <ele>855.9198779696599</ele>
        <time>2022-05-20T13:34:13Z</time>
      </trkpt>
      <trkpt lat="42.484529" lon="-5.383242">
        <ele>856.7291958322749</ele>
        <time>2022-05-20T13:34:20Z</time>
      </trkpt>
      <trkpt lat="42.484561" lon="-5.383364">
        <ele>856.536916391924</ele>
        <time>2022-05-20T13:34:27Z</time>
      </trkpt>
      <trkpt lat="42.484613" lon="-5.38347">
        <ele>864.0603821501136</ele>
        <time>2022-05-20T13:34:38Z</time>
      </trkpt>
      <trkpt lat="42.484674" lon="-5.383569">
        <ele>865.8420692021027</ele>
        <time>2022-05-20T13:34:45Z</time>
      </trkpt>
      <trkpt lat="42.484722" lon="-5.383679">
        <ele>867.1442450173199</ele>
        <time>2022-05-20T13:34:53Z</time>
      </trkpt>
      <trkpt lat="42.484762" lon="-5.383796">
        <ele>868.3916145907715</ele>
        <time>2022-05-20T13:35:01Z</time>
      </trkpt>
      <trkpt lat="42.484798" lon="-5.38391">
        <ele>869.4694990618154</ele>
        <time>2022-05-20T13:35:08Z</time>
      </trkpt>
      <trkpt lat="42.484835" lon="-5.384034">
        <ele>870.5163003830239</ele>
        <time>2022-05-20T13:35:15Z</time>
      </trkpt>
      <trkpt lat="42.484872" lon="-5.38415">
        <ele>870.3927334621549</ele>
        <time>2022-05-20T13:35:22Z</time>
      </trkpt>
      <trkpt lat="42.484911" lon="-5.38427">
        <ele>870.4992975806817</ele>
        <time>2022-05-20T13:35:30Z</time>
      </trkpt>
      <trkpt lat="42.484954" lon="-5.38438">
        <ele>870.5473424112424</ele>
        <time>2022-05-20T13:35:38Z</time>
      </trkpt>
      <trkpt lat="42.484993" lon="-5.384502">
        <ele>869.3884559860453</ele>
        <time>2022-05-20T13:35:46Z</time>
      </trkpt>
      <trkpt lat="42.485014" lon="-5.384625">
        <ele>869.4251658227295</ele>
        <time>2022-05-20T13:35:54Z</time>
      </trkpt>
      <trkpt lat="42.485044" lon="-5.384753">
        <ele>868.1409434834495</ele>
        <time>2022-05-20T13:36:02Z</time>
      </trkpt>
      <trkpt lat="42.485075" lon="-5.384871">
        <ele>868.6851469445974</ele>
        <time>2022-05-20T13:36:13Z</time>
      </trkpt>
      <trkpt lat="42.485115" lon="-5.384997">
        <ele>868.1504927016795</ele>
        <time>2022-05-20T13:36:21Z</time>
      </trkpt>
      <trkpt lat="42.485161" lon="-5.385111">
        <ele>867.5585400965065</ele>
        <time>2022-05-20T13:36:30Z</time>
      </trkpt>
      <trkpt lat="42.485206" lon="-5.385226">
        <ele>868.1909577129409</ele>
        <time>2022-05-20T13:36:36Z</time>
      </trkpt>
      <trkpt lat="42.485237" lon="-5.385344">
        <ele>867.628115022555</ele>
        <time>2022-05-20T13:36:53Z</time>
      </trkpt>
      <trkpt lat="42.485273" lon="-5.385478">
        <ele>867.7302825693041</ele>
        <time>2022-05-20T13:37:00Z</time>
      </trkpt>
      <trkpt lat="42.485308" lon="-5.385604">
        <ele>867.7341079134494</ele>
        <time>2022-05-20T13:37:06Z</time>
      </trkpt>
      <trkpt lat="42.485337" lon="-5.385732">
        <ele>868.2657966660336</ele>
        <time>2022-05-20T13:37:16Z</time>
      </trkpt>
      <trkpt lat="42.485382" lon="-5.385841">
        <ele>868.7765492005274</ele>
        <time>2022-05-20T13:37:24Z</time>
      </trkpt>
      <trkpt lat="42.485434" lon="-5.385945">
        <ele>869.2184298988432</ele>
        <time>2022-05-20T13:37:31Z</time>
      </trkpt>
      <trkpt lat="42.48548" lon="-5.386052">
        <ele>868.7403315296397</ele>
        <time>2022-05-20T13:37:39Z</time>
      </trkpt>
      <trkpt lat="42.485513" lon="-5.386178">
        <ele>868.8884822102264</ele>
        <time>2022-05-20T13:37:46Z</time>
      </trkpt>
      <trkpt lat="42.485557" lon="-5.386292">
        <ele>868.9329061210155</ele>
        <time>2022-05-20T13:37:55Z</time>
      </trkpt>
      <trkpt lat="42.485617" lon="-5.386402">
        <ele>868.115420691669</ele>
        <time>2022-05-20T13:38:01Z</time>
      </trkpt>
      <trkpt lat="42.48568" lon="-5.386534">
        <ele>866.8768022209406</ele>
        <time>2022-05-20T13:38:09Z</time>
      </trkpt>
      <trkpt lat="42.485728" lon="-5.386666">
        <ele>867.2402030574158</ele>
        <time>2022-05-20T13:38:18Z</time>
      </trkpt>
      <trkpt lat="42.485775" lon="-5.386776">
        <ele>866.4779679700732</ele>
        <time>2022-05-20T13:38:25Z</time>
      </trkpt>
      <trkpt lat="42.485825" lon="-5.386916">
        <ele>866.212822182104</ele>
        <time>2022-05-20T13:38:33Z</time>
      </trkpt>
      <trkpt lat="42.485858" lon="-5.387035">
        <ele>866.7190012242645</ele>
        <time>2022-05-20T13:38:39Z</time>
      </trkpt>
      <trkpt lat="42.485893" lon="-5.387161">
        <ele>866.561198906973</ele>
        <time>2022-05-20T13:38:47Z</time>
      </trkpt>
      <trkpt lat="42.485943" lon="-5.387277">
        <ele>866.4792232643813</ele>
        <time>2022-05-20T13:38:55Z</time>
      </trkpt>
      <trkpt lat="42.485982" lon="-5.387399">
        <ele>866.3979182559997</ele>
        <time>2022-05-20T13:39:02Z</time>
      </trkpt>
      <trkpt lat="42.486027" lon="-5.387507">
        <ele>866.4025394292548</ele>
        <time>2022-05-20T13:39:09Z</time>
      </trkpt>
      <trkpt lat="42.486087" lon="-5.387618">
        <ele>866.3418994247913</ele>
        <time>2022-05-20T13:39:17Z</time>
      </trkpt>
      <trkpt lat="42.486136" lon="-5.38772">
        <ele>866.53276678361</ele>
        <time>2022-05-20T13:39:24Z</time>
      </trkpt>
      <trkpt lat="42.486169" lon="-5.387834">
        <ele>865.9808407975361</ele>
        <time>2022-05-20T13:39:31Z</time>
      </trkpt>
      <trkpt lat="42.486211" lon="-5.387951">
        <ele>865.4704775884748</ele>
        <time>2022-05-20T13:39:38Z</time>
      </trkpt>
      <trkpt lat="42.486263" lon="-5.388055">
        <ele>865.9821615414694</ele>
        <time>2022-05-20T13:39:45Z</time>
      </trkpt>
      <trkpt lat="42.486314" lon="-5.388162">
        <ele>867.318872699514</ele>
        <time>2022-05-20T13:39:53Z</time>
      </trkpt>
      <trkpt lat="42.486366" lon="-5.388264">
        <ele>867.5500158816576</ele>
        <time>2022-05-20T13:40:00Z</time>
      </trkpt>
      <trkpt lat="42.486429" lon="-5.388375">
        <ele>868.0820916360244</ele>
        <time>2022-05-20T13:40:07Z</time>
      </trkpt>
      <trkpt lat="42.486487" lon="-5.388483">
        <ele>868.3062822185457</ele>
        <time>2022-05-20T13:40:14Z</time>
      </trkpt>
      <trkpt lat="42.48654" lon="-5.388592">
        <ele>868.4017123626545</ele>
        <time>2022-05-20T13:40:21Z</time>
      </trkpt>
      <trkpt lat="42.486602" lon="-5.388706">
        <ele>870.3712044991553</ele>
        <time>2022-05-20T13:40:29Z</time>
      </trkpt>
      <trkpt lat="42.48664" lon="-5.388819">
        <ele>870.8977655442432</ele>
        <time>2022-05-20T13:40:36Z</time>
      </trkpt>
      <trkpt lat="42.486681" lon="-5.388932">
        <ele>871.3874152628705</ele>
        <time>2022-05-20T13:40:44Z</time>
      </trkpt>
      <trkpt lat="42.48673" lon="-5.389034">
        <ele>871.2064809659496</ele>
        <time>2022-05-20T13:40:52Z</time>
      </trkpt>
      <trkpt lat="42.486764" lon="-5.389153">
        <ele>870.9493069564924</ele>
        <time>2022-05-20T13:40:59Z</time>
      </trkpt>
      <trkpt lat="42.486798" lon="-5.389268">
        <ele>870.1637194631621</ele>
        <time>2022-05-20T13:41:06Z</time>
      </trkpt>
      <trkpt lat="42.486834" lon="-5.389385">
        <ele>869.1991926655173</ele>
        <time>2022-05-20T13:41:14Z</time>
      </trkpt>
      <trkpt lat="42.486883" lon="-5.389493">
        <ele>869.7688065795228</ele>
        <time>2022-05-20T13:41:21Z</time>
      </trkpt>
      <trkpt lat="42.486931" lon="-5.389605">
        <ele>871.6325316326693</ele>
        <time>2022-05-20T13:41:28Z</time>
      </trkpt>
      <trkpt lat="42.486978" lon="-5.38972">
        <ele>871.8911137441173</ele>
        <time>2022-05-20T13:41:35Z</time>
      </trkpt>
      <trkpt lat="42.487022" lon="-5.389832">
        <ele>872.8636536533013</ele>
        <time>2022-05-20T13:41:43Z</time>
      </trkpt>
      <trkpt lat="42.48708" lon="-5.389947">
        <ele>873.4361291155219</ele>
        <time>2022-05-20T13:41:50Z</time>
      </trkpt>
      <trkpt lat="42.487123" lon="-5.390071">
        <ele>872.3100693095475</ele>
        <time>2022-05-20T13:41:57Z</time>
      </trkpt>
      <trkpt lat="42.487178" lon="-5.390177">
        <ele>871.6581531288102</ele>
        <time>2022-05-20T13:42:05Z</time>
      </trkpt>
      <trkpt lat="42.487232" lon="-5.390285">
        <ele>870.9495573248714</ele>
        <time>2022-05-20T13:42:12Z</time>
      </trkpt>
      <trkpt lat="42.487271" lon="-5.390395">
        <ele>871.7985914861783</ele>
        <time>2022-05-20T13:42:19Z</time>
      </trkpt>
      <trkpt lat="42.487316" lon="-5.390516">
        <ele>872.8016298310831</ele>
        <time>2022-05-20T13:42:27Z</time>
      </trkpt>
      <trkpt lat="42.487361" lon="-5.390637">
        <ele>873.5654231617227</ele>
        <time>2022-05-20T13:42:35Z</time>
      </trkpt>
      <trkpt lat="42.487412" lon="-5.390743">
        <ele>873.7757049128413</ele>
        <time>2022-05-20T13:42:44Z</time>
      </trkpt>
      <trkpt lat="42.487456" lon="-5.390858">
        <ele>874.2676887931302</ele>
        <time>2022-05-20T13:42:52Z</time>
      </trkpt>
      <trkpt lat="42.487507" lon="-5.390975">
        <ele>874.0955133093521</ele>
        <time>2022-05-20T13:42:59Z</time>
      </trkpt>
      <trkpt lat="42.487545" lon="-5.391093">
        <ele>874.6112867482007</ele>
        <time>2022-05-20T13:43:07Z</time>
      </trkpt>
      <trkpt lat="42.487578" lon="-5.391209">
        <ele>875.888361684978</ele>
        <time>2022-05-20T13:43:14Z</time>
      </trkpt>
      <trkpt lat="42.487625" lon="-5.391315">
        <ele>875.3017395045608</ele>
        <time>2022-05-20T13:43:20Z</time>
      </trkpt>
      <trkpt lat="42.487674" lon="-5.391439">
        <ele>874.7252528909594</ele>
        <time>2022-05-20T13:43:28Z</time>
      </trkpt>
      <trkpt lat="42.487746" lon="-5.391544">
        <ele>872.5391080789268</ele>
        <time>2022-05-20T13:43:35Z</time>
      </trkpt>
      <trkpt lat="42.487806" lon="-5.391652">
        <ele>870.4990646224469</ele>
        <time>2022-05-20T13:43:44Z</time>
      </trkpt>
      <trkpt lat="42.487844" lon="-5.391772">
        <ele>870.6272198669612</ele>
        <time>2022-05-20T13:43:51Z</time>
      </trkpt>
      <trkpt lat="42.487899" lon="-5.391879">
        <ele>871.6051104171202</ele>
        <time>2022-05-20T13:44:00Z</time>
      </trkpt>
      <trkpt lat="42.487954" lon="-5.391993">
        <ele>871.2190343746915</ele>
        <time>2022-05-20T13:44:08Z</time>
      </trkpt>
      <trkpt lat="42.488007" lon="-5.392092">
        <ele>871.1197933275253</ele>
        <time>2022-05-20T13:44:15Z</time>
      </trkpt>
      <trkpt lat="42.488058" lon="-5.392195">
        <ele>871.5401249788702</ele>
        <time>2022-05-20T13:44:22Z</time>
      </trkpt>
      <trkpt lat="42.488098" lon="-5.392322">
        <ele>873.042655938305</ele>
        <time>2022-05-20T13:44:30Z</time>
      </trkpt>
      <trkpt lat="42.488137" lon="-5.392433">
        <ele>873.2085684128106</ele>
        <time>2022-05-20T13:44:36Z</time>
      </trkpt>
      <trkpt lat="42.488183" lon="-5.392555">
        <ele>874.7536922590807</ele>
        <time>2022-05-20T13:44:44Z</time>
      </trkpt>
      <trkpt lat="42.488241" lon="-5.392658">
        <ele>875.3863146435469</ele>
        <time>2022-05-20T13:44:51Z</time>
      </trkpt>
      <trkpt lat="42.488279" lon="-5.392778">
        <ele>874.8840624075383</ele>
        <time>2022-05-20T13:44:58Z</time>
      </trkpt>
      <trkpt lat="42.488328" lon="-5.392892">
        <ele>875.0715291257948</ele>
        <time>2022-05-20T13:45:05Z</time>
      </trkpt>
      <trkpt lat="42.488378" lon="-5.393012">
        <ele>876.0318050002679</ele>
        <time>2022-05-20T13:45:13Z</time>
      </trkpt>
      <trkpt lat="42.488426" lon="-5.393128">
        <ele>876.5435934588313</ele>
        <time>2022-05-20T13:45:21Z</time>
      </trkpt>
      <trkpt lat="42.48847" lon="-5.393241">
        <ele>877.2503846846521</ele>
        <time>2022-05-20T13:45:29Z</time>
      </trkpt>
      <trkpt lat="42.48852" lon="-5.393343">
        <ele>877.4511383213103</ele>
        <time>2022-05-20T13:45:36Z</time>
      </trkpt>
      <trkpt lat="42.488571" lon="-5.393447">
        <ele>876.7693302407861</ele>
        <time>2022-05-20T13:45:44Z</time>
      </trkpt>
      <trkpt lat="42.488618" lon="-5.393568">
        <ele>877.2183376196772</ele>
        <time>2022-05-20T13:45:51Z</time>
      </trkpt>
      <trkpt lat="42.488664" lon="-5.393683">
        <ele>877.5322163486853</ele>
        <time>2022-05-20T13:45:58Z</time>
      </trkpt>
      <trkpt lat="42.488711" lon="-5.393799">
        <ele>878.2310533532873</ele>
        <time>2022-05-20T13:46:04Z</time>
      </trkpt>
      <trkpt lat="42.488759" lon="-5.393917">
        <ele>877.6501936912537</ele>
        <time>2022-05-20T13:46:14Z</time>
      </trkpt>
      <trkpt lat="42.488818" lon="-5.394033">
        <ele>877.8983547994867</ele>
        <time>2022-05-20T13:46:21Z</time>
      </trkpt>
      <trkpt lat="42.488873" lon="-5.394152">
        <ele>875.7903963802382</ele>
        <time>2022-05-20T13:46:28Z</time>
      </trkpt>
      <trkpt lat="42.488902" lon="-5.394274">
        <ele>876.4665910936892</ele>
        <time>2022-05-20T13:46:36Z</time>
      </trkpt>
      <trkpt lat="42.488948" lon="-5.394389">
        <ele>876.401068855077</ele>
        <time>2022-05-20T13:46:43Z</time>
      </trkpt>
      <trkpt lat="42.489001" lon="-5.394514">
        <ele>876.161485160701</ele>
        <time>2022-05-20T13:46:51Z</time>
      </trkpt>
      <trkpt lat="42.489053" lon="-5.394625">
        <ele>876.286571697332</ele>
        <time>2022-05-20T13:46:58Z</time>
      </trkpt>
      <trkpt lat="42.489113" lon="-5.394727">
        <ele>876.0847913306206</ele>
        <time>2022-05-20T13:47:03Z</time>
      </trkpt>
      <trkpt lat="42.489168" lon="-5.394848">
        <ele>876.6782274963334</ele>
        <time>2022-05-20T13:47:11Z</time>
      </trkpt>
      <trkpt lat="42.4892" lon="-5.394973">
        <ele>876.4455573838204</ele>
        <time>2022-05-20T13:47:21Z</time>
      </trkpt>
      <trkpt lat="42.489233" lon="-5.395088">
        <ele>875.8388394918293</ele>
        <time>2022-05-20T13:47:29Z</time>
      </trkpt>
      <trkpt lat="42.489286" lon="-5.395201">
        <ele>874.4822924043983</ele>
        <time>2022-05-20T13:47:37Z</time>
      </trkpt>
      <trkpt lat="42.489343" lon="-5.395335">
        <ele>873.0962972799316</ele>
        <time>2022-05-20T13:47:46Z</time>
      </trkpt>
      <trkpt lat="42.489402" lon="-5.395444">
        <ele>872.7230745442212</ele>
        <time>2022-05-20T13:47:54Z</time>
      </trkpt>
      <trkpt lat="42.489439" lon="-5.39556">
        <ele>872.8941641394049</ele>
        <time>2022-05-20T13:48:02Z</time>
      </trkpt>
      <trkpt lat="42.489476" lon="-5.395672">
        <ele>873.7773323478177</ele>
        <time>2022-05-20T13:48:09Z</time>
      </trkpt>
      <trkpt lat="42.489523" lon="-5.395777">
        <ele>874.0484291333705</ele>
        <time>2022-05-20T13:48:16Z</time>
      </trkpt>
      <trkpt lat="42.489568" lon="-5.395886">
        <ele>873.2671711770818</ele>
        <time>2022-05-20T13:48:23Z</time>
      </trkpt>
      <trkpt lat="42.489622" lon="-5.396008">
        <ele>872.9919584635645</ele>
        <time>2022-05-20T13:48:31Z</time>
      </trkpt>
      <trkpt lat="42.489672" lon="-5.396116">
        <ele>872.6597891524434</ele>
        <time>2022-05-20T13:48:38Z</time>
      </trkpt>
      <trkpt lat="42.489742" lon="-5.396237">
        <ele>872.3235188527033</ele>
        <time>2022-05-20T13:48:46Z</time>
      </trkpt>
      <trkpt lat="42.489787" lon="-5.396346">
        <ele>871.498985150829</ele>
        <time>2022-05-20T13:48:53Z</time>
      </trkpt>
      <trkpt lat="42.489838" lon="-5.396462">
        <ele>870.9083230104297</ele>
        <time>2022-05-20T13:49:01Z</time>
      </trkpt>
      <trkpt lat="42.489882" lon="-5.396579">
        <ele>870.349433619529</ele>
        <time>2022-05-20T13:49:09Z</time>
      </trkpt>
      <trkpt lat="42.489925" lon="-5.396702">
        <ele>870.7130268355832</ele>
        <time>2022-05-20T13:49:17Z</time>
      </trkpt>
      <trkpt lat="42.489975" lon="-5.396806">
        <ele>869.8611901747063</ele>
        <time>2022-05-20T13:49:24Z</time>
      </trkpt>
      <trkpt lat="42.490023" lon="-5.396927">
        <ele>868.6868258500472</ele>
        <time>2022-05-20T13:49:32Z</time>
      </trkpt>
      <trkpt lat="42.490083" lon="-5.397048">
        <ele>866.4811286758631</ele>
        <time>2022-05-20T13:49:40Z</time>
      </trkpt>
      <trkpt lat="42.490126" lon="-5.39717">
        <ele>865.176385528408</ele>
        <time>2022-05-20T13:49:49Z</time>
      </trkpt>
      <trkpt lat="42.490171" lon="-5.39728">
        <ele>865.2927831187844</ele>
        <time>2022-05-20T13:49:57Z</time>
      </trkpt>
      <trkpt lat="42.490235" lon="-5.397384">
        <ele>865.1784251807258</ele>
        <time>2022-05-20T13:50:03Z</time>
      </trkpt>
      <trkpt lat="42.490295" lon="-5.397476">
        <ele>865.1859249603003</ele>
        <time>2022-05-20T13:50:10Z</time>
      </trkpt>
      <trkpt lat="42.490355" lon="-5.397577">
        <ele>864.6804892960936</ele>
        <time>2022-05-20T13:50:17Z</time>
      </trkpt>
      <trkpt lat="42.490402" lon="-5.397683">
        <ele>864.1640750300139</ele>
        <time>2022-05-20T13:50:23Z</time>
      </trkpt>
      <trkpt lat="42.490449" lon="-5.397794">
        <ele>863.9798282543197</ele>
        <time>2022-05-20T13:50:30Z</time>
      </trkpt>
      <trkpt lat="42.490497" lon="-5.397914">
        <ele>862.8388090915978</ele>
        <time>2022-05-20T13:50:39Z</time>
      </trkpt>
      <trkpt lat="42.490544" lon="-5.398021">
        <ele>862.1785512305796</ele>
        <time>2022-05-20T13:50:45Z</time>
      </trkpt>
      <trkpt lat="42.490594" lon="-5.398123">
        <ele>861.2109316913411</ele>
        <time>2022-05-20T13:50:53Z</time>
      </trkpt>
      <trkpt lat="42.490648" lon="-5.398237">
        <ele>859.3449668772519</ele>
        <time>2022-05-20T13:51:00Z</time>
      </trkpt>
      <trkpt lat="42.490692" lon="-5.39835">
        <ele>858.5166583172977</ele>
        <time>2022-05-20T13:51:09Z</time>
      </trkpt>
      <trkpt lat="42.490726" lon="-5.398479">
        <ele>859.2587230838835</ele>
        <time>2022-05-20T13:51:17Z</time>
      </trkpt>
      <trkpt lat="42.490735" lon="-5.398607">
        <ele>860.6085939435288</ele>
        <time>2022-05-20T13:51:24Z</time>
      </trkpt>
      <trkpt lat="42.490743" lon="-5.39874">
        <ele>863.3363082716241</ele>
        <time>2022-05-20T13:51:32Z</time>
      </trkpt>
      <trkpt lat="42.490779" lon="-5.398862">
        <ele>866.3555312128738</ele>
        <time>2022-05-20T13:51:40Z</time>
      </trkpt>
      <trkpt lat="42.490815" lon="-5.398975">
        <ele>867.9706632532179</ele>
        <time>2022-05-20T13:51:47Z</time>
      </trkpt>
      <trkpt lat="42.490856" lon="-5.399097">
        <ele>869.7681816294789</ele>
        <time>2022-05-20T13:51:54Z</time>
      </trkpt>
      <trkpt lat="42.490911" lon="-5.399208">
        <ele>871.4569222694263</ele>
        <time>2022-05-20T13:52:02Z</time>
      </trkpt>
      <trkpt lat="42.490941" lon="-5.399347">
        <ele>872.3022073991597</ele>
        <time>2022-05-20T13:52:12Z</time>
      </trkpt>
      <trkpt lat="42.490982" lon="-5.39949">
        <ele>873.6627098144963</ele>
        <time>2022-05-20T13:52:22Z</time>
      </trkpt>
      <trkpt lat="42.491022" lon="-5.399636">
        <ele>874.40272313077</ele>
        <time>2022-05-20T13:52:32Z</time>
      </trkpt>
      <trkpt lat="42.491068" lon="-5.399748">
        <ele>875.1243303762749</ele>
        <time>2022-05-20T13:52:40Z</time>
      </trkpt>
      <trkpt lat="42.491097" lon="-5.39988">
        <ele>875.7071371907368</ele>
        <time>2022-05-20T13:52:49Z</time>
      </trkpt>
      <trkpt lat="42.491148" lon="-5.399991">
        <ele>876.0121786138043</ele>
        <time>2022-05-20T13:52:58Z</time>
      </trkpt>
      <trkpt lat="42.491186" lon="-5.400121">
        <ele>877.4059209609404</ele>
        <time>2022-05-20T13:53:07Z</time>
      </trkpt>
      <trkpt lat="42.491234" lon="-5.400239">
        <ele>877.1370207499713</ele>
        <time>2022-05-20T13:53:14Z</time>
      </trkpt>
      <trkpt lat="42.49129" lon="-5.400358">
        <ele>877.3449638821185</ele>
        <time>2022-05-20T13:53:22Z</time>
      </trkpt>
      <trkpt lat="42.491329" lon="-5.400471">
        <ele>877.3391705220565</ele>
        <time>2022-05-20T13:53:30Z</time>
      </trkpt>
      <trkpt lat="42.491377" lon="-5.400589">
        <ele>876.02454229258</ele>
        <time>2022-05-20T13:53:37Z</time>
      </trkpt>
      <trkpt lat="42.491407" lon="-5.40071">
        <ele>877.1037896145135</ele>
        <time>2022-05-20T13:53:45Z</time>
      </trkpt>
      <trkpt lat="42.491437" lon="-5.40083">
        <ele>877.5518491845578</ele>
        <time>2022-05-20T13:53:53Z</time>
      </trkpt>
      <trkpt lat="42.491485" lon="-5.400956">
        <ele>876.9921318860725</ele>
        <time>2022-05-20T13:54:02Z</time>
      </trkpt>
      <trkpt lat="42.491528" lon="-5.40107">
        <ele>877.2135795131326</ele>
        <time>2022-05-20T13:54:10Z</time>
      </trkpt>
      <trkpt lat="42.491582" lon="-5.401174">
        <ele>876.8165255207568</ele>
        <time>2022-05-20T13:54:17Z</time>
      </trkpt>
      <trkpt lat="42.491626" lon="-5.401282">
        <ele>876.8556797681376</ele>
        <time>2022-05-20T13:54:23Z</time>
      </trkpt>
      <trkpt lat="42.491675" lon="-5.401392">
        <ele>876.4956316053867</ele>
        <time>2022-05-20T13:54:29Z</time>
      </trkpt>
      <trkpt lat="42.49173" lon="-5.401507">
        <ele>877.7095213634893</ele>
        <time>2022-05-20T13:54:36Z</time>
      </trkpt>
      <trkpt lat="42.491789" lon="-5.401618">
        <ele>878.0995341772214</ele>
        <time>2022-05-20T13:54:43Z</time>
      </trkpt>
      <trkpt lat="42.491829" lon="-5.401731">
        <ele>878.8952448936179</ele>
        <time>2022-05-20T13:54:51Z</time>
      </trkpt>
      <trkpt lat="42.491879" lon="-5.401849">
        <ele>878.8818829311058</ele>
        <time>2022-05-20T13:54:59Z</time>
      </trkpt>
      <trkpt lat="42.491925" lon="-5.401956">
        <ele>878.5161805786192</ele>
        <time>2022-05-20T13:55:05Z</time>
      </trkpt>
      <trkpt lat="42.491975" lon="-5.402059">
        <ele>877.9751653363928</ele>
        <time>2022-05-20T13:55:10Z</time>
      </trkpt>
      <trkpt lat="42.492023" lon="-5.402165">
        <ele>877.1492376467213</ele>
        <time>2022-05-20T13:55:18Z</time>
      </trkpt>
      <trkpt lat="42.492068" lon="-5.402276">
        <ele>876.9223586954176</ele>
        <time>2022-05-20T13:55:25Z</time>
      </trkpt>
      <trkpt lat="42.492124" lon="-5.402394">
        <ele>877.0439992537722</ele>
        <time>2022-05-20T13:55:34Z</time>
      </trkpt>
      <trkpt lat="42.492166" lon="-5.40251">
        <ele>876.1192051591352</ele>
        <time>2022-05-20T13:55:40Z</time>
      </trkpt>
      <trkpt lat="42.492227" lon="-5.40262">
        <ele>877.1408116798848</ele>
        <time>2022-05-20T13:55:48Z</time>
      </trkpt>
      <trkpt lat="42.492278" lon="-5.402725">
        <ele>879.0779156154022</ele>
        <time>2022-05-20T13:55:55Z</time>
      </trkpt>
      <trkpt lat="42.492335" lon="-5.402821">
        <ele>880.386035320349</ele>
        <time>2022-05-20T13:56:00Z</time>
      </trkpt>
      <trkpt lat="42.492386" lon="-5.402931">
        <ele>880.7122947890311</ele>
        <time>2022-05-20T13:56:08Z</time>
      </trkpt>
      <trkpt lat="42.492431" lon="-5.403038">
        <ele>880.1554558528587</ele>
        <time>2022-05-20T13:56:15Z</time>
      </trkpt>
      <trkpt lat="42.492486" lon="-5.403153">
        <ele>879.9168114820495</ele>
        <time>2022-05-20T13:56:22Z</time>
      </trkpt>
      <trkpt lat="42.492533" lon="-5.403267">
        <ele>880.4726295378059</ele>
        <time>2022-05-20T13:56:30Z</time>
      </trkpt>
      <trkpt lat="42.492581" lon="-5.403378">
        <ele>880.18666886352</ele>
        <time>2022-05-20T13:56:37Z</time>
      </trkpt>
      <trkpt lat="42.492642" lon="-5.403488">
        <ele>879.323119552806</ele>
        <time>2022-05-20T13:56:44Z</time>
      </trkpt>
      <trkpt lat="42.492694" lon="-5.403589">
        <ele>879.333272613585</ele>
        <time>2022-05-20T13:56:50Z</time>
      </trkpt>
      <trkpt lat="42.492748" lon="-5.403719">
        <ele>878.602432763204</ele>
        <time>2022-05-20T13:56:59Z</time>
      </trkpt>
      <trkpt lat="42.492804" lon="-5.403838">
        <ele>878.0912912413478</ele>
        <time>2022-05-20T13:57:07Z</time>
      </trkpt>
      <trkpt lat="42.49286" lon="-5.403947">
        <ele>877.7771155554801</ele>
        <time>2022-05-20T13:57:14Z</time>
      </trkpt>
      <trkpt lat="42.492913" lon="-5.404084">
        <ele>877.2833764078096</ele>
        <time>2022-05-20T13:57:22Z</time>
      </trkpt>
      <trkpt lat="42.492955" lon="-5.404198">
        <ele>876.5923248147592</ele>
        <time>2022-05-20T13:57:29Z</time>
      </trkpt>
      <trkpt lat="42.492989" lon="-5.404313">
        <ele>875.6190958777443</ele>
        <time>2022-05-20T13:57:38Z</time>
      </trkpt>
      <trkpt lat="42.493044" lon="-5.404441">
        <ele>874.2401733547449</ele>
        <time>2022-05-20T13:57:47Z</time>
      </trkpt>
      <trkpt lat="42.493084" lon="-5.404555">
        <ele>873.8972707018256</ele>
        <time>2022-05-20T13:57:54Z</time>
      </trkpt>
      <trkpt lat="42.493148" lon="-5.404685">
        <ele>873.5562235945836</ele>
        <time>2022-05-20T13:58:02Z</time>
      </trkpt>
      <trkpt lat="42.493206" lon="-5.404801">
        <ele>873.5463485000655</ele>
        <time>2022-05-20T13:58:09Z</time>
      </trkpt>
      <trkpt lat="42.49325" lon="-5.404908">
        <ele>873.2041559359059</ele>
        <time>2022-05-20T13:58:17Z</time>
      </trkpt>
      <trkpt lat="42.493295" lon="-5.405014">
        <ele>873.0421738969162</ele>
        <time>2022-05-20T13:58:25Z</time>
      </trkpt>
      <trkpt lat="42.493338" lon="-5.405123">
        <ele>872.439969457686</ele>
        <time>2022-05-20T13:58:33Z</time>
      </trkpt>
      <trkpt lat="42.493403" lon="-5.405233">
        <ele>873.1679717805237</ele>
        <time>2022-05-20T13:58:40Z</time>
      </trkpt>
      <trkpt lat="42.493463" lon="-5.405331">
        <ele>873.8150075003505</ele>
        <time>2022-05-20T13:58:47Z</time>
      </trkpt>
      <trkpt lat="42.493523" lon="-5.405431">
        <ele>873.4780046185479</ele>
        <time>2022-05-20T13:58:54Z</time>
      </trkpt>
      <trkpt lat="42.493596" lon="-5.405517">
        <ele>872.4586846381426</ele>
        <time>2022-05-20T13:59:02Z</time>
      </trkpt>
      <trkpt lat="42.493646" lon="-5.405631">
        <ele>873.197856798768</ele>
        <time>2022-05-20T13:59:09Z</time>
      </trkpt>
      <trkpt lat="42.493705" lon="-5.405764">
        <ele>873.7606417164207</ele>
        <time>2022-05-20T13:59:17Z</time>
      </trkpt>
      <trkpt lat="42.493754" lon="-5.405868">
        <ele>873.2193942153826</ele>
        <time>2022-05-20T13:59:23Z</time>
      </trkpt>
      <trkpt lat="42.493798" lon="-5.406003">
        <ele>872.2121644327417</ele>
        <time>2022-05-20T13:59:32Z</time>
      </trkpt>
      <trkpt lat="42.493853" lon="-5.406111">
        <ele>871.5899515487254</ele>
        <time>2022-05-20T13:59:39Z</time>
      </trkpt>
      <trkpt lat="42.493885" lon="-5.406231">
        <ele>870.9670774098486</ele>
        <time>2022-05-20T13:59:47Z</time>
      </trkpt>
      <trkpt lat="42.493922" lon="-5.406348">
        <ele>872.8925160486251</ele>
        <time>2022-05-20T13:59:54Z</time>
      </trkpt>
      <trkpt lat="42.493961" lon="-5.406476">
        <ele>876.7384042041376</ele>
        <time>2022-05-20T14:00:02Z</time>
      </trkpt>
      <trkpt lat="42.494002" lon="-5.406607">
        <ele>878.9394832933322</ele>
        <time>2022-05-20T14:00:08Z</time>
      </trkpt>
      <trkpt lat="42.494055" lon="-5.406721">
        <ele>880.8673386853188</ele>
        <time>2022-05-20T14:00:15Z</time>
      </trkpt>
      <trkpt lat="42.494112" lon="-5.406849">
        <ele>880.8524299291894</ele>
        <time>2022-05-20T14:00:23Z</time>
      </trkpt>
      <trkpt lat="42.494148" lon="-5.406962">
        <ele>883.0010103369132</ele>
        <time>2022-05-20T14:00:30Z</time>
      </trkpt>
      <trkpt lat="42.494198" lon="-5.407079">
        <ele>884.9238668084145</ele>
        <time>2022-05-20T14:00:38Z</time>
      </trkpt>
      <trkpt lat="42.494216" lon="-5.407199">
        <ele>884.8604256650433</ele>
        <time>2022-05-20T14:00:44Z</time>
      </trkpt>
      <trkpt lat="42.494242" lon="-5.407329">
        <ele>884.5962152089924</ele>
        <time>2022-05-20T14:00:51Z</time>
      </trkpt>
      <trkpt lat="42.494266" lon="-5.407452">
        <ele>884.5456413496286</ele>
        <time>2022-05-20T14:00:58Z</time>
      </trkpt>
      <trkpt lat="42.494298" lon="-5.407596">
        <ele>885.246064436622</ele>
        <time>2022-05-20T14:01:08Z</time>
      </trkpt>
      <trkpt lat="42.494318" lon="-5.407718">
        <ele>884.8931445032358</ele>
        <time>2022-05-20T14:01:14Z</time>
      </trkpt>
      <trkpt lat="42.494333" lon="-5.407856">
        <ele>883.931298604235</ele>
        <time>2022-05-20T14:01:21Z</time>
      </trkpt>
      <trkpt lat="42.49436" lon="-5.407988">
        <ele>882.7575381919742</ele>
        <time>2022-05-20T14:01:28Z</time>
      </trkpt>
      <trkpt lat="42.494392" lon="-5.408114">
        <ele>882.39947344549</ele>
        <time>2022-05-20T14:01:36Z</time>
      </trkpt>
      <trkpt lat="42.494445" lon="-5.408216">
        <ele>881.010864328593</ele>
        <time>2022-05-20T14:01:43Z</time>
      </trkpt>
      <trkpt lat="42.494524" lon="-5.408293">
        <ele>880.7519948128611</ele>
        <time>2022-05-20T14:01:51Z</time>
      </trkpt>
      <trkpt lat="42.494617" lon="-5.408337">
        <ele>880.7213419098407</ele>
        <time>2022-05-20T14:01:58Z</time>
      </trkpt>
      <trkpt lat="42.494711" lon="-5.408386">
        <ele>881.2623699270189</ele>
        <time>2022-05-20T14:02:05Z</time>
      </trkpt>
      <trkpt lat="42.494803" lon="-5.408426">
        <ele>880.7992904828861</ele>
        <time>2022-05-20T14:02:13Z</time>
      </trkpt>
      <trkpt lat="42.494902" lon="-5.408457">
        <ele>880.5601335307583</ele>
        <time>2022-05-20T14:02:20Z</time>
      </trkpt>
      <trkpt lat="42.494981" lon="-5.408525">
        <ele>879.7839373862371</ele>
        <time>2022-05-20T14:02:28Z</time>
      </trkpt>
      <trkpt lat="42.495041" lon="-5.408618">
        <ele>878.455103402026</ele>
        <time>2022-05-20T14:02:36Z</time>
      </trkpt>
      <trkpt lat="42.495106" lon="-5.408714">
        <ele>877.5283556422219</ele>
        <time>2022-05-20T14:02:44Z</time>
      </trkpt>
      <trkpt lat="42.495174" lon="-5.408814">
        <ele>876.7735221302137</ele>
        <time>2022-05-20T14:02:51Z</time>
      </trkpt>
      <trkpt lat="42.49522" lon="-5.408933">
        <ele>875.8698239000514</ele>
        <time>2022-05-20T14:03:00Z</time>
      </trkpt>
      <trkpt lat="42.495296" lon="-5.409002">
        <ele>874.384369591251</ele>
        <time>2022-05-20T14:03:32Z</time>
      </trkpt>
      <trkpt lat="42.495365" lon="-5.409098">
        <ele>873.1734752170742</ele>
        <time>2022-05-20T14:03:39Z</time>
      </trkpt>
      <trkpt lat="42.495426" lon="-5.409207">
        <ele>873.5641934424639</ele>
        <time>2022-05-20T14:03:47Z</time>
      </trkpt>
      <trkpt lat="42.495465" lon="-5.409327">
        <ele>872.7467155773193</ele>
        <time>2022-05-20T14:03:55Z</time>
      </trkpt>
      <trkpt lat="42.495508" lon="-5.40945">
        <ele>872.4012516122311</ele>
        <time>2022-05-20T14:04:02Z</time>
      </trkpt>
      <trkpt lat="42.495532" lon="-5.409577">
        <ele>872.1366078378633</ele>
        <time>2022-05-20T14:04:09Z</time>
      </trkpt>
      <trkpt lat="42.495568" lon="-5.409705">
        <ele>869.7714956020936</ele>
        <time>2022-05-20T14:04:18Z</time>
      </trkpt>
      <trkpt lat="42.495614" lon="-5.409827">
        <ele>868.643689355813</ele>
        <time>2022-05-20T14:04:25Z</time>
      </trkpt>
      <trkpt lat="42.495674" lon="-5.409931">
        <ele>868.5320174181834</ele>
        <time>2022-05-20T14:04:31Z</time>
      </trkpt>
      <trkpt lat="42.49573" lon="-5.41003">
        <ele>868.4220965150744</ele>
        <time>2022-05-20T14:04:37Z</time>
      </trkpt>
      <trkpt lat="42.495779" lon="-5.410143">
        <ele>869.7773422989994</ele>
        <time>2022-05-20T14:04:44Z</time>
      </trkpt>
      <trkpt lat="42.495822" lon="-5.410255">
        <ele>870.1384929977357</ele>
        <time>2022-05-20T14:04:51Z</time>
      </trkpt>
      <trkpt lat="42.495863" lon="-5.410372">
        <ele>870.3128506690264</ele>
        <time>2022-05-20T14:04:58Z</time>
      </trkpt>
      <trkpt lat="42.495906" lon="-5.410481">
        <ele>870.6438070619479</ele>
        <time>2022-05-20T14:05:04Z</time>
      </trkpt>
      <trkpt lat="42.495952" lon="-5.4106">
        <ele>871.8576288409531</ele>
        <time>2022-05-20T14:05:12Z</time>
      </trkpt>
      <trkpt lat="42.495988" lon="-5.410731">
        <ele>872.686984279193</ele>
        <time>2022-05-20T14:05:21Z</time>
      </trkpt>
      <trkpt lat="42.496021" lon="-5.410848">
        <ele>873.4338444760069</ele>
        <time>2022-05-20T14:05:30Z</time>
      </trkpt>
      <trkpt lat="42.496052" lon="-5.410972">
        <ele>873.0533324060962</ele>
        <time>2022-05-20T14:05:37Z</time>
      </trkpt>
      <trkpt lat="42.496092" lon="-5.411099">
        <ele>873.1995362117887</ele>
        <time>2022-05-20T14:05:46Z</time>
      </trkpt>
      <trkpt lat="42.496129" lon="-5.411221">
        <ele>874.8180689811707</ele>
        <time>2022-05-20T14:05:52Z</time>
      </trkpt>
      <trkpt lat="42.496195" lon="-5.411323">
        <ele>876.8463252419606</ele>
        <time>2022-05-20T14:06:00Z</time>
      </trkpt>
      <trkpt lat="42.496261" lon="-5.411427">
        <ele>877.7674251282588</ele>
        <time>2022-05-20T14:06:07Z</time>
      </trkpt>
      <trkpt lat="42.496299" lon="-5.411551">
        <ele>879.0518992198631</ele>
        <time>2022-05-20T14:06:14Z</time>
      </trkpt>
      <trkpt lat="42.496339" lon="-5.411673">
        <ele>879.8751346189529</ele>
        <time>2022-05-20T14:06:22Z</time>
      </trkpt>
      <trkpt lat="42.496379" lon="-5.411793">
        <ele>880.8154627578333</ele>
        <time>2022-05-20T14:06:29Z</time>
      </trkpt>
      <trkpt lat="42.496424" lon="-5.411919">
        <ele>881.8652624590322</ele>
        <time>2022-05-20T14:06:36Z</time>
      </trkpt>
      <trkpt lat="42.496468" lon="-5.412039">
        <ele>882.0818193536252</ele>
        <time>2022-05-20T14:06:42Z</time>
      </trkpt>
      <trkpt lat="42.496507" lon="-5.41215">
        <ele>881.3032768573612</ele>
        <time>2022-05-20T14:06:50Z</time>
      </trkpt>
      <trkpt lat="42.496541" lon="-5.41228">
        <ele>879.0063115432858</ele>
        <time>2022-05-20T14:06:57Z</time>
      </trkpt>
      <trkpt lat="42.496574" lon="-5.412398">
        <ele>878.8518954748288</ele>
        <time>2022-05-20T14:07:06Z</time>
      </trkpt>
      <trkpt lat="42.496639" lon="-5.412483">
        <ele>878.7275751512498</ele>
        <time>2022-05-20T14:07:14Z</time>
      </trkpt>
      <trkpt lat="42.496718" lon="-5.412541">
        <ele>878.3639687672257</ele>
        <time>2022-05-20T14:07:19Z</time>
      </trkpt>
      <trkpt lat="42.496785" lon="-5.412644">
        <ele>877.2414390109479</ele>
        <time>2022-05-20T14:07:27Z</time>
      </trkpt>
      <trkpt lat="42.49682" lon="-5.412771">
        <ele>878.3934022588655</ele>
        <time>2022-05-20T14:07:34Z</time>
      </trkpt>
      <trkpt lat="42.496863" lon="-5.412884">
        <ele>879.884154365398</ele>
        <time>2022-05-20T14:07:41Z</time>
      </trkpt>
      <trkpt lat="42.496915" lon="-5.412987">
        <ele>881.4684316376224</ele>
        <time>2022-05-20T14:07:49Z</time>
      </trkpt>
      <trkpt lat="42.496969" lon="-5.413128">
        <ele>881.2539360551164</ele>
        <time>2022-05-20T14:07:59Z</time>
      </trkpt>
      <trkpt lat="42.497006" lon="-5.413242">
        <ele>879.2768604410812</ele>
        <time>2022-05-20T14:08:07Z</time>
      </trkpt>
      <trkpt lat="42.497021" lon="-5.413368">
        <ele>879.2796183833852</ele>
        <time>2022-05-20T14:08:16Z</time>
      </trkpt>
      <trkpt lat="42.497056" lon="-5.413505">
        <ele>878.4105392517522</ele>
        <time>2022-05-20T14:08:24Z</time>
      </trkpt>
      <trkpt lat="42.497131" lon="-5.413591">
        <ele>878.1416850788519</ele>
        <time>2022-05-20T14:08:32Z</time>
      </trkpt>
      <trkpt lat="42.497129" lon="-5.413722">
        <ele>878.9610895626247</ele>
        <time>2022-05-20T14:08:40Z</time>
      </trkpt>
      <trkpt lat="42.49716" lon="-5.413851">
        <ele>880.0792872495949</ele>
        <time>2022-05-20T14:08:49Z</time>
      </trkpt>
      <trkpt lat="42.497226" lon="-5.413951">
        <ele>886.4918969841674</ele>
        <time>2022-05-20T14:09:04Z</time>
      </trkpt>
      <trkpt lat="42.497274" lon="-5.414063">
        <ele>887.6722306180745</ele>
        <time>2022-05-20T14:09:12Z</time>
      </trkpt>
      <trkpt lat="42.497317" lon="-5.414174">
        <ele>888.6348897395656</ele>
        <time>2022-05-20T14:09:21Z</time>
      </trkpt>
      <trkpt lat="42.497378" lon="-5.414274">
        <ele>888.2877990817651</ele>
        <time>2022-05-20T14:09:29Z</time>
      </trkpt>
      <trkpt lat="42.497403" lon="-5.414394">
        <ele>887.3578352471814</ele>
        <time>2022-05-20T14:09:37Z</time>
      </trkpt>
      <trkpt lat="42.49742" lon="-5.414544">
        <ele>882.5783095881343</ele>
        <time>2022-05-20T14:09:44Z</time>
      </trkpt>
      <trkpt lat="42.49744" lon="-5.414691">
        <ele>879.664376815781</ele>
        <time>2022-05-20T14:09:54Z</time>
      </trkpt>
      <trkpt lat="42.49744" lon="-5.414813">
        <ele>878.3883094750345</ele>
        <time>2022-05-20T14:10:02Z</time>
      </trkpt>
      <trkpt lat="42.497478" lon="-5.414927">
        <ele>879.0342084690928</ele>
        <time>2022-05-20T14:10:09Z</time>
      </trkpt>
      <trkpt lat="42.497526" lon="-5.415039">
        <ele>880.0962090464309</ele>
        <time>2022-05-20T14:10:21Z</time>
      </trkpt>
      <trkpt lat="42.497615" lon="-5.415058">
        <ele>882.3951430367306</ele>
        <time>2022-05-20T14:10:45Z</time>
      </trkpt>
      <trkpt lat="42.497721" lon="-5.415033">
        <ele>882.7667752513662</ele>
        <time>2022-05-20T14:10:54Z</time>
      </trkpt>
      <trkpt lat="42.49778" lon="-5.415165">
        <ele>878.8465554015711</ele>
        <time>2022-05-20T14:11:04Z</time>
      </trkpt>
      <trkpt lat="42.497858" lon="-5.415241">
        <ele>877.962686650455</ele>
        <time>2022-05-20T14:11:52Z</time>
      </trkpt>
      <trkpt lat="42.497943" lon="-5.415311">
        <ele>875.0344647811726</ele>
        <time>2022-05-20T14:12:02Z</time>
      </trkpt>
      <trkpt lat="42.498036" lon="-5.415352">
        <ele>874.1274416623637</ele>
        <time>2022-05-20T14:12:20Z</time>
      </trkpt>
      <trkpt lat="42.49796" lon="-5.415422">
        <ele>862.1725684832782</ele>
        <time>2022-05-20T14:13:23Z</time>
      </trkpt>
      <trkpt lat="42.497949" lon="-5.415548">
        <ele>866.3680488634855</ele>
        <time>2022-05-20T14:13:51Z</time>
      </trkpt>
      <trkpt lat="42.497924" lon="-5.415678">
        <ele>866.3159824339673</ele>
        <time>2022-05-20T14:14:02Z</time>
      </trkpt>
      <trkpt lat="42.497873" lon="-5.415573">
        <ele>877.8597527816892</ele>
        <time>2022-05-20T14:14:56Z</time>
      </trkpt>
      <trkpt lat="42.49797" lon="-5.415565">
        <ele>877.4756358722225</ele>
        <time>2022-05-20T14:16:18Z</time>
      </trkpt>
      <trkpt lat="42.498069" lon="-5.415579">
        <ele>876.9741476289928</ele>
        <time>2022-05-20T14:16:23Z</time>
      </trkpt>
      <trkpt lat="42.49815" lon="-5.415641">
        <ele>875.6891786810011</ele>
        <time>2022-05-20T14:20:01Z</time>
      </trkpt>
      <trkpt lat="42.498063" lon="-5.415692">
        <ele>876.3555679051206</ele>
        <time>2022-05-20T14:22:32Z</time>
      </trkpt>
      <trkpt lat="42.498016" lon="-5.415804">
        <ele>878.0065271137282</ele>
        <time>2022-05-20T14:22:43Z</time>
      </trkpt>
      <trkpt lat="42.498029" lon="-5.415636">
        <ele>887.5095103513449</ele>
        <time>2022-05-20T14:23:41Z</time>
      </trkpt>
      <trkpt lat="42.498009" lon="-5.415517">
        <ele>889.3976948428899</ele>
        <time>2022-05-20T14:23:48Z</time>
      </trkpt>
      <trkpt lat="42.497992" lon="-5.415355">
        <ele>893.3661831859499</ele>
        <time>2022-05-20T14:24:02Z</time>
      </trkpt>
      <trkpt lat="42.497991" lon="-5.415232">
        <ele>896.3768660631031</ele>
        <time>2022-05-20T14:24:27Z</time>
      </trkpt>
      <trkpt lat="42.497793" lon="-5.415216">
        <ele>928.7998571842909</ele>
        <time>2022-05-20T14:33:22Z</time>
      </trkpt>
      <trkpt lat="42.497597" lon="-5.415206">
        <ele>927.6997257936746</ele>
        <time>2022-05-20T14:34:02Z</time>
      </trkpt>
      <trkpt lat="42.49727" lon="-5.415327">
        <ele>860.06272315979</ele>
        <time>2022-05-21T07:20:21Z</time>
      </trkpt>
      <trkpt lat="42.497126" lon="-5.415353">
        <ele>843.5800117878243</ele>
        <time>2022-05-21T07:20:23Z</time>
      </trkpt>
      <trkpt lat="42.49723" lon="-5.415374">
        <ele>875.3763450365514</ele>
        <time>2022-05-21T07:20:26Z</time>
      </trkpt>
      <trkpt lat="42.497333" lon="-5.415411">
        <ele>875.1531934197992</ele>
        <time>2022-05-21T07:20:59Z</time>
      </trkpt>
      <trkpt lat="42.49744" lon="-5.415414">
        <ele>874.36951654125</ele>
        <time>2022-05-21T07:21:09Z</time>
      </trkpt>
      <trkpt lat="42.497525" lon="-5.415465">
        <ele>871.8202206213027</ele>
        <time>2022-05-21T07:21:27Z</time>
      </trkpt>
      <trkpt lat="42.497596" lon="-5.415548">
        <ele>868.1263649351895</ele>
        <time>2022-05-21T07:21:42Z</time>
      </trkpt>
      <trkpt lat="42.497685" lon="-5.415603">
        <ele>865.4504404859617</ele>
        <time>2022-05-21T07:21:55Z</time>
      </trkpt>
      <trkpt lat="42.497771" lon="-5.415647">
        <ele>863.6395342657343</ele>
        <time>2022-05-21T07:22:03Z</time>
      </trkpt>
      <trkpt lat="42.497837" lon="-5.415751">
        <ele>862.6109881130978</ele>
        <time>2022-05-21T07:22:10Z</time>
      </trkpt>
      <trkpt lat="42.497901" lon="-5.415852">
        <ele>864.9934461973608</ele>
        <time>2022-05-21T07:22:15Z</time>
      </trkpt>
      <trkpt lat="42.497941" lon="-5.415973">
        <ele>865.340127972886</ele>
        <time>2022-05-21T07:22:25Z</time>
      </trkpt>
      <trkpt lat="42.498013" lon="-5.41606">
        <ele>867.9421936254948</ele>
        <time>2022-05-21T07:22:35Z</time>
      </trkpt>
      <trkpt lat="42.498069" lon="-5.416161">
        <ele>869.5511189326644</ele>
        <time>2022-05-21T07:22:42Z</time>
      </trkpt>
      <trkpt lat="42.498135" lon="-5.416253">
        <ele>872.5816876897588</ele>
        <time>2022-05-21T07:22:50Z</time>
      </trkpt>
      <trkpt lat="42.498194" lon="-5.416357">
        <ele>878.6619273945689</ele>
        <time>2022-05-21T07:23:02Z</time>
      </trkpt>
      <trkpt lat="42.498245" lon="-5.416461">
        <ele>877.1532090408728</ele>
        <time>2022-05-21T07:23:14Z</time>
      </trkpt>
      <trkpt lat="42.498305" lon="-5.416563">
        <ele>875.6896656602621</ele>
        <time>2022-05-21T07:23:22Z</time>
      </trkpt>
      <trkpt lat="42.498345" lon="-5.416672">
        <ele>874.0650586755946</ele>
        <time>2022-05-21T07:23:30Z</time>
      </trkpt>
      <trkpt lat="42.498392" lon="-5.416779">
        <ele>873.1607653079554</ele>
        <time>2022-05-21T07:23:39Z</time>
      </trkpt>
      <trkpt lat="42.498427" lon="-5.416897">
        <ele>873.5592606766149</ele>
        <time>2022-05-21T07:23:47Z</time>
      </trkpt>
      <trkpt lat="42.498494" lon="-5.417">
        <ele>876.8098599407822</ele>
        <time>2022-05-21T07:23:55Z</time>
      </trkpt>
      <trkpt lat="42.49856" lon="-5.417101">
        <ele>882.0127925649285</ele>
        <time>2022-05-21T07:24:02Z</time>
      </trkpt>
      <trkpt lat="42.49858" lon="-5.417225">
        <ele>884.6834174916148</ele>
        <time>2022-05-21T07:24:10Z</time>
      </trkpt>
      <trkpt lat="42.498619" lon="-5.41734">
        <ele>884.7609405973926</ele>
        <time>2022-05-21T07:24:20Z</time>
      </trkpt>
      <trkpt lat="42.498688" lon="-5.417441">
        <ele>883.4957050997764</ele>
        <time>2022-05-21T07:24:29Z</time>
      </trkpt>
      <trkpt lat="42.498751" lon="-5.417552">
        <ele>878.7476711776108</ele>
        <time>2022-05-21T07:24:39Z</time>
      </trkpt>
      <trkpt lat="42.498801" lon="-5.417675">
        <ele>872.6783255720511</ele>
        <time>2022-05-21T07:24:47Z</time>
      </trkpt>
      <trkpt lat="42.498843" lon="-5.417789">
        <ele>870.4729468412697</ele>
        <time>2022-05-21T07:24:55Z</time>
      </trkpt>
      <trkpt lat="42.49892" lon="-5.417869">
        <ele>867.4659955753013</ele>
        <time>2022-05-21T07:25:05Z</time>
      </trkpt>
      <trkpt lat="42.499003" lon="-5.41793">
        <ele>866.7405620627105</ele>
        <time>2022-05-21T07:25:12Z</time>
      </trkpt>
      <trkpt lat="42.499067" lon="-5.418022">
        <ele>864.1871407246217</ele>
        <time>2022-05-21T07:25:21Z</time>
      </trkpt>
      <trkpt lat="42.49915" lon="-5.418104">
        <ele>863.7992608780041</ele>
        <time>2022-05-21T07:25:29Z</time>
      </trkpt>
      <trkpt lat="42.499235" lon="-5.418149">
        <ele>864.2507343161851</ele>
        <time>2022-05-21T07:25:38Z</time>
      </trkpt>
      <trkpt lat="42.499327" lon="-5.418204">
        <ele>864.1308613866568</ele>
        <time>2022-05-21T07:25:49Z</time>
      </trkpt>
      <trkpt lat="42.499413" lon="-5.41827">
        <ele>860.276569860056</ele>
        <time>2022-05-21T07:26:05Z</time>
      </trkpt>
      <trkpt lat="42.499478" lon="-5.418375">
        <ele>858.9571610316634</ele>
        <time>2022-05-21T07:26:12Z</time>
      </trkpt>
      <trkpt lat="42.499543" lon="-5.418461">
        <ele>862.8424618849531</ele>
        <time>2022-05-21T07:26:18Z</time>
      </trkpt>
      <trkpt lat="42.499596" lon="-5.418568">
        <ele>863.1116326441988</ele>
        <time>2022-05-21T07:26:25Z</time>
      </trkpt>
      <trkpt lat="42.499677" lon="-5.418623">
        <ele>858.2188883516937</ele>
        <time>2022-05-21T07:26:39Z</time>
      </trkpt>
      <trkpt lat="42.499765" lon="-5.418667">
        <ele>856.3519542813301</ele>
        <time>2022-05-21T07:26:47Z</time>
      </trkpt>
      <trkpt lat="42.49986" lon="-5.418701">
        <ele>857.0182676864788</ele>
        <time>2022-05-21T07:26:53Z</time>
      </trkpt>
      <trkpt lat="42.499911" lon="-5.418814">
        <ele>857.502683589235</ele>
        <time>2022-05-21T07:27:00Z</time>
      </trkpt>
      <trkpt lat="42.499983" lon="-5.418906">
        <ele>859.5870424686</ele>
        <time>2022-05-21T07:27:10Z</time>
      </trkpt>
      <trkpt lat="42.500041" lon="-5.419004">
        <ele>861.2003550091758</ele>
        <time>2022-05-21T07:27:18Z</time>
      </trkpt>
      <trkpt lat="42.500127" lon="-5.419057">
        <ele>863.9383465861902</ele>
        <time>2022-05-21T07:27:28Z</time>
      </trkpt>
      <trkpt lat="42.500215" lon="-5.419089">
        <ele>860.9411320034415</ele>
        <time>2022-05-21T07:27:40Z</time>
      </trkpt>
      <trkpt lat="42.500298" lon="-5.419145">
        <ele>853.3634452931583</ele>
        <time>2022-05-21T07:27:49Z</time>
      </trkpt>
      <trkpt lat="42.500387" lon="-5.41917">
        <ele>849.5296743074432</ele>
        <time>2022-05-21T07:28:00Z</time>
      </trkpt>
      <trkpt lat="42.50049" lon="-5.419163">
        <ele>852.7312672827393</ele>
        <time>2022-05-21T07:28:42Z</time>
      </trkpt>
      <trkpt lat="42.500562" lon="-5.419262">
        <ele>847.7697384860367</ele>
        <time>2022-05-21T07:31:53Z</time>
      </trkpt>
      <trkpt lat="42.50065" lon="-5.419306">
        <ele>844.8777115046978</ele>
        <time>2022-05-21T07:32:00Z</time>
      </trkpt>
      <trkpt lat="42.500741" lon="-5.419331">
        <ele>843.6837232224643</ele>
        <time>2022-05-21T07:32:10Z</time>
      </trkpt>
      <trkpt lat="42.500828" lon="-5.419403">
        <ele>844.0184145532548</ele>
        <time>2022-05-21T07:32:20Z</time>
      </trkpt>
      <trkpt lat="42.5009" lon="-5.419477">
        <ele>846.4835767922923</ele>
        <time>2022-05-21T07:32:39Z</time>
      </trkpt>
      <trkpt lat="42.500976" lon="-5.419542">
        <ele>850.6511022774503</ele>
        <time>2022-05-21T07:32:49Z</time>
      </trkpt>
      <trkpt lat="42.501063" lon="-5.419591">
        <ele>851.3590442826971</ele>
        <time>2022-05-21T07:33:00Z</time>
      </trkpt>
      <trkpt lat="42.501153" lon="-5.419628">
        <ele>851.0172762190923</ele>
        <time>2022-05-21T07:33:12Z</time>
      </trkpt>
      <trkpt lat="42.501237" lon="-5.419697">
        <ele>850.6892328169197</ele>
        <time>2022-05-21T07:33:20Z</time>
      </trkpt>
      <trkpt lat="42.501334" lon="-5.419689">
        <ele>848.2418211856857</ele>
        <time>2022-05-21T07:33:44Z</time>
      </trkpt>
      <trkpt lat="42.501417" lon="-5.419758">
        <ele>846.7623225618154</ele>
        <time>2022-05-21T07:34:10Z</time>
      </trkpt>
      <trkpt lat="42.501489" lon="-5.419846">
        <ele>848.8942060740665</ele>
        <time>2022-05-21T07:35:45Z</time>
      </trkpt>
      <trkpt lat="42.501576" lon="-5.419922">
        <ele>851.5592370787635</ele>
        <time>2022-05-21T07:35:55Z</time>
      </trkpt>
      <trkpt lat="42.501638" lon="-5.42002">
        <ele>852.5462624747306</ele>
        <time>2022-05-21T07:36:02Z</time>
      </trkpt>
      <trkpt lat="42.501708" lon="-5.420101">
        <ele>854.7903562672436</ele>
        <time>2022-05-21T07:36:09Z</time>
      </trkpt>
      <trkpt lat="42.501785" lon="-5.42017">
        <ele>855.070896519348</ele>
        <time>2022-05-21T07:36:17Z</time>
      </trkpt>
      <trkpt lat="42.501879" lon="-5.420229">
        <ele>856.20242295973</ele>
        <time>2022-05-21T07:36:25Z</time>
      </trkpt>
      <trkpt lat="42.501967" lon="-5.420298">
        <ele>859.9622121602297</ele>
        <time>2022-05-21T07:36:32Z</time>
      </trkpt>
      <trkpt lat="42.502048" lon="-5.420381">
        <ele>862.4422911861911</ele>
        <time>2022-05-21T07:36:40Z</time>
      </trkpt>
      <trkpt lat="42.502128" lon="-5.420436">
        <ele>862.0866604652256</ele>
        <time>2022-05-21T07:36:49Z</time>
      </trkpt>
      <trkpt lat="42.502215" lon="-5.420499">
        <ele>865.1702892370522</ele>
        <time>2022-05-21T07:36:55Z</time>
      </trkpt>
      <trkpt lat="42.502303" lon="-5.420558">
        <ele>865.3270122949034</ele>
        <time>2022-05-21T07:37:03Z</time>
      </trkpt>
      <trkpt lat="42.502392" lon="-5.420623">
        <ele>865.2400522939861</ele>
        <time>2022-05-21T07:37:12Z</time>
      </trkpt>
      <trkpt lat="42.502479" lon="-5.420686">
        <ele>862.6033718651161</ele>
        <time>2022-05-21T07:37:19Z</time>
      </trkpt>
      <trkpt lat="42.502569" lon="-5.420736">
        <ele>858.7347583295777</ele>
        <time>2022-05-21T07:37:27Z</time>
      </trkpt>
      <trkpt lat="42.50265" lon="-5.420804">
        <ele>856.3588167941198</ele>
        <time>2022-05-21T07:37:33Z</time>
      </trkpt>
      <trkpt lat="42.502731" lon="-5.420883">
        <ele>855.0065777329728</ele>
        <time>2022-05-21T07:37:43Z</time>
      </trkpt>
      <trkpt lat="42.502815" lon="-5.420945">
        <ele>853.4621161092073</ele>
        <time>2022-05-21T07:37:52Z</time>
      </trkpt>
      <trkpt lat="42.502899" lon="-5.421014">
        <ele>856.661465253681</ele>
        <time>2022-05-21T07:38:00Z</time>
      </trkpt>
      <trkpt lat="42.502985" lon="-5.421085">
        <ele>855.9457272272557</ele>
        <time>2022-05-21T07:38:10Z</time>
      </trkpt>
      <trkpt lat="42.503069" lon="-5.421157">
        <ele>856.4596995199099</ele>
        <time>2022-05-21T07:38:17Z</time>
      </trkpt>
      <trkpt lat="42.503157" lon="-5.421222">
        <ele>856.9417642652988</ele>
        <time>2022-05-21T07:38:23Z</time>
      </trkpt>
      <trkpt lat="42.503249" lon="-5.421271">
        <ele>853.217147869058</ele>
        <time>2022-05-21T07:38:30Z</time>
      </trkpt>
      <trkpt lat="42.503334" lon="-5.421338">
        <ele>853.1021446036175</ele>
        <time>2022-05-21T07:38:38Z</time>
      </trkpt>
      <trkpt lat="42.503413" lon="-5.421403">
        <ele>854.761802260764</ele>
        <time>2022-05-21T07:38:45Z</time>
      </trkpt>
      <trkpt lat="42.503502" lon="-5.421457">
        <ele>853.9832482272759</ele>
        <time>2022-05-21T07:38:52Z</time>
      </trkpt>
      <trkpt lat="42.503588" lon="-5.421509">
        <ele>852.509649191983</ele>
        <time>2022-05-21T07:38:58Z</time>
      </trkpt>
      <trkpt lat="42.503678" lon="-5.421575">
        <ele>852.9051718693227</ele>
        <time>2022-05-21T07:39:05Z</time>
      </trkpt>
      <trkpt lat="42.503765" lon="-5.421643">
        <ele>852.2769958069548</ele>
        <time>2022-05-21T07:39:12Z</time>
      </trkpt>
      <trkpt lat="42.503853" lon="-5.421716">
        <ele>852.6127153085545</ele>
        <time>2022-05-21T07:39:18Z</time>
      </trkpt>
      <trkpt lat="42.50395" lon="-5.421758">
        <ele>852.4423910463229</ele>
        <time>2022-05-21T07:39:25Z</time>
      </trkpt>
      <trkpt lat="42.50404" lon="-5.421818">
        <ele>854.0300166942179</ele>
        <time>2022-05-21T07:39:34Z</time>
      </trkpt>
      <trkpt lat="42.504125" lon="-5.421877">
        <ele>853.546981908381</ele>
        <time>2022-05-21T07:39:40Z</time>
      </trkpt>
      <trkpt lat="42.504213" lon="-5.421954">
        <ele>853.7287368252873</ele>
        <time>2022-05-21T07:39:47Z</time>
      </trkpt>
      <trkpt lat="42.504301" lon="-5.421991">
        <ele>853.7755768755451</ele>
        <time>2022-05-21T07:39:55Z</time>
      </trkpt>
      <trkpt lat="42.504386" lon="-5.422049">
        <ele>855.6258255941793</ele>
        <time>2022-05-21T07:40:03Z</time>
      </trkpt>
      <trkpt lat="42.504466" lon="-5.422123">
        <ele>859.5729331895709</ele>
        <time>2022-05-21T07:40:15Z</time>
      </trkpt>
      <trkpt lat="42.504552" lon="-5.422181">
        <ele>861.8204952441156</ele>
        <time>2022-05-21T07:40:25Z</time>
      </trkpt>
      <trkpt lat="42.504636" lon="-5.42225">
        <ele>862.8790710102767</ele>
        <time>2022-05-21T07:40:33Z</time>
      </trkpt>
      <trkpt lat="42.50472" lon="-5.422304">
        <ele>862.7936374312267</ele>
        <time>2022-05-21T07:40:39Z</time>
      </trkpt>
      <trkpt lat="42.504802" lon="-5.422356">
        <ele>860.9713840298355</ele>
        <time>2022-05-21T07:40:45Z</time>
      </trkpt>
      <trkpt lat="42.504891" lon="-5.422419">
        <ele>861.8637765627354</ele>
        <time>2022-05-21T07:40:52Z</time>
      </trkpt>
      <trkpt lat="42.504984" lon="-5.422473">
        <ele>864.1598878530785</ele>
        <time>2022-05-21T07:41:00Z</time>
      </trkpt>
      <trkpt lat="42.505065" lon="-5.422538">
        <ele>864.9451848883182</ele>
        <time>2022-05-21T07:41:05Z</time>
      </trkpt>
      <trkpt lat="42.505152" lon="-5.422615">
        <ele>867.379343030043</ele>
        <time>2022-05-21T07:41:13Z</time>
      </trkpt>
      <trkpt lat="42.505227" lon="-5.422683">
        <ele>868.5064970022067</ele>
        <time>2022-05-21T07:41:20Z</time>
      </trkpt>
      <trkpt lat="42.50531" lon="-5.422752">
        <ele>869.2327412161976</ele>
        <time>2022-05-21T07:41:28Z</time>
      </trkpt>
      <trkpt lat="42.505396" lon="-5.422814">
        <ele>866.7825581198558</ele>
        <time>2022-05-21T07:41:35Z</time>
      </trkpt>
      <trkpt lat="42.505487" lon="-5.422874">
        <ele>869.0506000546739</ele>
        <time>2022-05-21T07:41:43Z</time>
      </trkpt>
      <trkpt lat="42.505577" lon="-5.422926">
        <ele>871.3786961995065</ele>
        <time>2022-05-21T07:41:52Z</time>
      </trkpt>
      <trkpt lat="42.505672" lon="-5.422982">
        <ele>868.2159567167982</ele>
        <time>2022-05-21T07:41:59Z</time>
      </trkpt>
      <trkpt lat="42.505755" lon="-5.423038">
        <ele>867.2981478925794</ele>
        <time>2022-05-21T07:42:04Z</time>
      </trkpt>
      <trkpt lat="42.505841" lon="-5.423079">
        <ele>865.0228361217305</ele>
        <time>2022-05-21T07:42:10Z</time>
      </trkpt>
      <trkpt lat="42.505926" lon="-5.423141">
        <ele>865.4592730626464</ele>
        <time>2022-05-21T07:42:24Z</time>
      </trkpt>
      <trkpt lat="42.506002" lon="-5.423208">
        <ele>868.6366486540064</ele>
        <time>2022-05-21T07:42:30Z</time>
      </trkpt>
      <trkpt lat="42.506082" lon="-5.423285">
        <ele>870.0531872520223</ele>
        <time>2022-05-21T07:42:39Z</time>
      </trkpt>
      <trkpt lat="42.506164" lon="-5.423359">
        <ele>870.7415202204138</ele>
        <time>2022-05-21T07:42:47Z</time>
      </trkpt>
      <trkpt lat="42.506254" lon="-5.423419">
        <ele>869.5962832430378</ele>
        <time>2022-05-21T07:42:54Z</time>
      </trkpt>
      <trkpt lat="42.506332" lon="-5.423485">
        <ele>869.9614628832787</ele>
        <time>2022-05-21T07:43:00Z</time>
      </trkpt>
      <trkpt lat="42.506424" lon="-5.423528">
        <ele>869.3412456009537</ele>
        <time>2022-05-21T07:43:08Z</time>
      </trkpt>
      <trkpt lat="42.506502" lon="-5.423594">
        <ele>868.9240792542696</ele>
        <time>2022-05-21T07:43:13Z</time>
      </trkpt>
      <trkpt lat="42.506589" lon="-5.423667">
        <ele>873.3228689683601</ele>
        <time>2022-05-21T07:43:19Z</time>
      </trkpt>
      <trkpt lat="42.506685" lon="-5.423716">
        <ele>873.4042671630159</ele>
        <time>2022-05-21T07:43:27Z</time>
      </trkpt>
      <trkpt lat="42.506784" lon="-5.423772">
        <ele>876.7594435336068</ele>
        <time>2022-05-21T07:43:34Z</time>
      </trkpt>
      <trkpt lat="42.506864" lon="-5.423841">
        <ele>877.0772562222555</ele>
        <time>2022-05-21T07:43:39Z</time>
      </trkpt>
      <trkpt lat="42.506864" lon="-5.423841">
        <ele>877.0772562222555</ele>
        <time>2022-05-21T07:43:39Z</time>
      </trkpt>
      <trkpt lat="42.506944" lon="-5.423901">
        <ele>875.2797752646729</ele>
        <time>2022-05-21T07:43:45Z</time>
      </trkpt>
      <trkpt lat="42.507051" lon="-5.423961">
        <ele>876.3347096303478</ele>
        <time>2022-05-21T07:43:54Z</time>
      </trkpt>
      <trkpt lat="42.507135" lon="-5.42403">
        <ele>876.545550821349</ele>
        <time>2022-05-21T07:44:00Z</time>
      </trkpt>
      <trkpt lat="42.507225" lon="-5.424098">
        <ele>875.7073547644541</ele>
        <time>2022-05-21T07:44:07Z</time>
      </trkpt>
      <trkpt lat="42.507315" lon="-5.424164">
        <ele>874.8868757383898</ele>
        <time>2022-05-21T07:44:13Z</time>
      </trkpt>
      <trkpt lat="42.507413" lon="-5.42421">
        <ele>874.7363121779636</ele>
        <time>2022-05-21T07:44:20Z</time>
      </trkpt>
      <trkpt lat="42.507503" lon="-5.42427">
        <ele>873.0419144388288</ele>
        <time>2022-05-21T07:44:26Z</time>
      </trkpt>
      <trkpt lat="42.507584" lon="-5.424327">
        <ele>873.4897497082129</ele>
        <time>2022-05-21T07:44:33Z</time>
      </trkpt>
      <trkpt lat="42.507665" lon="-5.424399">
        <ele>874.7755862567574</ele>
        <time>2022-05-21T07:44:39Z</time>
      </trkpt>
      <trkpt lat="42.507752" lon="-5.42447">
        <ele>875.8858926650137</ele>
        <time>2022-05-21T07:44:47Z</time>
      </trkpt>
      <trkpt lat="42.50785" lon="-5.424522">
        <ele>875.3337439568713</ele>
        <time>2022-05-21T07:44:54Z</time>
      </trkpt>
      <trkpt lat="42.50794" lon="-5.424581">
        <ele>875.5293784309179</ele>
        <time>2022-05-21T07:45:01Z</time>
      </trkpt>
      <trkpt lat="42.508032" lon="-5.424644">
        <ele>875.4387864097953</ele>
        <time>2022-05-21T07:45:08Z</time>
      </trkpt>
      <trkpt lat="42.508126" lon="-5.4247">
        <ele>875.4694308331236</ele>
        <time>2022-05-21T07:45:16Z</time>
      </trkpt>
      <trkpt lat="42.508207" lon="-5.42476">
        <ele>877.2914856085554</ele>
        <time>2022-05-21T07:45:24Z</time>
      </trkpt>
      <trkpt lat="42.508288" lon="-5.424829">
        <ele>877.9474726198241</ele>
        <time>2022-05-21T07:45:30Z</time>
      </trkpt>
      <trkpt lat="42.508364" lon="-5.424904">
        <ele>878.8489397605881</ele>
        <time>2022-05-21T07:45:35Z</time>
      </trkpt>
      <trkpt lat="42.508451" lon="-5.424972">
        <ele>878.423856774345</ele>
        <time>2022-05-21T07:45:43Z</time>
      </trkpt>
      <trkpt lat="42.508535" lon="-5.425036">
        <ele>878.2886056434363</ele>
        <time>2022-05-21T07:45:50Z</time>
      </trkpt>
      <trkpt lat="42.508626" lon="-5.425089">
        <ele>878.4030101951212</ele>
        <time>2022-05-21T07:45:57Z</time>
      </trkpt>
      <trkpt lat="42.508699" lon="-5.425171">
        <ele>878.5043301619589</ele>
        <time>2022-05-21T07:46:04Z</time>
      </trkpt>
      <trkpt lat="42.508758" lon="-5.425271">
        <ele>878.7319929013029</ele>
        <time>2022-05-21T07:46:12Z</time>
      </trkpt>
      <trkpt lat="42.508822" lon="-5.425376">
        <ele>878.2484471974894</ele>
        <time>2022-05-21T07:46:20Z</time>
      </trkpt>
      <trkpt lat="42.50887" lon="-5.425481">
        <ele>878.0144495461136</ele>
        <time>2022-05-21T07:46:27Z</time>
      </trkpt>
      <trkpt lat="42.508919" lon="-5.425589">
        <ele>878.8597672944888</ele>
        <time>2022-05-21T07:46:33Z</time>
      </trkpt>
      <trkpt lat="42.50899" lon="-5.425682">
        <ele>884.6950066285208</ele>
        <time>2022-05-21T07:47:14Z</time>
      </trkpt>
      <trkpt lat="42.509068" lon="-5.425753">
        <ele>887.779906950891</ele>
        <time>2022-05-21T07:47:22Z</time>
      </trkpt>
      <trkpt lat="42.50916" lon="-5.425798">
        <ele>886.2565143527463</ele>
        <time>2022-05-21T07:47:30Z</time>
      </trkpt>
      <trkpt lat="42.509251" lon="-5.425846">
        <ele>886.6216778568923</ele>
        <time>2022-05-21T07:47:48Z</time>
      </trkpt>
      <trkpt lat="42.509347" lon="-5.425895">
        <ele>887.6723275594413</ele>
        <time>2022-05-21T07:47:55Z</time>
      </trkpt>
      <trkpt lat="42.509442" lon="-5.425923">
        <ele>885.3398857163265</ele>
        <time>2022-05-21T07:48:42Z</time>
      </trkpt>
      <trkpt lat="42.509535" lon="-5.425975">
        <ele>880.683697595261</ele>
        <time>2022-05-21T07:48:50Z</time>
      </trkpt>
      <trkpt lat="42.50962" lon="-5.42602">
        <ele>877.1767943222076</ele>
        <time>2022-05-21T07:48:59Z</time>
      </trkpt>
      <trkpt lat="42.5097" lon="-5.426087">
        <ele>871.946733051911</ele>
        <time>2022-05-21T07:49:08Z</time>
      </trkpt>
      <trkpt lat="42.509791" lon="-5.426136">
        <ele>869.7095343330875</ele>
        <time>2022-05-21T07:49:15Z</time>
      </trkpt>
      <trkpt lat="42.509883" lon="-5.426166">
        <ele>867.8562518404797</ele>
        <time>2022-05-21T07:49:20Z</time>
      </trkpt>
      <trkpt lat="42.509969" lon="-5.42623">
        <ele>865.2711541084573</ele>
        <time>2022-05-21T07:49:28Z</time>
      </trkpt>
      <trkpt lat="42.510064" lon="-5.426272">
        <ele>863.7776799323037</ele>
        <time>2022-05-21T07:49:35Z</time>
      </trkpt>
      <trkpt lat="42.510162" lon="-5.426292">
        <ele>860.2407335937023</ele>
        <time>2022-05-21T07:49:43Z</time>
      </trkpt>
      <trkpt lat="42.510241" lon="-5.426367">
        <ele>858.7112961979583</ele>
        <time>2022-05-21T07:49:49Z</time>
      </trkpt>
      <trkpt lat="42.510314" lon="-5.426439">
        <ele>858.3856711285189</ele>
        <time>2022-05-21T07:49:55Z</time>
      </trkpt>
      <trkpt lat="42.5104" lon="-5.42652">
        <ele>857.5851353881881</ele>
        <time>2022-05-21T07:50:04Z</time>
      </trkpt>
      <trkpt lat="42.510481" lon="-5.42659">
        <ele>860.9075561547652</ele>
        <time>2022-05-21T07:50:12Z</time>
      </trkpt>
      <trkpt lat="42.510575" lon="-5.426654">
        <ele>860.0987256700173</ele>
        <time>2022-05-21T07:50:19Z</time>
      </trkpt>
      <trkpt lat="42.510664" lon="-5.426684">
        <ele>858.9808649551123</ele>
        <time>2022-05-21T07:50:27Z</time>
      </trkpt>
      <trkpt lat="42.510753" lon="-5.426729">
        <ele>855.7752965278924</ele>
        <time>2022-05-21T07:50:34Z</time>
      </trkpt>
      <trkpt lat="42.510837" lon="-5.426798">
        <ele>853.63674103003</ele>
        <time>2022-05-21T07:50:39Z</time>
      </trkpt>
      <trkpt lat="42.510913" lon="-5.426871">
        <ele>853.6296863472089</ele>
        <time>2022-05-21T07:50:47Z</time>
      </trkpt>
      <trkpt lat="42.510981" lon="-5.426954">
        <ele>853.8021324463189</ele>
        <time>2022-05-21T07:50:54Z</time>
      </trkpt>
      <trkpt lat="42.511062" lon="-5.427031">
        <ele>854.5533593297005</ele>
        <time>2022-05-21T07:51:02Z</time>
      </trkpt>
      <trkpt lat="42.511143" lon="-5.427093">
        <ele>856.4143844302744</ele>
        <time>2022-05-21T07:51:09Z</time>
      </trkpt>
      <trkpt lat="42.511236" lon="-5.427147">
        <ele>858.2527605909854</ele>
        <time>2022-05-21T07:51:17Z</time>
      </trkpt>
      <trkpt lat="42.511325" lon="-5.427201">
        <ele>862.252157905139</ele>
        <time>2022-05-21T07:51:25Z</time>
      </trkpt>
      <trkpt lat="42.511408" lon="-5.42726">
        <ele>862.5623457636684</ele>
        <time>2022-05-21T07:51:30Z</time>
      </trkpt>
      <trkpt lat="42.511492" lon="-5.427304">
        <ele>860.81156135723</ele>
        <time>2022-05-21T07:51:37Z</time>
      </trkpt>
      <trkpt lat="42.511577" lon="-5.427356">
        <ele>859.1967634810135</ele>
        <time>2022-05-21T07:51:44Z</time>
      </trkpt>
      <trkpt lat="42.511673" lon="-5.427395">
        <ele>859.0484785661101</ele>
        <time>2022-05-21T07:51:53Z</time>
      </trkpt>
      <trkpt lat="42.511761" lon="-5.427438">
        <ele>859.0757183823735</ele>
        <time>2022-05-21T07:51:59Z</time>
      </trkpt>
      <trkpt lat="42.511852" lon="-5.427498">
        <ele>858.8986968053505</ele>
        <time>2022-05-21T07:52:07Z</time>
      </trkpt>
      <trkpt lat="42.511935" lon="-5.427554">
        <ele>858.107323965989</ele>
        <time>2022-05-21T07:52:14Z</time>
      </trkpt>
      <trkpt lat="42.512005" lon="-5.427634">
        <ele>857.822831521742</ele>
        <time>2022-05-21T07:52:20Z</time>
      </trkpt>
      <trkpt lat="42.512087" lon="-5.427699">
        <ele>857.291301283054</ele>
        <time>2022-05-21T07:52:29Z</time>
      </trkpt>
      <trkpt lat="42.512173" lon="-5.427764">
        <ele>857.6331292688847</ele>
        <time>2022-05-21T07:52:37Z</time>
      </trkpt>
      <trkpt lat="42.512248" lon="-5.427834">
        <ele>857.6657248977572</ele>
        <time>2022-05-21T07:52:44Z</time>
      </trkpt>
      <trkpt lat="42.512336" lon="-5.427899">
        <ele>857.7325557302684</ele>
        <time>2022-05-21T07:52:50Z</time>
      </trkpt>
      <trkpt lat="42.512418" lon="-5.427959">
        <ele>855.1326873777434</ele>
        <time>2022-05-21T07:52:57Z</time>
      </trkpt>
      <trkpt lat="42.512498" lon="-5.428048">
        <ele>855.1610627491027</ele>
        <time>2022-05-21T07:53:05Z</time>
      </trkpt>
      <trkpt lat="42.512579" lon="-5.428118">
        <ele>853.9232976455241</ele>
        <time>2022-05-21T07:53:12Z</time>
      </trkpt>
      <trkpt lat="42.512669" lon="-5.428148">
        <ele>852.2227640422061</ele>
        <time>2022-05-21T07:53:19Z</time>
      </trkpt>
      <trkpt lat="42.512759" lon="-5.428205">
        <ele>853.5200471971184</ele>
        <time>2022-05-21T07:53:25Z</time>
      </trkpt>
      <trkpt lat="42.512836" lon="-5.428286">
        <ele>853.3323660437018</ele>
        <time>2022-05-21T07:53:34Z</time>
      </trkpt>
      <trkpt lat="42.512913" lon="-5.428354">
        <ele>852.2921513384208</ele>
        <time>2022-05-21T07:53:42Z</time>
      </trkpt>
      <trkpt lat="42.513008" lon="-5.428401">
        <ele>852.5499372119084</ele>
        <time>2022-05-21T07:53:50Z</time>
      </trkpt>
      <trkpt lat="42.5131" lon="-5.428473">
        <ele>853.715517478995</ele>
        <time>2022-05-21T07:53:57Z</time>
      </trkpt>
      <trkpt lat="42.513178" lon="-5.42854">
        <ele>853.9406972536817</ele>
        <time>2022-05-21T07:54:03Z</time>
      </trkpt>
      <trkpt lat="42.51326" lon="-5.428607">
        <ele>853.7558958474547</ele>
        <time>2022-05-21T07:54:10Z</time>
      </trkpt>
      <trkpt lat="42.513349" lon="-5.428662">
        <ele>854.3157241502777</ele>
        <time>2022-05-21T07:54:19Z</time>
      </trkpt>
      <trkpt lat="42.513438" lon="-5.428716">
        <ele>853.1806528437883</ele>
        <time>2022-05-21T07:54:25Z</time>
      </trkpt>
      <trkpt lat="42.513522" lon="-5.428788">
        <ele>855.5289710620418</ele>
        <time>2022-05-21T07:54:34Z</time>
      </trkpt>
      <trkpt lat="42.513609" lon="-5.428855">
        <ele>855.8207416124642</ele>
        <time>2022-05-21T07:54:42Z</time>
      </trkpt>
      <trkpt lat="42.513698" lon="-5.42891">
        <ele>854.1377578610554</ele>
        <time>2022-05-21T07:54:49Z</time>
      </trkpt>
      <trkpt lat="42.513794" lon="-5.42896">
        <ele>852.5083665763959</ele>
        <time>2022-05-21T07:54:57Z</time>
      </trkpt>
      <trkpt lat="42.51388" lon="-5.429009">
        <ele>850.8813499677926</ele>
        <time>2022-05-21T07:55:04Z</time>
      </trkpt>
      <trkpt lat="42.513963" lon="-5.429072">
        <ele>849.1204881845042</ele>
        <time>2022-05-21T07:55:12Z</time>
      </trkpt>
      <trkpt lat="42.514052" lon="-5.429134">
        <ele>846.0238493075594</ele>
        <time>2022-05-21T07:55:19Z</time>
      </trkpt>
      <trkpt lat="42.514138" lon="-5.429195">
        <ele>845.0568956965581</ele>
        <time>2022-05-21T07:55:28Z</time>
      </trkpt>
      <trkpt lat="42.514228" lon="-5.429243">
        <ele>841.2863686522469</ele>
        <time>2022-05-21T07:55:35Z</time>
      </trkpt>
      <trkpt lat="42.51432" lon="-5.429296">
        <ele>840.4362694667652</ele>
        <time>2022-05-21T07:55:43Z</time>
      </trkpt>
      <trkpt lat="42.5144" lon="-5.429378">
        <ele>839.3463547769934</ele>
        <time>2022-05-21T07:55:54Z</time>
      </trkpt>
      <trkpt lat="42.514487" lon="-5.429429">
        <ele>838.5905954129994</ele>
        <time>2022-05-21T07:56:00Z</time>
      </trkpt>
      <trkpt lat="42.514581" lon="-5.429482">
        <ele>838.7568264352158</ele>
        <time>2022-05-21T07:56:09Z</time>
      </trkpt>
      <trkpt lat="42.514663" lon="-5.429556">
        <ele>838.4619391253218</ele>
        <time>2022-05-21T07:56:18Z</time>
      </trkpt>
      <trkpt lat="42.514739" lon="-5.429627">
        <ele>836.600826703012</ele>
        <time>2022-05-21T07:56:25Z</time>
      </trkpt>
      <trkpt lat="42.514815" lon="-5.429695">
        <ele>832.1096241921186</ele>
        <time>2022-05-21T07:56:33Z</time>
      </trkpt>
      <trkpt lat="42.514887" lon="-5.429774">
        <ele>829.7090742951259</ele>
        <time>2022-05-21T07:56:40Z</time>
      </trkpt>
      <trkpt lat="42.514974" lon="-5.429828">
        <ele>828.6186311692</ele>
        <time>2022-05-21T07:56:49Z</time>
      </trkpt>
      <trkpt lat="42.515058" lon="-5.42989">
        <ele>827.413067095913</ele>
        <time>2022-05-21T07:56:57Z</time>
      </trkpt>
      <trkpt lat="42.515145" lon="-5.429966">
        <ele>826.5577573487535</ele>
        <time>2022-05-21T07:57:05Z</time>
      </trkpt>
      <trkpt lat="42.515237" lon="-5.430014">
        <ele>825.8664619354531</ele>
        <time>2022-05-21T07:57:13Z</time>
      </trkpt>
      <trkpt lat="42.51532" lon="-5.430071">
        <ele>823.674555875361</ele>
        <time>2022-05-21T07:58:24Z</time>
      </trkpt>
      <trkpt lat="42.51541" lon="-5.430124">
        <ele>821.820887551643</ele>
        <time>2022-05-21T07:58:32Z</time>
      </trkpt>
      <trkpt lat="42.515498" lon="-5.430193">
        <ele>819.4548633992672</ele>
        <time>2022-05-21T07:58:39Z</time>
      </trkpt>
      <trkpt lat="42.515566" lon="-5.430272">
        <ele>816.5937093291432</ele>
        <time>2022-05-21T07:58:45Z</time>
      </trkpt>
      <trkpt lat="42.515643" lon="-5.430351">
        <ele>814.459594571963</ele>
        <time>2022-05-21T07:58:53Z</time>
      </trkpt>
      <trkpt lat="42.515727" lon="-5.430412">
        <ele>811.7039074413478</ele>
        <time>2022-05-21T07:59:00Z</time>
      </trkpt>
      <trkpt lat="42.515803" lon="-5.430481">
        <ele>810.3421211978421</ele>
        <time>2022-05-21T07:59:09Z</time>
      </trkpt>
      <trkpt lat="42.515868" lon="-5.430574">
        <ele>811.3444776618853</ele>
        <time>2022-05-21T07:59:18Z</time>
      </trkpt>
      <trkpt lat="42.51596" lon="-5.430622">
        <ele>813.3816204089671</ele>
        <time>2022-05-21T07:59:24Z</time>
      </trkpt>
      <trkpt lat="42.516044" lon="-5.43069">
        <ele>811.7129886532202</ele>
        <time>2022-05-21T07:59:32Z</time>
      </trkpt>
      <trkpt lat="42.51612" lon="-5.430761">
        <ele>811.7837128993124</ele>
        <time>2022-05-21T07:59:40Z</time>
      </trkpt>
      <trkpt lat="42.516214" lon="-5.430808">
        <ele>812.0116713279858</ele>
        <time>2022-05-21T07:59:49Z</time>
      </trkpt>
      <trkpt lat="42.51632" lon="-5.430852">
        <ele>813.6963509069756</ele>
        <time>2022-05-21T07:59:57Z</time>
      </trkpt>
      <trkpt lat="42.516423" lon="-5.430892">
        <ele>815.482617511414</ele>
        <time>2022-05-21T08:00:04Z</time>
      </trkpt>
      <trkpt lat="42.516516" lon="-5.430957">
        <ele>817.9515954786912</ele>
        <time>2022-05-21T08:00:10Z</time>
      </trkpt>
      <trkpt lat="42.516608" lon="-5.431045">
        <ele>820.9372929716483</ele>
        <time>2022-05-21T08:00:17Z</time>
      </trkpt>
      <trkpt lat="42.516689" lon="-5.431114">
        <ele>822.3515297779813</ele>
        <time>2022-05-21T08:00:24Z</time>
      </trkpt>
      <trkpt lat="42.516791" lon="-5.43118">
        <ele>822.3847733447328</ele>
        <time>2022-05-21T08:00:33Z</time>
      </trkpt>
      <trkpt lat="42.51687" lon="-5.431243">
        <ele>822.6243542935699</ele>
        <time>2022-05-21T08:00:39Z</time>
      </trkpt>
      <trkpt lat="42.516963" lon="-5.43132">
        <ele>825.6878759805113</ele>
        <time>2022-05-21T08:00:48Z</time>
      </trkpt>
      <trkpt lat="42.517054" lon="-5.431354">
        <ele>825.4041807586327</ele>
        <time>2022-05-21T08:00:56Z</time>
      </trkpt>
      <trkpt lat="42.517144" lon="-5.431399">
        <ele>828.2198224319145</ele>
        <time>2022-05-21T08:01:03Z</time>
      </trkpt>
      <trkpt lat="42.517231" lon="-5.431449">
        <ele>829.2641906077042</ele>
        <time>2022-05-21T08:01:10Z</time>
      </trkpt>
      <trkpt lat="42.517327" lon="-5.431489">
        <ele>830.1242479402572</ele>
        <time>2022-05-21T08:01:19Z</time>
      </trkpt>
      <trkpt lat="42.517419" lon="-5.431554">
        <ele>829.0446316348389</ele>
        <time>2022-05-21T08:01:27Z</time>
      </trkpt>
      <trkpt lat="42.517497" lon="-5.431625">
        <ele>828.4117589304224</ele>
        <time>2022-05-21T08:01:36Z</time>
      </trkpt>
      <trkpt lat="42.517577" lon="-5.431705">
        <ele>828.4954598164186</ele>
        <time>2022-05-21T08:01:42Z</time>
      </trkpt>
      <trkpt lat="42.517657" lon="-5.431776">
        <ele>830.0311857648194</ele>
        <time>2022-05-21T08:01:51Z</time>
      </trkpt>
      <trkpt lat="42.517755" lon="-5.431817">
        <ele>831.6640513781458</ele>
        <time>2022-05-21T08:02:01Z</time>
      </trkpt>
      <trkpt lat="42.517838" lon="-5.431866">
        <ele>834.7714348649606</ele>
        <time>2022-05-21T08:02:10Z</time>
      </trkpt>
      <trkpt lat="42.517914" lon="-5.431933">
        <ele>836.8219978148118</ele>
        <time>2022-05-21T08:02:17Z</time>
      </trkpt>
      <trkpt lat="42.518006" lon="-5.432005">
        <ele>834.6191402012482</ele>
        <time>2022-05-21T08:02:26Z</time>
      </trkpt>
      <trkpt lat="42.518088" lon="-5.432069">
        <ele>834.9097368353978</ele>
        <time>2022-05-21T08:02:34Z</time>
      </trkpt>
      <trkpt lat="42.518179" lon="-5.432128">
        <ele>833.9623902300373</ele>
        <time>2022-05-21T08:02:42Z</time>
      </trkpt>
      <trkpt lat="42.518267" lon="-5.432198">
        <ele>833.7106891879812</ele>
        <time>2022-05-21T08:02:49Z</time>
      </trkpt>
      <trkpt lat="42.518351" lon="-5.432247">
        <ele>833.5382070187479</ele>
        <time>2022-05-21T08:02:56Z</time>
      </trkpt>
      <trkpt lat="42.51844" lon="-5.432325">
        <ele>833.6872634049505</ele>
        <time>2022-05-21T08:03:05Z</time>
      </trkpt>
      <trkpt lat="42.518524" lon="-5.432377">
        <ele>831.568441268988</ele>
        <time>2022-05-21T08:03:11Z</time>
      </trkpt>
      <trkpt lat="42.518612" lon="-5.432417">
        <ele>829.9522661520168</ele>
        <time>2022-05-21T08:03:17Z</time>
      </trkpt>
      <trkpt lat="42.5187" lon="-5.432475">
        <ele>829.5322938580066</ele>
        <time>2022-05-21T08:03:26Z</time>
      </trkpt>
      <trkpt lat="42.518783" lon="-5.432551">
        <ele>829.4668425647542</ele>
        <time>2022-05-21T08:03:34Z</time>
      </trkpt>
      <trkpt lat="42.518856" lon="-5.432625">
        <ele>828.5168717764318</ele>
        <time>2022-05-21T08:03:41Z</time>
      </trkpt>
      <trkpt lat="42.518937" lon="-5.432702">
        <ele>828.6246066018939</ele>
        <time>2022-05-21T08:03:47Z</time>
      </trkpt>
      <trkpt lat="42.51903" lon="-5.432764">
        <ele>828.0880358126014</ele>
        <time>2022-05-21T08:03:55Z</time>
      </trkpt>
      <trkpt lat="42.519114" lon="-5.432821">
        <ele>826.3857622863725</ele>
        <time>2022-05-21T08:04:01Z</time>
      </trkpt>
      <trkpt lat="42.519215" lon="-5.43286">
        <ele>826.9095619544387</ele>
        <time>2022-05-21T08:04:07Z</time>
      </trkpt>
      <trkpt lat="42.519301" lon="-5.432901">
        <ele>826.4846663698554</ele>
        <time>2022-05-21T08:04:14Z</time>
      </trkpt>
      <trkpt lat="42.519389" lon="-5.432973">
        <ele>826.2978465640917</ele>
        <time>2022-05-21T08:04:20Z</time>
      </trkpt>
      <trkpt lat="42.519464" lon="-5.43305">
        <ele>825.7447669394314</ele>
        <time>2022-05-21T08:04:26Z</time>
      </trkpt>
      <trkpt lat="42.519551" lon="-5.433115">
        <ele>826.3544425629079</ele>
        <time>2022-05-21T08:04:32Z</time>
      </trkpt>
      <trkpt lat="42.519633" lon="-5.433196">
        <ele>826.8148610796779</ele>
        <time>2022-05-21T08:04:40Z</time>
      </trkpt>
      <trkpt lat="42.51972" lon="-5.433268">
        <ele>827.7976674586535</ele>
        <time>2022-05-21T08:04:47Z</time>
      </trkpt>
      <trkpt lat="42.519796" lon="-5.43334">
        <ele>827.90688636899</ele>
        <time>2022-05-21T08:04:55Z</time>
      </trkpt>
      <trkpt lat="42.519889" lon="-5.433391">
        <ele>832.0620476268232</ele>
        <time>2022-05-21T08:05:04Z</time>
      </trkpt>
      <trkpt lat="42.519972" lon="-5.433447">
        <ele>834.1866496372968</ele>
        <time>2022-05-21T08:05:14Z</time>
      </trkpt>
      <trkpt lat="42.520057" lon="-5.433498">
        <ele>832.9180359346792</ele>
        <time>2022-05-21T08:05:21Z</time>
      </trkpt>
      <trkpt lat="42.520139" lon="-5.433567">
        <ele>833.1428835391998</ele>
        <time>2022-05-21T08:05:29Z</time>
      </trkpt>
      <trkpt lat="42.520221" lon="-5.433637">
        <ele>832.816562647</ele>
        <time>2022-05-21T08:05:36Z</time>
      </trkpt>
      <trkpt lat="42.520295" lon="-5.433714">
        <ele>831.7157329283655</ele>
        <time>2022-05-21T08:05:44Z</time>
      </trkpt>
      <trkpt lat="42.520377" lon="-5.433797">
        <ele>831.3696965556592</ele>
        <time>2022-05-21T08:05:52Z</time>
      </trkpt>
      <trkpt lat="42.520404" lon="-5.433919">
        <ele>834.5591826867312</ele>
        <time>2022-05-21T08:06:02Z</time>
      </trkpt>
      <trkpt lat="42.520436" lon="-5.434034">
        <ele>837.451441234909</ele>
        <time>2022-05-21T08:06:11Z</time>
      </trkpt>
      <trkpt lat="42.520495" lon="-5.434144">
        <ele>836.186378964223</ele>
        <time>2022-05-21T08:06:19Z</time>
      </trkpt>
      <trkpt lat="42.520553" lon="-5.434245">
        <ele>835.7120162164792</ele>
        <time>2022-05-21T08:06:26Z</time>
      </trkpt>
      <trkpt lat="42.520582" lon="-5.434361">
        <ele>837.8367468323559</ele>
        <time>2022-05-21T08:06:32Z</time>
      </trkpt>
      <trkpt lat="42.520664" lon="-5.434422">
        <ele>838.2112485785037</ele>
        <time>2022-05-21T08:06:40Z</time>
      </trkpt>
      <trkpt lat="42.520767" lon="-5.434466">
        <ele>837.9788110181689</ele>
        <time>2022-05-21T08:06:47Z</time>
      </trkpt>
      <trkpt lat="42.520856" lon="-5.43444">
        <ele>838.1048238845542</ele>
        <time>2022-05-21T08:06:52Z</time>
      </trkpt>
      <trkpt lat="42.520945" lon="-5.434395">
        <ele>841.5347640430555</ele>
        <time>2022-05-21T08:07:01Z</time>
      </trkpt>
      <trkpt lat="42.521039" lon="-5.434361">
        <ele>841.142948015593</ele>
        <time>2022-05-21T08:07:11Z</time>
      </trkpt>
      <trkpt lat="42.521137" lon="-5.434321">
        <ele>841.9084053793922</ele>
        <time>2022-05-21T08:07:17Z</time>
      </trkpt>
      <trkpt lat="42.521229" lon="-5.434315">
        <ele>843.2535684872419</ele>
        <time>2022-05-21T08:07:24Z</time>
      </trkpt>
      <trkpt lat="42.521322" lon="-5.434324">
        <ele>844.0908284010366</ele>
        <time>2022-05-21T08:07:31Z</time>
      </trkpt>
      <trkpt lat="42.521408" lon="-5.434384">
        <ele>842.0612708209082</ele>
        <time>2022-05-21T08:07:40Z</time>
      </trkpt>
      <trkpt lat="42.521483" lon="-5.434461">
        <ele>839.7003404609859</ele>
        <time>2022-05-21T08:07:47Z</time>
      </trkpt>
      <trkpt lat="42.52156" lon="-5.434543">
        <ele>839.0991708021611</ele>
        <time>2022-05-21T08:07:54Z</time>
      </trkpt>
      <trkpt lat="42.521644" lon="-5.434607">
        <ele>836.9291656343266</ele>
        <time>2022-05-21T08:08:01Z</time>
      </trkpt>
      <trkpt lat="42.521726" lon="-5.434663">
        <ele>835.9577469006181</ele>
        <time>2022-05-21T08:08:07Z</time>
      </trkpt>
      <trkpt lat="42.521806" lon="-5.434742">
        <ele>833.6841732282192</ele>
        <time>2022-05-21T08:08:15Z</time>
      </trkpt>
      <trkpt lat="42.521896" lon="-5.434814">
        <ele>831.9207605244592</ele>
        <time>2022-05-21T08:08:22Z</time>
      </trkpt>
      <trkpt lat="42.52198" lon="-5.43488">
        <ele>831.4465179080144</ele>
        <time>2022-05-21T08:08:29Z</time>
      </trkpt>
      <trkpt lat="42.522064" lon="-5.434929">
        <ele>832.6888736113906</ele>
        <time>2022-05-21T08:08:37Z</time>
      </trkpt>
      <trkpt lat="42.522142" lon="-5.435006">
        <ele>830.692632894963</ele>
        <time>2022-05-21T08:08:46Z</time>
      </trkpt>
      <trkpt lat="42.52222" lon="-5.435095">
        <ele>828.6080868411809</ele>
        <time>2022-05-21T08:08:52Z</time>
      </trkpt>
      <trkpt lat="42.522307" lon="-5.435156">
        <ele>828.0095939878374</ele>
        <time>2022-05-21T08:09:01Z</time>
      </trkpt>
      <trkpt lat="42.522381" lon="-5.435228">
        <ele>827.7537279771641</ele>
        <time>2022-05-21T08:09:07Z</time>
      </trkpt>
      <trkpt lat="42.522453" lon="-5.435322">
        <ele>825.4563567107543</ele>
        <time>2022-05-21T08:09:14Z</time>
      </trkpt>
      <trkpt lat="42.522537" lon="-5.435379">
        <ele>824.5332199204713</ele>
        <time>2022-05-21T08:09:21Z</time>
      </trkpt>
      <trkpt lat="42.52262" lon="-5.435429">
        <ele>823.0956607582048</ele>
        <time>2022-05-21T08:09:29Z</time>
      </trkpt>
      <trkpt lat="42.522706" lon="-5.43548">
        <ele>824.551443210803</ele>
        <time>2022-05-21T08:09:37Z</time>
      </trkpt>
      <trkpt lat="42.522801" lon="-5.43552">
        <ele>824.2396909762174</ele>
        <time>2022-05-21T08:09:46Z</time>
      </trkpt>
      <trkpt lat="42.522881" lon="-5.435602">
        <ele>822.945380399935</ele>
        <time>2022-05-21T08:09:52Z</time>
      </trkpt>
      <trkpt lat="42.522942" lon="-5.435696">
        <ele>824.3403696892783</ele>
        <time>2022-05-21T08:10:12Z</time>
      </trkpt>
      <trkpt lat="42.523037" lon="-5.435731">
        <ele>823.9348377622664</ele>
        <time>2022-05-21T08:10:20Z</time>
      </trkpt>
      <trkpt lat="42.523121" lon="-5.435797">
        <ele>823.3955263355747</ele>
        <time>2022-05-21T08:10:30Z</time>
      </trkpt>
      <trkpt lat="42.523199" lon="-5.435865">
        <ele>822.004132068716</ele>
        <time>2022-05-21T08:10:37Z</time>
      </trkpt>
      <trkpt lat="42.523283" lon="-5.435939">
        <ele>819.74995146133</ele>
        <time>2022-05-21T08:10:42Z</time>
      </trkpt>
      <trkpt lat="42.523364" lon="-5.436007">
        <ele>816.9016765765846</ele>
        <time>2022-05-21T08:10:50Z</time>
      </trkpt>
      <trkpt lat="42.523456" lon="-5.436073">
        <ele>815.4229093408212</ele>
        <time>2022-05-21T08:10:57Z</time>
      </trkpt>
      <trkpt lat="42.523545" lon="-5.436126">
        <ele>812.3056740080938</ele>
        <time>2022-05-21T08:11:02Z</time>
      </trkpt>
      <trkpt lat="42.523624" lon="-5.436194">
        <ele>807.8238658392802</ele>
        <time>2022-05-21T08:11:10Z</time>
      </trkpt>
      <trkpt lat="42.523693" lon="-5.436276">
        <ele>804.8423286117613</ele>
        <time>2022-05-21T08:11:16Z</time>
      </trkpt>
      <trkpt lat="42.523768" lon="-5.436359">
        <ele>801.4530859617516</ele>
        <time>2022-05-21T08:11:22Z</time>
      </trkpt>
      <trkpt lat="42.523865" lon="-5.436376">
        <ele>802.3428309671581</ele>
        <time>2022-05-21T08:11:30Z</time>
      </trkpt>
      <trkpt lat="42.523963" lon="-5.43643">
        <ele>803.1584772942588</ele>
        <time>2022-05-21T08:11:37Z</time>
      </trkpt>
      <trkpt lat="42.524052" lon="-5.436488">
        <ele>802.9601072203368</ele>
        <time>2022-05-21T08:11:44Z</time>
      </trkpt>
      <trkpt lat="42.524136" lon="-5.436566">
        <ele>803.4071675278246</ele>
        <time>2022-05-21T08:11:52Z</time>
      </trkpt>
      <trkpt lat="42.5242" lon="-5.436653">
        <ele>801.7130665415898</ele>
        <time>2022-05-21T08:11:57Z</time>
      </trkpt>
      <trkpt lat="42.52429" lon="-5.436713">
        <ele>803.056269209832</ele>
        <time>2022-05-21T08:12:07Z</time>
      </trkpt>
      <trkpt lat="42.524375" lon="-5.436794">
        <ele>803.5072890361771</ele>
        <time>2022-05-21T08:12:15Z</time>
      </trkpt>
      <trkpt lat="42.524467" lon="-5.43685">
        <ele>804.9793370123953</ele>
        <time>2022-05-21T08:12:22Z</time>
      </trkpt>
      <trkpt lat="42.524548" lon="-5.436916">
        <ele>804.8516877964139</ele>
        <time>2022-05-21T08:12:29Z</time>
      </trkpt>
      <trkpt lat="42.524627" lon="-5.436999">
        <ele>805.4336028425023</ele>
        <time>2022-05-21T08:12:36Z</time>
      </trkpt>
      <trkpt lat="42.524715" lon="-5.43704">
        <ele>806.2436898062006</ele>
        <time>2022-05-21T08:12:46Z</time>
      </trkpt>
      <trkpt lat="42.524809" lon="-5.437061">
        <ele>805.4033319773152</ele>
        <time>2022-05-21T08:12:52Z</time>
      </trkpt>
      <trkpt lat="42.524894" lon="-5.437114">
        <ele>804.6802211422473</ele>
        <time>2022-05-21T08:12:59Z</time>
      </trkpt>
      <trkpt lat="42.524988" lon="-5.437175">
        <ele>804.9379489673302</ele>
        <time>2022-05-21T08:13:06Z</time>
      </trkpt>
      <trkpt lat="42.525062" lon="-5.437256">
        <ele>803.6592718688771</ele>
        <time>2022-05-21T08:13:12Z</time>
      </trkpt>
      <trkpt lat="42.525143" lon="-5.437316">
        <ele>804.0480864327401</ele>
        <time>2022-05-21T08:13:22Z</time>
      </trkpt>
      <trkpt lat="42.525239" lon="-5.43736">
        <ele>804.5221098000184</ele>
        <time>2022-05-21T08:13:31Z</time>
      </trkpt>
      <trkpt lat="42.525314" lon="-5.437431">
        <ele>805.3635421926156</ele>
        <time>2022-05-21T08:13:39Z</time>
      </trkpt>
      <trkpt lat="42.525404" lon="-5.437486">
        <ele>805.6095191892236</ele>
        <time>2022-05-21T08:13:47Z</time>
      </trkpt>
      <trkpt lat="42.525485" lon="-5.437565">
        <ele>805.6893807472661</ele>
        <time>2022-05-21T08:13:54Z</time>
      </trkpt>
      <trkpt lat="42.52557" lon="-5.437626">
        <ele>805.2641685893759</ele>
        <time>2022-05-21T08:14:01Z</time>
      </trkpt>
      <trkpt lat="42.525657" lon="-5.437679">
        <ele>807.365187106654</ele>
        <time>2022-05-21T08:14:11Z</time>
      </trkpt>
      <trkpt lat="42.525755" lon="-5.437689">
        <ele>808.9172747842968</ele>
        <time>2022-05-21T08:14:17Z</time>
      </trkpt>
      <trkpt lat="42.525839" lon="-5.437745">
        <ele>808.8385865837336</ele>
        <time>2022-05-21T08:14:24Z</time>
      </trkpt>
      <trkpt lat="42.525908" lon="-5.437835">
        <ele>809.5286299288273</ele>
        <time>2022-05-21T08:14:34Z</time>
      </trkpt>
      <trkpt lat="42.525994" lon="-5.437903">
        <ele>807.1365053486079</ele>
        <time>2022-05-21T08:14:42Z</time>
      </trkpt>
      <trkpt lat="42.526068" lon="-5.437982">
        <ele>807.1578301843256</ele>
        <time>2022-05-21T08:14:50Z</time>
      </trkpt>
      <trkpt lat="42.526159" lon="-5.43804">
        <ele>806.8632192630321</ele>
        <time>2022-05-21T08:14:56Z</time>
      </trkpt>
      <trkpt lat="42.526239" lon="-5.438105">
        <ele>804.4363452466205</ele>
        <time>2022-05-21T08:15:02Z</time>
      </trkpt>
      <trkpt lat="42.526321" lon="-5.438167">
        <ele>802.7079968536273</ele>
        <time>2022-05-21T08:15:09Z</time>
      </trkpt>
      <trkpt lat="42.5264" lon="-5.438237">
        <ele>803.9265251290053</ele>
        <time>2022-05-21T08:15:17Z</time>
      </trkpt>
      <trkpt lat="42.526476" lon="-5.438307">
        <ele>803.4323847433552</ele>
        <time>2022-05-21T08:15:25Z</time>
      </trkpt>
      <trkpt lat="42.526573" lon="-5.438342">
        <ele>805.0971774719656</ele>
        <time>2022-05-21T08:15:34Z</time>
      </trkpt>
      <trkpt lat="42.526662" lon="-5.438404">
        <ele>808.2872893828899</ele>
        <time>2022-05-21T08:15:45Z</time>
      </trkpt>
      <trkpt lat="42.526761" lon="-5.438435">
        <ele>809.9176734816283</ele>
        <time>2022-05-21T08:15:52Z</time>
      </trkpt>
      <trkpt lat="42.526854" lon="-5.438488">
        <ele>810.0592263294384</ele>
        <time>2022-05-21T08:16:00Z</time>
      </trkpt>
      <trkpt lat="42.52692" lon="-5.438577">
        <ele>808.6051282500848</ele>
        <time>2022-05-21T08:16:06Z</time>
      </trkpt>
      <trkpt lat="42.527008" lon="-5.43864">
        <ele>806.9675859352574</ele>
        <time>2022-05-21T08:16:12Z</time>
      </trkpt>
      <trkpt lat="42.527093" lon="-5.438685">
        <ele>804.7734686192125</ele>
        <time>2022-05-21T08:16:20Z</time>
      </trkpt>
      <trkpt lat="42.527177" lon="-5.438739">
        <ele>803.236773494631</ele>
        <time>2022-05-21T08:16:25Z</time>
      </trkpt>
      <trkpt lat="42.527253" lon="-5.438805">
        <ele>801.5716903107241</ele>
        <time>2022-05-21T08:16:31Z</time>
      </trkpt>
      <trkpt lat="42.52734" lon="-5.438861">
        <ele>801.7483470924199</ele>
        <time>2022-05-21T08:16:39Z</time>
      </trkpt>
      <trkpt lat="42.527421" lon="-5.438926">
        <ele>801.965233351104</ele>
        <time>2022-05-21T08:16:47Z</time>
      </trkpt>
      <trkpt lat="42.527498" lon="-5.439012">
        <ele>800.0489472122863</ele>
        <time>2022-05-21T08:16:55Z</time>
      </trkpt>
      <trkpt lat="42.52758" lon="-5.439068">
        <ele>800.5880384640768</ele>
        <time>2022-05-21T08:17:01Z</time>
      </trkpt>
      <trkpt lat="42.527677" lon="-5.439082">
        <ele>802.5458165574819</ele>
        <time>2022-05-21T08:17:10Z</time>
      </trkpt>
      <trkpt lat="42.527764" lon="-5.439142">
        <ele>802.1910645570606</ele>
        <time>2022-05-21T08:17:17Z</time>
      </trkpt>
      <trkpt lat="42.527846" lon="-5.43921">
        <ele>801.5566128659993</ele>
        <time>2022-05-21T08:17:24Z</time>
      </trkpt>
      <trkpt lat="42.52793" lon="-5.439289">
        <ele>803.1151845864952</ele>
        <time>2022-05-21T08:17:32Z</time>
      </trkpt>
      <trkpt lat="42.528014" lon="-5.439354">
        <ele>803.3551609683782</ele>
        <time>2022-05-21T08:17:40Z</time>
      </trkpt>
      <trkpt lat="42.528093" lon="-5.439432">
        <ele>802.6211184961721</ele>
        <time>2022-05-21T08:17:47Z</time>
      </trkpt>
      <trkpt lat="42.528186" lon="-5.439457">
        <ele>803.3929140390828</ele>
        <time>2022-05-21T08:17:57Z</time>
      </trkpt>
      <trkpt lat="42.528265" lon="-5.439523">
        <ele>802.8003058796749</ele>
        <time>2022-05-21T08:18:05Z</time>
      </trkpt>
      <trkpt lat="42.528338" lon="-5.4396">
        <ele>801.4667304353788</ele>
        <time>2022-05-21T08:18:11Z</time>
      </trkpt>
      <trkpt lat="42.528419" lon="-5.439667">
        <ele>804.8917210632935</ele>
        <time>2022-05-21T08:18:20Z</time>
      </trkpt>
      <trkpt lat="42.528511" lon="-5.439715">
        <ele>804.0145732946694</ele>
        <time>2022-05-21T08:18:27Z</time>
      </trkpt>
      <trkpt lat="42.5286" lon="-5.439758">
        <ele>804.4641659678891</ele>
        <time>2022-05-21T08:18:37Z</time>
      </trkpt>
      <trkpt lat="42.528683" lon="-5.439811">
        <ele>805.0448713172227</ele>
        <time>2022-05-21T08:18:44Z</time>
      </trkpt>
      <trkpt lat="42.528756" lon="-5.439891">
        <ele>804.1300627766177</ele>
        <time>2022-05-21T08:18:52Z</time>
      </trkpt>
      <trkpt lat="42.528838" lon="-5.439942">
        <ele>801.9973196052015</ele>
        <time>2022-05-21T08:18:57Z</time>
      </trkpt>
      <trkpt lat="42.528925" lon="-5.439999">
        <ele>799.441248992458</ele>
        <time>2022-05-21T08:19:04Z</time>
      </trkpt>
      <trkpt lat="42.529009" lon="-5.440082">
        <ele>798.2856883360073</ele>
        <time>2022-05-21T08:19:12Z</time>
      </trkpt>
      <trkpt lat="42.529082" lon="-5.44018">
        <ele>798.2440129918978</ele>
        <time>2022-05-21T08:19:20Z</time>
      </trkpt>
      <trkpt lat="42.529175" lon="-5.440226">
        <ele>801.4889009036124</ele>
        <time>2022-05-21T08:19:29Z</time>
      </trkpt>
      <trkpt lat="42.529259" lon="-5.440303">
        <ele>800.732997613959</ele>
        <time>2022-05-21T08:19:36Z</time>
      </trkpt>
      <trkpt lat="42.529351" lon="-5.440345">
        <ele>802.8856872804463</ele>
        <time>2022-05-21T08:19:42Z</time>
      </trkpt>
      <trkpt lat="42.529437" lon="-5.440392">
        <ele>804.3877801243216</ele>
        <time>2022-05-21T08:19:52Z</time>
      </trkpt>
      <trkpt lat="42.529519" lon="-5.440448">
        <ele>802.9006955614313</ele>
        <time>2022-05-21T08:20:00Z</time>
      </trkpt>
      <trkpt lat="42.5296" lon="-5.44052">
        <ele>802.8766701882705</ele>
        <time>2022-05-21T08:20:09Z</time>
      </trkpt>
      <trkpt lat="42.529677" lon="-5.440586">
        <ele>801.6004306031391</ele>
        <time>2022-05-21T08:20:16Z</time>
      </trkpt>
      <trkpt lat="42.52977" lon="-5.440635">
        <ele>800.8219746910036</ele>
        <time>2022-05-21T08:20:24Z</time>
      </trkpt>
      <trkpt lat="42.529847" lon="-5.440704">
        <ele>801.3578420933336</ele>
        <time>2022-05-21T08:20:32Z</time>
      </trkpt>
      <trkpt lat="42.52993" lon="-5.440753">
        <ele>800.9327586144209</ele>
        <time>2022-05-21T08:20:39Z</time>
      </trkpt>
      <trkpt lat="42.530018" lon="-5.440821">
        <ele>801.5735634276643</ele>
        <time>2022-05-21T08:20:47Z</time>
      </trkpt>
      <trkpt lat="42.530102" lon="-5.440881">
        <ele>801.2328864717856</ele>
        <time>2022-05-21T08:20:55Z</time>
      </trkpt>
      <trkpt lat="42.530188" lon="-5.440939">
        <ele>801.8273038715124</ele>
        <time>2022-05-21T08:21:02Z</time>
      </trkpt>
      <trkpt lat="42.530281" lon="-5.440988">
        <ele>800.4991244049743</ele>
        <time>2022-05-21T08:21:09Z</time>
      </trkpt>
      <trkpt lat="42.530369" lon="-5.441038">
        <ele>798.2012524567544</ele>
        <time>2022-05-21T08:21:16Z</time>
      </trkpt>
      <trkpt lat="42.530456" lon="-5.441098">
        <ele>796.8246475309134</ele>
        <time>2022-05-21T08:21:22Z</time>
      </trkpt>
      <trkpt lat="42.530532" lon="-5.441177">
        <ele>796.5801779814065</ele>
        <time>2022-05-21T08:21:31Z</time>
      </trkpt>
      <trkpt lat="42.530616" lon="-5.441243">
        <ele>796.3162311706692</ele>
        <time>2022-05-21T08:21:39Z</time>
      </trkpt>
      <trkpt lat="42.530705" lon="-5.44128">
        <ele>795.9202920980752</ele>
        <time>2022-05-21T08:21:47Z</time>
      </trkpt>
      <trkpt lat="42.530796" lon="-5.441333">
        <ele>794.7277244068682</ele>
        <time>2022-05-21T08:21:55Z</time>
      </trkpt>
      <trkpt lat="42.530884" lon="-5.441375">
        <ele>794.2812823634595</ele>
        <time>2022-05-21T08:22:02Z</time>
      </trkpt>
      <trkpt lat="42.530957" lon="-5.441455">
        <ele>794.1958712041378</ele>
        <time>2022-05-21T08:22:09Z</time>
      </trkpt>
      <trkpt lat="42.531041" lon="-5.441504">
        <ele>794.5433135591447</ele>
        <time>2022-05-21T08:22:17Z</time>
      </trkpt>
      <trkpt lat="42.531133" lon="-5.441541">
        <ele>794.3732326673344</ele>
        <time>2022-05-21T08:22:25Z</time>
      </trkpt>
      <trkpt lat="42.531221" lon="-5.441588">
        <ele>793.3040494387969</ele>
        <time>2022-05-21T08:22:32Z</time>
      </trkpt>
      <trkpt lat="42.531316" lon="-5.441625">
        <ele>793.0285597117618</ele>
        <time>2022-05-21T08:22:41Z</time>
      </trkpt>
      <trkpt lat="42.531388" lon="-5.441702">
        <ele>794.4520418224856</ele>
        <time>2022-05-21T08:22:51Z</time>
      </trkpt>
      <trkpt lat="42.531455" lon="-5.441796">
        <ele>793.8643716527149</ele>
        <time>2022-05-21T08:22:57Z</time>
      </trkpt>
      <trkpt lat="42.531544" lon="-5.441816">
        <ele>794.8564910227433</ele>
        <time>2022-05-21T08:23:06Z</time>
      </trkpt>
      <trkpt lat="42.531614" lon="-5.441906">
        <ele>797.60610349942</ele>
        <time>2022-05-21T08:23:16Z</time>
      </trkpt>
      <trkpt lat="42.531706" lon="-5.44195">
        <ele>797.1237881612033</ele>
        <time>2022-05-21T08:23:46Z</time>
      </trkpt>
      <trkpt lat="42.53179" lon="-5.442022">
        <ele>798.1968827387318</ele>
        <time>2022-05-21T08:23:54Z</time>
      </trkpt>
      <trkpt lat="42.531856" lon="-5.442111">
        <ele>798.9240493625402</ele>
        <time>2022-05-21T08:24:02Z</time>
      </trkpt>
      <trkpt lat="42.531952" lon="-5.442161">
        <ele>799.4431808162481</ele>
        <time>2022-05-21T08:24:09Z</time>
      </trkpt>
      <trkpt lat="42.532043" lon="-5.442227">
        <ele>800.4520470164716</ele>
        <time>2022-05-21T08:24:16Z</time>
      </trkpt>
      <trkpt lat="42.532124" lon="-5.442289">
        <ele>800.9362560017034</ele>
        <time>2022-05-21T08:24:22Z</time>
      </trkpt>
      <trkpt lat="42.532196" lon="-5.442365">
        <ele>803.1972719551995</ele>
        <time>2022-05-21T08:24:29Z</time>
      </trkpt>
      <trkpt lat="42.532288" lon="-5.442408">
        <ele>803.6595686720684</ele>
        <time>2022-05-21T08:24:42Z</time>
      </trkpt>
      <trkpt lat="42.532358" lon="-5.442489">
        <ele>806.3087716838345</ele>
        <time>2022-05-21T08:24:55Z</time>
      </trkpt>
      <trkpt lat="42.532445" lon="-5.442527">
        <ele>807.9231343818828</ele>
        <time>2022-05-21T08:25:01Z</time>
      </trkpt>
      <trkpt lat="42.532533" lon="-5.442582">
        <ele>810.527858919464</ele>
        <time>2022-05-21T08:25:10Z</time>
      </trkpt>
      <trkpt lat="42.532617" lon="-5.442666">
        <ele>808.6316368980333</ele>
        <time>2022-05-21T08:25:17Z</time>
      </trkpt>
      <trkpt lat="42.532701" lon="-5.442746">
        <ele>808.6860033785924</ele>
        <time>2022-05-21T08:25:25Z</time>
      </trkpt>
      <trkpt lat="42.532786" lon="-5.442795">
        <ele>810.6400580890477</ele>
        <time>2022-05-21T08:25:32Z</time>
      </trkpt>
      <trkpt lat="42.53288" lon="-5.442847">
        <ele>810.6146983904764</ele>
        <time>2022-05-21T08:25:40Z</time>
      </trkpt>
      <trkpt lat="42.532966" lon="-5.442905">
        <ele>810.6951500941068</ele>
        <time>2022-05-21T08:25:46Z</time>
      </trkpt>
      <trkpt lat="42.533052" lon="-5.442969">
        <ele>811.2904368098825</ele>
        <time>2022-05-21T08:25:54Z</time>
      </trkpt>
      <trkpt lat="42.533141" lon="-5.443033">
        <ele>811.7923690993339</ele>
        <time>2022-05-21T08:26:02Z</time>
      </trkpt>
      <trkpt lat="42.533229" lon="-5.4431">
        <ele>812.3483808431774</ele>
        <time>2022-05-21T08:26:11Z</time>
      </trkpt>
      <trkpt lat="42.533321" lon="-5.443157">
        <ele>811.3860292518511</ele>
        <time>2022-05-21T08:26:19Z</time>
      </trkpt>
      <trkpt lat="42.533406" lon="-5.443222">
        <ele>810.4398027583957</ele>
        <time>2022-05-21T08:26:27Z</time>
      </trkpt>
      <trkpt lat="42.533489" lon="-5.443272">
        <ele>809.8709787465632</ele>
        <time>2022-05-21T08:26:34Z</time>
      </trkpt>
      <trkpt lat="42.533566" lon="-5.44336">
        <ele>811.5633999416605</ele>
        <time>2022-05-21T08:26:42Z</time>
      </trkpt>
      <trkpt lat="42.533653" lon="-5.44341">
        <ele>812.5681148599833</ele>
        <time>2022-05-21T08:26:49Z</time>
      </trkpt>
      <trkpt lat="42.533731" lon="-5.443495">
        <ele>813.7942147022113</ele>
        <time>2022-05-21T08:26:56Z</time>
      </trkpt>
      <trkpt lat="42.533813" lon="-5.443564">
        <ele>815.4726032111794</ele>
        <time>2022-05-21T08:27:04Z</time>
      </trkpt>
      <trkpt lat="42.533903" lon="-5.443617">
        <ele>816.2996759461239</ele>
        <time>2022-05-21T08:27:12Z</time>
      </trkpt>
      <trkpt lat="42.533983" lon="-5.443687">
        <ele>815.6001600055024</ele>
        <time>2022-05-21T08:27:19Z</time>
      </trkpt>
      <trkpt lat="42.53408" lon="-5.443727">
        <ele>817.7313404520974</ele>
        <time>2022-05-21T08:27:27Z</time>
      </trkpt>
      <trkpt lat="42.53417" lon="-5.443784">
        <ele>819.416964312084</ele>
        <time>2022-05-21T08:27:41Z</time>
      </trkpt>
      <trkpt lat="42.534261" lon="-5.443821">
        <ele>823.4159877346829</ele>
        <time>2022-05-21T08:27:50Z</time>
      </trkpt>
      <trkpt lat="42.53434" lon="-5.443883">
        <ele>824.8739514658228</ele>
        <time>2022-05-21T08:27:57Z</time>
      </trkpt>
      <trkpt lat="42.534425" lon="-5.443952">
        <ele>827.2071993509308</ele>
        <time>2022-05-21T08:28:07Z</time>
      </trkpt>
      <trkpt lat="42.53451" lon="-5.443996">
        <ele>829.8244711812586</ele>
        <time>2022-05-21T08:28:15Z</time>
      </trkpt>
      <trkpt lat="42.534599" lon="-5.444044">
        <ele>831.6970665575936</ele>
        <time>2022-05-21T08:28:22Z</time>
      </trkpt>
      <trkpt lat="42.534697" lon="-5.44409">
        <ele>832.31184920948</ele>
        <time>2022-05-21T08:28:30Z</time>
      </trkpt>
      <trkpt lat="42.534776" lon="-5.44415">
        <ele>834.2880834611133</ele>
        <time>2022-05-21T08:28:37Z</time>
      </trkpt>
      <trkpt lat="42.534863" lon="-5.444195">
        <ele>834.9160819230601</ele>
        <time>2022-05-21T08:28:45Z</time>
      </trkpt>
      <trkpt lat="42.534954" lon="-5.44424">
        <ele>837.02477780357</ele>
        <time>2022-05-21T08:28:52Z</time>
      </trkpt>
      <trkpt lat="42.53503" lon="-5.444332">
        <ele>837.2221504850313</ele>
        <time>2022-05-21T08:28:59Z</time>
      </trkpt>
      <trkpt lat="42.535111" lon="-5.444392">
        <ele>839.8053167071193</ele>
        <time>2022-05-21T08:29:06Z</time>
      </trkpt>
      <trkpt lat="42.535191" lon="-5.444455">
        <ele>840.8449174584821</ele>
        <time>2022-05-21T08:29:12Z</time>
      </trkpt>
      <trkpt lat="42.535277" lon="-5.444517">
        <ele>840.3396682115272</ele>
        <time>2022-05-21T08:29:20Z</time>
      </trkpt>
      <trkpt lat="42.535368" lon="-5.444583">
        <ele>840.13060573861</ele>
        <time>2022-05-21T08:29:27Z</time>
      </trkpt>
      <trkpt lat="42.535451" lon="-5.444658">
        <ele>839.9959016581997</ele>
        <time>2022-05-21T08:29:37Z</time>
      </trkpt>
      <trkpt lat="42.535542" lon="-5.444718">
        <ele>837.881215903908</ele>
        <time>2022-05-21T08:29:44Z</time>
      </trkpt>
      <trkpt lat="42.535621" lon="-5.444784">
        <ele>839.5314649557695</ele>
        <time>2022-05-21T08:29:52Z</time>
      </trkpt>
      <trkpt lat="42.535703" lon="-5.444836">
        <ele>839.2995603829622</ele>
        <time>2022-05-21T08:29:59Z</time>
      </trkpt>
      <trkpt lat="42.535796" lon="-5.444882">
        <ele>840.7872420391068</ele>
        <time>2022-05-21T08:30:07Z</time>
      </trkpt>
      <trkpt lat="42.53588" lon="-5.444946">
        <ele>843.6975118871778</ele>
        <time>2022-05-21T08:30:16Z</time>
      </trkpt>
      <trkpt lat="42.535949" lon="-5.445028">
        <ele>845.376256740652</ele>
        <time>2022-05-21T08:30:26Z</time>
      </trkpt>
      <trkpt lat="42.536033" lon="-5.445099">
        <ele>844.3531919280067</ele>
        <time>2022-05-21T08:30:35Z</time>
      </trkpt>
      <trkpt lat="42.536123" lon="-5.445144">
        <ele>845.8111794190481</ele>
        <time>2022-05-21T08:30:44Z</time>
      </trkpt>
      <trkpt lat="42.536215" lon="-5.445195">
        <ele>846.3956852210686</ele>
        <time>2022-05-21T08:30:52Z</time>
      </trkpt>
      <trkpt lat="42.536302" lon="-5.445245">
        <ele>846.8796537285671</ele>
        <time>2022-05-21T08:31:00Z</time>
      </trkpt>
      <trkpt lat="42.5364" lon="-5.445289">
        <ele>847.267150875181</ele>
        <time>2022-05-21T08:31:06Z</time>
      </trkpt>
      <trkpt lat="42.536479" lon="-5.445349">
        <ele>847.8010062323883</ele>
        <time>2022-05-21T08:31:14Z</time>
      </trkpt>
      <trkpt lat="42.536577" lon="-5.445376">
        <ele>849.3086541797966</ele>
        <time>2022-05-21T08:31:21Z</time>
      </trkpt>
      <trkpt lat="42.536664" lon="-5.445413">
        <ele>850.8393703848124</ele>
        <time>2022-05-21T08:31:27Z</time>
      </trkpt>
      <trkpt lat="42.536754" lon="-5.445462">
        <ele>851.2477519558743</ele>
        <time>2022-05-21T08:31:32Z</time>
      </trkpt>
      <trkpt lat="42.536835" lon="-5.445515">
        <ele>851.6040158616379</ele>
        <time>2022-05-21T08:31:37Z</time>
      </trkpt>
      <trkpt lat="42.536925" lon="-5.445571">
        <ele>852.7344192266464</ele>
        <time>2022-05-21T08:31:42Z</time>
      </trkpt>
      <trkpt lat="42.53702" lon="-5.445641">
        <ele>853.0259521054104</ele>
        <time>2022-05-21T08:31:54Z</time>
      </trkpt>
      <trkpt lat="42.537108" lon="-5.445701">
        <ele>852.5881748124957</ele>
        <time>2022-05-21T08:32:00Z</time>
      </trkpt>
      <trkpt lat="42.537188" lon="-5.445763">
        <ele>849.6773726735264</ele>
        <time>2022-05-21T08:32:06Z</time>
      </trkpt>
      <trkpt lat="42.537271" lon="-5.44582">
        <ele>852.4434020314366</ele>
        <time>2022-05-21T08:32:12Z</time>
      </trkpt>
      <trkpt lat="42.53737" lon="-5.445849">
        <ele>851.1056371703744</ele>
        <time>2022-05-21T08:32:22Z</time>
      </trkpt>
      <trkpt lat="42.537454" lon="-5.445905">
        <ele>849.031910084188</ele>
        <time>2022-05-21T08:32:27Z</time>
      </trkpt>
      <trkpt lat="42.537531" lon="-5.445995">
        <ele>850.966508266516</ele>
        <time>2022-05-21T08:32:47Z</time>
      </trkpt>
      <trkpt lat="42.537617" lon="-5.446047">
        <ele>849.5896752141416</ele>
        <time>2022-05-21T08:32:56Z</time>
      </trkpt>
      <trkpt lat="42.537692" lon="-5.446124">
        <ele>848.5122657129541</ele>
        <time>2022-05-21T08:33:04Z</time>
      </trkpt>
      <trkpt lat="42.537762" lon="-5.44621">
        <ele>846.4104897584766</ele>
        <time>2022-05-21T08:33:11Z</time>
      </trkpt>
      <trkpt lat="42.537842" lon="-5.446273">
        <ele>845.0165141513571</ele>
        <time>2022-05-21T08:33:26Z</time>
      </trkpt>
      <trkpt lat="42.537906" lon="-5.446379">
        <ele>841.339535843581</ele>
        <time>2022-05-21T08:33:45Z</time>
      </trkpt>
      <trkpt lat="42.537992" lon="-5.446443">
        <ele>836.1113380910829</ele>
        <time>2022-05-21T08:33:55Z</time>
      </trkpt>
      <trkpt lat="42.538068" lon="-5.44652">
        <ele>831.2649385537952</ele>
        <time>2022-05-21T08:34:02Z</time>
      </trkpt>
      <trkpt lat="42.538151" lon="-5.446581">
        <ele>828.7262721229345</ele>
        <time>2022-05-21T08:34:10Z</time>
      </trkpt>
      <trkpt lat="42.538216" lon="-5.446672">
        <ele>825.9181021032855</ele>
        <time>2022-05-21T08:34:16Z</time>
      </trkpt>
      <trkpt lat="42.538295" lon="-5.446736">
        <ele>822.171208997257</ele>
        <time>2022-05-21T08:34:22Z</time>
      </trkpt>
      <trkpt lat="42.538373" lon="-5.446815">
        <ele>819.9606074485928</ele>
        <time>2022-05-21T08:34:31Z</time>
      </trkpt>
      <trkpt lat="42.538457" lon="-5.44689">
        <ele>817.5981140276417</ele>
        <time>2022-05-21T08:34:37Z</time>
      </trkpt>
      <trkpt lat="42.538544" lon="-5.446942">
        <ele>814.8649765746668</ele>
        <time>2022-05-21T08:34:47Z</time>
      </trkpt>
      <trkpt lat="42.538621" lon="-5.447005">
        <ele>811.8901284839958</ele>
        <time>2022-05-21T08:35:12Z</time>
      </trkpt>
      <trkpt lat="42.538711" lon="-5.447067">
        <ele>810.5736334621906</ele>
        <time>2022-05-21T08:35:19Z</time>
      </trkpt>
      <trkpt lat="42.538786" lon="-5.447136">
        <ele>808.9889382468536</ele>
        <time>2022-05-21T08:35:25Z</time>
      </trkpt>
      <trkpt lat="42.538872" lon="-5.447191">
        <ele>807.5003404747695</ele>
        <time>2022-05-21T08:35:31Z</time>
      </trkpt>
      <trkpt lat="42.538948" lon="-5.447258">
        <ele>805.7278510928154</ele>
        <time>2022-05-21T08:35:37Z</time>
      </trkpt>
      <trkpt lat="42.539042" lon="-5.447319">
        <ele>804.6933933114633</ele>
        <time>2022-05-21T08:35:44Z</time>
      </trkpt>
      <trkpt lat="42.539125" lon="-5.447372">
        <ele>803.9206241201609</ele>
        <time>2022-05-21T08:35:52Z</time>
      </trkpt>
      <trkpt lat="42.539209" lon="-5.447437">
        <ele>804.2926210351288</ele>
        <time>2022-05-21T08:36:01Z</time>
      </trkpt>
      <trkpt lat="42.539292" lon="-5.44751">
        <ele>803.6482822718099</ele>
        <time>2022-05-21T08:36:10Z</time>
      </trkpt>
      <trkpt lat="42.539385" lon="-5.447556">
        <ele>804.4425062322989</ele>
        <time>2022-05-21T08:36:17Z</time>
      </trkpt>
      <trkpt lat="42.539464" lon="-5.447624">
        <ele>803.5143952528015</ele>
        <time>2022-05-21T08:36:25Z</time>
      </trkpt>
      <trkpt lat="42.539539" lon="-5.447694">
        <ele>804.3770776679739</ele>
        <time>2022-05-21T08:36:30Z</time>
      </trkpt>
      <trkpt lat="42.539627" lon="-5.447763">
        <ele>805.1110563203692</ele>
        <time>2022-05-21T08:36:37Z</time>
      </trkpt>
      <trkpt lat="42.539715" lon="-5.447814">
        <ele>806.7084301477298</ele>
        <time>2022-05-21T08:37:51Z</time>
      </trkpt>
      <trkpt lat="42.539806" lon="-5.447867">
        <ele>807.7076715379953</ele>
        <time>2022-05-21T08:37:59Z</time>
      </trkpt>
      <trkpt lat="42.539884" lon="-5.447962">
        <ele>807.8000202579424</ele>
        <time>2022-05-21T08:38:05Z</time>
      </trkpt>
      <trkpt lat="42.539971" lon="-5.448023">
        <ele>808.0204227035865</ele>
        <time>2022-05-21T08:38:11Z</time>
      </trkpt>
      <trkpt lat="42.540059" lon="-5.448087">
        <ele>808.1122625302523</ele>
        <time>2022-05-21T08:38:19Z</time>
      </trkpt>
      <trkpt lat="42.540131" lon="-5.448164">
        <ele>806.735241391696</ele>
        <time>2022-05-21T08:38:27Z</time>
      </trkpt>
      <trkpt lat="42.540209" lon="-5.44823">
        <ele>806.9098186744377</ele>
        <time>2022-05-21T08:38:34Z</time>
      </trkpt>
      <trkpt lat="42.5403" lon="-5.448259">
        <ele>808.8837296543643</ele>
        <time>2022-05-21T08:38:44Z</time>
      </trkpt>
      <trkpt lat="42.540389" lon="-5.448282">
        <ele>813.0121269263327</ele>
        <time>2022-05-21T08:38:54Z</time>
      </trkpt>
      <trkpt lat="42.540481" lon="-5.448326">
        <ele>810.7177527491003</ele>
        <time>2022-05-21T08:39:11Z</time>
      </trkpt>
      <trkpt lat="42.540561" lon="-5.448396">
        <ele>811.4807560723275</ele>
        <time>2022-05-21T08:39:22Z</time>
      </trkpt>
      <trkpt lat="42.540638" lon="-5.448467">
        <ele>811.2463635597378</ele>
        <time>2022-05-21T08:39:31Z</time>
      </trkpt>
      <trkpt lat="42.540727" lon="-5.448538">
        <ele>809.4350939281285</ele>
        <time>2022-05-21T08:39:40Z</time>
      </trkpt>
      <trkpt lat="42.540816" lon="-5.44858">
        <ele>807.8702049031854</ele>
        <time>2022-05-21T08:39:47Z</time>
      </trkpt>
      <trkpt lat="42.540894" lon="-5.448653">
        <ele>805.833867254667</ele>
        <time>2022-05-21T08:40:02Z</time>
      </trkpt>
      <trkpt lat="42.540974" lon="-5.448714">
        <ele>804.4736575540155</ele>
        <time>2022-05-21T08:40:12Z</time>
      </trkpt>
      <trkpt lat="42.541055" lon="-5.448775">
        <ele>803.6690459102392</ele>
        <time>2022-05-21T08:40:21Z</time>
      </trkpt>
      <trkpt lat="42.541143" lon="-5.448849">
        <ele>803.2715886384249</ele>
        <time>2022-05-21T08:40:30Z</time>
      </trkpt>
      <trkpt lat="42.541232" lon="-5.448905">
        <ele>802.2914795149118</ele>
        <time>2022-05-21T08:40:41Z</time>
      </trkpt>
      <trkpt lat="42.541322" lon="-5.44894">
        <ele>802.2901009749621</ele>
        <time>2022-05-21T08:41:22Z</time>
      </trkpt>
      <trkpt lat="42.54142" lon="-5.448987">
        <ele>803.2303938679397</ele>
        <time>2022-05-21T08:41:37Z</time>
      </trkpt>
      <trkpt lat="42.541499" lon="-5.449048">
        <ele>802.5909256422892</ele>
        <time>2022-05-21T08:41:45Z</time>
      </trkpt>
      <trkpt lat="42.541588" lon="-5.449114">
        <ele>803.2873715041205</ele>
        <time>2022-05-21T08:41:55Z</time>
      </trkpt>
      <trkpt lat="42.54168" lon="-5.44916">
        <ele>806.94694325421</ele>
        <time>2022-05-21T08:42:02Z</time>
      </trkpt>
      <trkpt lat="42.54175" lon="-5.449247">
        <ele>807.9402363160625</ele>
        <time>2022-05-21T08:42:12Z</time>
      </trkpt>
      <trkpt lat="42.541838" lon="-5.449311">
        <ele>809.5370447840542</ele>
        <time>2022-05-21T08:42:22Z</time>
      </trkpt>
      <trkpt lat="42.541923" lon="-5.449356">
        <ele>810.1591973835602</ele>
        <time>2022-05-21T08:42:27Z</time>
      </trkpt>
      <trkpt lat="42.541997" lon="-5.449439">
        <ele>809.9575405837968</ele>
        <time>2022-05-21T08:42:34Z</time>
      </trkpt>
      <trkpt lat="42.54207" lon="-5.449525">
        <ele>811.0169761897996</ele>
        <time>2022-05-21T08:42:41Z</time>
      </trkpt>
      <trkpt lat="42.542146" lon="-5.4496">
        <ele>810.3113184748217</ele>
        <time>2022-05-21T08:42:49Z</time>
      </trkpt>
      <trkpt lat="42.542218" lon="-5.449679">
        <ele>807.3178723230958</ele>
        <time>2022-05-21T08:43:07Z</time>
      </trkpt>
      <trkpt lat="42.542308" lon="-5.449698">
        <ele>810.2504696743563</ele>
        <time>2022-05-21T08:43:22Z</time>
      </trkpt>
      <trkpt lat="42.542386" lon="-5.449762">
        <ele>809.3805747414008</ele>
        <time>2022-05-21T08:43:27Z</time>
      </trkpt>
      <trkpt lat="42.542439" lon="-5.449878">
        <ele>808.0081061376259</ele>
        <time>2022-05-21T08:43:37Z</time>
      </trkpt>
      <trkpt lat="42.542503" lon="-5.449974">
        <ele>808.0061820968986</ele>
        <time>2022-05-21T08:43:46Z</time>
      </trkpt>
      <trkpt lat="42.542576" lon="-5.450045">
        <ele>809.3283293936402</ele>
        <time>2022-05-21T08:43:55Z</time>
      </trkpt>
      <trkpt lat="42.542654" lon="-5.450112">
        <ele>811.2723343027756</ele>
        <time>2022-05-21T08:44:06Z</time>
      </trkpt>
      <trkpt lat="42.542734" lon="-5.450181">
        <ele>812.7048938712105</ele>
        <time>2022-05-21T08:44:14Z</time>
      </trkpt>
      <trkpt lat="42.542821" lon="-5.45025">
        <ele>812.5684051504359</ele>
        <time>2022-05-21T08:44:26Z</time>
      </trkpt>
      <trkpt lat="42.542864" lon="-5.450372">
        <ele>809.2466330360621</ele>
        <time>2022-05-21T08:45:21Z</time>
      </trkpt>
      <trkpt lat="42.542935" lon="-5.450455">
        <ele>807.9498407561332</ele>
        <time>2022-05-21T08:45:29Z</time>
      </trkpt>
      <trkpt lat="42.542964" lon="-5.450579">
        <ele>808.6531751602888</ele>
        <time>2022-05-21T08:45:39Z</time>
      </trkpt>
      <trkpt lat="42.542905" lon="-5.450684">
        <ele>809.6253327457234</ele>
        <time>2022-05-21T08:45:49Z</time>
      </trkpt>
      <trkpt lat="42.542937" lon="-5.450807">
        <ele>811.5131262009963</ele>
        <time>2022-05-21T08:46:02Z</time>
      </trkpt>
      <trkpt lat="42.542892" lon="-5.450927">
        <ele>814.0833238177001</ele>
        <time>2022-05-21T08:46:07Z</time>
      </trkpt>
      <trkpt lat="42.542859" lon="-5.45105">
        <ele>817.3720719739795</ele>
        <time>2022-05-21T08:46:39Z</time>
      </trkpt>
      <trkpt lat="42.542945" lon="-5.451128">
        <ele>818.2060843557119</ele>
        <time>2022-05-21T08:46:46Z</time>
      </trkpt>
      <trkpt lat="42.54301" lon="-5.451219">
        <ele>816.2669656705111</ele>
        <time>2022-05-21T08:46:51Z</time>
      </trkpt>
      <trkpt lat="42.54308" lon="-5.451303">
        <ele>812.9341713991016</ele>
        <time>2022-05-21T08:46:57Z</time>
      </trkpt>
      <trkpt lat="42.543165" lon="-5.451375">
        <ele>811.7464911546558</ele>
        <time>2022-05-21T08:47:05Z</time>
      </trkpt>
      <trkpt lat="42.543204" lon="-5.451487">
        <ele>805.4846512954682</ele>
        <time>2022-05-21T08:47:49Z</time>
      </trkpt>
      <trkpt lat="42.543211" lon="-5.451612">
        <ele>806.3282716330141</ele>
        <time>2022-05-21T08:49:07Z</time>
      </trkpt>
      <trkpt lat="42.543266" lon="-5.451725">
        <ele>804.993252729997</ele>
        <time>2022-05-21T08:49:15Z</time>
      </trkpt>
      <trkpt lat="42.543347" lon="-5.451802">
        <ele>804.783579566516</ele>
        <time>2022-05-21T08:49:22Z</time>
      </trkpt>
      <trkpt lat="42.543415" lon="-5.451883">
        <ele>804.2803279422224</ele>
        <time>2022-05-21T08:49:30Z</time>
      </trkpt>
      <trkpt lat="42.543466" lon="-5.451986">
        <ele>802.0616737259552</ele>
        <time>2022-05-21T08:49:37Z</time>
      </trkpt>
      <trkpt lat="42.543534" lon="-5.452067">
        <ele>802.1213451670483</ele>
        <time>2022-05-21T08:49:44Z</time>
      </trkpt>
      <trkpt lat="42.543599" lon="-5.452156">
        <ele>800.7366666728631</ele>
        <time>2022-05-21T08:49:52Z</time>
      </trkpt>
      <trkpt lat="42.543638" lon="-5.452266">
        <ele>800.5670627700165</ele>
        <time>2022-05-21T08:49:59Z</time>
      </trkpt>
      <trkpt lat="42.543652" lon="-5.452399">
        <ele>800.6520250067115</ele>
        <time>2022-05-21T08:50:07Z</time>
      </trkpt>
      <trkpt lat="42.543661" lon="-5.452538">
        <ele>799.8922065980732</ele>
        <time>2022-05-21T08:50:15Z</time>
      </trkpt>
      <trkpt lat="42.543668" lon="-5.45266">
        <ele>799.9495677417144</ele>
        <time>2022-05-21T08:50:21Z</time>
      </trkpt>
      <trkpt lat="42.543678" lon="-5.452781">
        <ele>800.0091865016147</ele>
        <time>2022-05-21T08:50:31Z</time>
      </trkpt>
      <trkpt lat="42.543687" lon="-5.452914">
        <ele>800.4649173021317</ele>
        <time>2022-05-21T08:50:39Z</time>
      </trkpt>
      <trkpt lat="42.543693" lon="-5.453041">
        <ele>798.9124783650041</ele>
        <time>2022-05-21T08:50:46Z</time>
      </trkpt>
      <trkpt lat="42.543753" lon="-5.453159">
        <ele>798.1976034063846</ele>
        <time>2022-05-21T08:50:52Z</time>
      </trkpt>
      <trkpt lat="42.543821" lon="-5.453249">
        <ele>797.9797112373635</ele>
        <time>2022-05-21T08:51:00Z</time>
      </trkpt>
      <trkpt lat="42.543852" lon="-5.453378">
        <ele>798.3037817953154</ele>
        <time>2022-05-21T08:51:07Z</time>
      </trkpt>
      <trkpt lat="42.543909" lon="-5.453482">
        <ele>797.1333282049745</ele>
        <time>2022-05-21T08:51:15Z</time>
      </trkpt>
      <trkpt lat="42.544007" lon="-5.453507">
        <ele>799.1095713200048</ele>
        <time>2022-05-21T08:51:25Z</time>
      </trkpt>
      <trkpt lat="42.544102" lon="-5.453525">
        <ele>798.2684141397476</ele>
        <time>2022-05-21T08:51:35Z</time>
      </trkpt>
      <trkpt lat="42.544165" lon="-5.453622">
        <ele>796.1353491432965</ele>
        <time>2022-05-21T08:51:44Z</time>
      </trkpt>
      <trkpt lat="42.544224" lon="-5.453741">
        <ele>798.1433995524421</ele>
        <time>2022-05-21T08:51:54Z</time>
      </trkpt>
      <trkpt lat="42.544274" lon="-5.453855">
        <ele>797.4277046043426</ele>
        <time>2022-05-21T08:52:01Z</time>
      </trkpt>
      <trkpt lat="42.54435" lon="-5.453947">
        <ele>796.1385296545923</ele>
        <time>2022-05-21T08:52:07Z</time>
      </trkpt>
      <trkpt lat="42.544388" lon="-5.454057">
        <ele>793.328884425573</ele>
        <time>2022-05-21T08:52:16Z</time>
      </trkpt>
      <trkpt lat="42.544408" lon="-5.454177">
        <ele>791.9451719820499</ele>
        <time>2022-05-21T08:52:24Z</time>
      </trkpt>
      <trkpt lat="42.544423" lon="-5.454302">
        <ele>790.4237675247714</ele>
        <time>2022-05-21T08:52:31Z</time>
      </trkpt>
      <trkpt lat="42.544439" lon="-5.454431">
        <ele>788.72484044265</ele>
        <time>2022-05-21T08:52:39Z</time>
      </trkpt>
      <trkpt lat="42.544448" lon="-5.45456">
        <ele>788.1807622769848</ele>
        <time>2022-05-21T08:52:47Z</time>
      </trkpt>
      <trkpt lat="42.544469" lon="-5.454684">
        <ele>786.7979402104393</ele>
        <time>2022-05-21T08:52:56Z</time>
      </trkpt>
      <trkpt lat="42.544485" lon="-5.45481">
        <ele>787.8047798713669</ele>
        <time>2022-05-21T08:53:07Z</time>
      </trkpt>
      <trkpt lat="42.544501" lon="-5.454938">
        <ele>787.9231640612707</ele>
        <time>2022-05-21T08:53:15Z</time>
      </trkpt>
      <trkpt lat="42.544492" lon="-5.455079">
        <ele>782.2074966039509</ele>
        <time>2022-05-21T08:53:25Z</time>
      </trkpt>
      <trkpt lat="42.544519" lon="-5.455206">
        <ele>780.425330158323</ele>
        <time>2022-05-21T08:53:32Z</time>
      </trkpt>
      <trkpt lat="42.544558" lon="-5.45532">
        <ele>774.1270184852183</ele>
        <time>2022-05-21T08:53:44Z</time>
      </trkpt>
      <trkpt lat="42.544528" lon="-5.455457">
        <ele>775.1191402170807</ele>
        <time>2022-05-21T08:53:50Z</time>
      </trkpt>
      <trkpt lat="42.544564" lon="-5.45558">
        <ele>772.3908066768199</ele>
        <time>2022-05-21T08:53:57Z</time>
      </trkpt>
      <trkpt lat="42.544587" lon="-5.455707">
        <ele>764.2147726723924</ele>
        <time>2022-05-21T08:54:04Z</time>
      </trkpt>
      <trkpt lat="42.544566" lon="-5.455845">
        <ele>758.0375301735476</ele>
        <time>2022-05-21T08:54:19Z</time>
      </trkpt>
      <trkpt lat="42.544564" lon="-5.45597">
        <ele>758.5129969026893</ele>
        <time>2022-05-21T08:54:31Z</time>
      </trkpt>
      <trkpt lat="42.544542" lon="-5.456092">
        <ele>761.4633620390669</ele>
        <time>2022-05-21T08:54:40Z</time>
      </trkpt>
      <trkpt lat="42.544575" lon="-5.456208">
        <ele>757.3419145047665</ele>
        <time>2022-05-21T08:54:49Z</time>
      </trkpt>
      <trkpt lat="42.544584" lon="-5.456345">
        <ele>750.7388211982325</ele>
        <time>2022-05-21T08:54:54Z</time>
      </trkpt>
      <trkpt lat="42.544605" lon="-5.456472">
        <ele>752.4585006712005</ele>
        <time>2022-05-21T08:55:01Z</time>
      </trkpt>
      <trkpt lat="42.544651" lon="-5.456602">
        <ele>755.9626525910571</ele>
        <time>2022-05-21T08:55:07Z</time>
      </trkpt>
      <trkpt lat="42.544678" lon="-5.456733">
        <ele>758.761122928001</ele>
        <time>2022-05-21T08:55:14Z</time>
      </trkpt>
      <trkpt lat="42.544688" lon="-5.456867">
        <ele>764.8754731155932</ele>
        <time>2022-05-21T08:55:21Z</time>
      </trkpt>
      <trkpt lat="42.544736" lon="-5.456972">
        <ele>767.9963971693069</ele>
        <time>2022-05-21T08:55:27Z</time>
      </trkpt>
      <trkpt lat="42.544764" lon="-5.457098">
        <ele>769.9879474118352</ele>
        <time>2022-05-21T08:55:34Z</time>
      </trkpt>
      <trkpt lat="42.544775" lon="-5.457223">
        <ele>769.5580503735691</ele>
        <time>2022-05-21T08:55:40Z</time>
      </trkpt>
      <trkpt lat="42.544761" lon="-5.457345">
        <ele>770.1345765637234</ele>
        <time>2022-05-21T08:55:46Z</time>
      </trkpt>
      <trkpt lat="42.544852" lon="-5.457405">
        <ele>774.6192306438461</ele>
        <time>2022-05-21T08:55:54Z</time>
      </trkpt>
      <trkpt lat="42.544924" lon="-5.457501">
        <ele>775.1922930628061</ele>
        <time>2022-05-21T08:56:02Z</time>
      </trkpt>
      <trkpt lat="42.544868" lon="-5.457619">
        <ele>777.5448764413595</ele>
        <time>2022-05-21T08:56:32Z</time>
      </trkpt>
      <trkpt lat="42.544781" lon="-5.457715">
        <ele>781.5941561898217</ele>
        <time>2022-05-21T08:56:37Z</time>
      </trkpt>
      <trkpt lat="42.544701" lon="-5.457795">
        <ele>779.2040140284225</ele>
        <time>2022-05-21T08:56:44Z</time>
      </trkpt>
      <trkpt lat="42.544612" lon="-5.457845">
        <ele>782.7133774161339</ele>
        <time>2022-05-21T08:56:56Z</time>
      </trkpt>
      <trkpt lat="42.544695" lon="-5.457892">
        <ele>792.4919883972034</ele>
        <time>2022-05-21T08:57:50Z</time>
      </trkpt>
      <trkpt lat="42.544794" lon="-5.457873">
        <ele>798.2811558628455</ele>
        <time>2022-05-21T08:57:57Z</time>
      </trkpt>
      <trkpt lat="42.544885" lon="-5.457853">
        <ele>806.8499965202063</ele>
        <time>2022-05-21T08:59:41Z</time>
      </trkpt>
      <trkpt lat="42.544974" lon="-5.457881">
        <ele>816.5233085816726</ele>
        <time>2022-05-21T09:01:05Z</time>
      </trkpt>
      <trkpt lat="42.54506" lon="-5.457924">
        <ele>819.789953042753</ele>
        <time>2022-05-21T09:02:01Z</time>
      </trkpt>
      <trkpt lat="42.54515" lon="-5.457965">
        <ele>821.4181258073077</ele>
        <time>2022-05-21T09:03:54Z</time>
      </trkpt>
      <trkpt lat="42.545241" lon="-5.457997">
        <ele>825.167839679867</ele>
        <time>2022-05-21T09:04:04Z</time>
      </trkpt>
      <trkpt lat="42.545223" lon="-5.458121">
        <ele>822.3221608754247</ele>
        <time>2022-05-21T09:04:32Z</time>
      </trkpt>
      <trkpt lat="42.545253" lon="-5.458242">
        <ele>818.44144468382</ele>
        <time>2022-05-21T09:04:42Z</time>
      </trkpt>
      <trkpt lat="42.545319" lon="-5.458336">
        <ele>810.9392102910206</ele>
        <time>2022-05-21T09:05:04Z</time>
      </trkpt>
      <trkpt lat="42.545355" lon="-5.458448">
        <ele>807.0935323350132</ele>
        <time>2022-05-21T09:05:12Z</time>
      </trkpt>
      <trkpt lat="42.545421" lon="-5.458539">
        <ele>811.1021431582049</ele>
        <time>2022-05-21T09:05:20Z</time>
      </trkpt>
      <trkpt lat="42.545461" lon="-5.458671">
        <ele>812.4005136219785</ele>
        <time>2022-05-21T09:05:29Z</time>
      </trkpt>
      <trkpt lat="42.545549" lon="-5.458715">
        <ele>817.4836859162897</ele>
        <time>2022-05-21T09:05:41Z</time>
      </trkpt>
      <trkpt lat="42.54561" lon="-5.45881">
        <ele>812.9483734108508</ele>
        <time>2022-05-21T09:05:51Z</time>
      </trkpt>
      <trkpt lat="42.545652" lon="-5.458934">
        <ele>822.7700049178675</ele>
        <time>2022-05-21T09:06:01Z</time>
      </trkpt>
      <trkpt lat="42.545703" lon="-5.459046">
        <ele>823.3377099689096</ele>
        <time>2022-05-21T09:06:10Z</time>
      </trkpt>
      <trkpt lat="42.545761" lon="-5.459151">
        <ele>822.2964838510379</ele>
        <time>2022-05-21T09:06:20Z</time>
      </trkpt>
      <trkpt lat="42.54583" lon="-5.459232">
        <ele>823.8790001757443</ele>
        <time>2022-05-21T09:06:27Z</time>
      </trkpt>
      <trkpt lat="42.54591" lon="-5.459313">
        <ele>825.6578480247408</ele>
        <time>2022-05-21T09:06:35Z</time>
      </trkpt>
      <trkpt lat="42.545986" lon="-5.45938">
        <ele>823.1585367266089</ele>
        <time>2022-05-21T09:06:44Z</time>
      </trkpt>
      <trkpt lat="42.546076" lon="-5.459407">
        <ele>823.059339908883</ele>
        <time>2022-05-21T09:06:50Z</time>
      </trkpt>
      <trkpt lat="42.546115" lon="-5.459516">
        <ele>823.9426476014778</ele>
        <time>2022-05-21T09:06:57Z</time>
      </trkpt>
      <trkpt lat="42.546139" lon="-5.459637">
        <ele>820.2419447042048</ele>
        <time>2022-05-21T09:07:04Z</time>
      </trkpt>
      <trkpt lat="42.54624" lon="-5.459656">
        <ele>819.4344766912982</ele>
        <time>2022-05-21T09:07:11Z</time>
      </trkpt>
      <trkpt lat="42.546312" lon="-5.459734">
        <ele>823.4809287618846</ele>
        <time>2022-05-21T09:07:20Z</time>
      </trkpt>
      <trkpt lat="42.546346" lon="-5.459848">
        <ele>823.2476563667879</ele>
        <time>2022-05-21T09:07:26Z</time>
      </trkpt>
      <trkpt lat="42.54642" lon="-5.459943">
        <ele>822.7142078587785</ele>
        <time>2022-05-21T09:07:32Z</time>
      </trkpt>
      <trkpt lat="42.546478" lon="-5.460045">
        <ele>820.9750098381191</ele>
        <time>2022-05-21T09:07:40Z</time>
      </trkpt>
      <trkpt lat="42.546549" lon="-5.460145">
        <ele>822.6873801825568</ele>
        <time>2022-05-21T09:07:48Z</time>
      </trkpt>
      <trkpt lat="42.546578" lon="-5.460277">
        <ele>822.3861950216815</ele>
        <time>2022-05-21T09:07:55Z</time>
      </trkpt>
      <trkpt lat="42.546628" lon="-5.460384">
        <ele>816.2157661393285</ele>
        <time>2022-05-21T09:08:02Z</time>
      </trkpt>
      <trkpt lat="42.546694" lon="-5.460475">
        <ele>812.9195977728814</ele>
        <time>2022-05-21T09:08:10Z</time>
      </trkpt>
      <trkpt lat="42.546768" lon="-5.46055">
        <ele>815.8490220895037</ele>
        <time>2022-05-21T09:08:16Z</time>
      </trkpt>
      <trkpt lat="42.546841" lon="-5.460635">
        <ele>815.371913776733</ele>
        <time>2022-05-21T09:08:26Z</time>
      </trkpt>
      <trkpt lat="42.546918" lon="-5.46071">
        <ele>812.8897992661223</ele>
        <time>2022-05-21T09:08:35Z</time>
      </trkpt>
      <trkpt lat="42.546999" lon="-5.460793">
        <ele>811.5931823356077</ele>
        <time>2022-05-21T09:08:41Z</time>
      </trkpt>
      <trkpt lat="42.547048" lon="-5.460907">
        <ele>807.1721847271547</ele>
        <time>2022-05-21T09:08:50Z</time>
      </trkpt>
      <trkpt lat="42.54713" lon="-5.460968">
        <ele>809.3614751147106</ele>
        <time>2022-05-21T09:08:55Z</time>
      </trkpt>
      <trkpt lat="42.547189" lon="-5.461079">
        <ele>806.4508231002837</ele>
        <time>2022-05-21T09:09:02Z</time>
      </trkpt>
      <trkpt lat="42.547241" lon="-5.461194">
        <ele>800.6269327932969</ele>
        <time>2022-05-21T09:09:12Z</time>
      </trkpt>
      <trkpt lat="42.547304" lon="-5.461287">
        <ele>798.0215545315295</ele>
        <time>2022-05-21T09:09:20Z</time>
      </trkpt>
      <trkpt lat="42.547406" lon="-5.461335">
        <ele>802.1622497756034</ele>
        <time>2022-05-21T09:09:27Z</time>
      </trkpt>
      <trkpt lat="42.547493" lon="-5.461364">
        <ele>804.4226434500888</ele>
        <time>2022-05-21T09:09:34Z</time>
      </trkpt>
      <trkpt lat="42.547564" lon="-5.461449">
        <ele>802.4532421864569</ele>
        <time>2022-05-21T09:09:42Z</time>
      </trkpt>
      <trkpt lat="42.547647" lon="-5.461527">
        <ele>805.4205051967874</ele>
        <time>2022-05-21T09:09:51Z</time>
      </trkpt>
      <trkpt lat="42.54774" lon="-5.461573">
        <ele>806.2265936397016</ele>
        <time>2022-05-21T09:10:00Z</time>
      </trkpt>
      <trkpt lat="42.54783" lon="-5.461609">
        <ele>813.6208882033825</ele>
        <time>2022-05-21T09:10:07Z</time>
      </trkpt>
      <trkpt lat="42.547941" lon="-5.461624">
        <ele>825.780601429753</ele>
        <time>2022-05-21T09:10:16Z</time>
      </trkpt>
      <trkpt lat="42.548016" lon="-5.461708">
        <ele>831.5736461374909</ele>
        <time>2022-05-21T09:10:26Z</time>
      </trkpt>
      <trkpt lat="42.548091" lon="-5.461804">
        <ele>831.6121439030394</ele>
        <time>2022-05-21T09:10:35Z</time>
      </trkpt>
      <trkpt lat="42.548153" lon="-5.461902">
        <ele>833.405588674359</ele>
        <time>2022-05-21T09:10:42Z</time>
      </trkpt>
      <trkpt lat="42.54821" lon="-5.462018">
        <ele>834.5684893503785</ele>
        <time>2022-05-21T09:10:50Z</time>
      </trkpt>
      <trkpt lat="42.548248" lon="-5.462134">
        <ele>834.1537331193686</ele>
        <time>2022-05-21T09:10:56Z</time>
      </trkpt>
      <trkpt lat="42.548291" lon="-5.462251">
        <ele>828.4288504812866</ele>
        <time>2022-05-21T09:11:06Z</time>
      </trkpt>
      <trkpt lat="42.548352" lon="-5.462355">
        <ele>828.1671219421551</ele>
        <time>2022-05-21T09:11:15Z</time>
      </trkpt>
      <trkpt lat="42.548372" lon="-5.462478">
        <ele>834.4824478644878</ele>
        <time>2022-05-21T09:11:24Z</time>
      </trkpt>
      <trkpt lat="42.548435" lon="-5.462579">
        <ele>829.5796145284548</ele>
        <time>2022-05-21T09:11:32Z</time>
      </trkpt>
      <trkpt lat="42.548437" lon="-5.462712">
        <ele>833.4158523259684</ele>
        <time>2022-05-21T09:11:54Z</time>
      </trkpt>
      <trkpt lat="42.548382" lon="-5.462814">
        <ele>831.7840271769091</ele>
        <time>2022-05-21T09:11:57Z</time>
      </trkpt>
      <trkpt lat="42.548456" lon="-5.462725">
        <ele>835.4579719826579</ele>
        <time>2022-05-21T09:12:07Z</time>
      </trkpt>
      <trkpt lat="42.548536" lon="-5.462623">
        <ele>838.4083072394133</ele>
        <time>2022-05-21T09:12:17Z</time>
      </trkpt>
      <trkpt lat="42.548599" lon="-5.462533">
        <ele>839.6605869475752</ele>
        <time>2022-05-21T09:12:20Z</time>
      </trkpt>
      <trkpt lat="42.548503" lon="-5.462491">
        <ele>841.6223496142775</ele>
        <time>2022-05-21T09:13:47Z</time>
      </trkpt>
      <trkpt lat="42.548407" lon="-5.462483">
        <ele>843.3358998056501</ele>
        <time>2022-05-21T09:13:57Z</time>
      </trkpt>
      <trkpt lat="42.548368" lon="-5.462367">
        <ele>849.2374409055337</ele>
        <time>2022-05-21T09:14:36Z</time>
      </trkpt>
      <trkpt lat="42.548387" lon="-5.462246">
        <ele>869.9270469592884</ele>
        <time>2022-05-21T09:16:46Z</time>
      </trkpt>
      <trkpt lat="42.548303" lon="-5.462292">
        <ele>869.92786918208</ele>
        <time>2022-05-21T09:18:25Z</time>
      </trkpt>
      <trkpt lat="42.548367" lon="-5.462383">
        <ele>865.8965372946113</ele>
        <time>2022-05-21T09:34:56Z</time>
      </trkpt>
      <trkpt lat="42.548447" lon="-5.462461">
        <ele>861.8219624618068</ele>
        <time>2022-05-21T09:35:45Z</time>
      </trkpt>
      <trkpt lat="42.548528" lon="-5.462565">
        <ele>853.0206567756832</ele>
        <time>2022-05-21T09:36:09Z</time>
      </trkpt>
      <trkpt lat="42.548612" lon="-5.462613">
        <ele>850.2018160615116</ele>
        <time>2022-05-21T09:36:12Z</time>
      </trkpt>
      <trkpt lat="42.54865" lon="-5.462759">
        <ele>850.5751671958715</ele>
        <time>2022-05-21T09:36:22Z</time>
      </trkpt>
      <trkpt lat="42.548704" lon="-5.462876">
        <ele>850.6309293648228</ele>
        <time>2022-05-21T09:36:26Z</time>
      </trkpt>
      <trkpt lat="42.548577" lon="-5.462823">
        <ele>836.0988195221871</ele>
        <time>2022-05-21T09:37:09Z</time>
      </trkpt>
      <trkpt lat="42.548614" lon="-5.462937">
        <ele>816.0216382443905</ele>
        <time>2022-05-21T09:37:19Z</time>
      </trkpt>
      <trkpt lat="42.548712" lon="-5.462992">
        <ele>831.0793082723394</ele>
        <time>2022-05-21T09:37:34Z</time>
      </trkpt>
      <trkpt lat="42.548676" lon="-5.463106">
        <ele>810.9756053891033</ele>
        <time>2022-05-21T09:37:51Z</time>
      </trkpt>
      <trkpt lat="42.548688" lon="-5.463233">
        <ele>801.8337969938293</ele>
        <time>2022-05-21T09:37:59Z</time>
      </trkpt>
      <trkpt lat="42.548746" lon="-5.463359">
        <ele>800.6201815735549</ele>
        <time>2022-05-21T09:38:00Z</time>
      </trkpt>
      <trkpt lat="42.548807" lon="-5.463453">
        <ele>798.5956389689818</ele>
        <time>2022-05-21T09:38:02Z</time>
      </trkpt>
      <trkpt lat="42.548712" lon="-5.463449">
        <ele>765.5424234010279</ele>
        <time>2022-05-21T09:39:26Z</time>
      </trkpt>
      <trkpt lat="42.548609" lon="-5.463461">
        <ele>758.7871953146532</ele>
        <time>2022-05-21T09:39:31Z</time>
      </trkpt>
      <trkpt lat="42.548517" lon="-5.463459">
        <ele>759.3748366525397</ele>
        <time>2022-05-21T09:40:57Z</time>
      </trkpt>
      <trkpt lat="42.548455" lon="-5.463325">
        <ele>768.207541225478</ele>
        <time>2022-05-21T09:43:46Z</time>
      </trkpt>
      <trkpt lat="42.548603" lon="-5.463091">
        <ele>769.3165968414396</ele>
        <time>2022-05-21T09:44:02Z</time>
      </trkpt>
      <trkpt lat="42.548688" lon="-5.463006">
        <ele>775.9491922715679</ele>
        <time>2022-05-21T09:44:09Z</time>
      </trkpt>
      <trkpt lat="42.54878" lon="-5.463023">
        <ele>781.0687145702541</ele>
        <time>2022-05-21T09:44:19Z</time>
      </trkpt>
      <trkpt lat="42.548851" lon="-5.463107">
        <ele>789.4639630541205</ele>
        <time>2022-05-21T09:44:29Z</time>
      </trkpt>
      <trkpt lat="42.548863" lon="-5.463243">
        <ele>793.4652953930199</ele>
        <time>2022-05-21T09:44:39Z</time>
      </trkpt>
      <trkpt lat="42.548869" lon="-5.463376">
        <ele>797.1636472065002</ele>
        <time>2022-05-21T09:44:45Z</time>
      </trkpt>
      <trkpt lat="42.548887" lon="-5.463502">
        <ele>803.5805821744725</ele>
        <time>2022-05-21T09:44:52Z</time>
      </trkpt>
      <trkpt lat="42.548946" lon="-5.463641">
        <ele>807.5149635728449</ele>
        <time>2022-05-21T09:45:01Z</time>
      </trkpt>
      <trkpt lat="42.549003" lon="-5.463764">
        <ele>810.1328617269173</ele>
        <time>2022-05-21T09:45:11Z</time>
      </trkpt>
      <trkpt lat="42.549062" lon="-5.463892">
        <ele>811.6913997922093</ele>
        <time>2022-05-21T09:45:21Z</time>
      </trkpt>
      <trkpt lat="42.549114" lon="-5.463995">
        <ele>814.155256495811</ele>
        <time>2022-05-21T09:45:29Z</time>
      </trkpt>
      <trkpt lat="42.549165" lon="-5.464107">
        <ele>815.9913147455081</ele>
        <time>2022-05-21T09:45:37Z</time>
      </trkpt>
      <trkpt lat="42.549218" lon="-5.464214">
        <ele>816.2222485356033</ele>
        <time>2022-05-21T09:45:46Z</time>
      </trkpt>
      <trkpt lat="42.54927" lon="-5.464324">
        <ele>817.0939455945045</ele>
        <time>2022-05-21T09:45:55Z</time>
      </trkpt>
      <trkpt lat="42.549332" lon="-5.464429">
        <ele>820.9854026474059</ele>
        <time>2022-05-21T09:46:05Z</time>
      </trkpt>
      <trkpt lat="42.549382" lon="-5.464534">
        <ele>822.9530277121812</ele>
        <time>2022-05-21T09:46:12Z</time>
      </trkpt>
      <trkpt lat="42.549409" lon="-5.464658">
        <ele>823.2200738759711</ele>
        <time>2022-05-21T09:46:20Z</time>
      </trkpt>
      <trkpt lat="42.54946" lon="-5.464759">
        <ele>822.3691589534283</ele>
        <time>2022-05-21T09:46:30Z</time>
      </trkpt>
      <trkpt lat="42.549532" lon="-5.464838">
        <ele>823.3898197598755</ele>
        <time>2022-05-21T09:46:37Z</time>
      </trkpt>
      <trkpt lat="42.549617" lon="-5.464903">
        <ele>823.8285224223509</ele>
        <time>2022-05-21T09:47:01Z</time>
      </trkpt>
      <trkpt lat="42.549696" lon="-5.46499">
        <ele>825.2638405384496</ele>
        <time>2022-05-21T09:47:09Z</time>
      </trkpt>
      <trkpt lat="42.549772" lon="-5.465075">
        <ele>827.3789148638025</ele>
        <time>2022-05-21T09:47:15Z</time>
      </trkpt>
      <trkpt lat="42.549848" lon="-5.465166">
        <ele>829.8417576057836</ele>
        <time>2022-05-21T09:47:21Z</time>
      </trkpt>
      <trkpt lat="42.549917" lon="-5.465247">
        <ele>832.1056840429083</ele>
        <time>2022-05-21T09:47:27Z</time>
      </trkpt>
      <trkpt lat="42.549998" lon="-5.465328">
        <ele>834.622405317612</ele>
        <time>2022-05-21T09:47:34Z</time>
      </trkpt>
      <trkpt lat="42.55007" lon="-5.46541">
        <ele>836.9538606069982</ele>
        <time>2022-05-21T09:47:42Z</time>
      </trkpt>
      <trkpt lat="42.550113" lon="-5.465518">
        <ele>837.9715996542946</ele>
        <time>2022-05-21T09:47:51Z</time>
      </trkpt>
      <trkpt lat="42.550169" lon="-5.465619">
        <ele>838.516221598722</ele>
        <time>2022-05-21T09:47:59Z</time>
      </trkpt>
      <trkpt lat="42.55023" lon="-5.465711">
        <ele>836.6636103475466</ele>
        <time>2022-05-21T09:48:07Z</time>
      </trkpt>
      <trkpt lat="42.550299" lon="-5.465801">
        <ele>835.3836478181183</ele>
        <time>2022-05-21T09:48:12Z</time>
      </trkpt>
      <trkpt lat="42.550384" lon="-5.465877">
        <ele>833.2218834478408</ele>
        <time>2022-05-21T09:48:20Z</time>
      </trkpt>
      <trkpt lat="42.550442" lon="-5.465982">
        <ele>827.5448703756556</ele>
        <time>2022-05-21T09:48:26Z</time>
      </trkpt>
      <trkpt lat="42.550507" lon="-5.466066">
        <ele>825.8899737680331</ele>
        <time>2022-05-21T09:48:32Z</time>
      </trkpt>
      <trkpt lat="42.55055" lon="-5.466179">
        <ele>823.8928513461724</ele>
        <time>2022-05-21T09:48:39Z</time>
      </trkpt>
      <trkpt lat="42.550616" lon="-5.466264">
        <ele>819.5271185915917</ele>
        <time>2022-05-21T09:48:47Z</time>
      </trkpt>
      <trkpt lat="42.550694" lon="-5.466359">
        <ele>816.3267865581438</ele>
        <time>2022-05-21T09:48:54Z</time>
      </trkpt>
      <trkpt lat="42.550763" lon="-5.466465">
        <ele>812.1645928649232</ele>
        <time>2022-05-21T09:49:01Z</time>
      </trkpt>
      <trkpt lat="42.550804" lon="-5.466586">
        <ele>807.4349120119587</ele>
        <time>2022-05-21T09:49:10Z</time>
      </trkpt>
      <trkpt lat="42.550887" lon="-5.466661">
        <ele>805.69366459921</ele>
        <time>2022-05-21T09:49:17Z</time>
      </trkpt>
      <trkpt lat="42.550977" lon="-5.466625">
        <ele>805.0469422461465</ele>
        <time>2022-05-21T09:49:27Z</time>
      </trkpt>
      <trkpt lat="42.551078" lon="-5.46663">
        <ele>807.0578126059845</ele>
        <time>2022-05-21T09:49:35Z</time>
      </trkpt>
      <trkpt lat="42.551176" lon="-5.466606">
        <ele>811.4421818843111</ele>
        <time>2022-05-21T09:49:42Z</time>
      </trkpt>
      <trkpt lat="42.551269" lon="-5.466628">
        <ele>815.1424465980381</ele>
        <time>2022-05-21T09:49:50Z</time>
      </trkpt>
      <trkpt lat="42.551358" lon="-5.466677">
        <ele>817.0751216998324</ele>
        <time>2022-05-21T09:49:57Z</time>
      </trkpt>
      <trkpt lat="42.551436" lon="-5.46677">
        <ele>817.1718514887616</ele>
        <time>2022-05-21T09:50:05Z</time>
      </trkpt>
      <trkpt lat="42.551521" lon="-5.466837">
        <ele>817.3834872245789</ele>
        <time>2022-05-21T09:50:12Z</time>
      </trkpt>
      <trkpt lat="42.5516" lon="-5.466922">
        <ele>817.5049461657181</ele>
        <time>2022-05-21T09:50:18Z</time>
      </trkpt>
      <trkpt lat="42.551676" lon="-5.46699">
        <ele>817.8804424535483</ele>
        <time>2022-05-21T09:50:27Z</time>
      </trkpt>
      <trkpt lat="42.551754" lon="-5.467078">
        <ele>816.7583033079281</ele>
        <time>2022-05-21T09:50:33Z</time>
      </trkpt>
      <trkpt lat="42.551831" lon="-5.467158">
        <ele>815.809028766118</ele>
        <time>2022-05-21T09:50:40Z</time>
      </trkpt>
      <trkpt lat="42.551906" lon="-5.467237">
        <ele>814.5127398772165</ele>
        <time>2022-05-21T09:50:48Z</time>
      </trkpt>
      <trkpt lat="42.551973" lon="-5.467334">
        <ele>814.4220356121659</ele>
        <time>2022-05-21T09:50:55Z</time>
      </trkpt>
      <trkpt lat="42.552035" lon="-5.467436">
        <ele>815.7314215265214</ele>
        <time>2022-05-21T09:51:03Z</time>
      </trkpt>
      <trkpt lat="42.552116" lon="-5.467511">
        <ele>815.1484158681706</ele>
        <time>2022-05-21T09:51:12Z</time>
      </trkpt>
      <trkpt lat="42.5522" lon="-5.467594">
        <ele>816.2548382682726</ele>
        <time>2022-05-21T09:51:21Z</time>
      </trkpt>
      <trkpt lat="42.552294" lon="-5.467638">
        <ele>817.1422836836427</ele>
        <time>2022-05-21T09:51:30Z</time>
      </trkpt>
      <trkpt lat="42.552362" lon="-5.467723">
        <ele>818.3934773709625</ele>
        <time>2022-05-21T09:51:37Z</time>
      </trkpt>
      <trkpt lat="42.552437" lon="-5.467812">
        <ele>819.0180878918618</ele>
        <time>2022-05-21T09:51:46Z</time>
      </trkpt>
      <trkpt lat="42.552502" lon="-5.467911">
        <ele>816.7275140341371</ele>
        <time>2022-05-21T09:51:52Z</time>
      </trkpt>
      <trkpt lat="42.552579" lon="-5.468">
        <ele>816.8799638878554</ele>
        <time>2022-05-21T09:52:01Z</time>
      </trkpt>
      <trkpt lat="42.552663" lon="-5.468074">
        <ele>819.2608514167368</ele>
        <time>2022-05-21T09:52:11Z</time>
      </trkpt>
      <trkpt lat="42.552745" lon="-5.468154">
        <ele>821.2468095319346</ele>
        <time>2022-05-21T09:52:19Z</time>
      </trkpt>
      <trkpt lat="42.552832" lon="-5.468217">
        <ele>821.2894981894642</ele>
        <time>2022-05-21T09:52:27Z</time>
      </trkpt>
      <trkpt lat="42.55292" lon="-5.468273">
        <ele>821.3572771195322</ele>
        <time>2022-05-21T09:52:37Z</time>
      </trkpt>
      <trkpt lat="42.552995" lon="-5.468349">
        <ele>823.9531783210114</ele>
        <time>2022-05-21T09:52:46Z</time>
      </trkpt>
      <trkpt lat="42.553069" lon="-5.468431">
        <ele>826.2477659964934</ele>
        <time>2022-05-21T09:52:56Z</time>
      </trkpt>
      <trkpt lat="42.553149" lon="-5.468515">
        <ele>826.5778601579368</ele>
        <time>2022-05-21T09:53:02Z</time>
      </trkpt>
      <trkpt lat="42.553235" lon="-5.468574">
        <ele>830.4865715308115</ele>
        <time>2022-05-21T09:53:12Z</time>
      </trkpt>
      <trkpt lat="42.55332" lon="-5.468648">
        <ele>832.5091216415167</ele>
        <time>2022-05-21T09:53:21Z</time>
      </trkpt>
      <trkpt lat="42.553388" lon="-5.468728">
        <ele>832.0854085059837</ele>
        <time>2022-05-21T09:53:29Z</time>
      </trkpt>
      <trkpt lat="42.553462" lon="-5.468817">
        <ele>831.8917033141479</ele>
        <time>2022-05-21T09:53:37Z</time>
      </trkpt>
      <trkpt lat="42.553542" lon="-5.468898">
        <ele>832.6057270737365</ele>
        <time>2022-05-21T09:53:45Z</time>
      </trkpt>
      <trkpt lat="42.553617" lon="-5.468977">
        <ele>833.4468311741948</ele>
        <time>2022-05-21T09:53:52Z</time>
      </trkpt>
      <trkpt lat="42.553684" lon="-5.469069">
        <ele>834.9718776922673</ele>
        <time>2022-05-21T09:54:01Z</time>
      </trkpt>
      <trkpt lat="42.553749" lon="-5.469155">
        <ele>836.7481125677004</ele>
        <time>2022-05-21T09:54:07Z</time>
      </trkpt>
      <trkpt lat="42.553814" lon="-5.469257">
        <ele>837.4449174124748</ele>
        <time>2022-05-21T09:54:16Z</time>
      </trkpt>
      <trkpt lat="42.553888" lon="-5.469334">
        <ele>836.7754660416394</ele>
        <time>2022-05-21T09:54:22Z</time>
      </trkpt>
      <trkpt lat="42.553951" lon="-5.46943">
        <ele>836.0721339732409</ele>
        <time>2022-05-21T09:54:31Z</time>
      </trkpt>
      <trkpt lat="42.554004" lon="-5.469535">
        <ele>835.6370812254027</ele>
        <time>2022-05-21T09:54:39Z</time>
      </trkpt>
      <trkpt lat="42.554081" lon="-5.469618">
        <ele>835.7476950576529</ele>
        <time>2022-05-21T09:54:46Z</time>
      </trkpt>
      <trkpt lat="42.554127" lon="-5.469733">
        <ele>835.9460068726912</ele>
        <time>2022-05-21T09:54:54Z</time>
      </trkpt>
      <trkpt lat="42.554204" lon="-5.469822">
        <ele>835.9273454705253</ele>
        <time>2022-05-21T09:55:01Z</time>
      </trkpt>
      <trkpt lat="42.55427" lon="-5.469911">
        <ele>836.019283728674</ele>
        <time>2022-05-21T09:55:10Z</time>
      </trkpt>
      <trkpt lat="42.554344" lon="-5.469986">
        <ele>836.0619077198207</ele>
        <time>2022-05-21T09:55:17Z</time>
      </trkpt>
      <trkpt lat="42.554411" lon="-5.470086">
        <ele>835.4074105331674</ele>
        <time>2022-05-21T09:55:25Z</time>
      </trkpt>
      <trkpt lat="42.554491" lon="-5.470167">
        <ele>835.5536225456744</ele>
        <time>2022-05-21T09:55:32Z</time>
      </trkpt>
      <trkpt lat="42.554567" lon="-5.470257">
        <ele>836.5431614611298</ele>
        <time>2022-05-21T09:55:42Z</time>
      </trkpt>
      <trkpt lat="42.554638" lon="-5.470334">
        <ele>838.0293351197615</ele>
        <time>2022-05-21T09:55:50Z</time>
      </trkpt>
      <trkpt lat="42.55471" lon="-5.470415">
        <ele>838.7175774844363</ele>
        <time>2022-05-21T09:55:57Z</time>
      </trkpt>
      <trkpt lat="42.554771" lon="-5.470506">
        <ele>838.2475646054372</ele>
        <time>2022-05-21T09:56:04Z</time>
      </trkpt>
      <trkpt lat="42.554827" lon="-5.470615">
        <ele>834.4949153065681</ele>
        <time>2022-05-21T09:56:11Z</time>
      </trkpt>
      <trkpt lat="42.554881" lon="-5.470721">
        <ele>833.1855170549825</ele>
        <time>2022-05-21T09:56:20Z</time>
      </trkpt>
      <trkpt lat="42.554938" lon="-5.470837">
        <ele>833.9770719455555</ele>
        <time>2022-05-21T09:56:27Z</time>
      </trkpt>
      <trkpt lat="42.555018" lon="-5.470925">
        <ele>834.6974883703515</ele>
        <time>2022-05-21T09:56:37Z</time>
      </trkpt>
      <trkpt lat="42.555084" lon="-5.471014">
        <ele>833.6994909141213</ele>
        <time>2022-05-21T09:56:42Z</time>
      </trkpt>
      <trkpt lat="42.555159" lon="-5.471094">
        <ele>833.8817399237305</ele>
        <time>2022-05-21T09:56:51Z</time>
      </trkpt>
      <trkpt lat="42.555219" lon="-5.471194">
        <ele>833.9571677250788</ele>
        <time>2022-05-21T09:57:00Z</time>
      </trkpt>
      <trkpt lat="42.555276" lon="-5.4713">
        <ele>833.689261325635</ele>
        <time>2022-05-21T09:57:07Z</time>
      </trkpt>
      <trkpt lat="42.555339" lon="-5.471392">
        <ele>833.8369758138433</ele>
        <time>2022-05-21T09:57:14Z</time>
      </trkpt>
      <trkpt lat="42.555393" lon="-5.471492">
        <ele>834.2656882321462</ele>
        <time>2022-05-21T09:57:22Z</time>
      </trkpt>
      <trkpt lat="42.55545" lon="-5.471604">
        <ele>835.0143161183223</ele>
        <time>2022-05-21T09:57:30Z</time>
      </trkpt>
      <trkpt lat="42.555515" lon="-5.4717">
        <ele>835.4050743207335</ele>
        <time>2022-05-21T09:57:39Z</time>
      </trkpt>
      <trkpt lat="42.555571" lon="-5.471814">
        <ele>836.7317591076717</ele>
        <time>2022-05-21T09:57:47Z</time>
      </trkpt>
      <trkpt lat="42.55562" lon="-5.471927">
        <ele>837.6761972717941</ele>
        <time>2022-05-21T09:57:56Z</time>
      </trkpt>
      <trkpt lat="42.55566" lon="-5.472041">
        <ele>838.6283170161769</ele>
        <time>2022-05-21T09:58:04Z</time>
      </trkpt>
      <trkpt lat="42.555722" lon="-5.472129">
        <ele>838.9294644705951</ele>
        <time>2022-05-21T09:58:11Z</time>
      </trkpt>
      <trkpt lat="42.555777" lon="-5.472242">
        <ele>839.2385905012488</ele>
        <time>2022-05-21T09:58:22Z</time>
      </trkpt>
      <trkpt lat="42.555828" lon="-5.472345">
        <ele>839.5734953992069</ele>
        <time>2022-05-21T09:58:30Z</time>
      </trkpt>
      <trkpt lat="42.555868" lon="-5.47246">
        <ele>840.5248141158372</ele>
        <time>2022-05-21T09:58:37Z</time>
      </trkpt>
      <trkpt lat="42.555916" lon="-5.472574">
        <ele>842.6575024900958</ele>
        <time>2022-05-21T09:58:45Z</time>
      </trkpt>
      <trkpt lat="42.555958" lon="-5.472689">
        <ele>843.2653517974541</ele>
        <time>2022-05-21T09:58:52Z</time>
      </trkpt>
      <trkpt lat="42.556005" lon="-5.472795">
        <ele>841.4721621833742</ele>
        <time>2022-05-21T09:59:02Z</time>
      </trkpt>
      <trkpt lat="42.556061" lon="-5.472893">
        <ele>840.7414890825748</ele>
        <time>2022-05-21T09:59:10Z</time>
      </trkpt>
      <trkpt lat="42.556112" lon="-5.47301">
        <ele>837.6246953615919</ele>
        <time>2022-05-21T09:59:17Z</time>
      </trkpt>
      <trkpt lat="42.556168" lon="-5.473112">
        <ele>835.9841745300218</ele>
        <time>2022-05-21T09:59:27Z</time>
      </trkpt>
      <trkpt lat="42.556234" lon="-5.473206">
        <ele>837.1607474461198</ele>
        <time>2022-05-21T09:59:34Z</time>
      </trkpt>
      <trkpt lat="42.556291" lon="-5.473311">
        <ele>837.0379064725712</ele>
        <time>2022-05-21T09:59:42Z</time>
      </trkpt>
      <trkpt lat="42.55634" lon="-5.473427">
        <ele>837.6891263863072</ele>
        <time>2022-05-21T09:59:49Z</time>
      </trkpt>
      <trkpt lat="42.556378" lon="-5.473549">
        <ele>838.1926153022796</ele>
        <time>2022-05-21T09:59:57Z</time>
      </trkpt>
      <trkpt lat="42.556411" lon="-5.473674">
        <ele>838.5826601842418</ele>
        <time>2022-05-21T10:00:05Z</time>
      </trkpt>
      <trkpt lat="42.556439" lon="-5.473805">
        <ele>838.925834688358</ele>
        <time>2022-05-21T10:00:12Z</time>
      </trkpt>
      <trkpt lat="42.556476" lon="-5.47392">
        <ele>838.1709518618882</ele>
        <time>2022-05-21T10:00:21Z</time>
      </trkpt>
      <trkpt lat="42.556511" lon="-5.474047">
        <ele>839.3071910999715</ele>
        <time>2022-05-21T10:00:29Z</time>
      </trkpt>
      <trkpt lat="42.55655" lon="-5.474159">
        <ele>839.695125083439</ele>
        <time>2022-05-21T10:00:36Z</time>
      </trkpt>
      <trkpt lat="42.556577" lon="-5.474286">
        <ele>838.9094952782616</ele>
        <time>2022-05-21T10:00:45Z</time>
      </trkpt>
      <trkpt lat="42.556623" lon="-5.474406">
        <ele>839.958773104474</ele>
        <time>2022-05-21T10:00:52Z</time>
      </trkpt>
      <trkpt lat="42.556666" lon="-5.474516">
        <ele>840.4186827261001</ele>
        <time>2022-05-21T10:01:01Z</time>
      </trkpt>
      <trkpt lat="42.556722" lon="-5.474616">
        <ele>840.844055715017</ele>
        <time>2022-05-21T10:01:07Z</time>
      </trkpt>
      <trkpt lat="42.556776" lon="-5.474723">
        <ele>841.4592374069616</ele>
        <time>2022-05-21T10:01:16Z</time>
      </trkpt>
      <trkpt lat="42.55682" lon="-5.474834">
        <ele>842.1395958699286</ele>
        <time>2022-05-21T10:01:25Z</time>
      </trkpt>
      <trkpt lat="42.55685" lon="-5.474956">
        <ele>842.9569489182904</ele>
        <time>2022-05-21T10:01:32Z</time>
      </trkpt>
      <trkpt lat="42.556887" lon="-5.475074">
        <ele>842.7026664819568</ele>
        <time>2022-05-21T10:01:37Z</time>
      </trkpt>
      <trkpt lat="42.556946" lon="-5.475178">
        <ele>843.3325367728248</ele>
        <time>2022-05-21T10:01:46Z</time>
      </trkpt>
      <trkpt lat="42.556988" lon="-5.475291">
        <ele>844.1209619194269</ele>
        <time>2022-05-21T10:01:52Z</time>
      </trkpt>
      <trkpt lat="42.557024" lon="-5.475404">
        <ele>844.7569480882958</ele>
        <time>2022-05-21T10:02:00Z</time>
      </trkpt>
      <trkpt lat="42.557074" lon="-5.475509">
        <ele>844.3585916189477</ele>
        <time>2022-05-21T10:02:09Z</time>
      </trkpt>
      <trkpt lat="42.55713" lon="-5.475606">
        <ele>844.1544583411887</ele>
        <time>2022-05-21T10:02:17Z</time>
      </trkpt>
      <trkpt lat="42.557187" lon="-5.475704">
        <ele>843.8502394948155</ele>
        <time>2022-05-21T10:02:26Z</time>
      </trkpt>
      <trkpt lat="42.557243" lon="-5.475812">
        <ele>841.7971062930301</ele>
        <time>2022-05-21T10:02:35Z</time>
      </trkpt>
      <trkpt lat="42.557303" lon="-5.475914">
        <ele>840.573442382738</ele>
        <time>2022-05-21T10:02:42Z</time>
      </trkpt>
      <trkpt lat="42.557375" lon="-5.476005">
        <ele>839.8842766005546</ele>
        <time>2022-05-21T10:02:51Z</time>
      </trkpt>
      <trkpt lat="42.557443" lon="-5.476097">
        <ele>839.6711017331108</ele>
        <time>2022-05-21T10:03:00Z</time>
      </trkpt>
      <trkpt lat="42.557505" lon="-5.476203">
        <ele>840.1507036183029</ele>
        <time>2022-05-21T10:03:07Z</time>
      </trkpt>
      <trkpt lat="42.557577" lon="-5.476302">
        <ele>841.9331147652119</ele>
        <time>2022-05-21T10:03:16Z</time>
      </trkpt>
      <trkpt lat="42.557636" lon="-5.47641">
        <ele>842.2343106605113</ele>
        <time>2022-05-21T10:03:25Z</time>
      </trkpt>
      <trkpt lat="42.557703" lon="-5.476493">
        <ele>843.5538805583492</ele>
        <time>2022-05-21T10:03:32Z</time>
      </trkpt>
      <trkpt lat="42.557774" lon="-5.476592">
        <ele>843.5278478059918</ele>
        <time>2022-05-21T10:03:42Z</time>
      </trkpt>
      <trkpt lat="42.557837" lon="-5.476683">
        <ele>845.2594537818804</ele>
        <time>2022-05-21T10:03:50Z</time>
      </trkpt>
      <trkpt lat="42.557907" lon="-5.476783">
        <ele>846.9610557947308</ele>
        <time>2022-05-21T10:03:57Z</time>
      </trkpt>
      <trkpt lat="42.55797" lon="-5.476891">
        <ele>846.7718342868611</ele>
        <time>2022-05-21T10:04:06Z</time>
      </trkpt>
      <trkpt lat="42.558022" lon="-5.476997">
        <ele>846.0044999634847</ele>
        <time>2022-05-21T10:04:12Z</time>
      </trkpt>
      <trkpt lat="42.558081" lon="-5.477091">
        <ele>846.0945183429867</ele>
        <time>2022-05-21T10:04:21Z</time>
      </trkpt>
      <trkpt lat="42.558141" lon="-5.477188">
        <ele>844.9566213656217</ele>
        <time>2022-05-21T10:04:29Z</time>
      </trkpt>
      <trkpt lat="42.558212" lon="-5.477276">
        <ele>843.5322243496776</ele>
        <time>2022-05-21T10:04:37Z</time>
      </trkpt>
      <trkpt lat="42.558276" lon="-5.477388">
        <ele>842.2836662027985</ele>
        <time>2022-05-21T10:04:46Z</time>
      </trkpt>
      <trkpt lat="42.558338" lon="-5.477495">
        <ele>842.1819517593831</ele>
        <time>2022-05-21T10:04:55Z</time>
      </trkpt>
      <trkpt lat="42.558402" lon="-5.477587">
        <ele>840.6254079574719</ele>
        <time>2022-05-21T10:05:03Z</time>
      </trkpt>
      <trkpt lat="42.558478" lon="-5.477677">
        <ele>839.6104020718485</ele>
        <time>2022-05-21T10:05:11Z</time>
      </trkpt>
      <trkpt lat="42.558528" lon="-5.477788">
        <ele>839.9447856545448</ele>
        <time>2022-05-21T10:05:19Z</time>
      </trkpt>
      <trkpt lat="42.558575" lon="-5.477893">
        <ele>838.8421401111409</ele>
        <time>2022-05-21T10:05:26Z</time>
      </trkpt>
      <trkpt lat="42.558634" lon="-5.477999">
        <ele>838.6746133016422</ele>
        <time>2022-05-21T10:05:34Z</time>
      </trkpt>
      <trkpt lat="42.558681" lon="-5.478117">
        <ele>838.4988998491317</ele>
        <time>2022-05-21T10:05:42Z</time>
      </trkpt>
      <trkpt lat="42.558733" lon="-5.478229">
        <ele>838.326561213471</ele>
        <time>2022-05-21T10:05:52Z</time>
      </trkpt>
      <trkpt lat="42.558786" lon="-5.47834">
        <ele>836.9300028057769</ele>
        <time>2022-05-21T10:05:59Z</time>
      </trkpt>
      <trkpt lat="42.558847" lon="-5.478451">
        <ele>837.0110309803858</ele>
        <time>2022-05-21T10:06:07Z</time>
      </trkpt>
      <trkpt lat="42.55891" lon="-5.478553">
        <ele>834.758445574902</ele>
        <time>2022-05-21T10:06:14Z</time>
      </trkpt>
      <trkpt lat="42.55896" lon="-5.478678">
        <ele>835.8906557746232</ele>
        <time>2022-05-21T10:06:24Z</time>
      </trkpt>
      <trkpt lat="42.55902" lon="-5.478782">
        <ele>835.555748982355</ele>
        <time>2022-05-21T10:06:32Z</time>
      </trkpt>
      <trkpt lat="42.559076" lon="-5.478877">
        <ele>836.9372952757403</ele>
        <time>2022-05-21T10:06:39Z</time>
      </trkpt>
      <trkpt lat="42.559124" lon="-5.478988">
        <ele>836.6805227948353</ele>
        <time>2022-05-21T10:06:47Z</time>
      </trkpt>
      <trkpt lat="42.559184" lon="-5.479101">
        <ele>837.3434759238735</ele>
        <time>2022-05-21T10:06:56Z</time>
      </trkpt>
      <trkpt lat="42.559236" lon="-5.479206">
        <ele>836.5040195994079</ele>
        <time>2022-05-21T10:07:04Z</time>
      </trkpt>
      <trkpt lat="42.559288" lon="-5.479317">
        <ele>836.2945725470781</ele>
        <time>2022-05-21T10:07:12Z</time>
      </trkpt>
      <trkpt lat="42.559337" lon="-5.479425">
        <ele>834.6908840406686</ele>
        <time>2022-05-21T10:07:21Z</time>
      </trkpt>
      <trkpt lat="42.559385" lon="-5.479531">
        <ele>836.4754670131952</ele>
        <time>2022-05-21T10:07:30Z</time>
      </trkpt>
      <trkpt lat="42.559436" lon="-5.479633">
        <ele>840.1479429434985</ele>
        <time>2022-05-21T10:07:39Z</time>
      </trkpt>
      <trkpt lat="42.559515" lon="-5.479705">
        <ele>843.3240546910092</ele>
        <time>2022-05-21T10:07:47Z</time>
      </trkpt>
      <trkpt lat="42.55958" lon="-5.479792">
        <ele>844.3123920317739</ele>
        <time>2022-05-21T10:07:54Z</time>
      </trkpt>
      <trkpt lat="42.559652" lon="-5.479869">
        <ele>843.827568477951</ele>
        <time>2022-05-21T10:08:02Z</time>
      </trkpt>
      <trkpt lat="42.559729" lon="-5.479955">
        <ele>845.1384176677093</ele>
        <time>2022-05-21T10:08:12Z</time>
      </trkpt>
      <trkpt lat="42.559798" lon="-5.480042">
        <ele>847.889743921347</ele>
        <time>2022-05-21T10:08:22Z</time>
      </trkpt>
      <trkpt lat="42.559867" lon="-5.480131">
        <ele>848.2470764284953</ele>
        <time>2022-05-21T10:08:30Z</time>
      </trkpt>
      <trkpt lat="42.55994" lon="-5.480222">
        <ele>851.0359347406775</ele>
        <time>2022-05-21T10:08:39Z</time>
      </trkpt>
      <trkpt lat="42.560024" lon="-5.480296">
        <ele>850.0595803977922</ele>
        <time>2022-05-21T10:08:47Z</time>
      </trkpt>
      <trkpt lat="42.560099" lon="-5.480365">
        <ele>849.1122618811205</ele>
        <time>2022-05-21T10:08:54Z</time>
      </trkpt>
      <trkpt lat="42.560174" lon="-5.480432">
        <ele>849.3614166611806</ele>
        <time>2022-05-21T10:09:02Z</time>
      </trkpt>
      <trkpt lat="42.560242" lon="-5.480519">
        <ele>849.0776021471247</ele>
        <time>2022-05-21T10:09:09Z</time>
      </trkpt>
      <trkpt lat="42.560327" lon="-5.480592">
        <ele>851.1596289537847</ele>
        <time>2022-05-21T10:09:40Z</time>
      </trkpt>
      <trkpt lat="42.560405" lon="-5.480673">
        <ele>852.7737107099965</ele>
        <time>2022-05-21T10:09:50Z</time>
      </trkpt>
      <trkpt lat="42.560475" lon="-5.480758">
        <ele>851.6832109717652</ele>
        <time>2022-05-21T10:09:56Z</time>
      </trkpt>
      <trkpt lat="42.560551" lon="-5.480843">
        <ele>849.9508312707767</ele>
        <time>2022-05-21T10:10:02Z</time>
      </trkpt>
      <trkpt lat="42.560628" lon="-5.480923">
        <ele>849.306116222404</ele>
        <time>2022-05-21T10:10:07Z</time>
      </trkpt>
      <trkpt lat="42.560695" lon="-5.481008">
        <ele>849.8856717441231</ele>
        <time>2022-05-21T10:10:14Z</time>
      </trkpt>
      <trkpt lat="42.560775" lon="-5.481073">
        <ele>848.772191666998</ele>
        <time>2022-05-21T10:10:26Z</time>
      </trkpt>
      <trkpt lat="42.560857" lon="-5.481157">
        <ele>846.9380793310702</ele>
        <time>2022-05-21T10:10:34Z</time>
      </trkpt>
      <trkpt lat="42.560927" lon="-5.481256">
        <ele>844.9572624200955</ele>
        <time>2022-05-21T10:10:40Z</time>
      </trkpt>
      <trkpt lat="42.560991" lon="-5.481355">
        <ele>843.6444229101762</ele>
        <time>2022-05-21T10:10:50Z</time>
      </trkpt>
      <trkpt lat="42.561062" lon="-5.481435">
        <ele>841.2515840316191</ele>
        <time>2022-05-21T10:10:56Z</time>
      </trkpt>
      <trkpt lat="42.561135" lon="-5.481519">
        <ele>839.1431756345555</ele>
        <time>2022-05-21T10:11:02Z</time>
      </trkpt>
      <trkpt lat="42.561211" lon="-5.481605">
        <ele>838.4538634913042</ele>
        <time>2022-05-21T10:11:09Z</time>
      </trkpt>
      <trkpt lat="42.56128" lon="-5.481696">
        <ele>837.9139264067635</ele>
        <time>2022-05-21T10:11:17Z</time>
      </trkpt>
      <trkpt lat="42.561346" lon="-5.481798">
        <ele>837.4456936633214</ele>
        <time>2022-05-21T10:11:27Z</time>
      </trkpt>
      <trkpt lat="42.561422" lon="-5.481893">
        <ele>835.5621621385217</ele>
        <time>2022-05-21T10:11:32Z</time>
      </trkpt>
      <trkpt lat="42.561486" lon="-5.481996">
        <ele>834.487766340375</ele>
        <time>2022-05-21T10:11:40Z</time>
      </trkpt>
      <trkpt lat="42.561545" lon="-5.4821">
        <ele>836.1725827911869</ele>
        <time>2022-05-21T10:11:47Z</time>
      </trkpt>
      <trkpt lat="42.561596" lon="-5.482201">
        <ele>836.3175474992022</ele>
        <time>2022-05-21T10:11:52Z</time>
      </trkpt>
      <trkpt lat="42.561674" lon="-5.482286">
        <ele>836.607376370579</ele>
        <time>2022-05-21T10:12:01Z</time>
      </trkpt>
      <trkpt lat="42.561751" lon="-5.482359">
        <ele>836.3238397901878</ele>
        <time>2022-05-21T10:12:09Z</time>
      </trkpt>
      <trkpt lat="42.561818" lon="-5.48245">
        <ele>835.8673462513834</ele>
        <time>2022-05-21T10:12:15Z</time>
      </trkpt>
      <trkpt lat="42.561891" lon="-5.482539">
        <ele>836.2744350619614</ele>
        <time>2022-05-21T10:12:22Z</time>
      </trkpt>
      <trkpt lat="42.561967" lon="-5.482619">
        <ele>835.2718419376761</ele>
        <time>2022-05-21T10:12:32Z</time>
      </trkpt>
      <trkpt lat="42.562045" lon="-5.482696">
        <ele>836.1592850675806</ele>
        <time>2022-05-21T10:12:39Z</time>
      </trkpt>
      <trkpt lat="42.562095" lon="-5.482806">
        <ele>836.3994595874101</ele>
        <time>2022-05-21T10:12:47Z</time>
      </trkpt>
      <trkpt lat="42.562164" lon="-5.482898">
        <ele>836.491557826288</ele>
        <time>2022-05-21T10:12:56Z</time>
      </trkpt>
      <trkpt lat="42.562229" lon="-5.483001">
        <ele>838.345655195415</ele>
        <time>2022-05-21T10:13:05Z</time>
      </trkpt>
      <trkpt lat="42.562286" lon="-5.483105">
        <ele>840.2564723053947</ele>
        <time>2022-05-21T10:13:14Z</time>
      </trkpt>
      <trkpt lat="42.56236" lon="-5.483208">
        <ele>837.3986012162641</ele>
        <time>2022-05-21T10:13:21Z</time>
      </trkpt>
      <trkpt lat="42.562441" lon="-5.483298">
        <ele>836.1431055516005</ele>
        <time>2022-05-21T10:13:27Z</time>
      </trkpt>
      <trkpt lat="42.562509" lon="-5.483384">
        <ele>836.0222087809816</ele>
        <time>2022-05-21T10:13:35Z</time>
      </trkpt>
      <trkpt lat="42.562597" lon="-5.483435">
        <ele>836.2985498383641</ele>
        <time>2022-05-21T10:13:41Z</time>
      </trkpt>
      <trkpt lat="42.562668" lon="-5.483515">
        <ele>834.5667499070987</ele>
        <time>2022-05-21T10:13:50Z</time>
      </trkpt>
      <trkpt lat="42.562725" lon="-5.483618">
        <ele>832.0880507826805</ele>
        <time>2022-05-21T10:13:57Z</time>
      </trkpt>
      <trkpt lat="42.56278" lon="-5.48374">
        <ele>829.6207513362169</ele>
        <time>2022-05-21T10:14:06Z</time>
      </trkpt>
      <trkpt lat="42.562835" lon="-5.483843">
        <ele>828.3467768104747</ele>
        <time>2022-05-21T10:14:15Z</time>
      </trkpt>
      <trkpt lat="42.562911" lon="-5.48392">
        <ele>829.8009793031961</ele>
        <time>2022-05-21T10:14:22Z</time>
      </trkpt>
      <trkpt lat="42.562977" lon="-5.484016">
        <ele>830.6517097353935</ele>
        <time>2022-05-21T10:14:31Z</time>
      </trkpt>
      <trkpt lat="42.563045" lon="-5.484119">
        <ele>830.5865139244124</ele>
        <time>2022-05-21T10:14:42Z</time>
      </trkpt>
      <trkpt lat="42.563107" lon="-5.484223">
        <ele>829.9218805478886</ele>
        <time>2022-05-21T10:14:49Z</time>
      </trkpt>
      <trkpt lat="42.563162" lon="-5.484324">
        <ele>828.9651396870613</ele>
        <time>2022-05-21T10:14:57Z</time>
      </trkpt>
      <trkpt lat="42.563207" lon="-5.484438">
        <ele>827.8739795861766</ele>
        <time>2022-05-21T10:15:06Z</time>
      </trkpt>
      <trkpt lat="42.563268" lon="-5.484538">
        <ele>828.1301234560087</ele>
        <time>2022-05-21T10:15:12Z</time>
      </trkpt>
      <trkpt lat="42.563321" lon="-5.484642">
        <ele>828.0748486984521</ele>
        <time>2022-05-21T10:15:20Z</time>
      </trkpt>
      <trkpt lat="42.563391" lon="-5.484721">
        <ele>827.2693946091458</ele>
        <time>2022-05-21T10:15:27Z</time>
      </trkpt>
      <trkpt lat="42.563449" lon="-5.484826">
        <ele>826.6197287458926</ele>
        <time>2022-05-21T10:15:34Z</time>
      </trkpt>
      <trkpt lat="42.563479" lon="-5.484942">
        <ele>826.9274879330769</ele>
        <time>2022-05-21T10:15:41Z</time>
      </trkpt>
      <trkpt lat="42.563509" lon="-5.485061">
        <ele>826.7266202736646</ele>
        <time>2022-05-21T10:15:47Z</time>
      </trkpt>
      <trkpt lat="42.563546" lon="-5.485188">
        <ele>826.9559070710093</ele>
        <time>2022-05-21T10:15:56Z</time>
      </trkpt>
      <trkpt lat="42.563577" lon="-5.485304">
        <ele>827.9114932082593</ele>
        <time>2022-05-21T10:16:05Z</time>
      </trkpt>
      <trkpt lat="42.563611" lon="-5.485422">
        <ele>826.7569074900821</ele>
        <time>2022-05-21T10:16:14Z</time>
      </trkpt>
      <trkpt lat="42.563625" lon="-5.485555">
        <ele>826.5319644846022</ele>
        <time>2022-05-21T10:16:22Z</time>
      </trkpt>
      <trkpt lat="42.563652" lon="-5.485671">
        <ele>827.5373595347628</ele>
        <time>2022-05-21T10:16:29Z</time>
      </trkpt>
      <trkpt lat="42.563695" lon="-5.485788">
        <ele>825.8192550633103</ele>
        <time>2022-05-21T10:16:37Z</time>
      </trkpt>
      <trkpt lat="42.563759" lon="-5.485878">
        <ele>827.9311759667471</ele>
        <time>2022-05-21T10:16:45Z</time>
      </trkpt>
      <trkpt lat="42.56382" lon="-5.485978">
        <ele>830.5596152851358</ele>
        <time>2022-05-21T10:16:57Z</time>
      </trkpt>
      <trkpt lat="42.563921" lon="-5.486021">
        <ele>831.2257003085688</ele>
        <time>2022-05-21T10:17:02Z</time>
      </trkpt>
      <trkpt lat="42.56401" lon="-5.486057">
        <ele>831.689827199094</ele>
        <time>2022-05-21T10:17:09Z</time>
      </trkpt>
      <trkpt lat="42.563967" lon="-5.486195">
        <ele>832.6798083512112</ele>
        <time>2022-05-21T10:17:24Z</time>
      </trkpt>
      <trkpt lat="42.563918" lon="-5.486313">
        <ele>832.9963587764651</ele>
        <time>2022-05-21T10:17:30Z</time>
      </trkpt>
      <trkpt lat="42.563898" lon="-5.486451">
        <ele>833.2686024606228</ele>
        <time>2022-05-21T10:17:36Z</time>
      </trkpt>
      <trkpt lat="42.563926" lon="-5.486593">
        <ele>833.6470314273611</ele>
        <time>2022-05-21T10:17:41Z</time>
      </trkpt>
      <trkpt lat="42.564046" lon="-5.486515">
        <ele>837.6066971132532</ele>
        <time>2022-05-21T10:17:47Z</time>
      </trkpt>
      <trkpt lat="42.564142" lon="-5.486394">
        <ele>843.2635881248862</ele>
        <time>2022-05-21T10:17:50Z</time>
      </trkpt>
      <trkpt lat="42.564266" lon="-5.486443">
        <ele>844.4304493917152</ele>
        <time>2022-05-21T10:17:54Z</time>
      </trkpt>
      <trkpt lat="42.564336" lon="-5.486532">
        <ele>842.3371517574415</ele>
        <time>2022-05-21T10:17:59Z</time>
      </trkpt>
      <trkpt lat="42.564384" lon="-5.486656">
        <ele>835.8419624827802</ele>
        <time>2022-05-21T10:18:07Z</time>
      </trkpt>
      <trkpt lat="42.564434" lon="-5.48678">
        <ele>835.0441627744585</ele>
        <time>2022-05-21T10:18:21Z</time>
      </trkpt>
      <trkpt lat="42.56444" lon="-5.486923">
        <ele>834.8544757990167</ele>
        <time>2022-05-21T10:18:29Z</time>
      </trkpt>
      <trkpt lat="42.564403" lon="-5.487046">
        <ele>836.5628849398345</ele>
        <time>2022-05-21T10:18:36Z</time>
      </trkpt>
      <trkpt lat="42.564389" lon="-5.487176">
        <ele>839.7406859500334</ele>
        <time>2022-05-21T10:18:44Z</time>
      </trkpt>
      <trkpt lat="42.564389" lon="-5.487298">
        <ele>840.271101850085</ele>
        <time>2022-05-21T10:18:50Z</time>
      </trkpt>
      <trkpt lat="42.564378" lon="-5.48742">
        <ele>842.5753543367609</ele>
        <time>2022-05-21T10:18:57Z</time>
      </trkpt>
      <trkpt lat="42.564388" lon="-5.487553">
        <ele>844.1484817210585</ele>
        <time>2022-05-21T10:19:04Z</time>
      </trkpt>
      <trkpt lat="42.564386" lon="-5.487675">
        <ele>845.4840643266216</ele>
        <time>2022-05-21T10:19:10Z</time>
      </trkpt>
      <trkpt lat="42.564399" lon="-5.487805">
        <ele>846.0839627310634</ele>
        <time>2022-05-21T10:19:17Z</time>
      </trkpt>
      <trkpt lat="42.564381" lon="-5.487928">
        <ele>845.8539994200692</ele>
        <time>2022-05-21T10:19:25Z</time>
      </trkpt>
      <trkpt lat="42.564379" lon="-5.488056">
        <ele>846.1911425227299</ele>
        <time>2022-05-21T10:19:35Z</time>
      </trkpt>
      <trkpt lat="42.564374" lon="-5.48819">
        <ele>844.3786653559655</ele>
        <time>2022-05-21T10:19:42Z</time>
      </trkpt>
      <trkpt lat="42.564401" lon="-5.488323">
        <ele>845.3215699028224</ele>
        <time>2022-05-21T10:19:50Z</time>
      </trkpt>
      <trkpt lat="42.564429" lon="-5.488446">
        <ele>844.7859126124531</ele>
        <time>2022-05-21T10:19:57Z</time>
      </trkpt>
      <trkpt lat="42.564445" lon="-5.488576">
        <ele>845.2681342121214</ele>
        <time>2022-05-21T10:20:06Z</time>
      </trkpt>
      <trkpt lat="42.564494" lon="-5.488684">
        <ele>844.1207442590967</ele>
        <time>2022-05-21T10:20:13Z</time>
      </trkpt>
      <trkpt lat="42.564542" lon="-5.488802">
        <ele>842.5290998127311</ele>
        <time>2022-05-21T10:20:21Z</time>
      </trkpt>
      <trkpt lat="42.564579" lon="-5.488919">
        <ele>842.4954465040937</ele>
        <time>2022-05-21T10:20:31Z</time>
      </trkpt>
      <trkpt lat="42.564617" lon="-5.489037">
        <ele>839.4691753322259</ele>
        <time>2022-05-21T10:20:40Z</time>
      </trkpt>
      <trkpt lat="42.564657" lon="-5.489149">
        <ele>838.726300848648</ele>
        <time>2022-05-21T10:20:47Z</time>
      </trkpt>
      <trkpt lat="42.564699" lon="-5.489258">
        <ele>838.2020066818222</ele>
        <time>2022-05-21T10:20:55Z</time>
      </trkpt>
      <trkpt lat="42.564766" lon="-5.48936">
        <ele>840.1415121518075</ele>
        <time>2022-05-21T10:21:04Z</time>
      </trkpt>
      <trkpt lat="42.564823" lon="-5.489468">
        <ele>841.2143839783967</ele>
        <time>2022-05-21T10:21:11Z</time>
      </trkpt>
      <trkpt lat="42.564853" lon="-5.489588">
        <ele>844.0341629637405</ele>
        <time>2022-05-21T10:21:19Z</time>
      </trkpt>
      <trkpt lat="42.564894" lon="-5.489704">
        <ele>844.4080525115132</ele>
        <time>2022-05-21T10:21:27Z</time>
      </trkpt>
      <trkpt lat="42.564925" lon="-5.48982">
        <ele>845.141407459043</ele>
        <time>2022-05-21T10:21:35Z</time>
      </trkpt>
      <trkpt lat="42.564954" lon="-5.489939">
        <ele>848.6808667192236</ele>
        <time>2022-05-21T10:21:42Z</time>
      </trkpt>
      <trkpt lat="42.564964" lon="-5.490069">
        <ele>849.6014235308394</ele>
        <time>2022-05-21T10:21:51Z</time>
      </trkpt>
      <trkpt lat="42.565012" lon="-5.490182">
        <ele>850.6317710820585</ele>
        <time>2022-05-21T10:21:57Z</time>
      </trkpt>
      <trkpt lat="42.565069" lon="-5.490295">
        <ele>849.8438166361302</ele>
        <time>2022-05-21T10:22:05Z</time>
      </trkpt>
      <trkpt lat="42.565101" lon="-5.490423">
        <ele>851.3519114879891</ele>
        <time>2022-05-21T10:22:12Z</time>
      </trkpt>
      <trkpt lat="42.565153" lon="-5.490525">
        <ele>851.730599061586</ele>
        <time>2022-05-21T10:22:19Z</time>
      </trkpt>
      <trkpt lat="42.565169" lon="-5.49065">
        <ele>852.8148655267432</ele>
        <time>2022-05-21T10:22:27Z</time>
      </trkpt>
      <trkpt lat="42.565186" lon="-5.490772">
        <ele>854.9045863347128</ele>
        <time>2022-05-21T10:22:37Z</time>
      </trkpt>
      <trkpt lat="42.565207" lon="-5.490892">
        <ele>854.7542953640223</ele>
        <time>2022-05-21T10:22:45Z</time>
      </trkpt>
      <trkpt lat="42.565243" lon="-5.491015">
        <ele>857.0061679044738</ele>
        <time>2022-05-21T10:22:52Z</time>
      </trkpt>
      <trkpt lat="42.56527" lon="-5.491146">
        <ele>856.1162418564782</ele>
        <time>2022-05-21T10:23:01Z</time>
      </trkpt>
      <trkpt lat="42.565286" lon="-5.491272">
        <ele>857.2755393628031</ele>
        <time>2022-05-21T10:23:07Z</time>
      </trkpt>
      <trkpt lat="42.565323" lon="-5.491389">
        <ele>859.11844002828</ele>
        <time>2022-05-21T10:23:16Z</time>
      </trkpt>
      <trkpt lat="42.565365" lon="-5.491506">
        <ele>858.766346000135</ele>
        <time>2022-05-21T10:23:22Z</time>
      </trkpt>
      <trkpt lat="42.565384" lon="-5.49163">
        <ele>861.6230975985527</ele>
        <time>2022-05-21T10:23:31Z</time>
      </trkpt>
      <trkpt lat="42.565416" lon="-5.491749">
        <ele>863.5581853901967</ele>
        <time>2022-05-21T10:23:37Z</time>
      </trkpt>
      <trkpt lat="42.565456" lon="-5.491862">
        <ele>865.296523168683</ele>
        <time>2022-05-21T10:23:45Z</time>
      </trkpt>
      <trkpt lat="42.565503" lon="-5.491989">
        <ele>867.6712369583547</ele>
        <time>2022-05-21T10:23:54Z</time>
      </trkpt>
      <trkpt lat="42.565554" lon="-5.492099">
        <ele>868.0911462754011</ele>
        <time>2022-05-21T10:24:00Z</time>
      </trkpt>
      <trkpt lat="42.565574" lon="-5.492235">
        <ele>869.0534549672157</ele>
        <time>2022-05-21T10:24:09Z</time>
      </trkpt>
      <trkpt lat="42.565632" lon="-5.492349">
        <ele>868.9733797097579</ele>
        <time>2022-05-21T10:24:16Z</time>
      </trkpt>
      <trkpt lat="42.56565" lon="-5.492469">
        <ele>869.793653360568</ele>
        <time>2022-05-21T10:24:24Z</time>
      </trkpt>
      <trkpt lat="42.56569" lon="-5.492586">
        <ele>869.1104673165828</ele>
        <time>2022-05-21T10:24:31Z</time>
      </trkpt>
      <trkpt lat="42.565708" lon="-5.492706">
        <ele>866.8907352676615</ele>
        <time>2022-05-21T10:24:40Z</time>
      </trkpt>
      <trkpt lat="42.565727" lon="-5.492832">
        <ele>867.3450946779922</ele>
        <time>2022-05-21T10:24:47Z</time>
      </trkpt>
      <trkpt lat="42.565774" lon="-5.49295">
        <ele>868.2240361664444</ele>
        <time>2022-05-21T10:24:57Z</time>
      </trkpt>
      <trkpt lat="42.56582" lon="-5.493059">
        <ele>867.3097566971555</ele>
        <time>2022-05-21T10:25:05Z</time>
      </trkpt>
      <trkpt lat="42.565873" lon="-5.493169">
        <ele>866.2020250326023</ele>
        <time>2022-05-21T10:25:12Z</time>
      </trkpt>
      <trkpt lat="42.565947" lon="-5.493264">
        <ele>865.1160939596593</ele>
        <time>2022-05-21T10:25:20Z</time>
      </trkpt>
      <trkpt lat="42.56601" lon="-5.493366">
        <ele>864.1336452811956</ele>
        <time>2022-05-21T10:25:27Z</time>
      </trkpt>
      <trkpt lat="42.566072" lon="-5.493456">
        <ele>862.9950267691165</ele>
        <time>2022-05-21T10:25:34Z</time>
      </trkpt>
      <trkpt lat="42.566132" lon="-5.493553">
        <ele>862.3399255871773</ele>
        <time>2022-05-21T10:25:41Z</time>
      </trkpt>
      <trkpt lat="42.56619" lon="-5.493652">
        <ele>860.481055047363</ele>
        <time>2022-05-21T10:25:50Z</time>
      </trkpt>
      <trkpt lat="42.56618" lon="-5.49378">
        <ele>861.4437365280464</ele>
        <time>2022-05-21T10:26:06Z</time>
      </trkpt>
      <trkpt lat="42.566206" lon="-5.493663">
        <ele>904.5797968981788</ele>
        <time>2022-05-21T10:53:25Z</time>
      </trkpt>
      <trkpt lat="42.5663" lon="-5.493708">
        <ele>905.4368337355554</ele>
        <time>2022-05-21T10:53:34Z</time>
      </trkpt>
      <trkpt lat="42.566384" lon="-5.49378">
        <ele>904.6859914222732</ele>
        <time>2022-05-21T10:53:41Z</time>
      </trkpt>
      <trkpt lat="42.56646" lon="-5.493858">
        <ele>905.8910322431475</ele>
        <time>2022-05-21T10:53:50Z</time>
      </trkpt>
      <trkpt lat="42.566526" lon="-5.493945">
        <ele>907.1777971927077</ele>
        <time>2022-05-21T10:54:00Z</time>
      </trkpt>
      <trkpt lat="42.566585" lon="-5.494043">
        <ele>910.2321760095656</ele>
        <time>2022-05-21T10:54:14Z</time>
      </trkpt>
      <trkpt lat="42.566654" lon="-5.494144">
        <ele>912.7808307018131</ele>
        <time>2022-05-21T10:54:22Z</time>
      </trkpt>
      <trkpt lat="42.566695" lon="-5.494258">
        <ele>913.7049258714542</ele>
        <time>2022-05-21T10:54:31Z</time>
      </trkpt>
      <trkpt lat="42.566741" lon="-5.494369">
        <ele>915.7907042792067</ele>
        <time>2022-05-21T10:54:39Z</time>
      </trkpt>
      <trkpt lat="42.566762" lon="-5.494492">
        <ele>917.5135871069506</ele>
        <time>2022-05-21T10:54:49Z</time>
      </trkpt>
      <trkpt lat="42.566781" lon="-5.494615">
        <ele>920.5086650317535</ele>
        <time>2022-05-21T10:54:57Z</time>
      </trkpt>
      <trkpt lat="42.566815" lon="-5.494736">
        <ele>924.6079326160252</ele>
        <time>2022-05-21T10:55:07Z</time>
      </trkpt>
      <trkpt lat="42.566864" lon="-5.494852">
        <ele>925.8588451612741</ele>
        <time>2022-05-21T10:55:17Z</time>
      </trkpt>
      <trkpt lat="42.566923" lon="-5.494961">
        <ele>927.159723921679</ele>
        <time>2022-05-21T10:55:25Z</time>
      </trkpt>
      <trkpt lat="42.566971" lon="-5.495065">
        <ele>928.269485685043</ele>
        <time>2022-05-21T10:55:32Z</time>
      </trkpt>
      <trkpt lat="42.567006" lon="-5.495181">
        <ele>929.1545078372583</ele>
        <time>2022-05-21T10:55:44Z</time>
      </trkpt>
      <trkpt lat="42.567052" lon="-5.495302">
        <ele>927.9187181256711</ele>
        <time>2022-05-21T10:55:52Z</time>
      </trkpt>
      <trkpt lat="42.567092" lon="-5.495421">
        <ele>924.3568544397131</ele>
        <time>2022-05-21T10:56:01Z</time>
      </trkpt>
      <trkpt lat="42.567153" lon="-5.495516">
        <ele>921.6787294475362</ele>
        <time>2022-05-21T10:56:09Z</time>
      </trkpt>
      <trkpt lat="42.567209" lon="-5.49562">
        <ele>919.5168235925958</ele>
        <time>2022-05-21T10:56:19Z</time>
      </trkpt>
      <trkpt lat="42.567281" lon="-5.495718">
        <ele>919.2151834210381</ele>
        <time>2022-05-21T10:56:29Z</time>
      </trkpt>
      <trkpt lat="42.567321" lon="-5.49584">
        <ele>919.0022723628208</ele>
        <time>2022-05-21T10:56:37Z</time>
      </trkpt>
      <trkpt lat="42.567297" lon="-5.495959">
        <ele>919.8801109269261</ele>
        <time>2022-05-21T10:56:44Z</time>
      </trkpt>
      <trkpt lat="42.56732" lon="-5.496087">
        <ele>919.1013593906537</ele>
        <time>2022-05-21T10:56:52Z</time>
      </trkpt>
      <trkpt lat="42.567321" lon="-5.496216">
        <ele>920.445075568743</ele>
        <time>2022-05-21T10:57:02Z</time>
      </trkpt>
      <trkpt lat="42.56734" lon="-5.49634">
        <ele>921.4332414399832</ele>
        <time>2022-05-21T10:57:11Z</time>
      </trkpt>
      <trkpt lat="42.567387" lon="-5.496458">
        <ele>917.3758348328993</ele>
        <time>2022-05-21T10:57:26Z</time>
      </trkpt>
      <trkpt lat="42.567424" lon="-5.496575">
        <ele>914.5744979986921</ele>
        <time>2022-05-21T10:57:39Z</time>
      </trkpt>
      <trkpt lat="42.567465" lon="-5.4967">
        <ele>913.5693231699988</ele>
        <time>2022-05-21T10:57:47Z</time>
      </trkpt>
      <trkpt lat="42.567514" lon="-5.49681">
        <ele>914.4916240097955</ele>
        <time>2022-05-21T10:57:56Z</time>
      </trkpt>
      <trkpt lat="42.56755" lon="-5.496938">
        <ele>917.1656334111467</ele>
        <time>2022-05-21T10:58:11Z</time>
      </trkpt>
      <trkpt lat="42.567582" lon="-5.497055">
        <ele>919.4167730053887</ele>
        <time>2022-05-21T10:58:19Z</time>
      </trkpt>
      <trkpt lat="42.567602" lon="-5.497184">
        <ele>919.4495698716491</ele>
        <time>2022-05-21T10:58:27Z</time>
      </trkpt>
      <trkpt lat="42.567603" lon="-5.497307">
        <ele>920.9082576977089</ele>
        <time>2022-05-21T10:58:37Z</time>
      </trkpt>
      <trkpt lat="42.567593" lon="-5.497433">
        <ele>921.8899807846174</ele>
        <time>2022-05-21T10:58:46Z</time>
      </trkpt>
      <trkpt lat="42.567584" lon="-5.497568">
        <ele>922.5879914341494</ele>
        <time>2022-05-21T10:58:55Z</time>
      </trkpt>
      <trkpt lat="42.567592" lon="-5.497698">
        <ele>923.6986904321238</ele>
        <time>2022-05-21T10:59:05Z</time>
      </trkpt>
      <trkpt lat="42.567584" lon="-5.497831">
        <ele>925.9406606890261</ele>
        <time>2022-05-21T10:59:14Z</time>
      </trkpt>
      <trkpt lat="42.567593" lon="-5.497954">
        <ele>927.0163056086749</ele>
        <time>2022-05-21T10:59:21Z</time>
      </trkpt>
      <trkpt lat="42.567589" lon="-5.498084">
        <ele>927.2893998976797</ele>
        <time>2022-05-21T10:59:29Z</time>
      </trkpt>
      <trkpt lat="42.567591" lon="-5.498211">
        <ele>927.6389741813764</ele>
        <time>2022-05-21T10:59:37Z</time>
      </trkpt>
      <trkpt lat="42.56761" lon="-5.498331">
        <ele>928.5147069748491</ele>
        <time>2022-05-21T10:59:45Z</time>
      </trkpt>
      <trkpt lat="42.567615" lon="-5.498468">
        <ele>928.1757891047746</ele>
        <time>2022-05-21T10:59:54Z</time>
      </trkpt>
      <trkpt lat="42.567634" lon="-5.498604">
        <ele>929.2781315138564</ele>
        <time>2022-05-21T11:00:04Z</time>
      </trkpt>
      <trkpt lat="42.567646" lon="-5.498736">
        <ele>929.7006601113826</ele>
        <time>2022-05-21T11:00:12Z</time>
      </trkpt>
      <trkpt lat="42.567655" lon="-5.498875">
        <ele>929.5867428565398</ele>
        <time>2022-05-21T11:00:21Z</time>
      </trkpt>
      <trkpt lat="42.567682" lon="-5.499002">
        <ele>928.6930700652301</ele>
        <time>2022-05-21T11:00:30Z</time>
      </trkpt>
      <trkpt lat="42.567682" lon="-5.499124">
        <ele>929.582941644825</ele>
        <time>2022-05-21T11:00:39Z</time>
      </trkpt>
      <trkpt lat="42.567689" lon="-5.499265">
        <ele>929.398385534063</ele>
        <time>2022-05-21T11:00:47Z</time>
      </trkpt>
      <trkpt lat="42.567704" lon="-5.499393">
        <ele>929.7664110548794</ele>
        <time>2022-05-21T11:00:56Z</time>
      </trkpt>
      <trkpt lat="42.567731" lon="-5.499521">
        <ele>929.0132200177759</ele>
        <time>2022-05-21T11:01:02Z</time>
      </trkpt>
      <trkpt lat="42.567761" lon="-5.499641">
        <ele>928.5750193996355</ele>
        <time>2022-05-21T11:01:10Z</time>
      </trkpt>
      <trkpt lat="42.567771" lon="-5.499772">
        <ele>927.5453683370724</ele>
        <time>2022-05-21T11:01:19Z</time>
      </trkpt>
      <trkpt lat="42.567794" lon="-5.499897">
        <ele>926.8532253056765</ele>
        <time>2022-05-21T11:01:26Z</time>
      </trkpt>
      <trkpt lat="42.567816" lon="-5.500021">
        <ele>925.5899690296501</ele>
        <time>2022-05-21T11:01:34Z</time>
      </trkpt>
      <trkpt lat="42.567835" lon="-5.500147">
        <ele>924.3039984954521</ele>
        <time>2022-05-21T11:01:41Z</time>
      </trkpt>
      <trkpt lat="42.567851" lon="-5.50027">
        <ele>926.0107776364312</ele>
        <time>2022-05-21T11:01:53Z</time>
      </trkpt>
      <trkpt lat="42.567865" lon="-5.500406">
        <ele>924.9983005272225</ele>
        <time>2022-05-21T11:02:01Z</time>
      </trkpt>
      <trkpt lat="42.567883" lon="-5.500529">
        <ele>924.8041534116492</ele>
        <time>2022-05-21T11:02:07Z</time>
      </trkpt>
      <trkpt lat="42.567894" lon="-5.500667">
        <ele>924.2798457816243</ele>
        <time>2022-05-21T11:02:16Z</time>
      </trkpt>
      <trkpt lat="42.567901" lon="-5.500794">
        <ele>924.2770039634779</ele>
        <time>2022-05-21T11:02:22Z</time>
      </trkpt>
      <trkpt lat="42.567908" lon="-5.500931">
        <ele>923.7619258509949</ele>
        <time>2022-05-21T11:02:32Z</time>
      </trkpt>
      <trkpt lat="42.567937" lon="-5.501048">
        <ele>924.3351590391248</ele>
        <time>2022-05-21T11:02:39Z</time>
      </trkpt>
      <trkpt lat="42.567969" lon="-5.501175">
        <ele>923.8997789826244</ele>
        <time>2022-05-21T11:02:47Z</time>
      </trkpt>
      <trkpt lat="42.567995" lon="-5.501303">
        <ele>924.0584695683792</ele>
        <time>2022-05-21T11:02:57Z</time>
      </trkpt>
      <trkpt lat="42.56801" lon="-5.50144">
        <ele>923.8468677988276</ele>
        <time>2022-05-21T11:03:06Z</time>
      </trkpt>
      <trkpt lat="42.568019" lon="-5.501563">
        <ele>923.734192491509</ele>
        <time>2022-05-21T11:03:14Z</time>
      </trkpt>
      <trkpt lat="42.568042" lon="-5.501685">
        <ele>924.0203691115603</ele>
        <time>2022-05-21T11:03:21Z</time>
      </trkpt>
      <trkpt lat="42.568047" lon="-5.501816">
        <ele>924.4665159042925</ele>
        <time>2022-05-21T11:03:30Z</time>
      </trkpt>
      <trkpt lat="42.568058" lon="-5.501945">
        <ele>924.1058501116931</ele>
        <time>2022-05-21T11:03:39Z</time>
      </trkpt>
      <trkpt lat="42.568085" lon="-5.502081">
        <ele>925.4471227275208</ele>
        <time>2022-05-21T11:03:46Z</time>
      </trkpt>
      <trkpt lat="42.568102" lon="-5.502216">
        <ele>925.6575481016189</ele>
        <time>2022-05-21T11:03:55Z</time>
      </trkpt>
      <trkpt lat="42.568124" lon="-5.502352">
        <ele>924.7995954221115</ele>
        <time>2022-05-21T11:04:04Z</time>
      </trkpt>
      <trkpt lat="42.568152" lon="-5.502468">
        <ele>924.2832310209051</ele>
        <time>2022-05-21T11:04:10Z</time>
      </trkpt>
      <trkpt lat="42.568189" lon="-5.502586">
        <ele>925.5855970894918</ele>
        <time>2022-05-21T11:04:19Z</time>
      </trkpt>
      <trkpt lat="42.568208" lon="-5.502714">
        <ele>925.3880984568968</ele>
        <time>2022-05-21T11:04:26Z</time>
      </trkpt>
      <trkpt lat="42.568228" lon="-5.502837">
        <ele>925.2266539297998</ele>
        <time>2022-05-21T11:04:34Z</time>
      </trkpt>
      <trkpt lat="42.568247" lon="-5.502963">
        <ele>924.7702510245144</ele>
        <time>2022-05-21T11:04:42Z</time>
      </trkpt>
      <trkpt lat="42.568273" lon="-5.503082">
        <ele>924.4365602489561</ele>
        <time>2022-05-21T11:04:51Z</time>
      </trkpt>
      <trkpt lat="42.568284" lon="-5.503209">
        <ele>924.3339273929596</ele>
        <time>2022-05-21T11:04:59Z</time>
      </trkpt>
      <trkpt lat="42.56832" lon="-5.503329">
        <ele>925.8725980827585</ele>
        <time>2022-05-21T11:05:07Z</time>
      </trkpt>
      <trkpt lat="42.568335" lon="-5.503459">
        <ele>926.5089819952846</ele>
        <time>2022-05-21T11:05:14Z</time>
      </trkpt>
      <trkpt lat="42.568362" lon="-5.50358">
        <ele>925.4369791476056</ele>
        <time>2022-05-21T11:05:21Z</time>
      </trkpt>
      <trkpt lat="42.568375" lon="-5.503702">
        <ele>924.8539921492338</ele>
        <time>2022-05-21T11:05:29Z</time>
      </trkpt>
      <trkpt lat="42.568402" lon="-5.503823">
        <ele>923.3779456727207</ele>
        <time>2022-05-21T11:05:37Z</time>
      </trkpt>
      <trkpt lat="42.568464" lon="-5.503926">
        <ele>922.3524106070399</ele>
        <time>2022-05-21T11:05:46Z</time>
      </trkpt>
      <trkpt lat="42.568508" lon="-5.504043">
        <ele>920.9417788693681</ele>
        <time>2022-05-21T11:05:52Z</time>
      </trkpt>
      <trkpt lat="42.568559" lon="-5.504144">
        <ele>921.6748129231855</ele>
        <time>2022-05-21T11:06:01Z</time>
      </trkpt>
      <trkpt lat="42.568609" lon="-5.504258">
        <ele>922.8699275776744</ele>
        <time>2022-05-21T11:06:07Z</time>
      </trkpt>
      <trkpt lat="42.568648" lon="-5.504383">
        <ele>921.1963716614991</ele>
        <time>2022-05-21T11:06:17Z</time>
      </trkpt>
      <trkpt lat="42.56869" lon="-5.504496">
        <ele>921.8376020975411</ele>
        <time>2022-05-21T11:06:24Z</time>
      </trkpt>
      <trkpt lat="42.568732" lon="-5.50461">
        <ele>921.447017245926</ele>
        <time>2022-05-21T11:06:31Z</time>
      </trkpt>
      <trkpt lat="42.568771" lon="-5.504727">
        <ele>920.2128358073533</ele>
        <time>2022-05-21T11:06:39Z</time>
      </trkpt>
      <trkpt lat="42.568833" lon="-5.504825">
        <ele>920.5765444720164</ele>
        <time>2022-05-21T11:06:45Z</time>
      </trkpt>
      <trkpt lat="42.568874" lon="-5.504944">
        <ele>919.7950388332829</ele>
        <time>2022-05-21T11:06:52Z</time>
      </trkpt>
      <trkpt lat="42.56892" lon="-5.505053">
        <ele>919.6728821080178</ele>
        <time>2022-05-21T11:07:00Z</time>
      </trkpt>
      <trkpt lat="42.568981" lon="-5.50516">
        <ele>920.6107191853225</ele>
        <time>2022-05-21T11:07:07Z</time>
      </trkpt>
      <trkpt lat="42.569036" lon="-5.505259">
        <ele>921.1064830087125</ele>
        <time>2022-05-21T11:07:14Z</time>
      </trkpt>
      <trkpt lat="42.5691" lon="-5.50536">
        <ele>920.6180618852377</ele>
        <time>2022-05-21T11:07:22Z</time>
      </trkpt>
      <trkpt lat="42.569161" lon="-5.505466">
        <ele>920.1850483631715</ele>
        <time>2022-05-21T11:07:29Z</time>
      </trkpt>
      <trkpt lat="42.569215" lon="-5.505584">
        <ele>918.4804534157738</ele>
        <time>2022-05-21T11:07:37Z</time>
      </trkpt>
      <trkpt lat="42.569265" lon="-5.505692">
        <ele>919.4258272489533</ele>
        <time>2022-05-21T11:07:44Z</time>
      </trkpt>
      <trkpt lat="42.569313" lon="-5.505809">
        <ele>917.8377295630053</ele>
        <time>2022-05-21T11:07:52Z</time>
      </trkpt>
      <trkpt lat="42.56935" lon="-5.505929">
        <ele>916.1129985237494</ele>
        <time>2022-05-21T11:08:01Z</time>
      </trkpt>
      <trkpt lat="42.569381" lon="-5.506044">
        <ele>915.077327074483</ele>
        <time>2022-05-21T11:08:07Z</time>
      </trkpt>
      <trkpt lat="42.569431" lon="-5.506164">
        <ele>914.2743539512157</ele>
        <time>2022-05-21T11:08:17Z</time>
      </trkpt>
      <trkpt lat="42.569472" lon="-5.50629">
        <ele>915.690051346086</ele>
        <time>2022-05-21T11:08:25Z</time>
      </trkpt>
      <trkpt lat="42.569508" lon="-5.506403">
        <ele>915.6806987402961</ele>
        <time>2022-05-21T11:08:32Z</time>
      </trkpt>
      <trkpt lat="42.569536" lon="-5.50652">
        <ele>917.7364366939291</ele>
        <time>2022-05-21T11:08:40Z</time>
      </trkpt>
      <trkpt lat="42.569567" lon="-5.506649">
        <ele>918.6314391996711</ele>
        <time>2022-05-21T11:08:47Z</time>
      </trkpt>
      <trkpt lat="42.569583" lon="-5.506784">
        <ele>919.4031535061076</ele>
        <time>2022-05-21T11:08:56Z</time>
      </trkpt>
      <trkpt lat="42.569616" lon="-5.506907">
        <ele>920.2312084976584</ele>
        <time>2022-05-21T11:09:02Z</time>
      </trkpt>
      <trkpt lat="42.569642" lon="-5.50703">
        <ele>919.1417057057843</ele>
        <time>2022-05-21T11:09:11Z</time>
      </trkpt>
      <trkpt lat="42.569681" lon="-5.507152">
        <ele>919.8972013657913</ele>
        <time>2022-05-21T11:09:19Z</time>
      </trkpt>
      <trkpt lat="42.569687" lon="-5.507281">
        <ele>918.7580758361146</ele>
        <time>2022-05-21T11:09:27Z</time>
      </trkpt>
      <trkpt lat="42.569716" lon="-5.507412">
        <ele>920.2029848080128</ele>
        <time>2022-05-21T11:09:36Z</time>
      </trkpt>
      <trkpt lat="42.569732" lon="-5.507545">
        <ele>922.2627225406468</ele>
        <time>2022-05-21T11:09:44Z</time>
      </trkpt>
      <trkpt lat="42.569749" lon="-5.507675">
        <ele>923.9936673156917</ele>
        <time>2022-05-21T11:09:51Z</time>
      </trkpt>
      <trkpt lat="42.569761" lon="-5.507807">
        <ele>925.2915809685364</ele>
        <time>2022-05-21T11:09:58Z</time>
      </trkpt>
      <trkpt lat="42.56981" lon="-5.507922">
        <ele>924.4805650832132</ele>
        <time>2022-05-21T11:10:07Z</time>
      </trkpt>
      <trkpt lat="42.569793" lon="-5.508068">
        <ele>923.2262696316466</ele>
        <time>2022-05-21T11:10:17Z</time>
      </trkpt>
      <trkpt lat="42.569754" lon="-5.508186">
        <ele>920.1617236100137</ele>
        <time>2022-05-21T11:10:23Z</time>
      </trkpt>
      <trkpt lat="42.569709" lon="-5.508304">
        <ele>918.9665582366288</ele>
        <time>2022-05-21T11:10:30Z</time>
      </trkpt>
      <trkpt lat="42.569669" lon="-5.508423">
        <ele>916.9010028801858</ele>
        <time>2022-05-21T11:10:38Z</time>
      </trkpt>
      <trkpt lat="42.569639" lon="-5.508539">
        <ele>915.358183408156</ele>
        <time>2022-05-21T11:10:48Z</time>
      </trkpt>
      <trkpt lat="42.569597" lon="-5.50866">
        <ele>914.6527403704822</ele>
        <time>2022-05-21T11:10:56Z</time>
      </trkpt>
      <trkpt lat="42.569556" lon="-5.508789">
        <ele>913.3236292852089</ele>
        <time>2022-05-21T11:11:04Z</time>
      </trkpt>
      <trkpt lat="42.569528" lon="-5.508906">
        <ele>912.092625840567</ele>
        <time>2022-05-21T11:11:12Z</time>
      </trkpt>
      <trkpt lat="42.569478" lon="-5.509012">
        <ele>910.4871625723317</ele>
        <time>2022-05-21T11:11:21Z</time>
      </trkpt>
      <trkpt lat="42.569446" lon="-5.509135">
        <ele>908.5944408904761</ele>
        <time>2022-05-21T11:11:30Z</time>
      </trkpt>
      <trkpt lat="42.569426" lon="-5.509255">
        <ele>907.1694698613137</ele>
        <time>2022-05-21T11:11:36Z</time>
      </trkpt>
      <trkpt lat="42.569385" lon="-5.50938">
        <ele>906.6935666892678</ele>
        <time>2022-05-21T11:11:44Z</time>
      </trkpt>
      <trkpt lat="42.569331" lon="-5.509498">
        <ele>907.48399826698</ele>
        <time>2022-05-21T11:11:52Z</time>
      </trkpt>
      <trkpt lat="42.569286" lon="-5.509606">
        <ele>907.7322370465845</ele>
        <time>2022-05-21T11:12:00Z</time>
      </trkpt>
      <trkpt lat="42.569236" lon="-5.509717">
        <ele>905.1550319073722</ele>
        <time>2022-05-21T11:12:09Z</time>
      </trkpt>
      <trkpt lat="42.569201" lon="-5.509833">
        <ele>905.2071574581787</ele>
        <time>2022-05-21T11:12:17Z</time>
      </trkpt>
      <trkpt lat="42.569219" lon="-5.509966">
        <ele>907.1240881681442</ele>
        <time>2022-05-21T11:12:32Z</time>
      </trkpt>
      <trkpt lat="42.569223" lon="-5.510092">
        <ele>908.0783119620755</ele>
        <time>2022-05-21T11:12:42Z</time>
      </trkpt>
      <trkpt lat="42.569261" lon="-5.51021">
        <ele>910.9130901480094</ele>
        <time>2022-05-21T11:12:56Z</time>
      </trkpt>
      <trkpt lat="42.56929" lon="-5.510337">
        <ele>913.8206905480474</ele>
        <time>2022-05-21T11:13:05Z</time>
      </trkpt>
      <trkpt lat="42.569341" lon="-5.510451">
        <ele>914.5646332008764</ele>
        <time>2022-05-21T11:13:16Z</time>
      </trkpt>
      <trkpt lat="42.569376" lon="-5.510565">
        <ele>913.4997010547668</ele>
        <time>2022-05-21T11:13:25Z</time>
      </trkpt>
      <trkpt lat="42.56941" lon="-5.510688">
        <ele>912.5181794222444</ele>
        <time>2022-05-21T11:13:32Z</time>
      </trkpt>
      <trkpt lat="42.569445" lon="-5.510809">
        <ele>912.3347358992323</ele>
        <time>2022-05-21T11:13:42Z</time>
      </trkpt>
      <trkpt lat="42.569408" lon="-5.510933">
        <ele>916.3345253458247</ele>
        <time>2022-05-21T11:14:41Z</time>
      </trkpt>
      <trkpt lat="42.569433" lon="-5.511051">
        <ele>920.8075441662222</ele>
        <time>2022-05-21T11:14:59Z</time>
      </trkpt>
      <trkpt lat="42.569403" lon="-5.511174">
        <ele>920.7743102051318</ele>
        <time>2022-05-21T11:15:07Z</time>
      </trkpt>
      <trkpt lat="42.569376" lon="-5.511294">
        <ele>920.5519121047109</ele>
        <time>2022-05-21T11:15:12Z</time>
      </trkpt>
      <trkpt lat="42.569382" lon="-5.511426">
        <ele>920.6948257703334</ele>
        <time>2022-05-21T11:15:21Z</time>
      </trkpt>
      <trkpt lat="42.569393" lon="-5.511549">
        <ele>921.4330662274733</ele>
        <time>2022-05-21T11:15:29Z</time>
      </trkpt>
      <trkpt lat="42.569389" lon="-5.511675">
        <ele>920.3680979590863</ele>
        <time>2022-05-21T11:15:36Z</time>
      </trkpt>
      <trkpt lat="42.569408" lon="-5.511802">
        <ele>919.6631584288552</ele>
        <time>2022-05-21T11:15:42Z</time>
      </trkpt>
      <trkpt lat="42.569423" lon="-5.511925">
        <ele>916.2516930745915</ele>
        <time>2022-05-21T11:15:52Z</time>
      </trkpt>
      <trkpt lat="42.569396" lon="-5.512047">
        <ele>916.1469030352309</ele>
        <time>2022-05-21T11:16:01Z</time>
      </trkpt>
      <trkpt lat="42.569384" lon="-5.512187">
        <ele>915.8153985021636</ele>
        <time>2022-05-21T11:16:09Z</time>
      </trkpt>
      <trkpt lat="42.569378" lon="-5.512312">
        <ele>916.2060177512467</ele>
        <time>2022-05-21T11:16:17Z</time>
      </trkpt>
      <trkpt lat="42.569389" lon="-5.512434">
        <ele>917.6712210187688</ele>
        <time>2022-05-21T11:16:24Z</time>
      </trkpt>
      <trkpt lat="42.569419" lon="-5.512565">
        <ele>917.3355997120962</ele>
        <time>2022-05-21T11:16:32Z</time>
      </trkpt>
      <trkpt lat="42.569454" lon="-5.512678">
        <ele>916.4740963345394</ele>
        <time>2022-05-21T11:16:41Z</time>
      </trkpt>
      <trkpt lat="42.569426" lon="-5.51281">
        <ele>917.6183894332498</ele>
        <time>2022-05-21T11:16:49Z</time>
      </trkpt>
      <trkpt lat="42.569394" lon="-5.512928">
        <ele>918.7317506223917</ele>
        <time>2022-05-21T11:16:56Z</time>
      </trkpt>
      <trkpt lat="42.569363" lon="-5.513059">
        <ele>917.7254773015156</ele>
        <time>2022-05-21T11:17:04Z</time>
      </trkpt>
      <trkpt lat="42.569286" lon="-5.513125">
        <ele>920.8799425987527</ele>
        <time>2022-05-21T11:17:34Z</time>
      </trkpt>
      <trkpt lat="42.569261" lon="-5.513267">
        <ele>918.3204999146983</ele>
        <time>2022-05-21T11:17:41Z</time>
      </trkpt>
      <trkpt lat="42.569236" lon="-5.513396">
        <ele>915.1822930099443</ele>
        <time>2022-05-21T11:17:47Z</time>
      </trkpt>
      <trkpt lat="42.569246" lon="-5.513525">
        <ele>912.4038551542908</ele>
        <time>2022-05-21T11:17:56Z</time>
      </trkpt>
      <trkpt lat="42.569227" lon="-5.513655">
        <ele>911.668991394341</ele>
        <time>2022-05-21T11:18:04Z</time>
      </trkpt>
      <trkpt lat="42.569236" lon="-5.513785">
        <ele>910.6013925336301</ele>
        <time>2022-05-21T11:18:15Z</time>
      </trkpt>
      <trkpt lat="42.569239" lon="-5.513914">
        <ele>909.4134405832738</ele>
        <time>2022-05-21T11:18:22Z</time>
      </trkpt>
      <trkpt lat="42.569271" lon="-5.51404">
        <ele>910.2824000287801</ele>
        <time>2022-05-21T11:18:32Z</time>
      </trkpt>
      <trkpt lat="42.569285" lon="-5.51417">
        <ele>910.4297099085525</ele>
        <time>2022-05-21T11:18:40Z</time>
      </trkpt>
      <trkpt lat="42.569313" lon="-5.514291">
        <ele>909.654114279896</ele>
        <time>2022-05-21T11:18:49Z</time>
      </trkpt>
      <trkpt lat="42.569402" lon="-5.514334">
        <ele>912.3083210010082</ele>
        <time>2022-05-21T11:19:10Z</time>
      </trkpt>
      <trkpt lat="42.569458" lon="-5.514431">
        <ele>918.1855037566274</ele>
        <time>2022-05-21T11:19:33Z</time>
      </trkpt>
      <trkpt lat="42.569519" lon="-5.514539">
        <ele>921.3609324460849</ele>
        <time>2022-05-21T11:19:40Z</time>
      </trkpt>
      <trkpt lat="42.56956" lon="-5.514663">
        <ele>921.6237690579146</ele>
        <time>2022-05-21T11:19:48Z</time>
      </trkpt>
      <trkpt lat="42.569594" lon="-5.514806">
        <ele>921.551476274617</ele>
        <time>2022-05-21T11:19:58Z</time>
      </trkpt>
      <trkpt lat="42.569605" lon="-5.514931">
        <ele>918.5689874980599</ele>
        <time>2022-05-21T11:20:06Z</time>
      </trkpt>
      <trkpt lat="42.569648" lon="-5.515042">
        <ele>913.6332951998338</ele>
        <time>2022-05-21T11:20:14Z</time>
      </trkpt>
      <trkpt lat="42.569698" lon="-5.515152">
        <ele>910.955069183372</ele>
        <time>2022-05-21T11:20:22Z</time>
      </trkpt>
      <trkpt lat="42.569761" lon="-5.515252">
        <ele>911.4828011998907</ele>
        <time>2022-05-21T11:20:31Z</time>
      </trkpt>
      <trkpt lat="42.569791" lon="-5.515371">
        <ele>912.9182390766218</ele>
        <time>2022-05-21T11:20:40Z</time>
      </trkpt>
      <trkpt lat="42.569828" lon="-5.515492">
        <ele>913.8526316061616</ele>
        <time>2022-05-21T11:20:47Z</time>
      </trkpt>
      <trkpt lat="42.569854" lon="-5.515621">
        <ele>915.4170059096068</ele>
        <time>2022-05-21T11:20:56Z</time>
      </trkpt>
      <trkpt lat="42.569837" lon="-5.515745">
        <ele>916.2337225871161</ele>
        <time>2022-05-21T11:21:04Z</time>
      </trkpt>
      <trkpt lat="42.569789" lon="-5.515862">
        <ele>915.3465172182769</ele>
        <time>2022-05-21T11:21:11Z</time>
      </trkpt>
      <trkpt lat="42.569761" lon="-5.515984">
        <ele>917.9522190690041</ele>
        <time>2022-05-21T11:21:17Z</time>
      </trkpt>
      <trkpt lat="42.569743" lon="-5.516104">
        <ele>918.969359091483</ele>
        <time>2022-05-21T11:21:26Z</time>
      </trkpt>
      <trkpt lat="42.56976" lon="-5.51623">
        <ele>918.011328724213</ele>
        <time>2022-05-21T11:21:32Z</time>
      </trkpt>
      <trkpt lat="42.569798" lon="-5.516345">
        <ele>915.2977302307263</ele>
        <time>2022-05-21T11:21:39Z</time>
      </trkpt>
      <trkpt lat="42.569833" lon="-5.516458">
        <ele>912.8535498697311</ele>
        <time>2022-05-21T11:21:45Z</time>
      </trkpt>
      <trkpt lat="42.569848" lon="-5.516586">
        <ele>910.2317596916109</ele>
        <time>2022-05-21T11:21:52Z</time>
      </trkpt>
      <trkpt lat="42.569876" lon="-5.51671">
        <ele>905.8569001359865</ele>
        <time>2022-05-21T11:22:01Z</time>
      </trkpt>
      <trkpt lat="42.569934" lon="-5.516815">
        <ele>905.2079281387851</ele>
        <time>2022-05-21T11:22:09Z</time>
      </trkpt>
      <trkpt lat="42.569973" lon="-5.516939">
        <ele>903.763241908513</ele>
        <time>2022-05-21T11:22:17Z</time>
      </trkpt>
      <trkpt lat="42.569987" lon="-5.517077">
        <ele>902.1194206625223</ele>
        <time>2022-05-21T11:22:26Z</time>
      </trkpt>
      <trkpt lat="42.569995" lon="-5.517214">
        <ele>903.3296485161409</ele>
        <time>2022-05-21T11:22:32Z</time>
      </trkpt>
      <trkpt lat="42.570003" lon="-5.517338">
        <ele>904.0820774277672</ele>
        <time>2022-05-21T11:22:41Z</time>
      </trkpt>
      <trkpt lat="42.569997" lon="-5.517466">
        <ele>903.4289716500789</ele>
        <time>2022-05-21T11:22:47Z</time>
      </trkpt>
      <trkpt lat="42.570036" lon="-5.517585">
        <ele>902.936334611848</ele>
        <time>2022-05-21T11:22:56Z</time>
      </trkpt>
      <trkpt lat="42.570066" lon="-5.517708">
        <ele>903.834727932699</ele>
        <time>2022-05-21T11:23:02Z</time>
      </trkpt>
      <trkpt lat="42.57008" lon="-5.517837">
        <ele>905.0526708047837</ele>
        <time>2022-05-21T11:23:09Z</time>
      </trkpt>
      <trkpt lat="42.570115" lon="-5.517954">
        <ele>907.1073016999289</ele>
        <time>2022-05-21T11:23:16Z</time>
      </trkpt>
      <trkpt lat="42.570152" lon="-5.518076">
        <ele>910.7672203667462</ele>
        <time>2022-05-21T11:23:26Z</time>
      </trkpt>
      <trkpt lat="42.570161" lon="-5.518199">
        <ele>912.3474324746057</ele>
        <time>2022-05-21T11:23:36Z</time>
      </trkpt>
      <trkpt lat="42.570096" lon="-5.518294">
        <ele>911.272005324252</ele>
        <time>2022-05-21T11:23:47Z</time>
      </trkpt>
      <trkpt lat="42.570041" lon="-5.518391">
        <ele>911.9492989219725</ele>
        <time>2022-05-21T11:23:59Z</time>
      </trkpt>
      <trkpt lat="42.570126" lon="-5.51846">
        <ele>913.7768780766055</ele>
        <time>2022-05-21T11:24:06Z</time>
      </trkpt>
      <trkpt lat="42.570145" lon="-5.51859">
        <ele>913.1755781751126</ele>
        <time>2022-05-21T11:24:15Z</time>
      </trkpt>
      <trkpt lat="42.570146" lon="-5.518719">
        <ele>911.5760529581457</ele>
        <time>2022-05-21T11:24:22Z</time>
      </trkpt>
      <trkpt lat="42.570148" lon="-5.518857">
        <ele>910.4421339752153</ele>
        <time>2022-05-21T11:24:29Z</time>
      </trkpt>
      <trkpt lat="42.570194" lon="-5.518963">
        <ele>911.6216365965083</ele>
        <time>2022-05-21T11:24:35Z</time>
      </trkpt>
      <trkpt lat="42.570231" lon="-5.519084">
        <ele>913.7348035750911</ele>
        <time>2022-05-21T11:24:42Z</time>
      </trkpt>
      <trkpt lat="42.570271" lon="-5.5192">
        <ele>914.3910865597427</ele>
        <time>2022-05-21T11:24:50Z</time>
      </trkpt>
      <trkpt lat="42.570346" lon="-5.519267">
        <ele>915.5139718716964</ele>
        <time>2022-05-21T11:27:42Z</time>
      </trkpt>
      <trkpt lat="42.570401" lon="-5.519375">
        <ele>916.3806100254878</ele>
        <time>2022-05-21T11:29:40Z</time>
      </trkpt>
      <trkpt lat="42.570451" lon="-5.519486">
        <ele>915.223037510179</ele>
        <time>2022-05-21T11:29:47Z</time>
      </trkpt>
      <trkpt lat="42.570494" lon="-5.519602">
        <ele>915.7934372927994</ele>
        <time>2022-05-21T11:29:56Z</time>
      </trkpt>
      <trkpt lat="42.570542" lon="-5.519731">
        <ele>914.6051596486941</ele>
        <time>2022-05-21T11:30:07Z</time>
      </trkpt>
      <trkpt lat="42.570566" lon="-5.519865">
        <ele>913.0155661283061</ele>
        <time>2022-05-21T11:30:17Z</time>
      </trkpt>
      <trkpt lat="42.570583" lon="-5.519994">
        <ele>914.6559623889625</ele>
        <time>2022-05-21T11:30:24Z</time>
      </trkpt>
      <trkpt lat="42.570635" lon="-5.520133">
        <ele>917.2972749704495</ele>
        <time>2022-05-21T11:30:33Z</time>
      </trkpt>
      <trkpt lat="42.570664" lon="-5.520249">
        <ele>918.0281264316291</ele>
        <time>2022-05-21T11:30:41Z</time>
      </trkpt>
      <trkpt lat="42.570676" lon="-5.520385">
        <ele>918.0222464054823</ele>
        <time>2022-05-21T11:30:48Z</time>
      </trkpt>
      <trkpt lat="42.570719" lon="-5.520531">
        <ele>918.531055024825</ele>
        <time>2022-05-21T11:30:58Z</time>
      </trkpt>
      <trkpt lat="42.570786" lon="-5.520622">
        <ele>916.9632597565651</ele>
        <time>2022-05-21T11:31:06Z</time>
      </trkpt>
      <trkpt lat="42.570788" lon="-5.520745">
        <ele>917.8816398885101</ele>
        <time>2022-05-21T11:31:12Z</time>
      </trkpt>
      <trkpt lat="42.57082" lon="-5.520864">
        <ele>918.1003424786031</ele>
        <time>2022-05-21T11:31:20Z</time>
      </trkpt>
      <trkpt lat="42.570838" lon="-5.520997">
        <ele>918.3802256891504</ele>
        <time>2022-05-21T11:31:29Z</time>
      </trkpt>
      <trkpt lat="42.570863" lon="-5.521122">
        <ele>918.5969843743369</ele>
        <time>2022-05-21T11:31:36Z</time>
      </trkpt>
      <trkpt lat="42.570876" lon="-5.521251">
        <ele>917.9880606299266</ele>
        <time>2022-05-21T11:31:42Z</time>
      </trkpt>
      <trkpt lat="42.570914" lon="-5.521377">
        <ele>917.8538823146373</ele>
        <time>2022-05-21T11:31:52Z</time>
      </trkpt>
      <trkpt lat="42.570953" lon="-5.521502">
        <ele>916.8986082458869</ele>
        <time>2022-05-21T11:32:02Z</time>
      </trkpt>
      <trkpt lat="42.570992" lon="-5.521622">
        <ele>916.8131350995973</ele>
        <time>2022-05-21T11:32:11Z</time>
      </trkpt>
      <trkpt lat="42.571038" lon="-5.52173">
        <ele>916.2338533299044</ele>
        <time>2022-05-21T11:32:19Z</time>
      </trkpt>
      <trkpt lat="42.571077" lon="-5.521856">
        <ele>915.6955919228494</ele>
        <time>2022-05-21T11:32:27Z</time>
      </trkpt>
      <trkpt lat="42.571139" lon="-5.521966">
        <ele>915.6121201990172</ele>
        <time>2022-05-21T11:32:36Z</time>
      </trkpt>
      <trkpt lat="42.571163" lon="-5.522102">
        <ele>915.5406310809776</ele>
        <time>2022-05-21T11:32:42Z</time>
      </trkpt>
      <trkpt lat="42.57119" lon="-5.522232">
        <ele>914.0438417019323</ele>
        <time>2022-05-21T11:32:51Z</time>
      </trkpt>
      <trkpt lat="42.571222" lon="-5.52235">
        <ele>913.148550410755</ele>
        <time>2022-05-21T11:32:57Z</time>
      </trkpt>
      <trkpt lat="42.571231" lon="-5.522476">
        <ele>914.1845320053399</ele>
        <time>2022-05-21T11:33:05Z</time>
      </trkpt>
      <trkpt lat="42.571236" lon="-5.522612">
        <ele>915.2052251175046</ele>
        <time>2022-05-21T11:33:12Z</time>
      </trkpt>
      <trkpt lat="42.571221" lon="-5.522752">
        <ele>916.8908357927576</ele>
        <time>2022-05-21T11:33:20Z</time>
      </trkpt>
      <trkpt lat="42.571224" lon="-5.522877">
        <ele>917.6994099104777</ele>
        <time>2022-05-21T11:33:26Z</time>
      </trkpt>
      <trkpt lat="42.571238" lon="-5.523012">
        <ele>921.3989392230287</ele>
        <time>2022-05-21T11:33:36Z</time>
      </trkpt>
      <trkpt lat="42.571268" lon="-5.523129">
        <ele>922.7659968342632</ele>
        <time>2022-05-21T11:33:44Z</time>
      </trkpt>
      <trkpt lat="42.571311" lon="-5.523247">
        <ele>922.7347247162834</ele>
        <time>2022-05-21T11:33:50Z</time>
      </trkpt>
      <trkpt lat="42.571371" lon="-5.523354">
        <ele>922.417256875895</ele>
        <time>2022-05-21T11:33:57Z</time>
      </trkpt>
      <trkpt lat="42.571417" lon="-5.523463">
        <ele>923.7815856514499</ele>
        <time>2022-05-21T11:34:06Z</time>
      </trkpt>
      <trkpt lat="42.571446" lon="-5.523593">
        <ele>927.2934056501836</ele>
        <time>2022-05-21T11:34:16Z</time>
      </trkpt>
      <trkpt lat="42.571434" lon="-5.523719">
        <ele>927.5317619955167</ele>
        <time>2022-05-21T11:34:21Z</time>
      </trkpt>
      <trkpt lat="42.571462" lon="-5.523849">
        <ele>928.786211614497</ele>
        <time>2022-05-21T11:34:31Z</time>
      </trkpt>
      <trkpt lat="42.571474" lon="-5.523974">
        <ele>928.8520358009264</ele>
        <time>2022-05-21T11:34:37Z</time>
      </trkpt>
      <trkpt lat="42.571542" lon="-5.524077">
        <ele>930.9553494863212</ele>
        <time>2022-05-21T11:34:44Z</time>
      </trkpt>
      <trkpt lat="42.571601" lon="-5.524177">
        <ele>932.3673114040866</ele>
        <time>2022-05-21T11:34:52Z</time>
      </trkpt>
      <trkpt lat="42.571649" lon="-5.524293">
        <ele>934.9966948386282</ele>
        <time>2022-05-21T11:35:02Z</time>
      </trkpt>
      <trkpt lat="42.571722" lon="-5.524388">
        <ele>939.5198177844286</ele>
        <time>2022-05-21T11:35:10Z</time>
      </trkpt>
      <trkpt lat="42.571797" lon="-5.524478">
        <ele>941.4210087945685</ele>
        <time>2022-05-21T11:35:17Z</time>
      </trkpt>
      <trkpt lat="42.571866" lon="-5.524578">
        <ele>944.2682467624545</ele>
        <time>2022-05-21T11:35:25Z</time>
      </trkpt>
      <trkpt lat="42.571915" lon="-5.524686">
        <ele>946.9838614407927</ele>
        <time>2022-05-21T11:35:34Z</time>
      </trkpt>
      <trkpt lat="42.571949" lon="-5.52482">
        <ele>945.8212205432355</ele>
        <time>2022-05-21T11:35:42Z</time>
      </trkpt>
      <trkpt lat="42.571988" lon="-5.524936">
        <ele>944.6323083899915</ele>
        <time>2022-05-21T11:35:51Z</time>
      </trkpt>
      <trkpt lat="42.572033" lon="-5.525053">
        <ele>944.6246723737568</ele>
        <time>2022-05-21T11:35:59Z</time>
      </trkpt>
      <trkpt lat="42.572052" lon="-5.525187">
        <ele>945.8427762473002</ele>
        <time>2022-05-21T11:36:06Z</time>
      </trkpt>
      <trkpt lat="42.572069" lon="-5.525313">
        <ele>946.1677223611623</ele>
        <time>2022-05-21T11:36:11Z</time>
      </trkpt>
      <trkpt lat="42.572099" lon="-5.52544">
        <ele>945.8500073058531</ele>
        <time>2022-05-21T11:36:19Z</time>
      </trkpt>
      <trkpt lat="42.572121" lon="-5.525567">
        <ele>944.7871683128178</ele>
        <time>2022-05-21T11:36:27Z</time>
      </trkpt>
      <trkpt lat="42.572146" lon="-5.525688">
        <ele>942.4026598408818</ele>
        <time>2022-05-21T11:36:36Z</time>
      </trkpt>
      <trkpt lat="42.572205" lon="-5.525781">
        <ele>940.4361191755161</ele>
        <time>2022-05-21T11:36:44Z</time>
      </trkpt>
      <trkpt lat="42.572259" lon="-5.525893">
        <ele>941.011763622053</ele>
        <time>2022-05-21T11:36:50Z</time>
      </trkpt>
      <trkpt lat="42.572291" lon="-5.526015">
        <ele>942.3802795223892</ele>
        <time>2022-05-21T11:36:57Z</time>
      </trkpt>
      <trkpt lat="42.572329" lon="-5.526133">
        <ele>941.0484293308109</ele>
        <time>2022-05-21T11:37:05Z</time>
      </trkpt>
      <trkpt lat="42.572368" lon="-5.526247">
        <ele>938.932530540973</ele>
        <time>2022-05-21T11:37:14Z</time>
      </trkpt>
      <trkpt lat="42.572385" lon="-5.526368">
        <ele>938.5696804122999</ele>
        <time>2022-05-21T11:37:21Z</time>
      </trkpt>
      <trkpt lat="42.572417" lon="-5.5265">
        <ele>935.3085340531543</ele>
        <time>2022-05-21T11:37:30Z</time>
      </trkpt>
      <trkpt lat="42.572455" lon="-5.526611">
        <ele>935.3291760589927</ele>
        <time>2022-05-21T11:37:36Z</time>
      </trkpt>
      <trkpt lat="42.572463" lon="-5.526759">
        <ele>930.6362278899178</ele>
        <time>2022-05-21T11:37:45Z</time>
      </trkpt>
      <trkpt lat="42.572443" lon="-5.526903">
        <ele>928.9618320399895</ele>
        <time>2022-05-21T11:37:51Z</time>
      </trkpt>
      <trkpt lat="42.572422" lon="-5.527037">
        <ele>927.2451591631398</ele>
        <time>2022-05-21T11:37:57Z</time>
      </trkpt>
      <trkpt lat="42.572428" lon="-5.527167">
        <ele>924.8266394436359</ele>
        <time>2022-05-21T11:38:05Z</time>
      </trkpt>
      <trkpt lat="42.572421" lon="-5.52729">
        <ele>925.0649349270388</ele>
        <time>2022-05-21T11:38:11Z</time>
      </trkpt>
      <trkpt lat="42.572419" lon="-5.527421">
        <ele>925.851623300463</ele>
        <time>2022-05-21T11:38:19Z</time>
      </trkpt>
      <trkpt lat="42.572404" lon="-5.527557">
        <ele>926.6703695924953</ele>
        <time>2022-05-21T11:38:25Z</time>
      </trkpt>
      <trkpt lat="42.572422" lon="-5.527677">
        <ele>925.6017504641786</ele>
        <time>2022-05-21T11:38:32Z</time>
      </trkpt>
      <trkpt lat="42.572424" lon="-5.527802">
        <ele>924.7035303488374</ele>
        <time>2022-05-21T11:38:39Z</time>
      </trkpt>
      <trkpt lat="42.572418" lon="-5.527935">
        <ele>924.2101421039551</ele>
        <time>2022-05-21T11:38:45Z</time>
      </trkpt>
      <trkpt lat="42.572398" lon="-5.52806">
        <ele>924.1468185922131</ele>
        <time>2022-05-21T11:38:52Z</time>
      </trkpt>
      <trkpt lat="42.572364" lon="-5.528183">
        <ele>924.2078045643866</ele>
        <time>2022-05-21T11:38:57Z</time>
      </trkpt>
      <trkpt lat="42.572324" lon="-5.528297">
        <ele>925.4597270442173</ele>
        <time>2022-05-21T11:39:04Z</time>
      </trkpt>
      <trkpt lat="42.57234" lon="-5.52843">
        <ele>926.5663125095889</ele>
        <time>2022-05-21T11:39:12Z</time>
      </trkpt>
      <trkpt lat="42.572394" lon="-5.528541">
        <ele>925.845667168498</ele>
        <time>2022-05-21T11:39:22Z</time>
      </trkpt>
      <trkpt lat="42.572373" lon="-5.528664">
        <ele>925.7996628284454</ele>
        <time>2022-05-21T11:39:30Z</time>
      </trkpt>
      <trkpt lat="42.572355" lon="-5.528784">
        <ele>926.0858414610848</ele>
        <time>2022-05-21T11:39:37Z</time>
      </trkpt>
      <trkpt lat="42.57228" lon="-5.528855">
        <ele>925.2786529771984</ele>
        <time>2022-05-21T11:39:45Z</time>
      </trkpt>
      <trkpt lat="42.572352" lon="-5.528955">
        <ele>926.5611631507054</ele>
        <time>2022-05-21T11:39:57Z</time>
      </trkpt>
      <trkpt lat="42.57242" lon="-5.529049">
        <ele>928.1371003771201</ele>
        <time>2022-05-21T11:40:06Z</time>
      </trkpt>
      <trkpt lat="42.572504" lon="-5.529118">
        <ele>927.8807502398267</ele>
        <time>2022-05-21T11:40:14Z</time>
      </trkpt>
      <trkpt lat="42.572594" lon="-5.529166">
        <ele>929.3933907784522</ele>
        <time>2022-05-21T11:40:21Z</time>
      </trkpt>
      <trkpt lat="42.572685" lon="-5.529215">
        <ele>931.9576999917626</ele>
        <time>2022-05-21T11:40:30Z</time>
      </trkpt>
      <trkpt lat="42.572775" lon="-5.529242">
        <ele>931.1503303125501</ele>
        <time>2022-05-21T11:40:37Z</time>
      </trkpt>
      <trkpt lat="42.572856" lon="-5.529302">
        <ele>932.9133003745228</ele>
        <time>2022-05-21T11:40:45Z</time>
      </trkpt>
      <trkpt lat="42.57294" lon="-5.529365">
        <ele>933.5876196399331</ele>
        <time>2022-05-21T11:40:52Z</time>
      </trkpt>
      <trkpt lat="42.573008" lon="-5.529446">
        <ele>933.3970353035256</ele>
        <time>2022-05-21T11:41:01Z</time>
      </trkpt>
      <trkpt lat="42.573074" lon="-5.529536">
        <ele>935.4364228118211</ele>
        <time>2022-05-21T11:41:09Z</time>
      </trkpt>
      <trkpt lat="42.57315" lon="-5.529631">
        <ele>935.737869348377</ele>
        <time>2022-05-21T11:41:19Z</time>
      </trkpt>
      <trkpt lat="42.573205" lon="-5.529745">
        <ele>934.756892863661</ele>
        <time>2022-05-21T11:41:31Z</time>
      </trkpt>
      <trkpt lat="42.573281" lon="-5.529838">
        <ele>933.6938702818006</ele>
        <time>2022-05-21T11:41:41Z</time>
      </trkpt>
      <trkpt lat="42.573357" lon="-5.529914">
        <ele>934.8917073067278</ele>
        <time>2022-05-21T11:41:47Z</time>
      </trkpt>
      <trkpt lat="42.573407" lon="-5.530025">
        <ele>937.8968593077734</ele>
        <time>2022-05-21T11:41:57Z</time>
      </trkpt>
      <trkpt lat="42.573451" lon="-5.530144">
        <ele>937.5665005063638</ele>
        <time>2022-05-21T11:42:07Z</time>
      </trkpt>
      <trkpt lat="42.573509" lon="-5.530251">
        <ele>938.16919681523</ele>
        <time>2022-05-21T11:42:16Z</time>
      </trkpt>
      <trkpt lat="42.573594" lon="-5.53032">
        <ele>937.1757301371545</ele>
        <time>2022-05-21T11:42:26Z</time>
      </trkpt>
      <trkpt lat="42.573642" lon="-5.530431">
        <ele>936.3162950268015</ele>
        <time>2022-05-21T11:42:32Z</time>
      </trkpt>
      <trkpt lat="42.573717" lon="-5.530522">
        <ele>934.1919275801629</ele>
        <time>2022-05-21T11:42:39Z</time>
      </trkpt>
      <trkpt lat="42.573803" lon="-5.530616">
        <ele>932.7914931960404</ele>
        <time>2022-05-21T11:42:46Z</time>
      </trkpt>
      <trkpt lat="42.573868" lon="-5.530709">
        <ele>932.2578661050647</ele>
        <time>2022-05-21T11:42:55Z</time>
      </trkpt>
      <trkpt lat="42.573908" lon="-5.530823">
        <ele>930.4148357789963</ele>
        <time>2022-05-21T11:43:02Z</time>
      </trkpt>
      <trkpt lat="42.573967" lon="-5.530926">
        <ele>930.2782285232097</ele>
        <time>2022-05-21T11:43:12Z</time>
      </trkpt>
      <trkpt lat="42.574029" lon="-5.531024">
        <ele>931.7873686440289</ele>
        <time>2022-05-21T11:43:19Z</time>
      </trkpt>
      <trkpt lat="42.574102" lon="-5.531103">
        <ele>931.3743982119486</ele>
        <time>2022-05-21T11:43:26Z</time>
      </trkpt>
      <trkpt lat="42.574168" lon="-5.531189">
        <ele>931.3778417902067</ele>
        <time>2022-05-21T11:43:34Z</time>
      </trkpt>
      <trkpt lat="42.57422" lon="-5.531293">
        <ele>932.8302903836593</ele>
        <time>2022-05-21T11:43:41Z</time>
      </trkpt>
      <trkpt lat="42.574277" lon="-5.531399">
        <ele>932.5877888230607</ele>
        <time>2022-05-21T11:43:50Z</time>
      </trkpt>
      <trkpt lat="42.574248" lon="-5.531518">
        <ele>933.9585827849805</ele>
        <time>2022-05-21T11:45:31Z</time>
      </trkpt>
      <trkpt lat="42.574256" lon="-5.531641">
        <ele>933.2819895343855</ele>
        <time>2022-05-21T11:46:52Z</time>
      </trkpt>
      <trkpt lat="42.574307" lon="-5.531754">
        <ele>934.5069712344557</ele>
        <time>2022-05-21T11:47:01Z</time>
      </trkpt>
      <trkpt lat="42.57433" lon="-5.531882">
        <ele>932.7112095020711</ele>
        <time>2022-05-21T11:47:09Z</time>
      </trkpt>
      <trkpt lat="42.574357" lon="-5.532004">
        <ele>932.5521979779005</ele>
        <time>2022-05-21T11:47:17Z</time>
      </trkpt>
      <trkpt lat="42.574403" lon="-5.532114">
        <ele>932.2202385403216</ele>
        <time>2022-05-21T11:47:26Z</time>
      </trkpt>
      <trkpt lat="42.574465" lon="-5.532226">
        <ele>932.0351212006062</ele>
        <time>2022-05-21T11:47:34Z</time>
      </trkpt>
      <trkpt lat="42.574479" lon="-5.532352">
        <ele>930.6106632966548</ele>
        <time>2022-05-21T11:47:41Z</time>
      </trkpt>
      <trkpt lat="42.574493" lon="-5.53248">
        <ele>929.2064248779789</ele>
        <time>2022-05-21T11:47:47Z</time>
      </trkpt>
      <trkpt lat="42.574531" lon="-5.532606">
        <ele>926.1847602846101</ele>
        <time>2022-05-21T11:47:55Z</time>
      </trkpt>
      <trkpt lat="42.574549" lon="-5.532727">
        <ele>925.9962762501091</ele>
        <time>2022-05-21T11:48:00Z</time>
      </trkpt>
      <trkpt lat="42.574585" lon="-5.532844">
        <ele>925.6454472756013</ele>
        <time>2022-05-21T11:48:07Z</time>
      </trkpt>
      <trkpt lat="42.57464" lon="-5.532945">
        <ele>927.1470359982923</ele>
        <time>2022-05-21T11:48:15Z</time>
      </trkpt>
      <trkpt lat="42.574675" lon="-5.53306">
        <ele>926.7899634214118</ele>
        <time>2022-05-21T11:48:22Z</time>
      </trkpt>
      <trkpt lat="42.574689" lon="-5.533195">
        <ele>925.5270913178101</ele>
        <time>2022-05-21T11:48:30Z</time>
      </trkpt>
      <trkpt lat="42.574729" lon="-5.533322">
        <ele>926.9074161518365</ele>
        <time>2022-05-21T11:48:37Z</time>
      </trkpt>
      <trkpt lat="42.574762" lon="-5.533443">
        <ele>927.4172395570204</ele>
        <time>2022-05-21T11:48:46Z</time>
      </trkpt>
      <trkpt lat="42.574801" lon="-5.533557">
        <ele>929.0230726189911</ele>
        <time>2022-05-21T11:49:02Z</time>
      </trkpt>
      <trkpt lat="42.5748" lon="-5.533682">
        <ele>929.9948394596577</ele>
        <time>2022-05-21T11:49:09Z</time>
      </trkpt>
      <trkpt lat="42.57482" lon="-5.533804">
        <ele>931.1173029737547</ele>
        <time>2022-05-21T11:49:16Z</time>
      </trkpt>
      <trkpt lat="42.574869" lon="-5.533922">
        <ele>931.9379031267017</ele>
        <time>2022-05-21T11:49:24Z</time>
      </trkpt>
      <trkpt lat="42.574919" lon="-5.534035">
        <ele>932.5380393564701</ele>
        <time>2022-05-21T11:49:31Z</time>
      </trkpt>
      <trkpt lat="42.574929" lon="-5.53418">
        <ele>932.1567611396313</ele>
        <time>2022-05-21T11:49:37Z</time>
      </trkpt>
      <trkpt lat="42.574938" lon="-5.534314">
        <ele>931.0352041898295</ele>
        <time>2022-05-21T11:49:45Z</time>
      </trkpt>
      <trkpt lat="42.574956" lon="-5.534441">
        <ele>931.3238954339176</ele>
        <time>2022-05-21T11:49:52Z</time>
      </trkpt>
      <trkpt lat="42.574994" lon="-5.534562">
        <ele>933.0858002780005</ele>
        <time>2022-05-21T11:50:01Z</time>
      </trkpt>
      <trkpt lat="42.575027" lon="-5.534686">
        <ele>932.6944517670199</ele>
        <time>2022-05-21T11:50:09Z</time>
      </trkpt>
      <trkpt lat="42.575005" lon="-5.534828">
        <ele>928.7628973461688</ele>
        <time>2022-05-21T11:50:16Z</time>
      </trkpt>
      <trkpt lat="42.57495" lon="-5.534937">
        <ele>925.8078313441947</ele>
        <time>2022-05-21T11:50:21Z</time>
      </trkpt>
      <trkpt lat="42.57489" lon="-5.535046">
        <ele>921.0850993515924</ele>
        <time>2022-05-21T11:50:27Z</time>
      </trkpt>
      <trkpt lat="42.574909" lon="-5.535178">
        <ele>917.9195920797065</ele>
        <time>2022-05-21T11:50:37Z</time>
      </trkpt>
      <trkpt lat="42.574935" lon="-5.535306">
        <ele>919.4873224096373</ele>
        <time>2022-05-21T11:50:44Z</time>
      </trkpt>
      <trkpt lat="42.574976" lon="-5.535431">
        <ele>920.5806509722024</ele>
        <time>2022-05-21T11:50:51Z</time>
      </trkpt>
      <trkpt lat="42.574989" lon="-5.535559">
        <ele>919.5220166193321</ele>
        <time>2022-05-21T11:50:59Z</time>
      </trkpt>
      <trkpt lat="42.575042" lon="-5.535674">
        <ele>919.8804910965264</ele>
        <time>2022-05-21T11:51:07Z</time>
      </trkpt>
      <trkpt lat="42.575082" lon="-5.535798">
        <ele>919.952608586289</ele>
        <time>2022-05-21T11:51:15Z</time>
      </trkpt>
      <trkpt lat="42.575083" lon="-5.535926">
        <ele>917.0123579222709</ele>
        <time>2022-05-21T11:51:24Z</time>
      </trkpt>
      <trkpt lat="42.575058" lon="-5.536055">
        <ele>916.5484168138355</ele>
        <time>2022-05-21T11:51:31Z</time>
      </trkpt>
      <trkpt lat="42.575036" lon="-5.536174">
        <ele>913.1422101054341</ele>
        <time>2022-05-21T11:51:39Z</time>
      </trkpt>
      <trkpt lat="42.57504" lon="-5.536308">
        <ele>912.2443193951622</ele>
        <time>2022-05-21T11:51:47Z</time>
      </trkpt>
      <trkpt lat="42.57505" lon="-5.536445">
        <ele>911.7494670785964</ele>
        <time>2022-05-21T11:51:55Z</time>
      </trkpt>
      <trkpt lat="42.575057" lon="-5.536569">
        <ele>912.006847131066</ele>
        <time>2022-05-21T11:52:01Z</time>
      </trkpt>
      <trkpt lat="42.575067" lon="-5.536704">
        <ele>911.4596097217873</ele>
        <time>2022-05-21T11:52:11Z</time>
      </trkpt>
      <trkpt lat="42.575082" lon="-5.536845">
        <ele>909.571624125354</ele>
        <time>2022-05-21T11:52:19Z</time>
      </trkpt>
      <trkpt lat="42.575084" lon="-5.536979">
        <ele>908.8450331855565</ele>
        <time>2022-05-21T11:52:27Z</time>
      </trkpt>
      <trkpt lat="42.575107" lon="-5.537114">
        <ele>907.9249024903402</ele>
        <time>2022-05-21T11:52:36Z</time>
      </trkpt>
      <trkpt lat="42.575131" lon="-5.537243">
        <ele>906.0847626207396</ele>
        <time>2022-05-21T11:52:44Z</time>
      </trkpt>
      <trkpt lat="42.575162" lon="-5.537359">
        <ele>902.8926885202527</ele>
        <time>2022-05-21T11:52:51Z</time>
      </trkpt>
      <trkpt lat="42.575174" lon="-5.537489">
        <ele>901.8953835479915</ele>
        <time>2022-05-21T11:53:01Z</time>
      </trkpt>
      <trkpt lat="42.575161" lon="-5.537611">
        <ele>903.4395776819438</ele>
        <time>2022-05-21T11:53:10Z</time>
      </trkpt>
      <trkpt lat="42.57516" lon="-5.537734">
        <ele>902.9187614228576</ele>
        <time>2022-05-21T11:53:21Z</time>
      </trkpt>
      <trkpt lat="42.575151" lon="-5.537862">
        <ele>901.9242242379114</ele>
        <time>2022-05-21T11:53:30Z</time>
      </trkpt>
      <trkpt lat="42.575143" lon="-5.537998">
        <ele>902.2913188347593</ele>
        <time>2022-05-21T11:53:39Z</time>
      </trkpt>
      <trkpt lat="42.575141" lon="-5.538121">
        <ele>902.7738644387573</ele>
        <time>2022-05-21T11:53:47Z</time>
      </trkpt>
      <trkpt lat="42.575125" lon="-5.538244">
        <ele>903.4017422599718</ele>
        <time>2022-05-21T11:53:52Z</time>
      </trkpt>
      <trkpt lat="42.575109" lon="-5.538367">
        <ele>903.0832734238356</ele>
        <time>2022-05-21T11:54:00Z</time>
      </trkpt>
      <trkpt lat="42.575165" lon="-5.538467">
        <ele>900.4763307217509</ele>
        <time>2022-05-21T11:54:11Z</time>
      </trkpt>
      <trkpt lat="42.575226" lon="-5.538559">
        <ele>898.4442876167595</ele>
        <time>2022-05-21T11:54:20Z</time>
      </trkpt>
      <trkpt lat="42.575245" lon="-5.538685">
        <ele>898.5463742883876</ele>
        <time>2022-05-21T11:54:27Z</time>
      </trkpt>
      <trkpt lat="42.57526" lon="-5.538805">
        <ele>899.8351078499109</ele>
        <time>2022-05-21T11:54:34Z</time>
      </trkpt>
      <trkpt lat="42.575312" lon="-5.538925">
        <ele>900.0254337564111</ele>
        <time>2022-05-21T11:54:44Z</time>
      </trkpt>
      <trkpt lat="42.57538" lon="-5.539021">
        <ele>900.3390024397522</ele>
        <time>2022-05-21T11:54:52Z</time>
      </trkpt>
      <trkpt lat="42.575441" lon="-5.539111">
        <ele>900.5530634373426</ele>
        <time>2022-05-21T11:55:00Z</time>
      </trkpt>
      <trkpt lat="42.575483" lon="-5.539237">
        <ele>898.0113135930151</ele>
        <time>2022-05-21T11:55:07Z</time>
      </trkpt>
      <trkpt lat="42.575516" lon="-5.539364">
        <ele>897.2952142348513</ele>
        <time>2022-05-21T11:55:16Z</time>
      </trkpt>
      <trkpt lat="42.575547" lon="-5.539479">
        <ele>898.1493216492236</ele>
        <time>2022-05-21T11:55:27Z</time>
      </trkpt>
      <trkpt lat="42.57557" lon="-5.539603">
        <ele>897.7887167753652</ele>
        <time>2022-05-21T11:55:35Z</time>
      </trkpt>
      <trkpt lat="42.575605" lon="-5.539735">
        <ele>897.1029187394306</ele>
        <time>2022-05-21T11:55:42Z</time>
      </trkpt>
      <trkpt lat="42.575631" lon="-5.539854">
        <ele>897.6698084957898</ele>
        <time>2022-05-21T11:55:47Z</time>
      </trkpt>
      <trkpt lat="42.575654" lon="-5.539973">
        <ele>896.9146889280528</ele>
        <time>2022-05-21T11:55:55Z</time>
      </trkpt>
      <trkpt lat="42.575677" lon="-5.540109">
        <ele>896.9173246193677</ele>
        <time>2022-05-21T11:56:02Z</time>
      </trkpt>
      <trkpt lat="42.575707" lon="-5.540227">
        <ele>896.5516194971278</ele>
        <time>2022-05-21T11:56:10Z</time>
      </trkpt>
      <trkpt lat="42.57572" lon="-5.540348">
        <ele>897.0786893069744</ele>
        <time>2022-05-21T11:56:16Z</time>
      </trkpt>
      <trkpt lat="42.575752" lon="-5.540475">
        <ele>896.5156386755407</ele>
        <time>2022-05-21T11:56:25Z</time>
      </trkpt>
      <trkpt lat="42.57579" lon="-5.540598">
        <ele>894.3264491325244</ele>
        <time>2022-05-21T11:56:32Z</time>
      </trkpt>
      <trkpt lat="42.575808" lon="-5.540726">
        <ele>892.8052782071754</ele>
        <time>2022-05-21T11:56:41Z</time>
      </trkpt>
      <trkpt lat="42.575838" lon="-5.540851">
        <ele>893.410132791847</ele>
        <time>2022-05-21T11:56:51Z</time>
      </trkpt>
      <trkpt lat="42.575853" lon="-5.540976">
        <ele>892.7384118335322</ele>
        <time>2022-05-21T11:57:01Z</time>
      </trkpt>
      <trkpt lat="42.575903" lon="-5.541084">
        <ele>889.2790484102443</ele>
        <time>2022-05-21T11:57:12Z</time>
      </trkpt>
      <trkpt lat="42.575938" lon="-5.541202">
        <ele>888.3012100532651</ele>
        <time>2022-05-21T11:57:19Z</time>
      </trkpt>
      <trkpt lat="42.575981" lon="-5.541324">
        <ele>886.421933262609</ele>
        <time>2022-05-21T11:57:27Z</time>
      </trkpt>
      <trkpt lat="42.576024" lon="-5.541436">
        <ele>886.648040484637</ele>
        <time>2022-05-21T11:57:36Z</time>
      </trkpt>
      <trkpt lat="42.57607" lon="-5.541546">
        <ele>885.5361433112994</ele>
        <time>2022-05-21T11:57:44Z</time>
      </trkpt>
      <trkpt lat="42.576113" lon="-5.541675">
        <ele>884.666042056866</ele>
        <time>2022-05-21T11:57:58Z</time>
      </trkpt>
      <trkpt lat="42.576162" lon="-5.541785">
        <ele>884.741506847553</ele>
        <time>2022-05-21T11:58:06Z</time>
      </trkpt>
      <trkpt lat="42.576204" lon="-5.541911">
        <ele>885.6581699484959</ele>
        <time>2022-05-21T11:58:15Z</time>
      </trkpt>
      <trkpt lat="42.576254" lon="-5.542013">
        <ele>885.8132290812209</ele>
        <time>2022-05-21T11:58:22Z</time>
      </trkpt>
      <trkpt lat="42.576315" lon="-5.542109">
        <ele>884.5158046288416</ele>
        <time>2022-05-21T11:58:30Z</time>
      </trkpt>
      <trkpt lat="42.576364" lon="-5.542222">
        <ele>883.9653858579695</ele>
        <time>2022-05-21T11:58:37Z</time>
      </trkpt>
      <trkpt lat="42.576408" lon="-5.542335">
        <ele>884.551203652285</ele>
        <time>2022-05-21T11:58:46Z</time>
      </trkpt>
      <trkpt lat="42.576448" lon="-5.542447">
        <ele>884.9691226808354</ele>
        <time>2022-05-21T11:59:00Z</time>
      </trkpt>
      <trkpt lat="42.576504" lon="-5.542557">
        <ele>885.6023102039471</ele>
        <time>2022-05-21T11:59:07Z</time>
      </trkpt>
      <trkpt lat="42.57656" lon="-5.542664">
        <ele>884.2341043082997</ele>
        <time>2022-05-21T11:59:14Z</time>
      </trkpt>
      <trkpt lat="42.576619" lon="-5.54276">
        <ele>886.0981721617281</ele>
        <time>2022-05-21T11:59:24Z</time>
      </trkpt>
      <trkpt lat="42.576665" lon="-5.542883">
        <ele>885.5671162800863</ele>
        <time>2022-05-21T11:59:31Z</time>
      </trkpt>
      <trkpt lat="42.576693" lon="-5.543011">
        <ele>887.1657346626744</ele>
        <time>2022-05-21T11:59:39Z</time>
      </trkpt>
      <trkpt lat="42.576709" lon="-5.543143">
        <ele>885.9979738201946</ele>
        <time>2022-05-21T11:59:47Z</time>
      </trkpt>
      <trkpt lat="42.576753" lon="-5.543261">
        <ele>880.273677601479</ele>
        <time>2022-05-21T11:59:57Z</time>
      </trkpt>
      <trkpt lat="42.576772" lon="-5.543388">
        <ele>880.3864366440102</ele>
        <time>2022-05-21T12:00:06Z</time>
      </trkpt>
      <trkpt lat="42.576746" lon="-5.543514">
        <ele>881.2903243303299</ele>
        <time>2022-05-21T12:00:12Z</time>
      </trkpt>
      <trkpt lat="42.576781" lon="-5.543634">
        <ele>881.3725498579443</ele>
        <time>2022-05-21T12:00:20Z</time>
      </trkpt>
      <trkpt lat="42.57685" lon="-5.543732">
        <ele>881.4414725657552</ele>
        <time>2022-05-21T12:00:27Z</time>
      </trkpt>
      <trkpt lat="42.576908" lon="-5.543835">
        <ele>882.0246869018301</ele>
        <time>2022-05-21T12:00:35Z</time>
      </trkpt>
      <trkpt lat="42.576996" lon="-5.543913">
        <ele>882.0122322468087</ele>
        <time>2022-05-21T12:00:42Z</time>
      </trkpt>
      <trkpt lat="42.577076" lon="-5.543987">
        <ele>884.6808661734685</ele>
        <time>2022-05-21T12:00:52Z</time>
      </trkpt>
      <trkpt lat="42.577141" lon="-5.544084">
        <ele>885.6458641188219</ele>
        <time>2022-05-21T12:01:02Z</time>
      </trkpt>
      <trkpt lat="42.57721" lon="-5.544168">
        <ele>885.0033206799999</ele>
        <time>2022-05-21T12:01:10Z</time>
      </trkpt>
      <trkpt lat="42.577301" lon="-5.54423">
        <ele>886.1817838484421</ele>
        <time>2022-05-21T12:01:17Z</time>
      </trkpt>
      <trkpt lat="42.577375" lon="-5.544309">
        <ele>886.4716188944876</ele>
        <time>2022-05-21T12:01:26Z</time>
      </trkpt>
      <trkpt lat="42.57742" lon="-5.544429">
        <ele>888.2198136858642</ele>
        <time>2022-05-21T12:01:34Z</time>
      </trkpt>
      <trkpt lat="42.577452" lon="-5.544544">
        <ele>885.00062695425</ele>
        <time>2022-05-21T12:01:41Z</time>
      </trkpt>
      <trkpt lat="42.577456" lon="-5.544673">
        <ele>883.1591282561421</ele>
        <time>2022-05-21T12:01:50Z</time>
      </trkpt>
      <trkpt lat="42.577515" lon="-5.544785">
        <ele>883.3795841829851</ele>
        <time>2022-05-21T12:01:59Z</time>
      </trkpt>
      <trkpt lat="42.577587" lon="-5.544866">
        <ele>881.6224991409108</ele>
        <time>2022-05-21T12:02:04Z</time>
      </trkpt>
      <trkpt lat="42.577644" lon="-5.544976">
        <ele>880.5008204393089</ele>
        <time>2022-05-21T12:02:11Z</time>
      </trkpt>
      <trkpt lat="42.577706" lon="-5.545071">
        <ele>878.5786890052259</ele>
        <time>2022-05-21T12:02:21Z</time>
      </trkpt>
      <trkpt lat="42.577761" lon="-5.545178">
        <ele>876.3670826284215</ele>
        <time>2022-05-21T12:02:29Z</time>
      </trkpt>
      <trkpt lat="42.577817" lon="-5.545288">
        <ele>875.6511072926223</ele>
        <time>2022-05-21T12:02:36Z</time>
      </trkpt>
      <trkpt lat="42.577893" lon="-5.545373">
        <ele>876.5693316794932</ele>
        <time>2022-05-21T12:02:44Z</time>
      </trkpt>
      <trkpt lat="42.577958" lon="-5.545473">
        <ele>876.7977856667712</ele>
        <time>2022-05-21T12:02:52Z</time>
      </trkpt>
      <trkpt lat="42.578008" lon="-5.545579">
        <ele>875.2662064470351</ele>
        <time>2022-05-21T12:03:01Z</time>
      </trkpt>
      <trkpt lat="42.578085" lon="-5.545659">
        <ele>875.5118463467807</ele>
        <time>2022-05-21T12:03:09Z</time>
      </trkpt>
      <trkpt lat="42.57816" lon="-5.545735">
        <ele>875.940888539888</ele>
        <time>2022-05-21T12:03:15Z</time>
      </trkpt>
      <trkpt lat="42.578206" lon="-5.545842">
        <ele>876.6490780711174</ele>
        <time>2022-05-21T12:03:24Z</time>
      </trkpt>
      <trkpt lat="42.578246" lon="-5.545959">
        <ele>877.5866908468306</ele>
        <time>2022-05-21T12:03:31Z</time>
      </trkpt>
      <trkpt lat="42.5783" lon="-5.54606">
        <ele>878.6620739940554</ele>
        <time>2022-05-21T12:03:40Z</time>
      </trkpt>
      <trkpt lat="42.578355" lon="-5.546169">
        <ele>878.6975826565176</ele>
        <time>2022-05-21T12:03:46Z</time>
      </trkpt>
      <trkpt lat="42.578413" lon="-5.546274">
        <ele>878.4557628631592</ele>
        <time>2022-05-21T12:03:52Z</time>
      </trkpt>
      <trkpt lat="42.578477" lon="-5.546372">
        <ele>878.4585101651028</ele>
        <time>2022-05-21T12:04:01Z</time>
      </trkpt>
      <trkpt lat="42.57855" lon="-5.546477">
        <ele>879.0824469104409</ele>
        <time>2022-05-21T12:04:09Z</time>
      </trkpt>
      <trkpt lat="42.578621" lon="-5.54657">
        <ele>880.3888686569408</ele>
        <time>2022-05-21T12:04:16Z</time>
      </trkpt>
      <trkpt lat="42.578656" lon="-5.546695">
        <ele>880.9859124254435</ele>
        <time>2022-05-21T12:04:25Z</time>
      </trkpt>
      <trkpt lat="42.578695" lon="-5.546807">
        <ele>881.9477478060871</ele>
        <time>2022-05-21T12:04:31Z</time>
      </trkpt>
      <trkpt lat="42.578741" lon="-5.546925">
        <ele>883.1854560608044</ele>
        <time>2022-05-21T12:04:40Z</time>
      </trkpt>
      <trkpt lat="42.578768" lon="-5.547056">
        <ele>884.2767087072134</ele>
        <time>2022-05-21T12:04:50Z</time>
      </trkpt>
      <trkpt lat="42.578801" lon="-5.547176">
        <ele>881.8955973973498</ele>
        <time>2022-05-21T12:04:59Z</time>
      </trkpt>
      <trkpt lat="42.57885" lon="-5.547285">
        <ele>880.1576725486666</ele>
        <time>2022-05-21T12:05:06Z</time>
      </trkpt>
      <trkpt lat="42.578912" lon="-5.547388">
        <ele>877.4917580522597</ele>
        <time>2022-05-21T12:05:12Z</time>
      </trkpt>
      <trkpt lat="42.578968" lon="-5.547486">
        <ele>876.8057284317911</ele>
        <time>2022-05-21T12:05:21Z</time>
      </trkpt>
      <trkpt lat="42.578995" lon="-5.547613">
        <ele>876.2952128592879</ele>
        <time>2022-05-21T12:05:30Z</time>
      </trkpt>
      <trkpt lat="42.579038" lon="-5.547733">
        <ele>876.3477848609909</ele>
        <time>2022-05-21T12:05:40Z</time>
      </trkpt>
      <trkpt lat="42.579072" lon="-5.547848">
        <ele>878.5650769444183</ele>
        <time>2022-05-21T12:05:46Z</time>
      </trkpt>
      <trkpt lat="42.579083" lon="-5.547982">
        <ele>877.4700849624351</ele>
        <time>2022-05-21T12:05:55Z</time>
      </trkpt>
      <trkpt lat="42.57914" lon="-5.548096">
        <ele>877.5801365142688</ele>
        <time>2022-05-21T12:06:04Z</time>
      </trkpt>
      <trkpt lat="42.579169" lon="-5.548213">
        <ele>879.8148629078642</ele>
        <time>2022-05-21T12:06:11Z</time>
      </trkpt>
      <trkpt lat="42.579222" lon="-5.548318">
        <ele>881.3716528117657</ele>
        <time>2022-05-21T12:06:17Z</time>
      </trkpt>
      <trkpt lat="42.57928" lon="-5.548429">
        <ele>881.8050690609962</ele>
        <time>2022-05-21T12:06:27Z</time>
      </trkpt>
      <trkpt lat="42.579339" lon="-5.548537">
        <ele>882.3724201060832</ele>
        <time>2022-05-21T12:06:35Z</time>
      </trkpt>
      <trkpt lat="42.579413" lon="-5.548615">
        <ele>881.5410020798445</ele>
        <time>2022-05-21T12:06:42Z</time>
      </trkpt>
      <trkpt lat="42.579465" lon="-5.548719">
        <ele>880.520904943347</ele>
        <time>2022-05-21T12:06:55Z</time>
      </trkpt>
      <trkpt lat="42.579552" lon="-5.548763">
        <ele>885.0379252322018</ele>
        <time>2022-05-21T12:07:00Z</time>
      </trkpt>
      <trkpt lat="42.579566" lon="-5.548891">
        <ele>886.5554821705446</ele>
        <time>2022-05-21T12:07:11Z</time>
      </trkpt>
      <trkpt lat="42.579621" lon="-5.548998">
        <ele>884.7531829355285</ele>
        <time>2022-05-21T12:07:19Z</time>
      </trkpt>
      <trkpt lat="42.579669" lon="-5.549112">
        <ele>880.0793386921287</ele>
        <time>2022-05-21T12:07:29Z</time>
      </trkpt>
      <trkpt lat="42.579745" lon="-5.549214">
        <ele>878.9614275358617</ele>
        <time>2022-05-21T12:07:36Z</time>
      </trkpt>
      <trkpt lat="42.579779" lon="-5.549332">
        <ele>877.9480888117105</ele>
        <time>2022-05-21T12:07:45Z</time>
      </trkpt>
      <trkpt lat="42.579835" lon="-5.549427">
        <ele>876.9969910895452</ele>
        <time>2022-05-21T12:07:51Z</time>
      </trkpt>
      <trkpt lat="42.579893" lon="-5.549528">
        <ele>875.232125364244</ele>
        <time>2022-05-21T12:07:57Z</time>
      </trkpt>
      <trkpt lat="42.579958" lon="-5.549615">
        <ele>873.8044275771827</ele>
        <time>2022-05-21T12:08:05Z</time>
      </trkpt>
      <trkpt lat="42.580031" lon="-5.549688">
        <ele>875.6894486686215</ele>
        <time>2022-05-21T12:08:10Z</time>
      </trkpt>
      <trkpt lat="42.580109" lon="-5.549766">
        <ele>872.4601670019329</ele>
        <time>2022-05-21T12:08:17Z</time>
      </trkpt>
      <trkpt lat="42.58017" lon="-5.54987">
        <ele>870.939942904748</ele>
        <time>2022-05-21T12:08:26Z</time>
      </trkpt>
      <trkpt lat="42.580244" lon="-5.549943">
        <ele>873.5879271104932</ele>
        <time>2022-05-21T12:08:32Z</time>
      </trkpt>
      <trkpt lat="42.580277" lon="-5.550057">
        <ele>873.944638245739</ele>
        <time>2022-05-21T12:08:39Z</time>
      </trkpt>
      <trkpt lat="42.58035" lon="-5.550144">
        <ele>872.8798158401623</ele>
        <time>2022-05-21T12:08:49Z</time>
      </trkpt>
      <trkpt lat="42.580409" lon="-5.550239">
        <ele>872.6931447731331</ele>
        <time>2022-05-21T12:08:55Z</time>
      </trkpt>
      <trkpt lat="42.580443" lon="-5.550366">
        <ele>871.4417564533651</ele>
        <time>2022-05-21T12:09:02Z</time>
      </trkpt>
      <trkpt lat="42.580495" lon="-5.550477">
        <ele>872.2087985789403</ele>
        <time>2022-05-21T12:09:10Z</time>
      </trkpt>
      <trkpt lat="42.580545" lon="-5.550585">
        <ele>872.4919503731653</ele>
        <time>2022-05-21T12:09:17Z</time>
      </trkpt>
      <trkpt lat="42.580585" lon="-5.550699">
        <ele>872.8381954366341</ele>
        <time>2022-05-21T12:09:25Z</time>
      </trkpt>
      <trkpt lat="42.580665" lon="-5.55077">
        <ele>871.7698885770515</ele>
        <time>2022-05-21T12:09:34Z</time>
      </trkpt>
      <trkpt lat="42.580738" lon="-5.55086">
        <ele>870.1115056760609</ele>
        <time>2022-05-21T12:09:41Z</time>
      </trkpt>
      <trkpt lat="42.580793" lon="-5.550958">
        <ele>867.3897209931165</ele>
        <time>2022-05-21T12:09:47Z</time>
      </trkpt>
      <trkpt lat="42.580864" lon="-5.551056">
        <ele>867.4723627064377</ele>
        <time>2022-05-21T12:09:57Z</time>
      </trkpt>
      <trkpt lat="42.580909" lon="-5.551168">
        <ele>867.1416570944712</ele>
        <time>2022-05-21T12:10:04Z</time>
      </trkpt>
      <trkpt lat="42.580968" lon="-5.551267">
        <ele>867.0843722838908</ele>
        <time>2022-05-21T12:10:12Z</time>
      </trkpt>
      <trkpt lat="42.58101" lon="-5.55139">
        <ele>866.7731004171073</ele>
        <time>2022-05-21T12:10:21Z</time>
      </trkpt>
      <trkpt lat="42.581047" lon="-5.551507">
        <ele>866.5523533606902</ele>
        <time>2022-05-21T12:10:30Z</time>
      </trkpt>
      <trkpt lat="42.581095" lon="-5.551616">
        <ele>866.5675020534545</ele>
        <time>2022-05-21T12:10:37Z</time>
      </trkpt>
      <trkpt lat="42.581138" lon="-5.551736">
        <ele>867.8692341763526</ele>
        <time>2022-05-21T12:10:46Z</time>
      </trkpt>
      <trkpt lat="42.581194" lon="-5.551835">
        <ele>867.9790358636528</ele>
        <time>2022-05-21T12:10:54Z</time>
      </trkpt>
      <trkpt lat="42.581243" lon="-5.551948">
        <ele>865.9720972720534</ele>
        <time>2022-05-21T12:11:01Z</time>
      </trkpt>
      <trkpt lat="42.581291" lon="-5.552051">
        <ele>862.8666434194893</ele>
        <time>2022-05-21T12:11:11Z</time>
      </trkpt>
      <trkpt lat="42.581346" lon="-5.552153">
        <ele>862.4687258088961</ele>
        <time>2022-05-21T12:11:30Z</time>
      </trkpt>
      <trkpt lat="42.581416" lon="-5.552241">
        <ele>860.1218359107152</ele>
        <time>2022-05-21T12:11:39Z</time>
      </trkpt>
      <trkpt lat="42.581489" lon="-5.552371">
        <ele>859.2439588597044</ele>
        <time>2022-05-21T12:11:49Z</time>
      </trkpt>
      <trkpt lat="42.581557" lon="-5.552461">
        <ele>861.3680032324046</ele>
        <time>2022-05-21T12:11:57Z</time>
      </trkpt>
      <trkpt lat="42.581568" lon="-5.552585">
        <ele>861.8930487036705</ele>
        <time>2022-05-21T12:12:20Z</time>
      </trkpt>
      <trkpt lat="42.581511" lon="-5.552687">
        <ele>864.5372648434713</ele>
        <time>2022-05-21T12:13:16Z</time>
      </trkpt>
      <trkpt lat="42.581474" lon="-5.5528">
        <ele>866.0414428049698</ele>
        <time>2022-05-21T12:13:27Z</time>
      </trkpt>
      <trkpt lat="42.58144" lon="-5.552926">
        <ele>868.1461362633854</ele>
        <time>2022-05-21T12:13:39Z</time>
      </trkpt>
      <trkpt lat="42.581412" lon="-5.55305">
        <ele>870.2503985576332</ele>
        <time>2022-05-21T12:13:45Z</time>
      </trkpt>
      <trkpt lat="42.581384" lon="-5.553182">
        <ele>872.150046848692</ele>
        <time>2022-05-21T12:13:54Z</time>
      </trkpt>
      <trkpt lat="42.581379" lon="-5.553317">
        <ele>874.2821111083031</ele>
        <time>2022-05-21T12:14:01Z</time>
      </trkpt>
      <trkpt lat="42.58137" lon="-5.553445">
        <ele>874.5678351018578</ele>
        <time>2022-05-21T12:14:06Z</time>
      </trkpt>
      <trkpt lat="42.581381" lon="-5.553586">
        <ele>874.730561343953</ele>
        <time>2022-05-21T12:14:12Z</time>
      </trkpt>
      <trkpt lat="42.58138" lon="-5.553723">
        <ele>874.394330881536</ele>
        <time>2022-05-21T12:14:20Z</time>
      </trkpt>
      <trkpt lat="42.581331" lon="-5.553839">
        <ele>870.9408411579207</ele>
        <time>2022-05-21T12:14:25Z</time>
      </trkpt>
      <trkpt lat="42.581325" lon="-5.553964">
        <ele>866.3828514749184</ele>
        <time>2022-05-21T12:14:32Z</time>
      </trkpt>
      <trkpt lat="42.581411" lon="-5.554026">
        <ele>861.9510783134028</ele>
        <time>2022-05-21T12:14:42Z</time>
      </trkpt>
      <trkpt lat="42.581489" lon="-5.554097">
        <ele>859.8708304436877</ele>
        <time>2022-05-21T12:14:47Z</time>
      </trkpt>
      <trkpt lat="42.581515" lon="-5.554227">
        <ele>853.1481333673</ele>
        <time>2022-05-21T12:15:01Z</time>
      </trkpt>
      <trkpt lat="42.581571" lon="-5.554333">
        <ele>848.6879412271082</ele>
        <time>2022-05-21T12:15:09Z</time>
      </trkpt>
      <trkpt lat="42.581518" lon="-5.554436">
        <ele>847.6731464490294</ele>
        <time>2022-05-21T12:15:17Z</time>
      </trkpt>
      <trkpt lat="42.58149" lon="-5.554561">
        <ele>848.1410742513835</ele>
        <time>2022-05-21T12:15:32Z</time>
      </trkpt>
      <trkpt lat="42.581468" lon="-5.554689">
        <ele>846.7176539124921</ele>
        <time>2022-05-21T12:15:39Z</time>
      </trkpt>
      <trkpt lat="42.581395" lon="-5.554768">
        <ele>844.7475544828922</ele>
        <time>2022-05-21T12:15:45Z</time>
      </trkpt>
      <trkpt lat="42.581332" lon="-5.554888">
        <ele>844.0328263640404</ele>
        <time>2022-05-21T12:15:54Z</time>
      </trkpt>
      <trkpt lat="42.581321" lon="-5.555017">
        <ele>842.7919130772352</ele>
        <time>2022-05-21T12:16:01Z</time>
      </trkpt>
      <trkpt lat="42.581349" lon="-5.555141">
        <ele>841.9116105493158</ele>
        <time>2022-05-21T12:16:07Z</time>
      </trkpt>
      <trkpt lat="42.581437" lon="-5.555195">
        <ele>843.8629011688754</ele>
        <time>2022-05-21T12:16:19Z</time>
      </trkpt>
      <trkpt lat="42.581518" lon="-5.555252">
        <ele>847.2534803980961</ele>
        <time>2022-05-21T12:16:26Z</time>
      </trkpt>
      <trkpt lat="42.581594" lon="-5.555318">
        <ele>847.9936185302213</ele>
        <time>2022-05-21T12:16:32Z</time>
      </trkpt>
      <trkpt lat="42.581685" lon="-5.555378">
        <ele>849.5556721184403</ele>
        <time>2022-05-21T12:16:37Z</time>
      </trkpt>
      <trkpt lat="42.58175" lon="-5.555464">
        <ele>847.8671755474061</ele>
        <time>2022-05-21T12:16:44Z</time>
      </trkpt>
      <trkpt lat="42.581835" lon="-5.555536">
        <ele>850.3525134809315</ele>
        <time>2022-05-21T12:16:52Z</time>
      </trkpt>
      <trkpt lat="42.581905" lon="-5.555624">
        <ele>854.2114804796875</ele>
        <time>2022-05-21T12:16:59Z</time>
      </trkpt>
      <trkpt lat="42.581874" lon="-5.55574">
        <ele>861.3777336170897</ele>
        <time>2022-05-21T12:17:15Z</time>
      </trkpt>
      <trkpt lat="42.58193" lon="-5.555841">
        <ele>861.2584159839898</ele>
        <time>2022-05-21T12:17:22Z</time>
      </trkpt>
      <trkpt lat="42.582009" lon="-5.555914">
        <ele>859.9287306126207</ele>
        <time>2022-05-21T12:18:22Z</time>
      </trkpt>
      <trkpt lat="42.582076" lon="-5.556001">
        <ele>858.017092355527</ele>
        <time>2022-05-21T12:18:31Z</time>
      </trkpt>
      <trkpt lat="42.582092" lon="-5.556122">
        <ele>858.7735807206482</ele>
        <time>2022-05-21T12:19:00Z</time>
      </trkpt>
      <trkpt lat="42.582145" lon="-5.556241">
        <ele>857.8882601261139</ele>
        <time>2022-05-21T12:19:17Z</time>
      </trkpt>
      <trkpt lat="42.582217" lon="-5.556315">
        <ele>856.2890489008278</ele>
        <time>2022-05-21T12:19:24Z</time>
      </trkpt>
      <trkpt lat="42.582285" lon="-5.556412">
        <ele>857.52071055118</ele>
        <time>2022-05-21T12:19:32Z</time>
      </trkpt>
      <trkpt lat="42.58236" lon="-5.55648">
        <ele>856.7620953181759</ele>
        <time>2022-05-21T12:19:40Z</time>
      </trkpt>
      <trkpt lat="42.582425" lon="-5.556569">
        <ele>859.4229049412534</ele>
        <time>2022-05-21T12:19:47Z</time>
      </trkpt>
      <trkpt lat="42.582519" lon="-5.556626">
        <ele>859.887197740376</ele>
        <time>2022-05-21T12:19:54Z</time>
      </trkpt>
      <trkpt lat="42.582605" lon="-5.556718">
        <ele>857.9623410981148</ele>
        <time>2022-05-21T12:19:57Z</time>
      </trkpt>
      <trkpt lat="42.582682" lon="-5.556801">
        <ele>856.2530143922195</ele>
        <time>2022-05-21T12:20:02Z</time>
      </trkpt>
      <trkpt lat="42.582734" lon="-5.556907">
        <ele>852.0821183836088</ele>
        <time>2022-05-21T12:20:14Z</time>
      </trkpt>
      <trkpt lat="42.582828" lon="-5.556887">
        <ele>852.83137948066</ele>
        <time>2022-05-21T12:20:27Z</time>
      </trkpt>
      <trkpt lat="42.582921" lon="-5.556906">
        <ele>855.5430167745799</ele>
        <time>2022-05-21T12:20:32Z</time>
      </trkpt>
      <trkpt lat="42.58302" lon="-5.556937">
        <ele>859.1402112375945</ele>
        <time>2022-05-21T12:20:39Z</time>
      </trkpt>
      <trkpt lat="42.58311" lon="-5.556941">
        <ele>868.2919129924849</ele>
        <time>2022-05-21T12:20:46Z</time>
      </trkpt>
      <trkpt lat="42.583178" lon="-5.556845">
        <ele>879.2212593220174</ele>
        <time>2022-05-21T12:21:10Z</time>
      </trkpt>
      <trkpt lat="42.583249" lon="-5.556937">
        <ele>875.756623454392</ele>
        <time>2022-05-21T12:21:26Z</time>
      </trkpt>
      <trkpt lat="42.583287" lon="-5.557066">
        <ele>875.9976082220674</ele>
        <time>2022-05-21T12:21:34Z</time>
      </trkpt>
      <trkpt lat="42.583366" lon="-5.557151">
        <ele>875.5791599359363</ele>
        <time>2022-05-21T12:21:42Z</time>
      </trkpt>
      <trkpt lat="42.583451" lon="-5.557197">
        <ele>874.1705303294584</ele>
        <time>2022-05-21T12:21:51Z</time>
      </trkpt>
      <trkpt lat="42.583533" lon="-5.557267">
        <ele>872.010999799706</ele>
        <time>2022-05-21T12:22:00Z</time>
      </trkpt>
      <trkpt lat="42.583614" lon="-5.55733">
        <ele>868.3933272454888</ele>
        <time>2022-05-21T12:22:07Z</time>
      </trkpt>
      <trkpt lat="42.583687" lon="-5.557411">
        <ele>864.9934290358797</ele>
        <time>2022-05-21T12:22:15Z</time>
      </trkpt>
      <trkpt lat="42.583764" lon="-5.557491">
        <ele>859.6100084278733</ele>
        <time>2022-05-21T12:22:22Z</time>
      </trkpt>
      <trkpt lat="42.583849" lon="-5.557562">
        <ele>853.1421817969531</ele>
        <time>2022-05-21T12:22:31Z</time>
      </trkpt>
      <trkpt lat="42.583934" lon="-5.557614">
        <ele>848.7847790205851</ele>
        <time>2022-05-21T12:22:37Z</time>
      </trkpt>
      <trkpt lat="42.584016" lon="-5.557669">
        <ele>846.4556664070114</ele>
        <time>2022-05-21T12:22:46Z</time>
      </trkpt>
      <trkpt lat="42.584069" lon="-5.557784">
        <ele>846.2198520684615</ele>
        <time>2022-05-21T12:22:56Z</time>
      </trkpt>
      <trkpt lat="42.584119" lon="-5.557903">
        <ele>845.772617103532</ele>
        <time>2022-05-21T12:23:05Z</time>
      </trkpt>
      <trkpt lat="42.584202" lon="-5.557958">
        <ele>844.6742825219408</ele>
        <time>2022-05-21T12:23:12Z</time>
      </trkpt>
      <trkpt lat="42.58429" lon="-5.558015">
        <ele>844.4207525653765</ele>
        <time>2022-05-21T12:23:20Z</time>
      </trkpt>
      <trkpt lat="42.584371" lon="-5.558088">
        <ele>842.7499083420262</ele>
        <time>2022-05-21T12:23:29Z</time>
      </trkpt>
      <trkpt lat="42.584454" lon="-5.558142">
        <ele>842.5255437390879</ele>
        <time>2022-05-21T12:23:37Z</time>
      </trkpt>
      <trkpt lat="42.584526" lon="-5.558218">
        <ele>844.9388887966052</ele>
        <time>2022-05-21T12:23:50Z</time>
      </trkpt>
      <trkpt lat="42.584562" lon="-5.558342">
        <ele>847.1567356502637</ele>
        <time>2022-05-21T12:24:00Z</time>
      </trkpt>
      <trkpt lat="42.584636" lon="-5.558444">
        <ele>846.7716290755197</ele>
        <time>2022-05-21T12:24:07Z</time>
      </trkpt>
      <trkpt lat="42.584708" lon="-5.558528">
        <ele>846.3528827959672</ele>
        <time>2022-05-21T12:24:15Z</time>
      </trkpt>
      <trkpt lat="42.584794" lon="-5.558584">
        <ele>845.4935892084613</ele>
        <time>2022-05-21T12:24:24Z</time>
      </trkpt>
      <trkpt lat="42.584866" lon="-5.558666">
        <ele>844.9892888590693</ele>
        <time>2022-05-21T12:24:31Z</time>
      </trkpt>
      <trkpt lat="42.584954" lon="-5.558706">
        <ele>845.3397544883192</ele>
        <time>2022-05-21T12:24:39Z</time>
      </trkpt>
      <trkpt lat="42.585023" lon="-5.558787">
        <ele>846.5432129949331</ele>
        <time>2022-05-21T12:24:46Z</time>
      </trkpt>
      <trkpt lat="42.58511" lon="-5.558841">
        <ele>847.8097856510431</ele>
        <time>2022-05-21T12:24:55Z</time>
      </trkpt>
      <trkpt lat="42.585178" lon="-5.558936">
        <ele>849.7899635452777</ele>
        <time>2022-05-21T12:25:04Z</time>
      </trkpt>
      <trkpt lat="42.585258" lon="-5.559005">
        <ele>850.527459458448</ele>
        <time>2022-05-21T12:25:14Z</time>
      </trkpt>
      <trkpt lat="42.585315" lon="-5.559103">
        <ele>850.8664908120409</ele>
        <time>2022-05-21T12:25:21Z</time>
      </trkpt>
      <trkpt lat="42.585398" lon="-5.559182">
        <ele>850.8432140564546</ele>
        <time>2022-05-21T12:25:32Z</time>
      </trkpt>
      <trkpt lat="42.585461" lon="-5.559277">
        <ele>848.3820178126916</ele>
        <time>2022-05-21T12:25:40Z</time>
      </trkpt>
      <trkpt lat="42.585503" lon="-5.559399">
        <ele>844.8243191186339</ele>
        <time>2022-05-21T12:25:49Z</time>
      </trkpt>
      <trkpt lat="42.585571" lon="-5.5595">
        <ele>838.5191687354818</ele>
        <time>2022-05-21T12:25:57Z</time>
      </trkpt>
      <trkpt lat="42.585661" lon="-5.559566">
        <ele>835.1147715505213</ele>
        <time>2022-05-21T12:26:04Z</time>
      </trkpt>
      <trkpt lat="42.585756" lon="-5.559628">
        <ele>835.2967016343027</ele>
        <time>2022-05-21T12:26:16Z</time>
      </trkpt>
      <trkpt lat="42.585846" lon="-5.55966">
        <ele>834.9568599490449</ele>
        <time>2022-05-21T12:26:21Z</time>
      </trkpt>
      <trkpt lat="42.58594" lon="-5.559723">
        <ele>834.2261676425114</ele>
        <time>2022-05-21T12:26:31Z</time>
      </trkpt>
      <trkpt lat="42.586033" lon="-5.559757">
        <ele>834.262419139035</ele>
        <time>2022-05-21T12:26:37Z</time>
      </trkpt>
      <trkpt lat="42.586127" lon="-5.559791">
        <ele>837.2236678507179</ele>
        <time>2022-05-21T12:26:45Z</time>
      </trkpt>
      <trkpt lat="42.586207" lon="-5.559852">
        <ele>838.2338456483558</ele>
        <time>2022-05-21T12:26:52Z</time>
      </trkpt>
      <trkpt lat="42.586278" lon="-5.559951">
        <ele>835.5431569423527</ele>
        <time>2022-05-21T12:27:04Z</time>
      </trkpt>
      <trkpt lat="42.586344" lon="-5.560051">
        <ele>833.6328010112047</ele>
        <time>2022-05-21T12:27:11Z</time>
      </trkpt>
      <trkpt lat="42.586432" lon="-5.560134">
        <ele>830.4762394605204</ele>
        <time>2022-05-21T12:27:17Z</time>
      </trkpt>
      <trkpt lat="42.586519" lon="-5.560185">
        <ele>828.7419429486617</ele>
        <time>2022-05-21T12:27:22Z</time>
      </trkpt>
      <trkpt lat="42.586602" lon="-5.56024">
        <ele>827.0588039271533</ele>
        <time>2022-05-21T12:27:29Z</time>
      </trkpt>
      <trkpt lat="42.586655" lon="-5.560339">
        <ele>825.0416767345741</ele>
        <time>2022-05-21T12:27:41Z</time>
      </trkpt>
      <trkpt lat="42.586727" lon="-5.56042">
        <ele>823.7182414568961</ele>
        <time>2022-05-21T12:27:47Z</time>
      </trkpt>
      <trkpt lat="42.586809" lon="-5.5605">
        <ele>820.8700893511996</ele>
        <time>2022-05-21T12:27:57Z</time>
      </trkpt>
      <trkpt lat="42.586901" lon="-5.560517">
        <ele>816.7497916966677</ele>
        <time>2022-05-21T12:28:05Z</time>
      </trkpt>
      <trkpt lat="42.586993" lon="-5.560508">
        <ele>813.4007160170004</ele>
        <time>2022-05-21T12:28:25Z</time>
      </trkpt>
      <trkpt lat="42.587084" lon="-5.560564">
        <ele>812.0054682986811</ele>
        <time>2022-05-21T12:28:32Z</time>
      </trkpt>
      <trkpt lat="42.58713" lon="-5.560669">
        <ele>807.8477323418483</ele>
        <time>2022-05-21T12:28:45Z</time>
      </trkpt>
      <trkpt lat="42.587116" lon="-5.560799">
        <ele>797.7812694972381</ele>
        <time>2022-05-21T12:28:55Z</time>
      </trkpt>
      <trkpt lat="42.587054" lon="-5.560909">
        <ele>788.1217114040628</ele>
        <time>2022-05-21T12:29:00Z</time>
      </trkpt>
      <trkpt lat="42.587058" lon="-5.561042">
        <ele>783.4881775984541</ele>
        <time>2022-05-21T12:29:05Z</time>
      </trkpt>
      <trkpt lat="42.587112" lon="-5.561142">
        <ele>780.3189994143322</ele>
        <time>2022-05-21T12:29:12Z</time>
      </trkpt>
      <trkpt lat="42.587189" lon="-5.561215">
        <ele>781.6597420237958</ele>
        <time>2022-05-21T12:29:16Z</time>
      </trkpt>
      <trkpt lat="42.587265" lon="-5.561303">
        <ele>781.5557145355269</ele>
        <time>2022-05-21T12:29:20Z</time>
      </trkpt>
      <trkpt lat="42.587315" lon="-5.561426">
        <ele>778.9139968566597</ele>
        <time>2022-05-21T12:29:27Z</time>
      </trkpt>
      <trkpt lat="42.587389" lon="-5.561501">
        <ele>778.38652207423</ele>
        <time>2022-05-21T12:29:31Z</time>
      </trkpt>
      <trkpt lat="42.58747" lon="-5.561559">
        <ele>780.3422370487824</ele>
        <time>2022-05-21T12:29:40Z</time>
      </trkpt>
      <trkpt lat="42.587537" lon="-5.56165">
        <ele>779.7552755391225</ele>
        <time>2022-05-21T12:29:45Z</time>
      </trkpt>
      <trkpt lat="42.587609" lon="-5.56175">
        <ele>775.9509384697303</ele>
        <time>2022-05-21T12:29:56Z</time>
      </trkpt>
      <trkpt lat="42.587708" lon="-5.561799">
        <ele>775.934038608335</ele>
        <time>2022-05-21T12:30:07Z</time>
      </trkpt>
      <trkpt lat="42.587781" lon="-5.561727">
        <ele>787.2440099185333</ele>
        <time>2022-05-21T12:30:26Z</time>
      </trkpt>
      <trkpt lat="42.587852" lon="-5.561635">
        <ele>808.0682864077389</ele>
        <time>2022-05-21T12:30:41Z</time>
      </trkpt>
      <trkpt lat="42.587937" lon="-5.561586">
        <ele>813.5893174456432</ele>
        <time>2022-05-21T12:30:52Z</time>
      </trkpt>
      <trkpt lat="42.587963" lon="-5.56146">
        <ele>840.9780873134732</ele>
        <time>2022-05-21T12:36:25Z</time>
      </trkpt>
      <trkpt lat="42.588041" lon="-5.561385">
        <ele>851.1114679379389</ele>
        <time>2022-05-21T12:36:36Z</time>
      </trkpt>
      <trkpt lat="42.588129" lon="-5.56134">
        <ele>856.1865637563169</ele>
        <time>2022-05-21T12:36:46Z</time>
      </trkpt>
      <trkpt lat="42.588219" lon="-5.561321">
        <ele>859.4139018841088</ele>
        <time>2022-05-21T12:36:57Z</time>
      </trkpt>
      <trkpt lat="42.58828" lon="-5.561451">
        <ele>855.1123242778704</ele>
        <time>2022-05-21T12:37:01Z</time>
      </trkpt>
      <trkpt lat="42.588324" lon="-5.561567">
        <ele>848.5811347095296</ele>
        <time>2022-05-21T12:37:06Z</time>
      </trkpt>
      <trkpt lat="42.588409" lon="-5.561642">
        <ele>846.0486678425223</ele>
        <time>2022-05-21T12:37:12Z</time>
      </trkpt>
      <trkpt lat="42.588504" lon="-5.561673">
        <ele>845.0387036697939</ele>
        <time>2022-05-21T12:37:22Z</time>
      </trkpt>
      <trkpt lat="42.588586" lon="-5.56173">
        <ele>841.8425531079993</ele>
        <time>2022-05-21T12:37:45Z</time>
      </trkpt>
      <trkpt lat="42.588665" lon="-5.561794">
        <ele>839.1874122451991</ele>
        <time>2022-05-21T12:37:51Z</time>
      </trkpt>
      <trkpt lat="42.588735" lon="-5.561875">
        <ele>833.537971409969</ele>
        <time>2022-05-21T12:37:57Z</time>
      </trkpt>
      <trkpt lat="42.588833" lon="-5.561912">
        <ele>831.2403569389135</ele>
        <time>2022-05-21T12:38:04Z</time>
      </trkpt>
      <trkpt lat="42.58892" lon="-5.56199">
        <ele>824.8050837637857</ele>
        <time>2022-05-21T12:38:11Z</time>
      </trkpt>
      <trkpt lat="42.588982" lon="-5.56208">
        <ele>819.7064457973465</ele>
        <time>2022-05-21T12:38:17Z</time>
      </trkpt>
      <trkpt lat="42.589062" lon="-5.562157">
        <ele>812.9475422678515</ele>
        <time>2022-05-21T12:38:27Z</time>
      </trkpt>
      <trkpt lat="42.589141" lon="-5.562226">
        <ele>808.9465578468516</ele>
        <time>2022-05-21T12:38:37Z</time>
      </trkpt>
      <trkpt lat="42.589236" lon="-5.562247">
        <ele>800.3449653377756</ele>
        <time>2022-05-21T12:38:49Z</time>
      </trkpt>
      <trkpt lat="42.58932" lon="-5.56231">
        <ele>808.6655819956213</ele>
        <time>2022-05-21T12:39:55Z</time>
      </trkpt>
      <trkpt lat="42.589408" lon="-5.562355">
        <ele>811.6257496979088</ele>
        <time>2022-05-21T12:40:02Z</time>
      </trkpt>
      <trkpt lat="42.589464" lon="-5.562452">
        <ele>814.0558778848499</ele>
        <time>2022-05-21T12:40:11Z</time>
      </trkpt>
      <trkpt lat="42.589493" lon="-5.562573">
        <ele>819.2699925638735</ele>
        <time>2022-05-21T12:40:19Z</time>
      </trkpt>
      <trkpt lat="42.589598" lon="-5.562575">
        <ele>819.9953311495483</ele>
        <time>2022-05-21T12:40:24Z</time>
      </trkpt>
      <trkpt lat="42.589684" lon="-5.562613">
        <ele>820.7868229430169</ele>
        <time>2022-05-21T12:40:30Z</time>
      </trkpt>
      <trkpt lat="42.589772" lon="-5.562659">
        <ele>824.3660844694823</ele>
        <time>2022-05-21T12:40:37Z</time>
      </trkpt>
      <trkpt lat="42.589891" lon="-5.562712">
        <ele>827.9295356459916</ele>
        <time>2022-05-21T12:40:41Z</time>
      </trkpt>
      <trkpt lat="42.590004" lon="-5.56274">
        <ele>830.6640023579821</ele>
        <time>2022-05-21T12:40:45Z</time>
      </trkpt>
      <trkpt lat="42.5901" lon="-5.56275">
        <ele>832.268690969795</ele>
        <time>2022-05-21T12:40:47Z</time>
      </trkpt>
      <trkpt lat="42.590183" lon="-5.562801">
        <ele>832.9830935113132</ele>
        <time>2022-05-21T12:40:49Z</time>
      </trkpt>
      <trkpt lat="42.590271" lon="-5.562878">
        <ele>835.1321622207761</ele>
        <time>2022-05-21T12:40:52Z</time>
      </trkpt>
      <trkpt lat="42.590373" lon="-5.562958">
        <ele>837.6406484404579</ele>
        <time>2022-05-21T12:40:56Z</time>
      </trkpt>
      <trkpt lat="42.590462" lon="-5.563076">
        <ele>840.7774832798168</ele>
        <time>2022-05-21T12:41:01Z</time>
      </trkpt>
      <trkpt lat="42.590536" lon="-5.563175">
        <ele>841.873402711004</ele>
        <time>2022-05-21T12:41:06Z</time>
      </trkpt>
      <trkpt lat="42.590602" lon="-5.563286">
        <ele>837.9135947506875</ele>
        <time>2022-05-21T12:41:10Z</time>
      </trkpt>
      <trkpt lat="42.590661" lon="-5.56339">
        <ele>834.4344475576654</ele>
        <time>2022-05-21T12:41:14Z</time>
      </trkpt>
      <trkpt lat="42.590735" lon="-5.563475">
        <ele>831.6914568189532</ele>
        <time>2022-05-21T12:41:17Z</time>
      </trkpt>
      <trkpt lat="42.59082" lon="-5.563549">
        <ele>828.6205080458894</ele>
        <time>2022-05-21T12:41:22Z</time>
      </trkpt>
      <trkpt lat="42.590911" lon="-5.563608">
        <ele>826.4701905390248</ele>
        <time>2022-05-21T12:41:27Z</time>
      </trkpt>
      <trkpt lat="42.590989" lon="-5.563691">
        <ele>825.6861822474748</ele>
        <time>2022-05-21T12:41:37Z</time>
      </trkpt>
      <trkpt lat="42.591049" lon="-5.563785">
        <ele>825.3295060265809</ele>
        <time>2022-05-21T12:41:50Z</time>
      </trkpt>
      <trkpt lat="42.591089" lon="-5.563896">
        <ele>819.0542999338359</ele>
        <time>2022-05-21T12:42:09Z</time>
      </trkpt>
      <trkpt lat="42.591139" lon="-5.564001">
        <ele>814.6045017307624</ele>
        <time>2022-05-21T12:42:15Z</time>
      </trkpt>
      <trkpt lat="42.591207" lon="-5.564089">
        <ele>810.2894039880484</ele>
        <time>2022-05-21T12:42:22Z</time>
      </trkpt>
      <trkpt lat="42.591251" lon="-5.564196">
        <ele>808.1309358142316</ele>
        <time>2022-05-21T12:42:29Z</time>
      </trkpt>
      <trkpt lat="42.591304" lon="-5.564313">
        <ele>803.5098969172686</ele>
        <time>2022-05-21T12:42:39Z</time>
      </trkpt>
      <trkpt lat="42.591344" lon="-5.564423">
        <ele>798.7252048281953</ele>
        <time>2022-05-21T12:42:49Z</time>
      </trkpt>
      <trkpt lat="42.591425" lon="-5.56448">
        <ele>804.2920846575871</ele>
        <time>2022-05-21T12:42:56Z</time>
      </trkpt>
      <trkpt lat="42.591527" lon="-5.564531">
        <ele>809.7529584821314</ele>
        <time>2022-05-21T12:43:01Z</time>
      </trkpt>
      <trkpt lat="42.591618" lon="-5.564586">
        <ele>816.6294351192191</ele>
        <time>2022-05-21T12:43:06Z</time>
      </trkpt>
      <trkpt lat="42.591682" lon="-5.564677">
        <ele>817.6610272806138</ele>
        <time>2022-05-21T12:43:12Z</time>
      </trkpt>
      <trkpt lat="42.591769" lon="-5.564757">
        <ele>819.1478157378733</ele>
        <time>2022-05-21T12:43:21Z</time>
      </trkpt>
      <trkpt lat="42.591843" lon="-5.564834">
        <ele>818.167483812198</ele>
        <time>2022-05-21T12:43:32Z</time>
      </trkpt>
      <trkpt lat="42.591922" lon="-5.564916">
        <ele>817.7266816459596</ele>
        <time>2022-05-21T12:43:39Z</time>
      </trkpt>
      <trkpt lat="42.592004" lon="-5.564996">
        <ele>820.4246076960117</ele>
        <time>2022-05-21T12:43:46Z</time>
      </trkpt>
      <trkpt lat="42.592079" lon="-5.565067">
        <ele>819.4494535857812</ele>
        <time>2022-05-21T12:43:52Z</time>
      </trkpt>
      <trkpt lat="42.592146" lon="-5.565149">
        <ele>816.8465566840023</ele>
        <time>2022-05-21T12:44:02Z</time>
      </trkpt>
      <trkpt lat="42.592206" lon="-5.565258">
        <ele>814.604050158523</ele>
        <time>2022-05-21T12:44:10Z</time>
      </trkpt>
      <trkpt lat="42.59225" lon="-5.565376">
        <ele>814.7803664403036</ele>
        <time>2022-05-21T12:44:19Z</time>
      </trkpt>
      <trkpt lat="42.592327" lon="-5.565455">
        <ele>814.375216010958</ele>
        <time>2022-05-21T12:44:27Z</time>
      </trkpt>
      <trkpt lat="42.592394" lon="-5.565544">
        <ele>814.4402350625023</ele>
        <time>2022-05-21T12:45:41Z</time>
      </trkpt>
      <trkpt lat="42.592451" lon="-5.565648">
        <ele>807.3642544448376</ele>
        <time>2022-05-21T12:45:51Z</time>
      </trkpt>
      <trkpt lat="42.592507" lon="-5.565748">
        <ele>798.7215859228745</ele>
        <time>2022-05-21T12:46:01Z</time>
      </trkpt>
      <trkpt lat="42.592548" lon="-5.56586">
        <ele>791.7691634688526</ele>
        <time>2022-05-21T12:46:10Z</time>
      </trkpt>
      <trkpt lat="42.592561" lon="-5.565996">
        <ele>786.986446980387</ele>
        <time>2022-05-21T12:46:19Z</time>
      </trkpt>
      <trkpt lat="42.592537" lon="-5.566118">
        <ele>783.0791036803275</ele>
        <time>2022-05-21T12:46:25Z</time>
      </trkpt>
      <trkpt lat="42.59258" lon="-5.566242">
        <ele>780.5872601894662</ele>
        <time>2022-05-21T12:46:36Z</time>
      </trkpt>
      <trkpt lat="42.592642" lon="-5.566346">
        <ele>782.5712622068822</ele>
        <time>2022-05-21T12:46:45Z</time>
      </trkpt>
      <trkpt lat="42.5927" lon="-5.566458">
        <ele>783.7105554416776</ele>
        <time>2022-05-21T12:47:07Z</time>
      </trkpt>
      <trkpt lat="42.592776" lon="-5.566567">
        <ele>784.0882724924013</ele>
        <time>2022-05-21T12:47:12Z</time>
      </trkpt>
      <trkpt lat="42.592844" lon="-5.566658">
        <ele>781.6550360247493</ele>
        <time>2022-05-21T12:47:19Z</time>
      </trkpt>
      <trkpt lat="42.592928" lon="-5.566735">
        <ele>779.3175756763667</ele>
        <time>2022-05-21T12:47:24Z</time>
      </trkpt>
      <trkpt lat="42.592995" lon="-5.566844">
        <ele>777.1158163193613</ele>
        <time>2022-05-21T12:47:27Z</time>
      </trkpt>
      <trkpt lat="42.593031" lon="-5.566958">
        <ele>776.7337846457958</ele>
        <time>2022-05-21T12:47:32Z</time>
      </trkpt>
      <trkpt lat="42.593048" lon="-5.567089">
        <ele>777.1956914421171</ele>
        <time>2022-05-21T12:47:37Z</time>
      </trkpt>
      <trkpt lat="42.593069" lon="-5.567213">
        <ele>777.1430729078129</ele>
        <time>2022-05-21T12:47:44Z</time>
      </trkpt>
      <trkpt lat="42.593094" lon="-5.567336">
        <ele>776.7021966408938</ele>
        <time>2022-05-21T12:47:49Z</time>
      </trkpt>
      <trkpt lat="42.593179" lon="-5.567426">
        <ele>778.8596371691674</ele>
        <time>2022-05-21T12:47:54Z</time>
      </trkpt>
      <trkpt lat="42.593266" lon="-5.567462">
        <ele>779.6772196553648</ele>
        <time>2022-05-21T12:48:05Z</time>
      </trkpt>
      <trkpt lat="42.593317" lon="-5.567581">
        <ele>777.0429718168452</ele>
        <time>2022-05-21T12:48:11Z</time>
      </trkpt>
      <trkpt lat="42.593394" lon="-5.567675">
        <ele>776.5877304440364</ele>
        <time>2022-05-21T12:48:17Z</time>
      </trkpt>
      <trkpt lat="42.593468" lon="-5.567752">
        <ele>776.3445412674919</ele>
        <time>2022-05-21T12:48:22Z</time>
      </trkpt>
      <trkpt lat="42.593541" lon="-5.56785">
        <ele>777.6141987089068</ele>
        <time>2022-05-21T12:48:27Z</time>
      </trkpt>
      <trkpt lat="42.59359" lon="-5.567957">
        <ele>780.9457891108468</ele>
        <time>2022-05-21T12:48:35Z</time>
      </trkpt>
      <trkpt lat="42.593585" lon="-5.568082">
        <ele>783.6893411828205</ele>
        <time>2022-05-21T12:48:49Z</time>
      </trkpt>
      <trkpt lat="42.593653" lon="-5.568191">
        <ele>788.7175586307421</ele>
        <time>2022-05-21T12:48:56Z</time>
      </trkpt>
      <trkpt lat="42.593708" lon="-5.568297">
        <ele>787.2938390830532</ele>
        <time>2022-05-21T12:49:07Z</time>
      </trkpt>
      <trkpt lat="42.5938" lon="-5.568287">
        <ele>788.0978436535224</ele>
        <time>2022-05-21T12:49:14Z</time>
      </trkpt>
      <trkpt lat="42.593893" lon="-5.568296">
        <ele>789.9943491881713</ele>
        <time>2022-05-21T12:49:17Z</time>
      </trkpt>
      <trkpt lat="42.593986" lon="-5.568348">
        <ele>791.8483750829473</ele>
        <time>2022-05-21T12:49:22Z</time>
      </trkpt>
      <trkpt lat="42.594074" lon="-5.568411">
        <ele>795.0142688341439</ele>
        <time>2022-05-21T12:49:31Z</time>
      </trkpt>
      <trkpt lat="42.594133" lon="-5.568505">
        <ele>794.5618270691484</ele>
        <time>2022-05-21T12:49:41Z</time>
      </trkpt>
      <trkpt lat="42.594222" lon="-5.56854">
        <ele>792.8231943575665</ele>
        <time>2022-05-21T12:49:49Z</time>
      </trkpt>
      <trkpt lat="42.594285" lon="-5.568635">
        <ele>789.3108177613467</ele>
        <time>2022-05-21T12:49:56Z</time>
      </trkpt>
      <trkpt lat="42.594297" lon="-5.568759">
        <ele>786.9514784691855</ele>
        <time>2022-05-21T12:50:04Z</time>
      </trkpt>
      <trkpt lat="42.594391" lon="-5.568804">
        <ele>787.1223330022767</ele>
        <time>2022-05-21T12:50:12Z</time>
      </trkpt>
      <trkpt lat="42.594481" lon="-5.568818">
        <ele>779.7168251974508</ele>
        <time>2022-05-21T12:50:26Z</time>
      </trkpt>
      <trkpt lat="42.59456" lon="-5.568881">
        <ele>779.4791909009218</ele>
        <time>2022-05-21T12:50:35Z</time>
      </trkpt>
      <trkpt lat="42.594596" lon="-5.569009">
        <ele>779.4915205352008</ele>
        <time>2022-05-21T12:50:41Z</time>
      </trkpt>
      <trkpt lat="42.594654" lon="-5.569105">
        <ele>779.2550049005076</ele>
        <time>2022-05-21T12:50:50Z</time>
      </trkpt>
      <trkpt lat="42.594746" lon="-5.569138">
        <ele>780.412623967044</ele>
        <time>2022-05-21T12:50:57Z</time>
      </trkpt>
      <trkpt lat="42.594834" lon="-5.569205">
        <ele>781.0798798212782</ele>
        <time>2022-05-21T12:51:07Z</time>
      </trkpt>
      <trkpt lat="42.594913" lon="-5.569291">
        <ele>780.1802984513342</ele>
        <time>2022-05-21T12:51:14Z</time>
      </trkpt>
      <trkpt lat="42.594944" lon="-5.569431">
        <ele>781.3302371781319</ele>
        <time>2022-05-21T12:51:18Z</time>
      </trkpt>
      <trkpt lat="42.595001" lon="-5.569542">
        <ele>785.9042321154848</ele>
        <time>2022-05-21T12:51:24Z</time>
      </trkpt>
      <trkpt lat="42.595065" lon="-5.569446">
        <ele>792.8099598465487</ele>
        <time>2022-05-21T12:51:47Z</time>
      </trkpt>
      <trkpt lat="42.595125" lon="-5.569322">
        <ele>796.0369669068605</ele>
        <time>2022-05-21T12:51:57Z</time>
      </trkpt>
      <trkpt lat="42.595178" lon="-5.569203">
        <ele>796.8660040432587</ele>
        <time>2022-05-21T12:52:04Z</time>
      </trkpt>
      <trkpt lat="42.595257" lon="-5.569144">
        <ele>798.3176801465452</ele>
        <time>2022-05-21T12:52:11Z</time>
      </trkpt>
      <trkpt lat="42.595331" lon="-5.569051">
        <ele>800.9459220860153</ele>
        <time>2022-05-21T12:52:17Z</time>
      </trkpt>
      <trkpt lat="42.595376" lon="-5.568942">
        <ele>804.0300741037354</ele>
        <time>2022-05-21T12:52:55Z</time>
      </trkpt>
      <trkpt lat="42.595331" lon="-5.569053">
        <ele>803.3676089998335</ele>
        <time>2022-05-21T12:53:09Z</time>
      </trkpt>
      <trkpt lat="42.595374" lon="-5.568931">
        <ele>800.8144812360406</ele>
        <time>2022-05-21T12:53:15Z</time>
      </trkpt>
      <trkpt lat="42.595279" lon="-5.568812">
        <ele>797.714755426161</ele>
        <time>2022-05-21T12:53:31Z</time>
      </trkpt>
      <trkpt lat="42.595196" lon="-5.568741">
        <ele>797.1088418997824</ele>
        <time>2022-05-21T12:53:32Z</time>
      </trkpt>
      <trkpt lat="42.595162" lon="-5.568626">
        <ele>804.0643627243116</ele>
        <time>2022-05-21T12:53:57Z</time>
      </trkpt>
      <trkpt lat="42.595169" lon="-5.568497">
        <ele>809.5465105846524</ele>
        <time>2022-05-21T12:54:51Z</time>
      </trkpt>
      <trkpt lat="42.595252" lon="-5.568449">
        <ele>814.1982799144462</ele>
        <time>2022-05-21T12:55:05Z</time>
      </trkpt>
      <trkpt lat="42.595317" lon="-5.568358">
        <ele>829.2636752752587</ele>
        <time>2022-05-21T12:56:02Z</time>
      </trkpt>
      <trkpt lat="42.595258" lon="-5.568256">
        <ele>836.7703343853354</ele>
        <time>2022-05-21T12:56:59Z</time>
      </trkpt>
      <trkpt lat="42.595348" lon="-5.568233">
        <ele>845.365283834748</ele>
        <time>2022-05-21T12:57:22Z</time>
      </trkpt>
      <trkpt lat="42.595262" lon="-5.568177">
        <ele>840.4080910384655</ele>
        <time>2022-05-21T12:58:35Z</time>
      </trkpt>
      <trkpt lat="42.595205" lon="-5.568059">
        <ele>840.31477174256</ele>
        <time>2022-05-21T12:58:57Z</time>
      </trkpt>
      <trkpt lat="42.595305" lon="-5.568125">
        <ele>840.2550340630114</ele>
        <time>2022-05-21T12:59:04Z</time>
      </trkpt>
      <trkpt lat="42.595409" lon="-5.568109">
        <ele>840.451764379628</ele>
        <time>2022-05-21T12:59:07Z</time>
      </trkpt>
      <trkpt lat="42.59549" lon="-5.568047">
        <ele>840.7406858643517</ele>
        <time>2022-05-21T12:59:09Z</time>
      </trkpt>
      <trkpt lat="42.595582" lon="-5.568016">
        <ele>841.0632241982967</ele>
        <time>2022-05-21T12:59:12Z</time>
      </trkpt>
      <trkpt lat="42.595708" lon="-5.567984">
        <ele>841.3785851113498</ele>
        <time>2022-05-21T12:59:14Z</time>
      </trkpt>
      <trkpt lat="42.595902" lon="-5.56787">
        <ele>842.5409836024046</ele>
        <time>2022-05-21T12:59:17Z</time>
      </trkpt>
      <trkpt lat="42.596001" lon="-5.567779">
        <ele>843.2665557172149</ele>
        <time>2022-05-21T12:59:21Z</time>
      </trkpt>
      <trkpt lat="42.596118" lon="-5.567768">
        <ele>844.8887080866843</ele>
        <time>2022-05-21T12:59:26Z</time>
      </trkpt>
      <trkpt lat="42.596123" lon="-5.567891">
        <ele>848.0498114461079</ele>
        <time>2022-05-21T12:59:31Z</time>
      </trkpt>
      <trkpt lat="42.596167" lon="-5.568011">
        <ele>862.0334656704217</ele>
        <time>2022-05-21T12:59:55Z</time>
      </trkpt>
      <trkpt lat="42.596212" lon="-5.568137">
        <ele>866.9937511757016</ele>
        <time>2022-05-21T13:00:02Z</time>
      </trkpt>
      <trkpt lat="42.596266" lon="-5.568241">
        <ele>877.0857403548434</ele>
        <time>2022-05-21T13:00:15Z</time>
      </trkpt>
    </trkseg>
  </trk>
</gpx>
